<?xml version="1.0" encoding="UTF-8"?>
<gpx version="1.1" creator="https://www.youtrack.es" xsi:schemaLocation="http://www.topografix.com/GPX/1/1 http://www.topografix.com/GPX/1/1/gpx.xsd http://www.garmin.com/xmlschemas/GpxExtensions/v3 http://www.garmin.com/xmlschemas/GpxExtensionsv3.xsd http://www.garmin.com/xmlschemas/TrackPointExtension/v1 http://www.garmin.com/xmlschemas/TrackPointExtensionv1.xsd" xmlns:gpxtpx="http://www.garmin.com/xmlschemas/TrackPointExtension/v1" xmlns:gpxx="http://www.garmin.com/xmlschemas/GpxExtensions/v3" xmlns:xsi="http://www.w3.org/2001/XMLSchema-instance">
  <metadata>
    <link href="https://www.youtrack.es">
      <text>YouTrack.es</text>
    </link>
    <time>2026-05-08T23:05:19Z</time>
  </metadata>
  <trk>
    <src>https://www.youtrack.es</src>
    <link href="https://www.youtrack.es/ruta/22465-z-descenso">
      <text>YouTrack.es</text>
    </link>
    <trkseg>
      <trkpt lat="-12.1176200" lon="-76.6319370">
        <ele>1728.1</ele>
        <time>2021-05-30T14:10:40Z</time>
      </trkpt>
      <trkpt lat="-12.1176070" lon="-76.6319330">
        <ele>1728.2</ele>
        <time>2021-05-30T14:10:42Z</time>
      </trkpt>
      <trkpt lat="-12.1176040" lon="-76.6319250">
        <ele>1728.2</ele>
        <time>2021-05-30T14:10:44Z</time>
      </trkpt>
      <trkpt lat="-12.1176010" lon="-76.6319320">
        <ele>1728.3</ele>
        <time>2021-05-30T14:10:45Z</time>
      </trkpt>
      <trkpt lat="-12.1175970" lon="-76.6319420">
        <ele>1728.3</ele>
        <time>2021-05-30T14:10:47Z</time>
      </trkpt>
      <trkpt lat="-12.1175930" lon="-76.6319400">
        <ele>1728.4</ele>
        <time>2021-05-30T14:10:49Z</time>
      </trkpt>
      <trkpt lat="-12.1175910" lon="-76.6319380">
        <ele>1728.4</ele>
        <time>2021-05-30T14:10:51Z</time>
      </trkpt>
      <trkpt lat="-12.1175910" lon="-76.6319380">
        <ele>1728.4</ele>
        <time>2021-05-30T14:10:52Z</time>
      </trkpt>
      <trkpt lat="-12.1175910" lon="-76.6319380">
        <ele>1728.4</ele>
        <time>2021-05-30T14:10:53Z</time>
      </trkpt>
      <trkpt lat="-12.1175910" lon="-76.6319380">
        <ele>1728.4</ele>
        <time>2021-05-30T14:10:55Z</time>
      </trkpt>
      <trkpt lat="-12.1175910" lon="-76.6319370">
        <ele>1728.4</ele>
        <time>2021-05-30T14:10:58Z</time>
      </trkpt>
      <trkpt lat="-12.1175910" lon="-76.6319370">
        <ele>1728.4</ele>
        <time>2021-05-30T14:10:59Z</time>
      </trkpt>
      <trkpt lat="-12.1175910" lon="-76.6319370">
        <ele>1728.4</ele>
        <time>2021-05-30T14:11:01Z</time>
      </trkpt>
      <trkpt lat="-12.1175910" lon="-76.6319370">
        <ele>1728.4</ele>
        <time>2021-05-30T14:11:02Z</time>
      </trkpt>
      <trkpt lat="-12.1175910" lon="-76.6319380">
        <ele>1728.4</ele>
        <time>2021-05-30T14:11:04Z</time>
      </trkpt>
      <trkpt lat="-12.1175900" lon="-76.6319390">
        <ele>1728.4</ele>
        <time>2021-05-30T14:11:05Z</time>
      </trkpt>
      <trkpt lat="-12.1175900" lon="-76.6319400">
        <ele>1728.4</ele>
        <time>2021-05-30T14:11:06Z</time>
      </trkpt>
      <trkpt lat="-12.1175900" lon="-76.6319410">
        <ele>1728.4</ele>
        <time>2021-05-30T14:11:08Z</time>
      </trkpt>
      <trkpt lat="-12.1175880" lon="-76.6318810">
        <ele>1728.8</ele>
        <time>2021-05-30T14:11:23Z</time>
      </trkpt>
      <trkpt lat="-12.1175910" lon="-76.6318510">
        <ele>1729.0</ele>
        <time>2021-05-30T14:11:24Z</time>
      </trkpt>
      <trkpt lat="-12.1175920" lon="-76.6318070">
        <ele>1729.3</ele>
        <time>2021-05-30T14:11:26Z</time>
      </trkpt>
      <trkpt lat="-12.1175840" lon="-76.6317650">
        <ele>1729.6</ele>
        <time>2021-05-30T14:11:27Z</time>
      </trkpt>
      <trkpt lat="-12.1175720" lon="-76.6317350">
        <ele>1729.8</ele>
        <time>2021-05-30T14:11:28Z</time>
      </trkpt>
      <trkpt lat="-12.1175640" lon="-76.6317050">
        <ele>1730.0</ele>
        <time>2021-05-30T14:11:29Z</time>
      </trkpt>
      <trkpt lat="-12.1175530" lon="-76.6316610">
        <ele>1730.3</ele>
        <time>2021-05-30T14:11:31Z</time>
      </trkpt>
      <trkpt lat="-12.1175420" lon="-76.6316170">
        <ele>1730.6</ele>
        <time>2021-05-30T14:11:33Z</time>
      </trkpt>
      <trkpt lat="-12.1175310" lon="-76.6315870">
        <ele>1730.9</ele>
        <time>2021-05-30T14:11:34Z</time>
      </trkpt>
      <trkpt lat="-12.1175130" lon="-76.6315620">
        <ele>1731.1</ele>
        <time>2021-05-30T14:11:36Z</time>
      </trkpt>
      <trkpt lat="-12.1175060" lon="-76.6315540">
        <ele>1731.1</ele>
        <time>2021-05-30T14:11:37Z</time>
      </trkpt>
      <trkpt lat="-12.1174890" lon="-76.6315300">
        <ele>1731.3</ele>
        <time>2021-05-30T14:11:38Z</time>
      </trkpt>
      <trkpt lat="-12.1174710" lon="-76.6315090">
        <ele>1731.5</ele>
        <time>2021-05-30T14:11:40Z</time>
      </trkpt>
      <trkpt lat="-12.1174530" lon="-76.6314830">
        <ele>1731.7</ele>
        <time>2021-05-30T14:11:41Z</time>
      </trkpt>
      <trkpt lat="-12.1174340" lon="-76.6314550">
        <ele>1732.0</ele>
        <time>2021-05-30T14:11:43Z</time>
      </trkpt>
      <trkpt lat="-12.1174270" lon="-76.6314450">
        <ele>1732.0</ele>
        <time>2021-05-30T14:11:44Z</time>
      </trkpt>
      <trkpt lat="-12.1174100" lon="-76.6314220">
        <ele>1732.2</ele>
        <time>2021-05-30T14:11:45Z</time>
      </trkpt>
      <trkpt lat="-12.1173800" lon="-76.6313910">
        <ele>1732.5</ele>
        <time>2021-05-30T14:11:47Z</time>
      </trkpt>
      <trkpt lat="-12.1173530" lon="-76.6313650">
        <ele>1732.8</ele>
        <time>2021-05-30T14:11:48Z</time>
      </trkpt>
      <trkpt lat="-12.1173260" lon="-76.6313370">
        <ele>1733.0</ele>
        <time>2021-05-30T14:11:49Z</time>
      </trkpt>
      <trkpt lat="-12.1173170" lon="-76.6313280">
        <ele>1733.1</ele>
        <time>2021-05-30T14:11:50Z</time>
      </trkpt>
      <trkpt lat="-12.1172940" lon="-76.6312970">
        <ele>1733.4</ele>
        <time>2021-05-30T14:11:51Z</time>
      </trkpt>
      <trkpt lat="-12.1172710" lon="-76.6312570">
        <ele>1733.7</ele>
        <time>2021-05-30T14:11:53Z</time>
      </trkpt>
      <trkpt lat="-12.1172540" lon="-76.6312220">
        <ele>1734.0</ele>
        <time>2021-05-30T14:11:54Z</time>
      </trkpt>
      <trkpt lat="-12.1172330" lon="-76.6311830">
        <ele>1734.3</ele>
        <time>2021-05-30T14:11:56Z</time>
      </trkpt>
      <trkpt lat="-12.1172130" lon="-76.6311620">
        <ele>1734.5</ele>
        <time>2021-05-30T14:11:57Z</time>
      </trkpt>
      <trkpt lat="-12.1172110" lon="-76.6311520">
        <ele>1734.5</ele>
        <time>2021-05-30T14:11:58Z</time>
      </trkpt>
      <trkpt lat="-12.1172050" lon="-76.6311290">
        <ele>1734.7</ele>
        <time>2021-05-30T14:12:00Z</time>
      </trkpt>
      <trkpt lat="-12.1171970" lon="-76.6311120">
        <ele>1734.8</ele>
        <time>2021-05-30T14:12:02Z</time>
      </trkpt>
      <trkpt lat="-12.1171950" lon="-76.6311030">
        <ele>1734.9</ele>
        <time>2021-05-30T14:12:03Z</time>
      </trkpt>
      <trkpt lat="-12.1171970" lon="-76.6310960">
        <ele>1734.9</ele>
        <time>2021-05-30T14:12:05Z</time>
      </trkpt>
      <trkpt lat="-12.1172000" lon="-76.6310900">
        <ele>1735.0</ele>
        <time>2021-05-30T14:12:06Z</time>
      </trkpt>
      <trkpt lat="-12.1172020" lon="-76.6310830">
        <ele>1735.0</ele>
        <time>2021-05-30T14:12:07Z</time>
      </trkpt>
      <trkpt lat="-12.1172050" lon="-76.6310770">
        <ele>1735.1</ele>
        <time>2021-05-30T14:12:08Z</time>
      </trkpt>
      <trkpt lat="-12.1172070" lon="-76.6310700">
        <ele>1735.1</ele>
        <time>2021-05-30T14:12:10Z</time>
      </trkpt>
      <trkpt lat="-12.1172100" lon="-76.6310640">
        <ele>1735.2</ele>
        <time>2021-05-30T14:12:11Z</time>
      </trkpt>
      <trkpt lat="-12.1172120" lon="-76.6310570">
        <ele>1735.2</ele>
        <time>2021-05-30T14:12:12Z</time>
      </trkpt>
      <trkpt lat="-12.1172150" lon="-76.6310510">
        <ele>1735.2</ele>
        <time>2021-05-30T14:12:15Z</time>
      </trkpt>
      <trkpt lat="-12.1172180" lon="-76.6310450">
        <ele>1735.3</ele>
        <time>2021-05-30T14:12:16Z</time>
      </trkpt>
      <trkpt lat="-12.1172200" lon="-76.6310380">
        <ele>1735.3</ele>
        <time>2021-05-30T14:12:17Z</time>
      </trkpt>
      <trkpt lat="-12.1172230" lon="-76.6310320">
        <ele>1735.4</ele>
        <time>2021-05-30T14:12:19Z</time>
      </trkpt>
      <trkpt lat="-12.1172250" lon="-76.6310250">
        <ele>1735.4</ele>
        <time>2021-05-30T14:12:20Z</time>
      </trkpt>
      <trkpt lat="-12.1172280" lon="-76.6310190">
        <ele>1735.5</ele>
        <time>2021-05-30T14:12:21Z</time>
      </trkpt>
      <trkpt lat="-12.1172300" lon="-76.6310120">
        <ele>1735.5</ele>
        <time>2021-05-30T14:12:23Z</time>
      </trkpt>
      <trkpt lat="-12.1172330" lon="-76.6310060">
        <ele>1735.6</ele>
        <time>2021-05-30T14:12:24Z</time>
      </trkpt>
      <trkpt lat="-12.1172350" lon="-76.6309990">
        <ele>1735.6</ele>
        <time>2021-05-30T14:12:32Z</time>
      </trkpt>
      <trkpt lat="-12.1172380" lon="-76.6309930">
        <ele>1735.7</ele>
        <time>2021-05-30T14:12:33Z</time>
      </trkpt>
      <trkpt lat="-12.1172470" lon="-76.6309360">
        <ele>1736.1</ele>
        <time>2021-05-30T14:12:35Z</time>
      </trkpt>
      <trkpt lat="-12.1172570" lon="-76.6308870">
        <ele>1736.4</ele>
        <time>2021-05-30T14:12:36Z</time>
      </trkpt>
      <trkpt lat="-12.1172690" lon="-76.6308270">
        <ele>1736.8</ele>
        <time>2021-05-30T14:12:37Z</time>
      </trkpt>
      <trkpt lat="-12.1172780" lon="-76.6307790">
        <ele>1737.1</ele>
        <time>2021-05-30T14:12:39Z</time>
      </trkpt>
      <trkpt lat="-12.1172900" lon="-76.6307290">
        <ele>1737.5</ele>
        <time>2021-05-30T14:12:40Z</time>
      </trkpt>
      <trkpt lat="-12.1173000" lon="-76.6306960">
        <ele>1737.7</ele>
        <time>2021-05-30T14:12:41Z</time>
      </trkpt>
      <trkpt lat="-12.1173110" lon="-76.6306490">
        <ele>1738.0</ele>
        <time>2021-05-30T14:12:43Z</time>
      </trkpt>
      <trkpt lat="-12.1173160" lon="-76.6306060">
        <ele>1738.3</ele>
        <time>2021-05-30T14:12:44Z</time>
      </trkpt>
      <trkpt lat="-12.1173150" lon="-76.6305740">
        <ele>1738.5</ele>
        <time>2021-05-30T14:12:45Z</time>
      </trkpt>
      <trkpt lat="-12.1173080" lon="-76.6305300">
        <ele>1738.8</ele>
        <time>2021-05-30T14:12:47Z</time>
      </trkpt>
      <trkpt lat="-12.1173000" lon="-76.6304830">
        <ele>1739.1</ele>
        <time>2021-05-30T14:12:48Z</time>
      </trkpt>
      <trkpt lat="-12.1172930" lon="-76.6304420">
        <ele>1739.4</ele>
        <time>2021-05-30T14:12:50Z</time>
      </trkpt>
      <trkpt lat="-12.1172890" lon="-76.6304080">
        <ele>1739.6</ele>
        <time>2021-05-30T14:12:51Z</time>
      </trkpt>
      <trkpt lat="-12.1172900" lon="-76.6303770">
        <ele>1739.9</ele>
        <time>2021-05-30T14:12:52Z</time>
      </trkpt>
      <trkpt lat="-12.1172940" lon="-76.6303180">
        <ele>1740.3</ele>
        <time>2021-05-30T14:12:54Z</time>
      </trkpt>
      <trkpt lat="-12.1172970" lon="-76.6302830">
        <ele>1740.5</ele>
        <time>2021-05-30T14:12:55Z</time>
      </trkpt>
      <trkpt lat="-12.1172990" lon="-76.6302310">
        <ele>1740.8</ele>
        <time>2021-05-30T14:12:56Z</time>
      </trkpt>
      <trkpt lat="-12.1172950" lon="-76.6301900">
        <ele>1741.1</ele>
        <time>2021-05-30T14:12:58Z</time>
      </trkpt>
      <trkpt lat="-12.1172910" lon="-76.6301520">
        <ele>1741.4</ele>
        <time>2021-05-30T14:12:59Z</time>
      </trkpt>
      <trkpt lat="-12.1172880" lon="-76.6301160">
        <ele>1741.6</ele>
        <time>2021-05-30T14:13:00Z</time>
      </trkpt>
      <trkpt lat="-12.1172770" lon="-76.6300670">
        <ele>1741.9</ele>
        <time>2021-05-30T14:13:01Z</time>
      </trkpt>
      <trkpt lat="-12.1172670" lon="-76.6300340">
        <ele>1742.2</ele>
        <time>2021-05-30T14:13:03Z</time>
      </trkpt>
      <trkpt lat="-12.1172540" lon="-76.6300040">
        <ele>1742.4</ele>
        <time>2021-05-30T14:13:04Z</time>
      </trkpt>
      <trkpt lat="-12.1172400" lon="-76.6299690">
        <ele>1742.6</ele>
        <time>2021-05-30T14:13:05Z</time>
      </trkpt>
      <trkpt lat="-12.1172260" lon="-76.6299330">
        <ele>1742.9</ele>
        <time>2021-05-30T14:13:07Z</time>
      </trkpt>
      <trkpt lat="-12.1172170" lon="-76.6299030">
        <ele>1743.1</ele>
        <time>2021-05-30T14:13:08Z</time>
      </trkpt>
      <trkpt lat="-12.1172060" lon="-76.6298650">
        <ele>1743.4</ele>
        <time>2021-05-30T14:13:09Z</time>
      </trkpt>
      <trkpt lat="-12.1171930" lon="-76.6298300">
        <ele>1743.6</ele>
        <time>2021-05-30T14:13:10Z</time>
      </trkpt>
      <trkpt lat="-12.1171750" lon="-76.6297920">
        <ele>1743.9</ele>
        <time>2021-05-30T14:13:11Z</time>
      </trkpt>
      <trkpt lat="-12.1171520" lon="-76.6297480">
        <ele>1744.2</ele>
        <time>2021-05-30T14:13:13Z</time>
      </trkpt>
      <trkpt lat="-12.1171370" lon="-76.6297160">
        <ele>1744.5</ele>
        <time>2021-05-30T14:13:14Z</time>
      </trkpt>
      <trkpt lat="-12.1171130" lon="-76.6296690">
        <ele>1744.8</ele>
        <time>2021-05-30T14:13:16Z</time>
      </trkpt>
      <trkpt lat="-12.1170950" lon="-76.6296390">
        <ele>1745.1</ele>
        <time>2021-05-30T14:13:17Z</time>
      </trkpt>
      <trkpt lat="-12.1170770" lon="-76.6296050">
        <ele>1745.3</ele>
        <time>2021-05-30T14:13:18Z</time>
      </trkpt>
      <trkpt lat="-12.1170570" lon="-76.6295640">
        <ele>1745.6</ele>
        <time>2021-05-30T14:13:19Z</time>
      </trkpt>
      <trkpt lat="-12.1170440" lon="-76.6295320">
        <ele>1745.9</ele>
        <time>2021-05-30T14:13:20Z</time>
      </trkpt>
      <trkpt lat="-12.1170350" lon="-76.6294950">
        <ele>1746.1</ele>
        <time>2021-05-30T14:13:22Z</time>
      </trkpt>
      <trkpt lat="-12.1170300" lon="-76.6294530">
        <ele>1746.4</ele>
        <time>2021-05-30T14:13:23Z</time>
      </trkpt>
      <trkpt lat="-12.1170260" lon="-76.6294160">
        <ele>1746.7</ele>
        <time>2021-05-30T14:13:24Z</time>
      </trkpt>
      <trkpt lat="-12.1170240" lon="-76.6293780">
        <ele>1746.9</ele>
        <time>2021-05-30T14:13:25Z</time>
      </trkpt>
      <trkpt lat="-12.1170240" lon="-76.6293480">
        <ele>1747.1</ele>
        <time>2021-05-30T14:13:27Z</time>
      </trkpt>
      <trkpt lat="-12.1170280" lon="-76.6293140">
        <ele>1747.3</ele>
        <time>2021-05-30T14:13:28Z</time>
      </trkpt>
      <trkpt lat="-12.1170350" lon="-76.6292860">
        <ele>1747.5</ele>
        <time>2021-05-30T14:13:29Z</time>
      </trkpt>
      <trkpt lat="-12.1170440" lon="-76.6292570">
        <ele>1747.7</ele>
        <time>2021-05-30T14:13:30Z</time>
      </trkpt>
      <trkpt lat="-12.1170610" lon="-76.6292100">
        <ele>1748.1</ele>
        <time>2021-05-30T14:13:31Z</time>
      </trkpt>
      <trkpt lat="-12.1170770" lon="-76.6291770">
        <ele>1748.3</ele>
        <time>2021-05-30T14:13:32Z</time>
      </trkpt>
      <trkpt lat="-12.1170920" lon="-76.6291480">
        <ele>1748.5</ele>
        <time>2021-05-30T14:13:33Z</time>
      </trkpt>
      <trkpt lat="-12.1171370" lon="-76.6290970">
        <ele>1749.0</ele>
        <time>2021-05-30T14:13:35Z</time>
      </trkpt>
      <trkpt lat="-12.1171590" lon="-76.6290750">
        <ele>1749.2</ele>
        <time>2021-05-30T14:13:36Z</time>
      </trkpt>
      <trkpt lat="-12.1171880" lon="-76.6290530">
        <ele>1749.5</ele>
        <time>2021-05-30T14:13:38Z</time>
      </trkpt>
      <trkpt lat="-12.1172100" lon="-76.6290370">
        <ele>1749.6</ele>
        <time>2021-05-30T14:13:39Z</time>
      </trkpt>
      <trkpt lat="-12.1172410" lon="-76.6290160">
        <ele>1749.9</ele>
        <time>2021-05-30T14:13:40Z</time>
      </trkpt>
      <trkpt lat="-12.1172620" lon="-76.6289980">
        <ele>1750.1</ele>
        <time>2021-05-30T14:13:41Z</time>
      </trkpt>
      <trkpt lat="-12.1172810" lon="-76.6289760">
        <ele>1750.3</ele>
        <time>2021-05-30T14:13:42Z</time>
      </trkpt>
      <trkpt lat="-12.1173080" lon="-76.6289480">
        <ele>1750.5</ele>
        <time>2021-05-30T14:13:44Z</time>
      </trkpt>
      <trkpt lat="-12.1173180" lon="-76.6289380">
        <ele>1750.6</ele>
        <time>2021-05-30T14:13:45Z</time>
      </trkpt>
      <trkpt lat="-12.1173470" lon="-76.6289110">
        <ele>1750.9</ele>
        <time>2021-05-30T14:13:46Z</time>
      </trkpt>
      <trkpt lat="-12.1173650" lon="-76.6288820">
        <ele>1751.1</ele>
        <time>2021-05-30T14:13:48Z</time>
      </trkpt>
      <trkpt lat="-12.1173890" lon="-76.6288540">
        <ele>1751.4</ele>
        <time>2021-05-30T14:13:49Z</time>
      </trkpt>
      <trkpt lat="-12.1174060" lon="-76.6288300">
        <ele>1751.6</ele>
        <time>2021-05-30T14:13:50Z</time>
      </trkpt>
      <trkpt lat="-12.1174390" lon="-76.6287830">
        <ele>1752.0</ele>
        <time>2021-05-30T14:13:52Z</time>
      </trkpt>
      <trkpt lat="-12.1174570" lon="-76.6287560">
        <ele>1752.2</ele>
        <time>2021-05-30T14:13:53Z</time>
      </trkpt>
      <trkpt lat="-12.1174790" lon="-76.6287130">
        <ele>1752.5</ele>
        <time>2021-05-30T14:13:54Z</time>
      </trkpt>
      <trkpt lat="-12.1174940" lon="-76.6286800">
        <ele>1752.8</ele>
        <time>2021-05-30T14:13:55Z</time>
      </trkpt>
      <trkpt lat="-12.1175140" lon="-76.6286360">
        <ele>1753.1</ele>
        <time>2021-05-30T14:13:57Z</time>
      </trkpt>
      <trkpt lat="-12.1175310" lon="-76.6285970">
        <ele>1753.4</ele>
        <time>2021-05-30T14:13:59Z</time>
      </trkpt>
      <trkpt lat="-12.1175530" lon="-76.6285530">
        <ele>1753.7</ele>
        <time>2021-05-30T14:14:00Z</time>
      </trkpt>
      <trkpt lat="-12.1175800" lon="-76.6285140">
        <ele>1754.0</ele>
        <time>2021-05-30T14:14:02Z</time>
      </trkpt>
      <trkpt lat="-12.1175970" lon="-76.6284820">
        <ele>1754.3</ele>
        <time>2021-05-30T14:14:04Z</time>
      </trkpt>
      <trkpt lat="-12.1176060" lon="-76.6284360">
        <ele>1754.6</ele>
        <time>2021-05-30T14:14:06Z</time>
      </trkpt>
      <trkpt lat="-12.1176060" lon="-76.6283930">
        <ele>1754.9</ele>
        <time>2021-05-30T14:14:08Z</time>
      </trkpt>
      <trkpt lat="-12.1176050" lon="-76.6283560">
        <ele>1755.1</ele>
        <time>2021-05-30T14:14:09Z</time>
      </trkpt>
      <trkpt lat="-12.1176040" lon="-76.6283440">
        <ele>1755.2</ele>
        <time>2021-05-30T14:14:10Z</time>
      </trkpt>
      <trkpt lat="-12.1176000" lon="-76.6282960">
        <ele>1755.5</ele>
        <time>2021-05-30T14:14:12Z</time>
      </trkpt>
      <trkpt lat="-12.1175970" lon="-76.6282780">
        <ele>1755.6</ele>
        <time>2021-05-30T14:14:14Z</time>
      </trkpt>
      <trkpt lat="-12.1175950" lon="-76.6282610">
        <ele>1755.7</ele>
        <time>2021-05-30T14:14:15Z</time>
      </trkpt>
      <trkpt lat="-12.1175920" lon="-76.6282430">
        <ele>1755.9</ele>
        <time>2021-05-30T14:14:16Z</time>
      </trkpt>
      <trkpt lat="-12.1175920" lon="-76.6282230">
        <ele>1756.0</ele>
        <time>2021-05-30T14:14:17Z</time>
      </trkpt>
      <trkpt lat="-12.1175920" lon="-76.6282020">
        <ele>1756.0</ele>
        <time>2021-05-30T14:14:19Z</time>
      </trkpt>
      <trkpt lat="-12.1176020" lon="-76.6281690">
        <ele>1756.0</ele>
        <time>2021-05-30T14:14:21Z</time>
      </trkpt>
      <trkpt lat="-12.1176100" lon="-76.6281550">
        <ele>1756.0</ele>
        <time>2021-05-30T14:14:22Z</time>
      </trkpt>
      <trkpt lat="-12.1176310" lon="-76.6281550">
        <ele>1756.0</ele>
        <time>2021-05-30T14:14:23Z</time>
      </trkpt>
      <trkpt lat="-12.1176590" lon="-76.6281620">
        <ele>1756.0</ele>
        <time>2021-05-30T14:14:25Z</time>
      </trkpt>
      <trkpt lat="-12.1176710" lon="-76.6281710">
        <ele>1755.9</ele>
        <time>2021-05-30T14:14:26Z</time>
      </trkpt>
      <trkpt lat="-12.1176980" lon="-76.6281830">
        <ele>1755.8</ele>
        <time>2021-05-30T14:14:28Z</time>
      </trkpt>
      <trkpt lat="-12.1177170" lon="-76.6281950">
        <ele>1755.7</ele>
        <time>2021-05-30T14:14:29Z</time>
      </trkpt>
      <trkpt lat="-12.1177430" lon="-76.6282190">
        <ele>1755.5</ele>
        <time>2021-05-30T14:14:31Z</time>
      </trkpt>
      <trkpt lat="-12.1177600" lon="-76.6282450">
        <ele>1755.3</ele>
        <time>2021-05-30T14:14:32Z</time>
      </trkpt>
      <trkpt lat="-12.1177770" lon="-76.6282800">
        <ele>1755.0</ele>
        <time>2021-05-30T14:14:33Z</time>
      </trkpt>
      <trkpt lat="-12.1177960" lon="-76.6283360">
        <ele>1754.5</ele>
        <time>2021-05-30T14:14:35Z</time>
      </trkpt>
      <trkpt lat="-12.1178390" lon="-76.6284850">
        <ele>1753.3</ele>
        <time>2021-05-30T14:14:36Z</time>
      </trkpt>
      <trkpt lat="-12.1178520" lon="-76.6285670">
        <ele>1752.9</ele>
        <time>2021-05-30T14:14:37Z</time>
      </trkpt>
      <trkpt lat="-12.1178630" lon="-76.6287070">
        <ele>1752.5</ele>
        <time>2021-05-30T14:14:39Z</time>
      </trkpt>
      <trkpt lat="-12.1178680" lon="-76.6287690">
        <ele>1752.5</ele>
        <time>2021-05-30T14:14:40Z</time>
      </trkpt>
      <trkpt lat="-12.1178710" lon="-76.6288340">
        <ele>1752.5</ele>
        <time>2021-05-30T14:14:41Z</time>
      </trkpt>
      <trkpt lat="-12.1178720" lon="-76.6289470">
        <ele>1752.6</ele>
        <time>2021-05-30T14:14:43Z</time>
      </trkpt>
      <trkpt lat="-12.1178650" lon="-76.6290030">
        <ele>1752.6</ele>
        <time>2021-05-30T14:14:44Z</time>
      </trkpt>
      <trkpt lat="-12.1178400" lon="-76.6291090">
        <ele>1752.5</ele>
        <time>2021-05-30T14:14:46Z</time>
      </trkpt>
      <trkpt lat="-12.1178130" lon="-76.6292190">
        <ele>1752.4</ele>
        <time>2021-05-30T14:14:48Z</time>
      </trkpt>
      <trkpt lat="-12.1178060" lon="-76.6292790">
        <ele>1752.3</ele>
        <time>2021-05-30T14:14:49Z</time>
      </trkpt>
      <trkpt lat="-12.1177930" lon="-76.6293350">
        <ele>1752.2</ele>
        <time>2021-05-30T14:14:50Z</time>
      </trkpt>
      <trkpt lat="-12.1177740" lon="-76.6294410">
        <ele>1752.0</ele>
        <time>2021-05-30T14:14:52Z</time>
      </trkpt>
      <trkpt lat="-12.1177750" lon="-76.6294930">
        <ele>1751.8</ele>
        <time>2021-05-30T14:14:53Z</time>
      </trkpt>
      <trkpt lat="-12.1177830" lon="-76.6295500">
        <ele>1751.6</ele>
        <time>2021-05-30T14:14:54Z</time>
      </trkpt>
      <trkpt lat="-12.1178010" lon="-76.6296080">
        <ele>1751.4</ele>
        <time>2021-05-30T14:14:55Z</time>
      </trkpt>
      <trkpt lat="-12.1178600" lon="-76.6297100">
        <ele>1750.8</ele>
        <time>2021-05-30T14:14:57Z</time>
      </trkpt>
      <trkpt lat="-12.1179030" lon="-76.6297510">
        <ele>1750.5</ele>
        <time>2021-05-30T14:14:58Z</time>
      </trkpt>
      <trkpt lat="-12.1179510" lon="-76.6297890">
        <ele>1750.2</ele>
        <time>2021-05-30T14:14:59Z</time>
      </trkpt>
      <trkpt lat="-12.1180520" lon="-76.6298410">
        <ele>1749.8</ele>
        <time>2021-05-30T14:15:01Z</time>
      </trkpt>
      <trkpt lat="-12.1180980" lon="-76.6298700">
        <ele>1749.6</ele>
        <time>2021-05-30T14:15:02Z</time>
      </trkpt>
      <trkpt lat="-12.1181600" lon="-76.6299370">
        <ele>1749.4</ele>
        <time>2021-05-30T14:15:04Z</time>
      </trkpt>
      <trkpt lat="-12.1181770" lon="-76.6299820">
        <ele>1749.3</ele>
        <time>2021-05-30T14:15:05Z</time>
      </trkpt>
      <trkpt lat="-12.1181920" lon="-76.6300340">
        <ele>1749.2</ele>
        <time>2021-05-30T14:15:06Z</time>
      </trkpt>
      <trkpt lat="-12.1182160" lon="-76.6301250">
        <ele>1749.1</ele>
        <time>2021-05-30T14:15:08Z</time>
      </trkpt>
      <trkpt lat="-12.1182270" lon="-76.6301560">
        <ele>1749.1</ele>
        <time>2021-05-30T14:15:09Z</time>
      </trkpt>
      <trkpt lat="-12.1182470" lon="-76.6302070">
        <ele>1749.1</ele>
        <time>2021-05-30T14:15:10Z</time>
      </trkpt>
      <trkpt lat="-12.1182160" lon="-76.6302200">
        <ele>1749.1</ele>
        <time>2021-05-30T14:15:11Z</time>
      </trkpt>
      <trkpt lat="-12.1182280" lon="-76.6302610">
        <ele>1749.2</ele>
        <time>2021-05-30T14:15:13Z</time>
      </trkpt>
      <trkpt lat="-12.1182420" lon="-76.6302980">
        <ele>1749.2</ele>
        <time>2021-05-30T14:15:14Z</time>
      </trkpt>
      <trkpt lat="-12.1182570" lon="-76.6303470">
        <ele>1749.3</ele>
        <time>2021-05-30T14:15:15Z</time>
      </trkpt>
      <trkpt lat="-12.1182630" lon="-76.6303770">
        <ele>1749.3</ele>
        <time>2021-05-30T14:15:16Z</time>
      </trkpt>
      <trkpt lat="-12.1182550" lon="-76.6304270">
        <ele>1749.4</ele>
        <time>2021-05-30T14:15:18Z</time>
      </trkpt>
      <trkpt lat="-12.1182500" lon="-76.6304450">
        <ele>1749.4</ele>
        <time>2021-05-30T14:15:19Z</time>
      </trkpt>
      <trkpt lat="-12.1182460" lon="-76.6304630">
        <ele>1749.4</ele>
        <time>2021-05-30T14:15:20Z</time>
      </trkpt>
      <trkpt lat="-12.1182460" lon="-76.6305060">
        <ele>1749.5</ele>
        <time>2021-05-30T14:15:21Z</time>
      </trkpt>
      <trkpt lat="-12.1182470" lon="-76.6305430">
        <ele>1749.6</ele>
        <time>2021-05-30T14:15:22Z</time>
      </trkpt>
      <trkpt lat="-12.1182520" lon="-76.6305870">
        <ele>1749.7</ele>
        <time>2021-05-30T14:15:24Z</time>
      </trkpt>
      <trkpt lat="-12.1182650" lon="-76.6306240">
        <ele>1749.8</ele>
        <time>2021-05-30T14:15:25Z</time>
      </trkpt>
      <trkpt lat="-12.1182810" lon="-76.6306530">
        <ele>1749.9</ele>
        <time>2021-05-30T14:15:26Z</time>
      </trkpt>
      <trkpt lat="-12.1183040" lon="-76.6306800">
        <ele>1750.0</ele>
        <time>2021-05-30T14:15:27Z</time>
      </trkpt>
      <trkpt lat="-12.1183430" lon="-76.6307190">
        <ele>1750.2</ele>
        <time>2021-05-30T14:15:28Z</time>
      </trkpt>
      <trkpt lat="-12.1183790" lon="-76.6307500">
        <ele>1750.4</ele>
        <time>2021-05-30T14:15:29Z</time>
      </trkpt>
      <trkpt lat="-12.1184190" lon="-76.6307910">
        <ele>1750.6</ele>
        <time>2021-05-30T14:15:31Z</time>
      </trkpt>
      <trkpt lat="-12.1184470" lon="-76.6308220">
        <ele>1750.8</ele>
        <time>2021-05-30T14:15:32Z</time>
      </trkpt>
      <trkpt lat="-12.1184890" lon="-76.6308590">
        <ele>1751.0</ele>
        <time>2021-05-30T14:15:33Z</time>
      </trkpt>
      <trkpt lat="-12.1185250" lon="-76.6308850">
        <ele>1751.2</ele>
        <time>2021-05-30T14:15:35Z</time>
      </trkpt>
      <trkpt lat="-12.1185570" lon="-76.6309050">
        <ele>1751.3</ele>
        <time>2021-05-30T14:15:36Z</time>
      </trkpt>
      <trkpt lat="-12.1185810" lon="-76.6309240">
        <ele>1751.5</ele>
        <time>2021-05-30T14:15:37Z</time>
      </trkpt>
      <trkpt lat="-12.1186110" lon="-76.6309420">
        <ele>1751.6</ele>
        <time>2021-05-30T14:15:39Z</time>
      </trkpt>
      <trkpt lat="-12.1186480" lon="-76.6309600">
        <ele>1751.8</ele>
        <time>2021-05-30T14:15:40Z</time>
      </trkpt>
      <trkpt lat="-12.1186790" lon="-76.6309760">
        <ele>1752.0</ele>
        <time>2021-05-30T14:15:41Z</time>
      </trkpt>
      <trkpt lat="-12.1187270" lon="-76.6310000">
        <ele>1752.2</ele>
        <time>2021-05-30T14:15:43Z</time>
      </trkpt>
      <trkpt lat="-12.1187640" lon="-76.6310130">
        <ele>1752.4</ele>
        <time>2021-05-30T14:15:44Z</time>
      </trkpt>
      <trkpt lat="-12.1188060" lon="-76.6310240">
        <ele>1752.6</ele>
        <time>2021-05-30T14:15:46Z</time>
      </trkpt>
      <trkpt lat="-12.1188570" lon="-76.6310360">
        <ele>1752.8</ele>
        <time>2021-05-30T14:15:47Z</time>
      </trkpt>
      <trkpt lat="-12.1189040" lon="-76.6310400">
        <ele>1753.0</ele>
        <time>2021-05-30T14:15:48Z</time>
      </trkpt>
      <trkpt lat="-12.1189420" lon="-76.6310380">
        <ele>1753.2</ele>
        <time>2021-05-30T14:15:50Z</time>
      </trkpt>
      <trkpt lat="-12.1189870" lon="-76.6310340">
        <ele>1753.4</ele>
        <time>2021-05-30T14:15:51Z</time>
      </trkpt>
      <trkpt lat="-12.1190320" lon="-76.6310310">
        <ele>1753.6</ele>
        <time>2021-05-30T14:15:52Z</time>
      </trkpt>
      <trkpt lat="-12.1190810" lon="-76.6310260">
        <ele>1753.9</ele>
        <time>2021-05-30T14:15:54Z</time>
      </trkpt>
      <trkpt lat="-12.1191130" lon="-76.6310210">
        <ele>1754.0</ele>
        <time>2021-05-30T14:15:55Z</time>
      </trkpt>
      <trkpt lat="-12.1191500" lon="-76.6310170">
        <ele>1754.2</ele>
        <time>2021-05-30T14:15:56Z</time>
      </trkpt>
      <trkpt lat="-12.1191850" lon="-76.6310120">
        <ele>1754.4</ele>
        <time>2021-05-30T14:15:57Z</time>
      </trkpt>
      <trkpt lat="-12.1192270" lon="-76.6310090">
        <ele>1754.5</ele>
        <time>2021-05-30T14:15:58Z</time>
      </trkpt>
      <trkpt lat="-12.1192620" lon="-76.6310070">
        <ele>1754.7</ele>
        <time>2021-05-30T14:16:00Z</time>
      </trkpt>
      <trkpt lat="-12.1193030" lon="-76.6310060">
        <ele>1754.9</ele>
        <time>2021-05-30T14:16:01Z</time>
      </trkpt>
      <trkpt lat="-12.1193410" lon="-76.6310010">
        <ele>1755.0</ele>
        <time>2021-05-30T14:16:02Z</time>
      </trkpt>
      <trkpt lat="-12.1193920" lon="-76.6309950">
        <ele>1755.2</ele>
        <time>2021-05-30T14:16:04Z</time>
      </trkpt>
      <trkpt lat="-12.1194080" lon="-76.6309920">
        <ele>1755.3</ele>
        <time>2021-05-30T14:16:05Z</time>
      </trkpt>
      <trkpt lat="-12.1194240" lon="-76.6309900">
        <ele>1755.3</ele>
        <time>2021-05-30T14:16:06Z</time>
      </trkpt>
      <trkpt lat="-12.1194520" lon="-76.6309860">
        <ele>1755.4</ele>
        <time>2021-05-30T14:16:07Z</time>
      </trkpt>
      <trkpt lat="-12.1194790" lon="-76.6309840">
        <ele>1755.5</ele>
        <time>2021-05-30T14:16:08Z</time>
      </trkpt>
      <trkpt lat="-12.1195130" lon="-76.6309800">
        <ele>1755.6</ele>
        <time>2021-05-30T14:16:10Z</time>
      </trkpt>
      <trkpt lat="-12.1195420" lon="-76.6309720">
        <ele>1755.7</ele>
        <time>2021-05-30T14:16:11Z</time>
      </trkpt>
      <trkpt lat="-12.1195900" lon="-76.6309580">
        <ele>1755.8</ele>
        <time>2021-05-30T14:16:12Z</time>
      </trkpt>
      <trkpt lat="-12.1196140" lon="-76.6309500">
        <ele>1755.9</ele>
        <time>2021-05-30T14:16:13Z</time>
      </trkpt>
      <trkpt lat="-12.1196390" lon="-76.6309380">
        <ele>1756.0</ele>
        <time>2021-05-30T14:16:15Z</time>
      </trkpt>
      <trkpt lat="-12.1196690" lon="-76.6309240">
        <ele>1756.1</ele>
        <time>2021-05-30T14:16:16Z</time>
      </trkpt>
      <trkpt lat="-12.1197070" lon="-76.6309030">
        <ele>1756.2</ele>
        <time>2021-05-30T14:16:17Z</time>
      </trkpt>
      <trkpt lat="-12.1197400" lon="-76.6308840">
        <ele>1756.3</ele>
        <time>2021-05-30T14:16:18Z</time>
      </trkpt>
      <trkpt lat="-12.1197660" lon="-76.6308640">
        <ele>1756.4</ele>
        <time>2021-05-30T14:16:19Z</time>
      </trkpt>
      <trkpt lat="-12.1197950" lon="-76.6308450">
        <ele>1756.5</ele>
        <time>2021-05-30T14:16:20Z</time>
      </trkpt>
      <trkpt lat="-12.1198220" lon="-76.6308270">
        <ele>1756.6</ele>
        <time>2021-05-30T14:16:22Z</time>
      </trkpt>
      <trkpt lat="-12.1198470" lon="-76.6308080">
        <ele>1756.7</ele>
        <time>2021-05-30T14:16:23Z</time>
      </trkpt>
      <trkpt lat="-12.1198790" lon="-76.6307830">
        <ele>1756.8</ele>
        <time>2021-05-30T14:16:24Z</time>
      </trkpt>
      <trkpt lat="-12.1199130" lon="-76.6307510">
        <ele>1757.0</ele>
        <time>2021-05-30T14:16:25Z</time>
      </trkpt>
      <trkpt lat="-12.1199500" lon="-76.6307120">
        <ele>1757.2</ele>
        <time>2021-05-30T14:16:27Z</time>
      </trkpt>
      <trkpt lat="-12.1199830" lon="-76.6306730">
        <ele>1757.3</ele>
        <time>2021-05-30T14:16:28Z</time>
      </trkpt>
      <trkpt lat="-12.1200120" lon="-76.6306390">
        <ele>1757.5</ele>
        <time>2021-05-30T14:16:30Z</time>
      </trkpt>
      <trkpt lat="-12.1200320" lon="-76.6306150">
        <ele>1757.6</ele>
        <time>2021-05-30T14:16:31Z</time>
      </trkpt>
      <trkpt lat="-12.1200480" lon="-76.6305920">
        <ele>1757.7</ele>
        <time>2021-05-30T14:16:32Z</time>
      </trkpt>
      <trkpt lat="-12.1200620" lon="-76.6305690">
        <ele>1757.8</ele>
        <time>2021-05-30T14:16:33Z</time>
      </trkpt>
      <trkpt lat="-12.1200790" lon="-76.6305290">
        <ele>1758.0</ele>
        <time>2021-05-30T14:16:35Z</time>
      </trkpt>
      <trkpt lat="-12.1200840" lon="-76.6304910">
        <ele>1758.1</ele>
        <time>2021-05-30T14:16:36Z</time>
      </trkpt>
      <trkpt lat="-12.1200860" lon="-76.6304490">
        <ele>1758.3</ele>
        <time>2021-05-30T14:16:37Z</time>
      </trkpt>
      <trkpt lat="-12.1200810" lon="-76.6303940">
        <ele>1758.5</ele>
        <time>2021-05-30T14:16:39Z</time>
      </trkpt>
      <trkpt lat="-12.1200730" lon="-76.6303500">
        <ele>1758.6</ele>
        <time>2021-05-30T14:16:41Z</time>
      </trkpt>
      <trkpt lat="-12.1200660" lon="-76.6303150">
        <ele>1758.8</ele>
        <time>2021-05-30T14:16:42Z</time>
      </trkpt>
      <trkpt lat="-12.1200550" lon="-76.6302620">
        <ele>1759.0</ele>
        <time>2021-05-30T14:16:43Z</time>
      </trkpt>
      <trkpt lat="-12.1200440" lon="-76.6302140">
        <ele>1759.2</ele>
        <time>2021-05-30T14:16:45Z</time>
      </trkpt>
      <trkpt lat="-12.1200320" lon="-76.6301760">
        <ele>1759.4</ele>
        <time>2021-05-30T14:16:46Z</time>
      </trkpt>
      <trkpt lat="-12.1200190" lon="-76.6301270">
        <ele>1759.7</ele>
        <time>2021-05-30T14:16:47Z</time>
      </trkpt>
      <trkpt lat="-12.1200090" lon="-76.6300810">
        <ele>1759.9</ele>
        <time>2021-05-30T14:16:49Z</time>
      </trkpt>
      <trkpt lat="-12.1199990" lon="-76.6300310">
        <ele>1760.2</ele>
        <time>2021-05-30T14:16:50Z</time>
      </trkpt>
      <trkpt lat="-12.1199980" lon="-76.6299770">
        <ele>1760.5</ele>
        <time>2021-05-30T14:16:52Z</time>
      </trkpt>
      <trkpt lat="-12.1199950" lon="-76.6299440">
        <ele>1760.7</ele>
        <time>2021-05-30T14:16:53Z</time>
      </trkpt>
      <trkpt lat="-12.1199940" lon="-76.6299110">
        <ele>1760.9</ele>
        <time>2021-05-30T14:16:54Z</time>
      </trkpt>
      <trkpt lat="-12.1199910" lon="-76.6298770">
        <ele>1761.1</ele>
        <time>2021-05-30T14:16:55Z</time>
      </trkpt>
      <trkpt lat="-12.1199880" lon="-76.6298390">
        <ele>1761.3</ele>
        <time>2021-05-30T14:16:57Z</time>
      </trkpt>
      <trkpt lat="-12.1199920" lon="-76.6297680">
        <ele>1761.7</ele>
        <time>2021-05-30T14:16:58Z</time>
      </trkpt>
      <trkpt lat="-12.1199930" lon="-76.6297260">
        <ele>1761.9</ele>
        <time>2021-05-30T14:17:00Z</time>
      </trkpt>
      <trkpt lat="-12.1199930" lon="-76.6296920">
        <ele>1762.1</ele>
        <time>2021-05-30T14:17:01Z</time>
      </trkpt>
      <trkpt lat="-12.1199900" lon="-76.6296510">
        <ele>1762.3</ele>
        <time>2021-05-30T14:17:02Z</time>
      </trkpt>
      <trkpt lat="-12.1199890" lon="-76.6296350">
        <ele>1762.4</ele>
        <time>2021-05-30T14:17:03Z</time>
      </trkpt>
      <trkpt lat="-12.1199910" lon="-76.6295950">
        <ele>1762.6</ele>
        <time>2021-05-30T14:17:05Z</time>
      </trkpt>
      <trkpt lat="-12.1199950" lon="-76.6295480">
        <ele>1762.9</ele>
        <time>2021-05-30T14:17:06Z</time>
      </trkpt>
      <trkpt lat="-12.1199980" lon="-76.6295060">
        <ele>1763.1</ele>
        <time>2021-05-30T14:17:08Z</time>
      </trkpt>
      <trkpt lat="-12.1200010" lon="-76.6294690">
        <ele>1763.3</ele>
        <time>2021-05-30T14:17:09Z</time>
      </trkpt>
      <trkpt lat="-12.1200050" lon="-76.6294310">
        <ele>1763.5</ele>
        <time>2021-05-30T14:17:10Z</time>
      </trkpt>
      <trkpt lat="-12.1200100" lon="-76.6293860">
        <ele>1763.8</ele>
        <time>2021-05-30T14:17:11Z</time>
      </trkpt>
      <trkpt lat="-12.1200170" lon="-76.6293590">
        <ele>1764.0</ele>
        <time>2021-05-30T14:17:12Z</time>
      </trkpt>
      <trkpt lat="-12.1200260" lon="-76.6293320">
        <ele>1764.2</ele>
        <time>2021-05-30T14:17:13Z</time>
      </trkpt>
      <trkpt lat="-12.1200390" lon="-76.6292980">
        <ele>1764.5</ele>
        <time>2021-05-30T14:17:15Z</time>
      </trkpt>
      <trkpt lat="-12.1200500" lon="-76.6292650">
        <ele>1764.7</ele>
        <time>2021-05-30T14:17:16Z</time>
      </trkpt>
      <trkpt lat="-12.1200640" lon="-76.6292170">
        <ele>1765.1</ele>
        <time>2021-05-30T14:17:17Z</time>
      </trkpt>
      <trkpt lat="-12.1200770" lon="-76.6291710">
        <ele>1765.4</ele>
        <time>2021-05-30T14:17:18Z</time>
      </trkpt>
      <trkpt lat="-12.1200850" lon="-76.6291310">
        <ele>1765.7</ele>
        <time>2021-05-30T14:17:20Z</time>
      </trkpt>
      <trkpt lat="-12.1200940" lon="-76.6290890">
        <ele>1766.0</ele>
        <time>2021-05-30T14:17:21Z</time>
      </trkpt>
      <trkpt lat="-12.1201070" lon="-76.6290430">
        <ele>1766.3</ele>
        <time>2021-05-30T14:17:23Z</time>
      </trkpt>
      <trkpt lat="-12.1201130" lon="-76.6290270">
        <ele>1766.4</ele>
        <time>2021-05-30T14:17:24Z</time>
      </trkpt>
      <trkpt lat="-12.1201180" lon="-76.6290120">
        <ele>1766.5</ele>
        <time>2021-05-30T14:17:25Z</time>
      </trkpt>
      <trkpt lat="-12.1201300" lon="-76.6289680">
        <ele>1766.7</ele>
        <time>2021-05-30T14:17:26Z</time>
      </trkpt>
      <trkpt lat="-12.1201440" lon="-76.6289200">
        <ele>1767.0</ele>
        <time>2021-05-30T14:17:28Z</time>
      </trkpt>
      <trkpt lat="-12.1201480" lon="-76.6289040">
        <ele>1767.1</ele>
        <time>2021-05-30T14:17:29Z</time>
      </trkpt>
      <trkpt lat="-12.1201530" lon="-76.6288870">
        <ele>1767.2</ele>
        <time>2021-05-30T14:17:30Z</time>
      </trkpt>
      <trkpt lat="-12.1201610" lon="-76.6288580">
        <ele>1767.4</ele>
        <time>2021-05-30T14:17:31Z</time>
      </trkpt>
      <trkpt lat="-12.1201690" lon="-76.6288270">
        <ele>1767.6</ele>
        <time>2021-05-30T14:17:32Z</time>
      </trkpt>
      <trkpt lat="-12.1201750" lon="-76.6287940">
        <ele>1767.7</ele>
        <time>2021-05-30T14:17:34Z</time>
      </trkpt>
      <trkpt lat="-12.1201810" lon="-76.6287660">
        <ele>1767.9</ele>
        <time>2021-05-30T14:17:35Z</time>
      </trkpt>
      <trkpt lat="-12.1201850" lon="-76.6287360">
        <ele>1768.0</ele>
        <time>2021-05-30T14:17:36Z</time>
      </trkpt>
      <trkpt lat="-12.1201900" lon="-76.6287090">
        <ele>1768.2</ele>
        <time>2021-05-30T14:17:37Z</time>
      </trkpt>
      <trkpt lat="-12.1202100" lon="-76.6286610">
        <ele>1768.5</ele>
        <time>2021-05-30T14:17:39Z</time>
      </trkpt>
      <trkpt lat="-12.1202270" lon="-76.6286170">
        <ele>1768.7</ele>
        <time>2021-05-30T14:17:40Z</time>
      </trkpt>
      <trkpt lat="-12.1202360" lon="-76.6285830">
        <ele>1768.9</ele>
        <time>2021-05-30T14:17:42Z</time>
      </trkpt>
      <trkpt lat="-12.1202420" lon="-76.6285550">
        <ele>1769.1</ele>
        <time>2021-05-30T14:17:43Z</time>
      </trkpt>
      <trkpt lat="-12.1202450" lon="-76.6285190">
        <ele>1769.3</ele>
        <time>2021-05-30T14:17:44Z</time>
      </trkpt>
      <trkpt lat="-12.1202450" lon="-76.6285080">
        <ele>1769.4</ele>
        <time>2021-05-30T14:17:45Z</time>
      </trkpt>
      <trkpt lat="-12.1202480" lon="-76.6284910">
        <ele>1769.5</ele>
        <time>2021-05-30T14:17:46Z</time>
      </trkpt>
      <trkpt lat="-12.1202450" lon="-76.6284640">
        <ele>1769.7</ele>
        <time>2021-05-30T14:17:48Z</time>
      </trkpt>
      <trkpt lat="-12.1202330" lon="-76.6284140">
        <ele>1770.0</ele>
        <time>2021-05-30T14:17:50Z</time>
      </trkpt>
      <trkpt lat="-12.1202200" lon="-76.6283810">
        <ele>1770.2</ele>
        <time>2021-05-30T14:17:51Z</time>
      </trkpt>
      <trkpt lat="-12.1202110" lon="-76.6283480">
        <ele>1770.4</ele>
        <time>2021-05-30T14:17:52Z</time>
      </trkpt>
      <trkpt lat="-12.1202010" lon="-76.6283220">
        <ele>1770.5</ele>
        <time>2021-05-30T14:17:54Z</time>
      </trkpt>
      <trkpt lat="-12.1201900" lon="-76.6282960">
        <ele>1770.6</ele>
        <time>2021-05-30T14:17:55Z</time>
      </trkpt>
      <trkpt lat="-12.1201690" lon="-76.6282520">
        <ele>1770.9</ele>
        <time>2021-05-30T14:17:56Z</time>
      </trkpt>
      <trkpt lat="-12.1201570" lon="-76.6282210">
        <ele>1771.0</ele>
        <time>2021-05-30T14:17:57Z</time>
      </trkpt>
      <trkpt lat="-12.1201450" lon="-76.6281940">
        <ele>1771.1</ele>
        <time>2021-05-30T14:17:58Z</time>
      </trkpt>
      <trkpt lat="-12.1201360" lon="-76.6281580">
        <ele>1771.3</ele>
        <time>2021-05-30T14:18:00Z</time>
      </trkpt>
      <trkpt lat="-12.1201290" lon="-76.6281130">
        <ele>1771.4</ele>
        <time>2021-05-30T14:18:01Z</time>
      </trkpt>
      <trkpt lat="-12.1201240" lon="-76.6280740">
        <ele>1771.6</ele>
        <time>2021-05-30T14:18:03Z</time>
      </trkpt>
      <trkpt lat="-12.1201220" lon="-76.6280370">
        <ele>1771.7</ele>
        <time>2021-05-30T14:18:04Z</time>
      </trkpt>
      <trkpt lat="-12.1201200" lon="-76.6279810">
        <ele>1771.8</ele>
        <time>2021-05-30T14:18:06Z</time>
      </trkpt>
      <trkpt lat="-12.1201290" lon="-76.6279310">
        <ele>1772.0</ele>
        <time>2021-05-30T14:18:07Z</time>
      </trkpt>
      <trkpt lat="-12.1201390" lon="-76.6278910">
        <ele>1772.1</ele>
        <time>2021-05-30T14:18:09Z</time>
      </trkpt>
      <trkpt lat="-12.1201470" lon="-76.6278520">
        <ele>1772.2</ele>
        <time>2021-05-30T14:18:10Z</time>
      </trkpt>
      <trkpt lat="-12.1201550" lon="-76.6278150">
        <ele>1772.4</ele>
        <time>2021-05-30T14:18:11Z</time>
      </trkpt>
      <trkpt lat="-12.1201650" lon="-76.6277810">
        <ele>1772.6</ele>
        <time>2021-05-30T14:18:12Z</time>
      </trkpt>
      <trkpt lat="-12.1201780" lon="-76.6277390">
        <ele>1772.8</ele>
        <time>2021-05-30T14:18:14Z</time>
      </trkpt>
      <trkpt lat="-12.1201960" lon="-76.6276830">
        <ele>1773.1</ele>
        <time>2021-05-30T14:18:16Z</time>
      </trkpt>
      <trkpt lat="-12.1202060" lon="-76.6276560">
        <ele>1773.2</ele>
        <time>2021-05-30T14:18:17Z</time>
      </trkpt>
      <trkpt lat="-12.1202170" lon="-76.6276240">
        <ele>1773.4</ele>
        <time>2021-05-30T14:18:18Z</time>
      </trkpt>
      <trkpt lat="-12.1202280" lon="-76.6275880">
        <ele>1773.6</ele>
        <time>2021-05-30T14:18:19Z</time>
      </trkpt>
      <trkpt lat="-12.1202410" lon="-76.6275510">
        <ele>1773.8</ele>
        <time>2021-05-30T14:18:21Z</time>
      </trkpt>
      <trkpt lat="-12.1202500" lon="-76.6275220">
        <ele>1773.9</ele>
        <time>2021-05-30T14:18:22Z</time>
      </trkpt>
      <trkpt lat="-12.1202600" lon="-76.6274880">
        <ele>1774.1</ele>
        <time>2021-05-30T14:18:23Z</time>
      </trkpt>
      <trkpt lat="-12.1202730" lon="-76.6274500">
        <ele>1774.4</ele>
        <time>2021-05-30T14:18:24Z</time>
      </trkpt>
      <trkpt lat="-12.1202860" lon="-76.6274090">
        <ele>1774.6</ele>
        <time>2021-05-30T14:18:26Z</time>
      </trkpt>
      <trkpt lat="-12.1202970" lon="-76.6273730">
        <ele>1774.8</ele>
        <time>2021-05-30T14:18:27Z</time>
      </trkpt>
      <trkpt lat="-12.1203060" lon="-76.6273410">
        <ele>1775.0</ele>
        <time>2021-05-30T14:18:28Z</time>
      </trkpt>
      <trkpt lat="-12.1203190" lon="-76.6273080">
        <ele>1775.2</ele>
        <time>2021-05-30T14:18:29Z</time>
      </trkpt>
      <trkpt lat="-12.1203330" lon="-76.6272820">
        <ele>1775.4</ele>
        <time>2021-05-30T14:18:30Z</time>
      </trkpt>
      <trkpt lat="-12.1203480" lon="-76.6272580">
        <ele>1775.6</ele>
        <time>2021-05-30T14:18:31Z</time>
      </trkpt>
      <trkpt lat="-12.1203630" lon="-76.6272330">
        <ele>1775.8</ele>
        <time>2021-05-30T14:18:33Z</time>
      </trkpt>
      <trkpt lat="-12.1203830" lon="-76.6272050">
        <ele>1776.0</ele>
        <time>2021-05-30T14:18:34Z</time>
      </trkpt>
      <trkpt lat="-12.1204040" lon="-76.6271770">
        <ele>1776.3</ele>
        <time>2021-05-30T14:18:35Z</time>
      </trkpt>
      <trkpt lat="-12.1204260" lon="-76.6271410">
        <ele>1776.6</ele>
        <time>2021-05-30T14:18:36Z</time>
      </trkpt>
      <trkpt lat="-12.1204410" lon="-76.6271120">
        <ele>1776.8</ele>
        <time>2021-05-30T14:18:37Z</time>
      </trkpt>
      <trkpt lat="-12.1204520" lon="-76.6270780">
        <ele>1777.0</ele>
        <time>2021-05-30T14:18:38Z</time>
      </trkpt>
      <trkpt lat="-12.1204670" lon="-76.6270410">
        <ele>1777.3</ele>
        <time>2021-05-30T14:18:40Z</time>
      </trkpt>
      <trkpt lat="-12.1204930" lon="-76.6269990">
        <ele>1777.6</ele>
        <time>2021-05-30T14:18:41Z</time>
      </trkpt>
      <trkpt lat="-12.1205110" lon="-76.6269680">
        <ele>1777.8</ele>
        <time>2021-05-30T14:18:43Z</time>
      </trkpt>
      <trkpt lat="-12.1205280" lon="-76.6269440">
        <ele>1777.9</ele>
        <time>2021-05-30T14:18:44Z</time>
      </trkpt>
      <trkpt lat="-12.1205560" lon="-76.6269090">
        <ele>1778.2</ele>
        <time>2021-05-30T14:18:45Z</time>
      </trkpt>
      <trkpt lat="-12.1205740" lon="-76.6268860">
        <ele>1778.4</ele>
        <time>2021-05-30T14:18:46Z</time>
      </trkpt>
      <trkpt lat="-12.1206000" lon="-76.6268560">
        <ele>1778.7</ele>
        <time>2021-05-30T14:18:48Z</time>
      </trkpt>
      <trkpt lat="-12.1206290" lon="-76.6268260">
        <ele>1778.9</ele>
        <time>2021-05-30T14:18:49Z</time>
      </trkpt>
      <trkpt lat="-12.1206550" lon="-76.6268020">
        <ele>1779.2</ele>
        <time>2021-05-30T14:18:51Z</time>
      </trkpt>
      <trkpt lat="-12.1206820" lon="-76.6267640">
        <ele>1779.5</ele>
        <time>2021-05-30T14:18:53Z</time>
      </trkpt>
      <trkpt lat="-12.1207070" lon="-76.6267310">
        <ele>1779.7</ele>
        <time>2021-05-30T14:18:54Z</time>
      </trkpt>
      <trkpt lat="-12.1207290" lon="-76.6267050">
        <ele>1780.0</ele>
        <time>2021-05-30T14:18:55Z</time>
      </trkpt>
      <trkpt lat="-12.1207480" lon="-76.6266820">
        <ele>1780.2</ele>
        <time>2021-05-30T14:18:56Z</time>
      </trkpt>
      <trkpt lat="-12.1207730" lon="-76.6266580">
        <ele>1780.4</ele>
        <time>2021-05-30T14:18:58Z</time>
      </trkpt>
      <trkpt lat="-12.1208130" lon="-76.6266140">
        <ele>1780.8</ele>
        <time>2021-05-30T14:19:00Z</time>
      </trkpt>
      <trkpt lat="-12.1208380" lon="-76.6265820">
        <ele>1781.1</ele>
        <time>2021-05-30T14:19:01Z</time>
      </trkpt>
      <trkpt lat="-12.1208470" lon="-76.6265710">
        <ele>1781.2</ele>
        <time>2021-05-30T14:19:02Z</time>
      </trkpt>
      <trkpt lat="-12.1208700" lon="-76.6265490">
        <ele>1781.4</ele>
        <time>2021-05-30T14:19:03Z</time>
      </trkpt>
      <trkpt lat="-12.1208980" lon="-76.6265180">
        <ele>1781.7</ele>
        <time>2021-05-30T14:19:04Z</time>
      </trkpt>
      <trkpt lat="-12.1209310" lon="-76.6264780">
        <ele>1782.0</ele>
        <time>2021-05-30T14:19:06Z</time>
      </trkpt>
      <trkpt lat="-12.1209410" lon="-76.6264650">
        <ele>1782.0</ele>
        <time>2021-05-30T14:19:07Z</time>
      </trkpt>
      <trkpt lat="-12.1209520" lon="-76.6264520">
        <ele>1782.1</ele>
        <time>2021-05-30T14:19:08Z</time>
      </trkpt>
      <trkpt lat="-12.1209850" lon="-76.6264190">
        <ele>1782.5</ele>
        <time>2021-05-30T14:19:09Z</time>
      </trkpt>
      <trkpt lat="-12.1210020" lon="-76.6264040">
        <ele>1782.6</ele>
        <time>2021-05-30T14:19:10Z</time>
      </trkpt>
      <trkpt lat="-12.1210430" lon="-76.6263630">
        <ele>1783.0</ele>
        <time>2021-05-30T14:19:12Z</time>
      </trkpt>
      <trkpt lat="-12.1210680" lon="-76.6263380">
        <ele>1783.3</ele>
        <time>2021-05-30T14:19:14Z</time>
      </trkpt>
      <trkpt lat="-12.1211010" lon="-76.6263080">
        <ele>1783.6</ele>
        <time>2021-05-30T14:19:15Z</time>
      </trkpt>
      <trkpt lat="-12.1211320" lon="-76.6262840">
        <ele>1783.8</ele>
        <time>2021-05-30T14:19:17Z</time>
      </trkpt>
      <trkpt lat="-12.1211530" lon="-76.6262650">
        <ele>1784.0</ele>
        <time>2021-05-30T14:19:18Z</time>
      </trkpt>
      <trkpt lat="-12.1211830" lon="-76.6262320">
        <ele>1784.4</ele>
        <time>2021-05-30T14:19:19Z</time>
      </trkpt>
      <trkpt lat="-12.1212030" lon="-76.6262080">
        <ele>1784.6</ele>
        <time>2021-05-30T14:19:20Z</time>
      </trkpt>
      <trkpt lat="-12.1212260" lon="-76.6261770">
        <ele>1784.8</ele>
        <time>2021-05-30T14:19:22Z</time>
      </trkpt>
      <trkpt lat="-12.1212610" lon="-76.6261420">
        <ele>1785.2</ele>
        <time>2021-05-30T14:19:24Z</time>
      </trkpt>
      <trkpt lat="-12.1212870" lon="-76.6261200">
        <ele>1785.4</ele>
        <time>2021-05-30T14:19:25Z</time>
      </trkpt>
      <trkpt lat="-12.1212960" lon="-76.6261110">
        <ele>1785.5</ele>
        <time>2021-05-30T14:19:26Z</time>
      </trkpt>
      <trkpt lat="-12.1213230" lon="-76.6260860">
        <ele>1785.8</ele>
        <time>2021-05-30T14:19:27Z</time>
      </trkpt>
      <trkpt lat="-12.1213310" lon="-76.6260770">
        <ele>1785.9</ele>
        <time>2021-05-30T14:19:28Z</time>
      </trkpt>
      <trkpt lat="-12.1213500" lon="-76.6260530">
        <ele>1786.1</ele>
        <time>2021-05-30T14:19:30Z</time>
      </trkpt>
      <trkpt lat="-12.1213550" lon="-76.6260440">
        <ele>1786.1</ele>
        <time>2021-05-30T14:19:31Z</time>
      </trkpt>
      <trkpt lat="-12.1213730" lon="-76.6260160">
        <ele>1786.4</ele>
        <time>2021-05-30T14:19:32Z</time>
      </trkpt>
      <trkpt lat="-12.1213900" lon="-76.6259910">
        <ele>1786.6</ele>
        <time>2021-05-30T14:19:34Z</time>
      </trkpt>
      <trkpt lat="-12.1213940" lon="-76.6259850">
        <ele>1786.6</ele>
        <time>2021-05-30T14:19:35Z</time>
      </trkpt>
      <trkpt lat="-12.1214040" lon="-76.6259680">
        <ele>1786.8</ele>
        <time>2021-05-30T14:19:36Z</time>
      </trkpt>
      <trkpt lat="-12.1214220" lon="-76.6259430">
        <ele>1787.0</ele>
        <time>2021-05-30T14:19:38Z</time>
      </trkpt>
      <trkpt lat="-12.1214330" lon="-76.6259280">
        <ele>1787.1</ele>
        <time>2021-05-30T14:19:39Z</time>
      </trkpt>
      <trkpt lat="-12.1214670" lon="-76.6258890">
        <ele>1787.5</ele>
        <time>2021-05-30T14:19:41Z</time>
      </trkpt>
      <trkpt lat="-12.1214920" lon="-76.6258630">
        <ele>1787.7</ele>
        <time>2021-05-30T14:19:42Z</time>
      </trkpt>
      <trkpt lat="-12.1214990" lon="-76.6258560">
        <ele>1787.8</ele>
        <time>2021-05-30T14:19:43Z</time>
      </trkpt>
      <trkpt lat="-12.1215270" lon="-76.6258370">
        <ele>1788.0</ele>
        <time>2021-05-30T14:19:44Z</time>
      </trkpt>
      <trkpt lat="-12.1215340" lon="-76.6258310">
        <ele>1788.1</ele>
        <time>2021-05-30T14:19:45Z</time>
      </trkpt>
      <trkpt lat="-12.1215480" lon="-76.6258180">
        <ele>1788.2</ele>
        <time>2021-05-30T14:19:47Z</time>
      </trkpt>
      <trkpt lat="-12.1215630" lon="-76.6258100">
        <ele>1788.3</ele>
        <time>2021-05-30T14:19:48Z</time>
      </trkpt>
      <trkpt lat="-12.1215850" lon="-76.6257930">
        <ele>1788.5</ele>
        <time>2021-05-30T14:19:50Z</time>
      </trkpt>
      <trkpt lat="-12.1215890" lon="-76.6257770">
        <ele>1788.6</ele>
        <time>2021-05-30T14:19:51Z</time>
      </trkpt>
      <trkpt lat="-12.1216090" lon="-76.6257680">
        <ele>1788.8</ele>
        <time>2021-05-30T14:19:52Z</time>
      </trkpt>
      <trkpt lat="-12.1216330" lon="-76.6257450">
        <ele>1789.0</ele>
        <time>2021-05-30T14:19:53Z</time>
      </trkpt>
      <trkpt lat="-12.1216420" lon="-76.6257360">
        <ele>1789.1</ele>
        <time>2021-05-30T14:19:54Z</time>
      </trkpt>
      <trkpt lat="-12.1216570" lon="-76.6257260">
        <ele>1789.2</ele>
        <time>2021-05-30T14:19:56Z</time>
      </trkpt>
      <trkpt lat="-12.1216720" lon="-76.6257180">
        <ele>1789.4</ele>
        <time>2021-05-30T14:19:57Z</time>
      </trkpt>
      <trkpt lat="-12.1216960" lon="-76.6257040">
        <ele>1789.6</ele>
        <time>2021-05-30T14:19:58Z</time>
      </trkpt>
      <trkpt lat="-12.1217230" lon="-76.6256780">
        <ele>1789.8</ele>
        <time>2021-05-30T14:20:00Z</time>
      </trkpt>
      <trkpt lat="-12.1217320" lon="-76.6256690">
        <ele>1789.9</ele>
        <time>2021-05-30T14:20:01Z</time>
      </trkpt>
      <trkpt lat="-12.1217540" lon="-76.6256500">
        <ele>1790.1</ele>
        <time>2021-05-30T14:20:02Z</time>
      </trkpt>
      <trkpt lat="-12.1217620" lon="-76.6256450">
        <ele>1790.2</ele>
        <time>2021-05-30T14:20:03Z</time>
      </trkpt>
      <trkpt lat="-12.1217850" lon="-76.6256290">
        <ele>1790.4</ele>
        <time>2021-05-30T14:20:05Z</time>
      </trkpt>
      <trkpt lat="-12.1217910" lon="-76.6256210">
        <ele>1790.4</ele>
        <time>2021-05-30T14:20:06Z</time>
      </trkpt>
      <trkpt lat="-12.1218140" lon="-76.6255970">
        <ele>1790.7</ele>
        <time>2021-05-30T14:20:07Z</time>
      </trkpt>
      <trkpt lat="-12.1218390" lon="-76.6255810">
        <ele>1790.9</ele>
        <time>2021-05-30T14:20:09Z</time>
      </trkpt>
      <trkpt lat="-12.1218470" lon="-76.6255760">
        <ele>1790.9</ele>
        <time>2021-05-30T14:20:10Z</time>
      </trkpt>
      <trkpt lat="-12.1218710" lon="-76.6255580">
        <ele>1791.1</ele>
        <time>2021-05-30T14:20:12Z</time>
      </trkpt>
      <trkpt lat="-12.1218710" lon="-76.6255580">
        <ele>1791.1</ele>
        <time>2021-05-30T14:20:12Z</time>
      </trkpt>
      <trkpt lat="-12.1218910" lon="-76.6255290">
        <ele>1791.4</ele>
        <time>2021-05-30T14:20:14Z</time>
      </trkpt>
      <trkpt lat="-12.1218950" lon="-76.6255210">
        <ele>1791.5</ele>
        <time>2021-05-30T14:20:15Z</time>
      </trkpt>
      <trkpt lat="-12.1219100" lon="-76.6254940">
        <ele>1791.7</ele>
        <time>2021-05-30T14:20:16Z</time>
      </trkpt>
      <trkpt lat="-12.1219130" lon="-76.6254850">
        <ele>1791.7</ele>
        <time>2021-05-30T14:20:17Z</time>
      </trkpt>
      <trkpt lat="-12.1219340" lon="-76.6254590">
        <ele>1792.0</ele>
        <time>2021-05-30T14:20:19Z</time>
      </trkpt>
      <trkpt lat="-12.1219430" lon="-76.6254480">
        <ele>1792.1</ele>
        <time>2021-05-30T14:20:20Z</time>
      </trkpt>
      <trkpt lat="-12.1219700" lon="-76.6254240">
        <ele>1792.3</ele>
        <time>2021-05-30T14:20:22Z</time>
      </trkpt>
      <trkpt lat="-12.1219740" lon="-76.6254140">
        <ele>1792.4</ele>
        <time>2021-05-30T14:20:23Z</time>
      </trkpt>
      <trkpt lat="-12.1219910" lon="-76.6253770">
        <ele>1792.7</ele>
        <time>2021-05-30T14:20:25Z</time>
      </trkpt>
      <trkpt lat="-12.1220110" lon="-76.6253430">
        <ele>1792.9</ele>
        <time>2021-05-30T14:20:26Z</time>
      </trkpt>
      <trkpt lat="-12.1220210" lon="-76.6253290">
        <ele>1793.1</ele>
        <time>2021-05-30T14:20:27Z</time>
      </trkpt>
      <trkpt lat="-12.1220450" lon="-76.6253040">
        <ele>1793.3</ele>
        <time>2021-05-30T14:20:29Z</time>
      </trkpt>
      <trkpt lat="-12.1220520" lon="-76.6252970">
        <ele>1793.4</ele>
        <time>2021-05-30T14:20:30Z</time>
      </trkpt>
      <trkpt lat="-12.1220780" lon="-76.6252760">
        <ele>1793.6</ele>
        <time>2021-05-30T14:20:31Z</time>
      </trkpt>
      <trkpt lat="-12.1220960" lon="-76.6252640">
        <ele>1793.8</ele>
        <time>2021-05-30T14:20:32Z</time>
      </trkpt>
      <trkpt lat="-12.1221160" lon="-76.6252490">
        <ele>1793.9</ele>
        <time>2021-05-30T14:20:34Z</time>
      </trkpt>
      <trkpt lat="-12.1221450" lon="-76.6252260">
        <ele>1794.2</ele>
        <time>2021-05-30T14:20:35Z</time>
      </trkpt>
      <trkpt lat="-12.1221540" lon="-76.6252190">
        <ele>1794.3</ele>
        <time>2021-05-30T14:20:36Z</time>
      </trkpt>
      <trkpt lat="-12.1221810" lon="-76.6251990">
        <ele>1794.5</ele>
        <time>2021-05-30T14:20:37Z</time>
      </trkpt>
      <trkpt lat="-12.1222140" lon="-76.6251700">
        <ele>1794.8</ele>
        <time>2021-05-30T14:20:39Z</time>
      </trkpt>
      <trkpt lat="-12.1222440" lon="-76.6251310">
        <ele>1795.2</ele>
        <time>2021-05-30T14:20:41Z</time>
      </trkpt>
      <trkpt lat="-12.1222660" lon="-76.6250980">
        <ele>1795.4</ele>
        <time>2021-05-30T14:20:42Z</time>
      </trkpt>
      <trkpt lat="-12.1222790" lon="-76.6250700">
        <ele>1795.6</ele>
        <time>2021-05-30T14:20:44Z</time>
      </trkpt>
      <trkpt lat="-12.1222960" lon="-76.6250410">
        <ele>1795.9</ele>
        <time>2021-05-30T14:20:45Z</time>
      </trkpt>
      <trkpt lat="-12.1223050" lon="-76.6250160">
        <ele>1796.1</ele>
        <time>2021-05-30T14:20:46Z</time>
      </trkpt>
      <trkpt lat="-12.1223200" lon="-76.6249820">
        <ele>1796.3</ele>
        <time>2021-05-30T14:20:48Z</time>
      </trkpt>
      <trkpt lat="-12.1223320" lon="-76.6249550">
        <ele>1796.5</ele>
        <time>2021-05-30T14:20:49Z</time>
      </trkpt>
      <trkpt lat="-12.1223480" lon="-76.6249160">
        <ele>1796.8</ele>
        <time>2021-05-30T14:20:50Z</time>
      </trkpt>
      <trkpt lat="-12.1223560" lon="-76.6248730">
        <ele>1797.1</ele>
        <time>2021-05-30T14:20:52Z</time>
      </trkpt>
      <trkpt lat="-12.1223600" lon="-76.6248520">
        <ele>1797.3</ele>
        <time>2021-05-30T14:20:53Z</time>
      </trkpt>
      <trkpt lat="-12.1223710" lon="-76.6248080">
        <ele>1797.6</ele>
        <time>2021-05-30T14:20:55Z</time>
      </trkpt>
      <trkpt lat="-12.1223760" lon="-76.6247940">
        <ele>1797.7</ele>
        <time>2021-05-30T14:20:56Z</time>
      </trkpt>
      <trkpt lat="-12.1223810" lon="-76.6247800">
        <ele>1797.8</ele>
        <time>2021-05-30T14:20:57Z</time>
      </trkpt>
      <trkpt lat="-12.1223920" lon="-76.6247450">
        <ele>1798.0</ele>
        <time>2021-05-30T14:20:58Z</time>
      </trkpt>
      <trkpt lat="-12.1224050" lon="-76.6247170">
        <ele>1798.2</ele>
        <time>2021-05-30T14:20:59Z</time>
      </trkpt>
      <trkpt lat="-12.1224220" lon="-76.6246770">
        <ele>1798.5</ele>
        <time>2021-05-30T14:21:01Z</time>
      </trkpt>
      <trkpt lat="-12.1224280" lon="-76.6246600">
        <ele>1798.7</ele>
        <time>2021-05-30T14:21:02Z</time>
      </trkpt>
      <trkpt lat="-12.1224440" lon="-76.6246310">
        <ele>1798.9</ele>
        <time>2021-05-30T14:21:04Z</time>
      </trkpt>
      <trkpt lat="-12.1224620" lon="-76.6245950">
        <ele>1799.2</ele>
        <time>2021-05-30T14:21:05Z</time>
      </trkpt>
      <trkpt lat="-12.1224720" lon="-76.6245740">
        <ele>1799.3</ele>
        <time>2021-05-30T14:21:06Z</time>
      </trkpt>
      <trkpt lat="-12.1224820" lon="-76.6245560">
        <ele>1799.5</ele>
        <time>2021-05-30T14:21:08Z</time>
      </trkpt>
      <trkpt lat="-12.1225050" lon="-76.6245210">
        <ele>1799.8</ele>
        <time>2021-05-30T14:21:10Z</time>
      </trkpt>
      <trkpt lat="-12.1225270" lon="-76.6244880">
        <ele>1800.0</ele>
        <time>2021-05-30T14:21:12Z</time>
      </trkpt>
      <trkpt lat="-12.1225400" lon="-76.6244610">
        <ele>1800.2</ele>
        <time>2021-05-30T14:21:13Z</time>
      </trkpt>
      <trkpt lat="-12.1225640" lon="-76.6244180">
        <ele>1800.6</ele>
        <time>2021-05-30T14:21:15Z</time>
      </trkpt>
      <trkpt lat="-12.1225810" lon="-76.6243900">
        <ele>1800.8</ele>
        <time>2021-05-30T14:21:16Z</time>
      </trkpt>
      <trkpt lat="-12.1226080" lon="-76.6243600">
        <ele>1801.1</ele>
        <time>2021-05-30T14:21:18Z</time>
      </trkpt>
      <trkpt lat="-12.1226290" lon="-76.6243380">
        <ele>1801.3</ele>
        <time>2021-05-30T14:21:19Z</time>
      </trkpt>
      <trkpt lat="-12.1226580" lon="-76.6243080">
        <ele>1801.6</ele>
        <time>2021-05-30T14:21:20Z</time>
      </trkpt>
      <trkpt lat="-12.1226690" lon="-76.6242950">
        <ele>1801.7</ele>
        <time>2021-05-30T14:21:21Z</time>
      </trkpt>
      <trkpt lat="-12.1226890" lon="-76.6242730">
        <ele>1801.9</ele>
        <time>2021-05-30T14:21:22Z</time>
      </trkpt>
      <trkpt lat="-12.1227040" lon="-76.6242510">
        <ele>1802.1</ele>
        <time>2021-05-30T14:21:23Z</time>
      </trkpt>
      <trkpt lat="-12.1227210" lon="-76.6242300">
        <ele>1802.3</ele>
        <time>2021-05-30T14:21:25Z</time>
      </trkpt>
      <trkpt lat="-12.1227400" lon="-76.6241960">
        <ele>1802.6</ele>
        <time>2021-05-30T14:21:26Z</time>
      </trkpt>
      <trkpt lat="-12.1227460" lon="-76.6241810">
        <ele>1802.7</ele>
        <time>2021-05-30T14:21:27Z</time>
      </trkpt>
      <trkpt lat="-12.1227570" lon="-76.6241610">
        <ele>1802.8</ele>
        <time>2021-05-30T14:21:28Z</time>
      </trkpt>
      <trkpt lat="-12.1227680" lon="-76.6241290">
        <ele>1803.1</ele>
        <time>2021-05-30T14:21:30Z</time>
      </trkpt>
      <trkpt lat="-12.1227760" lon="-76.6241070">
        <ele>1803.2</ele>
        <time>2021-05-30T14:21:31Z</time>
      </trkpt>
      <trkpt lat="-12.1227840" lon="-76.6240810">
        <ele>1803.4</ele>
        <time>2021-05-30T14:21:33Z</time>
      </trkpt>
      <trkpt lat="-12.1227970" lon="-76.6240420">
        <ele>1803.7</ele>
        <time>2021-05-30T14:21:34Z</time>
      </trkpt>
      <trkpt lat="-12.1228000" lon="-76.6240290">
        <ele>1803.8</ele>
        <time>2021-05-30T14:21:35Z</time>
      </trkpt>
      <trkpt lat="-12.1228110" lon="-76.6239960">
        <ele>1804.0</ele>
        <time>2021-05-30T14:21:36Z</time>
      </trkpt>
      <trkpt lat="-12.1228140" lon="-76.6239850">
        <ele>1804.1</ele>
        <time>2021-05-30T14:21:37Z</time>
      </trkpt>
      <trkpt lat="-12.1228200" lon="-76.6239660">
        <ele>1804.2</ele>
        <time>2021-05-30T14:21:38Z</time>
      </trkpt>
      <trkpt lat="-12.1228310" lon="-76.6239370">
        <ele>1804.5</ele>
        <time>2021-05-30T14:21:40Z</time>
      </trkpt>
      <trkpt lat="-12.1228430" lon="-76.6238980">
        <ele>1804.7</ele>
        <time>2021-05-30T14:21:42Z</time>
      </trkpt>
      <trkpt lat="-12.1228510" lon="-76.6238660">
        <ele>1805.0</ele>
        <time>2021-05-30T14:21:43Z</time>
      </trkpt>
      <trkpt lat="-12.1228530" lon="-76.6238550">
        <ele>1805.0</ele>
        <time>2021-05-30T14:21:44Z</time>
      </trkpt>
      <trkpt lat="-12.1228620" lon="-76.6238170">
        <ele>1805.3</ele>
        <time>2021-05-30T14:21:45Z</time>
      </trkpt>
      <trkpt lat="-12.1228650" lon="-76.6238000">
        <ele>1805.4</ele>
        <time>2021-05-30T14:21:46Z</time>
      </trkpt>
      <trkpt lat="-12.1228630" lon="-76.6237600">
        <ele>1805.7</ele>
        <time>2021-05-30T14:21:48Z</time>
      </trkpt>
      <trkpt lat="-12.1228620" lon="-76.6237480">
        <ele>1805.8</ele>
        <time>2021-05-30T14:21:49Z</time>
      </trkpt>
      <trkpt lat="-12.1228640" lon="-76.6237060">
        <ele>1806.1</ele>
        <time>2021-05-30T14:21:50Z</time>
      </trkpt>
      <trkpt lat="-12.1228640" lon="-76.6236920">
        <ele>1806.2</ele>
        <time>2021-05-30T14:21:51Z</time>
      </trkpt>
      <trkpt lat="-12.1228570" lon="-76.6236510">
        <ele>1806.5</ele>
        <time>2021-05-30T14:21:53Z</time>
      </trkpt>
      <trkpt lat="-12.1228510" lon="-76.6236350">
        <ele>1806.6</ele>
        <time>2021-05-30T14:21:54Z</time>
      </trkpt>
      <trkpt lat="-12.1228230" lon="-76.6235970">
        <ele>1806.9</ele>
        <time>2021-05-30T14:21:56Z</time>
      </trkpt>
      <trkpt lat="-12.1228130" lon="-76.6235850">
        <ele>1807.0</ele>
        <time>2021-05-30T14:21:57Z</time>
      </trkpt>
      <trkpt lat="-12.1228020" lon="-76.6235740">
        <ele>1807.1</ele>
        <time>2021-05-30T14:21:58Z</time>
      </trkpt>
      <trkpt lat="-12.1227740" lon="-76.6235500">
        <ele>1807.4</ele>
        <time>2021-05-30T14:21:59Z</time>
      </trkpt>
      <trkpt lat="-12.1227640" lon="-76.6235430">
        <ele>1807.5</ele>
        <time>2021-05-30T14:22:00Z</time>
      </trkpt>
      <trkpt lat="-12.1227370" lon="-76.6235190">
        <ele>1807.7</ele>
        <time>2021-05-30T14:22:01Z</time>
      </trkpt>
      <trkpt lat="-12.1227290" lon="-76.6235130">
        <ele>1807.8</ele>
        <time>2021-05-30T14:22:02Z</time>
      </trkpt>
      <trkpt lat="-12.1227100" lon="-76.6234960">
        <ele>1808.0</ele>
        <time>2021-05-30T14:22:03Z</time>
      </trkpt>
      <trkpt lat="-12.1226920" lon="-76.6234790">
        <ele>1808.1</ele>
        <time>2021-05-30T14:22:05Z</time>
      </trkpt>
      <trkpt lat="-12.1226690" lon="-76.6234570">
        <ele>1808.3</ele>
        <time>2021-05-30T14:22:06Z</time>
      </trkpt>
      <trkpt lat="-12.1226600" lon="-76.6234490">
        <ele>1808.4</ele>
        <time>2021-05-30T14:22:07Z</time>
      </trkpt>
      <trkpt lat="-12.1226330" lon="-76.6234270">
        <ele>1808.7</ele>
        <time>2021-05-30T14:22:08Z</time>
      </trkpt>
      <trkpt lat="-12.1226250" lon="-76.6234220">
        <ele>1808.7</ele>
        <time>2021-05-30T14:22:09Z</time>
      </trkpt>
      <trkpt lat="-12.1226120" lon="-76.6234120">
        <ele>1808.9</ele>
        <time>2021-05-30T14:22:10Z</time>
      </trkpt>
      <trkpt lat="-12.1225960" lon="-76.6233970">
        <ele>1809.0</ele>
        <time>2021-05-30T14:22:12Z</time>
      </trkpt>
      <trkpt lat="-12.1225680" lon="-76.6233670">
        <ele>1809.3</ele>
        <time>2021-05-30T14:22:14Z</time>
      </trkpt>
      <trkpt lat="-12.1225370" lon="-76.6233420">
        <ele>1809.6</ele>
        <time>2021-05-30T14:22:15Z</time>
      </trkpt>
      <trkpt lat="-12.1225240" lon="-76.6233320">
        <ele>1809.7</ele>
        <time>2021-05-30T14:22:16Z</time>
      </trkpt>
      <trkpt lat="-12.1224930" lon="-76.6233140">
        <ele>1809.9</ele>
        <time>2021-05-30T14:22:18Z</time>
      </trkpt>
      <trkpt lat="-12.1224530" lon="-76.6232990">
        <ele>1810.2</ele>
        <time>2021-05-30T14:22:20Z</time>
      </trkpt>
      <trkpt lat="-12.1224250" lon="-76.6232850">
        <ele>1810.5</ele>
        <time>2021-05-30T14:22:21Z</time>
      </trkpt>
      <trkpt lat="-12.1223850" lon="-76.6232620">
        <ele>1810.8</ele>
        <time>2021-05-30T14:22:23Z</time>
      </trkpt>
      <trkpt lat="-12.1223740" lon="-76.6232560">
        <ele>1810.9</ele>
        <time>2021-05-30T14:22:24Z</time>
      </trkpt>
      <trkpt lat="-12.1223620" lon="-76.6232490">
        <ele>1811.0</ele>
        <time>2021-05-30T14:22:25Z</time>
      </trkpt>
      <trkpt lat="-12.1223400" lon="-76.6232370">
        <ele>1811.1</ele>
        <time>2021-05-30T14:22:26Z</time>
      </trkpt>
      <trkpt lat="-12.1223140" lon="-76.6232240">
        <ele>1811.3</ele>
        <time>2021-05-30T14:22:28Z</time>
      </trkpt>
      <trkpt lat="-12.1222860" lon="-76.6232090">
        <ele>1811.6</ele>
        <time>2021-05-30T14:22:29Z</time>
      </trkpt>
      <trkpt lat="-12.1222620" lon="-76.6231860">
        <ele>1811.8</ele>
        <time>2021-05-30T14:22:30Z</time>
      </trkpt>
      <trkpt lat="-12.1222530" lon="-76.6231790">
        <ele>1811.9</ele>
        <time>2021-05-30T14:22:31Z</time>
      </trkpt>
      <trkpt lat="-12.1222300" lon="-76.6231590">
        <ele>1812.1</ele>
        <time>2021-05-30T14:22:32Z</time>
      </trkpt>
      <trkpt lat="-12.1222230" lon="-76.6231510">
        <ele>1812.2</ele>
        <time>2021-05-30T14:22:33Z</time>
      </trkpt>
      <trkpt lat="-12.1222080" lon="-76.6231180">
        <ele>1812.4</ele>
        <time>2021-05-30T14:22:35Z</time>
      </trkpt>
      <trkpt lat="-12.1222020" lon="-76.6231070">
        <ele>1812.5</ele>
        <time>2021-05-30T14:22:36Z</time>
      </trkpt>
      <trkpt lat="-12.1221930" lon="-76.6230730">
        <ele>1812.7</ele>
        <time>2021-05-30T14:22:37Z</time>
      </trkpt>
      <trkpt lat="-12.1221940" lon="-76.6230490">
        <ele>1812.9</ele>
        <time>2021-05-30T14:22:38Z</time>
      </trkpt>
      <trkpt lat="-12.1222080" lon="-76.6230130">
        <ele>1813.2</ele>
        <time>2021-05-30T14:22:40Z</time>
      </trkpt>
      <trkpt lat="-12.1222200" lon="-76.6229850">
        <ele>1813.4</ele>
        <time>2021-05-30T14:22:41Z</time>
      </trkpt>
      <trkpt lat="-12.1222340" lon="-76.6229560">
        <ele>1813.6</ele>
        <time>2021-05-30T14:22:42Z</time>
      </trkpt>
      <trkpt lat="-12.1222540" lon="-76.6229270">
        <ele>1813.8</ele>
        <time>2021-05-30T14:22:44Z</time>
      </trkpt>
      <trkpt lat="-12.1222680" lon="-76.6228970">
        <ele>1814.1</ele>
        <time>2021-05-30T14:22:45Z</time>
      </trkpt>
      <trkpt lat="-12.1222830" lon="-76.6228690">
        <ele>1814.3</ele>
        <time>2021-05-30T14:22:46Z</time>
      </trkpt>
      <trkpt lat="-12.1222960" lon="-76.6228300">
        <ele>1814.6</ele>
        <time>2021-05-30T14:22:48Z</time>
      </trkpt>
      <trkpt lat="-12.1223090" lon="-76.6228000">
        <ele>1814.8</ele>
        <time>2021-05-30T14:22:49Z</time>
      </trkpt>
      <trkpt lat="-12.1223260" lon="-76.6227710">
        <ele>1815.0</ele>
        <time>2021-05-30T14:22:50Z</time>
      </trkpt>
      <trkpt lat="-12.1223580" lon="-76.6227480">
        <ele>1815.3</ele>
        <time>2021-05-30T14:22:51Z</time>
      </trkpt>
      <trkpt lat="-12.1223690" lon="-76.6227410">
        <ele>1815.4</ele>
        <time>2021-05-30T14:22:52Z</time>
      </trkpt>
      <trkpt lat="-12.1223990" lon="-76.6227280">
        <ele>1815.6</ele>
        <time>2021-05-30T14:22:54Z</time>
      </trkpt>
      <trkpt lat="-12.1224260" lon="-76.6227180">
        <ele>1815.8</ele>
        <time>2021-05-30T14:22:55Z</time>
      </trkpt>
      <trkpt lat="-12.1224610" lon="-76.6227070">
        <ele>1816.1</ele>
        <time>2021-05-30T14:22:56Z</time>
      </trkpt>
      <trkpt lat="-12.1225070" lon="-76.6226960">
        <ele>1816.4</ele>
        <time>2021-05-30T14:22:57Z</time>
      </trkpt>
      <trkpt lat="-12.1225380" lon="-76.6226930">
        <ele>1816.6</ele>
        <time>2021-05-30T14:22:59Z</time>
      </trkpt>
      <trkpt lat="-12.1225730" lon="-76.6226900">
        <ele>1816.9</ele>
        <time>2021-05-30T14:23:00Z</time>
      </trkpt>
      <trkpt lat="-12.1226080" lon="-76.6226890">
        <ele>1817.1</ele>
        <time>2021-05-30T14:23:01Z</time>
      </trkpt>
      <trkpt lat="-12.1226440" lon="-76.6226850">
        <ele>1817.4</ele>
        <time>2021-05-30T14:23:03Z</time>
      </trkpt>
      <trkpt lat="-12.1226890" lon="-76.6226770">
        <ele>1817.7</ele>
        <time>2021-05-30T14:23:04Z</time>
      </trkpt>
      <trkpt lat="-12.1227280" lon="-76.6226720">
        <ele>1818.0</ele>
        <time>2021-05-30T14:23:06Z</time>
      </trkpt>
      <trkpt lat="-12.1227850" lon="-76.6226610">
        <ele>1818.4</ele>
        <time>2021-05-30T14:23:08Z</time>
      </trkpt>
      <trkpt lat="-12.1228140" lon="-76.6226560">
        <ele>1818.6</ele>
        <time>2021-05-30T14:23:09Z</time>
      </trkpt>
      <trkpt lat="-12.1228430" lon="-76.6226490">
        <ele>1818.8</ele>
        <time>2021-05-30T14:23:10Z</time>
      </trkpt>
      <trkpt lat="-12.1228820" lon="-76.6226360">
        <ele>1819.1</ele>
        <time>2021-05-30T14:23:11Z</time>
      </trkpt>
      <trkpt lat="-12.1229170" lon="-76.6226200">
        <ele>1819.4</ele>
        <time>2021-05-30T14:23:13Z</time>
      </trkpt>
      <trkpt lat="-12.1229560" lon="-76.6225990">
        <ele>1819.7</ele>
        <time>2021-05-30T14:23:14Z</time>
      </trkpt>
      <trkpt lat="-12.1229710" lon="-76.6225900">
        <ele>1819.8</ele>
        <time>2021-05-30T14:23:15Z</time>
      </trkpt>
      <trkpt lat="-12.1229940" lon="-76.6225760">
        <ele>1820.0</ele>
        <time>2021-05-30T14:23:16Z</time>
      </trkpt>
      <trkpt lat="-12.1230310" lon="-76.6225500">
        <ele>1820.3</ele>
        <time>2021-05-30T14:23:18Z</time>
      </trkpt>
      <trkpt lat="-12.1230680" lon="-76.6225230">
        <ele>1820.6</ele>
        <time>2021-05-30T14:23:19Z</time>
      </trkpt>
      <trkpt lat="-12.1230830" lon="-76.6225120">
        <ele>1820.8</ele>
        <time>2021-05-30T14:23:20Z</time>
      </trkpt>
      <trkpt lat="-12.1231070" lon="-76.6224960">
        <ele>1821.0</ele>
        <time>2021-05-30T14:23:21Z</time>
      </trkpt>
      <trkpt lat="-12.1231330" lon="-76.6224750">
        <ele>1821.2</ele>
        <time>2021-05-30T14:23:22Z</time>
      </trkpt>
      <trkpt lat="-12.1231570" lon="-76.6224570">
        <ele>1821.4</ele>
        <time>2021-05-30T14:23:23Z</time>
      </trkpt>
      <trkpt lat="-12.1231820" lon="-76.6224370">
        <ele>1821.6</ele>
        <time>2021-05-30T14:23:25Z</time>
      </trkpt>
      <trkpt lat="-12.1232180" lon="-76.6224100">
        <ele>1821.9</ele>
        <time>2021-05-30T14:23:26Z</time>
      </trkpt>
      <trkpt lat="-12.1232550" lon="-76.6223840">
        <ele>1822.3</ele>
        <time>2021-05-30T14:23:28Z</time>
      </trkpt>
      <trkpt lat="-12.1232700" lon="-76.6223720">
        <ele>1822.4</ele>
        <time>2021-05-30T14:23:29Z</time>
      </trkpt>
      <trkpt lat="-12.1232880" lon="-76.6223510">
        <ele>1822.6</ele>
        <time>2021-05-30T14:23:30Z</time>
      </trkpt>
      <trkpt lat="-12.1233130" lon="-76.6223240">
        <ele>1822.8</ele>
        <time>2021-05-30T14:23:32Z</time>
      </trkpt>
      <trkpt lat="-12.1233210" lon="-76.6223170">
        <ele>1822.9</ele>
        <time>2021-05-30T14:23:33Z</time>
      </trkpt>
      <trkpt lat="-12.1233440" lon="-76.6222930">
        <ele>1823.1</ele>
        <time>2021-05-30T14:23:34Z</time>
      </trkpt>
      <trkpt lat="-12.1233510" lon="-76.6222840">
        <ele>1823.2</ele>
        <time>2021-05-30T14:23:35Z</time>
      </trkpt>
      <trkpt lat="-12.1233700" lon="-76.6222610">
        <ele>1823.4</ele>
        <time>2021-05-30T14:23:37Z</time>
      </trkpt>
      <trkpt lat="-12.1233900" lon="-76.6222360">
        <ele>1823.6</ele>
        <time>2021-05-30T14:23:38Z</time>
      </trkpt>
      <trkpt lat="-12.1233990" lon="-76.6222230">
        <ele>1823.8</ele>
        <time>2021-05-30T14:23:39Z</time>
      </trkpt>
      <trkpt lat="-12.1234150" lon="-76.6222070">
        <ele>1823.9</ele>
        <time>2021-05-30T14:23:41Z</time>
      </trkpt>
      <trkpt lat="-12.1234360" lon="-76.6221880">
        <ele>1824.1</ele>
        <time>2021-05-30T14:23:42Z</time>
      </trkpt>
      <trkpt lat="-12.1234630" lon="-76.6221630">
        <ele>1824.4</ele>
        <time>2021-05-30T14:23:43Z</time>
      </trkpt>
      <trkpt lat="-12.1234910" lon="-76.6221300">
        <ele>1824.7</ele>
        <time>2021-05-30T14:23:45Z</time>
      </trkpt>
      <trkpt lat="-12.1235120" lon="-76.6221010">
        <ele>1824.9</ele>
        <time>2021-05-30T14:23:46Z</time>
      </trkpt>
      <trkpt lat="-12.1235180" lon="-76.6220910">
        <ele>1825.0</ele>
        <time>2021-05-30T14:23:47Z</time>
      </trkpt>
      <trkpt lat="-12.1235360" lon="-76.6220630">
        <ele>1825.2</ele>
        <time>2021-05-30T14:23:48Z</time>
      </trkpt>
      <trkpt lat="-12.1235430" lon="-76.6220530">
        <ele>1825.3</ele>
        <time>2021-05-30T14:23:49Z</time>
      </trkpt>
      <trkpt lat="-12.1235620" lon="-76.6220310">
        <ele>1825.5</ele>
        <time>2021-05-30T14:23:51Z</time>
      </trkpt>
      <trkpt lat="-12.1235780" lon="-76.6220020">
        <ele>1825.7</ele>
        <time>2021-05-30T14:23:52Z</time>
      </trkpt>
      <trkpt lat="-12.1235990" lon="-76.6219700">
        <ele>1826.0</ele>
        <time>2021-05-30T14:23:53Z</time>
      </trkpt>
      <trkpt lat="-12.1236060" lon="-76.6219590">
        <ele>1826.1</ele>
        <time>2021-05-30T14:23:54Z</time>
      </trkpt>
      <trkpt lat="-12.1236280" lon="-76.6219180">
        <ele>1826.4</ele>
        <time>2021-05-30T14:23:56Z</time>
      </trkpt>
      <trkpt lat="-12.1236380" lon="-76.6219030">
        <ele>1826.5</ele>
        <time>2021-05-30T14:23:57Z</time>
      </trkpt>
      <trkpt lat="-12.1236470" lon="-76.6218880">
        <ele>1826.7</ele>
        <time>2021-05-30T14:23:58Z</time>
      </trkpt>
      <trkpt lat="-12.1236630" lon="-76.6218620">
        <ele>1826.9</ele>
        <time>2021-05-30T14:23:59Z</time>
      </trkpt>
      <trkpt lat="-12.1236870" lon="-76.6218200">
        <ele>1827.2</ele>
        <time>2021-05-30T14:24:01Z</time>
      </trkpt>
      <trkpt lat="-12.1236940" lon="-76.6218070">
        <ele>1827.3</ele>
        <time>2021-05-30T14:24:02Z</time>
      </trkpt>
      <trkpt lat="-12.1237020" lon="-76.6217950">
        <ele>1827.4</ele>
        <time>2021-05-30T14:24:03Z</time>
      </trkpt>
      <trkpt lat="-12.1237210" lon="-76.6217670">
        <ele>1827.6</ele>
        <time>2021-05-30T14:24:04Z</time>
      </trkpt>
      <trkpt lat="-12.1237250" lon="-76.6217590">
        <ele>1827.7</ele>
        <time>2021-05-30T14:24:05Z</time>
      </trkpt>
      <trkpt lat="-12.1237470" lon="-76.6217170">
        <ele>1828.0</ele>
        <time>2021-05-30T14:24:07Z</time>
      </trkpt>
      <trkpt lat="-12.1237570" lon="-76.6217020">
        <ele>1828.2</ele>
        <time>2021-05-30T14:24:08Z</time>
      </trkpt>
      <trkpt lat="-12.1237670" lon="-76.6216880">
        <ele>1828.3</ele>
        <time>2021-05-30T14:24:09Z</time>
      </trkpt>
      <trkpt lat="-12.1237840" lon="-76.6216660">
        <ele>1828.5</ele>
        <time>2021-05-30T14:24:10Z</time>
      </trkpt>
      <trkpt lat="-12.1237990" lon="-76.6216440">
        <ele>1828.7</ele>
        <time>2021-05-30T14:24:11Z</time>
      </trkpt>
      <trkpt lat="-12.1238190" lon="-76.6216100">
        <ele>1828.9</ele>
        <time>2021-05-30T14:24:13Z</time>
      </trkpt>
      <trkpt lat="-12.1238390" lon="-76.6215820">
        <ele>1829.2</ele>
        <time>2021-05-30T14:24:15Z</time>
      </trkpt>
      <trkpt lat="-12.1238530" lon="-76.6215610">
        <ele>1829.3</ele>
        <time>2021-05-30T14:24:16Z</time>
      </trkpt>
      <trkpt lat="-12.1238750" lon="-76.6215250">
        <ele>1829.6</ele>
        <time>2021-05-30T14:24:18Z</time>
      </trkpt>
      <trkpt lat="-12.1238880" lon="-76.6215000">
        <ele>1829.8</ele>
        <time>2021-05-30T14:24:19Z</time>
      </trkpt>
      <trkpt lat="-12.1238980" lon="-76.6214820">
        <ele>1830.0</ele>
        <time>2021-05-30T14:24:20Z</time>
      </trkpt>
      <trkpt lat="-12.1239120" lon="-76.6214560">
        <ele>1830.2</ele>
        <time>2021-05-30T14:24:22Z</time>
      </trkpt>
      <trkpt lat="-12.1239320" lon="-76.6214260">
        <ele>1830.4</ele>
        <time>2021-05-30T14:24:23Z</time>
      </trkpt>
      <trkpt lat="-12.1239580" lon="-76.6213910">
        <ele>1830.7</ele>
        <time>2021-05-30T14:24:25Z</time>
      </trkpt>
      <trkpt lat="-12.1239660" lon="-76.6213790">
        <ele>1830.8</ele>
        <time>2021-05-30T14:24:27Z</time>
      </trkpt>
      <trkpt lat="-12.1239730" lon="-76.6213680">
        <ele>1830.9</ele>
        <time>2021-05-30T14:24:28Z</time>
      </trkpt>
      <trkpt lat="-12.1239830" lon="-76.6213490">
        <ele>1831.1</ele>
        <time>2021-05-30T14:24:29Z</time>
      </trkpt>
      <trkpt lat="-12.1239970" lon="-76.6213180">
        <ele>1831.3</ele>
        <time>2021-05-30T14:24:31Z</time>
      </trkpt>
      <trkpt lat="-12.1240100" lon="-76.6212870">
        <ele>1831.5</ele>
        <time>2021-05-30T14:24:32Z</time>
      </trkpt>
      <trkpt lat="-12.1240160" lon="-76.6212720">
        <ele>1831.6</ele>
        <time>2021-05-30T14:24:33Z</time>
      </trkpt>
      <trkpt lat="-12.1240270" lon="-76.6212400">
        <ele>1831.9</ele>
        <time>2021-05-30T14:24:35Z</time>
      </trkpt>
      <trkpt lat="-12.1240310" lon="-76.6212320">
        <ele>1831.9</ele>
        <time>2021-05-30T14:24:36Z</time>
      </trkpt>
      <trkpt lat="-12.1240460" lon="-76.6211980">
        <ele>1832.2</ele>
        <time>2021-05-30T14:24:37Z</time>
      </trkpt>
      <trkpt lat="-12.1240510" lon="-76.6211850">
        <ele>1832.3</ele>
        <time>2021-05-30T14:24:38Z</time>
      </trkpt>
      <trkpt lat="-12.1240690" lon="-76.6211520">
        <ele>1832.6</ele>
        <time>2021-05-30T14:24:40Z</time>
      </trkpt>
      <trkpt lat="-12.1240850" lon="-76.6211160">
        <ele>1832.8</ele>
        <time>2021-05-30T14:24:41Z</time>
      </trkpt>
      <trkpt lat="-12.1240910" lon="-76.6211030">
        <ele>1832.9</ele>
        <time>2021-05-30T14:24:42Z</time>
      </trkpt>
      <trkpt lat="-12.1241080" lon="-76.6210730">
        <ele>1833.2</ele>
        <time>2021-05-30T14:24:43Z</time>
      </trkpt>
      <trkpt lat="-12.1241270" lon="-76.6210410">
        <ele>1833.4</ele>
        <time>2021-05-30T14:24:45Z</time>
      </trkpt>
      <trkpt lat="-12.1241320" lon="-76.6210310">
        <ele>1833.5</ele>
        <time>2021-05-30T14:24:46Z</time>
      </trkpt>
      <trkpt lat="-12.1241500" lon="-76.6210080">
        <ele>1833.7</ele>
        <time>2021-05-30T14:24:47Z</time>
      </trkpt>
      <trkpt lat="-12.1241670" lon="-76.6209770">
        <ele>1833.9</ele>
        <time>2021-05-30T14:24:49Z</time>
      </trkpt>
      <trkpt lat="-12.1241830" lon="-76.6209470">
        <ele>1834.2</ele>
        <time>2021-05-30T14:24:50Z</time>
      </trkpt>
      <trkpt lat="-12.1242090" lon="-76.6209020">
        <ele>1834.5</ele>
        <time>2021-05-30T14:24:52Z</time>
      </trkpt>
      <trkpt lat="-12.1242210" lon="-76.6208850">
        <ele>1834.7</ele>
        <time>2021-05-30T14:24:53Z</time>
      </trkpt>
      <trkpt lat="-12.1242320" lon="-76.6208690">
        <ele>1834.8</ele>
        <time>2021-05-30T14:24:54Z</time>
      </trkpt>
      <trkpt lat="-12.1242450" lon="-76.6208500">
        <ele>1835.0</ele>
        <time>2021-05-30T14:24:55Z</time>
      </trkpt>
      <trkpt lat="-12.1242620" lon="-76.6208130">
        <ele>1835.3</ele>
        <time>2021-05-30T14:24:57Z</time>
      </trkpt>
      <trkpt lat="-12.1242820" lon="-76.6207650">
        <ele>1835.6</ele>
        <time>2021-05-30T14:24:59Z</time>
      </trkpt>
      <trkpt lat="-12.1242890" lon="-76.6207460">
        <ele>1835.8</ele>
        <time>2021-05-30T14:25:00Z</time>
      </trkpt>
      <trkpt lat="-12.1242950" lon="-76.6207280">
        <ele>1835.9</ele>
        <time>2021-05-30T14:25:01Z</time>
      </trkpt>
      <trkpt lat="-12.1243080" lon="-76.6207010">
        <ele>1836.1</ele>
        <time>2021-05-30T14:25:02Z</time>
      </trkpt>
      <trkpt lat="-12.1243230" lon="-76.6206580">
        <ele>1836.4</ele>
        <time>2021-05-30T14:25:04Z</time>
      </trkpt>
      <trkpt lat="-12.1243290" lon="-76.6206340">
        <ele>1836.6</ele>
        <time>2021-05-30T14:25:05Z</time>
      </trkpt>
      <trkpt lat="-12.1243350" lon="-76.6206100">
        <ele>1836.7</ele>
        <time>2021-05-30T14:25:07Z</time>
      </trkpt>
      <trkpt lat="-12.1243410" lon="-76.6205750">
        <ele>1837.0</ele>
        <time>2021-05-30T14:25:08Z</time>
      </trkpt>
      <trkpt lat="-12.1243440" lon="-76.6205590">
        <ele>1837.1</ele>
        <time>2021-05-30T14:25:09Z</time>
      </trkpt>
      <trkpt lat="-12.1243580" lon="-76.6205240">
        <ele>1837.4</ele>
        <time>2021-05-30T14:25:11Z</time>
      </trkpt>
      <trkpt lat="-12.1243620" lon="-76.6205130">
        <ele>1837.4</ele>
        <time>2021-05-30T14:25:12Z</time>
      </trkpt>
      <trkpt lat="-12.1243780" lon="-76.6204800">
        <ele>1837.7</ele>
        <time>2021-05-30T14:25:13Z</time>
      </trkpt>
      <trkpt lat="-12.1243830" lon="-76.6204680">
        <ele>1837.8</ele>
        <time>2021-05-30T14:25:14Z</time>
      </trkpt>
      <trkpt lat="-12.1244030" lon="-76.6204390">
        <ele>1838.0</ele>
        <time>2021-05-30T14:25:16Z</time>
      </trkpt>
      <trkpt lat="-12.1244260" lon="-76.6204110">
        <ele>1838.3</ele>
        <time>2021-05-30T14:25:18Z</time>
      </trkpt>
      <trkpt lat="-12.1244490" lon="-76.6203880">
        <ele>1838.5</ele>
        <time>2021-05-30T14:25:19Z</time>
      </trkpt>
      <trkpt lat="-12.1244570" lon="-76.6203810">
        <ele>1838.6</ele>
        <time>2021-05-30T14:25:20Z</time>
      </trkpt>
      <trkpt lat="-12.1244830" lon="-76.6203590">
        <ele>1838.8</ele>
        <time>2021-05-30T14:25:21Z</time>
      </trkpt>
      <trkpt lat="-12.1245060" lon="-76.6203460">
        <ele>1839.0</ele>
        <time>2021-05-30T14:25:22Z</time>
      </trkpt>
      <trkpt lat="-12.1245280" lon="-76.6203340">
        <ele>1839.2</ele>
        <time>2021-05-30T14:25:24Z</time>
      </trkpt>
      <trkpt lat="-12.1245600" lon="-76.6203220">
        <ele>1839.4</ele>
        <time>2021-05-30T14:25:25Z</time>
      </trkpt>
      <trkpt lat="-12.1245690" lon="-76.6203190">
        <ele>1839.5</ele>
        <time>2021-05-30T14:25:26Z</time>
      </trkpt>
      <trkpt lat="-12.1246030" lon="-76.6203090">
        <ele>1839.7</ele>
        <time>2021-05-30T14:25:27Z</time>
      </trkpt>
      <trkpt lat="-12.1246410" lon="-76.6202990">
        <ele>1840.0</ele>
        <time>2021-05-30T14:25:29Z</time>
      </trkpt>
      <trkpt lat="-12.1246520" lon="-76.6202960">
        <ele>1840.1</ele>
        <time>2021-05-30T14:25:30Z</time>
      </trkpt>
      <trkpt lat="-12.1246810" lon="-76.6202860">
        <ele>1840.3</ele>
        <time>2021-05-30T14:25:31Z</time>
      </trkpt>
      <trkpt lat="-12.1247220" lon="-76.6202690">
        <ele>1840.6</ele>
        <time>2021-05-30T14:25:33Z</time>
      </trkpt>
      <trkpt lat="-12.1247670" lon="-76.6202400">
        <ele>1841.0</ele>
        <time>2021-05-30T14:25:34Z</time>
      </trkpt>
      <trkpt lat="-12.1247990" lon="-76.6202120">
        <ele>1841.3</ele>
        <time>2021-05-30T14:25:36Z</time>
      </trkpt>
      <trkpt lat="-12.1248200" lon="-76.6201900">
        <ele>1841.5</ele>
        <time>2021-05-30T14:25:37Z</time>
      </trkpt>
      <trkpt lat="-12.1248500" lon="-76.6201540">
        <ele>1841.8</ele>
        <time>2021-05-30T14:25:38Z</time>
      </trkpt>
      <trkpt lat="-12.1248620" lon="-76.6201390">
        <ele>1842.0</ele>
        <time>2021-05-30T14:25:39Z</time>
      </trkpt>
      <trkpt lat="-12.1248740" lon="-76.6201220">
        <ele>1842.1</ele>
        <time>2021-05-30T14:25:40Z</time>
      </trkpt>
      <trkpt lat="-12.1248900" lon="-76.6200960">
        <ele>1842.3</ele>
        <time>2021-05-30T14:25:42Z</time>
      </trkpt>
      <trkpt lat="-12.1249160" lon="-76.6200690">
        <ele>1842.6</ele>
        <time>2021-05-30T14:25:43Z</time>
      </trkpt>
      <trkpt lat="-12.1249280" lon="-76.6200580">
        <ele>1842.7</ele>
        <time>2021-05-30T14:25:44Z</time>
      </trkpt>
      <trkpt lat="-12.1249480" lon="-76.6200360">
        <ele>1842.9</ele>
        <time>2021-05-30T14:25:46Z</time>
      </trkpt>
      <trkpt lat="-12.1249630" lon="-76.6200180">
        <ele>1843.1</ele>
        <time>2021-05-30T14:25:47Z</time>
      </trkpt>
      <trkpt lat="-12.1249930" lon="-76.6199840">
        <ele>1843.4</ele>
        <time>2021-05-30T14:25:49Z</time>
      </trkpt>
      <trkpt lat="-12.1250260" lon="-76.6199550">
        <ele>1843.7</ele>
        <time>2021-05-30T14:25:50Z</time>
      </trkpt>
      <trkpt lat="-12.1250450" lon="-76.6199300">
        <ele>1843.9</ele>
        <time>2021-05-30T14:25:52Z</time>
      </trkpt>
      <trkpt lat="-12.1250760" lon="-76.6198970">
        <ele>1844.2</ele>
        <time>2021-05-30T14:25:53Z</time>
      </trkpt>
      <trkpt lat="-12.1250910" lon="-76.6198810">
        <ele>1844.4</ele>
        <time>2021-05-30T14:25:54Z</time>
      </trkpt>
      <trkpt lat="-12.1251090" lon="-76.6198590">
        <ele>1844.6</ele>
        <time>2021-05-30T14:25:56Z</time>
      </trkpt>
      <trkpt lat="-12.1251370" lon="-76.6198350">
        <ele>1844.8</ele>
        <time>2021-05-30T14:25:57Z</time>
      </trkpt>
      <trkpt lat="-12.1251470" lon="-76.6198260">
        <ele>1844.9</ele>
        <time>2021-05-30T14:25:58Z</time>
      </trkpt>
      <trkpt lat="-12.1251710" lon="-76.6198070">
        <ele>1845.1</ele>
        <time>2021-05-30T14:25:59Z</time>
      </trkpt>
      <trkpt lat="-12.1251920" lon="-76.6197820">
        <ele>1845.3</ele>
        <time>2021-05-30T14:26:01Z</time>
      </trkpt>
      <trkpt lat="-12.1252010" lon="-76.6197680">
        <ele>1845.5</ele>
        <time>2021-05-30T14:26:02Z</time>
      </trkpt>
      <trkpt lat="-12.1252350" lon="-76.6197310">
        <ele>1845.8</ele>
        <time>2021-05-30T14:26:04Z</time>
      </trkpt>
      <trkpt lat="-12.1252500" lon="-76.6197190">
        <ele>1845.9</ele>
        <time>2021-05-30T14:26:05Z</time>
      </trkpt>
      <trkpt lat="-12.1252650" lon="-76.6197060">
        <ele>1846.1</ele>
        <time>2021-05-30T14:26:06Z</time>
      </trkpt>
      <trkpt lat="-12.1252920" lon="-76.6196870">
        <ele>1846.3</ele>
        <time>2021-05-30T14:26:08Z</time>
      </trkpt>
      <trkpt lat="-12.1253280" lon="-76.6196710">
        <ele>1846.6</ele>
        <time>2021-05-30T14:26:09Z</time>
      </trkpt>
      <trkpt lat="-12.1253540" lon="-76.6196650">
        <ele>1846.8</ele>
        <time>2021-05-30T14:26:11Z</time>
      </trkpt>
      <trkpt lat="-12.1253830" lon="-76.6196630">
        <ele>1847.0</ele>
        <time>2021-05-30T14:26:12Z</time>
      </trkpt>
      <trkpt lat="-12.1254220" lon="-76.6196670">
        <ele>1847.3</ele>
        <time>2021-05-30T14:26:13Z</time>
      </trkpt>
      <trkpt lat="-12.1254340" lon="-76.6196700">
        <ele>1847.3</ele>
        <time>2021-05-30T14:26:14Z</time>
      </trkpt>
      <trkpt lat="-12.1254710" lon="-76.6196850">
        <ele>1847.6</ele>
        <time>2021-05-30T14:26:15Z</time>
      </trkpt>
      <trkpt lat="-12.1255040" lon="-76.6197020">
        <ele>1847.9</ele>
        <time>2021-05-30T14:26:17Z</time>
      </trkpt>
      <trkpt lat="-12.1255140" lon="-76.6197080">
        <ele>1848.0</ele>
        <time>2021-05-30T14:26:18Z</time>
      </trkpt>
      <trkpt lat="-12.1255480" lon="-76.6197240">
        <ele>1850.2</ele>
        <time>2021-05-30T14:26:19Z</time>
      </trkpt>
      <trkpt lat="-12.1255600" lon="-76.6197280">
        <ele>1850.3</ele>
        <time>2021-05-30T14:26:20Z</time>
      </trkpt>
      <trkpt lat="-12.1255880" lon="-76.6197300">
        <ele>1850.5</ele>
        <time>2021-05-30T14:26:21Z</time>
      </trkpt>
      <trkpt lat="-12.1256210" lon="-76.6197250">
        <ele>1850.7</ele>
        <time>2021-05-30T14:26:23Z</time>
      </trkpt>
      <trkpt lat="-12.1256540" lon="-76.6197180">
        <ele>1850.9</ele>
        <time>2021-05-30T14:26:24Z</time>
      </trkpt>
      <trkpt lat="-12.1256740" lon="-76.6197150">
        <ele>1851.0</ele>
        <time>2021-05-30T14:26:25Z</time>
      </trkpt>
      <trkpt lat="-12.1256970" lon="-76.6197100">
        <ele>1851.2</ele>
        <time>2021-05-30T14:26:27Z</time>
      </trkpt>
      <trkpt lat="-12.1257330" lon="-76.6197020">
        <ele>1851.4</ele>
        <time>2021-05-30T14:26:28Z</time>
      </trkpt>
      <trkpt lat="-12.1257450" lon="-76.6196980">
        <ele>1851.5</ele>
        <time>2021-05-30T14:26:29Z</time>
      </trkpt>
      <trkpt lat="-12.1257650" lon="-76.6196960">
        <ele>1851.6</ele>
        <time>2021-05-30T14:26:31Z</time>
      </trkpt>
      <trkpt lat="-12.1257660" lon="-76.6197170">
        <ele>1851.8</ele>
        <time>2021-05-30T14:26:32Z</time>
      </trkpt>
      <trkpt lat="-12.1257720" lon="-76.6197290">
        <ele>1851.9</ele>
        <time>2021-05-30T14:26:33Z</time>
      </trkpt>
      <trkpt lat="-12.1257940" lon="-76.6197390">
        <ele>1852.0</ele>
        <time>2021-05-30T14:26:35Z</time>
      </trkpt>
      <trkpt lat="-12.1258280" lon="-76.6197420">
        <ele>1852.2</ele>
        <time>2021-05-30T14:26:36Z</time>
      </trkpt>
      <trkpt lat="-12.1258410" lon="-76.6197410">
        <ele>1852.3</ele>
        <time>2021-05-30T14:26:37Z</time>
      </trkpt>
      <trkpt lat="-12.1258760" lon="-76.6197410">
        <ele>1852.5</ele>
        <time>2021-05-30T14:26:38Z</time>
      </trkpt>
      <trkpt lat="-12.1258880" lon="-76.6197400">
        <ele>1852.6</ele>
        <time>2021-05-30T14:26:39Z</time>
      </trkpt>
      <trkpt lat="-12.1259170" lon="-76.6197450">
        <ele>1852.8</ele>
        <time>2021-05-30T14:26:40Z</time>
      </trkpt>
      <trkpt lat="-12.1259410" lon="-76.6197500">
        <ele>1853.0</ele>
        <time>2021-05-30T14:26:41Z</time>
      </trkpt>
      <trkpt lat="-12.1259630" lon="-76.6197560">
        <ele>1853.1</ele>
        <time>2021-05-30T14:26:43Z</time>
      </trkpt>
      <trkpt lat="-12.1259900" lon="-76.6197600">
        <ele>1853.3</ele>
        <time>2021-05-30T14:26:44Z</time>
      </trkpt>
      <trkpt lat="-12.1260010" lon="-76.6197610">
        <ele>1853.4</ele>
        <time>2021-05-30T14:26:45Z</time>
      </trkpt>
      <trkpt lat="-12.1260330" lon="-76.6197440">
        <ele>1853.6</ele>
        <time>2021-05-30T14:26:47Z</time>
      </trkpt>
      <trkpt lat="-12.1260390" lon="-76.6197370">
        <ele>1853.6</ele>
        <time>2021-05-30T14:26:48Z</time>
      </trkpt>
      <trkpt lat="-12.1260480" lon="-76.6197170">
        <ele>1853.8</ele>
        <time>2021-05-30T14:26:49Z</time>
      </trkpt>
      <trkpt lat="-12.1260590" lon="-76.6196930">
        <ele>1853.9</ele>
        <time>2021-05-30T14:26:51Z</time>
      </trkpt>
      <trkpt lat="-12.1260610" lon="-76.6196700">
        <ele>1854.1</ele>
        <time>2021-05-30T14:26:52Z</time>
      </trkpt>
      <trkpt lat="-12.1260540" lon="-76.6196470">
        <ele>1854.2</ele>
        <time>2021-05-30T14:26:54Z</time>
      </trkpt>
      <trkpt lat="-12.1260400" lon="-76.6196220">
        <ele>1854.4</ele>
        <time>2021-05-30T14:26:55Z</time>
      </trkpt>
      <trkpt lat="-12.1260180" lon="-76.6196000">
        <ele>1854.6</ele>
        <time>2021-05-30T14:26:56Z</time>
      </trkpt>
      <trkpt lat="-12.1259930" lon="-76.6195840">
        <ele>1854.8</ele>
        <time>2021-05-30T14:26:58Z</time>
      </trkpt>
      <trkpt lat="-12.1259600" lon="-76.6195670">
        <ele>1855.0</ele>
        <time>2021-05-30T14:26:59Z</time>
      </trkpt>
      <trkpt lat="-12.1259380" lon="-76.6195590">
        <ele>1855.2</ele>
        <time>2021-05-30T14:27:01Z</time>
      </trkpt>
      <trkpt lat="-12.1258960" lon="-76.6195550">
        <ele>1855.5</ele>
        <time>2021-05-30T14:27:03Z</time>
      </trkpt>
      <trkpt lat="-12.1258600" lon="-76.6195630">
        <ele>1855.7</ele>
        <time>2021-05-30T14:27:04Z</time>
      </trkpt>
      <trkpt lat="-12.1258470" lon="-76.6195670">
        <ele>1855.8</ele>
        <time>2021-05-30T14:27:05Z</time>
      </trkpt>
      <trkpt lat="-12.1258240" lon="-76.6195770">
        <ele>1855.9</ele>
        <time>2021-05-30T14:27:06Z</time>
      </trkpt>
      <trkpt lat="-12.1258020" lon="-76.6195860">
        <ele>1856.1</ele>
        <time>2021-05-30T14:27:08Z</time>
      </trkpt>
      <trkpt lat="-12.1257740" lon="-76.6195980">
        <ele>1856.3</ele>
        <time>2021-05-30T14:27:09Z</time>
      </trkpt>
      <trkpt lat="-12.1257410" lon="-76.6196110">
        <ele>1856.5</ele>
        <time>2021-05-30T14:27:10Z</time>
      </trkpt>
      <trkpt lat="-12.1257290" lon="-76.6196160">
        <ele>1856.6</ele>
        <time>2021-05-30T14:27:11Z</time>
      </trkpt>
      <trkpt lat="-12.1256960" lon="-76.6196300">
        <ele>1856.8</ele>
        <time>2021-05-30T14:27:13Z</time>
      </trkpt>
      <trkpt lat="-12.1256840" lon="-76.6196350">
        <ele>1856.9</ele>
        <time>2021-05-30T14:27:14Z</time>
      </trkpt>
      <trkpt lat="-12.1256450" lon="-76.6196430">
        <ele>1857.2</ele>
        <time>2021-05-30T14:27:15Z</time>
      </trkpt>
      <trkpt lat="-12.1256280" lon="-76.6196450">
        <ele>1857.3</ele>
        <time>2021-05-30T14:27:16Z</time>
      </trkpt>
      <trkpt lat="-12.1256000" lon="-76.6196510">
        <ele>1857.5</ele>
        <time>2021-05-30T14:27:17Z</time>
      </trkpt>
      <trkpt lat="-12.1255650" lon="-76.6196570">
        <ele>1857.7</ele>
        <time>2021-05-30T14:27:18Z</time>
      </trkpt>
      <trkpt lat="-12.1255330" lon="-76.6196620">
        <ele>1857.9</ele>
        <time>2021-05-30T14:27:19Z</time>
      </trkpt>
      <trkpt lat="-12.1254950" lon="-76.6196610">
        <ele>1858.1</ele>
        <time>2021-05-30T14:27:21Z</time>
      </trkpt>
      <trkpt lat="-12.1254680" lon="-76.6196590">
        <ele>1858.3</ele>
        <time>2021-05-30T14:27:22Z</time>
      </trkpt>
      <trkpt lat="-12.1254400" lon="-76.6196510">
        <ele>1858.5</ele>
        <time>2021-05-30T14:27:24Z</time>
      </trkpt>
      <trkpt lat="-12.1254050" lon="-76.6196430">
        <ele>1858.7</ele>
        <time>2021-05-30T14:27:25Z</time>
      </trkpt>
      <trkpt lat="-12.1253820" lon="-76.6196380">
        <ele>1858.9</ele>
        <time>2021-05-30T14:27:26Z</time>
      </trkpt>
      <trkpt lat="-12.1253480" lon="-76.6196300">
        <ele>1859.1</ele>
        <time>2021-05-30T14:27:28Z</time>
      </trkpt>
      <trkpt lat="-12.1253110" lon="-76.6196230">
        <ele>1859.3</ele>
        <time>2021-05-30T14:27:29Z</time>
      </trkpt>
      <trkpt lat="-12.1252720" lon="-76.6196210">
        <ele>1859.6</ele>
        <time>2021-05-30T14:27:30Z</time>
      </trkpt>
      <trkpt lat="-12.1252350" lon="-76.6196240">
        <ele>1859.8</ele>
        <time>2021-05-30T14:27:32Z</time>
      </trkpt>
      <trkpt lat="-12.1252090" lon="-76.6196280">
        <ele>1860.0</ele>
        <time>2021-05-30T14:27:33Z</time>
      </trkpt>
      <trkpt lat="-12.1251750" lon="-76.6196380">
        <ele>1860.2</ele>
        <time>2021-05-30T14:27:35Z</time>
      </trkpt>
      <trkpt lat="-12.1251370" lon="-76.6196570">
        <ele>1860.5</ele>
        <time>2021-05-30T14:27:36Z</time>
      </trkpt>
      <trkpt lat="-12.1250970" lon="-76.6196810">
        <ele>1860.8</ele>
        <time>2021-05-30T14:27:38Z</time>
      </trkpt>
      <trkpt lat="-12.1250730" lon="-76.6196990">
        <ele>1861.0</ele>
        <time>2021-05-30T14:27:39Z</time>
      </trkpt>
      <trkpt lat="-12.1250480" lon="-76.6197160">
        <ele>1861.2</ele>
        <time>2021-05-30T14:27:40Z</time>
      </trkpt>
      <trkpt lat="-12.1250140" lon="-76.6197360">
        <ele>1861.4</ele>
        <time>2021-05-30T14:27:41Z</time>
      </trkpt>
      <trkpt lat="-12.1249790" lon="-76.6197590">
        <ele>1861.7</ele>
        <time>2021-05-30T14:27:43Z</time>
      </trkpt>
      <trkpt lat="-12.1249310" lon="-76.6197830">
        <ele>1862.0</ele>
        <time>2021-05-30T14:27:45Z</time>
      </trkpt>
      <trkpt lat="-12.1249020" lon="-76.6197960">
        <ele>1862.2</ele>
        <time>2021-05-30T14:27:46Z</time>
      </trkpt>
      <trkpt lat="-12.1248680" lon="-76.6198090">
        <ele>1862.5</ele>
        <time>2021-05-30T14:27:48Z</time>
      </trkpt>
      <trkpt lat="-12.1248330" lon="-76.6198260">
        <ele>1862.7</ele>
        <time>2021-05-30T14:27:49Z</time>
      </trkpt>
      <trkpt lat="-12.1248210" lon="-76.6198320">
        <ele>1862.8</ele>
        <time>2021-05-30T14:27:50Z</time>
      </trkpt>
      <trkpt lat="-12.1247930" lon="-76.6198480">
        <ele>1863.0</ele>
        <time>2021-05-30T14:27:51Z</time>
      </trkpt>
      <trkpt lat="-12.1247680" lon="-76.6198660">
        <ele>1863.2</ele>
        <time>2021-05-30T14:27:52Z</time>
      </trkpt>
      <trkpt lat="-12.1247460" lon="-76.6198860">
        <ele>1863.4</ele>
        <time>2021-05-30T14:27:54Z</time>
      </trkpt>
      <trkpt lat="-12.1247110" lon="-76.6199090">
        <ele>1863.6</ele>
        <time>2021-05-30T14:27:56Z</time>
      </trkpt>
      <trkpt lat="-12.1246820" lon="-76.6199240">
        <ele>1863.9</ele>
        <time>2021-05-30T14:27:57Z</time>
      </trkpt>
      <trkpt lat="-12.1246690" lon="-76.6199300">
        <ele>1863.9</ele>
        <time>2021-05-30T14:27:58Z</time>
      </trkpt>
      <trkpt lat="-12.1246450" lon="-76.6199440">
        <ele>1864.1</ele>
        <time>2021-05-30T14:27:59Z</time>
      </trkpt>
      <trkpt lat="-12.1246130" lon="-76.6199570">
        <ele>1864.3</ele>
        <time>2021-05-30T14:28:01Z</time>
      </trkpt>
      <trkpt lat="-12.1245830" lon="-76.6199650">
        <ele>1864.5</ele>
        <time>2021-05-30T14:28:02Z</time>
      </trkpt>
      <trkpt lat="-12.1245410" lon="-76.6199790">
        <ele>1864.8</ele>
        <time>2021-05-30T14:28:04Z</time>
      </trkpt>
      <trkpt lat="-12.1244960" lon="-76.6199840">
        <ele>1865.1</ele>
        <time>2021-05-30T14:28:06Z</time>
      </trkpt>
      <trkpt lat="-12.1244630" lon="-76.6199830">
        <ele>1865.3</ele>
        <time>2021-05-30T14:28:07Z</time>
      </trkpt>
      <trkpt lat="-12.1244440" lon="-76.6199860">
        <ele>1865.4</ele>
        <time>2021-05-30T14:28:08Z</time>
      </trkpt>
      <trkpt lat="-12.1244090" lon="-76.6199910">
        <ele>1865.7</ele>
        <time>2021-05-30T14:28:10Z</time>
      </trkpt>
      <trkpt lat="-12.1243690" lon="-76.6199980">
        <ele>1865.9</ele>
        <time>2021-05-30T14:28:11Z</time>
      </trkpt>
      <trkpt lat="-12.1243520" lon="-76.6200010">
        <ele>1866.0</ele>
        <time>2021-05-30T14:28:12Z</time>
      </trkpt>
      <trkpt lat="-12.1243220" lon="-76.6200040">
        <ele>1866.2</ele>
        <time>2021-05-30T14:28:13Z</time>
      </trkpt>
      <trkpt lat="-12.1242840" lon="-76.6200110">
        <ele>1866.5</ele>
        <time>2021-05-30T14:28:15Z</time>
      </trkpt>
      <trkpt lat="-12.1242730" lon="-76.6200130">
        <ele>1866.6</ele>
        <time>2021-05-30T14:28:16Z</time>
      </trkpt>
      <trkpt lat="-12.1242480" lon="-76.6200140">
        <ele>1866.7</ele>
        <time>2021-05-30T14:28:17Z</time>
      </trkpt>
      <trkpt lat="-12.1242120" lon="-76.6200140">
        <ele>1866.9</ele>
        <time>2021-05-30T14:28:19Z</time>
      </trkpt>
      <trkpt lat="-12.1241750" lon="-76.6200180">
        <ele>1867.2</ele>
        <time>2021-05-30T14:28:20Z</time>
      </trkpt>
      <trkpt lat="-12.1241620" lon="-76.6200190">
        <ele>1867.3</ele>
        <time>2021-05-30T14:28:21Z</time>
      </trkpt>
      <trkpt lat="-12.1241300" lon="-76.6200210">
        <ele>1867.5</ele>
        <time>2021-05-30T14:28:22Z</time>
      </trkpt>
      <trkpt lat="-12.1241210" lon="-76.6200210">
        <ele>1867.5</ele>
        <time>2021-05-30T14:28:23Z</time>
      </trkpt>
      <trkpt lat="-12.1240800" lon="-76.6200210">
        <ele>1867.8</ele>
        <time>2021-05-30T14:28:25Z</time>
      </trkpt>
      <trkpt lat="-12.1240490" lon="-76.6200190">
        <ele>1868.0</ele>
        <time>2021-05-30T14:28:26Z</time>
      </trkpt>
      <trkpt lat="-12.1240160" lon="-76.6200220">
        <ele>1868.2</ele>
        <time>2021-05-30T14:28:28Z</time>
      </trkpt>
      <trkpt lat="-12.1239890" lon="-76.6200250">
        <ele>1868.4</ele>
        <time>2021-05-30T14:28:29Z</time>
      </trkpt>
      <trkpt lat="-12.1239580" lon="-76.6200330">
        <ele>1868.6</ele>
        <time>2021-05-30T14:28:30Z</time>
      </trkpt>
      <trkpt lat="-12.1239500" lon="-76.6200370">
        <ele>1868.6</ele>
        <time>2021-05-30T14:28:31Z</time>
      </trkpt>
      <trkpt lat="-12.1239210" lon="-76.6200550">
        <ele>1868.9</ele>
        <time>2021-05-30T14:28:32Z</time>
      </trkpt>
      <trkpt lat="-12.1239140" lon="-76.6200610">
        <ele>1868.9</ele>
        <time>2021-05-30T14:28:33Z</time>
      </trkpt>
      <trkpt lat="-12.1238940" lon="-76.6200850">
        <ele>1869.1</ele>
        <time>2021-05-30T14:28:35Z</time>
      </trkpt>
      <trkpt lat="-12.1238880" lon="-76.6200920">
        <ele>1869.2</ele>
        <time>2021-05-30T14:28:36Z</time>
      </trkpt>
      <trkpt lat="-12.1238720" lon="-76.6201190">
        <ele>1869.4</ele>
        <time>2021-05-30T14:28:37Z</time>
      </trkpt>
      <trkpt lat="-12.1238670" lon="-76.6201300">
        <ele>1869.4</ele>
        <time>2021-05-30T14:28:38Z</time>
      </trkpt>
      <trkpt lat="-12.1238620" lon="-76.6201450">
        <ele>1869.5</ele>
        <time>2021-05-30T14:28:39Z</time>
      </trkpt>
      <trkpt lat="-12.1238530" lon="-76.6201610">
        <ele>1869.7</ele>
        <time>2021-05-30T14:28:40Z</time>
      </trkpt>
      <trkpt lat="-12.1238420" lon="-76.6201820">
        <ele>1869.8</ele>
        <time>2021-05-30T14:28:42Z</time>
      </trkpt>
      <trkpt lat="-12.1238300" lon="-76.6202090">
        <ele>1870.0</ele>
        <time>2021-05-30T14:28:44Z</time>
      </trkpt>
      <trkpt lat="-12.1238240" lon="-76.6202240">
        <ele>1870.1</ele>
        <time>2021-05-30T14:28:45Z</time>
      </trkpt>
      <trkpt lat="-12.1238210" lon="-76.6202430">
        <ele>1870.2</ele>
        <time>2021-05-30T14:28:46Z</time>
      </trkpt>
      <trkpt lat="-12.1238150" lon="-76.6202730">
        <ele>1870.4</ele>
        <time>2021-05-30T14:28:48Z</time>
      </trkpt>
      <trkpt lat="-12.1238110" lon="-76.6202820">
        <ele>1870.5</ele>
        <time>2021-05-30T14:28:49Z</time>
      </trkpt>
      <trkpt lat="-12.1238050" lon="-76.6203170">
        <ele>1870.7</ele>
        <time>2021-05-30T14:28:50Z</time>
      </trkpt>
      <trkpt lat="-12.1238020" lon="-76.6203300">
        <ele>1870.8</ele>
        <time>2021-05-30T14:28:51Z</time>
      </trkpt>
      <trkpt lat="-12.1238010" lon="-76.6203510">
        <ele>1870.9</ele>
        <time>2021-05-30T14:28:52Z</time>
      </trkpt>
      <trkpt lat="-12.1238060" lon="-76.6203830">
        <ele>1871.1</ele>
        <time>2021-05-30T14:28:54Z</time>
      </trkpt>
      <trkpt lat="-12.1238010" lon="-76.6204170">
        <ele>1871.3</ele>
        <time>2021-05-30T14:28:56Z</time>
      </trkpt>
      <trkpt lat="-12.1237940" lon="-76.6204470">
        <ele>1871.5</ele>
        <time>2021-05-30T14:28:58Z</time>
      </trkpt>
      <trkpt lat="-12.1237820" lon="-76.6204860">
        <ele>1871.8</ele>
        <time>2021-05-30T14:29:00Z</time>
      </trkpt>
      <trkpt lat="-12.1237720" lon="-76.6205070">
        <ele>1871.9</ele>
        <time>2021-05-30T14:29:01Z</time>
      </trkpt>
      <trkpt lat="-12.1237520" lon="-76.6205460">
        <ele>1872.2</ele>
        <time>2021-05-30T14:29:03Z</time>
      </trkpt>
      <trkpt lat="-12.1237320" lon="-76.6205770">
        <ele>1872.4</ele>
        <time>2021-05-30T14:29:04Z</time>
      </trkpt>
      <trkpt lat="-12.1237220" lon="-76.6205910">
        <ele>1872.5</ele>
        <time>2021-05-30T14:29:05Z</time>
      </trkpt>
      <trkpt lat="-12.1236870" lon="-76.6206370">
        <ele>1872.9</ele>
        <time>2021-05-30T14:29:07Z</time>
      </trkpt>
      <trkpt lat="-12.1236720" lon="-76.6206550">
        <ele>1873.0</ele>
        <time>2021-05-30T14:29:08Z</time>
      </trkpt>
      <trkpt lat="-12.1236560" lon="-76.6206730">
        <ele>1873.2</ele>
        <time>2021-05-30T14:29:09Z</time>
      </trkpt>
      <trkpt lat="-12.1236220" lon="-76.6207120">
        <ele>1873.5</ele>
        <time>2021-05-30T14:29:12Z</time>
      </trkpt>
      <trkpt lat="-12.1235990" lon="-76.6207380">
        <ele>1873.7</ele>
        <time>2021-05-30T14:29:13Z</time>
      </trkpt>
      <trkpt lat="-12.1235660" lon="-76.6207750">
        <ele>1874.1</ele>
        <time>2021-05-30T14:29:14Z</time>
      </trkpt>
      <trkpt lat="-12.1235390" lon="-76.6208030">
        <ele>1874.3</ele>
        <time>2021-05-30T14:29:16Z</time>
      </trkpt>
      <trkpt lat="-12.1235300" lon="-76.6208110">
        <ele>1874.4</ele>
        <time>2021-05-30T14:29:17Z</time>
      </trkpt>
      <trkpt lat="-12.1235020" lon="-76.6208480">
        <ele>1874.7</ele>
        <time>2021-05-30T14:29:19Z</time>
      </trkpt>
      <trkpt lat="-12.1234740" lon="-76.6208970">
        <ele>1875.0</ele>
        <time>2021-05-30T14:29:21Z</time>
      </trkpt>
      <trkpt lat="-12.1234520" lon="-76.6209300">
        <ele>1875.3</ele>
        <time>2021-05-30T14:29:22Z</time>
      </trkpt>
      <trkpt lat="-12.1234310" lon="-76.6209610">
        <ele>1875.5</ele>
        <time>2021-05-30T14:29:23Z</time>
      </trkpt>
      <trkpt lat="-12.1234030" lon="-76.6209980">
        <ele>1875.8</ele>
        <time>2021-05-30T14:29:25Z</time>
      </trkpt>
      <trkpt lat="-12.1233780" lon="-76.6210230">
        <ele>1876.0</ele>
        <time>2021-05-30T14:29:26Z</time>
      </trkpt>
      <trkpt lat="-12.1233460" lon="-76.6210520">
        <ele>1876.3</ele>
        <time>2021-05-30T14:29:27Z</time>
      </trkpt>
      <trkpt lat="-12.1233170" lon="-76.6210800">
        <ele>1876.6</ele>
        <time>2021-05-30T14:29:28Z</time>
      </trkpt>
      <trkpt lat="-12.1232890" lon="-76.6211040">
        <ele>1876.8</ele>
        <time>2021-05-30T14:29:30Z</time>
      </trkpt>
      <trkpt lat="-12.1232540" lon="-76.6211410">
        <ele>1877.1</ele>
        <time>2021-05-30T14:29:32Z</time>
      </trkpt>
      <trkpt lat="-12.1232230" lon="-76.6211760">
        <ele>1877.4</ele>
        <time>2021-05-30T14:29:33Z</time>
      </trkpt>
      <trkpt lat="-12.1232100" lon="-76.6211920">
        <ele>1877.5</ele>
        <time>2021-05-30T14:29:34Z</time>
      </trkpt>
      <trkpt lat="-12.1231870" lon="-76.6212270">
        <ele>1877.8</ele>
        <time>2021-05-30T14:29:36Z</time>
      </trkpt>
      <trkpt lat="-12.1231760" lon="-76.6212450">
        <ele>1877.9</ele>
        <time>2021-05-30T14:29:37Z</time>
      </trkpt>
      <trkpt lat="-12.1231490" lon="-76.6212950">
        <ele>1878.3</ele>
        <time>2021-05-30T14:29:40Z</time>
      </trkpt>
      <trkpt lat="-12.1231320" lon="-76.6213260">
        <ele>1878.5</ele>
        <time>2021-05-30T14:29:41Z</time>
      </trkpt>
      <trkpt lat="-12.1231170" lon="-76.6213560">
        <ele>1878.7</ele>
        <time>2021-05-30T14:29:42Z</time>
      </trkpt>
      <trkpt lat="-12.1231010" lon="-76.6213850">
        <ele>1878.9</ele>
        <time>2021-05-30T14:29:43Z</time>
      </trkpt>
      <trkpt lat="-12.1230820" lon="-76.6214170">
        <ele>1879.2</ele>
        <time>2021-05-30T14:29:44Z</time>
      </trkpt>
      <trkpt lat="-12.1230540" lon="-76.6214560">
        <ele>1879.5</ele>
        <time>2021-05-30T14:29:45Z</time>
      </trkpt>
      <trkpt lat="-12.1230280" lon="-76.6215020">
        <ele>1879.8</ele>
        <time>2021-05-30T14:29:47Z</time>
      </trkpt>
      <trkpt lat="-12.1230070" lon="-76.6215310">
        <ele>1880.0</ele>
        <time>2021-05-30T14:29:48Z</time>
      </trkpt>
      <trkpt lat="-12.1229780" lon="-76.6215710">
        <ele>1880.3</ele>
        <time>2021-05-30T14:29:50Z</time>
      </trkpt>
      <trkpt lat="-12.1229540" lon="-76.6215960">
        <ele>1880.6</ele>
        <time>2021-05-30T14:29:51Z</time>
      </trkpt>
      <trkpt lat="-12.1229140" lon="-76.6216210">
        <ele>1880.9</ele>
        <time>2021-05-30T14:29:52Z</time>
      </trkpt>
      <trkpt lat="-12.1228740" lon="-76.6216460">
        <ele>1881.2</ele>
        <time>2021-05-30T14:29:54Z</time>
      </trkpt>
      <trkpt lat="-12.1228380" lon="-76.6216620">
        <ele>1881.4</ele>
        <time>2021-05-30T14:29:55Z</time>
      </trkpt>
      <trkpt lat="-12.1228030" lon="-76.6216800">
        <ele>1881.7</ele>
        <time>2021-05-30T14:29:56Z</time>
      </trkpt>
      <trkpt lat="-12.1227670" lon="-76.6217010">
        <ele>1881.9</ele>
        <time>2021-05-30T14:29:58Z</time>
      </trkpt>
      <trkpt lat="-12.1227330" lon="-76.6217310">
        <ele>1882.2</ele>
        <time>2021-05-30T14:30:00Z</time>
      </trkpt>
      <trkpt lat="-12.1227140" lon="-76.6217510">
        <ele>1882.4</ele>
        <time>2021-05-30T14:30:01Z</time>
      </trkpt>
      <trkpt lat="-12.1226860" lon="-76.6217760">
        <ele>1882.6</ele>
        <time>2021-05-30T14:30:02Z</time>
      </trkpt>
      <trkpt lat="-12.1226750" lon="-76.6217850">
        <ele>1882.7</ele>
        <time>2021-05-30T14:30:03Z</time>
      </trkpt>
      <trkpt lat="-12.1226520" lon="-76.6218000">
        <ele>1882.9</ele>
        <time>2021-05-30T14:30:04Z</time>
      </trkpt>
      <trkpt lat="-12.1226230" lon="-76.6218150">
        <ele>1883.1</ele>
        <time>2021-05-30T14:30:05Z</time>
      </trkpt>
      <trkpt lat="-12.1225980" lon="-76.6218280">
        <ele>1883.3</ele>
        <time>2021-05-30T14:30:07Z</time>
      </trkpt>
      <trkpt lat="-12.1225670" lon="-76.6218370">
        <ele>1883.5</ele>
        <time>2021-05-30T14:30:08Z</time>
      </trkpt>
      <trkpt lat="-12.1225380" lon="-76.6218370">
        <ele>1883.7</ele>
        <time>2021-05-30T14:30:09Z</time>
      </trkpt>
      <trkpt lat="-12.1225180" lon="-76.6218340">
        <ele>1883.8</ele>
        <time>2021-05-30T14:30:10Z</time>
      </trkpt>
      <trkpt lat="-12.1225000" lon="-76.6218270">
        <ele>1883.9</ele>
        <time>2021-05-30T14:30:12Z</time>
      </trkpt>
      <trkpt lat="-12.1224690" lon="-76.6217950">
        <ele>1884.2</ele>
        <time>2021-05-30T14:30:14Z</time>
      </trkpt>
      <trkpt lat="-12.1224640" lon="-76.6217810">
        <ele>1884.3</ele>
        <time>2021-05-30T14:30:15Z</time>
      </trkpt>
      <trkpt lat="-12.1224590" lon="-76.6217660">
        <ele>1884.4</ele>
        <time>2021-05-30T14:30:16Z</time>
      </trkpt>
      <trkpt lat="-12.1224680" lon="-76.6217470">
        <ele>1884.5</ele>
        <time>2021-05-30T14:30:17Z</time>
      </trkpt>
      <trkpt lat="-12.1224850" lon="-76.6217290">
        <ele>1884.7</ele>
        <time>2021-05-30T14:30:19Z</time>
      </trkpt>
      <trkpt lat="-12.1225000" lon="-76.6217200">
        <ele>1884.8</ele>
        <time>2021-05-30T14:30:20Z</time>
      </trkpt>
      <trkpt lat="-12.1225160" lon="-76.6217120">
        <ele>1884.9</ele>
        <time>2021-05-30T14:30:21Z</time>
      </trkpt>
      <trkpt lat="-12.1225440" lon="-76.6217040">
        <ele>1885.1</ele>
        <time>2021-05-30T14:30:22Z</time>
      </trkpt>
      <trkpt lat="-12.1225920" lon="-76.6216910">
        <ele>1885.4</ele>
        <time>2021-05-30T14:30:24Z</time>
      </trkpt>
      <trkpt lat="-12.1226110" lon="-76.6216830">
        <ele>1885.5</ele>
        <time>2021-05-30T14:30:25Z</time>
      </trkpt>
      <trkpt lat="-12.1226310" lon="-76.6216740">
        <ele>1885.7</ele>
        <time>2021-05-30T14:30:26Z</time>
      </trkpt>
      <trkpt lat="-12.1226550" lon="-76.6216580">
        <ele>1885.9</ele>
        <time>2021-05-30T14:30:27Z</time>
      </trkpt>
      <trkpt lat="-12.1226770" lon="-76.6216430">
        <ele>1886.0</ele>
        <time>2021-05-30T14:30:28Z</time>
      </trkpt>
      <trkpt lat="-12.1227000" lon="-76.6216250">
        <ele>1886.2</ele>
        <time>2021-05-30T14:30:29Z</time>
      </trkpt>
      <trkpt lat="-12.1227310" lon="-76.6216040">
        <ele>1886.5</ele>
        <time>2021-05-30T14:30:31Z</time>
      </trkpt>
      <trkpt lat="-12.1227690" lon="-76.6215770">
        <ele>1886.7</ele>
        <time>2021-05-30T14:30:32Z</time>
      </trkpt>
      <trkpt lat="-12.1228000" lon="-76.6215560">
        <ele>1887.0</ele>
        <time>2021-05-30T14:30:33Z</time>
      </trkpt>
      <trkpt lat="-12.1228240" lon="-76.6215330">
        <ele>1887.2</ele>
        <time>2021-05-30T14:30:35Z</time>
      </trkpt>
      <trkpt lat="-12.1228500" lon="-76.6215030">
        <ele>1887.4</ele>
        <time>2021-05-30T14:30:36Z</time>
      </trkpt>
      <trkpt lat="-12.1228740" lon="-76.6214670">
        <ele>1887.7</ele>
        <time>2021-05-30T14:30:37Z</time>
      </trkpt>
      <trkpt lat="-12.1228910" lon="-76.6214380">
        <ele>1887.9</ele>
        <time>2021-05-30T14:30:38Z</time>
      </trkpt>
      <trkpt lat="-12.1229190" lon="-76.6213950">
        <ele>1888.3</ele>
        <time>2021-05-30T14:30:40Z</time>
      </trkpt>
      <trkpt lat="-12.1229350" lon="-76.6213750">
        <ele>1888.4</ele>
        <time>2021-05-30T14:30:41Z</time>
      </trkpt>
      <trkpt lat="-12.1229590" lon="-76.6213430">
        <ele>1888.7</ele>
        <time>2021-05-30T14:30:43Z</time>
      </trkpt>
      <trkpt lat="-12.1229820" lon="-76.6213150">
        <ele>1888.9</ele>
        <time>2021-05-30T14:30:44Z</time>
      </trkpt>
      <trkpt lat="-12.1230060" lon="-76.6212780">
        <ele>1889.2</ele>
        <time>2021-05-30T14:30:46Z</time>
      </trkpt>
      <trkpt lat="-12.1230260" lon="-76.6212490">
        <ele>1889.4</ele>
        <time>2021-05-30T14:30:47Z</time>
      </trkpt>
      <trkpt lat="-12.1230430" lon="-76.6212190">
        <ele>1889.6</ele>
        <time>2021-05-30T14:30:49Z</time>
      </trkpt>
      <trkpt lat="-12.1230570" lon="-76.6211810">
        <ele>1889.9</ele>
        <time>2021-05-30T14:30:50Z</time>
      </trkpt>
      <trkpt lat="-12.1230740" lon="-76.6211370">
        <ele>1890.2</ele>
        <time>2021-05-30T14:30:51Z</time>
      </trkpt>
      <trkpt lat="-12.1230870" lon="-76.6211050">
        <ele>1890.4</ele>
        <time>2021-05-30T14:30:53Z</time>
      </trkpt>
      <trkpt lat="-12.1231000" lon="-76.6210780">
        <ele>1890.6</ele>
        <time>2021-05-30T14:30:54Z</time>
      </trkpt>
      <trkpt lat="-12.1231140" lon="-76.6210470">
        <ele>1890.8</ele>
        <time>2021-05-30T14:30:55Z</time>
      </trkpt>
      <trkpt lat="-12.1231320" lon="-76.6209990">
        <ele>1891.1</ele>
        <time>2021-05-30T14:30:57Z</time>
      </trkpt>
      <trkpt lat="-12.1231350" lon="-76.6209770">
        <ele>1891.2</ele>
        <time>2021-05-30T14:30:58Z</time>
      </trkpt>
      <trkpt lat="-12.1231410" lon="-76.6209530">
        <ele>1891.4</ele>
        <time>2021-05-30T14:31:00Z</time>
      </trkpt>
      <trkpt lat="-12.1231530" lon="-76.6209160">
        <ele>1891.6</ele>
        <time>2021-05-30T14:31:01Z</time>
      </trkpt>
      <trkpt lat="-12.1231580" lon="-76.6209040">
        <ele>1891.7</ele>
        <time>2021-05-30T14:31:02Z</time>
      </trkpt>
      <trkpt lat="-12.1231740" lon="-76.6208630">
        <ele>1892.0</ele>
        <time>2021-05-30T14:31:03Z</time>
      </trkpt>
      <trkpt lat="-12.1231800" lon="-76.6208480">
        <ele>1892.1</ele>
        <time>2021-05-30T14:31:04Z</time>
      </trkpt>
      <trkpt lat="-12.1232000" lon="-76.6207850">
        <ele>1892.5</ele>
        <time>2021-05-30T14:31:06Z</time>
      </trkpt>
      <trkpt lat="-12.1232150" lon="-76.6207450">
        <ele>1892.8</ele>
        <time>2021-05-30T14:31:08Z</time>
      </trkpt>
      <trkpt lat="-12.1232320" lon="-76.6207120">
        <ele>1893.0</ele>
        <time>2021-05-30T14:31:09Z</time>
      </trkpt>
      <trkpt lat="-12.1232520" lon="-76.6206920">
        <ele>1893.2</ele>
        <time>2021-05-30T14:31:10Z</time>
      </trkpt>
      <trkpt lat="-12.1232720" lon="-76.6206710">
        <ele>1893.4</ele>
        <time>2021-05-30T14:31:11Z</time>
      </trkpt>
      <trkpt lat="-12.1233130" lon="-76.6206460">
        <ele>1893.7</ele>
        <time>2021-05-30T14:31:13Z</time>
      </trkpt>
      <trkpt lat="-12.1233260" lon="-76.6206380">
        <ele>1893.8</ele>
        <time>2021-05-30T14:31:14Z</time>
      </trkpt>
      <trkpt lat="-12.1233380" lon="-76.6206300">
        <ele>1893.9</ele>
        <time>2021-05-30T14:31:15Z</time>
      </trkpt>
      <trkpt lat="-12.1233720" lon="-76.6206060">
        <ele>1894.1</ele>
        <time>2021-05-30T14:31:16Z</time>
      </trkpt>
      <trkpt lat="-12.1233840" lon="-76.6205950">
        <ele>1894.2</ele>
        <time>2021-05-30T14:31:17Z</time>
      </trkpt>
      <trkpt lat="-12.1234080" lon="-76.6205720">
        <ele>1894.4</ele>
        <time>2021-05-30T14:31:19Z</time>
      </trkpt>
      <trkpt lat="-12.1234290" lon="-76.6205450">
        <ele>1894.7</ele>
        <time>2021-05-30T14:31:20Z</time>
      </trkpt>
      <trkpt lat="-12.1234530" lon="-76.6205080">
        <ele>1894.9</ele>
        <time>2021-05-30T14:31:22Z</time>
      </trkpt>
      <trkpt lat="-12.1234600" lon="-76.6204920">
        <ele>1895.1</ele>
        <time>2021-05-30T14:31:23Z</time>
      </trkpt>
      <trkpt lat="-12.1234730" lon="-76.6204500">
        <ele>1895.3</ele>
        <time>2021-05-30T14:31:25Z</time>
      </trkpt>
      <trkpt lat="-12.1234760" lon="-76.6204350">
        <ele>1895.4</ele>
        <time>2021-05-30T14:31:26Z</time>
      </trkpt>
      <trkpt lat="-12.1234790" lon="-76.6204190">
        <ele>1895.5</ele>
        <time>2021-05-30T14:31:27Z</time>
      </trkpt>
      <trkpt lat="-12.1234850" lon="-76.6203870">
        <ele>1895.7</ele>
        <time>2021-05-30T14:31:28Z</time>
      </trkpt>
      <trkpt lat="-12.1234880" lon="-76.6203750">
        <ele>1895.8</ele>
        <time>2021-05-30T14:31:29Z</time>
      </trkpt>
      <trkpt lat="-12.1234990" lon="-76.6203250">
        <ele>1896.1</ele>
        <time>2021-05-30T14:31:31Z</time>
      </trkpt>
      <trkpt lat="-12.1235000" lon="-76.6203050">
        <ele>1896.3</ele>
        <time>2021-05-30T14:31:32Z</time>
      </trkpt>
      <trkpt lat="-12.1235020" lon="-76.6202860">
        <ele>1896.4</ele>
        <time>2021-05-30T14:31:33Z</time>
      </trkpt>
      <trkpt lat="-12.1235030" lon="-76.6202510">
        <ele>1896.6</ele>
        <time>2021-05-30T14:31:35Z</time>
      </trkpt>
      <trkpt lat="-12.1235060" lon="-76.6202060">
        <ele>1896.9</ele>
        <time>2021-05-30T14:31:36Z</time>
      </trkpt>
      <trkpt lat="-12.1235060" lon="-76.6201790">
        <ele>1897.0</ele>
        <time>2021-05-30T14:31:37Z</time>
      </trkpt>
      <trkpt lat="-12.1235060" lon="-76.6201480">
        <ele>1897.2</ele>
        <time>2021-05-30T14:31:39Z</time>
      </trkpt>
      <trkpt lat="-12.1235060" lon="-76.6201110">
        <ele>1897.5</ele>
        <time>2021-05-30T14:31:40Z</time>
      </trkpt>
      <trkpt lat="-12.1235000" lon="-76.6200840">
        <ele>1897.6</ele>
        <time>2021-05-30T14:31:41Z</time>
      </trkpt>
      <trkpt lat="-12.1234980" lon="-76.6200630">
        <ele>1897.8</ele>
        <time>2021-05-30T14:31:42Z</time>
      </trkpt>
      <trkpt lat="-12.1234950" lon="-76.6200380">
        <ele>1897.9</ele>
        <time>2021-05-30T14:31:44Z</time>
      </trkpt>
      <trkpt lat="-12.1234910" lon="-76.6200070">
        <ele>1898.1</ele>
        <time>2021-05-30T14:31:45Z</time>
      </trkpt>
      <trkpt lat="-12.1234870" lon="-76.6199750">
        <ele>1898.3</ele>
        <time>2021-05-30T14:31:46Z</time>
      </trkpt>
      <trkpt lat="-12.1234810" lon="-76.6199480">
        <ele>1898.5</ele>
        <time>2021-05-30T14:31:47Z</time>
      </trkpt>
      <trkpt lat="-12.1234730" lon="-76.6199120">
        <ele>1898.7</ele>
        <time>2021-05-30T14:31:49Z</time>
      </trkpt>
      <trkpt lat="-12.1234720" lon="-76.6199000">
        <ele>1898.8</ele>
        <time>2021-05-30T14:31:50Z</time>
      </trkpt>
      <trkpt lat="-12.1234690" lon="-76.6198750">
        <ele>1899.0</ele>
        <time>2021-05-30T14:31:51Z</time>
      </trkpt>
      <trkpt lat="-12.1234640" lon="-76.6198520">
        <ele>1899.1</ele>
        <time>2021-05-30T14:31:53Z</time>
      </trkpt>
      <trkpt lat="-12.1234570" lon="-76.6198240">
        <ele>1899.3</ele>
        <time>2021-05-30T14:31:54Z</time>
      </trkpt>
      <trkpt lat="-12.1234560" lon="-76.6198110">
        <ele>1899.4</ele>
        <time>2021-05-30T14:31:55Z</time>
      </trkpt>
      <trkpt lat="-12.1234590" lon="-76.6197850">
        <ele>1899.5</ele>
        <time>2021-05-30T14:31:57Z</time>
      </trkpt>
      <trkpt lat="-12.1234650" lon="-76.6197470">
        <ele>1899.8</ele>
        <time>2021-05-30T14:31:59Z</time>
      </trkpt>
      <trkpt lat="-12.1234680" lon="-76.6197330">
        <ele>1899.9</ele>
        <time>2021-05-30T14:32:00Z</time>
      </trkpt>
      <trkpt lat="-12.1234710" lon="-76.6196990">
        <ele>1900.1</ele>
        <time>2021-05-30T14:32:02Z</time>
      </trkpt>
      <trkpt lat="-12.1234710" lon="-76.6196870">
        <ele>1900.2</ele>
        <time>2021-05-30T14:32:03Z</time>
      </trkpt>
      <trkpt lat="-12.1234740" lon="-76.6196510">
        <ele>1900.4</ele>
        <time>2021-05-30T14:32:04Z</time>
      </trkpt>
      <trkpt lat="-12.1234750" lon="-76.6196400">
        <ele>1900.5</ele>
        <time>2021-05-30T14:32:05Z</time>
      </trkpt>
      <trkpt lat="-12.1234790" lon="-76.6196240">
        <ele>1900.6</ele>
        <time>2021-05-30T14:32:06Z</time>
      </trkpt>
      <trkpt lat="-12.1234890" lon="-76.6196030">
        <ele>1900.7</ele>
        <time>2021-05-30T14:32:08Z</time>
      </trkpt>
      <trkpt lat="-12.1235090" lon="-76.6195800">
        <ele>1900.9</ele>
        <time>2021-05-30T14:32:09Z</time>
      </trkpt>
      <trkpt lat="-12.1235240" lon="-76.6195560">
        <ele>1901.1</ele>
        <time>2021-05-30T14:32:11Z</time>
      </trkpt>
      <trkpt lat="-12.1235290" lon="-76.6195480">
        <ele>1901.1</ele>
        <time>2021-05-30T14:32:12Z</time>
      </trkpt>
      <trkpt lat="-12.1235360" lon="-76.6195210">
        <ele>1901.3</ele>
        <time>2021-05-30T14:32:13Z</time>
      </trkpt>
      <trkpt lat="-12.1235480" lon="-76.6194850">
        <ele>1901.5</ele>
        <time>2021-05-30T14:32:15Z</time>
      </trkpt>
      <trkpt lat="-12.1235520" lon="-76.6194740">
        <ele>1901.6</ele>
        <time>2021-05-30T14:32:16Z</time>
      </trkpt>
      <trkpt lat="-12.1235630" lon="-76.6194510">
        <ele>1901.8</ele>
        <time>2021-05-30T14:32:17Z</time>
      </trkpt>
      <trkpt lat="-12.1235810" lon="-76.6194270">
        <ele>1902.0</ele>
        <time>2021-05-30T14:32:19Z</time>
      </trkpt>
      <trkpt lat="-12.1236190" lon="-76.6193980">
        <ele>1902.3</ele>
        <time>2021-05-30T14:32:21Z</time>
      </trkpt>
      <trkpt lat="-12.1236350" lon="-76.6193910">
        <ele>1902.4</ele>
        <time>2021-05-30T14:32:22Z</time>
      </trkpt>
      <trkpt lat="-12.1236500" lon="-76.6193830">
        <ele>1902.5</ele>
        <time>2021-05-30T14:32:23Z</time>
      </trkpt>
      <trkpt lat="-12.1236880" lon="-76.6193830">
        <ele>1902.7</ele>
        <time>2021-05-30T14:32:25Z</time>
      </trkpt>
      <trkpt lat="-12.1237250" lon="-76.6194090">
        <ele>1903.0</ele>
        <time>2021-05-30T14:32:27Z</time>
      </trkpt>
      <trkpt lat="-12.1237540" lon="-76.6194210">
        <ele>1903.2</ele>
        <time>2021-05-30T14:32:28Z</time>
      </trkpt>
      <trkpt lat="-12.1237820" lon="-76.6194300">
        <ele>1903.4</ele>
        <time>2021-05-30T14:32:29Z</time>
      </trkpt>
      <trkpt lat="-12.1238200" lon="-76.6194350">
        <ele>1903.7</ele>
        <time>2021-05-30T14:32:30Z</time>
      </trkpt>
      <trkpt lat="-12.1238740" lon="-76.6194410">
        <ele>1904.0</ele>
        <time>2021-05-30T14:32:33Z</time>
      </trkpt>
      <trkpt lat="-12.1239030" lon="-76.6194430">
        <ele>1904.2</ele>
        <time>2021-05-30T14:32:34Z</time>
      </trkpt>
      <trkpt lat="-12.1239350" lon="-76.6194400">
        <ele>1904.4</ele>
        <time>2021-05-30T14:32:35Z</time>
      </trkpt>
      <trkpt lat="-12.1239780" lon="-76.6194370">
        <ele>1904.7</ele>
        <time>2021-05-30T14:32:37Z</time>
      </trkpt>
      <trkpt lat="-12.1239940" lon="-76.6194370">
        <ele>1904.8</ele>
        <time>2021-05-30T14:32:38Z</time>
      </trkpt>
      <trkpt lat="-12.1240100" lon="-76.6194360">
        <ele>1904.9</ele>
        <time>2021-05-30T14:32:39Z</time>
      </trkpt>
      <trkpt lat="-12.1240390" lon="-76.6194330">
        <ele>1905.1</ele>
        <time>2021-05-30T14:32:40Z</time>
      </trkpt>
      <trkpt lat="-12.1240600" lon="-76.6194250">
        <ele>1905.2</ele>
        <time>2021-05-30T14:32:41Z</time>
      </trkpt>
      <trkpt lat="-12.1240830" lon="-76.6194140">
        <ele>1905.4</ele>
        <time>2021-05-30T14:32:43Z</time>
      </trkpt>
      <trkpt lat="-12.1241210" lon="-76.6193960">
        <ele>1905.6</ele>
        <time>2021-05-30T14:32:44Z</time>
      </trkpt>
      <trkpt lat="-12.1241560" lon="-76.6193780">
        <ele>1905.9</ele>
        <time>2021-05-30T14:32:46Z</time>
      </trkpt>
      <trkpt lat="-12.1241730" lon="-76.6193680">
        <ele>1906.0</ele>
        <time>2021-05-30T14:32:47Z</time>
      </trkpt>
      <trkpt lat="-12.1242010" lon="-76.6193570">
        <ele>1906.2</ele>
        <time>2021-05-30T14:32:49Z</time>
      </trkpt>
      <trkpt lat="-12.1242320" lon="-76.6193400">
        <ele>1906.4</ele>
        <time>2021-05-30T14:32:50Z</time>
      </trkpt>
      <trkpt lat="-12.1242420" lon="-76.6193330">
        <ele>1906.5</ele>
        <time>2021-05-30T14:32:51Z</time>
      </trkpt>
      <trkpt lat="-12.1242690" lon="-76.6193140">
        <ele>1906.7</ele>
        <time>2021-05-30T14:32:53Z</time>
      </trkpt>
      <trkpt lat="-12.1242970" lon="-76.6192920">
        <ele>1906.9</ele>
        <time>2021-05-30T14:32:54Z</time>
      </trkpt>
      <trkpt lat="-12.1243220" lon="-76.6192760">
        <ele>1907.1</ele>
        <time>2021-05-30T14:32:55Z</time>
      </trkpt>
      <trkpt lat="-12.1243370" lon="-76.6192650">
        <ele>1907.2</ele>
        <time>2021-05-30T14:32:56Z</time>
      </trkpt>
      <trkpt lat="-12.1243750" lon="-76.6192540">
        <ele>1907.5</ele>
        <time>2021-05-30T14:32:58Z</time>
      </trkpt>
      <trkpt lat="-12.1243980" lon="-76.6192420">
        <ele>1907.7</ele>
        <time>2021-05-30T14:32:59Z</time>
      </trkpt>
      <trkpt lat="-12.1244170" lon="-76.6192280">
        <ele>1907.8</ele>
        <time>2021-05-30T14:33:01Z</time>
      </trkpt>
      <trkpt lat="-12.1244470" lon="-76.6192020">
        <ele>1908.1</ele>
        <time>2021-05-30T14:33:03Z</time>
      </trkpt>
      <trkpt lat="-12.1244750" lon="-76.6191850">
        <ele>1908.3</ele>
        <time>2021-05-30T14:33:04Z</time>
      </trkpt>
      <trkpt lat="-12.1244810" lon="-76.6191780">
        <ele>1908.3</ele>
        <time>2021-05-30T14:33:05Z</time>
      </trkpt>
      <trkpt lat="-12.1245030" lon="-76.6191560">
        <ele>1908.5</ele>
        <time>2021-05-30T14:33:06Z</time>
      </trkpt>
      <trkpt lat="-12.1245090" lon="-76.6191470">
        <ele>1908.6</ele>
        <time>2021-05-30T14:33:07Z</time>
      </trkpt>
      <trkpt lat="-12.1245280" lon="-76.6191170">
        <ele>1908.8</ele>
        <time>2021-05-30T14:33:09Z</time>
      </trkpt>
      <trkpt lat="-12.1245350" lon="-76.6191060">
        <ele>1908.9</ele>
        <time>2021-05-30T14:33:10Z</time>
      </trkpt>
      <trkpt lat="-12.1245460" lon="-76.6190800">
        <ele>1909.1</ele>
        <time>2021-05-30T14:33:12Z</time>
      </trkpt>
      <trkpt lat="-12.1245530" lon="-76.6190620">
        <ele>1909.2</ele>
        <time>2021-05-30T14:33:13Z</time>
      </trkpt>
      <trkpt lat="-12.1245590" lon="-76.6190480">
        <ele>1909.3</ele>
        <time>2021-05-30T14:33:14Z</time>
      </trkpt>
      <trkpt lat="-12.1245730" lon="-76.6190170">
        <ele>1909.5</ele>
        <time>2021-05-30T14:33:15Z</time>
      </trkpt>
      <trkpt lat="-12.1245790" lon="-76.6190010">
        <ele>1909.6</ele>
        <time>2021-05-30T14:33:16Z</time>
      </trkpt>
      <trkpt lat="-12.1245890" lon="-76.6189610">
        <ele>1909.9</ele>
        <time>2021-05-30T14:33:18Z</time>
      </trkpt>
      <trkpt lat="-12.1245920" lon="-76.6189460">
        <ele>1910.0</ele>
        <time>2021-05-30T14:33:19Z</time>
      </trkpt>
      <trkpt lat="-12.1245980" lon="-76.6188980">
        <ele>1910.3</ele>
        <time>2021-05-30T14:33:21Z</time>
      </trkpt>
      <trkpt lat="-12.1245990" lon="-76.6188800">
        <ele>1910.4</ele>
        <time>2021-05-30T14:33:22Z</time>
      </trkpt>
      <trkpt lat="-12.1246010" lon="-76.6188630">
        <ele>1910.5</ele>
        <time>2021-05-30T14:33:23Z</time>
      </trkpt>
      <trkpt lat="-12.1246040" lon="-76.6188400">
        <ele>1910.6</ele>
        <time>2021-05-30T14:33:24Z</time>
      </trkpt>
      <trkpt lat="-12.1246120" lon="-76.6188160">
        <ele>1910.8</ele>
        <time>2021-05-30T14:33:26Z</time>
      </trkpt>
      <trkpt lat="-12.1246270" lon="-76.6187860">
        <ele>1911.0</ele>
        <time>2021-05-30T14:33:27Z</time>
      </trkpt>
      <trkpt lat="-12.1246330" lon="-76.6187750">
        <ele>1911.0</ele>
        <time>2021-05-30T14:33:28Z</time>
      </trkpt>
      <trkpt lat="-12.1246540" lon="-76.6187500">
        <ele>1911.3</ele>
        <time>2021-05-30T14:33:30Z</time>
      </trkpt>
      <trkpt lat="-12.1246620" lon="-76.6187460">
        <ele>1911.4</ele>
        <time>2021-05-30T14:33:31Z</time>
      </trkpt>
      <trkpt lat="-12.1246810" lon="-76.6187400">
        <ele>1911.6</ele>
        <time>2021-05-30T14:33:32Z</time>
      </trkpt>
      <trkpt lat="-12.1247000" lon="-76.6187360">
        <ele>1911.7</ele>
        <time>2021-05-30T14:33:34Z</time>
      </trkpt>
      <trkpt lat="-12.1247290" lon="-76.6187260">
        <ele>1912.0</ele>
        <time>2021-05-30T14:33:35Z</time>
      </trkpt>
      <trkpt lat="-12.1247540" lon="-76.6187170">
        <ele>1912.2</ele>
        <time>2021-05-30T14:33:36Z</time>
      </trkpt>
      <trkpt lat="-12.1247830" lon="-76.6187010">
        <ele>1912.5</ele>
        <time>2021-05-30T14:33:38Z</time>
      </trkpt>
      <trkpt lat="-12.1248050" lon="-76.6186950">
        <ele>1912.7</ele>
        <time>2021-05-30T14:33:39Z</time>
      </trkpt>
      <trkpt lat="-12.1248530" lon="-76.6186790">
        <ele>1913.1</ele>
        <time>2021-05-30T14:33:41Z</time>
      </trkpt>
      <trkpt lat="-12.1248910" lon="-76.6186660">
        <ele>1913.4</ele>
        <time>2021-05-30T14:33:42Z</time>
      </trkpt>
      <trkpt lat="-12.1249040" lon="-76.6186610">
        <ele>1913.5</ele>
        <time>2021-05-30T14:33:43Z</time>
      </trkpt>
      <trkpt lat="-12.1249420" lon="-76.6186470">
        <ele>1913.9</ele>
        <time>2021-05-30T14:33:44Z</time>
      </trkpt>
      <trkpt lat="-12.1249710" lon="-76.6186340">
        <ele>1914.1</ele>
        <time>2021-05-30T14:33:45Z</time>
      </trkpt>
      <trkpt lat="-12.1250070" lon="-76.6186170">
        <ele>1914.5</ele>
        <time>2021-05-30T14:33:47Z</time>
      </trkpt>
      <trkpt lat="-12.1250520" lon="-76.6185900">
        <ele>1914.9</ele>
        <time>2021-05-30T14:33:49Z</time>
      </trkpt>
      <trkpt lat="-12.1250820" lon="-76.6185720">
        <ele>1915.2</ele>
        <time>2021-05-30T14:33:50Z</time>
      </trkpt>
      <trkpt lat="-12.1251050" lon="-76.6185540">
        <ele>1915.4</ele>
        <time>2021-05-30T14:33:51Z</time>
      </trkpt>
      <trkpt lat="-12.1251280" lon="-76.6185330">
        <ele>1915.7</ele>
        <time>2021-05-30T14:33:52Z</time>
      </trkpt>
      <trkpt lat="-12.1251610" lon="-76.6185040">
        <ele>1916.1</ele>
        <time>2021-05-30T14:33:54Z</time>
      </trkpt>
      <trkpt lat="-12.1251720" lon="-76.6184950">
        <ele>1916.2</ele>
        <time>2021-05-30T14:33:55Z</time>
      </trkpt>
      <trkpt lat="-12.1251820" lon="-76.6184860">
        <ele>1916.3</ele>
        <time>2021-05-30T14:33:56Z</time>
      </trkpt>
      <trkpt lat="-12.1252050" lon="-76.6184640">
        <ele>1916.6</ele>
        <time>2021-05-30T14:33:58Z</time>
      </trkpt>
      <trkpt lat="-12.1252300" lon="-76.6184350">
        <ele>1916.9</ele>
        <time>2021-05-30T14:33:59Z</time>
      </trkpt>
      <trkpt lat="-12.1252470" lon="-76.6184130">
        <ele>1917.1</ele>
        <time>2021-05-30T14:34:00Z</time>
      </trkpt>
      <trkpt lat="-12.1252600" lon="-76.6183910">
        <ele>1917.3</ele>
        <time>2021-05-30T14:34:01Z</time>
      </trkpt>
      <trkpt lat="-12.1252760" lon="-76.6183670">
        <ele>1917.6</ele>
        <time>2021-05-30T14:34:03Z</time>
      </trkpt>
      <trkpt lat="-12.1252900" lon="-76.6183360">
        <ele>1917.8</ele>
        <time>2021-05-30T14:34:04Z</time>
      </trkpt>
      <trkpt lat="-12.1253060" lon="-76.6183200">
        <ele>1918.0</ele>
        <time>2021-05-30T14:34:06Z</time>
      </trkpt>
      <trkpt lat="-12.1253170" lon="-76.6183120">
        <ele>1918.1</ele>
        <time>2021-05-30T14:34:07Z</time>
      </trkpt>
      <trkpt lat="-12.1253410" lon="-76.6182900">
        <ele>1918.4</ele>
        <time>2021-05-30T14:34:09Z</time>
      </trkpt>
      <trkpt lat="-12.1253450" lon="-76.6182860">
        <ele>1918.5</ele>
        <time>2021-05-30T14:34:10Z</time>
      </trkpt>
      <trkpt lat="-12.1253550" lon="-76.6182740">
        <ele>1918.6</ele>
        <time>2021-05-30T14:34:11Z</time>
      </trkpt>
      <trkpt lat="-12.1253730" lon="-76.6182570">
        <ele>1918.8</ele>
        <time>2021-05-30T14:34:13Z</time>
      </trkpt>
      <trkpt lat="-12.1253950" lon="-76.6182350">
        <ele>1919.0</ele>
        <time>2021-05-30T14:34:14Z</time>
      </trkpt>
      <trkpt lat="-12.1254110" lon="-76.6182150">
        <ele>1919.3</ele>
        <time>2021-05-30T14:34:15Z</time>
      </trkpt>
      <trkpt lat="-12.1254280" lon="-76.6181900">
        <ele>1919.5</ele>
        <time>2021-05-30T14:34:17Z</time>
      </trkpt>
      <trkpt lat="-12.1254510" lon="-76.6181560">
        <ele>1919.8</ele>
        <time>2021-05-30T14:34:18Z</time>
      </trkpt>
      <trkpt lat="-12.1254590" lon="-76.6181430">
        <ele>1920.0</ele>
        <time>2021-05-30T14:34:19Z</time>
      </trkpt>
      <trkpt lat="-12.1254860" lon="-76.6181170">
        <ele>1920.3</ele>
        <time>2021-05-30T14:34:21Z</time>
      </trkpt>
      <trkpt lat="-12.1254940" lon="-76.6181080">
        <ele>1920.4</ele>
        <time>2021-05-30T14:34:22Z</time>
      </trkpt>
      <trkpt lat="-12.1255080" lon="-76.6180910">
        <ele>1920.6</ele>
        <time>2021-05-30T14:34:23Z</time>
      </trkpt>
      <trkpt lat="-12.1255210" lon="-76.6180720">
        <ele>1920.8</ele>
        <time>2021-05-30T14:34:25Z</time>
      </trkpt>
      <trkpt lat="-12.1255450" lon="-76.6180380">
        <ele>1921.1</ele>
        <time>2021-05-30T14:34:26Z</time>
      </trkpt>
      <trkpt lat="-12.1255540" lon="-76.6180240">
        <ele>1921.2</ele>
        <time>2021-05-30T14:34:27Z</time>
      </trkpt>
      <trkpt lat="-12.1255710" lon="-76.6179970">
        <ele>1921.5</ele>
        <time>2021-05-30T14:34:29Z</time>
      </trkpt>
      <trkpt lat="-12.1255730" lon="-76.6179900">
        <ele>1921.6</ele>
        <time>2021-05-30T14:34:30Z</time>
      </trkpt>
      <trkpt lat="-12.1255930" lon="-76.6179600">
        <ele>1921.9</ele>
        <time>2021-05-30T14:34:31Z</time>
      </trkpt>
      <trkpt lat="-12.1255980" lon="-76.6179490">
        <ele>1922.0</ele>
        <time>2021-05-30T14:34:32Z</time>
      </trkpt>
      <trkpt lat="-12.1256090" lon="-76.6179270">
        <ele>1922.2</ele>
        <time>2021-05-30T14:34:33Z</time>
      </trkpt>
      <trkpt lat="-12.1256130" lon="-76.6179080">
        <ele>1922.3</ele>
        <time>2021-05-30T14:34:35Z</time>
      </trkpt>
      <trkpt lat="-12.1256190" lon="-76.6178730">
        <ele>1922.6</ele>
        <time>2021-05-30T14:34:36Z</time>
      </trkpt>
      <trkpt lat="-12.1256190" lon="-76.6178600">
        <ele>1922.7</ele>
        <time>2021-05-30T14:34:37Z</time>
      </trkpt>
      <trkpt lat="-12.1256170" lon="-76.6178280">
        <ele>1923.0</ele>
        <time>2021-05-30T14:34:39Z</time>
      </trkpt>
      <trkpt lat="-12.1256170" lon="-76.6178160">
        <ele>1923.1</ele>
        <time>2021-05-30T14:34:40Z</time>
      </trkpt>
      <trkpt lat="-12.1256260" lon="-76.6177850">
        <ele>1923.3</ele>
        <time>2021-05-30T14:34:42Z</time>
      </trkpt>
      <trkpt lat="-12.1256280" lon="-76.6177760">
        <ele>1923.4</ele>
        <time>2021-05-30T14:34:43Z</time>
      </trkpt>
      <trkpt lat="-12.1256360" lon="-76.6177470">
        <ele>1923.7</ele>
        <time>2021-05-30T14:34:44Z</time>
      </trkpt>
      <trkpt lat="-12.1256370" lon="-76.6177370">
        <ele>1923.7</ele>
        <time>2021-05-30T14:34:45Z</time>
      </trkpt>
      <trkpt lat="-12.1256380" lon="-76.6177220">
        <ele>1923.9</ele>
        <time>2021-05-30T14:34:46Z</time>
      </trkpt>
      <trkpt lat="-12.1256380" lon="-76.6176880">
        <ele>1924.1</ele>
        <time>2021-05-30T14:34:48Z</time>
      </trkpt>
      <trkpt lat="-12.1256360" lon="-76.6176670">
        <ele>1924.3</ele>
        <time>2021-05-30T14:34:49Z</time>
      </trkpt>
      <trkpt lat="-12.1256290" lon="-76.6176370">
        <ele>1924.6</ele>
        <time>2021-05-30T14:34:51Z</time>
      </trkpt>
      <trkpt lat="-12.1256250" lon="-76.6176020">
        <ele>1924.9</ele>
        <time>2021-05-30T14:34:52Z</time>
      </trkpt>
      <trkpt lat="-12.1256220" lon="-76.6175910">
        <ele>1925.0</ele>
        <time>2021-05-30T14:34:53Z</time>
      </trkpt>
      <trkpt lat="-12.1256160" lon="-76.6175600">
        <ele>1925.2</ele>
        <time>2021-05-30T14:34:55Z</time>
      </trkpt>
      <trkpt lat="-12.1256130" lon="-76.6175490">
        <ele>1925.3</ele>
        <time>2021-05-30T14:34:56Z</time>
      </trkpt>
      <trkpt lat="-12.1256070" lon="-76.6175200">
        <ele>1925.6</ele>
        <time>2021-05-30T14:34:57Z</time>
      </trkpt>
      <trkpt lat="-12.1256010" lon="-76.6175020">
        <ele>1925.7</ele>
        <time>2021-05-30T14:34:58Z</time>
      </trkpt>
      <trkpt lat="-12.1255900" lon="-76.6174750">
        <ele>1925.9</ele>
        <time>2021-05-30T14:35:00Z</time>
      </trkpt>
      <trkpt lat="-12.1255760" lon="-76.6174410">
        <ele>1926.2</ele>
        <time>2021-05-30T14:35:01Z</time>
      </trkpt>
      <trkpt lat="-12.1255700" lon="-76.6174300">
        <ele>1926.4</ele>
        <time>2021-05-30T14:35:02Z</time>
      </trkpt>
      <trkpt lat="-12.1255570" lon="-76.6174050">
        <ele>1926.6</ele>
        <time>2021-05-30T14:35:03Z</time>
      </trkpt>
      <trkpt lat="-12.1255360" lon="-76.6173690">
        <ele>1926.9</ele>
        <time>2021-05-30T14:35:05Z</time>
      </trkpt>
      <trkpt lat="-12.1255260" lon="-76.6173580">
        <ele>1927.1</ele>
        <time>2021-05-30T14:35:06Z</time>
      </trkpt>
      <trkpt lat="-12.1254930" lon="-76.6173300">
        <ele>1927.4</ele>
        <time>2021-05-30T14:35:08Z</time>
      </trkpt>
      <trkpt lat="-12.1254840" lon="-76.6173190">
        <ele>1927.5</ele>
        <time>2021-05-30T14:35:09Z</time>
      </trkpt>
      <trkpt lat="-12.1254740" lon="-76.6173090">
        <ele>1927.6</ele>
        <time>2021-05-30T14:35:10Z</time>
      </trkpt>
      <trkpt lat="-12.1254620" lon="-76.6172950">
        <ele>1927.8</ele>
        <time>2021-05-30T14:35:11Z</time>
      </trkpt>
      <trkpt lat="-12.1254470" lon="-76.6172800">
        <ele>1928.0</ele>
        <time>2021-05-30T14:35:13Z</time>
      </trkpt>
      <trkpt lat="-12.1254160" lon="-76.6172590">
        <ele>1928.3</ele>
        <time>2021-05-30T14:35:14Z</time>
      </trkpt>
      <trkpt lat="-12.1254030" lon="-76.6172550">
        <ele>1928.4</ele>
        <time>2021-05-30T14:35:15Z</time>
      </trkpt>
      <trkpt lat="-12.1253890" lon="-76.6172430">
        <ele>1928.6</ele>
        <time>2021-05-30T14:35:16Z</time>
      </trkpt>
      <trkpt lat="-12.1253770" lon="-76.6172290">
        <ele>1928.7</ele>
        <time>2021-05-30T14:35:18Z</time>
      </trkpt>
      <trkpt lat="-12.1253580" lon="-76.6172050">
        <ele>1929.0</ele>
        <time>2021-05-30T14:35:19Z</time>
      </trkpt>
      <trkpt lat="-12.1253490" lon="-76.6171950">
        <ele>1929.1</ele>
        <time>2021-05-30T14:35:20Z</time>
      </trkpt>
      <trkpt lat="-12.1253350" lon="-76.6171810">
        <ele>1929.2</ele>
        <time>2021-05-30T14:35:22Z</time>
      </trkpt>
      <trkpt lat="-12.1253250" lon="-76.6171700">
        <ele>1929.4</ele>
        <time>2021-05-30T14:35:23Z</time>
      </trkpt>
      <trkpt lat="-12.1253120" lon="-76.6171390">
        <ele>1929.6</ele>
        <time>2021-05-30T14:35:24Z</time>
      </trkpt>
      <trkpt lat="-12.1253070" lon="-76.6171260">
        <ele>1929.7</ele>
        <time>2021-05-30T14:35:25Z</time>
      </trkpt>
      <trkpt lat="-12.1252970" lon="-76.6170900">
        <ele>1930.1</ele>
        <time>2021-05-30T14:35:27Z</time>
      </trkpt>
      <trkpt lat="-12.1252930" lon="-76.6170760">
        <ele>1930.2</ele>
        <time>2021-05-30T14:35:28Z</time>
      </trkpt>
      <trkpt lat="-12.1252910" lon="-76.6170590">
        <ele>1930.3</ele>
        <time>2021-05-30T14:35:29Z</time>
      </trkpt>
      <trkpt lat="-12.1252850" lon="-76.6170420">
        <ele>1930.5</ele>
        <time>2021-05-30T14:35:30Z</time>
      </trkpt>
      <trkpt lat="-12.1252740" lon="-76.6170020">
        <ele>1930.8</ele>
        <time>2021-05-30T14:35:32Z</time>
      </trkpt>
      <trkpt lat="-12.1252680" lon="-76.6169850">
        <ele>1931.0</ele>
        <time>2021-05-30T14:35:33Z</time>
      </trkpt>
      <trkpt lat="-12.1252530" lon="-76.6169420">
        <ele>1931.3</ele>
        <time>2021-05-30T14:35:35Z</time>
      </trkpt>
      <trkpt lat="-12.1252490" lon="-76.6169240">
        <ele>1931.5</ele>
        <time>2021-05-30T14:35:37Z</time>
      </trkpt>
      <trkpt lat="-12.1252440" lon="-76.6169070">
        <ele>1931.6</ele>
        <time>2021-05-30T14:35:38Z</time>
      </trkpt>
      <trkpt lat="-12.1252390" lon="-76.6168900">
        <ele>1931.8</ele>
        <time>2021-05-30T14:35:39Z</time>
      </trkpt>
      <trkpt lat="-12.1252360" lon="-76.6168730">
        <ele>1931.9</ele>
        <time>2021-05-30T14:35:40Z</time>
      </trkpt>
      <trkpt lat="-12.1252300" lon="-76.6168550">
        <ele>1932.1</ele>
        <time>2021-05-30T14:35:41Z</time>
      </trkpt>
      <trkpt lat="-12.1252230" lon="-76.6168360">
        <ele>1932.2</ele>
        <time>2021-05-30T14:35:42Z</time>
      </trkpt>
      <trkpt lat="-12.1252120" lon="-76.6168180">
        <ele>1932.4</ele>
        <time>2021-05-30T14:35:44Z</time>
      </trkpt>
      <trkpt lat="-12.1252060" lon="-76.6168020">
        <ele>1932.5</ele>
        <time>2021-05-30T14:35:45Z</time>
      </trkpt>
      <trkpt lat="-12.1252020" lon="-76.6167880">
        <ele>1932.7</ele>
        <time>2021-05-30T14:35:46Z</time>
      </trkpt>
      <trkpt lat="-12.1251910" lon="-76.6167640">
        <ele>1932.9</ele>
        <time>2021-05-30T14:35:47Z</time>
      </trkpt>
      <trkpt lat="-12.1251850" lon="-76.6167480">
        <ele>1933.0</ele>
        <time>2021-05-30T14:35:49Z</time>
      </trkpt>
      <trkpt lat="-12.1251810" lon="-76.6167360">
        <ele>1933.1</ele>
        <time>2021-05-30T14:35:50Z</time>
      </trkpt>
      <trkpt lat="-12.1251760" lon="-76.6167190">
        <ele>1933.3</ele>
        <time>2021-05-30T14:35:51Z</time>
      </trkpt>
      <trkpt lat="-12.1251690" lon="-76.6166900">
        <ele>1933.5</ele>
        <time>2021-05-30T14:35:52Z</time>
      </trkpt>
      <trkpt lat="-12.1251660" lon="-76.6166810">
        <ele>1933.6</ele>
        <time>2021-05-30T14:35:53Z</time>
      </trkpt>
      <trkpt lat="-12.1251560" lon="-76.6166540">
        <ele>1933.8</ele>
        <time>2021-05-30T14:35:54Z</time>
      </trkpt>
      <trkpt lat="-12.1251530" lon="-76.6166430">
        <ele>1933.9</ele>
        <time>2021-05-30T14:35:56Z</time>
      </trkpt>
      <trkpt lat="-12.1251490" lon="-76.6166310">
        <ele>1934.0</ele>
        <time>2021-05-30T14:35:57Z</time>
      </trkpt>
      <trkpt lat="-12.1251460" lon="-76.6166200">
        <ele>1934.1</ele>
        <time>2021-05-30T14:35:58Z</time>
      </trkpt>
      <trkpt lat="-12.1251420" lon="-76.6166090">
        <ele>1934.2</ele>
        <time>2021-05-30T14:35:59Z</time>
      </trkpt>
      <trkpt lat="-12.1251360" lon="-76.6165810">
        <ele>1934.5</ele>
        <time>2021-05-30T14:36:00Z</time>
      </trkpt>
      <trkpt lat="-12.1251330" lon="-76.6165710">
        <ele>1934.5</ele>
        <time>2021-05-30T14:36:01Z</time>
      </trkpt>
      <trkpt lat="-12.1251260" lon="-76.6165370">
        <ele>1934.8</ele>
        <time>2021-05-30T14:36:03Z</time>
      </trkpt>
      <trkpt lat="-12.1251220" lon="-76.6165260">
        <ele>1934.9</ele>
        <time>2021-05-30T14:36:04Z</time>
      </trkpt>
      <trkpt lat="-12.1251110" lon="-76.6165020">
        <ele>1935.1</ele>
        <time>2021-05-30T14:36:06Z</time>
      </trkpt>
      <trkpt lat="-12.1251010" lon="-76.6164790">
        <ele>1935.3</ele>
        <time>2021-05-30T14:36:08Z</time>
      </trkpt>
      <trkpt lat="-12.1250920" lon="-76.6164560">
        <ele>1935.5</ele>
        <time>2021-05-30T14:36:09Z</time>
      </trkpt>
      <trkpt lat="-12.1250880" lon="-76.6164470">
        <ele>1935.6</ele>
        <time>2021-05-30T14:36:10Z</time>
      </trkpt>
      <trkpt lat="-12.1250850" lon="-76.6164370">
        <ele>1935.7</ele>
        <time>2021-05-30T14:36:11Z</time>
      </trkpt>
      <trkpt lat="-12.1250810" lon="-76.6164230">
        <ele>1935.8</ele>
        <time>2021-05-30T14:36:13Z</time>
      </trkpt>
      <trkpt lat="-12.1250790" lon="-76.6164090">
        <ele>1935.9</ele>
        <time>2021-05-30T14:36:14Z</time>
      </trkpt>
      <trkpt lat="-12.1250710" lon="-76.6163870">
        <ele>1936.1</ele>
        <time>2021-05-30T14:36:15Z</time>
      </trkpt>
      <trkpt lat="-12.1250660" lon="-76.6163730">
        <ele>1936.3</ele>
        <time>2021-05-30T14:36:16Z</time>
      </trkpt>
      <trkpt lat="-12.1250610" lon="-76.6163600">
        <ele>1936.4</ele>
        <time>2021-05-30T14:36:17Z</time>
      </trkpt>
      <trkpt lat="-12.1250440" lon="-76.6163260">
        <ele>1936.7</ele>
        <time>2021-05-30T14:36:19Z</time>
      </trkpt>
      <trkpt lat="-12.1250350" lon="-76.6163140">
        <ele>1936.8</ele>
        <time>2021-05-30T14:36:20Z</time>
      </trkpt>
      <trkpt lat="-12.1250220" lon="-76.6162950">
        <ele>1937.0</ele>
        <time>2021-05-30T14:36:22Z</time>
      </trkpt>
      <trkpt lat="-12.1250090" lon="-76.6162740">
        <ele>1937.2</ele>
        <time>2021-05-30T14:36:24Z</time>
      </trkpt>
      <trkpt lat="-12.1249880" lon="-76.6162510">
        <ele>1937.5</ele>
        <time>2021-05-30T14:36:25Z</time>
      </trkpt>
      <trkpt lat="-12.1249680" lon="-76.6162270">
        <ele>1937.7</ele>
        <time>2021-05-30T14:36:27Z</time>
      </trkpt>
      <trkpt lat="-12.1249630" lon="-76.6162210">
        <ele>1937.8</ele>
        <time>2021-05-30T14:36:28Z</time>
      </trkpt>
      <trkpt lat="-12.1249470" lon="-76.6162030">
        <ele>1938.0</ele>
        <time>2021-05-30T14:36:29Z</time>
      </trkpt>
      <trkpt lat="-12.1249390" lon="-76.6161950">
        <ele>1938.1</ele>
        <time>2021-05-30T14:36:30Z</time>
      </trkpt>
      <trkpt lat="-12.1249310" lon="-76.6161860">
        <ele>1938.2</ele>
        <time>2021-05-30T14:36:31Z</time>
      </trkpt>
      <trkpt lat="-12.1249160" lon="-76.6161760">
        <ele>1938.3</ele>
        <time>2021-05-30T14:36:32Z</time>
      </trkpt>
      <trkpt lat="-12.1249030" lon="-76.6161700">
        <ele>1938.5</ele>
        <time>2021-05-30T14:36:34Z</time>
      </trkpt>
      <trkpt lat="-12.1248920" lon="-76.6161670">
        <ele>1938.5</ele>
        <time>2021-05-30T14:36:35Z</time>
      </trkpt>
      <trkpt lat="-12.1248830" lon="-76.6161640">
        <ele>1938.6</ele>
        <time>2021-05-30T14:36:36Z</time>
      </trkpt>
      <trkpt lat="-12.1248710" lon="-76.6161570">
        <ele>1938.7</ele>
        <time>2021-05-30T14:36:37Z</time>
      </trkpt>
      <trkpt lat="-12.1248590" lon="-76.6161470">
        <ele>1938.9</ele>
        <time>2021-05-30T14:36:38Z</time>
      </trkpt>
      <trkpt lat="-12.1248470" lon="-76.6161390">
        <ele>1939.0</ele>
        <time>2021-05-30T14:36:39Z</time>
      </trkpt>
      <trkpt lat="-12.1248340" lon="-76.6161270">
        <ele>1939.1</ele>
        <time>2021-05-30T14:36:41Z</time>
      </trkpt>
      <trkpt lat="-12.1248270" lon="-76.6161160">
        <ele>1939.2</ele>
        <time>2021-05-30T14:36:42Z</time>
      </trkpt>
      <trkpt lat="-12.1248100" lon="-76.6160930">
        <ele>1939.5</ele>
        <time>2021-05-30T14:36:43Z</time>
      </trkpt>
      <trkpt lat="-12.1247880" lon="-76.6160530">
        <ele>1939.9</ele>
        <time>2021-05-30T14:36:45Z</time>
      </trkpt>
      <trkpt lat="-12.1247830" lon="-76.6160400">
        <ele>1940.0</ele>
        <time>2021-05-30T14:36:47Z</time>
      </trkpt>
      <trkpt lat="-12.1247780" lon="-76.6160280">
        <ele>1940.1</ele>
        <time>2021-05-30T14:36:48Z</time>
      </trkpt>
      <trkpt lat="-12.1247710" lon="-76.6159930">
        <ele>1940.4</ele>
        <time>2021-05-30T14:36:49Z</time>
      </trkpt>
      <trkpt lat="-12.1247690" lon="-76.6159780">
        <ele>1940.5</ele>
        <time>2021-05-30T14:36:50Z</time>
      </trkpt>
      <trkpt lat="-12.1247630" lon="-76.6159470">
        <ele>1940.8</ele>
        <time>2021-05-30T14:36:52Z</time>
      </trkpt>
      <trkpt lat="-12.1247610" lon="-76.6159390">
        <ele>1940.8</ele>
        <time>2021-05-30T14:36:53Z</time>
      </trkpt>
      <trkpt lat="-12.1247550" lon="-76.6159090">
        <ele>1941.1</ele>
        <time>2021-05-30T14:36:54Z</time>
      </trkpt>
      <trkpt lat="-12.1247460" lon="-76.6158810">
        <ele>1941.3</ele>
        <time>2021-05-30T14:36:56Z</time>
      </trkpt>
      <trkpt lat="-12.1247430" lon="-76.6158720">
        <ele>1941.4</ele>
        <time>2021-05-30T14:36:57Z</time>
      </trkpt>
      <trkpt lat="-12.1247360" lon="-76.6158500">
        <ele>1941.6</ele>
        <time>2021-05-30T14:36:58Z</time>
      </trkpt>
      <trkpt lat="-12.1247230" lon="-76.6158290">
        <ele>1941.8</ele>
        <time>2021-05-30T14:37:00Z</time>
      </trkpt>
      <trkpt lat="-12.1246980" lon="-76.6158040">
        <ele>1942.1</ele>
        <time>2021-05-30T14:37:01Z</time>
      </trkpt>
      <trkpt lat="-12.1246680" lon="-76.6157830">
        <ele>1942.4</ele>
        <time>2021-05-30T14:37:03Z</time>
      </trkpt>
      <trkpt lat="-12.1246600" lon="-76.6157780">
        <ele>1942.5</ele>
        <time>2021-05-30T14:37:04Z</time>
      </trkpt>
      <trkpt lat="-12.1246350" lon="-76.6157550">
        <ele>1942.7</ele>
        <time>2021-05-30T14:37:06Z</time>
      </trkpt>
      <trkpt lat="-12.1246230" lon="-76.6157470">
        <ele>1942.9</ele>
        <time>2021-05-30T14:37:07Z</time>
      </trkpt>
      <trkpt lat="-12.1246000" lon="-76.6157230">
        <ele>1943.1</ele>
        <time>2021-05-30T14:37:09Z</time>
      </trkpt>
      <trkpt lat="-12.1245770" lon="-76.6157060">
        <ele>1943.4</ele>
        <time>2021-05-30T14:37:10Z</time>
      </trkpt>
      <trkpt lat="-12.1245560" lon="-76.6156860">
        <ele>1943.6</ele>
        <time>2021-05-30T14:37:12Z</time>
      </trkpt>
      <trkpt lat="-12.1245380" lon="-76.6156680">
        <ele>1943.8</ele>
        <time>2021-05-30T14:37:13Z</time>
      </trkpt>
      <trkpt lat="-12.1245080" lon="-76.6156380">
        <ele>1944.2</ele>
        <time>2021-05-30T14:37:15Z</time>
      </trkpt>
      <trkpt lat="-12.1245000" lon="-76.6156090">
        <ele>1944.4</ele>
        <time>2021-05-30T14:37:16Z</time>
      </trkpt>
      <trkpt lat="-12.1244980" lon="-76.6155990">
        <ele>1944.5</ele>
        <time>2021-05-30T14:37:17Z</time>
      </trkpt>
      <trkpt lat="-12.1244990" lon="-76.6155660">
        <ele>1944.8</ele>
        <time>2021-05-30T14:37:18Z</time>
      </trkpt>
      <trkpt lat="-12.1245000" lon="-76.6155550">
        <ele>1944.9</ele>
        <time>2021-05-30T14:37:19Z</time>
      </trkpt>
      <trkpt lat="-12.1245100" lon="-76.6155290">
        <ele>1945.1</ele>
        <time>2021-05-30T14:37:21Z</time>
      </trkpt>
      <trkpt lat="-12.1245230" lon="-76.6155030">
        <ele>1945.3</ele>
        <time>2021-05-30T14:37:22Z</time>
      </trkpt>
      <trkpt lat="-12.1245540" lon="-76.6154720">
        <ele>1945.7</ele>
        <time>2021-05-30T14:37:24Z</time>
      </trkpt>
      <trkpt lat="-12.1245700" lon="-76.6154580">
        <ele>1945.9</ele>
        <time>2021-05-30T14:37:25Z</time>
      </trkpt>
      <trkpt lat="-12.1245940" lon="-76.6154350">
        <ele>1946.2</ele>
        <time>2021-05-30T14:37:26Z</time>
      </trkpt>
      <trkpt lat="-12.1246170" lon="-76.6154130">
        <ele>1946.4</ele>
        <time>2021-05-30T14:37:27Z</time>
      </trkpt>
      <trkpt lat="-12.1246440" lon="-76.6154000">
        <ele>1946.7</ele>
        <time>2021-05-30T14:37:29Z</time>
      </trkpt>
      <trkpt lat="-12.1246730" lon="-76.6153870">
        <ele>1946.9</ele>
        <time>2021-05-30T14:37:30Z</time>
      </trkpt>
      <trkpt lat="-12.1247130" lon="-76.6153720">
        <ele>1947.3</ele>
        <time>2021-05-30T14:37:31Z</time>
      </trkpt>
      <trkpt lat="-12.1247290" lon="-76.6153690">
        <ele>1947.4</ele>
        <time>2021-05-30T14:37:32Z</time>
      </trkpt>
      <trkpt lat="-12.1247580" lon="-76.6153630">
        <ele>1947.7</ele>
        <time>2021-05-30T14:37:33Z</time>
      </trkpt>
      <trkpt lat="-12.1247860" lon="-76.6153570">
        <ele>1947.9</ele>
        <time>2021-05-30T14:37:34Z</time>
      </trkpt>
      <trkpt lat="-12.1248210" lon="-76.6153480">
        <ele>1948.2</ele>
        <time>2021-05-30T14:37:36Z</time>
      </trkpt>
      <trkpt lat="-12.1248690" lon="-76.6153540">
        <ele>1948.6</ele>
        <time>2021-05-30T14:37:37Z</time>
      </trkpt>
      <trkpt lat="-12.1249320" lon="-76.6153590">
        <ele>1949.2</ele>
        <time>2021-05-30T14:37:38Z</time>
      </trkpt>
      <trkpt lat="-12.1249730" lon="-76.6153430">
        <ele>1949.5</ele>
        <time>2021-05-30T14:37:40Z</time>
      </trkpt>
      <trkpt lat="-12.1249870" lon="-76.6153360">
        <ele>1949.7</ele>
        <time>2021-05-30T14:37:41Z</time>
      </trkpt>
      <trkpt lat="-12.1250000" lon="-76.6153300">
        <ele>1949.8</ele>
        <time>2021-05-30T14:37:42Z</time>
      </trkpt>
      <trkpt lat="-12.1250220" lon="-76.6153170">
        <ele>1950.0</ele>
        <time>2021-05-30T14:37:43Z</time>
      </trkpt>
      <trkpt lat="-12.1250400" lon="-76.6152990">
        <ele>1950.2</ele>
        <time>2021-05-30T14:37:45Z</time>
      </trkpt>
      <trkpt lat="-12.1250630" lon="-76.6152800">
        <ele>1950.4</ele>
        <time>2021-05-30T14:37:46Z</time>
      </trkpt>
      <trkpt lat="-12.1250710" lon="-76.6152730">
        <ele>1950.5</ele>
        <time>2021-05-30T14:37:47Z</time>
      </trkpt>
      <trkpt lat="-12.1251030" lon="-76.6152420">
        <ele>1950.9</ele>
        <time>2021-05-30T14:37:49Z</time>
      </trkpt>
      <trkpt lat="-12.1251160" lon="-76.6152300">
        <ele>1951.1</ele>
        <time>2021-05-30T14:37:50Z</time>
      </trkpt>
      <trkpt lat="-12.1251290" lon="-76.6152180">
        <ele>1951.2</ele>
        <time>2021-05-30T14:37:51Z</time>
      </trkpt>
      <trkpt lat="-12.1251500" lon="-76.6152000">
        <ele>1951.4</ele>
        <time>2021-05-30T14:37:52Z</time>
      </trkpt>
      <trkpt lat="-12.1251780" lon="-76.6151790">
        <ele>1951.7</ele>
        <time>2021-05-30T14:37:54Z</time>
      </trkpt>
      <trkpt lat="-12.1252110" lon="-76.6151480">
        <ele>1952.1</ele>
        <time>2021-05-30T14:37:56Z</time>
      </trkpt>
      <trkpt lat="-12.1252300" lon="-76.6151240">
        <ele>1952.3</ele>
        <time>2021-05-30T14:37:57Z</time>
      </trkpt>
      <trkpt lat="-12.1252530" lon="-76.6150930">
        <ele>1952.7</ele>
        <time>2021-05-30T14:37:58Z</time>
      </trkpt>
      <trkpt lat="-12.1252690" lon="-76.6150720">
        <ele>1952.9</ele>
        <time>2021-05-30T14:37:59Z</time>
      </trkpt>
      <trkpt lat="-12.1252900" lon="-76.6150460">
        <ele>1953.2</ele>
        <time>2021-05-30T14:38:01Z</time>
      </trkpt>
      <trkpt lat="-12.1253120" lon="-76.6150260">
        <ele>1953.4</ele>
        <time>2021-05-30T14:38:02Z</time>
      </trkpt>
      <trkpt lat="-12.1253400" lon="-76.6150010">
        <ele>1953.7</ele>
        <time>2021-05-30T14:38:03Z</time>
      </trkpt>
      <trkpt lat="-12.1253610" lon="-76.6149880">
        <ele>1953.9</ele>
        <time>2021-05-30T14:38:04Z</time>
      </trkpt>
      <trkpt lat="-12.1253890" lon="-76.6149810">
        <ele>1954.2</ele>
        <time>2021-05-30T14:38:06Z</time>
      </trkpt>
      <trkpt lat="-12.1254480" lon="-76.6149850">
        <ele>1954.7</ele>
        <time>2021-05-30T14:38:08Z</time>
      </trkpt>
      <trkpt lat="-12.1255030" lon="-76.6149960">
        <ele>1955.1</ele>
        <time>2021-05-30T14:38:09Z</time>
      </trkpt>
      <trkpt lat="-12.1255330" lon="-76.6150100">
        <ele>1955.4</ele>
        <time>2021-05-30T14:38:10Z</time>
      </trkpt>
      <trkpt lat="-12.1255640" lon="-76.6150260">
        <ele>1955.7</ele>
        <time>2021-05-30T14:38:11Z</time>
      </trkpt>
      <trkpt lat="-12.1256090" lon="-76.6150490">
        <ele>1956.1</ele>
        <time>2021-05-30T14:38:13Z</time>
      </trkpt>
      <trkpt lat="-12.1256330" lon="-76.6150640">
        <ele>1956.4</ele>
        <time>2021-05-30T14:38:15Z</time>
      </trkpt>
      <trkpt lat="-12.1256650" lon="-76.6150770">
        <ele>1956.6</ele>
        <time>2021-05-30T14:38:16Z</time>
      </trkpt>
      <trkpt lat="-12.1257060" lon="-76.6150850">
        <ele>1957.0</ele>
        <time>2021-05-30T14:38:18Z</time>
      </trkpt>
      <trkpt lat="-12.1257400" lon="-76.6150830">
        <ele>1957.3</ele>
        <time>2021-05-30T14:38:19Z</time>
      </trkpt>
      <trkpt lat="-12.1257620" lon="-76.6150790">
        <ele>1957.5</ele>
        <time>2021-05-30T14:38:20Z</time>
      </trkpt>
      <trkpt lat="-12.1257910" lon="-76.6150720">
        <ele>1957.7</ele>
        <time>2021-05-30T14:38:22Z</time>
      </trkpt>
      <trkpt lat="-12.1258340" lon="-76.6150680">
        <ele>1958.1</ele>
        <time>2021-05-30T14:38:23Z</time>
      </trkpt>
      <trkpt lat="-12.1258690" lon="-76.6150670">
        <ele>1958.4</ele>
        <time>2021-05-30T14:38:24Z</time>
      </trkpt>
      <trkpt lat="-12.1259300" lon="-76.6150720">
        <ele>1958.9</ele>
        <time>2021-05-30T14:38:26Z</time>
      </trkpt>
      <trkpt lat="-12.1259590" lon="-76.6150760">
        <ele>1959.1</ele>
        <time>2021-05-30T14:38:27Z</time>
      </trkpt>
      <trkpt lat="-12.1259930" lon="-76.6150840">
        <ele>1959.4</ele>
        <time>2021-05-30T14:38:29Z</time>
      </trkpt>
      <trkpt lat="-12.1260260" lon="-76.6150940">
        <ele>1959.7</ele>
        <time>2021-05-30T14:38:30Z</time>
      </trkpt>
      <trkpt lat="-12.1260580" lon="-76.6151120">
        <ele>1960.0</ele>
        <time>2021-05-30T14:38:31Z</time>
      </trkpt>
      <trkpt lat="-12.1260680" lon="-76.6151180">
        <ele>1960.1</ele>
        <time>2021-05-30T14:38:32Z</time>
      </trkpt>
      <trkpt lat="-12.1261100" lon="-76.6151430">
        <ele>1960.5</ele>
        <time>2021-05-30T14:38:34Z</time>
      </trkpt>
      <trkpt lat="-12.1261370" lon="-76.6151550">
        <ele>1960.8</ele>
        <time>2021-05-30T14:38:35Z</time>
      </trkpt>
      <trkpt lat="-12.1261730" lon="-76.6151710">
        <ele>1961.1</ele>
        <time>2021-05-30T14:38:36Z</time>
      </trkpt>
      <trkpt lat="-12.1262030" lon="-76.6151840">
        <ele>1961.4</ele>
        <time>2021-05-30T14:38:37Z</time>
      </trkpt>
      <trkpt lat="-12.1262320" lon="-76.6151870">
        <ele>1961.6</ele>
        <time>2021-05-30T14:38:38Z</time>
      </trkpt>
      <trkpt lat="-12.1262850" lon="-76.6151870">
        <ele>1962.1</ele>
        <time>2021-05-30T14:38:40Z</time>
      </trkpt>
      <trkpt lat="-12.1263040" lon="-76.6151870">
        <ele>1962.2</ele>
        <time>2021-05-30T14:38:41Z</time>
      </trkpt>
      <trkpt lat="-12.1263240" lon="-76.6151860">
        <ele>1962.4</ele>
        <time>2021-05-30T14:38:42Z</time>
      </trkpt>
      <trkpt lat="-12.1263570" lon="-76.6151840">
        <ele>1962.7</ele>
        <time>2021-05-30T14:38:43Z</time>
      </trkpt>
      <trkpt lat="-12.1263880" lon="-76.6151790">
        <ele>1962.9</ele>
        <time>2021-05-30T14:38:45Z</time>
      </trkpt>
      <trkpt lat="-12.1264170" lon="-76.6151760">
        <ele>1963.2</ele>
        <time>2021-05-30T14:38:46Z</time>
      </trkpt>
      <trkpt lat="-12.1264440" lon="-76.6151680">
        <ele>1963.4</ele>
        <time>2021-05-30T14:38:47Z</time>
      </trkpt>
      <trkpt lat="-12.1264950" lon="-76.6151630">
        <ele>1963.8</ele>
        <time>2021-05-30T14:38:49Z</time>
      </trkpt>
      <trkpt lat="-12.1265130" lon="-76.6151630">
        <ele>1964.0</ele>
        <time>2021-05-30T14:38:50Z</time>
      </trkpt>
      <trkpt lat="-12.1265320" lon="-76.6151630">
        <ele>1964.1</ele>
        <time>2021-05-30T14:38:51Z</time>
      </trkpt>
      <trkpt lat="-12.1265570" lon="-76.6151670">
        <ele>1964.4</ele>
        <time>2021-05-30T14:38:52Z</time>
      </trkpt>
      <trkpt lat="-12.1265890" lon="-76.6151770">
        <ele>1964.6</ele>
        <time>2021-05-30T14:38:54Z</time>
      </trkpt>
      <trkpt lat="-12.1266190" lon="-76.6151970">
        <ele>1964.9</ele>
        <time>2021-05-30T14:38:55Z</time>
      </trkpt>
      <trkpt lat="-12.1266670" lon="-76.6152160">
        <ele>1965.4</ele>
        <time>2021-05-30T14:38:57Z</time>
      </trkpt>
      <trkpt lat="-12.1266820" lon="-76.6152230">
        <ele>1965.5</ele>
        <time>2021-05-30T14:38:58Z</time>
      </trkpt>
      <trkpt lat="-12.1266980" lon="-76.6152300">
        <ele>1965.7</ele>
        <time>2021-05-30T14:38:59Z</time>
      </trkpt>
      <trkpt lat="-12.1267240" lon="-76.6152420">
        <ele>1965.9</ele>
        <time>2021-05-30T14:39:00Z</time>
      </trkpt>
      <trkpt lat="-12.1267460" lon="-76.6152510">
        <ele>1966.1</ele>
        <time>2021-05-30T14:39:01Z</time>
      </trkpt>
      <trkpt lat="-12.1267720" lon="-76.6152580">
        <ele>1966.3</ele>
        <time>2021-05-30T14:39:03Z</time>
      </trkpt>
      <trkpt lat="-12.1268140" lon="-76.6152590">
        <ele>1966.7</ele>
        <time>2021-05-30T14:39:04Z</time>
      </trkpt>
      <trkpt lat="-12.1268480" lon="-76.6152600">
        <ele>1967.0</ele>
        <time>2021-05-30T14:39:05Z</time>
      </trkpt>
      <trkpt lat="-12.1268840" lon="-76.6152600">
        <ele>1967.3</ele>
        <time>2021-05-30T14:39:07Z</time>
      </trkpt>
      <trkpt lat="-12.1269240" lon="-76.6152530">
        <ele>1967.6</ele>
        <time>2021-05-30T14:39:08Z</time>
      </trkpt>
      <trkpt lat="-12.1269560" lon="-76.6152460">
        <ele>1967.9</ele>
        <time>2021-05-30T14:39:10Z</time>
      </trkpt>
      <trkpt lat="-12.1269850" lon="-76.6152370">
        <ele>1968.1</ele>
        <time>2021-05-30T14:39:11Z</time>
      </trkpt>
      <trkpt lat="-12.1270130" lon="-76.6152290">
        <ele>1968.4</ele>
        <time>2021-05-30T14:39:12Z</time>
      </trkpt>
      <trkpt lat="-12.1270400" lon="-76.6152210">
        <ele>1968.6</ele>
        <time>2021-05-30T14:39:13Z</time>
      </trkpt>
      <trkpt lat="-12.1270680" lon="-76.6152090">
        <ele>1968.9</ele>
        <time>2021-05-30T14:39:14Z</time>
      </trkpt>
      <trkpt lat="-12.1270990" lon="-76.6151970">
        <ele>1969.1</ele>
        <time>2021-05-30T14:39:16Z</time>
      </trkpt>
      <trkpt lat="-12.1271390" lon="-76.6151800">
        <ele>1969.5</ele>
        <time>2021-05-30T14:39:18Z</time>
      </trkpt>
      <trkpt lat="-12.1271640" lon="-76.6151650">
        <ele>1969.7</ele>
        <time>2021-05-30T14:39:19Z</time>
      </trkpt>
      <trkpt lat="-12.1271890" lon="-76.6151490">
        <ele>1970.0</ele>
        <time>2021-05-30T14:39:20Z</time>
      </trkpt>
      <trkpt lat="-12.1272160" lon="-76.6151290">
        <ele>1970.3</ele>
        <time>2021-05-30T14:39:21Z</time>
      </trkpt>
      <trkpt lat="-12.1272230" lon="-76.6151230">
        <ele>1970.3</ele>
        <time>2021-05-30T14:39:22Z</time>
      </trkpt>
      <trkpt lat="-12.1272580" lon="-76.6150950">
        <ele>1970.7</ele>
        <time>2021-05-30T14:39:24Z</time>
      </trkpt>
      <trkpt lat="-12.1272700" lon="-76.6150850">
        <ele>1970.8</ele>
        <time>2021-05-30T14:39:25Z</time>
      </trkpt>
      <trkpt lat="-12.1272830" lon="-76.6150760">
        <ele>1971.0</ele>
        <time>2021-05-30T14:39:26Z</time>
      </trkpt>
      <trkpt lat="-12.1273140" lon="-76.6150550">
        <ele>1971.3</ele>
        <time>2021-05-30T14:39:27Z</time>
      </trkpt>
      <trkpt lat="-12.1273220" lon="-76.6150480">
        <ele>1971.4</ele>
        <time>2021-05-30T14:39:28Z</time>
      </trkpt>
      <trkpt lat="-12.1273450" lon="-76.6150240">
        <ele>1971.7</ele>
        <time>2021-05-30T14:39:30Z</time>
      </trkpt>
      <trkpt lat="-12.1273510" lon="-76.6150170">
        <ele>1971.7</ele>
        <time>2021-05-30T14:39:31Z</time>
      </trkpt>
      <trkpt lat="-12.1273770" lon="-76.6149900">
        <ele>1972.0</ele>
        <time>2021-05-30T14:39:33Z</time>
      </trkpt>
      <trkpt lat="-12.1273910" lon="-76.6149760">
        <ele>1972.2</ele>
        <time>2021-05-30T14:39:34Z</time>
      </trkpt>
      <trkpt lat="-12.1274020" lon="-76.6149660">
        <ele>1972.3</ele>
        <time>2021-05-30T14:39:35Z</time>
      </trkpt>
      <trkpt lat="-12.1274230" lon="-76.6149450">
        <ele>1972.6</ele>
        <time>2021-05-30T14:39:36Z</time>
      </trkpt>
      <trkpt lat="-12.1274300" lon="-76.6149380">
        <ele>1972.7</ele>
        <time>2021-05-30T14:39:37Z</time>
      </trkpt>
      <trkpt lat="-12.1274490" lon="-76.6149140">
        <ele>1972.9</ele>
        <time>2021-05-30T14:39:38Z</time>
      </trkpt>
      <trkpt lat="-12.1274530" lon="-76.6149060">
        <ele>1973.0</ele>
        <time>2021-05-30T14:39:39Z</time>
      </trkpt>
      <trkpt lat="-12.1274640" lon="-76.6148880">
        <ele>1973.2</ele>
        <time>2021-05-30T14:39:40Z</time>
      </trkpt>
      <trkpt lat="-12.1274730" lon="-76.6148690">
        <ele>1973.3</ele>
        <time>2021-05-30T14:39:42Z</time>
      </trkpt>
      <trkpt lat="-12.1274790" lon="-76.6148530">
        <ele>1973.5</ele>
        <time>2021-05-30T14:39:43Z</time>
      </trkpt>
      <trkpt lat="-12.1274860" lon="-76.6148340">
        <ele>1973.6</ele>
        <time>2021-05-30T14:39:44Z</time>
      </trkpt>
      <trkpt lat="-12.1274970" lon="-76.6148130">
        <ele>1973.8</ele>
        <time>2021-05-30T14:39:45Z</time>
      </trkpt>
      <trkpt lat="-12.1275000" lon="-76.6147930">
        <ele>1974.0</ele>
        <time>2021-05-30T14:39:47Z</time>
      </trkpt>
      <trkpt lat="-12.1275000" lon="-76.6147740">
        <ele>1974.2</ele>
        <time>2021-05-30T14:39:48Z</time>
      </trkpt>
      <trkpt lat="-12.1275140" lon="-76.6147500">
        <ele>1974.4</ele>
        <time>2021-05-30T14:39:50Z</time>
      </trkpt>
      <trkpt lat="-12.1275280" lon="-76.6147300">
        <ele>1974.6</ele>
        <time>2021-05-30T14:39:51Z</time>
      </trkpt>
      <trkpt lat="-12.1275390" lon="-76.6147100">
        <ele>1974.8</ele>
        <time>2021-05-30T14:39:53Z</time>
      </trkpt>
      <trkpt lat="-12.1275450" lon="-76.6146900">
        <ele>1974.9</ele>
        <time>2021-05-30T14:39:54Z</time>
      </trkpt>
      <trkpt lat="-12.1275550" lon="-76.6146630">
        <ele>1975.2</ele>
        <time>2021-05-30T14:39:56Z</time>
      </trkpt>
      <trkpt lat="-12.1275630" lon="-76.6146490">
        <ele>1975.3</ele>
        <time>2021-05-30T14:39:57Z</time>
      </trkpt>
      <trkpt lat="-12.1275730" lon="-76.6146360">
        <ele>1975.5</ele>
        <time>2021-05-30T14:39:58Z</time>
      </trkpt>
      <trkpt lat="-12.1275840" lon="-76.6146210">
        <ele>1975.6</ele>
        <time>2021-05-30T14:39:59Z</time>
      </trkpt>
      <trkpt lat="-12.1275920" lon="-76.6146040">
        <ele>1975.8</ele>
        <time>2021-05-30T14:40:00Z</time>
      </trkpt>
      <trkpt lat="-12.1275990" lon="-76.6145840">
        <ele>1975.9</ele>
        <time>2021-05-30T14:40:02Z</time>
      </trkpt>
      <trkpt lat="-12.1276010" lon="-76.6145520">
        <ele>1976.2</ele>
        <time>2021-05-30T14:40:04Z</time>
      </trkpt>
      <trkpt lat="-12.1276040" lon="-76.6145280">
        <ele>1976.4</ele>
        <time>2021-05-30T14:40:05Z</time>
      </trkpt>
      <trkpt lat="-12.1276060" lon="-76.6145070">
        <ele>1976.6</ele>
        <time>2021-05-30T14:40:07Z</time>
      </trkpt>
      <trkpt lat="-12.1276070" lon="-76.6144900">
        <ele>1976.7</ele>
        <time>2021-05-30T14:40:08Z</time>
      </trkpt>
      <trkpt lat="-12.1276110" lon="-76.6144700">
        <ele>1976.9</ele>
        <time>2021-05-30T14:40:09Z</time>
      </trkpt>
      <trkpt lat="-12.1276190" lon="-76.6144400">
        <ele>1977.1</ele>
        <time>2021-05-30T14:40:10Z</time>
      </trkpt>
      <trkpt lat="-12.1276220" lon="-76.6144270">
        <ele>1977.2</ele>
        <time>2021-05-30T14:40:11Z</time>
      </trkpt>
      <trkpt lat="-12.1276280" lon="-76.6143910">
        <ele>1977.5</ele>
        <time>2021-05-30T14:40:13Z</time>
      </trkpt>
      <trkpt lat="-12.1276290" lon="-76.6143810">
        <ele>1977.6</ele>
        <time>2021-05-30T14:40:14Z</time>
      </trkpt>
      <trkpt lat="-12.1276350" lon="-76.6143520">
        <ele>1977.9</ele>
        <time>2021-05-30T14:40:15Z</time>
      </trkpt>
      <trkpt lat="-12.1276390" lon="-76.6143400">
        <ele>1978.0</ele>
        <time>2021-05-30T14:40:16Z</time>
      </trkpt>
      <trkpt lat="-12.1276470" lon="-76.6143220">
        <ele>1978.1</ele>
        <time>2021-05-30T14:40:17Z</time>
      </trkpt>
      <trkpt lat="-12.1276570" lon="-76.6143040">
        <ele>1978.3</ele>
        <time>2021-05-30T14:40:19Z</time>
      </trkpt>
      <trkpt lat="-12.1276650" lon="-76.6142910">
        <ele>1978.4</ele>
        <time>2021-05-30T14:40:20Z</time>
      </trkpt>
      <trkpt lat="-12.1276720" lon="-76.6142780">
        <ele>1978.5</ele>
        <time>2021-05-30T14:40:21Z</time>
      </trkpt>
      <trkpt lat="-12.1276930" lon="-76.6142560">
        <ele>1978.8</ele>
        <time>2021-05-30T14:40:22Z</time>
      </trkpt>
      <trkpt lat="-12.1277010" lon="-76.6142480">
        <ele>1978.9</ele>
        <time>2021-05-30T14:40:23Z</time>
      </trkpt>
      <trkpt lat="-12.1277180" lon="-76.6142320">
        <ele>1979.1</ele>
        <time>2021-05-30T14:40:24Z</time>
      </trkpt>
      <trkpt lat="-12.1277270" lon="-76.6142160">
        <ele>1979.2</ele>
        <time>2021-05-30T14:40:26Z</time>
      </trkpt>
      <trkpt lat="-12.1277390" lon="-76.6141900">
        <ele>1979.5</ele>
        <time>2021-05-30T14:40:27Z</time>
      </trkpt>
      <trkpt lat="-12.1277580" lon="-76.6141500">
        <ele>1979.8</ele>
        <time>2021-05-30T14:40:29Z</time>
      </trkpt>
      <trkpt lat="-12.1277640" lon="-76.6141370">
        <ele>1980.0</ele>
        <time>2021-05-30T14:40:30Z</time>
      </trkpt>
      <trkpt lat="-12.1277700" lon="-76.6141240">
        <ele>1980.1</ele>
        <time>2021-05-30T14:40:31Z</time>
      </trkpt>
      <trkpt lat="-12.1277770" lon="-76.6140980">
        <ele>1980.3</ele>
        <time>2021-05-30T14:40:32Z</time>
      </trkpt>
      <trkpt lat="-12.1277830" lon="-76.6140660">
        <ele>1980.6</ele>
        <time>2021-05-30T14:40:34Z</time>
      </trkpt>
      <trkpt lat="-12.1277840" lon="-76.6140560">
        <ele>1980.6</ele>
        <time>2021-05-30T14:40:35Z</time>
      </trkpt>
      <trkpt lat="-12.1277890" lon="-76.6140450">
        <ele>1980.7</ele>
        <time>2021-05-30T14:40:36Z</time>
      </trkpt>
      <trkpt lat="-12.1277980" lon="-76.6140300">
        <ele>1980.9</ele>
        <time>2021-05-30T14:40:38Z</time>
      </trkpt>
      <trkpt lat="-12.1278050" lon="-76.6140150">
        <ele>1981.0</ele>
        <time>2021-05-30T14:40:39Z</time>
      </trkpt>
      <trkpt lat="-12.1278080" lon="-76.6140020">
        <ele>1981.1</ele>
        <time>2021-05-30T14:40:40Z</time>
      </trkpt>
      <trkpt lat="-12.1278110" lon="-76.6139890">
        <ele>1981.2</ele>
        <time>2021-05-30T14:40:41Z</time>
      </trkpt>
      <trkpt lat="-12.1278120" lon="-76.6139770">
        <ele>1981.3</ele>
        <time>2021-05-30T14:40:42Z</time>
      </trkpt>
      <trkpt lat="-12.1278120" lon="-76.6139590">
        <ele>1981.5</ele>
        <time>2021-05-30T14:40:44Z</time>
      </trkpt>
      <trkpt lat="-12.1278090" lon="-76.6139440">
        <ele>1981.6</ele>
        <time>2021-05-30T14:40:45Z</time>
      </trkpt>
      <trkpt lat="-12.1278060" lon="-76.6139290">
        <ele>1981.7</ele>
        <time>2021-05-30T14:40:46Z</time>
      </trkpt>
      <trkpt lat="-12.1278010" lon="-76.6139160">
        <ele>1981.9</ele>
        <time>2021-05-30T14:40:47Z</time>
      </trkpt>
      <trkpt lat="-12.1277960" lon="-76.6138980">
        <ele>1982.0</ele>
        <time>2021-05-30T14:40:48Z</time>
      </trkpt>
      <trkpt lat="-12.1277940" lon="-76.6138700">
        <ele>1982.2</ele>
        <time>2021-05-30T14:40:49Z</time>
      </trkpt>
      <trkpt lat="-12.1277930" lon="-76.6138590">
        <ele>1982.3</ele>
        <time>2021-05-30T14:40:50Z</time>
      </trkpt>
      <trkpt lat="-12.1277960" lon="-76.6138280">
        <ele>1982.6</ele>
        <time>2021-05-30T14:40:52Z</time>
      </trkpt>
      <trkpt lat="-12.1277970" lon="-76.6138190">
        <ele>1982.7</ele>
        <time>2021-05-30T14:40:53Z</time>
      </trkpt>
      <trkpt lat="-12.1278050" lon="-76.6138000">
        <ele>1982.8</ele>
        <time>2021-05-30T14:40:54Z</time>
      </trkpt>
      <trkpt lat="-12.1278190" lon="-76.6137830">
        <ele>1983.0</ele>
        <time>2021-05-30T14:40:56Z</time>
      </trkpt>
      <trkpt lat="-12.1278300" lon="-76.6137740">
        <ele>1983.1</ele>
        <time>2021-05-30T14:40:57Z</time>
      </trkpt>
      <trkpt lat="-12.1278470" lon="-76.6137680">
        <ele>1983.3</ele>
        <time>2021-05-30T14:40:58Z</time>
      </trkpt>
      <trkpt lat="-12.1278760" lon="-76.6137520">
        <ele>1983.6</ele>
        <time>2021-05-30T14:40:59Z</time>
      </trkpt>
      <trkpt lat="-12.1278860" lon="-76.6137460">
        <ele>1983.7</ele>
        <time>2021-05-30T14:41:00Z</time>
      </trkpt>
      <trkpt lat="-12.1279190" lon="-76.6137300">
        <ele>1984.0</ele>
        <time>2021-05-30T14:41:02Z</time>
      </trkpt>
      <trkpt lat="-12.1279310" lon="-76.6137250">
        <ele>1984.1</ele>
        <time>2021-05-30T14:41:03Z</time>
      </trkpt>
      <trkpt lat="-12.1279490" lon="-76.6137190">
        <ele>1984.2</ele>
        <time>2021-05-30T14:41:04Z</time>
      </trkpt>
      <trkpt lat="-12.1279740" lon="-76.6137150">
        <ele>1984.4</ele>
        <time>2021-05-30T14:41:06Z</time>
      </trkpt>
      <trkpt lat="-12.1280100" lon="-76.6137090">
        <ele>1984.7</ele>
        <time>2021-05-30T14:41:07Z</time>
      </trkpt>
      <trkpt lat="-12.1280240" lon="-76.6137060">
        <ele>1984.9</ele>
        <time>2021-05-30T14:41:08Z</time>
      </trkpt>
      <trkpt lat="-12.1280500" lon="-76.6137040">
        <ele>1985.1</ele>
        <time>2021-05-30T14:41:09Z</time>
      </trkpt>
      <trkpt lat="-12.1280870" lon="-76.6137020">
        <ele>1985.4</ele>
        <time>2021-05-30T14:41:11Z</time>
      </trkpt>
      <trkpt lat="-12.1281070" lon="-76.6137020">
        <ele>1985.6</ele>
        <time>2021-05-30T14:41:12Z</time>
      </trkpt>
      <trkpt lat="-12.1281320" lon="-76.6137030">
        <ele>1985.8</ele>
        <time>2021-05-30T14:41:14Z</time>
      </trkpt>
      <trkpt lat="-12.1281600" lon="-76.6137010">
        <ele>1986.0</ele>
        <time>2021-05-30T14:41:15Z</time>
      </trkpt>
      <trkpt lat="-12.1281790" lon="-76.6137000">
        <ele>1986.2</ele>
        <time>2021-05-30T14:41:16Z</time>
      </trkpt>
      <trkpt lat="-12.1282060" lon="-76.6137000">
        <ele>1986.4</ele>
        <time>2021-05-30T14:41:18Z</time>
      </trkpt>
      <trkpt lat="-12.1282360" lon="-76.6137110">
        <ele>1986.7</ele>
        <time>2021-05-30T14:41:19Z</time>
      </trkpt>
      <trkpt lat="-12.1282460" lon="-76.6137140">
        <ele>1986.7</ele>
        <time>2021-05-30T14:41:20Z</time>
      </trkpt>
      <trkpt lat="-12.1282760" lon="-76.6137230">
        <ele>1987.0</ele>
        <time>2021-05-30T14:41:22Z</time>
      </trkpt>
      <trkpt lat="-12.1282830" lon="-76.6137260">
        <ele>1987.1</ele>
        <time>2021-05-30T14:41:23Z</time>
      </trkpt>
      <trkpt lat="-12.1283130" lon="-76.6137380">
        <ele>1987.3</ele>
        <time>2021-05-30T14:41:24Z</time>
      </trkpt>
      <trkpt lat="-12.1283240" lon="-76.6137410">
        <ele>1987.4</ele>
        <time>2021-05-30T14:41:25Z</time>
      </trkpt>
      <trkpt lat="-12.1283630" lon="-76.6137540">
        <ele>1987.8</ele>
        <time>2021-05-30T14:41:27Z</time>
      </trkpt>
      <trkpt lat="-12.1283770" lon="-76.6137580">
        <ele>1987.9</ele>
        <time>2021-05-30T14:41:28Z</time>
      </trkpt>
      <trkpt lat="-12.1284040" lon="-76.6137670">
        <ele>1988.1</ele>
        <time>2021-05-30T14:41:30Z</time>
      </trkpt>
      <trkpt lat="-12.1284250" lon="-76.6137740">
        <ele>1988.3</ele>
        <time>2021-05-30T14:41:31Z</time>
      </trkpt>
      <trkpt lat="-12.1284590" lon="-76.6137870">
        <ele>1988.6</ele>
        <time>2021-05-30T14:41:33Z</time>
      </trkpt>
      <trkpt lat="-12.1284910" lon="-76.6137940">
        <ele>1988.9</ele>
        <time>2021-05-30T14:41:34Z</time>
      </trkpt>
      <trkpt lat="-12.1285020" lon="-76.6137970">
        <ele>1989.0</ele>
        <time>2021-05-30T14:41:35Z</time>
      </trkpt>
      <trkpt lat="-12.1285310" lon="-76.6138020">
        <ele>1989.2</ele>
        <time>2021-05-30T14:41:36Z</time>
      </trkpt>
      <trkpt lat="-12.1285610" lon="-76.6138020">
        <ele>1989.5</ele>
        <time>2021-05-30T14:41:38Z</time>
      </trkpt>
      <trkpt lat="-12.1285710" lon="-76.6138030">
        <ele>1989.6</ele>
        <time>2021-05-30T14:41:39Z</time>
      </trkpt>
      <trkpt lat="-12.1286080" lon="-76.6138010">
        <ele>1989.9</ele>
        <time>2021-05-30T14:41:41Z</time>
      </trkpt>
      <trkpt lat="-12.1286460" lon="-76.6137940">
        <ele>1990.1</ele>
        <time>2021-05-30T14:41:42Z</time>
      </trkpt>
      <trkpt lat="-12.1286600" lon="-76.6137910">
        <ele>1990.2</ele>
        <time>2021-05-30T14:41:43Z</time>
      </trkpt>
      <trkpt lat="-12.1286770" lon="-76.6137860">
        <ele>1990.4</ele>
        <time>2021-05-30T14:41:44Z</time>
      </trkpt>
      <trkpt lat="-12.1286960" lon="-76.6137790">
        <ele>1990.6</ele>
        <time>2021-05-30T14:41:46Z</time>
      </trkpt>
      <trkpt lat="-12.1287260" lon="-76.6137700">
        <ele>1990.8</ele>
        <time>2021-05-30T14:41:47Z</time>
      </trkpt>
      <trkpt lat="-12.1287370" lon="-76.6137680">
        <ele>1990.9</ele>
        <time>2021-05-30T14:41:48Z</time>
      </trkpt>
      <trkpt lat="-12.1287660" lon="-76.6137600">
        <ele>1991.2</ele>
        <time>2021-05-30T14:41:49Z</time>
      </trkpt>
      <trkpt lat="-12.1287750" lon="-76.6137560">
        <ele>1991.3</ele>
        <time>2021-05-30T14:41:50Z</time>
      </trkpt>
      <trkpt lat="-12.1287870" lon="-76.6137470">
        <ele>1991.4</ele>
        <time>2021-05-30T14:41:51Z</time>
      </trkpt>
      <trkpt lat="-12.1288020" lon="-76.6137330">
        <ele>1991.6</ele>
        <time>2021-05-30T14:41:53Z</time>
      </trkpt>
      <trkpt lat="-12.1288190" lon="-76.6137150">
        <ele>1991.8</ele>
        <time>2021-05-30T14:41:54Z</time>
      </trkpt>
      <trkpt lat="-12.1288330" lon="-76.6136930">
        <ele>1992.1</ele>
        <time>2021-05-30T14:41:56Z</time>
      </trkpt>
      <trkpt lat="-12.1288450" lon="-76.6136710">
        <ele>1992.3</ele>
        <time>2021-05-30T14:41:57Z</time>
      </trkpt>
      <trkpt lat="-12.1288650" lon="-76.6136440">
        <ele>1992.6</ele>
        <time>2021-05-30T14:41:59Z</time>
      </trkpt>
      <trkpt lat="-12.1288870" lon="-76.6136080">
        <ele>1993.0</ele>
        <time>2021-05-30T14:42:01Z</time>
      </trkpt>
      <trkpt lat="-12.1289100" lon="-76.6135800">
        <ele>1993.3</ele>
        <time>2021-05-30T14:42:02Z</time>
      </trkpt>
      <trkpt lat="-12.1289280" lon="-76.6135490">
        <ele>1993.6</ele>
        <time>2021-05-30T14:42:04Z</time>
      </trkpt>
      <trkpt lat="-12.1289310" lon="-76.6135380">
        <ele>1993.7</ele>
        <time>2021-05-30T14:42:05Z</time>
      </trkpt>
      <trkpt lat="-12.1289360" lon="-76.6135240">
        <ele>1993.9</ele>
        <time>2021-05-30T14:42:06Z</time>
      </trkpt>
      <trkpt lat="-12.1289450" lon="-76.6135050">
        <ele>1994.0</ele>
        <time>2021-05-30T14:42:08Z</time>
      </trkpt>
      <trkpt lat="-12.1289550" lon="-76.6134930">
        <ele>1994.2</ele>
        <time>2021-05-30T14:42:09Z</time>
      </trkpt>
      <trkpt lat="-12.1289680" lon="-76.6134780">
        <ele>1994.4</ele>
        <time>2021-05-30T14:42:10Z</time>
      </trkpt>
      <trkpt lat="-12.1289730" lon="-76.6134660">
        <ele>1994.5</ele>
        <time>2021-05-30T14:42:12Z</time>
      </trkpt>
      <trkpt lat="-12.1289720" lon="-76.6134560">
        <ele>1994.6</ele>
        <time>2021-05-30T14:42:13Z</time>
      </trkpt>
      <trkpt lat="-12.1289810" lon="-76.6134370">
        <ele>1994.8</ele>
        <time>2021-05-30T14:42:15Z</time>
      </trkpt>
      <trkpt lat="-12.1289930" lon="-76.6134200">
        <ele>1994.9</ele>
        <time>2021-05-30T14:42:16Z</time>
      </trkpt>
      <trkpt lat="-12.1289990" lon="-76.6134140">
        <ele>1995.0</ele>
        <time>2021-05-30T14:42:17Z</time>
      </trkpt>
      <trkpt lat="-12.1290060" lon="-76.6134070">
        <ele>1995.1</ele>
        <time>2021-05-30T14:42:18Z</time>
      </trkpt>
      <trkpt lat="-12.1290220" lon="-76.6133840">
        <ele>1995.4</ele>
        <time>2021-05-30T14:42:20Z</time>
      </trkpt>
      <trkpt lat="-12.1290270" lon="-76.6133700">
        <ele>1995.5</ele>
        <time>2021-05-30T14:42:21Z</time>
      </trkpt>
      <trkpt lat="-12.1290300" lon="-76.6133560">
        <ele>1995.6</ele>
        <time>2021-05-30T14:42:22Z</time>
      </trkpt>
      <trkpt lat="-12.1290360" lon="-76.6133330">
        <ele>1995.8</ele>
        <time>2021-05-30T14:42:23Z</time>
      </trkpt>
      <trkpt lat="-12.1290410" lon="-76.6133190">
        <ele>1996.0</ele>
        <time>2021-05-30T14:42:25Z</time>
      </trkpt>
      <trkpt lat="-12.1290490" lon="-76.6133060">
        <ele>1996.1</ele>
        <time>2021-05-30T14:42:26Z</time>
      </trkpt>
      <trkpt lat="-12.1290590" lon="-76.6132890">
        <ele>1996.3</ele>
        <time>2021-05-30T14:42:27Z</time>
      </trkpt>
      <trkpt lat="-12.1290680" lon="-76.6132760">
        <ele>1996.4</ele>
        <time>2021-05-30T14:42:28Z</time>
      </trkpt>
      <trkpt lat="-12.1290780" lon="-76.6132630">
        <ele>1996.6</ele>
        <time>2021-05-30T14:42:30Z</time>
      </trkpt>
      <trkpt lat="-12.1290950" lon="-76.6132460">
        <ele>1996.8</ele>
        <time>2021-05-30T14:42:31Z</time>
      </trkpt>
      <trkpt lat="-12.1291110" lon="-76.6132320">
        <ele>1997.0</ele>
        <time>2021-05-30T14:42:33Z</time>
      </trkpt>
      <trkpt lat="-12.1291220" lon="-76.6132230">
        <ele>1997.1</ele>
        <time>2021-05-30T14:42:34Z</time>
      </trkpt>
      <trkpt lat="-12.1291370" lon="-76.6132170">
        <ele>1997.2</ele>
        <time>2021-05-30T14:42:35Z</time>
      </trkpt>
      <trkpt lat="-12.1291680" lon="-76.6132150">
        <ele>1997.5</ele>
        <time>2021-05-30T14:42:36Z</time>
      </trkpt>
      <trkpt lat="-12.1291860" lon="-76.6132140">
        <ele>1997.7</ele>
        <time>2021-05-30T14:42:38Z</time>
      </trkpt>
      <trkpt lat="-12.1292040" lon="-76.6132140">
        <ele>1997.9</ele>
        <time>2021-05-30T14:42:39Z</time>
      </trkpt>
      <trkpt lat="-12.1292210" lon="-76.6132140">
        <ele>1998.0</ele>
        <time>2021-05-30T14:42:41Z</time>
      </trkpt>
      <trkpt lat="-12.1292390" lon="-76.6132130">
        <ele>1998.2</ele>
        <time>2021-05-30T14:42:42Z</time>
      </trkpt>
      <trkpt lat="-12.1292560" lon="-76.6132130">
        <ele>1998.3</ele>
        <time>2021-05-30T14:42:43Z</time>
      </trkpt>
      <trkpt lat="-12.1292900" lon="-76.6132130">
        <ele>1998.6</ele>
        <time>2021-05-30T14:42:45Z</time>
      </trkpt>
      <trkpt lat="-12.1292980" lon="-76.6132140">
        <ele>1998.7</ele>
        <time>2021-05-30T14:42:46Z</time>
      </trkpt>
      <trkpt lat="-12.1293330" lon="-76.6132150">
        <ele>1999.0</ele>
        <time>2021-05-30T14:42:47Z</time>
      </trkpt>
      <trkpt lat="-12.1293650" lon="-76.6132090">
        <ele>1999.3</ele>
        <time>2021-05-30T14:42:49Z</time>
      </trkpt>
      <trkpt lat="-12.1293850" lon="-76.6132020">
        <ele>1999.5</ele>
        <time>2021-05-30T14:42:50Z</time>
      </trkpt>
      <trkpt lat="-12.1293960" lon="-76.6131910">
        <ele>1999.7</ele>
        <time>2021-05-30T14:42:51Z</time>
      </trkpt>
      <trkpt lat="-12.1294100" lon="-76.6131490">
        <ele>2000.0</ele>
        <time>2021-05-30T14:42:53Z</time>
      </trkpt>
      <trkpt lat="-12.1294120" lon="-76.6131310">
        <ele>2000.2</ele>
        <time>2021-05-30T14:42:54Z</time>
      </trkpt>
      <trkpt lat="-12.1294120" lon="-76.6130970">
        <ele>2000.5</ele>
        <time>2021-05-30T14:42:56Z</time>
      </trkpt>
      <trkpt lat="-12.1294110" lon="-76.6130690">
        <ele>2000.8</ele>
        <time>2021-05-30T14:42:57Z</time>
      </trkpt>
      <trkpt lat="-12.1294140" lon="-76.6130320">
        <ele>2001.1</ele>
        <time>2021-05-30T14:42:58Z</time>
      </trkpt>
      <trkpt lat="-12.1294210" lon="-76.6129980">
        <ele>2001.4</ele>
        <time>2021-05-30T14:43:00Z</time>
      </trkpt>
      <trkpt lat="-12.1294280" lon="-76.6129780">
        <ele>2001.6</ele>
        <time>2021-05-30T14:43:01Z</time>
      </trkpt>
      <trkpt lat="-12.1294400" lon="-76.6129580">
        <ele>2001.8</ele>
        <time>2021-05-30T14:43:03Z</time>
      </trkpt>
      <trkpt lat="-12.1294630" lon="-76.6129340">
        <ele>2002.1</ele>
        <time>2021-05-30T14:43:05Z</time>
      </trkpt>
      <trkpt lat="-12.1294690" lon="-76.6129280">
        <ele>2002.2</ele>
        <time>2021-05-30T14:43:06Z</time>
      </trkpt>
      <trkpt lat="-12.1294970" lon="-76.6129080">
        <ele>2002.5</ele>
        <time>2021-05-30T14:43:07Z</time>
      </trkpt>
      <trkpt lat="-12.1295070" lon="-76.6129010">
        <ele>2002.6</ele>
        <time>2021-05-30T14:43:08Z</time>
      </trkpt>
      <trkpt lat="-12.1295250" lon="-76.6128890">
        <ele>2002.8</ele>
        <time>2021-05-30T14:43:09Z</time>
      </trkpt>
      <trkpt lat="-12.1295460" lon="-76.6128790">
        <ele>2003.0</ele>
        <time>2021-05-30T14:43:11Z</time>
      </trkpt>
      <trkpt lat="-12.1295720" lon="-76.6128650">
        <ele>2003.3</ele>
        <time>2021-05-30T14:43:12Z</time>
      </trkpt>
      <trkpt lat="-12.1295800" lon="-76.6128600">
        <ele>2003.3</ele>
        <time>2021-05-30T14:43:13Z</time>
      </trkpt>
      <trkpt lat="-12.1296120" lon="-76.6128450">
        <ele>2003.7</ele>
        <time>2021-05-30T14:43:14Z</time>
      </trkpt>
      <trkpt lat="-12.1296240" lon="-76.6128400">
        <ele>2003.8</ele>
        <time>2021-05-30T14:43:15Z</time>
      </trkpt>
      <trkpt lat="-12.1296530" lon="-76.6128300">
        <ele>2004.1</ele>
        <time>2021-05-30T14:43:17Z</time>
      </trkpt>
      <trkpt lat="-12.1296640" lon="-76.6128250">
        <ele>2004.2</ele>
        <time>2021-05-30T14:43:18Z</time>
      </trkpt>
      <trkpt lat="-12.1296800" lon="-76.6128170">
        <ele>2004.3</ele>
        <time>2021-05-30T14:43:19Z</time>
      </trkpt>
      <trkpt lat="-12.1297020" lon="-76.6128050">
        <ele>2004.6</ele>
        <time>2021-05-30T14:43:21Z</time>
      </trkpt>
      <trkpt lat="-12.1297170" lon="-76.6127960">
        <ele>2004.7</ele>
        <time>2021-05-30T14:43:22Z</time>
      </trkpt>
      <trkpt lat="-12.1297330" lon="-76.6127860">
        <ele>2004.9</ele>
        <time>2021-05-30T14:43:23Z</time>
      </trkpt>
      <trkpt lat="-12.1297520" lon="-76.6127640">
        <ele>2005.2</ele>
        <time>2021-05-30T14:43:24Z</time>
      </trkpt>
      <trkpt lat="-12.1297590" lon="-76.6127550">
        <ele>2005.3</ele>
        <time>2021-05-30T14:43:25Z</time>
      </trkpt>
      <trkpt lat="-12.1297800" lon="-76.6127300">
        <ele>2005.5</ele>
        <time>2021-05-30T14:43:27Z</time>
      </trkpt>
      <trkpt lat="-12.1297870" lon="-76.6127220">
        <ele>2005.6</ele>
        <time>2021-05-30T14:43:28Z</time>
      </trkpt>
      <trkpt lat="-12.1298000" lon="-76.6126980">
        <ele>2005.9</ele>
        <time>2021-05-30T14:43:30Z</time>
      </trkpt>
      <trkpt lat="-12.1298060" lon="-76.6126750">
        <ele>2006.1</ele>
        <time>2021-05-30T14:43:32Z</time>
      </trkpt>
      <trkpt lat="-12.1298130" lon="-76.6126600">
        <ele>2006.2</ele>
        <time>2021-05-30T14:43:33Z</time>
      </trkpt>
      <trkpt lat="-12.1298180" lon="-76.6126450">
        <ele>2006.4</ele>
        <time>2021-05-30T14:43:34Z</time>
      </trkpt>
      <trkpt lat="-12.1298270" lon="-76.6126260">
        <ele>2006.6</ele>
        <time>2021-05-30T14:43:36Z</time>
      </trkpt>
      <trkpt lat="-12.1298370" lon="-76.6126140">
        <ele>2006.7</ele>
        <time>2021-05-30T14:43:37Z</time>
      </trkpt>
      <trkpt lat="-12.1298470" lon="-76.6126000">
        <ele>2006.9</ele>
        <time>2021-05-30T14:43:39Z</time>
      </trkpt>
      <trkpt lat="-12.1298540" lon="-76.6125920">
        <ele>2007.0</ele>
        <time>2021-05-30T14:43:40Z</time>
      </trkpt>
      <trkpt lat="-12.1298630" lon="-76.6125720">
        <ele>2007.2</ele>
        <time>2021-05-30T14:43:41Z</time>
      </trkpt>
      <trkpt lat="-12.1298650" lon="-76.6125630">
        <ele>2007.2</ele>
        <time>2021-05-30T14:43:43Z</time>
      </trkpt>
      <trkpt lat="-12.1298680" lon="-76.6125540">
        <ele>2007.3</ele>
        <time>2021-05-30T14:43:44Z</time>
      </trkpt>
      <trkpt lat="-12.1298730" lon="-76.6125220">
        <ele>2007.6</ele>
        <time>2021-05-30T14:43:45Z</time>
      </trkpt>
      <trkpt lat="-12.1298750" lon="-76.6125100">
        <ele>2007.7</ele>
        <time>2021-05-30T14:43:46Z</time>
      </trkpt>
      <trkpt lat="-12.1298800" lon="-76.6124970">
        <ele>2007.8</ele>
        <time>2021-05-30T14:43:48Z</time>
      </trkpt>
      <trkpt lat="-12.1298840" lon="-76.6124750">
        <ele>2008.0</ele>
        <time>2021-05-30T14:43:49Z</time>
      </trkpt>
      <trkpt lat="-12.1298880" lon="-76.6124590">
        <ele>2008.2</ele>
        <time>2021-05-30T14:43:50Z</time>
      </trkpt>
      <trkpt lat="-12.1298930" lon="-76.6124440">
        <ele>2008.3</ele>
        <time>2021-05-30T14:43:51Z</time>
      </trkpt>
      <trkpt lat="-12.1299080" lon="-76.6124100">
        <ele>2008.7</ele>
        <time>2021-05-30T14:43:53Z</time>
      </trkpt>
      <trkpt lat="-12.1299120" lon="-76.6123990">
        <ele>2008.8</ele>
        <time>2021-05-30T14:43:54Z</time>
      </trkpt>
      <trkpt lat="-12.1299230" lon="-76.6123700">
        <ele>2009.0</ele>
        <time>2021-05-30T14:43:55Z</time>
      </trkpt>
      <trkpt lat="-12.1299400" lon="-76.6123460">
        <ele>2009.3</ele>
        <time>2021-05-30T14:43:57Z</time>
      </trkpt>
      <trkpt lat="-12.1299470" lon="-76.6123380">
        <ele>2009.4</ele>
        <time>2021-05-30T14:43:58Z</time>
      </trkpt>
      <trkpt lat="-12.1299690" lon="-76.6123200">
        <ele>2009.7</ele>
        <time>2021-05-30T14:44:00Z</time>
      </trkpt>
      <trkpt lat="-12.1299830" lon="-76.6123040">
        <ele>2009.8</ele>
        <time>2021-05-30T14:44:01Z</time>
      </trkpt>
      <trkpt lat="-12.1299910" lon="-76.6122950">
        <ele>2010.0</ele>
        <time>2021-05-30T14:44:02Z</time>
      </trkpt>
      <trkpt lat="-12.1300080" lon="-76.6122810">
        <ele>2010.2</ele>
        <time>2021-05-30T14:44:04Z</time>
      </trkpt>
      <trkpt lat="-12.1300160" lon="-76.6122690">
        <ele>2010.3</ele>
        <time>2021-05-30T14:44:05Z</time>
      </trkpt>
      <trkpt lat="-12.1300230" lon="-76.6122560">
        <ele>2010.4</ele>
        <time>2021-05-30T14:44:06Z</time>
      </trkpt>
      <trkpt lat="-12.1300320" lon="-76.6122460">
        <ele>2010.5</ele>
        <time>2021-05-30T14:44:07Z</time>
      </trkpt>
      <trkpt lat="-12.1300430" lon="-76.6122370">
        <ele>2010.7</ele>
        <time>2021-05-30T14:44:08Z</time>
      </trkpt>
      <trkpt lat="-12.1300580" lon="-76.6122250">
        <ele>2010.8</ele>
        <time>2021-05-30T14:44:10Z</time>
      </trkpt>
      <trkpt lat="-12.1300690" lon="-76.6122170">
        <ele>2011.0</ele>
        <time>2021-05-30T14:44:11Z</time>
      </trkpt>
      <trkpt lat="-12.1300790" lon="-76.6122090">
        <ele>2011.1</ele>
        <time>2021-05-30T14:44:12Z</time>
      </trkpt>
      <trkpt lat="-12.1300910" lon="-76.6122020">
        <ele>2011.2</ele>
        <time>2021-05-30T14:44:14Z</time>
      </trkpt>
      <trkpt lat="-12.1301040" lon="-76.6121930">
        <ele>2011.3</ele>
        <time>2021-05-30T14:44:15Z</time>
      </trkpt>
      <trkpt lat="-12.1301150" lon="-76.6121830">
        <ele>2011.5</ele>
        <time>2021-05-30T14:44:16Z</time>
      </trkpt>
      <trkpt lat="-12.1301380" lon="-76.6121660">
        <ele>2011.7</ele>
        <time>2021-05-30T14:44:17Z</time>
      </trkpt>
      <trkpt lat="-12.1301500" lon="-76.6121570">
        <ele>2011.9</ele>
        <time>2021-05-30T14:44:19Z</time>
      </trkpt>
      <trkpt lat="-12.1301610" lon="-76.6121490">
        <ele>2012.0</ele>
        <time>2021-05-30T14:44:21Z</time>
      </trkpt>
      <trkpt lat="-12.1301720" lon="-76.6121400">
        <ele>2012.1</ele>
        <time>2021-05-30T14:44:22Z</time>
      </trkpt>
      <trkpt lat="-12.1301810" lon="-76.6121370">
        <ele>2012.2</ele>
        <time>2021-05-30T14:44:23Z</time>
      </trkpt>
      <trkpt lat="-12.1301930" lon="-76.6121330">
        <ele>2012.3</ele>
        <time>2021-05-30T14:44:24Z</time>
      </trkpt>
      <trkpt lat="-12.1302100" lon="-76.6121270">
        <ele>2012.5</ele>
        <time>2021-05-30T14:44:26Z</time>
      </trkpt>
      <trkpt lat="-12.1302220" lon="-76.6121230">
        <ele>2012.6</ele>
        <time>2021-05-30T14:44:27Z</time>
      </trkpt>
      <trkpt lat="-12.1302390" lon="-76.6121190">
        <ele>2012.8</ele>
        <time>2021-05-30T14:44:28Z</time>
      </trkpt>
      <trkpt lat="-12.1302510" lon="-76.6121160">
        <ele>2012.9</ele>
        <time>2021-05-30T14:44:29Z</time>
      </trkpt>
      <trkpt lat="-12.1302690" lon="-76.6121130">
        <ele>2013.0</ele>
        <time>2021-05-30T14:44:31Z</time>
      </trkpt>
      <trkpt lat="-12.1302840" lon="-76.6121100">
        <ele>2013.2</ele>
        <time>2021-05-30T14:44:32Z</time>
      </trkpt>
      <trkpt lat="-12.1303030" lon="-76.6121060">
        <ele>2013.4</ele>
        <time>2021-05-30T14:44:33Z</time>
      </trkpt>
      <trkpt lat="-12.1303190" lon="-76.6121020">
        <ele>2013.5</ele>
        <time>2021-05-30T14:44:34Z</time>
      </trkpt>
      <trkpt lat="-12.1303330" lon="-76.6120990">
        <ele>2013.6</ele>
        <time>2021-05-30T14:44:36Z</time>
      </trkpt>
      <trkpt lat="-12.1303620" lon="-76.6120960">
        <ele>2013.9</ele>
        <time>2021-05-30T14:44:37Z</time>
      </trkpt>
      <trkpt lat="-12.1304010" lon="-76.6120870">
        <ele>2014.3</ele>
        <time>2021-05-30T14:44:39Z</time>
      </trkpt>
      <trkpt lat="-12.1304120" lon="-76.6120840">
        <ele>2014.4</ele>
        <time>2021-05-30T14:44:41Z</time>
      </trkpt>
      <trkpt lat="-12.1304240" lon="-76.6120810">
        <ele>2014.5</ele>
        <time>2021-05-30T14:44:42Z</time>
      </trkpt>
      <trkpt lat="-12.1304390" lon="-76.6120730">
        <ele>2014.6</ele>
        <time>2021-05-30T14:44:44Z</time>
      </trkpt>
      <trkpt lat="-12.1304480" lon="-76.6120600">
        <ele>2014.8</ele>
        <time>2021-05-30T14:44:45Z</time>
      </trkpt>
      <trkpt lat="-12.1304690" lon="-76.6120490">
        <ele>2015.0</ele>
        <time>2021-05-30T14:44:46Z</time>
      </trkpt>
      <trkpt lat="-12.1304780" lon="-76.6120420">
        <ele>2015.1</ele>
        <time>2021-05-30T14:44:48Z</time>
      </trkpt>
      <trkpt lat="-12.1304900" lon="-76.6120350">
        <ele>2015.2</ele>
        <time>2021-05-30T14:44:49Z</time>
      </trkpt>
      <trkpt lat="-12.1305030" lon="-76.6120230">
        <ele>2015.4</ele>
        <time>2021-05-30T14:44:50Z</time>
      </trkpt>
      <trkpt lat="-12.1305200" lon="-76.6120050">
        <ele>2015.6</ele>
        <time>2021-05-30T14:44:51Z</time>
      </trkpt>
      <trkpt lat="-12.1305360" lon="-76.6119910">
        <ele>2015.8</ele>
        <time>2021-05-30T14:44:53Z</time>
      </trkpt>
      <trkpt lat="-12.1305680" lon="-76.6119620">
        <ele>2016.2</ele>
        <time>2021-05-30T14:44:55Z</time>
      </trkpt>
      <trkpt lat="-12.1305780" lon="-76.6119510">
        <ele>2016.3</ele>
        <time>2021-05-30T14:44:56Z</time>
      </trkpt>
      <trkpt lat="-12.1305870" lon="-76.6119390">
        <ele>2016.4</ele>
        <time>2021-05-30T14:44:57Z</time>
      </trkpt>
      <trkpt lat="-12.1306130" lon="-76.6119160">
        <ele>2016.8</ele>
        <time>2021-05-30T14:44:59Z</time>
      </trkpt>
      <trkpt lat="-12.1306200" lon="-76.6119080">
        <ele>2016.9</ele>
        <time>2021-05-30T14:45:00Z</time>
      </trkpt>
      <trkpt lat="-12.1306420" lon="-76.6118820">
        <ele>2017.2</ele>
        <time>2021-05-30T14:45:01Z</time>
      </trkpt>
      <trkpt lat="-12.1306520" lon="-76.6118700">
        <ele>2017.3</ele>
        <time>2021-05-30T14:45:02Z</time>
      </trkpt>
      <trkpt lat="-12.1306750" lon="-76.6118440">
        <ele>2017.6</ele>
        <time>2021-05-30T14:45:04Z</time>
      </trkpt>
      <trkpt lat="-12.1306830" lon="-76.6118360">
        <ele>2017.7</ele>
        <time>2021-05-30T14:45:05Z</time>
      </trkpt>
      <trkpt lat="-12.1307030" lon="-76.6118140">
        <ele>2018.0</ele>
        <time>2021-05-30T14:45:06Z</time>
      </trkpt>
      <trkpt lat="-12.1307230" lon="-76.6117860">
        <ele>2018.3</ele>
        <time>2021-05-30T14:45:08Z</time>
      </trkpt>
      <trkpt lat="-12.1307270" lon="-76.6117780">
        <ele>2018.4</ele>
        <time>2021-05-30T14:45:09Z</time>
      </trkpt>
      <trkpt lat="-12.1307430" lon="-76.6117540">
        <ele>2018.6</ele>
        <time>2021-05-30T14:45:10Z</time>
      </trkpt>
      <trkpt lat="-12.1307480" lon="-76.6117450">
        <ele>2018.7</ele>
        <time>2021-05-30T14:45:11Z</time>
      </trkpt>
      <trkpt lat="-12.1307540" lon="-76.6117270">
        <ele>2018.9</ele>
        <time>2021-05-30T14:45:12Z</time>
      </trkpt>
      <trkpt lat="-12.1307630" lon="-76.6117070">
        <ele>2019.1</ele>
        <time>2021-05-30T14:45:14Z</time>
      </trkpt>
      <trkpt lat="-12.1307780" lon="-76.6116780">
        <ele>2019.4</ele>
        <time>2021-05-30T14:45:16Z</time>
      </trkpt>
      <trkpt lat="-12.1307900" lon="-76.6116580">
        <ele>2019.6</ele>
        <time>2021-05-30T14:45:17Z</time>
      </trkpt>
      <trkpt lat="-12.1307990" lon="-76.6116420">
        <ele>2019.7</ele>
        <time>2021-05-30T14:45:19Z</time>
      </trkpt>
      <trkpt lat="-12.1308160" lon="-76.6116150">
        <ele>2020.0</ele>
        <time>2021-05-30T14:45:20Z</time>
      </trkpt>
      <trkpt lat="-12.1308220" lon="-76.6116050">
        <ele>2020.1</ele>
        <time>2021-05-30T14:45:21Z</time>
      </trkpt>
      <trkpt lat="-12.1308340" lon="-76.6115770">
        <ele>2020.4</ele>
        <time>2021-05-30T14:45:23Z</time>
      </trkpt>
      <trkpt lat="-12.1308370" lon="-76.6115690">
        <ele>2020.5</ele>
        <time>2021-05-30T14:45:24Z</time>
      </trkpt>
      <trkpt lat="-12.1308440" lon="-76.6115490">
        <ele>2020.7</ele>
        <time>2021-05-30T14:45:25Z</time>
      </trkpt>
      <trkpt lat="-12.1308490" lon="-76.6115380">
        <ele>2020.8</ele>
        <time>2021-05-30T14:45:27Z</time>
      </trkpt>
      <trkpt lat="-12.1308500" lon="-76.6115190">
        <ele>2020.9</ele>
        <time>2021-05-30T14:45:28Z</time>
      </trkpt>
      <trkpt lat="-12.1308450" lon="-76.6114920">
        <ele>2021.2</ele>
        <time>2021-05-30T14:45:30Z</time>
      </trkpt>
      <trkpt lat="-12.1308430" lon="-76.6114750">
        <ele>2021.3</ele>
        <time>2021-05-30T14:45:31Z</time>
      </trkpt>
      <trkpt lat="-12.1308400" lon="-76.6114570">
        <ele>2021.5</ele>
        <time>2021-05-30T14:45:32Z</time>
      </trkpt>
      <trkpt lat="-12.1308330" lon="-76.6114110">
        <ele>2021.9</ele>
        <time>2021-05-30T14:45:34Z</time>
      </trkpt>
      <trkpt lat="-12.1308310" lon="-76.6113960">
        <ele>2022.1</ele>
        <time>2021-05-30T14:45:35Z</time>
      </trkpt>
      <trkpt lat="-12.1308290" lon="-76.6113800">
        <ele>2022.2</ele>
        <time>2021-05-30T14:45:36Z</time>
      </trkpt>
      <trkpt lat="-12.1308240" lon="-76.6113460">
        <ele>2022.5</ele>
        <time>2021-05-30T14:45:38Z</time>
      </trkpt>
      <trkpt lat="-12.1308220" lon="-76.6113370">
        <ele>2022.6</ele>
        <time>2021-05-30T14:45:39Z</time>
      </trkpt>
      <trkpt lat="-12.1308190" lon="-76.6113060">
        <ele>2022.9</ele>
        <time>2021-05-30T14:45:40Z</time>
      </trkpt>
      <trkpt lat="-12.1308180" lon="-76.6112910">
        <ele>2023.0</ele>
        <time>2021-05-30T14:45:42Z</time>
      </trkpt>
      <trkpt lat="-12.1308160" lon="-76.6112760">
        <ele>2023.1</ele>
        <time>2021-05-30T14:45:44Z</time>
      </trkpt>
      <trkpt lat="-12.1308140" lon="-76.6112610">
        <ele>2023.3</ele>
        <time>2021-05-30T14:45:45Z</time>
      </trkpt>
      <trkpt lat="-12.1308170" lon="-76.6112480">
        <ele>2023.4</ele>
        <time>2021-05-30T14:45:46Z</time>
      </trkpt>
      <trkpt lat="-12.1308210" lon="-76.6112280">
        <ele>2023.6</ele>
        <time>2021-05-30T14:45:48Z</time>
      </trkpt>
      <trkpt lat="-12.1308230" lon="-76.6112140">
        <ele>2023.7</ele>
        <time>2021-05-30T14:45:49Z</time>
      </trkpt>
      <trkpt lat="-12.1308080" lon="-76.6112040">
        <ele>2023.9</ele>
        <time>2021-05-30T14:45:50Z</time>
      </trkpt>
      <trkpt lat="-12.1308050" lon="-76.6111780">
        <ele>2024.1</ele>
        <time>2021-05-30T14:45:51Z</time>
      </trkpt>
      <trkpt lat="-12.1308100" lon="-76.6111690">
        <ele>2024.2</ele>
        <time>2021-05-30T14:45:53Z</time>
      </trkpt>
      <trkpt lat="-12.1308140" lon="-76.6111590">
        <ele>2024.3</ele>
        <time>2021-05-30T14:45:54Z</time>
      </trkpt>
      <trkpt lat="-12.1308190" lon="-76.6111500">
        <ele>2024.4</ele>
        <time>2021-05-30T14:45:55Z</time>
      </trkpt>
      <trkpt lat="-12.1308230" lon="-76.6111400">
        <ele>2024.5</ele>
        <time>2021-05-30T14:45:57Z</time>
      </trkpt>
      <trkpt lat="-12.1308270" lon="-76.6111300">
        <ele>2024.6</ele>
        <time>2021-05-30T14:45:58Z</time>
      </trkpt>
      <trkpt lat="-12.1308320" lon="-76.6111210">
        <ele>2024.6</ele>
        <time>2021-05-30T14:46:00Z</time>
      </trkpt>
      <trkpt lat="-12.1308360" lon="-76.6111110">
        <ele>2024.7</ele>
        <time>2021-05-30T14:46:01Z</time>
      </trkpt>
      <trkpt lat="-12.1308420" lon="-76.6111050">
        <ele>2024.8</ele>
        <time>2021-05-30T14:46:02Z</time>
      </trkpt>
      <trkpt lat="-12.1308520" lon="-76.6110890">
        <ele>2025.0</ele>
        <time>2021-05-30T14:46:03Z</time>
      </trkpt>
      <trkpt lat="-12.1308650" lon="-76.6110770">
        <ele>2025.1</ele>
        <time>2021-05-30T14:46:05Z</time>
      </trkpt>
      <trkpt lat="-12.1308840" lon="-76.6110570">
        <ele>2025.4</ele>
        <time>2021-05-30T14:46:07Z</time>
      </trkpt>
      <trkpt lat="-12.1309000" lon="-76.6110430">
        <ele>2025.6</ele>
        <time>2021-05-30T14:46:08Z</time>
      </trkpt>
      <trkpt lat="-12.1309110" lon="-76.6110340">
        <ele>2025.7</ele>
        <time>2021-05-30T14:46:09Z</time>
      </trkpt>
      <trkpt lat="-12.1309180" lon="-76.6110240">
        <ele>2025.8</ele>
        <time>2021-05-30T14:46:10Z</time>
      </trkpt>
      <trkpt lat="-12.1309350" lon="-76.6110090">
        <ele>2026.0</ele>
        <time>2021-05-30T14:46:12Z</time>
      </trkpt>
      <trkpt lat="-12.1309450" lon="-76.6109980">
        <ele>2026.2</ele>
        <time>2021-05-30T14:46:13Z</time>
      </trkpt>
      <trkpt lat="-12.1309550" lon="-76.6109860">
        <ele>2026.3</ele>
        <time>2021-05-30T14:46:14Z</time>
      </trkpt>
      <trkpt lat="-12.1309800" lon="-76.6109730">
        <ele>2026.6</ele>
        <time>2021-05-30T14:46:16Z</time>
      </trkpt>
      <trkpt lat="-12.1310090" lon="-76.6109620">
        <ele>2026.8</ele>
        <time>2021-05-30T14:46:17Z</time>
      </trkpt>
      <trkpt lat="-12.1310260" lon="-76.6109530">
        <ele>2027.0</ele>
        <time>2021-05-30T14:46:19Z</time>
      </trkpt>
      <trkpt lat="-12.1310400" lon="-76.6109450">
        <ele>2027.2</ele>
        <time>2021-05-30T14:46:20Z</time>
      </trkpt>
      <trkpt lat="-12.1310870" lon="-76.6109140">
        <ele>2027.7</ele>
        <time>2021-05-30T14:46:23Z</time>
      </trkpt>
      <trkpt lat="-12.1310990" lon="-76.6109030">
        <ele>2027.8</ele>
        <time>2021-05-30T14:46:24Z</time>
      </trkpt>
      <trkpt lat="-12.1311120" lon="-76.6108910">
        <ele>2028.0</ele>
        <time>2021-05-30T14:46:25Z</time>
      </trkpt>
      <trkpt lat="-12.1311420" lon="-76.6108800">
        <ele>2028.3</ele>
        <time>2021-05-30T14:46:27Z</time>
      </trkpt>
      <trkpt lat="-12.1311530" lon="-76.6108780">
        <ele>2028.4</ele>
        <time>2021-05-30T14:46:28Z</time>
      </trkpt>
      <trkpt lat="-12.1311990" lon="-76.6108730">
        <ele>2028.8</ele>
        <time>2021-05-30T14:46:30Z</time>
      </trkpt>
      <trkpt lat="-12.1312150" lon="-76.6108740">
        <ele>2028.9</ele>
        <time>2021-05-30T14:46:31Z</time>
      </trkpt>
      <trkpt lat="-12.1312310" lon="-76.6108740">
        <ele>2029.1</ele>
        <time>2021-05-30T14:46:32Z</time>
      </trkpt>
      <trkpt lat="-12.1312760" lon="-76.6108860">
        <ele>2029.5</ele>
        <time>2021-05-30T14:46:34Z</time>
      </trkpt>
      <trkpt lat="-12.1312920" lon="-76.6108860">
        <ele>2029.6</ele>
        <time>2021-05-30T14:46:35Z</time>
      </trkpt>
      <trkpt lat="-12.1313070" lon="-76.6108850">
        <ele>2029.8</ele>
        <time>2021-05-30T14:46:36Z</time>
      </trkpt>
      <trkpt lat="-12.1313420" lon="-76.6108720">
        <ele>2030.1</ele>
        <time>2021-05-30T14:46:38Z</time>
      </trkpt>
      <trkpt lat="-12.1313500" lon="-76.6108680">
        <ele>2030.2</ele>
        <time>2021-05-30T14:46:39Z</time>
      </trkpt>
      <trkpt lat="-12.1313790" lon="-76.6108530">
        <ele>2030.5</ele>
        <time>2021-05-30T14:46:41Z</time>
      </trkpt>
      <trkpt lat="-12.1314020" lon="-76.6108380">
        <ele>2030.7</ele>
        <time>2021-05-30T14:46:42Z</time>
      </trkpt>
      <trkpt lat="-12.1314300" lon="-76.6108140">
        <ele>2031.1</ele>
        <time>2021-05-30T14:46:44Z</time>
      </trkpt>
      <trkpt lat="-12.1314380" lon="-76.6108070">
        <ele>2031.2</ele>
        <time>2021-05-30T14:46:45Z</time>
      </trkpt>
      <trkpt lat="-12.1314510" lon="-76.6107970">
        <ele>2031.3</ele>
        <time>2021-05-30T14:46:46Z</time>
      </trkpt>
      <trkpt lat="-12.1314610" lon="-76.6107910">
        <ele>2031.4</ele>
        <time>2021-05-30T14:46:47Z</time>
      </trkpt>
      <trkpt lat="-12.1314710" lon="-76.6107800">
        <ele>2031.6</ele>
        <time>2021-05-30T14:46:49Z</time>
      </trkpt>
      <trkpt lat="-12.1314820" lon="-76.6107690">
        <ele>2031.7</ele>
        <time>2021-05-30T14:46:50Z</time>
      </trkpt>
      <trkpt lat="-12.1314910" lon="-76.6107580">
        <ele>2031.8</ele>
        <time>2021-05-30T14:46:51Z</time>
      </trkpt>
      <trkpt lat="-12.1315030" lon="-76.6107310">
        <ele>2032.1</ele>
        <time>2021-05-30T14:46:53Z</time>
      </trkpt>
      <trkpt lat="-12.1315080" lon="-76.6107020">
        <ele>2032.3</ele>
        <time>2021-05-30T14:46:54Z</time>
      </trkpt>
      <trkpt lat="-12.1315110" lon="-76.6106650">
        <ele>2032.7</ele>
        <time>2021-05-30T14:46:56Z</time>
      </trkpt>
      <trkpt lat="-12.1315120" lon="-76.6106520">
        <ele>2032.8</ele>
        <time>2021-05-30T14:46:57Z</time>
      </trkpt>
      <trkpt lat="-12.1315170" lon="-76.6106250">
        <ele>2033.0</ele>
        <time>2021-05-30T14:46:58Z</time>
      </trkpt>
      <trkpt lat="-12.1315160" lon="-76.6105990">
        <ele>2033.3</ele>
        <time>2021-05-30T14:47:00Z</time>
      </trkpt>
      <trkpt lat="-12.1315150" lon="-76.6105800">
        <ele>2033.4</ele>
        <time>2021-05-30T14:47:01Z</time>
      </trkpt>
      <trkpt lat="-12.1315200" lon="-76.6105500">
        <ele>2033.7</ele>
        <time>2021-05-30T14:47:03Z</time>
      </trkpt>
      <trkpt lat="-12.1315220" lon="-76.6105200">
        <ele>2034.0</ele>
        <time>2021-05-30T14:47:04Z</time>
      </trkpt>
      <trkpt lat="-12.1315220" lon="-76.6105090">
        <ele>2034.1</ele>
        <time>2021-05-30T14:47:05Z</time>
      </trkpt>
      <trkpt lat="-12.1315170" lon="-76.6104840">
        <ele>2034.3</ele>
        <time>2021-05-30T14:47:07Z</time>
      </trkpt>
      <trkpt lat="-12.1315120" lon="-76.6104780">
        <ele>2034.4</ele>
        <time>2021-05-30T14:47:08Z</time>
      </trkpt>
      <trkpt lat="-12.1315070" lon="-76.6104710">
        <ele>2034.4</ele>
        <time>2021-05-30T14:47:09Z</time>
      </trkpt>
      <trkpt lat="-12.1315010" lon="-76.6104570">
        <ele>2034.6</ele>
        <time>2021-05-30T14:47:11Z</time>
      </trkpt>
      <trkpt lat="-12.1314970" lon="-76.6104450">
        <ele>2034.7</ele>
        <time>2021-05-30T14:47:12Z</time>
      </trkpt>
      <trkpt lat="-12.1314920" lon="-76.6104330">
        <ele>2034.8</ele>
        <time>2021-05-30T14:47:13Z</time>
      </trkpt>
      <trkpt lat="-12.1314800" lon="-76.6104200">
        <ele>2035.0</ele>
        <time>2021-05-30T14:47:14Z</time>
      </trkpt>
      <trkpt lat="-12.1314670" lon="-76.6104110">
        <ele>2035.1</ele>
        <time>2021-05-30T14:47:16Z</time>
      </trkpt>
      <trkpt lat="-12.1314590" lon="-76.6104040">
        <ele>2035.2</ele>
        <time>2021-05-30T14:47:17Z</time>
      </trkpt>
      <trkpt lat="-12.1314360" lon="-76.6103880">
        <ele>2035.5</ele>
        <time>2021-05-30T14:47:18Z</time>
      </trkpt>
      <trkpt lat="-12.1314230" lon="-76.6103810">
        <ele>2035.6</ele>
        <time>2021-05-30T14:47:19Z</time>
      </trkpt>
      <trkpt lat="-12.1313750" lon="-76.6103780">
        <ele>2036.0</ele>
        <time>2021-05-30T14:47:21Z</time>
      </trkpt>
      <trkpt lat="-12.1313590" lon="-76.6103780">
        <ele>2036.2</ele>
        <time>2021-05-30T14:47:23Z</time>
      </trkpt>
      <trkpt lat="-12.1313420" lon="-76.6103780">
        <ele>2036.3</ele>
        <time>2021-05-30T14:47:24Z</time>
      </trkpt>
      <trkpt lat="-12.1313260" lon="-76.6103780">
        <ele>2036.5</ele>
        <time>2021-05-30T14:47:25Z</time>
      </trkpt>
      <trkpt lat="-12.1313070" lon="-76.6103770">
        <ele>2036.7</ele>
        <time>2021-05-30T14:47:26Z</time>
      </trkpt>
      <trkpt lat="-12.1312750" lon="-76.6103810">
        <ele>2036.9</ele>
        <time>2021-05-30T14:47:28Z</time>
      </trkpt>
      <trkpt lat="-12.1312480" lon="-76.6103840">
        <ele>2037.2</ele>
        <time>2021-05-30T14:47:29Z</time>
      </trkpt>
      <trkpt lat="-12.1312130" lon="-76.6103850">
        <ele>2037.5</ele>
        <time>2021-05-30T14:47:31Z</time>
      </trkpt>
      <trkpt lat="-12.1311820" lon="-76.6103900">
        <ele>2037.8</ele>
        <time>2021-05-30T14:47:32Z</time>
      </trkpt>
      <trkpt lat="-12.1311560" lon="-76.6103950">
        <ele>2038.0</ele>
        <time>2021-05-30T14:47:33Z</time>
      </trkpt>
      <trkpt lat="-12.1311100" lon="-76.6104040">
        <ele>2038.5</ele>
        <time>2021-05-30T14:47:35Z</time>
      </trkpt>
      <trkpt lat="-12.1310720" lon="-76.6104150">
        <ele>2038.8</ele>
        <time>2021-05-30T14:47:37Z</time>
      </trkpt>
      <trkpt lat="-12.1310560" lon="-76.6104160">
        <ele>2039.0</ele>
        <time>2021-05-30T14:47:38Z</time>
      </trkpt>
      <trkpt lat="-12.1310370" lon="-76.6104140">
        <ele>2039.1</ele>
        <time>2021-05-30T14:47:39Z</time>
      </trkpt>
      <trkpt lat="-12.1310020" lon="-76.6104030">
        <ele>2039.5</ele>
        <time>2021-05-30T14:47:40Z</time>
      </trkpt>
      <trkpt lat="-12.1309910" lon="-76.6104010">
        <ele>2039.6</ele>
        <time>2021-05-30T14:47:41Z</time>
      </trkpt>
      <trkpt lat="-12.1309660" lon="-76.6103960">
        <ele>2039.8</ele>
        <time>2021-05-30T14:47:42Z</time>
      </trkpt>
      <trkpt lat="-12.1309450" lon="-76.6103890">
        <ele>2040.0</ele>
        <time>2021-05-30T14:47:44Z</time>
      </trkpt>
      <trkpt lat="-12.1309110" lon="-76.6103760">
        <ele>2040.3</ele>
        <time>2021-05-30T14:47:45Z</time>
      </trkpt>
      <trkpt lat="-12.1308850" lon="-76.6103630">
        <ele>2040.6</ele>
        <time>2021-05-30T14:47:47Z</time>
      </trkpt>
      <trkpt lat="-12.1308610" lon="-76.6103500">
        <ele>2040.8</ele>
        <time>2021-05-30T14:47:48Z</time>
      </trkpt>
      <trkpt lat="-12.1308360" lon="-76.6103320">
        <ele>2041.1</ele>
        <time>2021-05-30T14:47:49Z</time>
      </trkpt>
      <trkpt lat="-12.1308060" lon="-76.6103010">
        <ele>2041.5</ele>
        <time>2021-05-30T14:47:51Z</time>
      </trkpt>
      <trkpt lat="-12.1307940" lon="-76.6102900">
        <ele>2041.7</ele>
        <time>2021-05-30T14:47:52Z</time>
      </trkpt>
      <trkpt lat="-12.1307780" lon="-76.6102730">
        <ele>2041.9</ele>
        <time>2021-05-30T14:47:53Z</time>
      </trkpt>
      <trkpt lat="-12.1307600" lon="-76.6102550">
        <ele>2042.1</ele>
        <time>2021-05-30T14:47:55Z</time>
      </trkpt>
      <trkpt lat="-12.1307320" lon="-76.6102300">
        <ele>2042.4</ele>
        <time>2021-05-30T14:47:56Z</time>
      </trkpt>
      <trkpt lat="-12.1307240" lon="-76.6102240">
        <ele>2042.5</ele>
        <time>2021-05-30T14:47:57Z</time>
      </trkpt>
      <trkpt lat="-12.1307110" lon="-76.6102050">
        <ele>2042.7</ele>
        <time>2021-05-30T14:47:58Z</time>
      </trkpt>
      <trkpt lat="-12.1306980" lon="-76.6101790">
        <ele>2043.0</ele>
        <time>2021-05-30T14:48:00Z</time>
      </trkpt>
      <trkpt lat="-12.1306920" lon="-76.6101560">
        <ele>2043.2</ele>
        <time>2021-05-30T14:48:02Z</time>
      </trkpt>
      <trkpt lat="-12.1306890" lon="-76.6101240">
        <ele>2043.5</ele>
        <time>2021-05-30T14:48:04Z</time>
      </trkpt>
      <trkpt lat="-12.1306980" lon="-76.6100970">
        <ele>2043.7</ele>
        <time>2021-05-30T14:48:05Z</time>
      </trkpt>
      <trkpt lat="-12.1307180" lon="-76.6100710">
        <ele>2044.0</ele>
        <time>2021-05-30T14:48:06Z</time>
      </trkpt>
      <trkpt lat="-12.1307230" lon="-76.6100640">
        <ele>2044.1</ele>
        <time>2021-05-30T14:48:07Z</time>
      </trkpt>
      <trkpt lat="-12.1307650" lon="-76.6100490">
        <ele>2044.5</ele>
        <time>2021-05-30T14:48:09Z</time>
      </trkpt>
      <trkpt lat="-12.1307930" lon="-76.6100360">
        <ele>2044.8</ele>
        <time>2021-05-30T14:48:10Z</time>
      </trkpt>
      <trkpt lat="-12.1308170" lon="-76.6100240">
        <ele>2045.0</ele>
        <time>2021-05-30T14:48:12Z</time>
      </trkpt>
      <trkpt lat="-12.1308480" lon="-76.6100160">
        <ele>2045.3</ele>
        <time>2021-05-30T14:48:14Z</time>
      </trkpt>
      <trkpt lat="-12.1308640" lon="-76.6100110">
        <ele>2045.5</ele>
        <time>2021-05-30T14:48:15Z</time>
      </trkpt>
      <trkpt lat="-12.1308750" lon="-76.6100090">
        <ele>2045.6</ele>
        <time>2021-05-30T14:48:16Z</time>
      </trkpt>
      <trkpt lat="-12.1309010" lon="-76.6100040">
        <ele>2045.8</ele>
        <time>2021-05-30T14:48:17Z</time>
      </trkpt>
      <trkpt lat="-12.1309300" lon="-76.6099920">
        <ele>2046.1</ele>
        <time>2021-05-30T14:48:19Z</time>
      </trkpt>
      <trkpt lat="-12.1309580" lon="-76.6099790">
        <ele>2046.4</ele>
        <time>2021-05-30T14:48:20Z</time>
      </trkpt>
      <trkpt lat="-12.1309840" lon="-76.6099670">
        <ele>2046.6</ele>
        <time>2021-05-30T14:48:21Z</time>
      </trkpt>
      <trkpt lat="-12.1310100" lon="-76.6099430">
        <ele>2047.0</ele>
        <time>2021-05-30T14:48:23Z</time>
      </trkpt>
      <trkpt lat="-12.1310190" lon="-76.6099330">
        <ele>2047.1</ele>
        <time>2021-05-30T14:48:24Z</time>
      </trkpt>
      <trkpt lat="-12.1310280" lon="-76.6099170">
        <ele>2047.2</ele>
        <time>2021-05-30T14:48:25Z</time>
      </trkpt>
      <trkpt lat="-12.1310420" lon="-76.6098980">
        <ele>2047.5</ele>
        <time>2021-05-30T14:48:27Z</time>
      </trkpt>
      <trkpt lat="-12.1310630" lon="-76.6098790">
        <ele>2047.7</ele>
        <time>2021-05-30T14:48:28Z</time>
      </trkpt>
      <trkpt lat="-12.1310710" lon="-76.6098720">
        <ele>2047.8</ele>
        <time>2021-05-30T14:48:29Z</time>
      </trkpt>
      <trkpt lat="-12.1310910" lon="-76.6098590">
        <ele>2048.0</ele>
        <time>2021-05-30T14:48:30Z</time>
      </trkpt>
      <trkpt lat="-12.1311100" lon="-76.6098450">
        <ele>2048.2</ele>
        <time>2021-05-30T14:48:32Z</time>
      </trkpt>
      <trkpt lat="-12.1311240" lon="-76.6098360">
        <ele>2048.4</ele>
        <time>2021-05-30T14:48:33Z</time>
      </trkpt>
      <trkpt lat="-12.1311370" lon="-76.6098270">
        <ele>2048.5</ele>
        <time>2021-05-30T14:48:34Z</time>
      </trkpt>
      <trkpt lat="-12.1311620" lon="-76.6098050">
        <ele>2048.8</ele>
        <time>2021-05-30T14:48:35Z</time>
      </trkpt>
      <trkpt lat="-12.1311750" lon="-76.6097930">
        <ele>2049.0</ele>
        <time>2021-05-30T14:48:37Z</time>
      </trkpt>
      <trkpt lat="-12.1311870" lon="-76.6097800">
        <ele>2049.1</ele>
        <time>2021-05-30T14:48:38Z</time>
      </trkpt>
      <trkpt lat="-12.1312000" lon="-76.6097670">
        <ele>2049.3</ele>
        <time>2021-05-30T14:48:39Z</time>
      </trkpt>
      <trkpt lat="-12.1312240" lon="-76.6097420">
        <ele>2049.6</ele>
        <time>2021-05-30T14:48:41Z</time>
      </trkpt>
      <trkpt lat="-12.1312310" lon="-76.6097320">
        <ele>2049.7</ele>
        <time>2021-05-30T14:48:42Z</time>
      </trkpt>
      <trkpt lat="-12.1312490" lon="-76.6097110">
        <ele>2050.0</ele>
        <time>2021-05-30T14:48:43Z</time>
      </trkpt>
      <trkpt lat="-12.1312550" lon="-76.6097020">
        <ele>2050.1</ele>
        <time>2021-05-30T14:48:44Z</time>
      </trkpt>
      <trkpt lat="-12.1312670" lon="-76.6096850">
        <ele>2050.3</ele>
        <time>2021-05-30T14:48:45Z</time>
      </trkpt>
      <trkpt lat="-12.1312830" lon="-76.6096620">
        <ele>2050.5</ele>
        <time>2021-05-30T14:48:47Z</time>
      </trkpt>
      <trkpt lat="-12.1312970" lon="-76.6096320">
        <ele>2050.8</ele>
        <time>2021-05-30T14:48:48Z</time>
      </trkpt>
      <trkpt lat="-12.1313130" lon="-76.6096030">
        <ele>2051.1</ele>
        <time>2021-05-30T14:48:50Z</time>
      </trkpt>
      <trkpt lat="-12.1313180" lon="-76.6095940">
        <ele>2051.2</ele>
        <time>2021-05-30T14:48:51Z</time>
      </trkpt>
      <trkpt lat="-12.1313340" lon="-76.6095630">
        <ele>2051.5</ele>
        <time>2021-05-30T14:48:52Z</time>
      </trkpt>
      <trkpt lat="-12.1313420" lon="-76.6095370">
        <ele>2051.8</ele>
        <time>2021-05-30T14:48:53Z</time>
      </trkpt>
      <trkpt lat="-12.1313470" lon="-76.6095160">
        <ele>2051.9</ele>
        <time>2021-05-30T14:48:55Z</time>
      </trkpt>
      <trkpt lat="-12.1313580" lon="-76.6094850">
        <ele>2052.2</ele>
        <time>2021-05-30T14:48:56Z</time>
      </trkpt>
      <trkpt lat="-12.1313620" lon="-76.6094730">
        <ele>2052.4</ele>
        <time>2021-05-30T14:48:57Z</time>
      </trkpt>
      <trkpt lat="-12.1313650" lon="-76.6094460">
        <ele>2052.6</ele>
        <time>2021-05-30T14:48:58Z</time>
      </trkpt>
      <trkpt lat="-12.1313660" lon="-76.6094350">
        <ele>2052.7</ele>
        <time>2021-05-30T14:48:59Z</time>
      </trkpt>
      <trkpt lat="-12.1313700" lon="-76.6093990">
        <ele>2053.0</ele>
        <time>2021-05-30T14:49:01Z</time>
      </trkpt>
      <trkpt lat="-12.1313700" lon="-76.6093890">
        <ele>2053.1</ele>
        <time>2021-05-30T14:49:02Z</time>
      </trkpt>
      <trkpt lat="-12.1313720" lon="-76.6093710">
        <ele>2053.3</ele>
        <time>2021-05-30T14:49:03Z</time>
      </trkpt>
      <trkpt lat="-12.1313710" lon="-76.6093390">
        <ele>2053.5</ele>
        <time>2021-05-30T14:49:05Z</time>
      </trkpt>
      <trkpt lat="-12.1313730" lon="-76.6093160">
        <ele>2053.8</ele>
        <time>2021-05-30T14:49:06Z</time>
      </trkpt>
      <trkpt lat="-12.1313780" lon="-76.6092910">
        <ele>2054.0</ele>
        <time>2021-05-30T14:49:08Z</time>
      </trkpt>
      <trkpt lat="-12.1313920" lon="-76.6092630">
        <ele>2054.3</ele>
        <time>2021-05-30T14:49:09Z</time>
      </trkpt>
      <trkpt lat="-12.1313990" lon="-76.6092510">
        <ele>2054.4</ele>
        <time>2021-05-30T14:49:10Z</time>
      </trkpt>
      <trkpt lat="-12.1314340" lon="-76.6092230">
        <ele>2054.8</ele>
        <time>2021-05-30T14:49:12Z</time>
      </trkpt>
      <trkpt lat="-12.1314490" lon="-76.6092180">
        <ele>2054.9</ele>
        <time>2021-05-30T14:49:13Z</time>
      </trkpt>
      <trkpt lat="-12.1314650" lon="-76.6092130">
        <ele>2055.1</ele>
        <time>2021-05-30T14:49:14Z</time>
      </trkpt>
      <trkpt lat="-12.1314970" lon="-76.6092220">
        <ele>2055.4</ele>
        <time>2021-05-30T14:49:16Z</time>
      </trkpt>
      <trkpt lat="-12.1315060" lon="-76.6092260">
        <ele>2055.5</ele>
        <time>2021-05-30T14:49:17Z</time>
      </trkpt>
      <trkpt lat="-12.1315360" lon="-76.6092380">
        <ele>2055.8</ele>
        <time>2021-05-30T14:49:18Z</time>
      </trkpt>
      <trkpt lat="-12.1315460" lon="-76.6092420">
        <ele>2055.9</ele>
        <time>2021-05-30T14:49:19Z</time>
      </trkpt>
      <trkpt lat="-12.1315660" lon="-76.6092480">
        <ele>2056.1</ele>
        <time>2021-05-30T14:49:20Z</time>
      </trkpt>
      <trkpt lat="-12.1315880" lon="-76.6092570">
        <ele>2056.3</ele>
        <time>2021-05-30T14:49:22Z</time>
      </trkpt>
      <trkpt lat="-12.1316190" lon="-76.6092650">
        <ele>2056.6</ele>
        <time>2021-05-30T14:49:23Z</time>
      </trkpt>
      <trkpt lat="-12.1316310" lon="-76.6092680">
        <ele>2056.7</ele>
        <time>2021-05-30T14:49:24Z</time>
      </trkpt>
      <trkpt lat="-12.1316590" lon="-76.6092760">
        <ele>2056.9</ele>
        <time>2021-05-30T14:49:26Z</time>
      </trkpt>
      <trkpt lat="-12.1316680" lon="-76.6092790">
        <ele>2057.0</ele>
        <time>2021-05-30T14:49:27Z</time>
      </trkpt>
      <trkpt lat="-12.1316970" lon="-76.6092890">
        <ele>2057.3</ele>
        <time>2021-05-30T14:49:28Z</time>
      </trkpt>
      <trkpt lat="-12.1317210" lon="-76.6092950">
        <ele>2057.5</ele>
        <time>2021-05-30T14:49:30Z</time>
      </trkpt>
      <trkpt lat="-12.1317480" lon="-76.6093030">
        <ele>2057.8</ele>
        <time>2021-05-30T14:49:32Z</time>
      </trkpt>
      <trkpt lat="-12.1317660" lon="-76.6093080">
        <ele>2057.9</ele>
        <time>2021-05-30T14:49:33Z</time>
      </trkpt>
      <trkpt lat="-12.1317980" lon="-76.6093060">
        <ele>2058.2</ele>
        <time>2021-05-30T14:49:35Z</time>
      </trkpt>
      <trkpt lat="-12.1318300" lon="-76.6093020">
        <ele>2058.5</ele>
        <time>2021-05-30T14:49:36Z</time>
      </trkpt>
      <trkpt lat="-12.1318370" lon="-76.6092980">
        <ele>2058.6</ele>
        <time>2021-05-30T14:49:37Z</time>
      </trkpt>
      <trkpt lat="-12.1318560" lon="-76.6092840">
        <ele>2058.8</ele>
        <time>2021-05-30T14:49:39Z</time>
      </trkpt>
      <trkpt lat="-12.1318900" lon="-76.6092810">
        <ele>2059.1</ele>
        <time>2021-05-30T14:49:41Z</time>
      </trkpt>
      <trkpt lat="-12.1319190" lon="-76.6092810">
        <ele>2059.4</ele>
        <time>2021-05-30T14:49:42Z</time>
      </trkpt>
      <trkpt lat="-12.1319280" lon="-76.6092810">
        <ele>2059.5</ele>
        <time>2021-05-30T14:49:43Z</time>
      </trkpt>
      <trkpt lat="-12.1319490" lon="-76.6092810">
        <ele>2059.7</ele>
        <time>2021-05-30T14:49:45Z</time>
      </trkpt>
      <trkpt lat="-12.1319630" lon="-76.6092820">
        <ele>2059.8</ele>
        <time>2021-05-30T14:49:46Z</time>
      </trkpt>
      <trkpt lat="-12.1319940" lon="-76.6092840">
        <ele>2060.1</ele>
        <time>2021-05-30T14:49:47Z</time>
      </trkpt>
      <trkpt lat="-12.1320080" lon="-76.6092860">
        <ele>2060.2</ele>
        <time>2021-05-30T14:49:48Z</time>
      </trkpt>
      <trkpt lat="-12.1320570" lon="-76.6092920">
        <ele>2060.7</ele>
        <time>2021-05-30T14:49:50Z</time>
      </trkpt>
      <trkpt lat="-12.1320770" lon="-76.6092940">
        <ele>2060.8</ele>
        <time>2021-05-30T14:49:51Z</time>
      </trkpt>
      <trkpt lat="-12.1320970" lon="-76.6092950">
        <ele>2061.0</ele>
        <time>2021-05-30T14:49:52Z</time>
      </trkpt>
      <trkpt lat="-12.1321330" lon="-76.6093040">
        <ele>2061.4</ele>
        <time>2021-05-30T14:49:54Z</time>
      </trkpt>
      <trkpt lat="-12.1321450" lon="-76.6093080">
        <ele>2061.5</ele>
        <time>2021-05-30T14:49:55Z</time>
      </trkpt>
      <trkpt lat="-12.1321750" lon="-76.6093150">
        <ele>2061.7</ele>
        <time>2021-05-30T14:49:57Z</time>
      </trkpt>
      <trkpt lat="-12.1321860" lon="-76.6093170">
        <ele>2061.8</ele>
        <time>2021-05-30T14:49:58Z</time>
      </trkpt>
      <trkpt lat="-12.1322200" lon="-76.6093150">
        <ele>2062.2</ele>
        <time>2021-05-30T14:50:00Z</time>
      </trkpt>
      <trkpt lat="-12.1322300" lon="-76.6093130">
        <ele>2062.2</ele>
        <time>2021-05-30T14:50:01Z</time>
      </trkpt>
      <trkpt lat="-12.1322590" lon="-76.6093070">
        <ele>2062.5</ele>
        <time>2021-05-30T14:50:02Z</time>
      </trkpt>
      <trkpt lat="-12.1322670" lon="-76.6093050">
        <ele>2062.6</ele>
        <time>2021-05-30T14:50:03Z</time>
      </trkpt>
      <trkpt lat="-12.1322840" lon="-76.6093000">
        <ele>2062.8</ele>
        <time>2021-05-30T14:50:05Z</time>
      </trkpt>
      <trkpt lat="-12.1322970" lon="-76.6092920">
        <ele>2062.9</ele>
        <time>2021-05-30T14:50:06Z</time>
      </trkpt>
      <trkpt lat="-12.1323290" lon="-76.6092760">
        <ele>2063.2</ele>
        <time>2021-05-30T14:50:08Z</time>
      </trkpt>
      <trkpt lat="-12.1323600" lon="-76.6092580">
        <ele>2063.5</ele>
        <time>2021-05-30T14:50:09Z</time>
      </trkpt>
      <trkpt lat="-12.1323700" lon="-76.6092500">
        <ele>2063.7</ele>
        <time>2021-05-30T14:50:10Z</time>
      </trkpt>
      <trkpt lat="-12.1323850" lon="-76.6092380">
        <ele>2063.8</ele>
        <time>2021-05-30T14:50:11Z</time>
      </trkpt>
      <trkpt lat="-12.1324070" lon="-76.6092240">
        <ele>2064.1</ele>
        <time>2021-05-30T14:50:13Z</time>
      </trkpt>
      <trkpt lat="-12.1324380" lon="-76.6092120">
        <ele>2064.4</ele>
        <time>2021-05-30T14:50:14Z</time>
      </trkpt>
      <trkpt lat="-12.1324480" lon="-76.6092080">
        <ele>2064.5</ele>
        <time>2021-05-30T14:50:15Z</time>
      </trkpt>
      <trkpt lat="-12.1324880" lon="-76.6091980">
        <ele>2064.8</ele>
        <time>2021-05-30T14:50:17Z</time>
      </trkpt>
      <trkpt lat="-12.1325190" lon="-76.6091950">
        <ele>2065.1</ele>
        <time>2021-05-30T14:50:18Z</time>
      </trkpt>
      <trkpt lat="-12.1325290" lon="-76.6091940">
        <ele>2065.2</ele>
        <time>2021-05-30T14:50:19Z</time>
      </trkpt>
      <trkpt lat="-12.1325660" lon="-76.6091970">
        <ele>2065.5</ele>
        <time>2021-05-30T14:50:20Z</time>
      </trkpt>
      <trkpt lat="-12.1325770" lon="-76.6091980">
        <ele>2065.6</ele>
        <time>2021-05-30T14:50:21Z</time>
      </trkpt>
      <trkpt lat="-12.1326090" lon="-76.6092020">
        <ele>2065.9</ele>
        <time>2021-05-30T14:50:23Z</time>
      </trkpt>
      <trkpt lat="-12.1326180" lon="-76.6092020">
        <ele>2066.0</ele>
        <time>2021-05-30T14:50:24Z</time>
      </trkpt>
      <trkpt lat="-12.1326480" lon="-76.6092040">
        <ele>2066.3</ele>
        <time>2021-05-30T14:50:25Z</time>
      </trkpt>
      <trkpt lat="-12.1326610" lon="-76.6092050">
        <ele>2066.4</ele>
        <time>2021-05-30T14:50:26Z</time>
      </trkpt>
      <trkpt lat="-12.1327080" lon="-76.6091980">
        <ele>2066.8</ele>
        <time>2021-05-30T14:50:28Z</time>
      </trkpt>
      <trkpt lat="-12.1327270" lon="-76.6091930">
        <ele>2067.0</ele>
        <time>2021-05-30T14:50:30Z</time>
      </trkpt>
      <trkpt lat="-12.1327450" lon="-76.6091870">
        <ele>2067.2</ele>
        <time>2021-05-30T14:50:31Z</time>
      </trkpt>
      <trkpt lat="-12.1327740" lon="-76.6091680">
        <ele>2067.5</ele>
        <time>2021-05-30T14:50:33Z</time>
      </trkpt>
      <trkpt lat="-12.1327830" lon="-76.6091600">
        <ele>2067.6</ele>
        <time>2021-05-30T14:50:34Z</time>
      </trkpt>
      <trkpt lat="-12.1328160" lon="-76.6091390">
        <ele>2068.0</ele>
        <time>2021-05-30T14:50:36Z</time>
      </trkpt>
      <trkpt lat="-12.1328270" lon="-76.6091310">
        <ele>2068.1</ele>
        <time>2021-05-30T14:50:37Z</time>
      </trkpt>
      <trkpt lat="-12.1328440" lon="-76.6091170">
        <ele>2068.3</ele>
        <time>2021-05-30T14:50:38Z</time>
      </trkpt>
      <trkpt lat="-12.1328560" lon="-76.6091070">
        <ele>2068.4</ele>
        <time>2021-05-30T14:50:40Z</time>
      </trkpt>
      <trkpt lat="-12.1328660" lon="-76.6090970">
        <ele>2068.6</ele>
        <time>2021-05-30T14:50:41Z</time>
      </trkpt>
      <trkpt lat="-12.1328740" lon="-76.6090860">
        <ele>2068.7</ele>
        <time>2021-05-30T14:50:43Z</time>
      </trkpt>
      <trkpt lat="-12.1328900" lon="-76.6090760">
        <ele>2068.9</ele>
        <time>2021-05-30T14:50:44Z</time>
      </trkpt>
      <trkpt lat="-12.1329050" lon="-76.6090660">
        <ele>2069.0</ele>
        <time>2021-05-30T14:50:46Z</time>
      </trkpt>
      <trkpt lat="-12.1329190" lon="-76.6090580">
        <ele>2069.2</ele>
        <time>2021-05-30T14:50:47Z</time>
      </trkpt>
      <trkpt lat="-12.1329350" lon="-76.6090490">
        <ele>2069.3</ele>
        <time>2021-05-30T14:50:48Z</time>
      </trkpt>
      <trkpt lat="-12.1329490" lon="-76.6090430">
        <ele>2069.5</ele>
        <time>2021-05-30T14:50:49Z</time>
      </trkpt>
      <trkpt lat="-12.1329740" lon="-76.6090380">
        <ele>2069.7</ele>
        <time>2021-05-30T14:50:51Z</time>
      </trkpt>
      <trkpt lat="-12.1329940" lon="-76.6090400">
        <ele>2069.9</ele>
        <time>2021-05-30T14:50:52Z</time>
      </trkpt>
      <trkpt lat="-12.1330100" lon="-76.6090440">
        <ele>2070.0</ele>
        <time>2021-05-30T14:50:53Z</time>
      </trkpt>
      <trkpt lat="-12.1330410" lon="-76.6090560">
        <ele>2070.3</ele>
        <time>2021-05-30T14:50:55Z</time>
      </trkpt>
      <trkpt lat="-12.1330520" lon="-76.6090620">
        <ele>2070.4</ele>
        <time>2021-05-30T14:50:56Z</time>
      </trkpt>
      <trkpt lat="-12.1330690" lon="-76.6090740">
        <ele>2070.6</ele>
        <time>2021-05-30T14:50:57Z</time>
      </trkpt>
      <trkpt lat="-12.1330850" lon="-76.6090860">
        <ele>2070.8</ele>
        <time>2021-05-30T14:50:59Z</time>
      </trkpt>
      <trkpt lat="-12.1331070" lon="-76.6091030">
        <ele>2071.1</ele>
        <time>2021-05-30T14:51:00Z</time>
      </trkpt>
      <trkpt lat="-12.1331150" lon="-76.6091150">
        <ele>2071.2</ele>
        <time>2021-05-30T14:51:01Z</time>
      </trkpt>
      <trkpt lat="-12.1331230" lon="-76.6091340">
        <ele>2071.4</ele>
        <time>2021-05-30T14:51:03Z</time>
      </trkpt>
      <trkpt lat="-12.1331340" lon="-76.6091600">
        <ele>2071.6</ele>
        <time>2021-05-30T14:51:04Z</time>
      </trkpt>
      <trkpt lat="-12.1331550" lon="-76.6091850">
        <ele>2071.9</ele>
        <time>2021-05-30T14:51:06Z</time>
      </trkpt>
      <trkpt lat="-12.1331630" lon="-76.6091930">
        <ele>2072.0</ele>
        <time>2021-05-30T14:51:07Z</time>
      </trkpt>
      <trkpt lat="-12.1331880" lon="-76.6092110">
        <ele>2072.3</ele>
        <time>2021-05-30T14:51:08Z</time>
      </trkpt>
      <trkpt lat="-12.1331970" lon="-76.6092160">
        <ele>2072.4</ele>
        <time>2021-05-30T14:51:09Z</time>
      </trkpt>
      <trkpt lat="-12.1332240" lon="-76.6092320">
        <ele>2072.7</ele>
        <time>2021-05-30T14:51:11Z</time>
      </trkpt>
      <trkpt lat="-12.1332320" lon="-76.6092420">
        <ele>2072.8</ele>
        <time>2021-05-30T14:51:12Z</time>
      </trkpt>
      <trkpt lat="-12.1332550" lon="-76.6092500">
        <ele>2073.0</ele>
        <time>2021-05-30T14:51:13Z</time>
      </trkpt>
      <trkpt lat="-12.1332740" lon="-76.6092470">
        <ele>2073.2</ele>
        <time>2021-05-30T14:51:15Z</time>
      </trkpt>
      <trkpt lat="-12.1332900" lon="-76.6092430">
        <ele>2073.3</ele>
        <time>2021-05-30T14:51:16Z</time>
      </trkpt>
      <trkpt lat="-12.1333050" lon="-76.6092380">
        <ele>2073.5</ele>
        <time>2021-05-30T14:51:17Z</time>
      </trkpt>
      <trkpt lat="-12.1333280" lon="-76.6092330">
        <ele>2073.7</ele>
        <time>2021-05-30T14:51:18Z</time>
      </trkpt>
      <trkpt lat="-12.1333450" lon="-76.6092260">
        <ele>2073.9</ele>
        <time>2021-05-30T14:51:20Z</time>
      </trkpt>
      <trkpt lat="-12.1333580" lon="-76.6092180">
        <ele>2074.0</ele>
        <time>2021-05-30T14:51:21Z</time>
      </trkpt>
      <trkpt lat="-12.1333710" lon="-76.6092100">
        <ele>2074.0</ele>
        <time>2021-05-30T14:51:22Z</time>
      </trkpt>
      <trkpt lat="-12.1333980" lon="-76.6091930">
        <ele>2074.3</ele>
        <time>2021-05-30T14:51:23Z</time>
      </trkpt>
      <trkpt lat="-12.1334040" lon="-76.6091880">
        <ele>2074.3</ele>
        <time>2021-05-30T14:51:24Z</time>
      </trkpt>
      <trkpt lat="-12.1334150" lon="-76.6091790">
        <ele>2074.5</ele>
        <time>2021-05-30T14:51:25Z</time>
      </trkpt>
      <trkpt lat="-12.1334260" lon="-76.6091650">
        <ele>2074.6</ele>
        <time>2021-05-30T14:51:27Z</time>
      </trkpt>
      <trkpt lat="-12.1334320" lon="-76.6091500">
        <ele>2074.7</ele>
        <time>2021-05-30T14:51:28Z</time>
      </trkpt>
      <trkpt lat="-12.1334430" lon="-76.6091210">
        <ele>2075.0</ele>
        <time>2021-05-30T14:51:30Z</time>
      </trkpt>
      <trkpt lat="-12.1334450" lon="-76.6090920">
        <ele>2075.2</ele>
        <time>2021-05-30T14:51:31Z</time>
      </trkpt>
      <trkpt lat="-12.1334440" lon="-76.6090830">
        <ele>2075.3</ele>
        <time>2021-05-30T14:51:32Z</time>
      </trkpt>
      <trkpt lat="-12.1334390" lon="-76.6090530">
        <ele>2075.5</ele>
        <time>2021-05-30T14:51:33Z</time>
      </trkpt>
      <trkpt lat="-12.1334370" lon="-76.6090440">
        <ele>2075.5</ele>
        <time>2021-05-30T14:51:34Z</time>
      </trkpt>
      <trkpt lat="-12.1334340" lon="-76.6090270">
        <ele>2075.6</ele>
        <time>2021-05-30T14:51:35Z</time>
      </trkpt>
      <trkpt lat="-12.1334270" lon="-76.6090060">
        <ele>2075.7</ele>
        <time>2021-05-30T14:51:37Z</time>
      </trkpt>
      <trkpt lat="-12.1334110" lon="-76.6089730">
        <ele>2075.9</ele>
        <time>2021-05-30T14:51:38Z</time>
      </trkpt>
      <trkpt lat="-12.1334060" lon="-76.6089630">
        <ele>2076.0</ele>
        <time>2021-05-30T14:51:39Z</time>
      </trkpt>
      <trkpt lat="-12.1333990" lon="-76.6089470">
        <ele>2076.0</ele>
        <time>2021-05-30T14:51:40Z</time>
      </trkpt>
      <trkpt lat="-12.1333900" lon="-76.6089260">
        <ele>2076.1</ele>
        <time>2021-05-30T14:51:42Z</time>
      </trkpt>
      <trkpt lat="-12.1333800" lon="-76.6088990">
        <ele>2076.2</ele>
        <time>2021-05-30T14:51:43Z</time>
      </trkpt>
      <trkpt lat="-12.1333600" lon="-76.6088690">
        <ele>2076.3</ele>
        <time>2021-05-30T14:51:44Z</time>
      </trkpt>
      <trkpt lat="-12.1333520" lon="-76.6088590">
        <ele>2076.4</ele>
        <time>2021-05-30T14:51:45Z</time>
      </trkpt>
      <trkpt lat="-12.1333260" lon="-76.6088310">
        <ele>2076.5</ele>
        <time>2021-05-30T14:51:47Z</time>
      </trkpt>
      <trkpt lat="-12.1332910" lon="-76.6088060">
        <ele>2076.6</ele>
        <time>2021-05-30T14:51:48Z</time>
      </trkpt>
      <trkpt lat="-12.1332530" lon="-76.6087810">
        <ele>2076.8</ele>
        <time>2021-05-30T14:51:50Z</time>
      </trkpt>
      <trkpt lat="-12.1332110" lon="-76.6087560">
        <ele>2076.9</ele>
        <time>2021-05-30T14:51:51Z</time>
      </trkpt>
      <trkpt lat="-12.1331820" lon="-76.6087390">
        <ele>2077.0</ele>
        <time>2021-05-30T14:51:52Z</time>
      </trkpt>
      <trkpt lat="-12.1331490" lon="-76.6087280">
        <ele>2077.2</ele>
        <time>2021-05-30T14:51:54Z</time>
      </trkpt>
      <trkpt lat="-12.1331040" lon="-76.6087190">
        <ele>2077.4</ele>
        <time>2021-05-30T14:51:55Z</time>
      </trkpt>
      <trkpt lat="-12.1330650" lon="-76.6087160">
        <ele>2077.7</ele>
        <time>2021-05-30T14:51:56Z</time>
      </trkpt>
      <trkpt lat="-12.1330290" lon="-76.6087160">
        <ele>2078.0</ele>
        <time>2021-05-30T14:51:58Z</time>
      </trkpt>
      <trkpt lat="-12.1329970" lon="-76.6087170">
        <ele>2078.2</ele>
        <time>2021-05-30T14:51:59Z</time>
      </trkpt>
      <trkpt lat="-12.1329650" lon="-76.6087210">
        <ele>2078.5</ele>
        <time>2021-05-30T14:52:00Z</time>
      </trkpt>
      <trkpt lat="-12.1329370" lon="-76.6087270">
        <ele>2078.8</ele>
        <time>2021-05-30T14:52:02Z</time>
      </trkpt>
      <trkpt lat="-12.1329000" lon="-76.6087310">
        <ele>2079.2</ele>
        <time>2021-05-30T14:52:03Z</time>
      </trkpt>
      <trkpt lat="-12.1328700" lon="-76.6087360">
        <ele>2079.5</ele>
        <time>2021-05-30T14:52:04Z</time>
      </trkpt>
      <trkpt lat="-12.1328400" lon="-76.6087410">
        <ele>2079.8</ele>
        <time>2021-05-30T14:52:06Z</time>
      </trkpt>
      <trkpt lat="-12.1328010" lon="-76.6087480">
        <ele>2080.3</ele>
        <time>2021-05-30T14:52:07Z</time>
      </trkpt>
      <trkpt lat="-12.1327690" lon="-76.6087500">
        <ele>2080.6</ele>
        <time>2021-05-30T14:52:09Z</time>
      </trkpt>
      <trkpt lat="-12.1327410" lon="-76.6087470">
        <ele>2080.9</ele>
        <time>2021-05-30T14:52:10Z</time>
      </trkpt>
      <trkpt lat="-12.1327060" lon="-76.6087390">
        <ele>2081.3</ele>
        <time>2021-05-30T14:52:12Z</time>
      </trkpt>
      <trkpt lat="-12.1326950" lon="-76.6087360">
        <ele>2081.4</ele>
        <time>2021-05-30T14:52:13Z</time>
      </trkpt>
      <trkpt lat="-12.1326670" lon="-76.6087220">
        <ele>2081.7</ele>
        <time>2021-05-30T14:52:14Z</time>
      </trkpt>
      <trkpt lat="-12.1326470" lon="-76.6086990">
        <ele>2082.1</ele>
        <time>2021-05-30T14:52:16Z</time>
      </trkpt>
      <trkpt lat="-12.1326420" lon="-76.6086930">
        <ele>2082.2</ele>
        <time>2021-05-30T14:52:17Z</time>
      </trkpt>
      <trkpt lat="-12.1326290" lon="-76.6086750">
        <ele>2082.4</ele>
        <time>2021-05-30T14:52:18Z</time>
      </trkpt>
      <trkpt lat="-12.1326110" lon="-76.6086490">
        <ele>2082.8</ele>
        <time>2021-05-30T14:52:20Z</time>
      </trkpt>
      <trkpt lat="-12.1325970" lon="-76.6086200">
        <ele>2083.2</ele>
        <time>2021-05-30T14:52:21Z</time>
      </trkpt>
      <trkpt lat="-12.1325900" lon="-76.6086090">
        <ele>2083.3</ele>
        <time>2021-05-30T14:52:22Z</time>
      </trkpt>
      <trkpt lat="-12.1325610" lon="-76.6085840">
        <ele>2083.8</ele>
        <time>2021-05-30T14:52:24Z</time>
      </trkpt>
      <trkpt lat="-12.1325500" lon="-76.6085770">
        <ele>2083.9</ele>
        <time>2021-05-30T14:52:25Z</time>
      </trkpt>
      <trkpt lat="-12.1325220" lon="-76.6085470">
        <ele>2084.4</ele>
        <time>2021-05-30T14:52:26Z</time>
      </trkpt>
      <trkpt lat="-12.1325110" lon="-76.6085370">
        <ele>2084.6</ele>
        <time>2021-05-30T14:52:27Z</time>
      </trkpt>
      <trkpt lat="-12.1324780" lon="-76.6085130">
        <ele>2085.1</ele>
        <time>2021-05-30T14:52:29Z</time>
      </trkpt>
      <trkpt lat="-12.1324660" lon="-76.6085060">
        <ele>2085.2</ele>
        <time>2021-05-30T14:52:30Z</time>
      </trkpt>
      <trkpt lat="-12.1324430" lon="-76.6084900">
        <ele>2085.5</ele>
        <time>2021-05-30T14:52:32Z</time>
      </trkpt>
      <trkpt lat="-12.1324320" lon="-76.6084780">
        <ele>2085.7</ele>
        <time>2021-05-30T14:52:33Z</time>
      </trkpt>
      <trkpt lat="-12.1324240" lon="-76.6084620">
        <ele>2085.8</ele>
        <time>2021-05-30T14:52:34Z</time>
      </trkpt>
      <trkpt lat="-12.1324080" lon="-76.6084320">
        <ele>2086.2</ele>
        <time>2021-05-30T14:52:35Z</time>
      </trkpt>
      <trkpt lat="-12.1324000" lon="-76.6084200">
        <ele>2086.3</ele>
        <time>2021-05-30T14:52:36Z</time>
      </trkpt>
      <trkpt lat="-12.1323840" lon="-76.6083880">
        <ele>2086.7</ele>
        <time>2021-05-30T14:52:37Z</time>
      </trkpt>
      <trkpt lat="-12.1323790" lon="-76.6083760">
        <ele>2086.8</ele>
        <time>2021-05-30T14:52:38Z</time>
      </trkpt>
      <trkpt lat="-12.1323700" lon="-76.6083400">
        <ele>2087.1</ele>
        <time>2021-05-30T14:52:40Z</time>
      </trkpt>
      <trkpt lat="-12.1323680" lon="-76.6083280">
        <ele>2087.3</ele>
        <time>2021-05-30T14:52:41Z</time>
      </trkpt>
      <trkpt lat="-12.1323610" lon="-76.6082910">
        <ele>2087.6</ele>
        <time>2021-05-30T14:52:42Z</time>
      </trkpt>
      <trkpt lat="-12.1323570" lon="-76.6082780">
        <ele>2087.7</ele>
        <time>2021-05-30T14:52:43Z</time>
      </trkpt>
      <trkpt lat="-12.1323400" lon="-76.6082430">
        <ele>2088.1</ele>
        <time>2021-05-30T14:52:44Z</time>
      </trkpt>
      <trkpt lat="-12.1323330" lon="-76.6082310">
        <ele>2088.2</ele>
        <time>2021-05-30T14:52:45Z</time>
      </trkpt>
      <trkpt lat="-12.1322990" lon="-76.6081910">
        <ele>2088.6</ele>
        <time>2021-05-30T14:52:47Z</time>
      </trkpt>
      <trkpt lat="-12.1322830" lon="-76.6081750">
        <ele>2088.8</ele>
        <time>2021-05-30T14:52:48Z</time>
      </trkpt>
      <trkpt lat="-12.1322680" lon="-76.6081600">
        <ele>2088.9</ele>
        <time>2021-05-30T14:52:49Z</time>
      </trkpt>
      <trkpt lat="-12.1322370" lon="-76.6081470">
        <ele>2089.2</ele>
        <time>2021-05-30T14:52:51Z</time>
      </trkpt>
      <trkpt lat="-12.1322270" lon="-76.6081440">
        <ele>2089.3</ele>
        <time>2021-05-30T14:52:52Z</time>
      </trkpt>
      <trkpt lat="-12.1321900" lon="-76.6081410">
        <ele>2089.6</ele>
        <time>2021-05-30T14:52:54Z</time>
      </trkpt>
      <trkpt lat="-12.1321590" lon="-76.6081430">
        <ele>2089.8</ele>
        <time>2021-05-30T14:52:55Z</time>
      </trkpt>
      <trkpt lat="-12.1321400" lon="-76.6081460">
        <ele>2089.9</ele>
        <time>2021-05-30T14:52:56Z</time>
      </trkpt>
      <trkpt lat="-12.1321210" lon="-76.6081530">
        <ele>2090.1</ele>
        <time>2021-05-30T14:52:58Z</time>
      </trkpt>
      <trkpt lat="-12.1320930" lon="-76.6081630">
        <ele>2090.4</ele>
        <time>2021-05-30T14:52:59Z</time>
      </trkpt>
      <trkpt lat="-12.1320670" lon="-76.6081700">
        <ele>2090.6</ele>
        <time>2021-05-30T14:53:00Z</time>
      </trkpt>
      <trkpt lat="-12.1320330" lon="-76.6081780">
        <ele>2090.9</ele>
        <time>2021-05-30T14:53:02Z</time>
      </trkpt>
      <trkpt lat="-12.1320050" lon="-76.6081850">
        <ele>2091.1</ele>
        <time>2021-05-30T14:53:04Z</time>
      </trkpt>
      <trkpt lat="-12.1319850" lon="-76.6081880">
        <ele>2091.3</ele>
        <time>2021-05-30T14:53:05Z</time>
      </trkpt>
      <trkpt lat="-12.1319470" lon="-76.6081970">
        <ele>2091.6</ele>
        <time>2021-05-30T14:53:07Z</time>
      </trkpt>
      <trkpt lat="-12.1319150" lon="-76.6082110">
        <ele>2091.9</ele>
        <time>2021-05-30T14:53:08Z</time>
      </trkpt>
      <trkpt lat="-12.1319050" lon="-76.6082150">
        <ele>2092.0</ele>
        <time>2021-05-30T14:53:09Z</time>
      </trkpt>
      <trkpt lat="-12.1318710" lon="-76.6082310">
        <ele>2092.4</ele>
        <time>2021-05-30T14:53:10Z</time>
      </trkpt>
      <trkpt lat="-12.1318600" lon="-76.6082350">
        <ele>2092.5</ele>
        <time>2021-05-30T14:53:11Z</time>
      </trkpt>
      <trkpt lat="-12.1318250" lon="-76.6082500">
        <ele>2092.8</ele>
        <time>2021-05-30T14:53:13Z</time>
      </trkpt>
      <trkpt lat="-12.1318090" lon="-76.6082580">
        <ele>2093.0</ele>
        <time>2021-05-30T14:53:14Z</time>
      </trkpt>
      <trkpt lat="-12.1317820" lon="-76.6082660">
        <ele>2093.2</ele>
        <time>2021-05-30T14:53:16Z</time>
      </trkpt>
      <trkpt lat="-12.1317510" lon="-76.6082700">
        <ele>2093.5</ele>
        <time>2021-05-30T14:53:17Z</time>
      </trkpt>
      <trkpt lat="-12.1317420" lon="-76.6082700">
        <ele>2093.6</ele>
        <time>2021-05-30T14:53:18Z</time>
      </trkpt>
      <trkpt lat="-12.1317260" lon="-76.6082770">
        <ele>2093.7</ele>
        <time>2021-05-30T14:53:20Z</time>
      </trkpt>
      <trkpt lat="-12.1317030" lon="-76.6082910">
        <ele>2093.9</ele>
        <time>2021-05-30T14:53:22Z</time>
      </trkpt>
      <trkpt lat="-12.1316790" lon="-76.6083020">
        <ele>2094.1</ele>
        <time>2021-05-30T14:53:23Z</time>
      </trkpt>
      <trkpt lat="-12.1316650" lon="-76.6083090">
        <ele>2094.2</ele>
        <time>2021-05-30T14:53:25Z</time>
      </trkpt>
      <trkpt lat="-12.1316520" lon="-76.6083120">
        <ele>2094.3</ele>
        <time>2021-05-30T14:53:26Z</time>
      </trkpt>
      <trkpt lat="-12.1316330" lon="-76.6083110">
        <ele>2094.5</ele>
        <time>2021-05-30T14:53:27Z</time>
      </trkpt>
      <trkpt lat="-12.1316060" lon="-76.6083130">
        <ele>2094.7</ele>
        <time>2021-05-30T14:53:28Z</time>
      </trkpt>
      <trkpt lat="-12.1315670" lon="-76.6083140">
        <ele>2095.0</ele>
        <time>2021-05-30T14:53:30Z</time>
      </trkpt>
      <trkpt lat="-12.1315530" lon="-76.6083140">
        <ele>2095.1</ele>
        <time>2021-05-30T14:53:31Z</time>
      </trkpt>
      <trkpt lat="-12.1315270" lon="-76.6083120">
        <ele>2095.3</ele>
        <time>2021-05-30T14:53:32Z</time>
      </trkpt>
      <trkpt lat="-12.1315010" lon="-76.6083010">
        <ele>2095.5</ele>
        <time>2021-05-30T14:53:34Z</time>
      </trkpt>
      <trkpt lat="-12.1314690" lon="-76.6082890">
        <ele>2095.8</ele>
        <time>2021-05-30T14:53:35Z</time>
      </trkpt>
      <trkpt lat="-12.1314420" lon="-76.6082750">
        <ele>2096.0</ele>
        <time>2021-05-30T14:53:36Z</time>
      </trkpt>
      <trkpt lat="-12.1314060" lon="-76.6082550">
        <ele>2096.3</ele>
        <time>2021-05-30T14:53:38Z</time>
      </trkpt>
      <trkpt lat="-12.1313960" lon="-76.6082490">
        <ele>2096.4</ele>
        <time>2021-05-30T14:53:39Z</time>
      </trkpt>
      <trkpt lat="-12.1313850" lon="-76.6082430">
        <ele>2096.5</ele>
        <time>2021-05-30T14:53:40Z</time>
      </trkpt>
      <trkpt lat="-12.1313730" lon="-76.6082350">
        <ele>2096.6</ele>
        <time>2021-05-30T14:53:41Z</time>
      </trkpt>
      <trkpt lat="-12.1313520" lon="-76.6082250">
        <ele>2096.7</ele>
        <time>2021-05-30T14:53:43Z</time>
      </trkpt>
      <trkpt lat="-12.1313360" lon="-76.6082190">
        <ele>2096.8</ele>
        <time>2021-05-30T14:53:44Z</time>
      </trkpt>
      <trkpt lat="-12.1313190" lon="-76.6082090">
        <ele>2097.0</ele>
        <time>2021-05-30T14:53:45Z</time>
      </trkpt>
      <trkpt lat="-12.1312950" lon="-76.6081980">
        <ele>2097.2</ele>
        <time>2021-05-30T14:53:46Z</time>
      </trkpt>
      <trkpt lat="-12.1312600" lon="-76.6081860">
        <ele>2097.4</ele>
        <time>2021-05-30T14:53:48Z</time>
      </trkpt>
      <trkpt lat="-12.1312240" lon="-76.6081700">
        <ele>2097.7</ele>
        <time>2021-05-30T14:53:49Z</time>
      </trkpt>
      <trkpt lat="-12.1311920" lon="-76.6081540">
        <ele>2097.9</ele>
        <time>2021-05-30T14:53:51Z</time>
      </trkpt>
      <trkpt lat="-12.1311670" lon="-76.6081390">
        <ele>2098.1</ele>
        <time>2021-05-30T14:53:52Z</time>
      </trkpt>
      <trkpt lat="-12.1311260" lon="-76.6081100">
        <ele>2098.4</ele>
        <time>2021-05-30T14:53:53Z</time>
      </trkpt>
      <trkpt lat="-12.1311000" lon="-76.6080920">
        <ele>2098.7</ele>
        <time>2021-05-30T14:53:54Z</time>
      </trkpt>
      <trkpt lat="-12.1310660" lon="-76.6080680">
        <ele>2099.0</ele>
        <time>2021-05-30T14:53:55Z</time>
      </trkpt>
      <trkpt lat="-12.1310260" lon="-76.6080320">
        <ele>2099.4</ele>
        <time>2021-05-30T14:53:56Z</time>
      </trkpt>
      <trkpt lat="-12.1309970" lon="-76.6080090">
        <ele>2099.7</ele>
        <time>2021-05-30T14:53:57Z</time>
      </trkpt>
      <trkpt lat="-12.1309710" lon="-76.6079900">
        <ele>2100.0</ele>
        <time>2021-05-30T14:53:58Z</time>
      </trkpt>
      <trkpt lat="-12.1309300" lon="-76.6079710">
        <ele>2100.4</ele>
        <time>2021-05-30T14:54:00Z</time>
      </trkpt>
      <trkpt lat="-12.1309150" lon="-76.6079650">
        <ele>2100.6</ele>
        <time>2021-05-30T14:54:01Z</time>
      </trkpt>
      <trkpt lat="-12.1308990" lon="-76.6079600">
        <ele>2100.7</ele>
        <time>2021-05-30T14:54:02Z</time>
      </trkpt>
      <trkpt lat="-12.1308710" lon="-76.6079500">
        <ele>2101.0</ele>
        <time>2021-05-30T14:54:03Z</time>
      </trkpt>
      <trkpt lat="-12.1308600" lon="-76.6079460">
        <ele>2101.1</ele>
        <time>2021-05-30T14:54:04Z</time>
      </trkpt>
      <trkpt lat="-12.1308410" lon="-76.6079430">
        <ele>2101.3</ele>
        <time>2021-05-30T14:54:05Z</time>
      </trkpt>
      <trkpt lat="-12.1308160" lon="-76.6079370">
        <ele>2101.5</ele>
        <time>2021-05-30T14:54:07Z</time>
      </trkpt>
      <trkpt lat="-12.1307930" lon="-76.6079310">
        <ele>2101.7</ele>
        <time>2021-05-30T14:54:08Z</time>
      </trkpt>
      <trkpt lat="-12.1307670" lon="-76.6079230">
        <ele>2101.9</ele>
        <time>2021-05-30T14:54:10Z</time>
      </trkpt>
      <trkpt lat="-12.1307440" lon="-76.6079150">
        <ele>2102.1</ele>
        <time>2021-05-30T14:54:11Z</time>
      </trkpt>
      <trkpt lat="-12.1307110" lon="-76.6079010">
        <ele>2102.4</ele>
        <time>2021-05-30T14:54:13Z</time>
      </trkpt>
      <trkpt lat="-12.1306840" lon="-76.6078890">
        <ele>2102.6</ele>
        <time>2021-05-30T14:54:14Z</time>
      </trkpt>
      <trkpt lat="-12.1306760" lon="-76.6078850">
        <ele>2102.7</ele>
        <time>2021-05-30T14:54:15Z</time>
      </trkpt>
      <trkpt lat="-12.1306620" lon="-76.6078740">
        <ele>2102.8</ele>
        <time>2021-05-30T14:54:16Z</time>
      </trkpt>
      <trkpt lat="-12.1306470" lon="-76.6078580">
        <ele>2103.9</ele>
        <time>2021-05-30T14:54:18Z</time>
      </trkpt>
      <trkpt lat="-12.1306360" lon="-76.6078410">
        <ele>2104.9</ele>
        <time>2021-05-30T14:54:19Z</time>
      </trkpt>
      <trkpt lat="-12.1306120" lon="-76.6078190">
        <ele>2107.1</ele>
        <time>2021-05-30T14:54:21Z</time>
      </trkpt>
      <trkpt lat="-12.1305920" lon="-76.6077900">
        <ele>2109.0</ele>
        <time>2021-05-30T14:54:22Z</time>
      </trkpt>
      <trkpt lat="-12.1305850" lon="-76.6077800">
        <ele>2110.1</ele>
        <time>2021-05-30T14:54:23Z</time>
      </trkpt>
      <trkpt lat="-12.1305590" lon="-76.6077470">
        <ele>2113.8</ele>
        <time>2021-05-30T14:54:25Z</time>
      </trkpt>
      <trkpt lat="-12.1305490" lon="-76.6077370">
        <ele>2113.0</ele>
        <time>2021-05-30T14:54:26Z</time>
      </trkpt>
      <trkpt lat="-12.1305400" lon="-76.6077270">
        <ele>2114.0</ele>
        <time>2021-05-30T14:54:27Z</time>
      </trkpt>
      <trkpt lat="-12.1305200" lon="-76.6077120">
        <ele>2115.1</ele>
        <time>2021-05-30T14:54:28Z</time>
      </trkpt>
      <trkpt lat="-12.1305040" lon="-76.6076990">
        <ele>2115.0</ele>
        <time>2021-05-30T14:54:30Z</time>
      </trkpt>
      <trkpt lat="-12.1304820" lon="-76.6076780">
        <ele>2114.9</ele>
        <time>2021-05-30T14:54:31Z</time>
      </trkpt>
      <trkpt lat="-12.1304730" lon="-76.6076710">
        <ele>2114.8</ele>
        <time>2021-05-30T14:54:32Z</time>
      </trkpt>
      <trkpt lat="-12.1304560" lon="-76.6076580">
        <ele>2114.7</ele>
        <time>2021-05-30T14:54:33Z</time>
      </trkpt>
      <trkpt lat="-12.1304390" lon="-76.6076450">
        <ele>2114.7</ele>
        <time>2021-05-30T14:54:35Z</time>
      </trkpt>
      <trkpt lat="-12.1304180" lon="-76.6076270">
        <ele>2114.5</ele>
        <time>2021-05-30T14:54:36Z</time>
      </trkpt>
      <trkpt lat="-12.1303880" lon="-76.6076040">
        <ele>2114.4</ele>
        <time>2021-05-30T14:54:37Z</time>
      </trkpt>
      <trkpt lat="-12.1303790" lon="-76.6075960">
        <ele>2114.3</ele>
        <time>2021-05-30T14:54:38Z</time>
      </trkpt>
      <trkpt lat="-12.1303430" lon="-76.6075710">
        <ele>2114.2</ele>
        <time>2021-05-30T14:54:40Z</time>
      </trkpt>
      <trkpt lat="-12.1303130" lon="-76.6075550">
        <ele>2114.0</ele>
        <time>2021-05-30T14:54:42Z</time>
      </trkpt>
      <trkpt lat="-12.1302760" lon="-76.6075370">
        <ele>2113.9</ele>
        <time>2021-05-30T14:54:43Z</time>
      </trkpt>
      <trkpt lat="-12.1302470" lon="-76.6075270">
        <ele>2113.8</ele>
        <time>2021-05-30T14:54:45Z</time>
      </trkpt>
      <trkpt lat="-12.1302180" lon="-76.6075210">
        <ele>2113.6</ele>
        <time>2021-05-30T14:54:46Z</time>
      </trkpt>
      <trkpt lat="-12.1301520" lon="-76.6075060">
        <ele>2113.4</ele>
        <time>2021-05-30T14:54:47Z</time>
      </trkpt>
      <trkpt lat="-12.1300990" lon="-76.6074930">
        <ele>2113.2</ele>
        <time>2021-05-30T14:54:49Z</time>
      </trkpt>
      <trkpt lat="-12.1300630" lon="-76.6074820">
        <ele>2113.0</ele>
        <time>2021-05-30T14:54:50Z</time>
      </trkpt>
      <trkpt lat="-12.1300120" lon="-76.6074690">
        <ele>2112.8</ele>
        <time>2021-05-30T14:54:52Z</time>
      </trkpt>
      <trkpt lat="-12.1299700" lon="-76.6074590">
        <ele>2112.6</ele>
        <time>2021-05-30T14:54:53Z</time>
      </trkpt>
      <trkpt lat="-12.1299190" lon="-76.6074490">
        <ele>2112.4</ele>
        <time>2021-05-30T14:54:55Z</time>
      </trkpt>
      <trkpt lat="-12.1298830" lon="-76.6074410">
        <ele>2112.3</ele>
        <time>2021-05-30T14:54:56Z</time>
      </trkpt>
      <trkpt lat="-12.1298440" lon="-76.6074300">
        <ele>2112.1</ele>
        <time>2021-05-30T14:54:57Z</time>
      </trkpt>
      <trkpt lat="-12.1298140" lon="-76.6074210">
        <ele>2112.0</ele>
        <time>2021-05-30T14:54:59Z</time>
      </trkpt>
      <trkpt lat="-12.1297730" lon="-76.6074130">
        <ele>2111.8</ele>
        <time>2021-05-30T14:55:00Z</time>
      </trkpt>
      <trkpt lat="-12.1297460" lon="-76.6074090">
        <ele>2111.7</ele>
        <time>2021-05-30T14:55:01Z</time>
      </trkpt>
      <trkpt lat="-12.1297200" lon="-76.6074060">
        <ele>2111.6</ele>
        <time>2021-05-30T14:55:02Z</time>
      </trkpt>
      <trkpt lat="-12.1296460" lon="-76.6073910">
        <ele>2111.3</ele>
        <time>2021-05-30T14:55:05Z</time>
      </trkpt>
      <trkpt lat="-12.1296200" lon="-76.6073840">
        <ele>2111.2</ele>
        <time>2021-05-30T14:55:06Z</time>
      </trkpt>
      <trkpt lat="-12.1295910" lon="-76.6073740">
        <ele>2111.1</ele>
        <time>2021-05-30T14:55:07Z</time>
      </trkpt>
      <trkpt lat="-12.1295820" lon="-76.6073720">
        <ele>2111.0</ele>
        <time>2021-05-30T14:55:08Z</time>
      </trkpt>
      <trkpt lat="-12.1295460" lon="-76.6073530">
        <ele>2110.9</ele>
        <time>2021-05-30T14:55:10Z</time>
      </trkpt>
      <trkpt lat="-12.1295360" lon="-76.6073440">
        <ele>2110.8</ele>
        <time>2021-05-30T14:55:12Z</time>
      </trkpt>
      <trkpt lat="-12.1295260" lon="-76.6073350">
        <ele>2110.8</ele>
        <time>2021-05-30T14:55:13Z</time>
      </trkpt>
      <trkpt lat="-12.1295170" lon="-76.6073110">
        <ele>2110.7</ele>
        <time>2021-05-30T14:55:14Z</time>
      </trkpt>
      <trkpt lat="-12.1295190" lon="-76.6072890">
        <ele>2110.6</ele>
        <time>2021-05-30T14:55:16Z</time>
      </trkpt>
      <trkpt lat="-12.1295320" lon="-76.6072720">
        <ele>2110.5</ele>
        <time>2021-05-30T14:55:17Z</time>
      </trkpt>
      <trkpt lat="-12.1295460" lon="-76.6072620">
        <ele>2110.4</ele>
        <time>2021-05-30T14:55:19Z</time>
      </trkpt>
      <trkpt lat="-12.1295610" lon="-76.6072560">
        <ele>2110.4</ele>
        <time>2021-05-30T14:55:20Z</time>
      </trkpt>
      <trkpt lat="-12.1295760" lon="-76.6072540">
        <ele>2110.3</ele>
        <time>2021-05-30T14:55:21Z</time>
      </trkpt>
      <trkpt lat="-12.1295910" lon="-76.6072550">
        <ele>2110.3</ele>
        <time>2021-05-30T14:55:22Z</time>
      </trkpt>
      <trkpt lat="-12.1296130" lon="-76.6072610">
        <ele>2110.2</ele>
        <time>2021-05-30T14:55:24Z</time>
      </trkpt>
      <trkpt lat="-12.1296280" lon="-76.6072670">
        <ele>2110.1</ele>
        <time>2021-05-30T14:55:25Z</time>
      </trkpt>
      <trkpt lat="-12.1296560" lon="-76.6072860">
        <ele>2110.0</ele>
        <time>2021-05-30T14:55:27Z</time>
      </trkpt>
      <trkpt lat="-12.1296780" lon="-76.6073090">
        <ele>2109.8</ele>
        <time>2021-05-30T14:55:28Z</time>
      </trkpt>
      <trkpt lat="-12.1296980" lon="-76.6073340">
        <ele>2109.7</ele>
        <time>2021-05-30T14:55:30Z</time>
      </trkpt>
      <trkpt lat="-12.1297180" lon="-76.6073590">
        <ele>2109.7</ele>
        <time>2021-05-30T14:55:31Z</time>
      </trkpt>
      <trkpt lat="-12.1297410" lon="-76.6073830">
        <ele>2109.9</ele>
        <time>2021-05-30T14:55:32Z</time>
      </trkpt>
      <trkpt lat="-12.1297700" lon="-76.6074060">
        <ele>2110.1</ele>
        <time>2021-05-30T14:55:34Z</time>
      </trkpt>
      <trkpt lat="-12.1297960" lon="-76.6074250">
        <ele>2110.3</ele>
        <time>2021-05-30T14:55:35Z</time>
      </trkpt>
      <trkpt lat="-12.1298240" lon="-76.6074380">
        <ele>2110.5</ele>
        <time>2021-05-30T14:55:36Z</time>
      </trkpt>
      <trkpt lat="-12.1298560" lon="-76.6074500">
        <ele>2110.7</ele>
        <time>2021-05-30T14:55:37Z</time>
      </trkpt>
      <trkpt lat="-12.1298850" lon="-76.6074560">
        <ele>2110.8</ele>
        <time>2021-05-30T14:55:39Z</time>
      </trkpt>
      <trkpt lat="-12.1299340" lon="-76.6074580">
        <ele>2111.1</ele>
        <time>2021-05-30T14:55:40Z</time>
      </trkpt>
      <trkpt lat="-12.1299810" lon="-76.6074640">
        <ele>2111.4</ele>
        <time>2021-05-30T14:55:41Z</time>
      </trkpt>
      <trkpt lat="-12.1300340" lon="-76.6074680">
        <ele>2111.7</ele>
        <time>2021-05-30T14:55:43Z</time>
      </trkpt>
      <trkpt lat="-12.1300650" lon="-76.6074740">
        <ele>2111.9</ele>
        <time>2021-05-30T14:55:44Z</time>
      </trkpt>
      <trkpt lat="-12.1301180" lon="-76.6074870">
        <ele>2112.3</ele>
        <time>2021-05-30T14:55:45Z</time>
      </trkpt>
      <trkpt lat="-12.1301570" lon="-76.6074990">
        <ele>2112.5</ele>
        <time>2021-05-30T14:55:47Z</time>
      </trkpt>
      <trkpt lat="-12.1302090" lon="-76.6075120">
        <ele>2112.8</ele>
        <time>2021-05-30T14:55:48Z</time>
      </trkpt>
      <trkpt lat="-12.1302470" lon="-76.6075250">
        <ele>2113.1</ele>
        <time>2021-05-30T14:55:49Z</time>
      </trkpt>
      <trkpt lat="-12.1302920" lon="-76.6075400">
        <ele>2113.4</ele>
        <time>2021-05-30T14:55:51Z</time>
      </trkpt>
      <trkpt lat="-12.1303340" lon="-76.6075530">
        <ele>2113.6</ele>
        <time>2021-05-30T14:55:52Z</time>
      </trkpt>
      <trkpt lat="-12.1303620" lon="-76.6075680">
        <ele>2113.8</ele>
        <time>2021-05-30T14:55:54Z</time>
      </trkpt>
      <trkpt lat="-12.1304010" lon="-76.6075850">
        <ele>2114.1</ele>
        <time>2021-05-30T14:55:55Z</time>
      </trkpt>
      <trkpt lat="-12.1304260" lon="-76.6075990">
        <ele>2114.3</ele>
        <time>2021-05-30T14:55:56Z</time>
      </trkpt>
      <trkpt lat="-12.1304590" lon="-76.6076160">
        <ele>2114.5</ele>
        <time>2021-05-30T14:55:57Z</time>
      </trkpt>
      <trkpt lat="-12.1304870" lon="-76.6076250">
        <ele>2114.7</ele>
        <time>2021-05-30T14:55:58Z</time>
      </trkpt>
      <trkpt lat="-12.1305220" lon="-76.6076360">
        <ele>2114.9</ele>
        <time>2021-05-30T14:56:00Z</time>
      </trkpt>
      <trkpt lat="-12.1305540" lon="-76.6076440">
        <ele>2115.1</ele>
        <time>2021-05-30T14:56:01Z</time>
      </trkpt>
      <trkpt lat="-12.1306060" lon="-76.6076570">
        <ele>2115.4</ele>
        <time>2021-05-30T14:56:02Z</time>
      </trkpt>
      <trkpt lat="-12.1306500" lon="-76.6076620">
        <ele>2115.7</ele>
        <time>2021-05-30T14:56:04Z</time>
      </trkpt>
      <trkpt lat="-12.1306880" lon="-76.6076630">
        <ele>2115.9</ele>
        <time>2021-05-30T14:56:05Z</time>
      </trkpt>
      <trkpt lat="-12.1307160" lon="-76.6076620">
        <ele>2116.1</ele>
        <time>2021-05-30T14:56:07Z</time>
      </trkpt>
      <trkpt lat="-12.1307490" lon="-76.6076570">
        <ele>2116.3</ele>
        <time>2021-05-30T14:56:08Z</time>
      </trkpt>
      <trkpt lat="-12.1307800" lon="-76.6076510">
        <ele>2116.5</ele>
        <time>2021-05-30T14:56:09Z</time>
      </trkpt>
      <trkpt lat="-12.1307870" lon="-76.6076500">
        <ele>2116.5</ele>
        <time>2021-05-30T14:56:10Z</time>
      </trkpt>
      <trkpt lat="-12.1308180" lon="-76.6076440">
        <ele>2116.7</ele>
        <time>2021-05-30T14:56:12Z</time>
      </trkpt>
      <trkpt lat="-12.1308290" lon="-76.6076430">
        <ele>2116.8</ele>
        <time>2021-05-30T14:56:13Z</time>
      </trkpt>
      <trkpt lat="-12.1308450" lon="-76.6076410">
        <ele>2116.9</ele>
        <time>2021-05-30T14:56:14Z</time>
      </trkpt>
      <trkpt lat="-12.1308640" lon="-76.6076430">
        <ele>2117.0</ele>
        <time>2021-05-30T14:56:16Z</time>
      </trkpt>
      <trkpt lat="-12.1308880" lon="-76.6076450">
        <ele>2117.1</ele>
        <time>2021-05-30T14:56:17Z</time>
      </trkpt>
      <trkpt lat="-12.1309070" lon="-76.6076500">
        <ele>2117.2</ele>
        <time>2021-05-30T14:56:19Z</time>
      </trkpt>
      <trkpt lat="-12.1309200" lon="-76.6076560">
        <ele>2117.3</ele>
        <time>2021-05-30T14:56:20Z</time>
      </trkpt>
      <trkpt lat="-12.1309320" lon="-76.6076610">
        <ele>2117.4</ele>
        <time>2021-05-30T14:56:21Z</time>
      </trkpt>
      <trkpt lat="-12.1309430" lon="-76.6076710">
        <ele>2117.5</ele>
        <time>2021-05-30T14:56:23Z</time>
      </trkpt>
      <trkpt lat="-12.1309670" lon="-76.6076780">
        <ele>2117.7</ele>
        <time>2021-05-30T14:56:25Z</time>
      </trkpt>
      <trkpt lat="-12.1309830" lon="-76.6076830">
        <ele>2117.8</ele>
        <time>2021-05-30T14:56:26Z</time>
      </trkpt>
      <trkpt lat="-12.1309990" lon="-76.6076860">
        <ele>2117.9</ele>
        <time>2021-05-30T14:56:27Z</time>
      </trkpt>
      <trkpt lat="-12.1310010" lon="-76.6076890">
        <ele>2117.9</ele>
        <time>2021-05-30T14:56:28Z</time>
      </trkpt>
      <trkpt lat="-12.1310080" lon="-76.6076940">
        <ele>2117.9</ele>
        <time>2021-05-30T14:56:29Z</time>
      </trkpt>
      <trkpt lat="-12.1310280" lon="-76.6076980">
        <ele>2118.0</ele>
        <time>2021-05-30T14:56:30Z</time>
      </trkpt>
      <trkpt lat="-12.1310350" lon="-76.6076980">
        <ele>2118.1</ele>
        <time>2021-05-30T14:56:32Z</time>
      </trkpt>
      <trkpt lat="-12.1310520" lon="-76.6076990">
        <ele>2118.2</ele>
        <time>2021-05-30T14:56:33Z</time>
      </trkpt>
      <trkpt lat="-12.1310760" lon="-76.6077040">
        <ele>2118.3</ele>
        <time>2021-05-30T14:56:35Z</time>
      </trkpt>
      <trkpt lat="-12.1311050" lon="-76.6077130">
        <ele>2118.5</ele>
        <time>2021-05-30T14:56:36Z</time>
      </trkpt>
      <trkpt lat="-12.1311180" lon="-76.6077180">
        <ele>2118.6</ele>
        <time>2021-05-30T14:56:37Z</time>
      </trkpt>
      <trkpt lat="-12.1311600" lon="-76.6077300">
        <ele>2118.9</ele>
        <time>2021-05-30T14:56:39Z</time>
      </trkpt>
      <trkpt lat="-12.1311750" lon="-76.6077330">
        <ele>2119.0</ele>
        <time>2021-05-30T14:56:40Z</time>
      </trkpt>
      <trkpt lat="-12.1311910" lon="-76.6077370">
        <ele>2119.1</ele>
        <time>2021-05-30T14:56:41Z</time>
      </trkpt>
      <trkpt lat="-12.1312120" lon="-76.6077430">
        <ele>2119.2</ele>
        <time>2021-05-30T14:56:42Z</time>
      </trkpt>
      <trkpt lat="-12.1312360" lon="-76.6077510">
        <ele>2119.4</ele>
        <time>2021-05-30T14:56:44Z</time>
      </trkpt>
      <trkpt lat="-12.1312740" lon="-76.6077590">
        <ele>2119.6</ele>
        <time>2021-05-30T14:56:45Z</time>
      </trkpt>
      <trkpt lat="-12.1312850" lon="-76.6077620">
        <ele>2119.7</ele>
        <time>2021-05-30T14:56:46Z</time>
      </trkpt>
      <trkpt lat="-12.1313150" lon="-76.6077670">
        <ele>2119.8</ele>
        <time>2021-05-30T14:56:48Z</time>
      </trkpt>
      <trkpt lat="-12.1313530" lon="-76.6077690">
        <ele>2120.1</ele>
        <time>2021-05-30T14:56:50Z</time>
      </trkpt>
      <trkpt lat="-12.1314010" lon="-76.6077670">
        <ele>2120.4</ele>
        <time>2021-05-30T14:56:52Z</time>
      </trkpt>
      <trkpt lat="-12.1314350" lon="-76.6077580">
        <ele>2120.6</ele>
        <time>2021-05-30T14:56:53Z</time>
      </trkpt>
      <trkpt lat="-12.1314470" lon="-76.6077540">
        <ele>2120.7</ele>
        <time>2021-05-30T14:56:54Z</time>
      </trkpt>
      <trkpt lat="-12.1314710" lon="-76.6077460">
        <ele>2120.8</ele>
        <time>2021-05-30T14:56:55Z</time>
      </trkpt>
      <trkpt lat="-12.1315130" lon="-76.6077290">
        <ele>2121.1</ele>
        <time>2021-05-30T14:56:57Z</time>
      </trkpt>
      <trkpt lat="-12.1315430" lon="-76.6077120">
        <ele>2121.3</ele>
        <time>2021-05-30T14:56:58Z</time>
      </trkpt>
      <trkpt lat="-12.1315700" lon="-76.6076980">
        <ele>2121.5</ele>
        <time>2021-05-30T14:56:59Z</time>
      </trkpt>
      <trkpt lat="-12.1315960" lon="-76.6076840">
        <ele>2121.6</ele>
        <time>2021-05-30T14:57:00Z</time>
      </trkpt>
      <trkpt lat="-12.1316210" lon="-76.6076670">
        <ele>2121.8</ele>
        <time>2021-05-30T14:57:01Z</time>
      </trkpt>
      <trkpt lat="-12.1316490" lon="-76.6076450">
        <ele>2122.0</ele>
        <time>2021-05-30T14:57:03Z</time>
      </trkpt>
      <trkpt lat="-12.1316710" lon="-76.6076250">
        <ele>2122.2</ele>
        <time>2021-05-30T14:57:04Z</time>
      </trkpt>
      <trkpt lat="-12.1317020" lon="-76.6075960">
        <ele>2122.5</ele>
        <time>2021-05-30T14:57:05Z</time>
      </trkpt>
      <trkpt lat="-12.1317340" lon="-76.6075660">
        <ele>2122.7</ele>
        <time>2021-05-30T14:57:07Z</time>
      </trkpt>
      <trkpt lat="-12.1317550" lon="-76.6075470">
        <ele>2122.9</ele>
        <time>2021-05-30T14:57:08Z</time>
      </trkpt>
      <trkpt lat="-12.1317830" lon="-76.6075240">
        <ele>2123.1</ele>
        <time>2021-05-30T14:57:09Z</time>
      </trkpt>
      <trkpt lat="-12.1318130" lon="-76.6074980">
        <ele>2123.4</ele>
        <time>2021-05-30T14:57:10Z</time>
      </trkpt>
      <trkpt lat="-12.1318370" lon="-76.6074740">
        <ele>2123.6</ele>
        <time>2021-05-30T14:57:12Z</time>
      </trkpt>
      <trkpt lat="-12.1318620" lon="-76.6074440">
        <ele>2123.8</ele>
        <time>2021-05-30T14:57:13Z</time>
      </trkpt>
      <trkpt lat="-12.1318870" lon="-76.6074070">
        <ele>2124.1</ele>
        <time>2021-05-30T14:57:15Z</time>
      </trkpt>
      <trkpt lat="-12.1319130" lon="-76.6073770">
        <ele>2124.3</ele>
        <time>2021-05-30T14:57:16Z</time>
      </trkpt>
      <trkpt lat="-12.1319450" lon="-76.6073330">
        <ele>2124.6</ele>
        <time>2021-05-30T14:57:18Z</time>
      </trkpt>
      <trkpt lat="-12.1319650" lon="-76.6073140">
        <ele>2124.8</ele>
        <time>2021-05-30T14:57:19Z</time>
      </trkpt>
      <trkpt lat="-12.1319920" lon="-76.6072850">
        <ele>2125.0</ele>
        <time>2021-05-30T14:57:20Z</time>
      </trkpt>
      <trkpt lat="-12.1320100" lon="-76.6072630">
        <ele>2125.2</ele>
        <time>2021-05-30T14:57:22Z</time>
      </trkpt>
      <trkpt lat="-12.1320280" lon="-76.6072410">
        <ele>2125.4</ele>
        <time>2021-05-30T14:57:23Z</time>
      </trkpt>
      <trkpt lat="-12.1320460" lon="-76.6072200">
        <ele>2125.5</ele>
        <time>2021-05-30T14:57:24Z</time>
      </trkpt>
      <trkpt lat="-12.1320780" lon="-76.6071810">
        <ele>2125.8</ele>
        <time>2021-05-30T14:57:26Z</time>
      </trkpt>
      <trkpt lat="-12.1320860" lon="-76.6071690">
        <ele>2127.2</ele>
        <time>2021-05-30T14:57:27Z</time>
      </trkpt>
      <trkpt lat="-12.1320950" lon="-76.6071560">
        <ele>2128.6</ele>
        <time>2021-05-30T14:57:28Z</time>
      </trkpt>
      <trkpt lat="-12.1321130" lon="-76.6071200">
        <ele>2130.1</ele>
        <time>2021-05-30T14:57:30Z</time>
      </trkpt>
      <trkpt lat="-12.1321390" lon="-76.6070870">
        <ele>2134.1</ele>
        <time>2021-05-30T14:57:31Z</time>
      </trkpt>
      <trkpt lat="-12.1321490" lon="-76.6070730">
        <ele>2132.9</ele>
        <time>2021-05-30T14:57:32Z</time>
      </trkpt>
      <trkpt lat="-12.1321740" lon="-76.6070440">
        <ele>2136.7</ele>
        <time>2021-05-30T14:57:33Z</time>
      </trkpt>
      <trkpt lat="-12.1322100" lon="-76.6070140">
        <ele>2137.8</ele>
        <time>2021-05-30T14:57:35Z</time>
      </trkpt>
      <trkpt lat="-12.1322240" lon="-76.6070010">
        <ele>2137.7</ele>
        <time>2021-05-30T14:57:36Z</time>
      </trkpt>
      <trkpt lat="-12.1322430" lon="-76.6069820">
        <ele>2137.5</ele>
        <time>2021-05-30T14:57:38Z</time>
      </trkpt>
      <trkpt lat="-12.1322800" lon="-76.6069610">
        <ele>2137.3</ele>
        <time>2021-05-30T14:57:40Z</time>
      </trkpt>
      <trkpt lat="-12.1323060" lon="-76.6069450">
        <ele>2137.1</ele>
        <time>2021-05-30T14:57:41Z</time>
      </trkpt>
      <trkpt lat="-12.1323390" lon="-76.6069280">
        <ele>2136.9</ele>
        <time>2021-05-30T14:57:42Z</time>
      </trkpt>
      <trkpt lat="-12.1323500" lon="-76.6069230">
        <ele>2136.8</ele>
        <time>2021-05-30T14:57:43Z</time>
      </trkpt>
      <trkpt lat="-12.1323850" lon="-76.6069110">
        <ele>2136.6</ele>
        <time>2021-05-30T14:57:44Z</time>
      </trkpt>
      <trkpt lat="-12.1324170" lon="-76.6069010">
        <ele>2136.4</ele>
        <time>2021-05-30T14:57:46Z</time>
      </trkpt>
      <trkpt lat="-12.1324470" lon="-76.6068930">
        <ele>2136.2</ele>
        <time>2021-05-30T14:57:47Z</time>
      </trkpt>
      <trkpt lat="-12.1324800" lon="-76.6068810">
        <ele>2136.0</ele>
        <time>2021-05-30T14:57:48Z</time>
      </trkpt>
      <trkpt lat="-12.1325190" lon="-76.6068720">
        <ele>2135.8</ele>
        <time>2021-05-30T14:57:50Z</time>
      </trkpt>
      <trkpt lat="-12.1325490" lon="-76.6068660">
        <ele>2135.6</ele>
        <time>2021-05-30T14:57:51Z</time>
      </trkpt>
      <trkpt lat="-12.1325770" lon="-76.6068600">
        <ele>2135.4</ele>
        <time>2021-05-30T14:57:52Z</time>
      </trkpt>
      <trkpt lat="-12.1326220" lon="-76.6068550">
        <ele>2135.2</ele>
        <time>2021-05-30T14:57:54Z</time>
      </trkpt>
      <trkpt lat="-12.1326360" lon="-76.6068540">
        <ele>2135.1</ele>
        <time>2021-05-30T14:57:55Z</time>
      </trkpt>
      <trkpt lat="-12.1326500" lon="-76.6068540">
        <ele>2135.0</ele>
        <time>2021-05-30T14:57:56Z</time>
      </trkpt>
      <trkpt lat="-12.1326700" lon="-76.6068550">
        <ele>2134.9</ele>
        <time>2021-05-30T14:57:57Z</time>
      </trkpt>
      <trkpt lat="-12.1327050" lon="-76.6068550">
        <ele>2134.7</ele>
        <time>2021-05-30T14:57:59Z</time>
      </trkpt>
      <trkpt lat="-12.1327400" lon="-76.6068580">
        <ele>2134.5</ele>
        <time>2021-05-30T14:58:00Z</time>
      </trkpt>
      <trkpt lat="-12.1327850" lon="-76.6068630">
        <ele>2134.2</ele>
        <time>2021-05-30T14:58:02Z</time>
      </trkpt>
      <trkpt lat="-12.1328000" lon="-76.6068650">
        <ele>2134.1</ele>
        <time>2021-05-30T14:58:03Z</time>
      </trkpt>
      <trkpt lat="-12.1328150" lon="-76.6068660">
        <ele>2134.0</ele>
        <time>2021-05-30T14:58:04Z</time>
      </trkpt>
      <trkpt lat="-12.1328490" lon="-76.6068620">
        <ele>2133.8</ele>
        <time>2021-05-30T14:58:05Z</time>
      </trkpt>
      <trkpt lat="-12.1328580" lon="-76.6068600">
        <ele>2133.8</ele>
        <time>2021-05-30T14:58:06Z</time>
      </trkpt>
      <trkpt lat="-12.1328880" lon="-76.6068560">
        <ele>2133.6</ele>
        <time>2021-05-30T14:58:08Z</time>
      </trkpt>
      <trkpt lat="-12.1328990" lon="-76.6068540">
        <ele>2133.5</ele>
        <time>2021-05-30T14:58:09Z</time>
      </trkpt>
      <trkpt lat="-12.1329270" lon="-76.6068400">
        <ele>2133.4</ele>
        <time>2021-05-30T14:58:10Z</time>
      </trkpt>
      <trkpt lat="-12.1329390" lon="-76.6068330">
        <ele>2133.3</ele>
        <time>2021-05-30T14:58:11Z</time>
      </trkpt>
      <trkpt lat="-12.1329660" lon="-76.6068160">
        <ele>2133.1</ele>
        <time>2021-05-30T14:58:12Z</time>
      </trkpt>
      <trkpt lat="-12.1329730" lon="-76.6068110">
        <ele>2133.0</ele>
        <time>2021-05-30T14:58:13Z</time>
      </trkpt>
      <trkpt lat="-12.1329970" lon="-76.6067960">
        <ele>2132.9</ele>
        <time>2021-05-30T14:58:15Z</time>
      </trkpt>
      <trkpt lat="-12.1330150" lon="-76.6067810">
        <ele>2132.7</ele>
        <time>2021-05-30T14:58:16Z</time>
      </trkpt>
      <trkpt lat="-12.1330340" lon="-76.6067680">
        <ele>2132.6</ele>
        <time>2021-05-30T14:58:18Z</time>
      </trkpt>
      <trkpt lat="-12.1330510" lon="-76.6067530">
        <ele>2132.5</ele>
        <time>2021-05-30T14:58:19Z</time>
      </trkpt>
      <trkpt lat="-12.1330660" lon="-76.6067370">
        <ele>2132.4</ele>
        <time>2021-05-30T14:58:21Z</time>
      </trkpt>
      <trkpt lat="-12.1330740" lon="-76.6067110">
        <ele>2132.3</ele>
        <time>2021-05-30T14:58:22Z</time>
      </trkpt>
      <trkpt lat="-12.1330710" lon="-76.6066870">
        <ele>2132.4</ele>
        <time>2021-05-30T14:58:23Z</time>
      </trkpt>
      <trkpt lat="-12.1330650" lon="-76.6066680">
        <ele>2132.5</ele>
        <time>2021-05-30T14:58:25Z</time>
      </trkpt>
      <trkpt lat="-12.1330410" lon="-76.6066510">
        <ele>2132.7</ele>
        <time>2021-05-30T14:58:26Z</time>
      </trkpt>
      <trkpt lat="-12.1330310" lon="-76.6066470">
        <ele>2132.7</ele>
        <time>2021-05-30T14:58:27Z</time>
      </trkpt>
      <trkpt lat="-12.1330030" lon="-76.6066340">
        <ele>2132.9</ele>
        <time>2021-05-30T14:58:29Z</time>
      </trkpt>
      <trkpt lat="-12.1329950" lon="-76.6066300">
        <ele>2132.9</ele>
        <time>2021-05-30T14:58:30Z</time>
      </trkpt>
      <trkpt lat="-12.1329780" lon="-76.6066280">
        <ele>2133.0</ele>
        <time>2021-05-30T14:58:32Z</time>
      </trkpt>
      <trkpt lat="-12.1329660" lon="-76.6066270">
        <ele>2133.0</ele>
        <time>2021-05-30T14:58:33Z</time>
      </trkpt>
      <trkpt lat="-12.1329370" lon="-76.6066330">
        <ele>2133.2</ele>
        <time>2021-05-30T14:58:34Z</time>
      </trkpt>
      <trkpt lat="-12.1329260" lon="-76.6066360">
        <ele>2133.2</ele>
        <time>2021-05-30T14:58:35Z</time>
      </trkpt>
      <trkpt lat="-12.1329060" lon="-76.6066470">
        <ele>2133.4</ele>
        <time>2021-05-30T14:58:36Z</time>
      </trkpt>
      <trkpt lat="-12.1328810" lon="-76.6066670">
        <ele>2133.5</ele>
        <time>2021-05-30T14:58:38Z</time>
      </trkpt>
      <trkpt lat="-12.1328430" lon="-76.6066930">
        <ele>2133.7</ele>
        <time>2021-05-30T14:58:40Z</time>
      </trkpt>
      <trkpt lat="-12.1328170" lon="-76.6067090">
        <ele>2133.9</ele>
        <time>2021-05-30T14:58:41Z</time>
      </trkpt>
      <trkpt lat="-12.1327760" lon="-76.6067290">
        <ele>2134.1</ele>
        <time>2021-05-30T14:58:42Z</time>
      </trkpt>
      <trkpt lat="-12.1327490" lon="-76.6067350">
        <ele>2134.3</ele>
        <time>2021-05-30T14:58:44Z</time>
      </trkpt>
      <trkpt lat="-12.1327250" lon="-76.6067410">
        <ele>2134.4</ele>
        <time>2021-05-30T14:58:45Z</time>
      </trkpt>
      <trkpt lat="-12.1326900" lon="-76.6067390">
        <ele>2134.6</ele>
        <time>2021-05-30T14:58:47Z</time>
      </trkpt>
      <trkpt lat="-12.1326590" lon="-76.6067380">
        <ele>2134.7</ele>
        <time>2021-05-30T14:58:48Z</time>
      </trkpt>
      <trkpt lat="-12.1326270" lon="-76.6067350">
        <ele>2134.9</ele>
        <time>2021-05-30T14:58:49Z</time>
      </trkpt>
      <trkpt lat="-12.1325960" lon="-76.6067330">
        <ele>2135.0</ele>
        <time>2021-05-30T14:58:50Z</time>
      </trkpt>
      <trkpt lat="-12.1325670" lon="-76.6067310">
        <ele>2135.2</ele>
        <time>2021-05-30T14:58:51Z</time>
      </trkpt>
      <trkpt lat="-12.1325330" lon="-76.6067300">
        <ele>2135.3</ele>
        <time>2021-05-30T14:58:53Z</time>
      </trkpt>
      <trkpt lat="-12.1325000" lon="-76.6067290">
        <ele>2135.5</ele>
        <time>2021-05-30T14:58:54Z</time>
      </trkpt>
      <trkpt lat="-12.1324570" lon="-76.6067320">
        <ele>2135.7</ele>
        <time>2021-05-30T14:58:55Z</time>
      </trkpt>
      <trkpt lat="-12.1324210" lon="-76.6067390">
        <ele>2135.9</ele>
        <time>2021-05-30T14:58:57Z</time>
      </trkpt>
      <trkpt lat="-12.1323830" lon="-76.6067510">
        <ele>2136.1</ele>
        <time>2021-05-30T14:58:58Z</time>
      </trkpt>
      <trkpt lat="-12.1323530" lon="-76.6067650">
        <ele>2136.2</ele>
        <time>2021-05-30T14:58:59Z</time>
      </trkpt>
      <trkpt lat="-12.1323460" lon="-76.6067680">
        <ele>2136.3</ele>
        <time>2021-05-30T14:59:00Z</time>
      </trkpt>
      <trkpt lat="-12.1323200" lon="-76.6067770">
        <ele>2136.4</ele>
        <time>2021-05-30T14:59:02Z</time>
      </trkpt>
      <trkpt lat="-12.1322940" lon="-76.6067870">
        <ele>2136.6</ele>
        <time>2021-05-30T14:59:03Z</time>
      </trkpt>
      <trkpt lat="-12.1322480" lon="-76.6068040">
        <ele>2136.8</ele>
        <time>2021-05-30T14:59:05Z</time>
      </trkpt>
      <trkpt lat="-12.1322300" lon="-76.6068110">
        <ele>2136.9</ele>
        <time>2021-05-30T14:59:06Z</time>
      </trkpt>
      <trkpt lat="-12.1322130" lon="-76.6068190">
        <ele>2137.0</ele>
        <time>2021-05-30T14:59:07Z</time>
      </trkpt>
      <trkpt lat="-12.1321820" lon="-76.6068370">
        <ele>2137.2</ele>
        <time>2021-05-30T14:59:09Z</time>
      </trkpt>
      <trkpt lat="-12.1321540" lon="-76.6068520">
        <ele>2137.3</ele>
        <time>2021-05-30T14:59:10Z</time>
      </trkpt>
      <trkpt lat="-12.1321140" lon="-76.6068710">
        <ele>2137.5</ele>
        <time>2021-05-30T14:59:12Z</time>
      </trkpt>
      <trkpt lat="-12.1320980" lon="-76.6068760">
        <ele>2137.6</ele>
        <time>2021-05-30T14:59:13Z</time>
      </trkpt>
      <trkpt lat="-12.1320730" lon="-76.6068870">
        <ele>2137.8</ele>
        <time>2021-05-30T14:59:14Z</time>
      </trkpt>
      <trkpt lat="-12.1320460" lon="-76.6069010">
        <ele>2137.9</ele>
        <time>2021-05-30T14:59:16Z</time>
      </trkpt>
      <trkpt lat="-12.1320220" lon="-76.6069150">
        <ele>2138.0</ele>
        <time>2021-05-30T14:59:17Z</time>
      </trkpt>
      <trkpt lat="-12.1319910" lon="-76.6069340">
        <ele>2138.2</ele>
        <time>2021-05-30T14:59:18Z</time>
      </trkpt>
      <trkpt lat="-12.1319800" lon="-76.6069400">
        <ele>2138.3</ele>
        <time>2021-05-30T14:59:19Z</time>
      </trkpt>
      <trkpt lat="-12.1319550" lon="-76.6069530">
        <ele>2138.4</ele>
        <time>2021-05-30T14:59:20Z</time>
      </trkpt>
      <trkpt lat="-12.1319210" lon="-76.6069700">
        <ele>2138.6</ele>
        <time>2021-05-30T14:59:21Z</time>
      </trkpt>
      <trkpt lat="-12.1318950" lon="-76.6069860">
        <ele>2138.8</ele>
        <time>2021-05-30T14:59:22Z</time>
      </trkpt>
      <trkpt lat="-12.1318590" lon="-76.6070190">
        <ele>2139.0</ele>
        <time>2021-05-30T14:59:24Z</time>
      </trkpt>
      <trkpt lat="-12.1318320" lon="-76.6070480">
        <ele>2139.2</ele>
        <time>2021-05-30T14:59:25Z</time>
      </trkpt>
      <trkpt lat="-12.1318020" lon="-76.6070800">
        <ele>2139.4</ele>
        <time>2021-05-30T14:59:27Z</time>
      </trkpt>
      <trkpt lat="-12.1317900" lon="-76.6070920">
        <ele>2139.5</ele>
        <time>2021-05-30T14:59:28Z</time>
      </trkpt>
      <trkpt lat="-12.1317770" lon="-76.6071060">
        <ele>2139.6</ele>
        <time>2021-05-30T14:59:29Z</time>
      </trkpt>
      <trkpt lat="-12.1317590" lon="-76.6071230">
        <ele>2139.7</ele>
        <time>2021-05-30T14:59:31Z</time>
      </trkpt>
      <trkpt lat="-12.1317290" lon="-76.6071460">
        <ele>2139.9</ele>
        <time>2021-05-30T14:59:32Z</time>
      </trkpt>
      <trkpt lat="-12.1317190" lon="-76.6071510">
        <ele>2139.9</ele>
        <time>2021-05-30T14:59:33Z</time>
      </trkpt>
      <trkpt lat="-12.1316910" lon="-76.6071680">
        <ele>2140.1</ele>
        <time>2021-05-30T14:59:35Z</time>
      </trkpt>
      <trkpt lat="-12.1316840" lon="-76.6071710">
        <ele>2140.1</ele>
        <time>2021-05-30T14:59:36Z</time>
      </trkpt>
      <trkpt lat="-12.1316650" lon="-76.6071800">
        <ele>2140.2</ele>
        <time>2021-05-30T14:59:37Z</time>
      </trkpt>
      <trkpt lat="-12.1316640" lon="-76.6071860">
        <ele>2140.3</ele>
        <time>2021-05-30T14:59:39Z</time>
      </trkpt>
      <trkpt lat="-12.1316680" lon="-76.6071920">
        <ele>2140.3</ele>
        <time>2021-05-30T14:59:40Z</time>
      </trkpt>
      <trkpt lat="-12.1316730" lon="-76.6071950">
        <ele>2140.3</ele>
        <time>2021-05-30T14:59:42Z</time>
      </trkpt>
      <trkpt lat="-12.1316740" lon="-76.6072010">
        <ele>2140.4</ele>
        <time>2021-05-30T14:59:43Z</time>
      </trkpt>
      <trkpt lat="-12.1316760" lon="-76.6072090">
        <ele>2140.4</ele>
        <time>2021-05-30T14:59:45Z</time>
      </trkpt>
      <trkpt lat="-12.1316780" lon="-76.6072090">
        <ele>2140.4</ele>
        <time>2021-05-30T14:59:47Z</time>
      </trkpt>
      <trkpt lat="-12.1316780" lon="-76.6072100">
        <ele>2140.4</ele>
        <time>2021-05-30T14:59:48Z</time>
      </trkpt>
      <trkpt lat="-12.1316770" lon="-76.6072120">
        <ele>2140.4</ele>
        <time>2021-05-30T14:59:49Z</time>
      </trkpt>
      <trkpt lat="-12.1316760" lon="-76.6072130">
        <ele>2140.4</ele>
        <time>2021-05-30T14:59:51Z</time>
      </trkpt>
      <trkpt lat="-12.1316750" lon="-76.6072140">
        <ele>2140.4</ele>
        <time>2021-05-30T14:59:53Z</time>
      </trkpt>
      <trkpt lat="-12.1316750" lon="-76.6072140">
        <ele>2140.4</ele>
        <time>2021-05-30T14:59:54Z</time>
      </trkpt>
      <trkpt lat="-12.1316750" lon="-76.6072130">
        <ele>2140.5</ele>
        <time>2021-05-30T14:59:56Z</time>
      </trkpt>
      <trkpt lat="-12.1316760" lon="-76.6072120">
        <ele>2140.5</ele>
        <time>2021-05-30T14:59:58Z</time>
      </trkpt>
      <trkpt lat="-12.1316760" lon="-76.6072150">
        <ele>2140.5</ele>
        <time>2021-05-30T14:59:59Z</time>
      </trkpt>
      <trkpt lat="-12.1316840" lon="-76.6072150">
        <ele>2140.5</ele>
        <time>2021-05-30T15:00:01Z</time>
      </trkpt>
      <trkpt lat="-12.1316840" lon="-76.6072280">
        <ele>2140.6</ele>
        <time>2021-05-30T15:00:02Z</time>
      </trkpt>
      <trkpt lat="-12.1317230" lon="-76.6071630">
        <ele>2140.9</ele>
        <time>2021-05-30T15:00:04Z</time>
      </trkpt>
      <trkpt lat="-12.1317710" lon="-76.6070840">
        <ele>2141.4</ele>
        <time>2021-05-30T15:00:08Z</time>
      </trkpt>
      <trkpt lat="-12.1317770" lon="-76.6070790">
        <ele>2141.4</ele>
        <time>2021-05-30T15:00:09Z</time>
      </trkpt>
      <trkpt lat="-12.1317820" lon="-76.6070840">
        <ele>2141.5</ele>
        <time>2021-05-30T15:00:11Z</time>
      </trkpt>
      <trkpt lat="-12.1317800" lon="-76.6071000">
        <ele>2141.5</ele>
        <time>2021-05-30T15:00:13Z</time>
      </trkpt>
      <trkpt lat="-12.1317670" lon="-76.6071180">
        <ele>2141.7</ele>
        <time>2021-05-30T15:00:14Z</time>
      </trkpt>
      <trkpt lat="-12.1317540" lon="-76.6071330">
        <ele>2141.8</ele>
        <time>2021-05-30T15:00:16Z</time>
      </trkpt>
      <trkpt lat="-12.1317420" lon="-76.6071420">
        <ele>2141.8</ele>
        <time>2021-05-30T15:00:17Z</time>
      </trkpt>
      <trkpt lat="-12.1317300" lon="-76.6071520">
        <ele>2141.9</ele>
        <time>2021-05-30T15:00:19Z</time>
      </trkpt>
      <trkpt lat="-12.1317180" lon="-76.6071610">
        <ele>2142.0</ele>
        <time>2021-05-30T15:00:20Z</time>
      </trkpt>
      <trkpt lat="-12.1317060" lon="-76.6071700">
        <ele>2142.0</ele>
        <time>2021-05-30T15:00:22Z</time>
      </trkpt>
      <trkpt lat="-12.1316940" lon="-76.6071790">
        <ele>2142.1</ele>
        <time>2021-05-30T15:00:24Z</time>
      </trkpt>
      <trkpt lat="-12.1316820" lon="-76.6071890">
        <ele>2142.2</ele>
        <time>2021-05-30T15:00:36Z</time>
      </trkpt>
      <trkpt lat="-12.1316700" lon="-76.6071980">
        <ele>2142.3</ele>
        <time>2021-05-30T15:00:37Z</time>
      </trkpt>
      <trkpt lat="-12.1316580" lon="-76.6072070">
        <ele>2142.3</ele>
        <time>2021-05-30T15:00:38Z</time>
      </trkpt>
      <trkpt lat="-12.1316030" lon="-76.6072390">
        <ele>2142.7</ele>
        <time>2021-05-30T15:00:40Z</time>
      </trkpt>
      <trkpt lat="-12.1315760" lon="-76.6072540">
        <ele>2142.8</ele>
        <time>2021-05-30T15:00:41Z</time>
      </trkpt>
      <trkpt lat="-12.1315430" lon="-76.6072670">
        <ele>2143.0</ele>
        <time>2021-05-30T15:00:43Z</time>
      </trkpt>
      <trkpt lat="-12.1315140" lon="-76.6072750">
        <ele>2143.1</ele>
        <time>2021-05-30T15:00:44Z</time>
      </trkpt>
      <trkpt lat="-12.1314850" lon="-76.6072860">
        <ele>2143.3</ele>
        <time>2021-05-30T15:00:45Z</time>
      </trkpt>
      <trkpt lat="-12.1314340" lon="-76.6073130">
        <ele>2143.6</ele>
        <time>2021-05-30T15:00:47Z</time>
      </trkpt>
      <trkpt lat="-12.1314060" lon="-76.6073270">
        <ele>2143.7</ele>
        <time>2021-05-30T15:00:48Z</time>
      </trkpt>
      <trkpt lat="-12.1313640" lon="-76.6073510">
        <ele>2144.0</ele>
        <time>2021-05-30T15:00:49Z</time>
      </trkpt>
      <trkpt lat="-12.1313290" lon="-76.6073660">
        <ele>2144.2</ele>
        <time>2021-05-30T15:00:51Z</time>
      </trkpt>
      <trkpt lat="-12.1312800" lon="-76.6073850">
        <ele>2144.4</ele>
        <time>2021-05-30T15:00:52Z</time>
      </trkpt>
      <trkpt lat="-12.1312450" lon="-76.6073970">
        <ele>2144.6</ele>
        <time>2021-05-30T15:00:53Z</time>
      </trkpt>
      <trkpt lat="-12.1312100" lon="-76.6074040">
        <ele>2144.8</ele>
        <time>2021-05-30T15:00:55Z</time>
      </trkpt>
      <trkpt lat="-12.1311780" lon="-76.6074060">
        <ele>2144.9</ele>
        <time>2021-05-30T15:00:56Z</time>
      </trkpt>
      <trkpt lat="-12.1311690" lon="-76.6074060">
        <ele>2145.0</ele>
        <time>2021-05-30T15:00:57Z</time>
      </trkpt>
      <trkpt lat="-12.1311360" lon="-76.6074050">
        <ele>2145.1</ele>
        <time>2021-05-30T15:00:59Z</time>
      </trkpt>
      <trkpt lat="-12.1311260" lon="-76.6074050">
        <ele>2145.2</ele>
        <time>2021-05-30T15:01:00Z</time>
      </trkpt>
      <trkpt lat="-12.1310880" lon="-76.6074000">
        <ele>2145.4</ele>
        <time>2021-05-30T15:01:02Z</time>
      </trkpt>
      <trkpt lat="-12.1310720" lon="-76.6073970">
        <ele>2145.5</ele>
        <time>2021-05-30T15:01:03Z</time>
      </trkpt>
      <trkpt lat="-12.1310400" lon="-76.6073880">
        <ele>2145.6</ele>
        <time>2021-05-30T15:01:05Z</time>
      </trkpt>
      <trkpt lat="-12.1310270" lon="-76.6073840">
        <ele>2145.7</ele>
        <time>2021-05-30T15:01:06Z</time>
      </trkpt>
      <trkpt lat="-12.1310080" lon="-76.6073770">
        <ele>2145.8</ele>
        <time>2021-05-30T15:01:07Z</time>
      </trkpt>
      <trkpt lat="-12.1309790" lon="-76.6073680">
        <ele>2145.9</ele>
        <time>2021-05-30T15:01:09Z</time>
      </trkpt>
      <trkpt lat="-12.1309470" lon="-76.6073550">
        <ele>2146.1</ele>
        <time>2021-05-30T15:01:10Z</time>
      </trkpt>
      <trkpt lat="-12.1309360" lon="-76.6073500">
        <ele>2146.2</ele>
        <time>2021-05-30T15:01:11Z</time>
      </trkpt>
      <trkpt lat="-12.1309110" lon="-76.6073390">
        <ele>2146.3</ele>
        <time>2021-05-30T15:01:13Z</time>
      </trkpt>
      <trkpt lat="-12.1308850" lon="-76.6073270">
        <ele>2146.4</ele>
        <time>2021-05-30T15:01:14Z</time>
      </trkpt>
      <trkpt lat="-12.1308660" lon="-76.6073130">
        <ele>2146.6</ele>
        <time>2021-05-30T15:01:15Z</time>
      </trkpt>
      <trkpt lat="-12.1308390" lon="-76.6072940">
        <ele>2146.7</ele>
        <time>2021-05-30T15:01:17Z</time>
      </trkpt>
      <trkpt lat="-12.1308090" lon="-76.6072660">
        <ele>2146.9</ele>
        <time>2021-05-30T15:01:18Z</time>
      </trkpt>
      <trkpt lat="-12.1307990" lon="-76.6072560">
        <ele>2147.0</ele>
        <time>2021-05-30T15:01:19Z</time>
      </trkpt>
      <trkpt lat="-12.1307600" lon="-76.6072280">
        <ele>2147.2</ele>
        <time>2021-05-30T15:01:20Z</time>
      </trkpt>
      <trkpt lat="-12.1307180" lon="-76.6072000">
        <ele>2147.5</ele>
        <time>2021-05-30T15:01:22Z</time>
      </trkpt>
      <trkpt lat="-12.1307020" lon="-76.6071900">
        <ele>2147.6</ele>
        <time>2021-05-30T15:01:23Z</time>
      </trkpt>
      <trkpt lat="-12.1306860" lon="-76.6071790">
        <ele>2147.7</ele>
        <time>2021-05-30T15:01:24Z</time>
      </trkpt>
      <trkpt lat="-12.1306430" lon="-76.6071490">
        <ele>2147.9</ele>
        <time>2021-05-30T15:01:25Z</time>
      </trkpt>
      <trkpt lat="-12.1306170" lon="-76.6071260">
        <ele>2148.1</ele>
        <time>2021-05-30T15:01:26Z</time>
      </trkpt>
      <trkpt lat="-12.1305940" lon="-76.6071000">
        <ele>2148.3</ele>
        <time>2021-05-30T15:01:28Z</time>
      </trkpt>
      <trkpt lat="-12.1305790" lon="-76.6070770">
        <ele>2148.4</ele>
        <time>2021-05-30T15:01:29Z</time>
      </trkpt>
      <trkpt lat="-12.1305660" lon="-76.6070520">
        <ele>2148.5</ele>
        <time>2021-05-30T15:01:30Z</time>
      </trkpt>
      <trkpt lat="-12.1305480" lon="-76.6070140">
        <ele>2148.7</ele>
        <time>2021-05-30T15:01:31Z</time>
      </trkpt>
      <trkpt lat="-12.1305300" lon="-76.6069790">
        <ele>2148.9</ele>
        <time>2021-05-30T15:01:32Z</time>
      </trkpt>
      <trkpt lat="-12.1305120" lon="-76.6069410">
        <ele>2147.6</ele>
        <time>2021-05-30T15:01:34Z</time>
      </trkpt>
      <trkpt lat="-12.1304890" lon="-76.6069030">
        <ele>2148.6</ele>
        <time>2021-05-30T15:01:35Z</time>
      </trkpt>
      <trkpt lat="-12.1304690" lon="-76.6068720">
        <ele>2151.6</ele>
        <time>2021-05-30T15:01:37Z</time>
      </trkpt>
      <trkpt lat="-12.1304470" lon="-76.6068420">
        <ele>2153.5</ele>
        <time>2021-05-30T15:01:38Z</time>
      </trkpt>
      <trkpt lat="-12.1304260" lon="-76.6068130">
        <ele>2152.2</ele>
        <time>2021-05-30T15:01:39Z</time>
      </trkpt>
      <trkpt lat="-12.1303980" lon="-76.6067820">
        <ele>2154.4</ele>
        <time>2021-05-30T15:01:40Z</time>
      </trkpt>
      <trkpt lat="-12.1303860" lon="-76.6067720">
        <ele>2154.3</ele>
        <time>2021-05-30T15:01:41Z</time>
      </trkpt>
      <trkpt lat="-12.1303630" lon="-76.6067610">
        <ele>2154.2</ele>
        <time>2021-05-30T15:01:43Z</time>
      </trkpt>
      <trkpt lat="-12.1303310" lon="-76.6067510">
        <ele>2154.1</ele>
        <time>2021-05-30T15:01:45Z</time>
      </trkpt>
      <trkpt lat="-12.1302940" lon="-76.6067390">
        <ele>2154.0</ele>
        <time>2021-05-30T15:01:46Z</time>
      </trkpt>
      <trkpt lat="-12.1302790" lon="-76.6067340">
        <ele>2153.9</ele>
        <time>2021-05-30T15:01:47Z</time>
      </trkpt>
      <trkpt lat="-12.1302580" lon="-76.6067230">
        <ele>2153.8</ele>
        <time>2021-05-30T15:01:48Z</time>
      </trkpt>
      <trkpt lat="-12.1302370" lon="-76.6067110">
        <ele>2153.8</ele>
        <time>2021-05-30T15:01:50Z</time>
      </trkpt>
      <trkpt lat="-12.1302070" lon="-76.6066890">
        <ele>2153.6</ele>
        <time>2021-05-30T15:01:51Z</time>
      </trkpt>
      <trkpt lat="-12.1301980" lon="-76.6066830">
        <ele>2153.6</ele>
        <time>2021-05-30T15:01:52Z</time>
      </trkpt>
      <trkpt lat="-12.1301810" lon="-76.6066750">
        <ele>2153.5</ele>
        <time>2021-05-30T15:01:54Z</time>
      </trkpt>
      <trkpt lat="-12.1301640" lon="-76.6066750">
        <ele>2153.5</ele>
        <time>2021-05-30T15:01:55Z</time>
      </trkpt>
      <trkpt lat="-12.1301480" lon="-76.6066800">
        <ele>2153.4</ele>
        <time>2021-05-30T15:01:56Z</time>
      </trkpt>
      <trkpt lat="-12.1301340" lon="-76.6066870">
        <ele>2153.4</ele>
        <time>2021-05-30T15:01:57Z</time>
      </trkpt>
      <trkpt lat="-12.1301100" lon="-76.6067000">
        <ele>2153.3</ele>
        <time>2021-05-30T15:01:58Z</time>
      </trkpt>
      <trkpt lat="-12.1301010" lon="-76.6067050">
        <ele>2153.2</ele>
        <time>2021-05-30T15:01:59Z</time>
      </trkpt>
      <trkpt lat="-12.1300790" lon="-76.6067070">
        <ele>2153.1</ele>
        <time>2021-05-30T15:02:01Z</time>
      </trkpt>
      <trkpt lat="-12.1300470" lon="-76.6067030">
        <ele>2153.0</ele>
        <time>2021-05-30T15:02:03Z</time>
      </trkpt>
      <trkpt lat="-12.1300180" lon="-76.6067210">
        <ele>2152.9</ele>
        <time>2021-05-30T15:02:04Z</time>
      </trkpt>
      <trkpt lat="-12.1300070" lon="-76.6067340">
        <ele>2152.9</ele>
        <time>2021-05-30T15:02:05Z</time>
      </trkpt>
      <trkpt lat="-12.1299970" lon="-76.6067920">
        <ele>2152.6</ele>
        <time>2021-05-30T15:02:07Z</time>
      </trkpt>
      <trkpt lat="-12.1300100" lon="-76.6067890">
        <ele>2152.6</ele>
        <time>2021-05-30T15:02:08Z</time>
      </trkpt>
      <trkpt lat="-12.1300230" lon="-76.6067810">
        <ele>2152.5</ele>
        <time>2021-05-30T15:02:09Z</time>
      </trkpt>
      <trkpt lat="-12.1300360" lon="-76.6067720">
        <ele>2152.5</ele>
        <time>2021-05-30T15:02:10Z</time>
      </trkpt>
      <trkpt lat="-12.1300510" lon="-76.6067630">
        <ele>2152.4</ele>
        <time>2021-05-30T15:02:11Z</time>
      </trkpt>
      <trkpt lat="-12.1300720" lon="-76.6067590">
        <ele>2152.4</ele>
        <time>2021-05-30T15:02:13Z</time>
      </trkpt>
      <trkpt lat="-12.1301080" lon="-76.6067640">
        <ele>2152.3</ele>
        <time>2021-05-30T15:02:14Z</time>
      </trkpt>
      <trkpt lat="-12.1301340" lon="-76.6067730">
        <ele>2152.5</ele>
        <time>2021-05-30T15:02:16Z</time>
      </trkpt>
      <trkpt lat="-12.1301680" lon="-76.6067950">
        <ele>2152.7</ele>
        <time>2021-05-30T15:02:18Z</time>
      </trkpt>
      <trkpt lat="-12.1302000" lon="-76.6068180">
        <ele>2152.9</ele>
        <time>2021-05-30T15:02:19Z</time>
      </trkpt>
      <trkpt lat="-12.1302230" lon="-76.6068340">
        <ele>2153.1</ele>
        <time>2021-05-30T15:02:20Z</time>
      </trkpt>
      <trkpt lat="-12.1302530" lon="-76.6068410">
        <ele>2153.3</ele>
        <time>2021-05-30T15:02:21Z</time>
      </trkpt>
      <trkpt lat="-12.1302630" lon="-76.6068420">
        <ele>2153.3</ele>
        <time>2021-05-30T15:02:22Z</time>
      </trkpt>
      <trkpt lat="-12.1302950" lon="-76.6068420">
        <ele>2153.5</ele>
        <time>2021-05-30T15:02:23Z</time>
      </trkpt>
      <trkpt lat="-12.1303060" lon="-76.6068400">
        <ele>2153.6</ele>
        <time>2021-05-30T15:02:24Z</time>
      </trkpt>
      <trkpt lat="-12.1303450" lon="-76.6068330">
        <ele>2153.8</ele>
        <time>2021-05-30T15:02:26Z</time>
      </trkpt>
      <trkpt lat="-12.1303570" lon="-76.6068320">
        <ele>2153.8</ele>
        <time>2021-05-30T15:02:27Z</time>
      </trkpt>
      <trkpt lat="-12.1303900" lon="-76.6068330">
        <ele>2154.0</ele>
        <time>2021-05-30T15:02:28Z</time>
      </trkpt>
      <trkpt lat="-12.1304260" lon="-76.6068330">
        <ele>2154.2</ele>
        <time>2021-05-30T15:02:30Z</time>
      </trkpt>
      <trkpt lat="-12.1304540" lon="-76.6068380">
        <ele>2154.4</ele>
        <time>2021-05-30T15:02:31Z</time>
      </trkpt>
      <trkpt lat="-12.1304820" lon="-76.6068500">
        <ele>2154.6</ele>
        <time>2021-05-30T15:02:32Z</time>
      </trkpt>
      <trkpt lat="-12.1305000" lon="-76.6068590">
        <ele>2154.7</ele>
        <time>2021-05-30T15:02:33Z</time>
      </trkpt>
      <trkpt lat="-12.1305160" lon="-76.6068720">
        <ele>2154.8</ele>
        <time>2021-05-30T15:02:35Z</time>
      </trkpt>
      <trkpt lat="-12.1305430" lon="-76.6068910">
        <ele>2155.0</ele>
        <time>2021-05-30T15:02:36Z</time>
      </trkpt>
      <trkpt lat="-12.1305550" lon="-76.6069000">
        <ele>2155.1</ele>
        <time>2021-05-30T15:02:37Z</time>
      </trkpt>
      <trkpt lat="-12.1305960" lon="-76.6069230">
        <ele>2155.3</ele>
        <time>2021-05-30T15:02:39Z</time>
      </trkpt>
      <trkpt lat="-12.1306120" lon="-76.6069320">
        <ele>2155.4</ele>
        <time>2021-05-30T15:02:40Z</time>
      </trkpt>
      <trkpt lat="-12.1306290" lon="-76.6069410">
        <ele>2155.5</ele>
        <time>2021-05-30T15:02:41Z</time>
      </trkpt>
      <trkpt lat="-12.1306610" lon="-76.6069550">
        <ele>2155.7</ele>
        <time>2021-05-30T15:02:43Z</time>
      </trkpt>
      <trkpt lat="-12.1306700" lon="-76.6069610">
        <ele>2155.8</ele>
        <time>2021-05-30T15:02:44Z</time>
      </trkpt>
      <trkpt lat="-12.1306930" lon="-76.6069760">
        <ele>2155.9</ele>
        <time>2021-05-30T15:02:45Z</time>
      </trkpt>
      <trkpt lat="-12.1307240" lon="-76.6069980">
        <ele>2156.1</ele>
        <time>2021-05-30T15:02:46Z</time>
      </trkpt>
      <trkpt lat="-12.1307350" lon="-76.6070070">
        <ele>2156.2</ele>
        <time>2021-05-30T15:02:47Z</time>
      </trkpt>
      <trkpt lat="-12.1307720" lon="-76.6070400">
        <ele>2156.5</ele>
        <time>2021-05-30T15:02:49Z</time>
      </trkpt>
      <trkpt lat="-12.1307870" lon="-76.6070500">
        <ele>2156.6</ele>
        <time>2021-05-30T15:02:50Z</time>
      </trkpt>
      <trkpt lat="-12.1308010" lon="-76.6070610">
        <ele>2156.7</ele>
        <time>2021-05-30T15:02:51Z</time>
      </trkpt>
      <trkpt lat="-12.1308530" lon="-76.6070890">
        <ele>2157.3</ele>
        <time>2021-05-30T15:02:53Z</time>
      </trkpt>
      <trkpt lat="-12.1309010" lon="-76.6071100">
        <ele>2157.6</ele>
        <time>2021-05-30T15:02:54Z</time>
      </trkpt>
      <trkpt lat="-12.1309400" lon="-76.6071220">
        <ele>2157.8</ele>
        <time>2021-05-30T15:02:55Z</time>
      </trkpt>
      <trkpt lat="-12.1309830" lon="-76.6071320">
        <ele>2158.1</ele>
        <time>2021-05-30T15:02:57Z</time>
      </trkpt>
      <trkpt lat="-12.1310210" lon="-76.6071390">
        <ele>2158.3</ele>
        <time>2021-05-30T15:02:58Z</time>
      </trkpt>
      <trkpt lat="-12.1310640" lon="-76.6071430">
        <ele>2158.6</ele>
        <time>2021-05-30T15:03:00Z</time>
      </trkpt>
      <trkpt lat="-12.1310930" lon="-76.6071430">
        <ele>2158.7</ele>
        <time>2021-05-30T15:03:01Z</time>
      </trkpt>
      <trkpt lat="-12.1311400" lon="-76.6071420">
        <ele>2159.0</ele>
        <time>2021-05-30T15:03:02Z</time>
      </trkpt>
      <trkpt lat="-12.1311830" lon="-76.6071400">
        <ele>2159.3</ele>
        <time>2021-05-30T15:03:04Z</time>
      </trkpt>
      <trkpt lat="-12.1312230" lon="-76.6071370">
        <ele>2159.5</ele>
        <time>2021-05-30T15:03:06Z</time>
      </trkpt>
      <trkpt lat="-12.1312360" lon="-76.6071340">
        <ele>2159.6</ele>
        <time>2021-05-30T15:03:07Z</time>
      </trkpt>
      <trkpt lat="-12.1312720" lon="-76.6071250">
        <ele>2159.8</ele>
        <time>2021-05-30T15:03:09Z</time>
      </trkpt>
      <trkpt lat="-12.1312970" lon="-76.6071170">
        <ele>2159.9</ele>
        <time>2021-05-30T15:03:10Z</time>
      </trkpt>
      <trkpt lat="-12.1313440" lon="-76.6071010">
        <ele>2160.2</ele>
        <time>2021-05-30T15:03:12Z</time>
      </trkpt>
      <trkpt lat="-12.1313710" lon="-76.6070900">
        <ele>2160.4</ele>
        <time>2021-05-30T15:03:13Z</time>
      </trkpt>
      <trkpt lat="-12.1314080" lon="-76.6070750">
        <ele>2160.6</ele>
        <time>2021-05-30T15:03:14Z</time>
      </trkpt>
      <trkpt lat="-12.1314200" lon="-76.6070700">
        <ele>2160.7</ele>
        <time>2021-05-30T15:03:15Z</time>
      </trkpt>
      <trkpt lat="-12.1314560" lon="-76.6070510">
        <ele>2160.9</ele>
        <time>2021-05-30T15:03:16Z</time>
      </trkpt>
      <trkpt lat="-12.1314690" lon="-76.6070440">
        <ele>2161.0</ele>
        <time>2021-05-30T15:03:17Z</time>
      </trkpt>
      <trkpt lat="-12.1315010" lon="-76.6070300">
        <ele>2161.2</ele>
        <time>2021-05-30T15:03:19Z</time>
      </trkpt>
      <trkpt lat="-12.1315410" lon="-76.6070070">
        <ele>2161.5</ele>
        <time>2021-05-30T15:03:21Z</time>
      </trkpt>
      <trkpt lat="-12.1315670" lon="-76.6069810">
        <ele>2161.7</ele>
        <time>2021-05-30T15:03:22Z</time>
      </trkpt>
      <trkpt lat="-12.1315740" lon="-76.6069720">
        <ele>2161.8</ele>
        <time>2021-05-30T15:03:23Z</time>
      </trkpt>
      <trkpt lat="-12.1315900" lon="-76.6069430">
        <ele>2162.0</ele>
        <time>2021-05-30T15:03:24Z</time>
      </trkpt>
      <trkpt lat="-12.1316070" lon="-76.6069130">
        <ele>2162.2</ele>
        <time>2021-05-30T15:03:25Z</time>
      </trkpt>
      <trkpt lat="-12.1316230" lon="-76.6068870">
        <ele>2162.3</ele>
        <time>2021-05-30T15:03:27Z</time>
      </trkpt>
      <trkpt lat="-12.1316360" lon="-76.6068580">
        <ele>2162.5</ele>
        <time>2021-05-30T15:03:28Z</time>
      </trkpt>
      <trkpt lat="-12.1316580" lon="-76.6068250">
        <ele>2162.8</ele>
        <time>2021-05-30T15:03:29Z</time>
      </trkpt>
      <trkpt lat="-12.1316660" lon="-76.6068130">
        <ele>2162.8</ele>
        <time>2021-05-30T15:03:30Z</time>
      </trkpt>
      <trkpt lat="-12.1316800" lon="-76.6067930">
        <ele>2163.0</ele>
        <time>2021-05-30T15:03:31Z</time>
      </trkpt>
      <trkpt lat="-12.1316940" lon="-76.6067650">
        <ele>2163.2</ele>
        <time>2021-05-30T15:03:33Z</time>
      </trkpt>
      <trkpt lat="-12.1317050" lon="-76.6067400">
        <ele>2163.3</ele>
        <time>2021-05-30T15:03:34Z</time>
      </trkpt>
      <trkpt lat="-12.1317150" lon="-76.6067130">
        <ele>2163.5</ele>
        <time>2021-05-30T15:03:35Z</time>
      </trkpt>
      <trkpt lat="-12.1317270" lon="-76.6066870">
        <ele>2163.7</ele>
        <time>2021-05-30T15:03:36Z</time>
      </trkpt>
      <trkpt lat="-12.1317520" lon="-76.6066440">
        <ele>2163.9</ele>
        <time>2021-05-30T15:03:37Z</time>
      </trkpt>
      <trkpt lat="-12.1317700" lon="-76.6066200">
        <ele>2164.1</ele>
        <time>2021-05-30T15:03:39Z</time>
      </trkpt>
      <trkpt lat="-12.1317980" lon="-76.6065920">
        <ele>2164.3</ele>
        <time>2021-05-30T15:03:40Z</time>
      </trkpt>
      <trkpt lat="-12.1318130" lon="-76.6065780">
        <ele>2164.5</ele>
        <time>2021-05-30T15:03:41Z</time>
      </trkpt>
      <trkpt lat="-12.1318330" lon="-76.6065620">
        <ele>2164.6</ele>
        <time>2021-05-30T15:03:43Z</time>
      </trkpt>
      <trkpt lat="-12.1318560" lon="-76.6065450">
        <ele>2164.8</ele>
        <time>2021-05-30T15:03:44Z</time>
      </trkpt>
      <trkpt lat="-12.1318710" lon="-76.6065400">
        <ele>2164.9</ele>
        <time>2021-05-30T15:03:45Z</time>
      </trkpt>
      <trkpt lat="-12.1318900" lon="-76.6065360">
        <ele>2165.0</ele>
        <time>2021-05-30T15:03:47Z</time>
      </trkpt>
      <trkpt lat="-12.1319060" lon="-76.6065320">
        <ele>2165.1</ele>
        <time>2021-05-30T15:03:48Z</time>
      </trkpt>
      <trkpt lat="-12.1319200" lon="-76.6065210">
        <ele>2165.2</ele>
        <time>2021-05-30T15:03:49Z</time>
      </trkpt>
      <trkpt lat="-12.1319190" lon="-76.6065470">
        <ele>2165.3</ele>
        <time>2021-05-30T15:03:52Z</time>
      </trkpt>
      <trkpt lat="-12.1319180" lon="-76.6065550">
        <ele>2165.4</ele>
        <time>2021-05-30T15:03:53Z</time>
      </trkpt>
      <trkpt lat="-12.1319320" lon="-76.6065550">
        <ele>2165.5</ele>
        <time>2021-05-30T15:03:54Z</time>
      </trkpt>
      <trkpt lat="-12.1319460" lon="-76.6065520">
        <ele>2165.5</ele>
        <time>2021-05-30T15:03:55Z</time>
      </trkpt>
      <trkpt lat="-12.1319590" lon="-76.6065490">
        <ele>2165.6</ele>
        <time>2021-05-30T15:03:57Z</time>
      </trkpt>
      <trkpt lat="-12.1319730" lon="-76.6065470">
        <ele>2165.7</ele>
        <time>2021-05-30T15:03:59Z</time>
      </trkpt>
      <trkpt lat="-12.1319860" lon="-76.6065440">
        <ele>2165.8</ele>
        <time>2021-05-30T15:04:07Z</time>
      </trkpt>
      <trkpt lat="-12.1320000" lon="-76.6065410">
        <ele>2165.9</ele>
        <time>2021-05-30T15:04:08Z</time>
      </trkpt>
      <trkpt lat="-12.1320130" lon="-76.6065380">
        <ele>2165.9</ele>
        <time>2021-05-30T15:04:09Z</time>
      </trkpt>
      <trkpt lat="-12.1320320" lon="-76.6065140">
        <ele>2166.1</ele>
        <time>2021-05-30T15:04:11Z</time>
      </trkpt>
      <trkpt lat="-12.1320530" lon="-76.6064880">
        <ele>2166.3</ele>
        <time>2021-05-30T15:04:12Z</time>
      </trkpt>
      <trkpt lat="-12.1320670" lon="-76.6064640">
        <ele>2166.5</ele>
        <time>2021-05-30T15:04:13Z</time>
      </trkpt>
      <trkpt lat="-12.1320810" lon="-76.6064260">
        <ele>2166.7</ele>
        <time>2021-05-30T15:04:14Z</time>
      </trkpt>
      <trkpt lat="-12.1320960" lon="-76.6063840">
        <ele>2167.0</ele>
        <time>2021-05-30T15:04:16Z</time>
      </trkpt>
      <trkpt lat="-12.1321100" lon="-76.6063340">
        <ele>2167.3</ele>
        <time>2021-05-30T15:04:17Z</time>
      </trkpt>
      <trkpt lat="-12.1321210" lon="-76.6062800">
        <ele>2167.6</ele>
        <time>2021-05-30T15:04:19Z</time>
      </trkpt>
      <trkpt lat="-12.1321290" lon="-76.6062410">
        <ele>2167.8</ele>
        <time>2021-05-30T15:04:20Z</time>
      </trkpt>
      <trkpt lat="-12.1321340" lon="-76.6062010">
        <ele>2168.0</ele>
        <time>2021-05-30T15:04:21Z</time>
      </trkpt>
      <trkpt lat="-12.1321440" lon="-76.6061660">
        <ele>2168.2</ele>
        <time>2021-05-30T15:04:22Z</time>
      </trkpt>
      <trkpt lat="-12.1321590" lon="-76.6061090">
        <ele>2168.6</ele>
        <time>2021-05-30T15:04:24Z</time>
      </trkpt>
      <trkpt lat="-12.1321680" lon="-76.6060690">
        <ele>2168.8</ele>
        <time>2021-05-30T15:04:26Z</time>
      </trkpt>
      <trkpt lat="-12.1321780" lon="-76.6060330">
        <ele>2169.0</ele>
        <time>2021-05-30T15:04:27Z</time>
      </trkpt>
      <trkpt lat="-12.1321890" lon="-76.6059950">
        <ele>2169.3</ele>
        <time>2021-05-30T15:04:28Z</time>
      </trkpt>
      <trkpt lat="-12.1322040" lon="-76.6059500">
        <ele>2169.5</ele>
        <time>2021-05-30T15:04:30Z</time>
      </trkpt>
      <trkpt lat="-12.1322230" lon="-76.6059050">
        <ele>2169.8</ele>
        <time>2021-05-30T15:04:31Z</time>
      </trkpt>
      <trkpt lat="-12.1322390" lon="-76.6058670">
        <ele>2170.1</ele>
        <time>2021-05-30T15:04:33Z</time>
      </trkpt>
      <trkpt lat="-12.1322520" lon="-76.6058330">
        <ele>2170.3</ele>
        <time>2021-05-30T15:04:34Z</time>
      </trkpt>
      <trkpt lat="-12.1322720" lon="-76.6057850">
        <ele>2170.6</ele>
        <time>2021-05-30T15:04:36Z</time>
      </trkpt>
      <trkpt lat="-12.1322850" lon="-76.6057590">
        <ele>2170.7</ele>
        <time>2021-05-30T15:04:37Z</time>
      </trkpt>
      <trkpt lat="-12.1323010" lon="-76.6057250">
        <ele>2170.9</ele>
        <time>2021-05-30T15:04:38Z</time>
      </trkpt>
      <trkpt lat="-12.1323230" lon="-76.6056850">
        <ele>2171.2</ele>
        <time>2021-05-30T15:04:40Z</time>
      </trkpt>
      <trkpt lat="-12.1323310" lon="-76.6056700">
        <ele>2171.3</ele>
        <time>2021-05-30T15:04:41Z</time>
      </trkpt>
      <trkpt lat="-12.1323390" lon="-76.6056560">
        <ele>2171.4</ele>
        <time>2021-05-30T15:04:42Z</time>
      </trkpt>
      <trkpt lat="-12.1323500" lon="-76.6056280">
        <ele>2171.5</ele>
        <time>2021-05-30T15:04:43Z</time>
      </trkpt>
      <trkpt lat="-12.1323630" lon="-76.6055990">
        <ele>2171.7</ele>
        <time>2021-05-30T15:04:45Z</time>
      </trkpt>
      <trkpt lat="-12.1323660" lon="-76.6055890">
        <ele>2171.8</ele>
        <time>2021-05-30T15:04:46Z</time>
      </trkpt>
      <trkpt lat="-12.1323770" lon="-76.6055570">
        <ele>2172.0</ele>
        <time>2021-05-30T15:04:47Z</time>
      </trkpt>
      <trkpt lat="-12.1323880" lon="-76.6055250">
        <ele>2172.1</ele>
        <time>2021-05-30T15:04:49Z</time>
      </trkpt>
      <trkpt lat="-12.1323930" lon="-76.6055140">
        <ele>2172.2</ele>
        <time>2021-05-30T15:04:50Z</time>
      </trkpt>
      <trkpt lat="-12.1324050" lon="-76.6055000">
        <ele>2172.3</ele>
        <time>2021-05-30T15:04:52Z</time>
      </trkpt>
      <trkpt lat="-12.1324190" lon="-76.6054900">
        <ele>2172.4</ele>
        <time>2021-05-30T15:04:53Z</time>
      </trkpt>
      <trkpt lat="-12.1324430" lon="-76.6054710">
        <ele>2172.6</ele>
        <time>2021-05-30T15:04:54Z</time>
      </trkpt>
      <trkpt lat="-12.1324700" lon="-76.6054460">
        <ele>2172.8</ele>
        <time>2021-05-30T15:04:56Z</time>
      </trkpt>
      <trkpt lat="-12.1324900" lon="-76.6054290">
        <ele>2173.0</ele>
        <time>2021-05-30T15:04:57Z</time>
      </trkpt>
      <trkpt lat="-12.1325290" lon="-76.6054020">
        <ele>2173.2</ele>
        <time>2021-05-30T15:04:59Z</time>
      </trkpt>
      <trkpt lat="-12.1325620" lon="-76.6053870">
        <ele>2173.4</ele>
        <time>2021-05-30T15:05:00Z</time>
      </trkpt>
      <trkpt lat="-12.1325750" lon="-76.6053810">
        <ele>2173.5</ele>
        <time>2021-05-30T15:05:01Z</time>
      </trkpt>
      <trkpt lat="-12.1326120" lon="-76.6053660">
        <ele>2173.8</ele>
        <time>2021-05-30T15:05:02Z</time>
      </trkpt>
      <trkpt lat="-12.1326260" lon="-76.6053580">
        <ele>2173.8</ele>
        <time>2021-05-30T15:05:03Z</time>
      </trkpt>
      <trkpt lat="-12.1326520" lon="-76.6053430">
        <ele>2174.0</ele>
        <time>2021-05-30T15:05:05Z</time>
      </trkpt>
      <trkpt lat="-12.1326840" lon="-76.6053200">
        <ele>2174.2</ele>
        <time>2021-05-30T15:05:06Z</time>
      </trkpt>
      <trkpt lat="-12.1327070" lon="-76.6052980">
        <ele>2174.4</ele>
        <time>2021-05-30T15:05:08Z</time>
      </trkpt>
      <trkpt lat="-12.1327110" lon="-76.6052920">
        <ele>2174.5</ele>
        <time>2021-05-30T15:05:09Z</time>
      </trkpt>
      <trkpt lat="-12.1327320" lon="-76.6052680">
        <ele>2174.7</ele>
        <time>2021-05-30T15:05:10Z</time>
      </trkpt>
      <trkpt lat="-12.1327390" lon="-76.6052580">
        <ele>2174.7</ele>
        <time>2021-05-30T15:05:11Z</time>
      </trkpt>
      <trkpt lat="-12.1327520" lon="-76.6052370">
        <ele>2174.9</ele>
        <time>2021-05-30T15:05:12Z</time>
      </trkpt>
      <trkpt lat="-12.1327590" lon="-76.6052130">
        <ele>2175.0</ele>
        <time>2021-05-30T15:05:14Z</time>
      </trkpt>
      <trkpt lat="-12.1327700" lon="-76.6051820">
        <ele>2175.2</ele>
        <time>2021-05-30T15:05:15Z</time>
      </trkpt>
      <trkpt lat="-12.1327740" lon="-76.6051730">
        <ele>2175.2</ele>
        <time>2021-05-30T15:05:16Z</time>
      </trkpt>
      <trkpt lat="-12.1327820" lon="-76.6051300">
        <ele>2175.5</ele>
        <time>2021-05-30T15:05:18Z</time>
      </trkpt>
      <trkpt lat="-12.1327890" lon="-76.6051020">
        <ele>2175.7</ele>
        <time>2021-05-30T15:05:19Z</time>
      </trkpt>
      <trkpt lat="-12.1327970" lon="-76.6050820">
        <ele>2175.8</ele>
        <time>2021-05-30T15:05:20Z</time>
      </trkpt>
      <trkpt lat="-12.1328100" lon="-76.6050610">
        <ele>2175.9</ele>
        <time>2021-05-30T15:05:22Z</time>
      </trkpt>
      <trkpt lat="-12.1328200" lon="-76.6050370">
        <ele>2176.1</ele>
        <time>2021-05-30T15:05:23Z</time>
      </trkpt>
      <trkpt lat="-12.1328240" lon="-76.6050130">
        <ele>2176.2</ele>
        <time>2021-05-30T15:05:25Z</time>
      </trkpt>
      <trkpt lat="-12.1328290" lon="-76.6049970">
        <ele>2176.3</ele>
        <time>2021-05-30T15:05:26Z</time>
      </trkpt>
      <trkpt lat="-12.1328360" lon="-76.6049830">
        <ele>2176.4</ele>
        <time>2021-05-30T15:05:27Z</time>
      </trkpt>
      <trkpt lat="-12.1328510" lon="-76.6049640">
        <ele>2176.5</ele>
        <time>2021-05-30T15:05:28Z</time>
      </trkpt>
      <trkpt lat="-12.1328590" lon="-76.6049610">
        <ele>2176.6</ele>
        <time>2021-05-30T15:05:30Z</time>
      </trkpt>
      <trkpt lat="-12.1328670" lon="-76.6049570">
        <ele>2176.6</ele>
        <time>2021-05-30T15:05:31Z</time>
      </trkpt>
      <trkpt lat="-12.1328780" lon="-76.6049470">
        <ele>2176.7</ele>
        <time>2021-05-30T15:05:32Z</time>
      </trkpt>
      <trkpt lat="-12.1328910" lon="-76.6049310">
        <ele>2176.8</ele>
        <time>2021-05-30T15:05:33Z</time>
      </trkpt>
      <trkpt lat="-12.1329130" lon="-76.6049020">
        <ele>2177.0</ele>
        <time>2021-05-30T15:05:35Z</time>
      </trkpt>
      <trkpt lat="-12.1329210" lon="-76.6048910">
        <ele>2177.1</ele>
        <time>2021-05-30T15:05:36Z</time>
      </trkpt>
      <trkpt lat="-12.1329410" lon="-76.6048720">
        <ele>2177.3</ele>
        <time>2021-05-30T15:05:38Z</time>
      </trkpt>
      <trkpt lat="-12.1329590" lon="-76.6048610">
        <ele>2177.4</ele>
        <time>2021-05-30T15:05:40Z</time>
      </trkpt>
      <trkpt lat="-12.1329810" lon="-76.6048490">
        <ele>2177.5</ele>
        <time>2021-05-30T15:05:41Z</time>
      </trkpt>
      <trkpt lat="-12.1330000" lon="-76.6048380">
        <ele>2177.7</ele>
        <time>2021-05-30T15:05:43Z</time>
      </trkpt>
      <trkpt lat="-12.1330130" lon="-76.6048320">
        <ele>2177.8</ele>
        <time>2021-05-30T15:05:44Z</time>
      </trkpt>
      <trkpt lat="-12.1330250" lon="-76.6048250">
        <ele>2177.8</ele>
        <time>2021-05-30T15:05:45Z</time>
      </trkpt>
      <trkpt lat="-12.1330550" lon="-76.6048130">
        <ele>2178.0</ele>
        <time>2021-05-30T15:05:46Z</time>
      </trkpt>
      <trkpt lat="-12.1330660" lon="-76.6048080">
        <ele>2178.1</ele>
        <time>2021-05-30T15:05:47Z</time>
      </trkpt>
      <trkpt lat="-12.1331040" lon="-76.6048000">
        <ele>2178.3</ele>
        <time>2021-05-30T15:05:49Z</time>
      </trkpt>
      <trkpt lat="-12.1331180" lon="-76.6047980">
        <ele>2178.4</ele>
        <time>2021-05-30T15:05:50Z</time>
      </trkpt>
      <trkpt lat="-12.1331330" lon="-76.6048020">
        <ele>2178.4</ele>
        <time>2021-05-30T15:05:51Z</time>
      </trkpt>
      <trkpt lat="-12.1331500" lon="-76.6048100">
        <ele>2178.5</ele>
        <time>2021-05-30T15:05:53Z</time>
      </trkpt>
      <trkpt lat="-12.1331760" lon="-76.6048370">
        <ele>2178.7</ele>
        <time>2021-05-30T15:05:54Z</time>
      </trkpt>
      <trkpt lat="-12.1332050" lon="-76.6048730">
        <ele>2179.0</ele>
        <time>2021-05-30T15:05:56Z</time>
      </trkpt>
      <trkpt lat="-12.1332160" lon="-76.6048890">
        <ele>2179.1</ele>
        <time>2021-05-30T15:05:57Z</time>
      </trkpt>
      <trkpt lat="-12.1332420" lon="-76.6049260">
        <ele>2179.4</ele>
        <time>2021-05-30T15:05:59Z</time>
      </trkpt>
      <trkpt lat="-12.1332530" lon="-76.6049430">
        <ele>2179.5</ele>
        <time>2021-05-30T15:06:00Z</time>
      </trkpt>
      <trkpt lat="-12.1332840" lon="-76.6049690">
        <ele>2179.7</ele>
        <time>2021-05-30T15:06:02Z</time>
      </trkpt>
      <trkpt lat="-12.1332950" lon="-76.6049750">
        <ele>2179.8</ele>
        <time>2021-05-30T15:06:03Z</time>
      </trkpt>
      <trkpt lat="-12.1333060" lon="-76.6049810">
        <ele>2179.8</ele>
        <time>2021-05-30T15:06:04Z</time>
      </trkpt>
      <trkpt lat="-12.1333490" lon="-76.6049770">
        <ele>2180.1</ele>
        <time>2021-05-30T15:06:06Z</time>
      </trkpt>
      <trkpt lat="-12.1333640" lon="-76.6049740">
        <ele>2180.2</ele>
        <time>2021-05-30T15:06:07Z</time>
      </trkpt>
      <trkpt lat="-12.1334070" lon="-76.6049630">
        <ele>2180.4</ele>
        <time>2021-05-30T15:06:08Z</time>
      </trkpt>
      <trkpt lat="-12.1334240" lon="-76.6049580">
        <ele>2180.5</ele>
        <time>2021-05-30T15:06:09Z</time>
      </trkpt>
      <trkpt lat="-12.1334620" lon="-76.6049450">
        <ele>2180.8</ele>
        <time>2021-05-30T15:06:11Z</time>
      </trkpt>
      <trkpt lat="-12.1335010" lon="-76.6049320">
        <ele>2181.0</ele>
        <time>2021-05-30T15:06:12Z</time>
      </trkpt>
      <trkpt lat="-12.1335490" lon="-76.6049150">
        <ele>2181.3</ele>
        <time>2021-05-30T15:06:13Z</time>
      </trkpt>
      <trkpt lat="-12.1336070" lon="-76.6048990">
        <ele>2181.7</ele>
        <time>2021-05-30T15:06:15Z</time>
      </trkpt>
      <trkpt lat="-12.1336440" lon="-76.6048910">
        <ele>2181.9</ele>
        <time>2021-05-30T15:06:16Z</time>
      </trkpt>
      <trkpt lat="-12.1336830" lon="-76.6048850">
        <ele>2182.1</ele>
        <time>2021-05-30T15:06:17Z</time>
      </trkpt>
      <trkpt lat="-12.1337160" lon="-76.6048890">
        <ele>2182.3</ele>
        <time>2021-05-30T15:06:19Z</time>
      </trkpt>
      <trkpt lat="-12.1337430" lon="-76.6048960">
        <ele>2182.5</ele>
        <time>2021-05-30T15:06:20Z</time>
      </trkpt>
      <trkpt lat="-12.1337830" lon="-76.6049140">
        <ele>2182.7</ele>
        <time>2021-05-30T15:06:21Z</time>
      </trkpt>
      <trkpt lat="-12.1338180" lon="-76.6049300">
        <ele>2182.9</ele>
        <time>2021-05-30T15:06:23Z</time>
      </trkpt>
      <trkpt lat="-12.1338280" lon="-76.6049350">
        <ele>2183.0</ele>
        <time>2021-05-30T15:06:24Z</time>
      </trkpt>
      <trkpt lat="-12.1338600" lon="-76.6049510">
        <ele>2183.2</ele>
        <time>2021-05-30T15:06:25Z</time>
      </trkpt>
      <trkpt lat="-12.1338700" lon="-76.6049560">
        <ele>2183.3</ele>
        <time>2021-05-30T15:06:26Z</time>
      </trkpt>
      <trkpt lat="-12.1338970" lon="-76.6049660">
        <ele>2183.4</ele>
        <time>2021-05-30T15:06:27Z</time>
      </trkpt>
      <trkpt lat="-12.1339330" lon="-76.6049670">
        <ele>2183.6</ele>
        <time>2021-05-30T15:06:29Z</time>
      </trkpt>
      <trkpt lat="-12.1339640" lon="-76.6049600">
        <ele>2183.8</ele>
        <time>2021-05-30T15:06:30Z</time>
      </trkpt>
      <trkpt lat="-12.1340010" lon="-76.6049380">
        <ele>2184.1</ele>
        <time>2021-05-30T15:06:32Z</time>
      </trkpt>
      <trkpt lat="-12.1340320" lon="-76.6049120">
        <ele>2184.3</ele>
        <time>2021-05-30T15:06:34Z</time>
      </trkpt>
      <trkpt lat="-12.1340550" lon="-76.6048700">
        <ele>2184.6</ele>
        <time>2021-05-30T15:06:35Z</time>
      </trkpt>
      <trkpt lat="-12.1340640" lon="-76.6048500">
        <ele>2184.7</ele>
        <time>2021-05-30T15:06:36Z</time>
      </trkpt>
      <trkpt lat="-12.1340790" lon="-76.6048100">
        <ele>2184.9</ele>
        <time>2021-05-30T15:06:38Z</time>
      </trkpt>
      <trkpt lat="-12.1340880" lon="-76.6047720">
        <ele>2185.2</ele>
        <time>2021-05-30T15:06:39Z</time>
      </trkpt>
      <trkpt lat="-12.1340970" lon="-76.6047410">
        <ele>2185.4</ele>
        <time>2021-05-30T15:06:40Z</time>
      </trkpt>
      <trkpt lat="-12.1341060" lon="-76.6047160">
        <ele>2185.5</ele>
        <time>2021-05-30T15:06:41Z</time>
      </trkpt>
      <trkpt lat="-12.1341150" lon="-76.6046920">
        <ele>2185.6</ele>
        <time>2021-05-30T15:06:43Z</time>
      </trkpt>
      <trkpt lat="-12.1341260" lon="-76.6046580">
        <ele>2185.9</ele>
        <time>2021-05-30T15:06:44Z</time>
      </trkpt>
      <trkpt lat="-12.1341350" lon="-76.6046330">
        <ele>2186.0</ele>
        <time>2021-05-30T15:06:45Z</time>
      </trkpt>
      <trkpt lat="-12.1341510" lon="-76.6045950">
        <ele>2186.2</ele>
        <time>2021-05-30T15:06:47Z</time>
      </trkpt>
      <trkpt lat="-12.1341660" lon="-76.6045660">
        <ele>2186.4</ele>
        <time>2021-05-30T15:06:48Z</time>
      </trkpt>
      <trkpt lat="-12.1341840" lon="-76.6045350">
        <ele>2186.6</ele>
        <time>2021-05-30T15:06:49Z</time>
      </trkpt>
      <trkpt lat="-12.1341890" lon="-76.6045260">
        <ele>2186.7</ele>
        <time>2021-05-30T15:06:50Z</time>
      </trkpt>
      <trkpt lat="-12.1342060" lon="-76.6045020">
        <ele>2186.9</ele>
        <time>2021-05-30T15:06:52Z</time>
      </trkpt>
      <trkpt lat="-12.1342280" lon="-76.6044710">
        <ele>2187.1</ele>
        <time>2021-05-30T15:06:53Z</time>
      </trkpt>
      <trkpt lat="-12.1342490" lon="-76.6044380">
        <ele>2187.3</ele>
        <time>2021-05-30T15:06:55Z</time>
      </trkpt>
      <trkpt lat="-12.1342760" lon="-76.6044070">
        <ele>2187.5</ele>
        <time>2021-05-30T15:06:56Z</time>
      </trkpt>
      <trkpt lat="-12.1342970" lon="-76.6043850">
        <ele>2187.7</ele>
        <time>2021-05-30T15:06:58Z</time>
      </trkpt>
      <trkpt lat="-12.1343330" lon="-76.6043490">
        <ele>2188.0</ele>
        <time>2021-05-30T15:07:00Z</time>
      </trkpt>
      <trkpt lat="-12.1343570" lon="-76.6043260">
        <ele>2188.2</ele>
        <time>2021-05-30T15:07:01Z</time>
      </trkpt>
      <trkpt lat="-12.1343980" lon="-76.6042880">
        <ele>2188.5</ele>
        <time>2021-05-30T15:07:02Z</time>
      </trkpt>
      <trkpt lat="-12.1344230" lon="-76.6042630">
        <ele>2188.7</ele>
        <time>2021-05-30T15:07:04Z</time>
      </trkpt>
      <trkpt lat="-12.1344430" lon="-76.6042420">
        <ele>2188.9</ele>
        <time>2021-05-30T15:07:05Z</time>
      </trkpt>
      <trkpt lat="-12.1344640" lon="-76.6042190">
        <ele>2189.1</ele>
        <time>2021-05-30T15:07:06Z</time>
      </trkpt>
      <trkpt lat="-12.1344870" lon="-76.6041950">
        <ele>2189.2</ele>
        <time>2021-05-30T15:07:07Z</time>
      </trkpt>
      <trkpt lat="-12.1345130" lon="-76.6041650">
        <ele>2189.5</ele>
        <time>2021-05-30T15:07:09Z</time>
      </trkpt>
      <trkpt lat="-12.1345350" lon="-76.6041430">
        <ele>2189.7</ele>
        <time>2021-05-30T15:07:10Z</time>
      </trkpt>
      <trkpt lat="-12.1345610" lon="-76.6041210">
        <ele>2189.8</ele>
        <time>2021-05-30T15:07:11Z</time>
      </trkpt>
      <trkpt lat="-12.1345880" lon="-76.6041070">
        <ele>2190.0</ele>
        <time>2021-05-30T15:07:13Z</time>
      </trkpt>
      <trkpt lat="-12.1346180" lon="-76.6040980">
        <ele>2190.2</ele>
        <time>2021-05-30T15:07:14Z</time>
      </trkpt>
      <trkpt lat="-12.1346770" lon="-76.6040830">
        <ele>2190.6</ele>
        <time>2021-05-30T15:07:15Z</time>
      </trkpt>
      <trkpt lat="-12.1347070" lon="-76.6040810">
        <ele>2190.7</ele>
        <time>2021-05-30T15:07:17Z</time>
      </trkpt>
      <trkpt lat="-12.1347440" lon="-76.6040780">
        <ele>2190.9</ele>
        <time>2021-05-30T15:07:18Z</time>
      </trkpt>
      <trkpt lat="-12.1347780" lon="-76.6040740">
        <ele>2191.1</ele>
        <time>2021-05-30T15:07:19Z</time>
      </trkpt>
      <trkpt lat="-12.1348000" lon="-76.6040710">
        <ele>2191.3</ele>
        <time>2021-05-30T15:07:20Z</time>
      </trkpt>
      <trkpt lat="-12.1348240" lon="-76.6040650">
        <ele>2191.4</ele>
        <time>2021-05-30T15:07:22Z</time>
      </trkpt>
      <trkpt lat="-12.1348590" lon="-76.6040580">
        <ele>2191.6</ele>
        <time>2021-05-30T15:07:23Z</time>
      </trkpt>
      <trkpt lat="-12.1348730" lon="-76.6040540">
        <ele>2191.7</ele>
        <time>2021-05-30T15:07:24Z</time>
      </trkpt>
      <trkpt lat="-12.1348920" lon="-76.6040520">
        <ele>2191.8</ele>
        <time>2021-05-30T15:07:25Z</time>
      </trkpt>
      <trkpt lat="-12.1349140" lon="-76.6040430">
        <ele>2192.0</ele>
        <time>2021-05-30T15:07:27Z</time>
      </trkpt>
      <trkpt lat="-12.1349480" lon="-76.6040250">
        <ele>2192.2</ele>
        <time>2021-05-30T15:07:28Z</time>
      </trkpt>
      <trkpt lat="-12.1349570" lon="-76.6040180">
        <ele>2192.2</ele>
        <time>2021-05-30T15:07:29Z</time>
      </trkpt>
      <trkpt lat="-12.1349750" lon="-76.6040040">
        <ele>2192.4</ele>
        <time>2021-05-30T15:07:30Z</time>
      </trkpt>
      <trkpt lat="-12.1349920" lon="-76.6039940">
        <ele>2192.5</ele>
        <time>2021-05-30T15:07:32Z</time>
      </trkpt>
      <trkpt lat="-12.1350170" lon="-76.6039760">
        <ele>2192.7</ele>
        <time>2021-05-30T15:07:33Z</time>
      </trkpt>
      <trkpt lat="-12.1350240" lon="-76.6039700">
        <ele>2192.7</ele>
        <time>2021-05-30T15:07:34Z</time>
      </trkpt>
      <trkpt lat="-12.1350510" lon="-76.6039580">
        <ele>2192.9</ele>
        <time>2021-05-30T15:07:35Z</time>
      </trkpt>
      <trkpt lat="-12.1350610" lon="-76.6039540">
        <ele>2193.0</ele>
        <time>2021-05-30T15:07:36Z</time>
      </trkpt>
      <trkpt lat="-12.1350820" lon="-76.6039490">
        <ele>2193.1</ele>
        <time>2021-05-30T15:07:37Z</time>
      </trkpt>
      <trkpt lat="-12.1351120" lon="-76.6039440">
        <ele>2193.3</ele>
        <time>2021-05-30T15:07:39Z</time>
      </trkpt>
      <trkpt lat="-12.1351370" lon="-76.6039320">
        <ele>2193.4</ele>
        <time>2021-05-30T15:07:40Z</time>
      </trkpt>
      <trkpt lat="-12.1351530" lon="-76.6039290">
        <ele>2193.5</ele>
        <time>2021-05-30T15:07:41Z</time>
      </trkpt>
      <trkpt lat="-12.1351690" lon="-76.6039330">
        <ele>2193.6</ele>
        <time>2021-05-30T15:07:42Z</time>
      </trkpt>
      <trkpt lat="-12.1352090" lon="-76.6039450">
        <ele>2193.8</ele>
        <time>2021-05-30T15:07:44Z</time>
      </trkpt>
      <trkpt lat="-12.1352220" lon="-76.6039480">
        <ele>2193.9</ele>
        <time>2021-05-30T15:07:46Z</time>
      </trkpt>
      <trkpt lat="-12.1352360" lon="-76.6039520">
        <ele>2194.0</ele>
        <time>2021-05-30T15:07:47Z</time>
      </trkpt>
      <trkpt lat="-12.1352680" lon="-76.6039710">
        <ele>2194.2</ele>
        <time>2021-05-30T15:07:48Z</time>
      </trkpt>
      <trkpt lat="-12.1352810" lon="-76.6039810">
        <ele>2194.3</ele>
        <time>2021-05-30T15:07:49Z</time>
      </trkpt>
      <trkpt lat="-12.1352900" lon="-76.6040030">
        <ele>2194.5</ele>
        <time>2021-05-30T15:07:50Z</time>
      </trkpt>
      <trkpt lat="-12.1353110" lon="-76.6040200">
        <ele>2194.6</ele>
        <time>2021-05-30T15:07:52Z</time>
      </trkpt>
      <trkpt lat="-12.1353370" lon="-76.6040380">
        <ele>2194.8</ele>
        <time>2021-05-30T15:07:53Z</time>
      </trkpt>
      <trkpt lat="-12.1353770" lon="-76.6040430">
        <ele>2195.0</ele>
        <time>2021-05-30T15:07:55Z</time>
      </trkpt>
      <trkpt lat="-12.1353910" lon="-76.6040420">
        <ele>2195.1</ele>
        <time>2021-05-30T15:07:56Z</time>
      </trkpt>
      <trkpt lat="-12.1354240" lon="-76.6040430">
        <ele>2195.3</ele>
        <time>2021-05-30T15:07:57Z</time>
      </trkpt>
      <trkpt lat="-12.1354350" lon="-76.6040430">
        <ele>2195.4</ele>
        <time>2021-05-30T15:07:58Z</time>
      </trkpt>
      <trkpt lat="-12.1354640" lon="-76.6040380">
        <ele>2195.5</ele>
        <time>2021-05-30T15:08:00Z</time>
      </trkpt>
      <trkpt lat="-12.1354920" lon="-76.6040330">
        <ele>2195.7</ele>
        <time>2021-05-30T15:08:01Z</time>
      </trkpt>
      <trkpt lat="-12.1355230" lon="-76.6040230">
        <ele>2195.9</ele>
        <time>2021-05-30T15:08:02Z</time>
      </trkpt>
      <trkpt lat="-12.1355660" lon="-76.6040150">
        <ele>2196.1</ele>
        <time>2021-05-30T15:08:04Z</time>
      </trkpt>
      <trkpt lat="-12.1355800" lon="-76.6040100">
        <ele>2196.2</ele>
        <time>2021-05-30T15:08:05Z</time>
      </trkpt>
      <trkpt lat="-12.1355940" lon="-76.6040060">
        <ele>2196.3</ele>
        <time>2021-05-30T15:08:06Z</time>
      </trkpt>
      <trkpt lat="-12.1356160" lon="-76.6039950">
        <ele>2196.4</ele>
        <time>2021-05-30T15:08:07Z</time>
      </trkpt>
      <trkpt lat="-12.1356390" lon="-76.6039800">
        <ele>2196.6</ele>
        <time>2021-05-30T15:08:09Z</time>
      </trkpt>
      <trkpt lat="-12.1356660" lon="-76.6039580">
        <ele>2196.8</ele>
        <time>2021-05-30T15:08:10Z</time>
      </trkpt>
      <trkpt lat="-12.1356870" lon="-76.6039380">
        <ele>2197.0</ele>
        <time>2021-05-30T15:08:11Z</time>
      </trkpt>
      <trkpt lat="-12.1357060" lon="-76.6039140">
        <ele>2197.1</ele>
        <time>2021-05-30T15:08:12Z</time>
      </trkpt>
      <trkpt lat="-12.1357330" lon="-76.6038880">
        <ele>2197.4</ele>
        <time>2021-05-30T15:08:14Z</time>
      </trkpt>
      <trkpt lat="-12.1357480" lon="-76.6038740">
        <ele>2197.5</ele>
        <time>2021-05-30T15:08:15Z</time>
      </trkpt>
      <trkpt lat="-12.1357690" lon="-76.6038570">
        <ele>2197.6</ele>
        <time>2021-05-30T15:08:17Z</time>
      </trkpt>
      <trkpt lat="-12.1357900" lon="-76.6038440">
        <ele>2197.8</ele>
        <time>2021-05-30T15:08:18Z</time>
      </trkpt>
      <trkpt lat="-12.1358190" lon="-76.6038330">
        <ele>2198.0</ele>
        <time>2021-05-30T15:08:20Z</time>
      </trkpt>
      <trkpt lat="-12.1358590" lon="-76.6038220">
        <ele>2198.2</ele>
        <time>2021-05-30T15:08:21Z</time>
      </trkpt>
      <trkpt lat="-12.1358750" lon="-76.6038170">
        <ele>2198.3</ele>
        <time>2021-05-30T15:08:22Z</time>
      </trkpt>
      <trkpt lat="-12.1359200" lon="-76.6038110">
        <ele>2198.6</ele>
        <time>2021-05-30T15:08:24Z</time>
      </trkpt>
      <trkpt lat="-12.1359350" lon="-76.6038100">
        <ele>2198.6</ele>
        <time>2021-05-30T15:08:25Z</time>
      </trkpt>
      <trkpt lat="-12.1359490" lon="-76.6038080">
        <ele>2198.7</ele>
        <time>2021-05-30T15:08:26Z</time>
      </trkpt>
      <trkpt lat="-12.1359870" lon="-76.6038030">
        <ele>2198.9</ele>
        <time>2021-05-30T15:08:27Z</time>
      </trkpt>
      <trkpt lat="-12.1360000" lon="-76.6038000">
        <ele>2199.0</ele>
        <time>2021-05-30T15:08:28Z</time>
      </trkpt>
      <trkpt lat="-12.1360370" lon="-76.6037840">
        <ele>2199.3</ele>
        <time>2021-05-30T15:08:29Z</time>
      </trkpt>
      <trkpt lat="-12.1360490" lon="-76.6037780">
        <ele>2199.3</ele>
        <time>2021-05-30T15:08:30Z</time>
      </trkpt>
      <trkpt lat="-12.1360740" lon="-76.6037700">
        <ele>2199.5</ele>
        <time>2021-05-30T15:08:32Z</time>
      </trkpt>
      <trkpt lat="-12.1361010" lon="-76.6037620">
        <ele>2199.7</ele>
        <time>2021-05-30T15:08:33Z</time>
      </trkpt>
      <trkpt lat="-12.1361410" lon="-76.6037380">
        <ele>2199.9</ele>
        <time>2021-05-30T15:08:35Z</time>
      </trkpt>
      <trkpt lat="-12.1361540" lon="-76.6037300">
        <ele>2200.0</ele>
        <time>2021-05-30T15:08:36Z</time>
      </trkpt>
      <trkpt lat="-12.1361680" lon="-76.6037210">
        <ele>2200.1</ele>
        <time>2021-05-30T15:08:37Z</time>
      </trkpt>
      <trkpt lat="-12.1361960" lon="-76.6037060">
        <ele>2200.3</ele>
        <time>2021-05-30T15:08:39Z</time>
      </trkpt>
      <trkpt lat="-12.1362190" lon="-76.6036850">
        <ele>2200.5</ele>
        <time>2021-05-30T15:08:40Z</time>
      </trkpt>
      <trkpt lat="-12.1362370" lon="-76.6036730">
        <ele>2200.6</ele>
        <time>2021-05-30T15:08:41Z</time>
      </trkpt>
      <trkpt lat="-12.1362560" lon="-76.6036620">
        <ele>2200.7</ele>
        <time>2021-05-30T15:08:43Z</time>
      </trkpt>
      <trkpt lat="-12.1362930" lon="-76.6036520">
        <ele>2200.9</ele>
        <time>2021-05-30T15:08:44Z</time>
      </trkpt>
      <trkpt lat="-12.1363030" lon="-76.6036480">
        <ele>2201.0</ele>
        <time>2021-05-30T15:08:45Z</time>
      </trkpt>
      <trkpt lat="-12.1363330" lon="-76.6036360">
        <ele>2201.2</ele>
        <time>2021-05-30T15:08:46Z</time>
      </trkpt>
      <trkpt lat="-12.1363820" lon="-76.6036210">
        <ele>2201.5</ele>
        <time>2021-05-30T15:08:48Z</time>
      </trkpt>
      <trkpt lat="-12.1364020" lon="-76.6036170">
        <ele>2201.6</ele>
        <time>2021-05-30T15:08:49Z</time>
      </trkpt>
      <trkpt lat="-12.1364220" lon="-76.6036120">
        <ele>2201.7</ele>
        <time>2021-05-30T15:08:50Z</time>
      </trkpt>
      <trkpt lat="-12.1364660" lon="-76.6036040">
        <ele>2202.0</ele>
        <time>2021-05-30T15:08:52Z</time>
      </trkpt>
      <trkpt lat="-12.1364920" lon="-76.6035970">
        <ele>2202.1</ele>
        <time>2021-05-30T15:08:53Z</time>
      </trkpt>
      <trkpt lat="-12.1365320" lon="-76.6035860">
        <ele>2202.4</ele>
        <time>2021-05-30T15:08:54Z</time>
      </trkpt>
      <trkpt lat="-12.1365680" lon="-76.6035750">
        <ele>2202.6</ele>
        <time>2021-05-30T15:08:56Z</time>
      </trkpt>
      <trkpt lat="-12.1366070" lon="-76.6035630">
        <ele>2202.8</ele>
        <time>2021-05-30T15:08:57Z</time>
      </trkpt>
      <trkpt lat="-12.1366430" lon="-76.6035530">
        <ele>2203.0</ele>
        <time>2021-05-30T15:08:59Z</time>
      </trkpt>
      <trkpt lat="-12.1366680" lon="-76.6035420">
        <ele>2203.2</ele>
        <time>2021-05-30T15:09:00Z</time>
      </trkpt>
      <trkpt lat="-12.1366970" lon="-76.6035340">
        <ele>2203.4</ele>
        <time>2021-05-30T15:09:01Z</time>
      </trkpt>
      <trkpt lat="-12.1367240" lon="-76.6035280">
        <ele>2203.5</ele>
        <time>2021-05-30T15:09:02Z</time>
      </trkpt>
      <trkpt lat="-12.1367690" lon="-76.6035170">
        <ele>2203.8</ele>
        <time>2021-05-30T15:09:04Z</time>
      </trkpt>
      <trkpt lat="-12.1367860" lon="-76.6035120">
        <ele>2203.9</ele>
        <time>2021-05-30T15:09:06Z</time>
      </trkpt>
      <trkpt lat="-12.1368020" lon="-76.6035070">
        <ele>2204.0</ele>
        <time>2021-05-30T15:09:07Z</time>
      </trkpt>
      <trkpt lat="-12.1368190" lon="-76.6035020">
        <ele>2204.1</ele>
        <time>2021-05-30T15:09:08Z</time>
      </trkpt>
      <trkpt lat="-12.1368420" lon="-76.6034880">
        <ele>2204.3</ele>
        <time>2021-05-30T15:09:09Z</time>
      </trkpt>
      <trkpt lat="-12.1368630" lon="-76.6034770">
        <ele>2204.4</ele>
        <time>2021-05-30T15:09:11Z</time>
      </trkpt>
      <trkpt lat="-12.1368930" lon="-76.6034600">
        <ele>2204.6</ele>
        <time>2021-05-30T15:09:12Z</time>
      </trkpt>
      <trkpt lat="-12.1369050" lon="-76.6034540">
        <ele>2204.7</ele>
        <time>2021-05-30T15:09:13Z</time>
      </trkpt>
      <trkpt lat="-12.1369290" lon="-76.6034360">
        <ele>2204.9</ele>
        <time>2021-05-30T15:09:15Z</time>
      </trkpt>
      <trkpt lat="-12.1369350" lon="-76.6034300">
        <ele>2204.9</ele>
        <time>2021-05-30T15:09:16Z</time>
      </trkpt>
      <trkpt lat="-12.1369460" lon="-76.6034190">
        <ele>2205.0</ele>
        <time>2021-05-30T15:09:17Z</time>
      </trkpt>
      <trkpt lat="-12.1369560" lon="-76.6034020">
        <ele>2205.1</ele>
        <time>2021-05-30T15:09:18Z</time>
      </trkpt>
      <trkpt lat="-12.1369690" lon="-76.6033810">
        <ele>2205.2</ele>
        <time>2021-05-30T15:09:19Z</time>
      </trkpt>
      <trkpt lat="-12.1369880" lon="-76.6033650">
        <ele>2205.4</ele>
        <time>2021-05-30T15:09:21Z</time>
      </trkpt>
      <trkpt lat="-12.1370120" lon="-76.6033490">
        <ele>2205.6</ele>
        <time>2021-05-30T15:09:22Z</time>
      </trkpt>
      <trkpt lat="-12.1370210" lon="-76.6033420">
        <ele>2205.6</ele>
        <time>2021-05-30T15:09:23Z</time>
      </trkpt>
      <trkpt lat="-12.1370510" lon="-76.6033290">
        <ele>2205.8</ele>
        <time>2021-05-30T15:09:25Z</time>
      </trkpt>
      <trkpt lat="-12.1370620" lon="-76.6033250">
        <ele>2205.9</ele>
        <time>2021-05-30T15:09:26Z</time>
      </trkpt>
      <trkpt lat="-12.1371030" lon="-76.6033170">
        <ele>2206.1</ele>
        <time>2021-05-30T15:09:28Z</time>
      </trkpt>
      <trkpt lat="-12.1371180" lon="-76.6033140">
        <ele>2206.2</ele>
        <time>2021-05-30T15:09:29Z</time>
      </trkpt>
      <trkpt lat="-12.1371530" lon="-76.6033140">
        <ele>2206.4</ele>
        <time>2021-05-30T15:09:31Z</time>
      </trkpt>
      <trkpt lat="-12.1371670" lon="-76.6033160">
        <ele>2206.5</ele>
        <time>2021-05-30T15:09:32Z</time>
      </trkpt>
      <trkpt lat="-12.1372070" lon="-76.6033250">
        <ele>2206.7</ele>
        <time>2021-05-30T15:09:34Z</time>
      </trkpt>
      <trkpt lat="-12.1372260" lon="-76.6033320">
        <ele>2206.8</ele>
        <time>2021-05-30T15:09:35Z</time>
      </trkpt>
      <trkpt lat="-12.1372600" lon="-76.6033430">
        <ele>2207.1</ele>
        <time>2021-05-30T15:09:37Z</time>
      </trkpt>
      <trkpt lat="-12.1372990" lon="-76.6033600">
        <ele>2207.3</ele>
        <time>2021-05-30T15:09:38Z</time>
      </trkpt>
      <trkpt lat="-12.1373140" lon="-76.6033680">
        <ele>2207.4</ele>
        <time>2021-05-30T15:09:39Z</time>
      </trkpt>
      <trkpt lat="-12.1373460" lon="-76.6033820">
        <ele>2207.6</ele>
        <time>2021-05-30T15:09:40Z</time>
      </trkpt>
      <trkpt lat="-12.1373830" lon="-76.6034010">
        <ele>2207.8</ele>
        <time>2021-05-30T15:09:42Z</time>
      </trkpt>
      <trkpt lat="-12.1374220" lon="-76.6034170">
        <ele>2208.1</ele>
        <time>2021-05-30T15:09:43Z</time>
      </trkpt>
      <trkpt lat="-12.1374550" lon="-76.6034350">
        <ele>2208.3</ele>
        <time>2021-05-30T15:09:45Z</time>
      </trkpt>
      <trkpt lat="-12.1374780" lon="-76.6034490">
        <ele>2208.5</ele>
        <time>2021-05-30T15:09:46Z</time>
      </trkpt>
      <trkpt lat="-12.1375110" lon="-76.6034640">
        <ele>2208.7</ele>
        <time>2021-05-30T15:09:47Z</time>
      </trkpt>
      <trkpt lat="-12.1375420" lon="-76.6034770">
        <ele>2208.9</ele>
        <time>2021-05-30T15:09:48Z</time>
      </trkpt>
      <trkpt lat="-12.1375710" lon="-76.6034860">
        <ele>2209.0</ele>
        <time>2021-05-30T15:09:49Z</time>
      </trkpt>
      <trkpt lat="-12.1376190" lon="-76.6035000">
        <ele>2209.3</ele>
        <time>2021-05-30T15:09:51Z</time>
      </trkpt>
      <trkpt lat="-12.1376530" lon="-76.6035080">
        <ele>2209.5</ele>
        <time>2021-05-30T15:09:52Z</time>
      </trkpt>
      <trkpt lat="-12.1376930" lon="-76.6035170">
        <ele>2209.8</ele>
        <time>2021-05-30T15:09:54Z</time>
      </trkpt>
      <trkpt lat="-12.1377210" lon="-76.6035250">
        <ele>2209.9</ele>
        <time>2021-05-30T15:09:55Z</time>
      </trkpt>
      <trkpt lat="-12.1377510" lon="-76.6035340">
        <ele>2210.1</ele>
        <time>2021-05-30T15:09:56Z</time>
      </trkpt>
      <trkpt lat="-12.1377850" lon="-76.6035370">
        <ele>2210.3</ele>
        <time>2021-05-30T15:09:58Z</time>
      </trkpt>
      <trkpt lat="-12.1377930" lon="-76.6035370">
        <ele>2210.4</ele>
        <time>2021-05-30T15:09:59Z</time>
      </trkpt>
      <trkpt lat="-12.1378270" lon="-76.6035400">
        <ele>2210.6</ele>
        <time>2021-05-30T15:10:00Z</time>
      </trkpt>
      <trkpt lat="-12.1378400" lon="-76.6035400">
        <ele>2210.6</ele>
        <time>2021-05-30T15:10:01Z</time>
      </trkpt>
      <trkpt lat="-12.1378720" lon="-76.6035380">
        <ele>2210.8</ele>
        <time>2021-05-30T15:10:03Z</time>
      </trkpt>
      <trkpt lat="-12.1378810" lon="-76.6035390">
        <ele>2210.9</ele>
        <time>2021-05-30T15:10:04Z</time>
      </trkpt>
      <trkpt lat="-12.1379100" lon="-76.6035430">
        <ele>2211.0</ele>
        <time>2021-05-30T15:10:05Z</time>
      </trkpt>
      <trkpt lat="-12.1379190" lon="-76.6035440">
        <ele>2211.1</ele>
        <time>2021-05-30T15:10:06Z</time>
      </trkpt>
      <trkpt lat="-12.1379470" lon="-76.6035510">
        <ele>2211.3</ele>
        <time>2021-05-30T15:10:07Z</time>
      </trkpt>
      <trkpt lat="-12.1379720" lon="-76.6035570">
        <ele>2211.4</ele>
        <time>2021-05-30T15:10:08Z</time>
      </trkpt>
      <trkpt lat="-12.1380030" lon="-76.6035670">
        <ele>2211.6</ele>
        <time>2021-05-30T15:10:10Z</time>
      </trkpt>
      <trkpt lat="-12.1380360" lon="-76.6035800">
        <ele>2211.8</ele>
        <time>2021-05-30T15:10:11Z</time>
      </trkpt>
      <trkpt lat="-12.1380660" lon="-76.6035990">
        <ele>2212.0</ele>
        <time>2021-05-30T15:10:12Z</time>
      </trkpt>
      <trkpt lat="-12.1380880" lon="-76.6036150">
        <ele>2212.5</ele>
        <time>2021-05-30T15:10:14Z</time>
      </trkpt>
      <trkpt lat="-12.1381110" lon="-76.6036330">
        <ele>2212.6</ele>
        <time>2021-05-30T15:10:15Z</time>
      </trkpt>
      <trkpt lat="-12.1381290" lon="-76.6036580">
        <ele>2212.8</ele>
        <time>2021-05-30T15:10:16Z</time>
      </trkpt>
      <trkpt lat="-12.1381430" lon="-76.6036940">
        <ele>2213.0</ele>
        <time>2021-05-30T15:10:18Z</time>
      </trkpt>
      <trkpt lat="-12.1381520" lon="-76.6037280">
        <ele>2213.1</ele>
        <time>2021-05-30T15:10:19Z</time>
      </trkpt>
      <trkpt lat="-12.1381600" lon="-76.6037640">
        <ele>2213.2</ele>
        <time>2021-05-30T15:10:20Z</time>
      </trkpt>
      <trkpt lat="-12.1381700" lon="-76.6038020">
        <ele>2213.2</ele>
        <time>2021-05-30T15:10:22Z</time>
      </trkpt>
      <trkpt lat="-12.1381770" lon="-76.6038320">
        <ele>2213.3</ele>
        <time>2021-05-30T15:10:23Z</time>
      </trkpt>
      <trkpt lat="-12.1381820" lon="-76.6038610">
        <ele>2213.3</ele>
        <time>2021-05-30T15:10:24Z</time>
      </trkpt>
      <trkpt lat="-12.1381860" lon="-76.6038950">
        <ele>2213.4</ele>
        <time>2021-05-30T15:10:25Z</time>
      </trkpt>
      <trkpt lat="-12.1381700" lon="-76.6039430">
        <ele>2213.4</ele>
        <time>2021-05-30T15:10:27Z</time>
      </trkpt>
      <trkpt lat="-12.1381640" lon="-76.6039580">
        <ele>2213.5</ele>
        <time>2021-05-30T15:10:28Z</time>
      </trkpt>
      <trkpt lat="-12.1381570" lon="-76.6039740">
        <ele>2213.5</ele>
        <time>2021-05-30T15:10:29Z</time>
      </trkpt>
      <trkpt lat="-12.1381330" lon="-76.6040090">
        <ele>2213.5</ele>
        <time>2021-05-30T15:10:31Z</time>
      </trkpt>
      <trkpt lat="-12.1381040" lon="-76.6040470">
        <ele>2213.5</ele>
        <time>2021-05-30T15:10:32Z</time>
      </trkpt>
      <trkpt lat="-12.1380900" lon="-76.6040640">
        <ele>2213.6</ele>
        <time>2021-05-30T15:10:33Z</time>
      </trkpt>
      <trkpt lat="-12.1380670" lon="-76.6040900">
        <ele>2213.6</ele>
        <time>2021-05-30T15:10:34Z</time>
      </trkpt>
      <trkpt lat="-12.1380420" lon="-76.6041180">
        <ele>2213.7</ele>
        <time>2021-05-30T15:10:36Z</time>
      </trkpt>
      <trkpt lat="-12.1380200" lon="-76.6041440">
        <ele>2213.7</ele>
        <time>2021-05-30T15:10:37Z</time>
      </trkpt>
      <trkpt lat="-12.1379960" lon="-76.6041710">
        <ele>2213.8</ele>
        <time>2021-05-30T15:10:38Z</time>
      </trkpt>
      <trkpt lat="-12.1379540" lon="-76.6042140">
        <ele>2214.0</ele>
        <time>2021-05-30T15:10:39Z</time>
      </trkpt>
      <trkpt lat="-12.1379300" lon="-76.6042360">
        <ele>2214.1</ele>
        <time>2021-05-30T15:10:40Z</time>
      </trkpt>
      <trkpt lat="-12.1379010" lon="-76.6042610">
        <ele>2214.2</ele>
        <time>2021-05-30T15:10:42Z</time>
      </trkpt>
      <trkpt lat="-12.1378610" lon="-76.6042930">
        <ele>2214.4</ele>
        <time>2021-05-30T15:10:43Z</time>
      </trkpt>
      <trkpt lat="-12.1378320" lon="-76.6043160">
        <ele>2214.5</ele>
        <time>2021-05-30T15:10:45Z</time>
      </trkpt>
      <trkpt lat="-12.1378000" lon="-76.6043410">
        <ele>2214.7</ele>
        <time>2021-05-30T15:10:46Z</time>
      </trkpt>
      <trkpt lat="-12.1377610" lon="-76.6043630">
        <ele>2214.8</ele>
        <time>2021-05-30T15:10:47Z</time>
      </trkpt>
      <trkpt lat="-12.1377300" lon="-76.6043810">
        <ele>2214.9</ele>
        <time>2021-05-30T15:10:49Z</time>
      </trkpt>
      <trkpt lat="-12.1377250" lon="-76.6043880">
        <ele>2214.9</ele>
        <time>2021-05-30T15:10:51Z</time>
      </trkpt>
      <trkpt lat="-12.1377210" lon="-76.6043950">
        <ele>2215.0</ele>
        <time>2021-05-30T15:10:52Z</time>
      </trkpt>
      <trkpt lat="-12.1377160" lon="-76.6044010">
        <ele>2215.0</ele>
        <time>2021-05-30T15:10:54Z</time>
      </trkpt>
      <trkpt lat="-12.1377120" lon="-76.6044080">
        <ele>2215.0</ele>
        <time>2021-05-30T15:10:56Z</time>
      </trkpt>
      <trkpt lat="-12.1377080" lon="-76.6044150">
        <ele>2215.0</ele>
        <time>2021-05-30T15:10:58Z</time>
      </trkpt>
      <trkpt lat="-12.1377030" lon="-76.6044220">
        <ele>2215.1</ele>
        <time>2021-05-30T15:10:59Z</time>
      </trkpt>
      <trkpt lat="-12.1376990" lon="-76.6044290">
        <ele>2215.1</ele>
        <time>2021-05-30T15:11:00Z</time>
      </trkpt>
      <trkpt lat="-12.1376950" lon="-76.6044360">
        <ele>2215.1</ele>
        <time>2021-05-30T15:11:02Z</time>
      </trkpt>
      <trkpt lat="-12.1376900" lon="-76.6044420">
        <ele>2215.1</ele>
        <time>2021-05-30T15:11:04Z</time>
      </trkpt>
      <trkpt lat="-12.1376860" lon="-76.6044490">
        <ele>2215.1</ele>
        <time>2021-05-30T15:11:15Z</time>
      </trkpt>
      <trkpt lat="-12.1376810" lon="-76.6044560">
        <ele>2215.2</ele>
        <time>2021-05-30T15:11:16Z</time>
      </trkpt>
      <trkpt lat="-12.1376770" lon="-76.6044630">
        <ele>2215.2</ele>
        <time>2021-05-30T15:11:17Z</time>
      </trkpt>
      <trkpt lat="-12.1376850" lon="-76.6045000">
        <ele>2215.3</ele>
        <time>2021-05-30T15:11:19Z</time>
      </trkpt>
      <trkpt lat="-12.1376900" lon="-76.6045160">
        <ele>2215.4</ele>
        <time>2021-05-30T15:11:20Z</time>
      </trkpt>
      <trkpt lat="-12.1377140" lon="-76.6045610">
        <ele>2215.7</ele>
        <time>2021-05-30T15:11:22Z</time>
      </trkpt>
      <trkpt lat="-12.1377230" lon="-76.6045760">
        <ele>2215.8</ele>
        <time>2021-05-30T15:11:24Z</time>
      </trkpt>
      <trkpt lat="-12.1377310" lon="-76.6045900">
        <ele>2215.8</ele>
        <time>2021-05-30T15:11:25Z</time>
      </trkpt>
      <trkpt lat="-12.1377400" lon="-76.6046050">
        <ele>2215.9</ele>
        <time>2021-05-30T15:11:26Z</time>
      </trkpt>
      <trkpt lat="-12.1377550" lon="-76.6046310">
        <ele>2216.1</ele>
        <time>2021-05-30T15:11:27Z</time>
      </trkpt>
      <trkpt lat="-12.1377650" lon="-76.6046470">
        <ele>2216.2</ele>
        <time>2021-05-30T15:11:28Z</time>
      </trkpt>
      <trkpt lat="-12.1377860" lon="-76.6046760">
        <ele>2216.4</ele>
        <time>2021-05-30T15:11:30Z</time>
      </trkpt>
      <trkpt lat="-12.1378060" lon="-76.6047030">
        <ele>2216.6</ele>
        <time>2021-05-30T15:11:31Z</time>
      </trkpt>
      <trkpt lat="-12.1378270" lon="-76.6047340">
        <ele>2216.8</ele>
        <time>2021-05-30T15:11:33Z</time>
      </trkpt>
      <trkpt lat="-12.1378420" lon="-76.6047660">
        <ele>2216.9</ele>
        <time>2021-05-30T15:11:34Z</time>
      </trkpt>
      <trkpt lat="-12.1378510" lon="-76.6047960">
        <ele>2217.1</ele>
        <time>2021-05-30T15:11:35Z</time>
      </trkpt>
      <trkpt lat="-12.1378530" lon="-76.6048260">
        <ele>2217.1</ele>
        <time>2021-05-30T15:11:36Z</time>
      </trkpt>
      <trkpt lat="-12.1378250" lon="-76.6048720">
        <ele>2217.3</ele>
        <time>2021-05-30T15:11:38Z</time>
      </trkpt>
      <trkpt lat="-12.1378140" lon="-76.6048860">
        <ele>2217.3</ele>
        <time>2021-05-30T15:11:39Z</time>
      </trkpt>
      <trkpt lat="-12.1378030" lon="-76.6049010">
        <ele>2217.3</ele>
        <time>2021-05-30T15:11:40Z</time>
      </trkpt>
      <trkpt lat="-12.1377820" lon="-76.6049210">
        <ele>2217.3</ele>
        <time>2021-05-30T15:11:42Z</time>
      </trkpt>
      <trkpt lat="-12.1377370" lon="-76.6049530">
        <ele>2217.4</ele>
        <time>2021-05-30T15:11:44Z</time>
      </trkpt>
      <trkpt lat="-12.1377060" lon="-76.6049710">
        <ele>2217.5</ele>
        <time>2021-05-30T15:11:45Z</time>
      </trkpt>
      <trkpt lat="-12.1376730" lon="-76.6049900">
        <ele>2217.5</ele>
        <time>2021-05-30T15:11:46Z</time>
      </trkpt>
      <trkpt lat="-12.1376290" lon="-76.6050140">
        <ele>2217.6</ele>
        <time>2021-05-30T15:11:47Z</time>
      </trkpt>
      <trkpt lat="-12.1376000" lon="-76.6050370">
        <ele>2217.7</ele>
        <time>2021-05-30T15:11:48Z</time>
      </trkpt>
      <trkpt lat="-12.1375710" lon="-76.6050670">
        <ele>2217.8</ele>
        <time>2021-05-30T15:11:49Z</time>
      </trkpt>
      <trkpt lat="-12.1375440" lon="-76.6050970">
        <ele>2218.0</ele>
        <time>2021-05-30T15:11:50Z</time>
      </trkpt>
      <trkpt lat="-12.1375200" lon="-76.6051260">
        <ele>2218.1</ele>
        <time>2021-05-30T15:11:52Z</time>
      </trkpt>
      <trkpt lat="-12.1374930" lon="-76.6051530">
        <ele>2218.2</ele>
        <time>2021-05-30T15:11:53Z</time>
      </trkpt>
      <trkpt lat="-12.1374630" lon="-76.6051940">
        <ele>2218.4</ele>
        <time>2021-05-30T15:11:54Z</time>
      </trkpt>
      <trkpt lat="-12.1374420" lon="-76.6052290">
        <ele>2218.6</ele>
        <time>2021-05-30T15:11:55Z</time>
      </trkpt>
      <trkpt lat="-12.1374110" lon="-76.6052820">
        <ele>2218.8</ele>
        <time>2021-05-30T15:11:57Z</time>
      </trkpt>
      <trkpt lat="-12.1373850" lon="-76.6053260">
        <ele>2219.0</ele>
        <time>2021-05-30T15:11:58Z</time>
      </trkpt>
      <trkpt lat="-12.1373640" lon="-76.6053550">
        <ele>2219.1</ele>
        <time>2021-05-30T15:12:00Z</time>
      </trkpt>
      <trkpt lat="-12.1373470" lon="-76.6053770">
        <ele>2219.2</ele>
        <time>2021-05-30T15:12:01Z</time>
      </trkpt>
      <trkpt lat="-12.1373190" lon="-76.6054100">
        <ele>2219.3</ele>
        <time>2021-05-30T15:12:02Z</time>
      </trkpt>
      <trkpt lat="-12.1372860" lon="-76.6054440">
        <ele>2219.5</ele>
        <time>2021-05-30T15:12:04Z</time>
      </trkpt>
      <trkpt lat="-12.1372580" lon="-76.6054720">
        <ele>2219.6</ele>
        <time>2021-05-30T15:12:05Z</time>
      </trkpt>
      <trkpt lat="-12.1372300" lon="-76.6055060">
        <ele>2219.8</ele>
        <time>2021-05-30T15:12:06Z</time>
      </trkpt>
      <trkpt lat="-12.1372090" lon="-76.6055390">
        <ele>2219.9</ele>
        <time>2021-05-30T15:12:07Z</time>
      </trkpt>
      <trkpt lat="-12.1371860" lon="-76.6055770">
        <ele>2220.1</ele>
        <time>2021-05-30T15:12:09Z</time>
      </trkpt>
      <trkpt lat="-12.1371660" lon="-76.6056130">
        <ele>2220.2</ele>
        <time>2021-05-30T15:12:10Z</time>
      </trkpt>
      <trkpt lat="-12.1371490" lon="-76.6056580">
        <ele>2220.3</ele>
        <time>2021-05-30T15:12:11Z</time>
      </trkpt>
      <trkpt lat="-12.1371380" lon="-76.6056990">
        <ele>2220.4</ele>
        <time>2021-05-30T15:12:13Z</time>
      </trkpt>
      <trkpt lat="-12.1371300" lon="-76.6057370">
        <ele>2220.6</ele>
        <time>2021-05-30T15:12:14Z</time>
      </trkpt>
      <trkpt lat="-12.1371240" lon="-76.6057820">
        <ele>2220.7</ele>
        <time>2021-05-30T15:12:15Z</time>
      </trkpt>
      <trkpt lat="-12.1371200" lon="-76.6058160">
        <ele>2220.8</ele>
        <time>2021-05-30T15:12:17Z</time>
      </trkpt>
      <trkpt lat="-12.1371200" lon="-76.6058530">
        <ele>2220.9</ele>
        <time>2021-05-30T15:12:18Z</time>
      </trkpt>
      <trkpt lat="-12.1371200" lon="-76.6059090">
        <ele>2221.1</ele>
        <time>2021-05-30T15:12:19Z</time>
      </trkpt>
      <trkpt lat="-12.1371170" lon="-76.6059450">
        <ele>2221.2</ele>
        <time>2021-05-30T15:12:21Z</time>
      </trkpt>
      <trkpt lat="-12.1371150" lon="-76.6059750">
        <ele>2221.2</ele>
        <time>2021-05-30T15:12:22Z</time>
      </trkpt>
      <trkpt lat="-12.1371020" lon="-76.6060050">
        <ele>2221.3</ele>
        <time>2021-05-30T15:12:23Z</time>
      </trkpt>
      <trkpt lat="-12.1370880" lon="-76.6060300">
        <ele>2221.4</ele>
        <time>2021-05-30T15:12:25Z</time>
      </trkpt>
      <trkpt lat="-12.1370720" lon="-76.6060540">
        <ele>2221.4</ele>
        <time>2021-05-30T15:12:26Z</time>
      </trkpt>
      <trkpt lat="-12.1370470" lon="-76.6060880">
        <ele>2221.5</ele>
        <time>2021-05-30T15:12:27Z</time>
      </trkpt>
      <trkpt lat="-12.1370220" lon="-76.6061130">
        <ele>2221.6</ele>
        <time>2021-05-30T15:12:29Z</time>
      </trkpt>
      <trkpt lat="-12.1369970" lon="-76.6061370">
        <ele>2221.8</ele>
        <time>2021-05-30T15:12:30Z</time>
      </trkpt>
      <trkpt lat="-12.1369770" lon="-76.6061570">
        <ele>2221.9</ele>
        <time>2021-05-30T15:12:31Z</time>
      </trkpt>
      <trkpt lat="-12.1369590" lon="-76.6061780">
        <ele>2222.1</ele>
        <time>2021-05-30T15:12:32Z</time>
      </trkpt>
      <trkpt lat="-12.1369220" lon="-76.6062060">
        <ele>2222.4</ele>
        <time>2021-05-30T15:12:34Z</time>
      </trkpt>
      <trkpt lat="-12.1368900" lon="-76.6062370">
        <ele>2222.7</ele>
        <time>2021-05-30T15:12:35Z</time>
      </trkpt>
      <trkpt lat="-12.1368730" lon="-76.6062670">
        <ele>2222.9</ele>
        <time>2021-05-30T15:12:37Z</time>
      </trkpt>
      <trkpt lat="-12.1368610" lon="-76.6062930">
        <ele>2223.0</ele>
        <time>2021-05-30T15:12:38Z</time>
      </trkpt>
      <trkpt lat="-12.1368500" lon="-76.6063200">
        <ele>2223.2</ele>
        <time>2021-05-30T15:12:39Z</time>
      </trkpt>
      <trkpt lat="-12.1368380" lon="-76.6063560">
        <ele>2223.4</ele>
        <time>2021-05-30T15:12:41Z</time>
      </trkpt>
      <trkpt lat="-12.1368290" lon="-76.6063890">
        <ele>2223.6</ele>
        <time>2021-05-30T15:12:42Z</time>
      </trkpt>
      <trkpt lat="-12.1368250" lon="-76.6063990">
        <ele>2223.7</ele>
        <time>2021-05-30T15:12:43Z</time>
      </trkpt>
      <trkpt lat="-12.1368160" lon="-76.6064240">
        <ele>2223.9</ele>
        <time>2021-05-30T15:12:44Z</time>
      </trkpt>
      <trkpt lat="-12.1368060" lon="-76.6064560">
        <ele>2224.1</ele>
        <time>2021-05-30T15:12:46Z</time>
      </trkpt>
      <trkpt lat="-12.1367920" lon="-76.6064930">
        <ele>2224.3</ele>
        <time>2021-05-30T15:12:47Z</time>
      </trkpt>
      <trkpt lat="-12.1367760" lon="-76.6065280">
        <ele>2224.6</ele>
        <time>2021-05-30T15:12:49Z</time>
      </trkpt>
      <trkpt lat="-12.1367610" lon="-76.6065560">
        <ele>2224.8</ele>
        <time>2021-05-30T15:12:50Z</time>
      </trkpt>
      <trkpt lat="-12.1367480" lon="-76.6065770">
        <ele>2224.9</ele>
        <time>2021-05-30T15:12:51Z</time>
      </trkpt>
      <trkpt lat="-12.1367350" lon="-76.6066040">
        <ele>2225.1</ele>
        <time>2021-05-30T15:12:53Z</time>
      </trkpt>
      <trkpt lat="-12.1367160" lon="-76.6066350">
        <ele>2225.3</ele>
        <time>2021-05-30T15:12:54Z</time>
      </trkpt>
      <trkpt lat="-12.1367080" lon="-76.6066440">
        <ele>2225.4</ele>
        <time>2021-05-30T15:12:55Z</time>
      </trkpt>
      <trkpt lat="-12.1366850" lon="-76.6066730">
        <ele>2225.6</ele>
        <time>2021-05-30T15:12:56Z</time>
      </trkpt>
      <trkpt lat="-12.1366650" lon="-76.6066940">
        <ele>2225.8</ele>
        <time>2021-05-30T15:12:58Z</time>
      </trkpt>
      <trkpt lat="-12.1366470" lon="-76.6067140">
        <ele>2225.9</ele>
        <time>2021-05-30T15:12:59Z</time>
      </trkpt>
      <trkpt lat="-12.1366250" lon="-76.6067460">
        <ele>2226.2</ele>
        <time>2021-05-30T15:13:01Z</time>
      </trkpt>
      <trkpt lat="-12.1366090" lon="-76.6067690">
        <ele>2226.3</ele>
        <time>2021-05-30T15:13:02Z</time>
      </trkpt>
      <trkpt lat="-12.1365910" lon="-76.6067970">
        <ele>2226.5</ele>
        <time>2021-05-30T15:13:04Z</time>
      </trkpt>
      <trkpt lat="-12.1365760" lon="-76.6068280">
        <ele>2226.7</ele>
        <time>2021-05-30T15:13:05Z</time>
      </trkpt>
      <trkpt lat="-12.1365650" lon="-76.6068490">
        <ele>2226.9</ele>
        <time>2021-05-30T15:13:06Z</time>
      </trkpt>
      <trkpt lat="-12.1365560" lon="-76.6068750">
        <ele>2227.0</ele>
        <time>2021-05-30T15:13:08Z</time>
      </trkpt>
      <trkpt lat="-12.1365490" lon="-76.6068940">
        <ele>2227.1</ele>
        <time>2021-05-30T15:13:09Z</time>
      </trkpt>
      <trkpt lat="-12.1365300" lon="-76.6069320">
        <ele>2227.4</ele>
        <time>2021-05-30T15:13:11Z</time>
      </trkpt>
      <trkpt lat="-12.1365150" lon="-76.6069610">
        <ele>2227.5</ele>
        <time>2021-05-30T15:13:12Z</time>
      </trkpt>
      <trkpt lat="-12.1365100" lon="-76.6069700">
        <ele>2227.6</ele>
        <time>2021-05-30T15:13:13Z</time>
      </trkpt>
      <trkpt lat="-12.1364950" lon="-76.6070090">
        <ele>2227.8</ele>
        <time>2021-05-30T15:13:15Z</time>
      </trkpt>
      <trkpt lat="-12.1364870" lon="-76.6070350">
        <ele>2228.0</ele>
        <time>2021-05-30T15:13:16Z</time>
      </trkpt>
      <trkpt lat="-12.1364840" lon="-76.6070540">
        <ele>2228.1</ele>
        <time>2021-05-30T15:13:18Z</time>
      </trkpt>
      <trkpt lat="-12.1364890" lon="-76.6070940">
        <ele>2228.3</ele>
        <time>2021-05-30T15:13:19Z</time>
      </trkpt>
      <trkpt lat="-12.1364920" lon="-76.6071080">
        <ele>2228.4</ele>
        <time>2021-05-30T15:13:20Z</time>
      </trkpt>
      <trkpt lat="-12.1365030" lon="-76.6071320">
        <ele>2228.5</ele>
        <time>2021-05-30T15:13:21Z</time>
      </trkpt>
      <trkpt lat="-12.1365220" lon="-76.6071570">
        <ele>2228.7</ele>
        <time>2021-05-30T15:13:23Z</time>
      </trkpt>
      <trkpt lat="-12.1365450" lon="-76.6071870">
        <ele>2228.9</ele>
        <time>2021-05-30T15:13:24Z</time>
      </trkpt>
      <trkpt lat="-12.1365560" lon="-76.6072010">
        <ele>2228.9</ele>
        <time>2021-05-30T15:13:25Z</time>
      </trkpt>
      <trkpt lat="-12.1365820" lon="-76.6072320">
        <ele>2229.1</ele>
        <time>2021-05-30T15:13:27Z</time>
      </trkpt>
      <trkpt lat="-12.1365920" lon="-76.6072430">
        <ele>2229.2</ele>
        <time>2021-05-30T15:13:28Z</time>
      </trkpt>
      <trkpt lat="-12.1366090" lon="-76.6072660">
        <ele>2229.3</ele>
        <time>2021-05-30T15:13:30Z</time>
      </trkpt>
      <trkpt lat="-12.1366250" lon="-76.6072950">
        <ele>2229.4</ele>
        <time>2021-05-30T15:13:31Z</time>
      </trkpt>
      <trkpt lat="-12.1366390" lon="-76.6073290">
        <ele>2229.6</ele>
        <time>2021-05-30T15:13:33Z</time>
      </trkpt>
      <trkpt lat="-12.1366420" lon="-76.6073400">
        <ele>2229.6</ele>
        <time>2021-05-30T15:13:34Z</time>
      </trkpt>
      <trkpt lat="-12.1366470" lon="-76.6073720">
        <ele>2229.8</ele>
        <time>2021-05-30T15:13:35Z</time>
      </trkpt>
      <trkpt lat="-12.1366480" lon="-76.6073840">
        <ele>2229.8</ele>
        <time>2021-05-30T15:13:36Z</time>
      </trkpt>
      <trkpt lat="-12.1366580" lon="-76.6074240">
        <ele>2230.0</ele>
        <time>2021-05-30T15:13:38Z</time>
      </trkpt>
      <trkpt lat="-12.1366620" lon="-76.6074390">
        <ele>2230.1</ele>
        <time>2021-05-30T15:13:39Z</time>
      </trkpt>
      <trkpt lat="-12.1366720" lon="-76.6074750">
        <ele>2230.2</ele>
        <time>2021-05-30T15:13:40Z</time>
      </trkpt>
      <trkpt lat="-12.1366820" lon="-76.6075100">
        <ele>2230.4</ele>
        <time>2021-05-30T15:13:41Z</time>
      </trkpt>
      <trkpt lat="-12.1366950" lon="-76.6075500">
        <ele>2230.6</ele>
        <time>2021-05-30T15:13:43Z</time>
      </trkpt>
      <trkpt lat="-12.1367140" lon="-76.6075980">
        <ele>2230.9</ele>
        <time>2021-05-30T15:13:44Z</time>
      </trkpt>
      <trkpt lat="-12.1367290" lon="-76.6076330">
        <ele>2231.1</ele>
        <time>2021-05-30T15:13:46Z</time>
      </trkpt>
      <trkpt lat="-12.1367400" lon="-76.6076610">
        <ele>2231.3</ele>
        <time>2021-05-30T15:13:47Z</time>
      </trkpt>
      <trkpt lat="-12.1367540" lon="-76.6076870">
        <ele>2231.5</ele>
        <time>2021-05-30T15:13:48Z</time>
      </trkpt>
      <trkpt lat="-12.1367690" lon="-76.6077170">
        <ele>2231.7</ele>
        <time>2021-05-30T15:13:49Z</time>
      </trkpt>
      <trkpt lat="-12.1367740" lon="-76.6077260">
        <ele>2231.7</ele>
        <time>2021-05-30T15:13:50Z</time>
      </trkpt>
      <trkpt lat="-12.1367850" lon="-76.6077510">
        <ele>2231.9</ele>
        <time>2021-05-30T15:13:51Z</time>
      </trkpt>
      <trkpt lat="-12.1367980" lon="-76.6077820">
        <ele>2232.0</ele>
        <time>2021-05-30T15:13:53Z</time>
      </trkpt>
      <trkpt lat="-12.1368080" lon="-76.6078040">
        <ele>2232.1</ele>
        <time>2021-05-30T15:13:54Z</time>
      </trkpt>
      <trkpt lat="-12.1368180" lon="-76.6078310">
        <ele>2232.3</ele>
        <time>2021-05-30T15:13:56Z</time>
      </trkpt>
      <trkpt lat="-12.1368310" lon="-76.6078720">
        <ele>2232.5</ele>
        <time>2021-05-30T15:13:57Z</time>
      </trkpt>
      <trkpt lat="-12.1368350" lon="-76.6078890">
        <ele>2232.5</ele>
        <time>2021-05-30T15:13:58Z</time>
      </trkpt>
      <trkpt lat="-12.1368410" lon="-76.6079080">
        <ele>2232.6</ele>
        <time>2021-05-30T15:14:00Z</time>
      </trkpt>
      <trkpt lat="-12.1368400" lon="-76.6079150">
        <ele>2232.7</ele>
        <time>2021-05-30T15:14:01Z</time>
      </trkpt>
      <trkpt lat="-12.1368360" lon="-76.6079180">
        <ele>2232.7</ele>
        <time>2021-05-30T15:14:02Z</time>
      </trkpt>
      <trkpt lat="-12.1368390" lon="-76.6079170">
        <ele>2232.7</ele>
        <time>2021-05-30T15:14:04Z</time>
      </trkpt>
      <trkpt lat="-12.1368410" lon="-76.6079170">
        <ele>2232.7</ele>
        <time>2021-05-30T15:14:05Z</time>
      </trkpt>
      <trkpt lat="-12.1368430" lon="-76.6079160">
        <ele>2232.7</ele>
        <time>2021-05-30T15:14:06Z</time>
      </trkpt>
      <trkpt lat="-12.1368440" lon="-76.6079150">
        <ele>2232.7</ele>
        <time>2021-05-30T15:14:07Z</time>
      </trkpt>
      <trkpt lat="-12.1368430" lon="-76.6079110">
        <ele>2232.8</ele>
        <time>2021-05-30T15:14:08Z</time>
      </trkpt>
      <trkpt lat="-12.1368430" lon="-76.6079100">
        <ele>2232.8</ele>
        <time>2021-05-30T15:14:10Z</time>
      </trkpt>
      <trkpt lat="-12.1368440" lon="-76.6079100">
        <ele>2232.8</ele>
        <time>2021-05-30T15:14:12Z</time>
      </trkpt>
      <trkpt lat="-12.1368080" lon="-76.6079530">
        <ele>2233.0</ele>
        <time>2021-05-30T15:14:36Z</time>
      </trkpt>
      <trkpt lat="-12.1367800" lon="-76.6079670">
        <ele>2233.2</ele>
        <time>2021-05-30T15:14:37Z</time>
      </trkpt>
      <trkpt lat="-12.1367320" lon="-76.6079860">
        <ele>2233.4</ele>
        <time>2021-05-30T15:14:39Z</time>
      </trkpt>
      <trkpt lat="-12.1367120" lon="-76.6079920">
        <ele>2233.5</ele>
        <time>2021-05-30T15:14:40Z</time>
      </trkpt>
      <trkpt lat="-12.1366910" lon="-76.6079990">
        <ele>2233.5</ele>
        <time>2021-05-30T15:14:41Z</time>
      </trkpt>
      <trkpt lat="-12.1366490" lon="-76.6080130">
        <ele>2233.7</ele>
        <time>2021-05-30T15:14:43Z</time>
      </trkpt>
      <trkpt lat="-12.1366100" lon="-76.6080310">
        <ele>2233.9</ele>
        <time>2021-05-30T15:14:44Z</time>
      </trkpt>
      <trkpt lat="-12.1365720" lon="-76.6080560">
        <ele>2234.0</ele>
        <time>2021-05-30T15:14:45Z</time>
      </trkpt>
      <trkpt lat="-12.1365350" lon="-76.6080810">
        <ele>2234.2</ele>
        <time>2021-05-30T15:14:46Z</time>
      </trkpt>
      <trkpt lat="-12.1364990" lon="-76.6081090">
        <ele>2234.3</ele>
        <time>2021-05-30T15:14:48Z</time>
      </trkpt>
      <trkpt lat="-12.1364600" lon="-76.6081580">
        <ele>2234.5</ele>
        <time>2021-05-30T15:14:49Z</time>
      </trkpt>
      <trkpt lat="-12.1364380" lon="-76.6082010">
        <ele>2234.6</ele>
        <time>2021-05-30T15:14:51Z</time>
      </trkpt>
      <trkpt lat="-12.1364240" lon="-76.6082400">
        <ele>2234.7</ele>
        <time>2021-05-30T15:14:52Z</time>
      </trkpt>
      <trkpt lat="-12.1364120" lon="-76.6082810">
        <ele>2234.8</ele>
        <time>2021-05-30T15:14:53Z</time>
      </trkpt>
      <trkpt lat="-12.1364040" lon="-76.6083310">
        <ele>2235.0</ele>
        <time>2021-05-30T15:14:54Z</time>
      </trkpt>
      <trkpt lat="-12.1364020" lon="-76.6083790">
        <ele>2235.1</ele>
        <time>2021-05-30T15:14:55Z</time>
      </trkpt>
      <trkpt lat="-12.1364020" lon="-76.6084230">
        <ele>2235.3</ele>
        <time>2021-05-30T15:14:56Z</time>
      </trkpt>
      <trkpt lat="-12.1364070" lon="-76.6084660">
        <ele>2235.5</ele>
        <time>2021-05-30T15:14:58Z</time>
      </trkpt>
      <trkpt lat="-12.1364160" lon="-76.6085190">
        <ele>2235.7</ele>
        <time>2021-05-30T15:14:59Z</time>
      </trkpt>
      <trkpt lat="-12.1364320" lon="-76.6085880">
        <ele>2235.9</ele>
        <time>2021-05-30T15:15:01Z</time>
      </trkpt>
      <trkpt lat="-12.1364350" lon="-76.6086390">
        <ele>2236.1</ele>
        <time>2021-05-30T15:15:03Z</time>
      </trkpt>
      <trkpt lat="-12.1364320" lon="-76.6086720">
        <ele>2236.2</ele>
        <time>2021-05-30T15:15:04Z</time>
      </trkpt>
      <trkpt lat="-12.1364180" lon="-76.6087230">
        <ele>2236.4</ele>
        <time>2021-05-30T15:15:05Z</time>
      </trkpt>
      <trkpt lat="-12.1364040" lon="-76.6087650">
        <ele>2236.6</ele>
        <time>2021-05-30T15:15:07Z</time>
      </trkpt>
      <trkpt lat="-12.1363860" lon="-76.6088100">
        <ele>2236.8</ele>
        <time>2021-05-30T15:15:08Z</time>
      </trkpt>
      <trkpt lat="-12.1363740" lon="-76.6088440">
        <ele>2236.9</ele>
        <time>2021-05-30T15:15:09Z</time>
      </trkpt>
      <trkpt lat="-12.1363600" lon="-76.6088890">
        <ele>2237.0</ele>
        <time>2021-05-30T15:15:10Z</time>
      </trkpt>
      <trkpt lat="-12.1363560" lon="-76.6089190">
        <ele>2237.1</ele>
        <time>2021-05-30T15:15:11Z</time>
      </trkpt>
      <trkpt lat="-12.1363600" lon="-76.6089670">
        <ele>2237.2</ele>
        <time>2021-05-30T15:15:13Z</time>
      </trkpt>
      <trkpt lat="-12.1363740" lon="-76.6090050">
        <ele>2237.2</ele>
        <time>2021-05-30T15:15:14Z</time>
      </trkpt>
      <trkpt lat="-12.1364040" lon="-76.6090430">
        <ele>2237.3</ele>
        <time>2021-05-30T15:15:16Z</time>
      </trkpt>
      <trkpt lat="-12.1364170" lon="-76.6090560">
        <ele>2237.3</ele>
        <time>2021-05-30T15:15:17Z</time>
      </trkpt>
      <trkpt lat="-12.1364290" lon="-76.6090690">
        <ele>2237.3</ele>
        <time>2021-05-30T15:15:18Z</time>
      </trkpt>
      <trkpt lat="-12.1364500" lon="-76.6090890">
        <ele>2237.3</ele>
        <time>2021-05-30T15:15:19Z</time>
      </trkpt>
      <trkpt lat="-12.1364880" lon="-76.6091070">
        <ele>2237.3</ele>
        <time>2021-05-30T15:15:21Z</time>
      </trkpt>
      <trkpt lat="-12.1365010" lon="-76.6091130">
        <ele>2237.4</ele>
        <time>2021-05-30T15:15:22Z</time>
      </trkpt>
      <trkpt lat="-12.1365360" lon="-76.6091340">
        <ele>2237.4</ele>
        <time>2021-05-30T15:15:23Z</time>
      </trkpt>
      <trkpt lat="-12.1365490" lon="-76.6091420">
        <ele>2237.4</ele>
        <time>2021-05-30T15:15:24Z</time>
      </trkpt>
      <trkpt lat="-12.1365700" lon="-76.6091600">
        <ele>2237.4</ele>
        <time>2021-05-30T15:15:25Z</time>
      </trkpt>
      <trkpt lat="-12.1365930" lon="-76.6091790">
        <ele>2237.5</ele>
        <time>2021-05-30T15:15:27Z</time>
      </trkpt>
      <trkpt lat="-12.1366300" lon="-76.6092040">
        <ele>2237.6</ele>
        <time>2021-05-30T15:15:28Z</time>
      </trkpt>
      <trkpt lat="-12.1366790" lon="-76.6092340">
        <ele>2237.7</ele>
        <time>2021-05-30T15:15:30Z</time>
      </trkpt>
      <trkpt lat="-12.1367100" lon="-76.6092510">
        <ele>2237.9</ele>
        <time>2021-05-30T15:15:32Z</time>
      </trkpt>
      <trkpt lat="-12.1367350" lon="-76.6092640">
        <ele>2238.0</ele>
        <time>2021-05-30T15:15:33Z</time>
      </trkpt>
      <trkpt lat="-12.1367600" lon="-76.6092770">
        <ele>2238.1</ele>
        <time>2021-05-30T15:15:34Z</time>
      </trkpt>
      <trkpt lat="-12.1368250" lon="-76.6092890">
        <ele>2238.4</ele>
        <time>2021-05-30T15:15:36Z</time>
      </trkpt>
      <trkpt lat="-12.1368640" lon="-76.6092890">
        <ele>2238.6</ele>
        <time>2021-05-30T15:15:37Z</time>
      </trkpt>
      <trkpt lat="-12.1368760" lon="-76.6092890">
        <ele>2238.7</ele>
        <time>2021-05-30T15:15:38Z</time>
      </trkpt>
      <trkpt lat="-12.1369130" lon="-76.6093030">
        <ele>2238.9</ele>
        <time>2021-05-30T15:15:40Z</time>
      </trkpt>
      <trkpt lat="-12.1369370" lon="-76.6093100">
        <ele>2239.0</ele>
        <time>2021-05-30T15:15:41Z</time>
      </trkpt>
      <trkpt lat="-12.1369820" lon="-76.6093270">
        <ele>2239.2</ele>
        <time>2021-05-30T15:15:43Z</time>
      </trkpt>
      <trkpt lat="-12.1370190" lon="-76.6093390">
        <ele>2239.4</ele>
        <time>2021-05-30T15:15:44Z</time>
      </trkpt>
      <trkpt lat="-12.1370320" lon="-76.6093420">
        <ele>2239.4</ele>
        <time>2021-05-30T15:15:45Z</time>
      </trkpt>
      <trkpt lat="-12.1370800" lon="-76.6093560">
        <ele>2239.6</ele>
        <time>2021-05-30T15:15:46Z</time>
      </trkpt>
      <trkpt lat="-12.1371170" lon="-76.6093680">
        <ele>2239.8</ele>
        <time>2021-05-30T15:15:48Z</time>
      </trkpt>
      <trkpt lat="-12.1371560" lon="-76.6093750">
        <ele>2239.9</ele>
        <time>2021-05-30T15:15:49Z</time>
      </trkpt>
      <trkpt lat="-12.1372280" lon="-76.6093810">
        <ele>2240.2</ele>
        <time>2021-05-30T15:15:51Z</time>
      </trkpt>
      <trkpt lat="-12.1372710" lon="-76.6093810">
        <ele>2240.3</ele>
        <time>2021-05-30T15:15:52Z</time>
      </trkpt>
      <trkpt lat="-12.1373080" lon="-76.6093750">
        <ele>2240.4</ele>
        <time>2021-05-30T15:15:53Z</time>
      </trkpt>
      <trkpt lat="-12.1373410" lon="-76.6093690">
        <ele>2240.5</ele>
        <time>2021-05-30T15:15:54Z</time>
      </trkpt>
      <trkpt lat="-12.1373730" lon="-76.6093600">
        <ele>2240.7</ele>
        <time>2021-05-30T15:15:55Z</time>
      </trkpt>
      <trkpt lat="-12.1374160" lon="-76.6093510">
        <ele>2240.8</ele>
        <time>2021-05-30T15:15:56Z</time>
      </trkpt>
      <trkpt lat="-12.1374530" lon="-76.6093470">
        <ele>2241.0</ele>
        <time>2021-05-30T15:15:57Z</time>
      </trkpt>
      <trkpt lat="-12.1374960" lon="-76.6093400">
        <ele>2241.2</ele>
        <time>2021-05-30T15:15:59Z</time>
      </trkpt>
      <trkpt lat="-12.1375540" lon="-76.6093180">
        <ele>2241.5</ele>
        <time>2021-05-30T15:16:01Z</time>
      </trkpt>
      <trkpt lat="-12.1375870" lon="-76.6093000">
        <ele>2241.7</ele>
        <time>2021-05-30T15:16:02Z</time>
      </trkpt>
      <trkpt lat="-12.1376220" lon="-76.6092770">
        <ele>2242.0</ele>
        <time>2021-05-30T15:16:03Z</time>
      </trkpt>
      <trkpt lat="-12.1376640" lon="-76.6092480">
        <ele>2242.2</ele>
        <time>2021-05-30T15:16:05Z</time>
      </trkpt>
      <trkpt lat="-12.1377020" lon="-76.6092120">
        <ele>2242.5</ele>
        <time>2021-05-30T15:16:06Z</time>
      </trkpt>
      <trkpt lat="-12.1377300" lon="-76.6091750">
        <ele>2242.7</ele>
        <time>2021-05-30T15:16:08Z</time>
      </trkpt>
      <trkpt lat="-12.1377500" lon="-76.6091560">
        <ele>2242.8</ele>
        <time>2021-05-30T15:16:09Z</time>
      </trkpt>
      <trkpt lat="-12.1377770" lon="-76.6091380">
        <ele>2243.0</ele>
        <time>2021-05-30T15:16:10Z</time>
      </trkpt>
      <trkpt lat="-12.1378090" lon="-76.6091140">
        <ele>2243.2</ele>
        <time>2021-05-30T15:16:11Z</time>
      </trkpt>
      <trkpt lat="-12.1378310" lon="-76.6090950">
        <ele>2243.3</ele>
        <time>2021-05-30T15:16:12Z</time>
      </trkpt>
      <trkpt lat="-12.1378590" lon="-76.6090770">
        <ele>2243.5</ele>
        <time>2021-05-30T15:16:14Z</time>
      </trkpt>
      <trkpt lat="-12.1378670" lon="-76.6090720">
        <ele>2243.6</ele>
        <time>2021-05-30T15:16:15Z</time>
      </trkpt>
      <trkpt lat="-12.1378950" lon="-76.6090540">
        <ele>2243.8</ele>
        <time>2021-05-30T15:16:16Z</time>
      </trkpt>
      <trkpt lat="-12.1379210" lon="-76.6090380">
        <ele>2243.9</ele>
        <time>2021-05-30T15:16:18Z</time>
      </trkpt>
      <trkpt lat="-12.1379300" lon="-76.6090310">
        <ele>2244.0</ele>
        <time>2021-05-30T15:16:19Z</time>
      </trkpt>
      <trkpt lat="-12.1379650" lon="-76.6090070">
        <ele>2244.2</ele>
        <time>2021-05-30T15:16:21Z</time>
      </trkpt>
      <trkpt lat="-12.1380000" lon="-76.6089900">
        <ele>2244.4</ele>
        <time>2021-05-30T15:16:22Z</time>
      </trkpt>
      <trkpt lat="-12.1380350" lon="-76.6089700">
        <ele>2244.5</ele>
        <time>2021-05-30T15:16:23Z</time>
      </trkpt>
      <trkpt lat="-12.1380770" lon="-76.6089490">
        <ele>2244.7</ele>
        <time>2021-05-30T15:16:25Z</time>
      </trkpt>
      <trkpt lat="-12.1381080" lon="-76.6089400">
        <ele>2244.8</ele>
        <time>2021-05-30T15:16:26Z</time>
      </trkpt>
      <trkpt lat="-12.1381420" lon="-76.6089280">
        <ele>2244.9</ele>
        <time>2021-05-30T15:16:27Z</time>
      </trkpt>
      <trkpt lat="-12.1381820" lon="-76.6089180">
        <ele>2245.0</ele>
        <time>2021-05-30T15:16:29Z</time>
      </trkpt>
      <trkpt lat="-12.1382150" lon="-76.6089140">
        <ele>2245.2</ele>
        <time>2021-05-30T15:16:30Z</time>
      </trkpt>
      <trkpt lat="-12.1382460" lon="-76.6089140">
        <ele>2245.3</ele>
        <time>2021-05-30T15:16:31Z</time>
      </trkpt>
      <trkpt lat="-12.1382810" lon="-76.6089190">
        <ele>2245.5</ele>
        <time>2021-05-30T15:16:32Z</time>
      </trkpt>
      <trkpt lat="-12.1383120" lon="-76.6089220">
        <ele>2245.7</ele>
        <time>2021-05-30T15:16:33Z</time>
      </trkpt>
      <trkpt lat="-12.1383410" lon="-76.6089240">
        <ele>2245.9</ele>
        <time>2021-05-30T15:16:35Z</time>
      </trkpt>
      <trkpt lat="-12.1383810" lon="-76.6089310">
        <ele>2246.1</ele>
        <time>2021-05-30T15:16:36Z</time>
      </trkpt>
      <trkpt lat="-12.1384060" lon="-76.6089290">
        <ele>2246.3</ele>
        <time>2021-05-30T15:16:37Z</time>
      </trkpt>
      <trkpt lat="-12.1384410" lon="-76.6089220">
        <ele>2246.5</ele>
        <time>2021-05-30T15:16:39Z</time>
      </trkpt>
      <trkpt lat="-12.1384790" lon="-76.6089090">
        <ele>2246.7</ele>
        <time>2021-05-30T15:16:40Z</time>
      </trkpt>
      <trkpt lat="-12.1384920" lon="-76.6089020">
        <ele>2246.8</ele>
        <time>2021-05-30T15:16:41Z</time>
      </trkpt>
      <trkpt lat="-12.1385220" lon="-76.6088870">
        <ele>2247.0</ele>
        <time>2021-05-30T15:16:43Z</time>
      </trkpt>
      <trkpt lat="-12.1385310" lon="-76.6088820">
        <ele>2247.0</ele>
        <time>2021-05-30T15:16:44Z</time>
      </trkpt>
      <trkpt lat="-12.1385550" lon="-76.6088690">
        <ele>2247.2</ele>
        <time>2021-05-30T15:16:45Z</time>
      </trkpt>
      <trkpt lat="-12.1385830" lon="-76.6088600">
        <ele>2247.3</ele>
        <time>2021-05-30T15:16:47Z</time>
      </trkpt>
      <trkpt lat="-12.1386090" lon="-76.6088540">
        <ele>2247.4</ele>
        <time>2021-05-30T15:16:48Z</time>
      </trkpt>
      <trkpt lat="-12.1386240" lon="-76.6088490">
        <ele>2247.5</ele>
        <time>2021-05-30T15:16:50Z</time>
      </trkpt>
      <trkpt lat="-12.1386550" lon="-76.6088410">
        <ele>2247.6</ele>
        <time>2021-05-30T15:16:51Z</time>
      </trkpt>
      <trkpt lat="-12.1386840" lon="-76.6088420">
        <ele>2247.7</ele>
        <time>2021-05-30T15:16:53Z</time>
      </trkpt>
      <trkpt lat="-12.1387140" lon="-76.6088440">
        <ele>2247.8</ele>
        <time>2021-05-30T15:16:54Z</time>
      </trkpt>
      <trkpt lat="-12.1387500" lon="-76.6088490">
        <ele>2247.9</ele>
        <time>2021-05-30T15:16:56Z</time>
      </trkpt>
      <trkpt lat="-12.1387930" lon="-76.6088600">
        <ele>2248.0</ele>
        <time>2021-05-30T15:16:57Z</time>
      </trkpt>
      <trkpt lat="-12.1388190" lon="-76.6088670">
        <ele>2248.1</ele>
        <time>2021-05-30T15:16:58Z</time>
      </trkpt>
      <trkpt lat="-12.1388530" lon="-76.6088690">
        <ele>2248.2</ele>
        <time>2021-05-30T15:16:59Z</time>
      </trkpt>
      <trkpt lat="-12.1388970" lon="-76.6088710">
        <ele>2248.3</ele>
        <time>2021-05-30T15:17:01Z</time>
      </trkpt>
      <trkpt lat="-12.1389630" lon="-76.6088720">
        <ele>2248.5</ele>
        <time>2021-05-30T15:17:02Z</time>
      </trkpt>
      <trkpt lat="-12.1389970" lon="-76.6088730">
        <ele>2248.6</ele>
        <time>2021-05-30T15:17:03Z</time>
      </trkpt>
      <trkpt lat="-12.1390320" lon="-76.6088700">
        <ele>2248.8</ele>
        <time>2021-05-30T15:17:05Z</time>
      </trkpt>
      <trkpt lat="-12.1390630" lon="-76.6088670">
        <ele>2248.9</ele>
        <time>2021-05-30T15:17:06Z</time>
      </trkpt>
      <trkpt lat="-12.1391080" lon="-76.6088620">
        <ele>2249.1</ele>
        <time>2021-05-30T15:17:07Z</time>
      </trkpt>
      <trkpt lat="-12.1391590" lon="-76.6088500">
        <ele>2249.3</ele>
        <time>2021-05-30T15:17:09Z</time>
      </trkpt>
      <trkpt lat="-12.1391920" lon="-76.6088480">
        <ele>2249.3</ele>
        <time>2021-05-30T15:17:11Z</time>
      </trkpt>
      <trkpt lat="-12.1392320" lon="-76.6088540">
        <ele>2249.4</ele>
        <time>2021-05-30T15:17:12Z</time>
      </trkpt>
      <trkpt lat="-12.1392600" lon="-76.6088590">
        <ele>2249.4</ele>
        <time>2021-05-30T15:17:13Z</time>
      </trkpt>
      <trkpt lat="-12.1392980" lon="-76.6088650">
        <ele>2249.4</ele>
        <time>2021-05-30T15:17:14Z</time>
      </trkpt>
      <trkpt lat="-12.1393320" lon="-76.6088680">
        <ele>2249.3</ele>
        <time>2021-05-30T15:17:16Z</time>
      </trkpt>
      <trkpt lat="-12.1393640" lon="-76.6088720">
        <ele>2249.3</ele>
        <time>2021-05-30T15:17:17Z</time>
      </trkpt>
      <trkpt lat="-12.1393950" lon="-76.6088770">
        <ele>2249.4</ele>
        <time>2021-05-30T15:17:18Z</time>
      </trkpt>
      <trkpt lat="-12.1394290" lon="-76.6088830">
        <ele>2249.5</ele>
        <time>2021-05-30T15:17:19Z</time>
      </trkpt>
      <trkpt lat="-12.1394710" lon="-76.6089020">
        <ele>2249.7</ele>
        <time>2021-05-30T15:17:21Z</time>
      </trkpt>
      <trkpt lat="-12.1395080" lon="-76.6089180">
        <ele>2249.9</ele>
        <time>2021-05-30T15:17:22Z</time>
      </trkpt>
      <trkpt lat="-12.1395370" lon="-76.6089320">
        <ele>2250.0</ele>
        <time>2021-05-30T15:17:23Z</time>
      </trkpt>
      <trkpt lat="-12.1395740" lon="-76.6089460">
        <ele>2250.2</ele>
        <time>2021-05-30T15:17:24Z</time>
      </trkpt>
      <trkpt lat="-12.1396170" lon="-76.6089620">
        <ele>2250.4</ele>
        <time>2021-05-30T15:17:26Z</time>
      </trkpt>
      <trkpt lat="-12.1396800" lon="-76.6089790">
        <ele>2250.7</ele>
        <time>2021-05-30T15:17:27Z</time>
      </trkpt>
      <trkpt lat="-12.1397140" lon="-76.6089880">
        <ele>2250.9</ele>
        <time>2021-05-30T15:17:29Z</time>
      </trkpt>
      <trkpt lat="-12.1397440" lon="-76.6089950">
        <ele>2251.0</ele>
        <time>2021-05-30T15:17:30Z</time>
      </trkpt>
      <trkpt lat="-12.1397730" lon="-76.6089990">
        <ele>2251.1</ele>
        <time>2021-05-30T15:17:31Z</time>
      </trkpt>
      <trkpt lat="-12.1398060" lon="-76.6090030">
        <ele>2251.3</ele>
        <time>2021-05-30T15:17:32Z</time>
      </trkpt>
      <trkpt lat="-12.1398360" lon="-76.6090090">
        <ele>2251.3</ele>
        <time>2021-05-30T15:17:33Z</time>
      </trkpt>
      <trkpt lat="-12.1398620" lon="-76.6090170">
        <ele>2251.4</ele>
        <time>2021-05-30T15:17:34Z</time>
      </trkpt>
      <trkpt lat="-12.1398970" lon="-76.6090350">
        <ele>2251.6</ele>
        <time>2021-05-30T15:17:36Z</time>
      </trkpt>
      <trkpt lat="-12.1399240" lon="-76.6090500">
        <ele>2251.6</ele>
        <time>2021-05-30T15:17:37Z</time>
      </trkpt>
      <trkpt lat="-12.1399690" lon="-76.6090830">
        <ele>2251.9</ele>
        <time>2021-05-30T15:17:39Z</time>
      </trkpt>
      <trkpt lat="-12.1399830" lon="-76.6091190">
        <ele>2252.0</ele>
        <time>2021-05-30T15:17:40Z</time>
      </trkpt>
      <trkpt lat="-12.1400040" lon="-76.6091500">
        <ele>2252.1</ele>
        <time>2021-05-30T15:17:41Z</time>
      </trkpt>
      <trkpt lat="-12.1400130" lon="-76.6091710">
        <ele>2252.2</ele>
        <time>2021-05-30T15:17:42Z</time>
      </trkpt>
      <trkpt lat="-12.1400210" lon="-76.6092120">
        <ele>2252.2</ele>
        <time>2021-05-30T15:17:44Z</time>
      </trkpt>
      <trkpt lat="-12.1400210" lon="-76.6092410">
        <ele>2252.2</ele>
        <time>2021-05-30T15:17:45Z</time>
      </trkpt>
      <trkpt lat="-12.1400190" lon="-76.6092730">
        <ele>2252.0</ele>
        <time>2021-05-30T15:17:47Z</time>
      </trkpt>
      <trkpt lat="-12.1400190" lon="-76.6093040">
        <ele>2251.9</ele>
        <time>2021-05-30T15:17:48Z</time>
      </trkpt>
      <trkpt lat="-12.1400210" lon="-76.6093410">
        <ele>2251.6</ele>
        <time>2021-05-30T15:17:49Z</time>
      </trkpt>
      <trkpt lat="-12.1400260" lon="-76.6093780">
        <ele>2251.3</ele>
        <time>2021-05-30T15:17:50Z</time>
      </trkpt>
      <trkpt lat="-12.1400350" lon="-76.6094200">
        <ele>2251.1</ele>
        <time>2021-05-30T15:17:51Z</time>
      </trkpt>
      <trkpt lat="-12.1400460" lon="-76.6094620">
        <ele>2251.0</ele>
        <time>2021-05-30T15:17:52Z</time>
      </trkpt>
      <trkpt lat="-12.1400590" lon="-76.6095080">
        <ele>2250.9</ele>
        <time>2021-05-30T15:17:53Z</time>
      </trkpt>
      <trkpt lat="-12.1400700" lon="-76.6095620">
        <ele>2251.0</ele>
        <time>2021-05-30T15:17:55Z</time>
      </trkpt>
      <trkpt lat="-12.1400850" lon="-76.6096080">
        <ele>2251.1</ele>
        <time>2021-05-30T15:17:56Z</time>
      </trkpt>
      <trkpt lat="-12.1400960" lon="-76.6096420">
        <ele>2251.2</ele>
        <time>2021-05-30T15:17:57Z</time>
      </trkpt>
      <trkpt lat="-12.1401070" lon="-76.6096790">
        <ele>2251.4</ele>
        <time>2021-05-30T15:17:59Z</time>
      </trkpt>
      <trkpt lat="-12.1401240" lon="-76.6097240">
        <ele>2251.7</ele>
        <time>2021-05-30T15:18:00Z</time>
      </trkpt>
      <trkpt lat="-12.1401410" lon="-76.6097570">
        <ele>2251.9</ele>
        <time>2021-05-30T15:18:01Z</time>
      </trkpt>
      <trkpt lat="-12.1401660" lon="-76.6097950">
        <ele>2252.2</ele>
        <time>2021-05-30T15:18:03Z</time>
      </trkpt>
      <trkpt lat="-12.1401850" lon="-76.6098260">
        <ele>2252.5</ele>
        <time>2021-05-30T15:18:05Z</time>
      </trkpt>
      <trkpt lat="-12.1402060" lon="-76.6098550">
        <ele>2252.8</ele>
        <time>2021-05-30T15:18:06Z</time>
      </trkpt>
      <trkpt lat="-12.1402120" lon="-76.6098650">
        <ele>2252.9</ele>
        <time>2021-05-30T15:18:07Z</time>
      </trkpt>
      <trkpt lat="-12.1402270" lon="-76.6099000">
        <ele>2253.1</ele>
        <time>2021-05-30T15:18:08Z</time>
      </trkpt>
      <trkpt lat="-12.1402340" lon="-76.6099240">
        <ele>2253.3</ele>
        <time>2021-05-30T15:18:09Z</time>
      </trkpt>
      <trkpt lat="-12.1402400" lon="-76.6099460">
        <ele>2253.5</ele>
        <time>2021-05-30T15:18:11Z</time>
      </trkpt>
      <trkpt lat="-12.1402470" lon="-76.6099760">
        <ele>2253.7</ele>
        <time>2021-05-30T15:18:12Z</time>
      </trkpt>
      <trkpt lat="-12.1402500" lon="-76.6099900">
        <ele>2253.8</ele>
        <time>2021-05-30T15:18:13Z</time>
      </trkpt>
      <trkpt lat="-12.1402530" lon="-76.6100260">
        <ele>2254.0</ele>
        <time>2021-05-30T15:18:15Z</time>
      </trkpt>
      <trkpt lat="-12.1402540" lon="-76.6100410">
        <ele>2254.0</ele>
        <time>2021-05-30T15:18:16Z</time>
      </trkpt>
      <trkpt lat="-12.1402620" lon="-76.6100780">
        <ele>2254.2</ele>
        <time>2021-05-30T15:18:18Z</time>
      </trkpt>
      <trkpt lat="-12.1402650" lon="-76.6100910">
        <ele>2254.3</ele>
        <time>2021-05-30T15:18:19Z</time>
      </trkpt>
      <trkpt lat="-12.1402660" lon="-76.6101170">
        <ele>2254.5</ele>
        <time>2021-05-30T15:18:20Z</time>
      </trkpt>
      <trkpt lat="-12.1402680" lon="-76.6101540">
        <ele>2254.7</ele>
        <time>2021-05-30T15:18:22Z</time>
      </trkpt>
      <trkpt lat="-12.1402700" lon="-76.6101930">
        <ele>2254.8</ele>
        <time>2021-05-30T15:18:24Z</time>
      </trkpt>
      <trkpt lat="-12.1402700" lon="-76.6102040">
        <ele>2254.9</ele>
        <time>2021-05-30T15:18:25Z</time>
      </trkpt>
      <trkpt lat="-12.1402640" lon="-76.6102440">
        <ele>2255.0</ele>
        <time>2021-05-30T15:18:26Z</time>
      </trkpt>
      <trkpt lat="-12.1402600" lon="-76.6102580">
        <ele>2255.0</ele>
        <time>2021-05-30T15:18:27Z</time>
      </trkpt>
      <trkpt lat="-12.1402460" lon="-76.6102920">
        <ele>2255.0</ele>
        <time>2021-05-30T15:18:29Z</time>
      </trkpt>
      <trkpt lat="-12.1402410" lon="-76.6103030">
        <ele>2255.0</ele>
        <time>2021-05-30T15:18:30Z</time>
      </trkpt>
      <trkpt lat="-12.1402170" lon="-76.6103440">
        <ele>2255.0</ele>
        <time>2021-05-30T15:18:31Z</time>
      </trkpt>
      <trkpt lat="-12.1402040" lon="-76.6103610">
        <ele>2254.9</ele>
        <time>2021-05-30T15:18:32Z</time>
      </trkpt>
      <trkpt lat="-12.1401900" lon="-76.6103920">
        <ele>2254.9</ele>
        <time>2021-05-30T15:18:33Z</time>
      </trkpt>
      <trkpt lat="-12.1401740" lon="-76.6104270">
        <ele>2254.8</ele>
        <time>2021-05-30T15:18:34Z</time>
      </trkpt>
      <trkpt lat="-12.1401560" lon="-76.6104680">
        <ele>2254.7</ele>
        <time>2021-05-30T15:18:36Z</time>
      </trkpt>
      <trkpt lat="-12.1401400" lon="-76.6105140">
        <ele>2254.5</ele>
        <time>2021-05-30T15:18:37Z</time>
      </trkpt>
      <trkpt lat="-12.1401250" lon="-76.6105650">
        <ele>2254.3</ele>
        <time>2021-05-30T15:18:38Z</time>
      </trkpt>
      <trkpt lat="-12.1401120" lon="-76.6106350">
        <ele>2254.0</ele>
        <time>2021-05-30T15:18:40Z</time>
      </trkpt>
      <trkpt lat="-12.1401070" lon="-76.6107000">
        <ele>2253.9</ele>
        <time>2021-05-30T15:18:41Z</time>
      </trkpt>
      <trkpt lat="-12.1401170" lon="-76.6107420">
        <ele>2253.9</ele>
        <time>2021-05-30T15:18:43Z</time>
      </trkpt>
      <trkpt lat="-12.1401270" lon="-76.6107770">
        <ele>2253.9</ele>
        <time>2021-05-30T15:18:44Z</time>
      </trkpt>
      <trkpt lat="-12.1401470" lon="-76.6108350">
        <ele>2254.0</ele>
        <time>2021-05-30T15:18:45Z</time>
      </trkpt>
      <trkpt lat="-12.1401640" lon="-76.6108750">
        <ele>2254.1</ele>
        <time>2021-05-30T15:18:47Z</time>
      </trkpt>
      <trkpt lat="-12.1401870" lon="-76.6109180">
        <ele>2254.4</ele>
        <time>2021-05-30T15:18:48Z</time>
      </trkpt>
      <trkpt lat="-12.1402040" lon="-76.6109430">
        <ele>2254.6</ele>
        <time>2021-05-30T15:18:50Z</time>
      </trkpt>
      <trkpt lat="-12.1402190" lon="-76.6109620">
        <ele>2254.7</ele>
        <time>2021-05-30T15:18:51Z</time>
      </trkpt>
      <trkpt lat="-12.1402540" lon="-76.6109970">
        <ele>2255.1</ele>
        <time>2021-05-30T15:18:53Z</time>
      </trkpt>
      <trkpt lat="-12.1402860" lon="-76.6110230">
        <ele>2255.5</ele>
        <time>2021-05-30T15:18:54Z</time>
      </trkpt>
      <trkpt lat="-12.1402970" lon="-76.6110320">
        <ele>2255.6</ele>
        <time>2021-05-30T15:18:55Z</time>
      </trkpt>
      <trkpt lat="-12.1403330" lon="-76.6110580">
        <ele>2256.0</ele>
        <time>2021-05-30T15:18:57Z</time>
      </trkpt>
      <trkpt lat="-12.1403630" lon="-76.6110900">
        <ele>2256.4</ele>
        <time>2021-05-30T15:18:59Z</time>
      </trkpt>
      <trkpt lat="-12.1403800" lon="-76.6111180">
        <ele>2256.7</ele>
        <time>2021-05-30T15:19:00Z</time>
      </trkpt>
      <trkpt lat="-12.1403950" lon="-76.6111560">
        <ele>2257.0</ele>
        <time>2021-05-30T15:19:02Z</time>
      </trkpt>
      <trkpt lat="-12.1403990" lon="-76.6111970">
        <ele>2257.2</ele>
        <time>2021-05-30T15:19:03Z</time>
      </trkpt>
      <trkpt lat="-12.1404000" lon="-76.6112140">
        <ele>2257.3</ele>
        <time>2021-05-30T15:19:04Z</time>
      </trkpt>
      <trkpt lat="-12.1403960" lon="-76.6112650">
        <ele>2257.5</ele>
        <time>2021-05-30T15:19:06Z</time>
      </trkpt>
      <trkpt lat="-12.1403930" lon="-76.6112830">
        <ele>2257.6</ele>
        <time>2021-05-30T15:19:07Z</time>
      </trkpt>
      <trkpt lat="-12.1403910" lon="-76.6113010">
        <ele>2257.6</ele>
        <time>2021-05-30T15:19:08Z</time>
      </trkpt>
      <trkpt lat="-12.1403880" lon="-76.6113420">
        <ele>2257.7</ele>
        <time>2021-05-30T15:19:09Z</time>
      </trkpt>
      <trkpt lat="-12.1403870" lon="-76.6113550">
        <ele>2257.8</ele>
        <time>2021-05-30T15:19:10Z</time>
      </trkpt>
      <trkpt lat="-12.1403930" lon="-76.6114010">
        <ele>2257.8</ele>
        <time>2021-05-30T15:19:12Z</time>
      </trkpt>
      <trkpt lat="-12.1404020" lon="-76.6114350">
        <ele>2257.9</ele>
        <time>2021-05-30T15:19:14Z</time>
      </trkpt>
      <trkpt lat="-12.1404050" lon="-76.6114440">
        <ele>2258.0</ele>
        <time>2021-05-30T15:19:15Z</time>
      </trkpt>
      <trkpt lat="-12.1404180" lon="-76.6114660">
        <ele>2258.1</ele>
        <time>2021-05-30T15:19:16Z</time>
      </trkpt>
      <trkpt lat="-12.1404390" lon="-76.6114890">
        <ele>2258.2</ele>
        <time>2021-05-30T15:19:18Z</time>
      </trkpt>
      <trkpt lat="-12.1404660" lon="-76.6115090">
        <ele>2258.3</ele>
        <time>2021-05-30T15:19:19Z</time>
      </trkpt>
      <trkpt lat="-12.1404940" lon="-76.6115280">
        <ele>2258.5</ele>
        <time>2021-05-30T15:19:21Z</time>
      </trkpt>
      <trkpt lat="-12.1405190" lon="-76.6115480">
        <ele>2258.6</ele>
        <time>2021-05-30T15:19:22Z</time>
      </trkpt>
      <trkpt lat="-12.1405420" lon="-76.6115700">
        <ele>2258.7</ele>
        <time>2021-05-30T15:19:23Z</time>
      </trkpt>
      <trkpt lat="-12.1405570" lon="-76.6115880">
        <ele>2258.8</ele>
        <time>2021-05-30T15:19:24Z</time>
      </trkpt>
      <trkpt lat="-12.1405760" lon="-76.6116090">
        <ele>2258.9</ele>
        <time>2021-05-30T15:19:26Z</time>
      </trkpt>
      <trkpt lat="-12.1405960" lon="-76.6116380">
        <ele>2259.1</ele>
        <time>2021-05-30T15:19:27Z</time>
      </trkpt>
      <trkpt lat="-12.1406110" lon="-76.6116620">
        <ele>2259.3</ele>
        <time>2021-05-30T15:19:28Z</time>
      </trkpt>
      <trkpt lat="-12.1406320" lon="-76.6116920">
        <ele>2259.5</ele>
        <time>2021-05-30T15:19:29Z</time>
      </trkpt>
      <trkpt lat="-12.1406390" lon="-76.6117020">
        <ele>2259.5</ele>
        <time>2021-05-30T15:19:30Z</time>
      </trkpt>
      <trkpt lat="-12.1406570" lon="-76.6117300">
        <ele>2259.7</ele>
        <time>2021-05-30T15:19:31Z</time>
      </trkpt>
      <trkpt lat="-12.1406750" lon="-76.6117550">
        <ele>2259.9</ele>
        <time>2021-05-30T15:19:33Z</time>
      </trkpt>
      <trkpt lat="-12.1406900" lon="-76.6117790">
        <ele>2260.0</ele>
        <time>2021-05-30T15:19:34Z</time>
      </trkpt>
      <trkpt lat="-12.1407160" lon="-76.6118140">
        <ele>2260.2</ele>
        <time>2021-05-30T15:19:35Z</time>
      </trkpt>
      <trkpt lat="-12.1407280" lon="-76.6118290">
        <ele>2260.3</ele>
        <time>2021-05-30T15:19:36Z</time>
      </trkpt>
      <trkpt lat="-12.1407450" lon="-76.6118520">
        <ele>2260.4</ele>
        <time>2021-05-30T15:19:38Z</time>
      </trkpt>
      <trkpt lat="-12.1407560" lon="-76.6118630">
        <ele>2260.5</ele>
        <time>2021-05-30T15:19:39Z</time>
      </trkpt>
      <trkpt lat="-12.1407780" lon="-76.6118880">
        <ele>2260.6</ele>
        <time>2021-05-30T15:19:41Z</time>
      </trkpt>
      <trkpt lat="-12.1408060" lon="-76.6119090">
        <ele>2260.7</ele>
        <time>2021-05-30T15:19:42Z</time>
      </trkpt>
      <trkpt lat="-12.1408180" lon="-76.6119170">
        <ele>2260.8</ele>
        <time>2021-05-30T15:19:43Z</time>
      </trkpt>
      <trkpt lat="-12.1408450" lon="-76.6119300">
        <ele>2261.0</ele>
        <time>2021-05-30T15:19:44Z</time>
      </trkpt>
      <trkpt lat="-12.1408890" lon="-76.6119480">
        <ele>2261.2</ele>
        <time>2021-05-30T15:19:45Z</time>
      </trkpt>
      <trkpt lat="-12.1409260" lon="-76.6119650">
        <ele>2261.4</ele>
        <time>2021-05-30T15:19:47Z</time>
      </trkpt>
      <trkpt lat="-12.1409770" lon="-76.6119860">
        <ele>2261.7</ele>
        <time>2021-05-30T15:19:49Z</time>
      </trkpt>
      <trkpt lat="-12.1410210" lon="-76.6120050">
        <ele>2262.0</ele>
        <time>2021-05-30T15:19:50Z</time>
      </trkpt>
      <trkpt lat="-12.1410540" lon="-76.6120130">
        <ele>2262.3</ele>
        <time>2021-05-30T15:19:52Z</time>
      </trkpt>
      <trkpt lat="-12.1410850" lon="-76.6120230">
        <ele>2262.6</ele>
        <time>2021-05-30T15:19:53Z</time>
      </trkpt>
      <trkpt lat="-12.1411190" lon="-76.6120410">
        <ele>2262.9</ele>
        <time>2021-05-30T15:19:55Z</time>
      </trkpt>
      <trkpt lat="-12.1411590" lon="-76.6120720">
        <ele>2263.3</ele>
        <time>2021-05-30T15:19:56Z</time>
      </trkpt>
      <trkpt lat="-12.1411820" lon="-76.6120910">
        <ele>2263.5</ele>
        <time>2021-05-30T15:19:58Z</time>
      </trkpt>
      <trkpt lat="-12.1411990" lon="-76.6121070">
        <ele>2263.6</ele>
        <time>2021-05-30T15:19:59Z</time>
      </trkpt>
      <trkpt lat="-12.1412250" lon="-76.6121370">
        <ele>2263.9</ele>
        <time>2021-05-30T15:20:01Z</time>
      </trkpt>
      <trkpt lat="-12.1412410" lon="-76.6121610">
        <ele>2264.1</ele>
        <time>2021-05-30T15:20:02Z</time>
      </trkpt>
      <trkpt lat="-12.1412590" lon="-76.6122090">
        <ele>2264.3</ele>
        <time>2021-05-30T15:20:03Z</time>
      </trkpt>
      <trkpt lat="-12.1412690" lon="-76.6122370">
        <ele>2264.4</ele>
        <time>2021-05-30T15:20:05Z</time>
      </trkpt>
      <trkpt lat="-12.1412830" lon="-76.6122680">
        <ele>2264.5</ele>
        <time>2021-05-30T15:20:06Z</time>
      </trkpt>
      <trkpt lat="-12.1413010" lon="-76.6123040">
        <ele>2264.7</ele>
        <time>2021-05-30T15:20:07Z</time>
      </trkpt>
      <trkpt lat="-12.1413170" lon="-76.6123380">
        <ele>2264.8</ele>
        <time>2021-05-30T15:20:08Z</time>
      </trkpt>
      <trkpt lat="-12.1413390" lon="-76.6123740">
        <ele>2264.9</ele>
        <time>2021-05-30T15:20:10Z</time>
      </trkpt>
      <trkpt lat="-12.1413580" lon="-76.6124090">
        <ele>2265.0</ele>
        <time>2021-05-30T15:20:11Z</time>
      </trkpt>
      <trkpt lat="-12.1413780" lon="-76.6124410">
        <ele>2265.1</ele>
        <time>2021-05-30T15:20:12Z</time>
      </trkpt>
      <trkpt lat="-12.1413930" lon="-76.6124690">
        <ele>2265.2</ele>
        <time>2021-05-30T15:20:13Z</time>
      </trkpt>
      <trkpt lat="-12.1414170" lon="-76.6125190">
        <ele>2265.3</ele>
        <time>2021-05-30T15:20:15Z</time>
      </trkpt>
      <trkpt lat="-12.1414330" lon="-76.6125610">
        <ele>2265.4</ele>
        <time>2021-05-30T15:20:16Z</time>
      </trkpt>
      <trkpt lat="-12.1414460" lon="-76.6125880">
        <ele>2265.5</ele>
        <time>2021-05-30T15:20:18Z</time>
      </trkpt>
      <trkpt lat="-12.1414660" lon="-76.6126210">
        <ele>2265.6</ele>
        <time>2021-05-30T15:20:19Z</time>
      </trkpt>
      <trkpt lat="-12.1414840" lon="-76.6126450">
        <ele>2265.7</ele>
        <time>2021-05-30T15:20:21Z</time>
      </trkpt>
      <trkpt lat="-12.1414890" lon="-76.6126520">
        <ele>2265.7</ele>
        <time>2021-05-30T15:20:22Z</time>
      </trkpt>
      <trkpt lat="-12.1414950" lon="-76.6126640">
        <ele>2265.8</ele>
        <time>2021-05-30T15:20:23Z</time>
      </trkpt>
      <trkpt lat="-12.1415070" lon="-76.6126830">
        <ele>2265.8</ele>
        <time>2021-05-30T15:20:24Z</time>
      </trkpt>
      <trkpt lat="-12.1415210" lon="-76.6127130">
        <ele>2265.9</ele>
        <time>2021-05-30T15:20:26Z</time>
      </trkpt>
      <trkpt lat="-12.1415260" lon="-76.6127200">
        <ele>2266.0</ele>
        <time>2021-05-30T15:20:27Z</time>
      </trkpt>
      <trkpt lat="-12.1415380" lon="-76.6127370">
        <ele>2266.0</ele>
        <time>2021-05-30T15:20:28Z</time>
      </trkpt>
      <trkpt lat="-12.1415530" lon="-76.6127560">
        <ele>2266.2</ele>
        <time>2021-05-30T15:20:30Z</time>
      </trkpt>
      <trkpt lat="-12.1415770" lon="-76.6127860">
        <ele>2266.3</ele>
        <time>2021-05-30T15:20:31Z</time>
      </trkpt>
      <trkpt lat="-12.1415870" lon="-76.6128000">
        <ele>2266.4</ele>
        <time>2021-05-30T15:20:32Z</time>
      </trkpt>
      <trkpt lat="-12.1416010" lon="-76.6128150">
        <ele>2266.5</ele>
        <time>2021-05-30T15:20:33Z</time>
      </trkpt>
      <trkpt lat="-12.1416150" lon="-76.6128320">
        <ele>2266.7</ele>
        <time>2021-05-30T15:20:35Z</time>
      </trkpt>
      <trkpt lat="-12.1416360" lon="-76.6128580">
        <ele>2266.8</ele>
        <time>2021-05-30T15:20:36Z</time>
      </trkpt>
      <trkpt lat="-12.1416410" lon="-76.6128650">
        <ele>2266.9</ele>
        <time>2021-05-30T15:20:37Z</time>
      </trkpt>
      <trkpt lat="-12.1416550" lon="-76.6128810">
        <ele>2267.0</ele>
        <time>2021-05-30T15:20:38Z</time>
      </trkpt>
      <trkpt lat="-12.1416730" lon="-76.6129040">
        <ele>2267.1</ele>
        <time>2021-05-30T15:20:40Z</time>
      </trkpt>
      <trkpt lat="-12.1416820" lon="-76.6129130">
        <ele>2267.1</ele>
        <time>2021-05-30T15:20:41Z</time>
      </trkpt>
      <trkpt lat="-12.1416860" lon="-76.6129200">
        <ele>2267.2</ele>
        <time>2021-05-30T15:20:42Z</time>
      </trkpt>
      <trkpt lat="-12.1416950" lon="-76.6129270">
        <ele>2267.2</ele>
        <time>2021-05-30T15:20:43Z</time>
      </trkpt>
      <trkpt lat="-12.1417090" lon="-76.6129480">
        <ele>2267.3</ele>
        <time>2021-05-30T15:20:44Z</time>
      </trkpt>
      <trkpt lat="-12.1417140" lon="-76.6129590">
        <ele>2267.3</ele>
        <time>2021-05-30T15:20:46Z</time>
      </trkpt>
      <trkpt lat="-12.1417200" lon="-76.6129710">
        <ele>2267.4</ele>
        <time>2021-05-30T15:20:47Z</time>
      </trkpt>
      <trkpt lat="-12.1417280" lon="-76.6129950">
        <ele>2267.5</ele>
        <time>2021-05-30T15:20:48Z</time>
      </trkpt>
      <trkpt lat="-12.1417280" lon="-76.6130210">
        <ele>2267.6</ele>
        <time>2021-05-30T15:20:50Z</time>
      </trkpt>
      <trkpt lat="-12.1417170" lon="-76.6130480">
        <ele>2267.8</ele>
        <time>2021-05-30T15:20:51Z</time>
      </trkpt>
      <trkpt lat="-12.1416990" lon="-76.6130800">
        <ele>2267.9</ele>
        <time>2021-05-30T15:20:53Z</time>
      </trkpt>
      <trkpt lat="-12.1416860" lon="-76.6131080">
        <ele>2268.1</ele>
        <time>2021-05-30T15:20:54Z</time>
      </trkpt>
      <trkpt lat="-12.1416810" lon="-76.6131160">
        <ele>2268.1</ele>
        <time>2021-05-30T15:20:55Z</time>
      </trkpt>
      <trkpt lat="-12.1416710" lon="-76.6131340">
        <ele>2268.3</ele>
        <time>2021-05-30T15:20:56Z</time>
      </trkpt>
      <trkpt lat="-12.1416650" lon="-76.6131460">
        <ele>2268.3</ele>
        <time>2021-05-30T15:20:57Z</time>
      </trkpt>
      <trkpt lat="-12.1416590" lon="-76.6131600">
        <ele>2268.4</ele>
        <time>2021-05-30T15:20:58Z</time>
      </trkpt>
      <trkpt lat="-12.1416520" lon="-76.6131780">
        <ele>2268.5</ele>
        <time>2021-05-30T15:21:00Z</time>
      </trkpt>
      <trkpt lat="-12.1416490" lon="-76.6131970">
        <ele>2268.6</ele>
        <time>2021-05-30T15:21:01Z</time>
      </trkpt>
      <trkpt lat="-12.1416470" lon="-76.6132120">
        <ele>2268.7</ele>
        <time>2021-05-30T15:21:02Z</time>
      </trkpt>
      <trkpt lat="-12.1416440" lon="-76.6132430">
        <ele>2268.9</ele>
        <time>2021-05-30T15:21:04Z</time>
      </trkpt>
      <trkpt lat="-12.1416430" lon="-76.6132540">
        <ele>2268.9</ele>
        <time>2021-05-30T15:21:05Z</time>
      </trkpt>
      <trkpt lat="-12.1416390" lon="-76.6132740">
        <ele>2269.0</ele>
        <time>2021-05-30T15:21:06Z</time>
      </trkpt>
      <trkpt lat="-12.1416320" lon="-76.6132940">
        <ele>2269.1</ele>
        <time>2021-05-30T15:21:08Z</time>
      </trkpt>
      <trkpt lat="-12.1416260" lon="-76.6133210">
        <ele>2269.3</ele>
        <time>2021-05-30T15:21:09Z</time>
      </trkpt>
      <trkpt lat="-12.1416200" lon="-76.6133480">
        <ele>2269.5</ele>
        <time>2021-05-30T15:21:11Z</time>
      </trkpt>
      <trkpt lat="-12.1416020" lon="-76.6133960">
        <ele>2269.8</ele>
        <time>2021-05-30T15:21:13Z</time>
      </trkpt>
      <trkpt lat="-12.1415950" lon="-76.6134120">
        <ele>2269.9</ele>
        <time>2021-05-30T15:21:14Z</time>
      </trkpt>
      <trkpt lat="-12.1415870" lon="-76.6134270">
        <ele>2270.1</ele>
        <time>2021-05-30T15:21:15Z</time>
      </trkpt>
      <trkpt lat="-12.1415680" lon="-76.6134560">
        <ele>2270.3</ele>
        <time>2021-05-30T15:21:17Z</time>
      </trkpt>
      <trkpt lat="-12.1415540" lon="-76.6134800">
        <ele>2270.5</ele>
        <time>2021-05-30T15:21:18Z</time>
      </trkpt>
      <trkpt lat="-12.1415290" lon="-76.6135170">
        <ele>2270.7</ele>
        <time>2021-05-30T15:21:19Z</time>
      </trkpt>
      <trkpt lat="-12.1415110" lon="-76.6135400">
        <ele>2270.8</ele>
        <time>2021-05-30T15:21:21Z</time>
      </trkpt>
      <trkpt lat="-12.1414940" lon="-76.6135620">
        <ele>2270.9</ele>
        <time>2021-05-30T15:21:22Z</time>
      </trkpt>
      <trkpt lat="-12.1414730" lon="-76.6135810">
        <ele>2271.0</ele>
        <time>2021-05-30T15:21:23Z</time>
      </trkpt>
      <trkpt lat="-12.1414370" lon="-76.6136130">
        <ele>2271.2</ele>
        <time>2021-05-30T15:21:25Z</time>
      </trkpt>
      <trkpt lat="-12.1414240" lon="-76.6136240">
        <ele>2271.2</ele>
        <time>2021-05-30T15:21:26Z</time>
      </trkpt>
      <trkpt lat="-12.1414100" lon="-76.6136360">
        <ele>2271.3</ele>
        <time>2021-05-30T15:21:27Z</time>
      </trkpt>
      <trkpt lat="-12.1413810" lon="-76.6136650">
        <ele>2271.5</ele>
        <time>2021-05-30T15:21:28Z</time>
      </trkpt>
      <trkpt lat="-12.1413500" lon="-76.6137010">
        <ele>2271.8</ele>
        <time>2021-05-30T15:21:30Z</time>
      </trkpt>
      <trkpt lat="-12.1413340" lon="-76.6137190">
        <ele>2271.9</ele>
        <time>2021-05-30T15:21:31Z</time>
      </trkpt>
      <trkpt lat="-12.1413090" lon="-76.6137480">
        <ele>2272.1</ele>
        <time>2021-05-30T15:21:33Z</time>
      </trkpt>
      <trkpt lat="-12.1412780" lon="-76.6137840">
        <ele>2272.5</ele>
        <time>2021-05-30T15:21:34Z</time>
      </trkpt>
      <trkpt lat="-12.1412480" lon="-76.6138190">
        <ele>2272.8</ele>
        <time>2021-05-30T15:21:35Z</time>
      </trkpt>
      <trkpt lat="-12.1412200" lon="-76.6138530">
        <ele>2273.1</ele>
        <time>2021-05-30T15:21:37Z</time>
      </trkpt>
      <trkpt lat="-12.1411970" lon="-76.6138770">
        <ele>2273.3</ele>
        <time>2021-05-30T15:21:38Z</time>
      </trkpt>
      <trkpt lat="-12.1411590" lon="-76.6139070">
        <ele>2273.7</ele>
        <time>2021-05-30T15:21:39Z</time>
      </trkpt>
      <trkpt lat="-12.1411180" lon="-76.6139310">
        <ele>2274.1</ele>
        <time>2021-05-30T15:21:41Z</time>
      </trkpt>
      <trkpt lat="-12.1410780" lon="-76.6139530">
        <ele>2274.4</ele>
        <time>2021-05-30T15:21:42Z</time>
      </trkpt>
      <trkpt lat="-12.1410440" lon="-76.6139810">
        <ele>2274.7</ele>
        <time>2021-05-30T15:21:43Z</time>
      </trkpt>
      <trkpt lat="-12.1410000" lon="-76.6140290">
        <ele>2275.2</ele>
        <time>2021-05-30T15:21:45Z</time>
      </trkpt>
      <trkpt lat="-12.1409690" lon="-76.6140660">
        <ele>2275.5</ele>
        <time>2021-05-30T15:21:46Z</time>
      </trkpt>
      <trkpt lat="-12.1409380" lon="-76.6141020">
        <ele>2275.8</ele>
        <time>2021-05-30T15:21:47Z</time>
      </trkpt>
      <trkpt lat="-12.1409200" lon="-76.6141250">
        <ele>2276.0</ele>
        <time>2021-05-30T15:21:49Z</time>
      </trkpt>
      <trkpt lat="-12.1408980" lon="-76.6141590">
        <ele>2276.3</ele>
        <time>2021-05-30T15:21:50Z</time>
      </trkpt>
      <trkpt lat="-12.1408720" lon="-76.6141950">
        <ele>2276.6</ele>
        <time>2021-05-30T15:21:52Z</time>
      </trkpt>
      <trkpt lat="-12.1408470" lon="-76.6142250">
        <ele>2276.9</ele>
        <time>2021-05-30T15:21:53Z</time>
      </trkpt>
      <trkpt lat="-12.1408370" lon="-76.6142350">
        <ele>2277.0</ele>
        <time>2021-05-30T15:21:54Z</time>
      </trkpt>
      <trkpt lat="-12.1408100" lon="-76.6142620">
        <ele>2277.3</ele>
        <time>2021-05-30T15:21:55Z</time>
      </trkpt>
      <trkpt lat="-12.1407820" lon="-76.6142890">
        <ele>2277.6</ele>
        <time>2021-05-30T15:21:56Z</time>
      </trkpt>
      <trkpt lat="-12.1407520" lon="-76.6143160">
        <ele>2278.0</ele>
        <time>2021-05-30T15:21:57Z</time>
      </trkpt>
      <trkpt lat="-12.1407220" lon="-76.6143410">
        <ele>2278.4</ele>
        <time>2021-05-30T15:21:59Z</time>
      </trkpt>
      <trkpt lat="-12.1406710" lon="-76.6143700">
        <ele>2279.1</ele>
        <time>2021-05-30T15:22:00Z</time>
      </trkpt>
      <trkpt lat="-12.1406430" lon="-76.6143910">
        <ele>2279.5</ele>
        <time>2021-05-30T15:22:01Z</time>
      </trkpt>
      <trkpt lat="-12.1406150" lon="-76.6144220">
        <ele>2280.0</ele>
        <time>2021-05-30T15:22:03Z</time>
      </trkpt>
      <trkpt lat="-12.1405700" lon="-76.6144710">
        <ele>2280.8</ele>
        <time>2021-05-30T15:22:04Z</time>
      </trkpt>
      <trkpt lat="-12.1405290" lon="-76.6145170">
        <ele>2281.5</ele>
        <time>2021-05-30T15:22:06Z</time>
      </trkpt>
      <trkpt lat="-12.1404980" lon="-76.6145500">
        <ele>2282.1</ele>
        <time>2021-05-30T15:22:07Z</time>
      </trkpt>
      <trkpt lat="-12.1404670" lon="-76.6145850">
        <ele>2282.7</ele>
        <time>2021-05-30T15:22:09Z</time>
      </trkpt>
      <trkpt lat="-12.1404330" lon="-76.6146300">
        <ele>2283.4</ele>
        <time>2021-05-30T15:22:11Z</time>
      </trkpt>
      <trkpt lat="-12.1404080" lon="-76.6146680">
        <ele>2284.0</ele>
        <time>2021-05-30T15:22:12Z</time>
      </trkpt>
      <trkpt lat="-12.1403860" lon="-76.6147040">
        <ele>2284.5</ele>
        <time>2021-05-30T15:22:14Z</time>
      </trkpt>
      <trkpt lat="-12.1403590" lon="-76.6147410">
        <ele>2285.1</ele>
        <time>2021-05-30T15:22:15Z</time>
      </trkpt>
      <trkpt lat="-12.1403400" lon="-76.6147690">
        <ele>2285.6</ele>
        <time>2021-05-30T15:22:16Z</time>
      </trkpt>
      <trkpt lat="-12.1403190" lon="-76.6148070">
        <ele>2286.2</ele>
        <time>2021-05-30T15:22:17Z</time>
      </trkpt>
      <trkpt lat="-12.1403020" lon="-76.6148330">
        <ele>2286.6</ele>
        <time>2021-05-30T15:22:18Z</time>
      </trkpt>
      <trkpt lat="-12.1402950" lon="-76.6148620">
        <ele>2287.0</ele>
        <time>2021-05-30T15:22:20Z</time>
      </trkpt>
      <trkpt lat="-12.1402910" lon="-76.6149040">
        <ele>2287.5</ele>
        <time>2021-05-30T15:22:21Z</time>
      </trkpt>
      <trkpt lat="-12.1402850" lon="-76.6149480">
        <ele>2288.0</ele>
        <time>2021-05-30T15:22:23Z</time>
      </trkpt>
      <trkpt lat="-12.1402700" lon="-76.6149910">
        <ele>2288.5</ele>
        <time>2021-05-30T15:22:25Z</time>
      </trkpt>
      <trkpt lat="-12.1402610" lon="-76.6150050">
        <ele>2288.6</ele>
        <time>2021-05-30T15:22:26Z</time>
      </trkpt>
      <trkpt lat="-12.1402530" lon="-76.6150180">
        <ele>2288.8</ele>
        <time>2021-05-30T15:22:27Z</time>
      </trkpt>
      <trkpt lat="-12.1402400" lon="-76.6150410">
        <ele>2289.0</ele>
        <time>2021-05-30T15:22:28Z</time>
      </trkpt>
      <trkpt lat="-12.1402200" lon="-76.6150570">
        <ele>2289.2</ele>
        <time>2021-05-30T15:22:30Z</time>
      </trkpt>
      <trkpt lat="-12.1401860" lon="-76.6150760">
        <ele>2289.4</ele>
        <time>2021-05-30T15:22:31Z</time>
      </trkpt>
      <trkpt lat="-12.1401730" lon="-76.6150810">
        <ele>2289.5</ele>
        <time>2021-05-30T15:22:32Z</time>
      </trkpt>
      <trkpt lat="-12.1401390" lon="-76.6150930">
        <ele>2289.6</ele>
        <time>2021-05-30T15:22:33Z</time>
      </trkpt>
      <trkpt lat="-12.1401000" lon="-76.6151100">
        <ele>2289.8</ele>
        <time>2021-05-30T15:22:34Z</time>
      </trkpt>
      <trkpt lat="-12.1400310" lon="-76.6151240">
        <ele>2290.2</ele>
        <time>2021-05-30T15:22:36Z</time>
      </trkpt>
      <trkpt lat="-12.1399920" lon="-76.6151290">
        <ele>2290.4</ele>
        <time>2021-05-30T15:22:37Z</time>
      </trkpt>
      <trkpt lat="-12.1399480" lon="-76.6151390">
        <ele>2290.7</ele>
        <time>2021-05-30T15:22:38Z</time>
      </trkpt>
      <trkpt lat="-12.1399150" lon="-76.6151520">
        <ele>2291.0</ele>
        <time>2021-05-30T15:22:40Z</time>
      </trkpt>
      <trkpt lat="-12.1398820" lon="-76.6151650">
        <ele>2291.3</ele>
        <time>2021-05-30T15:22:41Z</time>
      </trkpt>
      <trkpt lat="-12.1398440" lon="-76.6151840">
        <ele>2291.7</ele>
        <time>2021-05-30T15:22:42Z</time>
      </trkpt>
      <trkpt lat="-12.1398170" lon="-76.6152010">
        <ele>2292.0</ele>
        <time>2021-05-30T15:22:43Z</time>
      </trkpt>
      <trkpt lat="-12.1398000" lon="-76.6152160">
        <ele>2292.2</ele>
        <time>2021-05-30T15:22:44Z</time>
      </trkpt>
      <trkpt lat="-12.1397820" lon="-76.6152360">
        <ele>2292.5</ele>
        <time>2021-05-30T15:22:46Z</time>
      </trkpt>
      <trkpt lat="-12.1397570" lon="-76.6152640">
        <ele>2293.0</ele>
        <time>2021-05-30T15:22:47Z</time>
      </trkpt>
      <trkpt lat="-12.1397460" lon="-76.6152760">
        <ele>2293.2</ele>
        <time>2021-05-30T15:22:48Z</time>
      </trkpt>
      <trkpt lat="-12.1397260" lon="-76.6153000">
        <ele>2293.5</ele>
        <time>2021-05-30T15:22:50Z</time>
      </trkpt>
      <trkpt lat="-12.1397150" lon="-76.6153160">
        <ele>2293.7</ele>
        <time>2021-05-30T15:22:51Z</time>
      </trkpt>
      <trkpt lat="-12.1397040" lon="-76.6153290">
        <ele>2293.9</ele>
        <time>2021-05-30T15:22:52Z</time>
      </trkpt>
      <trkpt lat="-12.1396780" lon="-76.6153560">
        <ele>2294.4</ele>
        <time>2021-05-30T15:22:53Z</time>
      </trkpt>
      <trkpt lat="-12.1396650" lon="-76.6153700">
        <ele>2294.6</ele>
        <time>2021-05-30T15:22:54Z</time>
      </trkpt>
      <trkpt lat="-12.1396450" lon="-76.6154060">
        <ele>2295.1</ele>
        <time>2021-05-30T15:22:56Z</time>
      </trkpt>
      <trkpt lat="-12.1396300" lon="-76.6154330">
        <ele>2295.4</ele>
        <time>2021-05-30T15:22:57Z</time>
      </trkpt>
      <trkpt lat="-12.1396150" lon="-76.6154590">
        <ele>2295.8</ele>
        <time>2021-05-30T15:22:58Z</time>
      </trkpt>
      <trkpt lat="-12.1395960" lon="-76.6154970">
        <ele>2296.3</ele>
        <time>2021-05-30T15:22:59Z</time>
      </trkpt>
      <trkpt lat="-12.1395800" lon="-76.6155220">
        <ele>2296.7</ele>
        <time>2021-05-30T15:23:00Z</time>
      </trkpt>
      <trkpt lat="-12.1395630" lon="-76.6155520">
        <ele>2297.1</ele>
        <time>2021-05-30T15:23:02Z</time>
      </trkpt>
      <trkpt lat="-12.1395430" lon="-76.6155920">
        <ele>2297.6</ele>
        <time>2021-05-30T15:23:03Z</time>
      </trkpt>
      <trkpt lat="-12.1395300" lon="-76.6156170">
        <ele>2297.9</ele>
        <time>2021-05-30T15:23:04Z</time>
      </trkpt>
      <trkpt lat="-12.1395130" lon="-76.6156550">
        <ele>2298.4</ele>
        <time>2021-05-30T15:23:06Z</time>
      </trkpt>
      <trkpt lat="-12.1394960" lon="-76.6156910">
        <ele>2298.9</ele>
        <time>2021-05-30T15:23:08Z</time>
      </trkpt>
      <trkpt lat="-12.1394770" lon="-76.6157290">
        <ele>2299.5</ele>
        <time>2021-05-30T15:23:09Z</time>
      </trkpt>
      <trkpt lat="-12.1394690" lon="-76.6157430">
        <ele>2299.7</ele>
        <time>2021-05-30T15:23:10Z</time>
      </trkpt>
      <trkpt lat="-12.1394490" lon="-76.6157690">
        <ele>2300.1</ele>
        <time>2021-05-30T15:23:12Z</time>
      </trkpt>
      <trkpt lat="-12.1394300" lon="-76.6157890">
        <ele>2300.4</ele>
        <time>2021-05-30T15:23:13Z</time>
      </trkpt>
      <trkpt lat="-12.1394090" lon="-76.6158070">
        <ele>2300.8</ele>
        <time>2021-05-30T15:23:14Z</time>
      </trkpt>
      <trkpt lat="-12.1393790" lon="-76.6158250">
        <ele>2301.2</ele>
        <time>2021-05-30T15:23:16Z</time>
      </trkpt>
      <trkpt lat="-12.1393690" lon="-76.6158280">
        <ele>2301.3</ele>
        <time>2021-05-30T15:23:17Z</time>
      </trkpt>
      <trkpt lat="-12.1393330" lon="-76.6158320">
        <ele>2301.7</ele>
        <time>2021-05-30T15:23:18Z</time>
      </trkpt>
      <trkpt lat="-12.1392930" lon="-76.6158290">
        <ele>2302.1</ele>
        <time>2021-05-30T15:23:20Z</time>
      </trkpt>
      <trkpt lat="-12.1392560" lon="-76.6158260">
        <ele>2302.4</ele>
        <time>2021-05-30T15:23:21Z</time>
      </trkpt>
      <trkpt lat="-12.1392200" lon="-76.6158240">
        <ele>2302.7</ele>
        <time>2021-05-30T15:23:22Z</time>
      </trkpt>
      <trkpt lat="-12.1391890" lon="-76.6158210">
        <ele>2303.0</ele>
        <time>2021-05-30T15:23:23Z</time>
      </trkpt>
      <trkpt lat="-12.1391520" lon="-76.6158130">
        <ele>2303.3</ele>
        <time>2021-05-30T15:23:25Z</time>
      </trkpt>
      <trkpt lat="-12.1390960" lon="-76.6158130">
        <ele>2303.7</ele>
        <time>2021-05-30T15:23:26Z</time>
      </trkpt>
      <trkpt lat="-12.1390540" lon="-76.6158060">
        <ele>2304.0</ele>
        <time>2021-05-30T15:23:28Z</time>
      </trkpt>
      <trkpt lat="-12.1390210" lon="-76.6158000">
        <ele>2304.3</ele>
        <time>2021-05-30T15:23:29Z</time>
      </trkpt>
      <trkpt lat="-12.1389740" lon="-76.6157860">
        <ele>2304.6</ele>
        <time>2021-05-30T15:23:30Z</time>
      </trkpt>
      <trkpt lat="-12.1389340" lon="-76.6157710">
        <ele>2304.9</ele>
        <time>2021-05-30T15:23:32Z</time>
      </trkpt>
      <trkpt lat="-12.1388740" lon="-76.6157520">
        <ele>2305.4</ele>
        <time>2021-05-30T15:23:33Z</time>
      </trkpt>
      <trkpt lat="-12.1388230" lon="-76.6157420">
        <ele>2305.8</ele>
        <time>2021-05-30T15:23:35Z</time>
      </trkpt>
      <trkpt lat="-12.1387930" lon="-76.6157360">
        <ele>2306.0</ele>
        <time>2021-05-30T15:23:36Z</time>
      </trkpt>
      <trkpt lat="-12.1387530" lon="-76.6157290">
        <ele>2306.4</ele>
        <time>2021-05-30T15:23:38Z</time>
      </trkpt>
      <trkpt lat="-12.1387100" lon="-76.6157310">
        <ele>2306.8</ele>
        <time>2021-05-30T15:23:39Z</time>
      </trkpt>
      <trkpt lat="-12.1386840" lon="-76.6157400">
        <ele>2307.1</ele>
        <time>2021-05-30T15:23:41Z</time>
      </trkpt>
      <trkpt lat="-12.1386520" lon="-76.6157550">
        <ele>2307.4</ele>
        <time>2021-05-30T15:23:42Z</time>
      </trkpt>
      <trkpt lat="-12.1386170" lon="-76.6157750">
        <ele>2307.8</ele>
        <time>2021-05-30T15:23:44Z</time>
      </trkpt>
      <trkpt lat="-12.1385920" lon="-76.6157930">
        <ele>2308.1</ele>
        <time>2021-05-30T15:23:45Z</time>
      </trkpt>
      <trkpt lat="-12.1385830" lon="-76.6157990">
        <ele>2308.2</ele>
        <time>2021-05-30T15:23:46Z</time>
      </trkpt>
      <trkpt lat="-12.1385570" lon="-76.6158170">
        <ele>2308.5</ele>
        <time>2021-05-30T15:23:47Z</time>
      </trkpt>
      <trkpt lat="-12.1385460" lon="-76.6158240">
        <ele>2308.7</ele>
        <time>2021-05-30T15:23:48Z</time>
      </trkpt>
      <trkpt lat="-12.1385160" lon="-76.6158450">
        <ele>2309.0</ele>
        <time>2021-05-30T15:23:49Z</time>
      </trkpt>
      <trkpt lat="-12.1385050" lon="-76.6158520">
        <ele>2309.1</ele>
        <time>2021-05-30T15:23:50Z</time>
      </trkpt>
      <trkpt lat="-12.1384850" lon="-76.6158640">
        <ele>2309.2</ele>
        <time>2021-05-30T15:23:51Z</time>
      </trkpt>
      <trkpt lat="-12.1384590" lon="-76.6158870">
        <ele>2309.5</ele>
        <time>2021-05-30T15:23:53Z</time>
      </trkpt>
      <trkpt lat="-12.1384400" lon="-76.6159070">
        <ele>2309.7</ele>
        <time>2021-05-30T15:23:54Z</time>
      </trkpt>
      <trkpt lat="-12.1384120" lon="-76.6159330">
        <ele>2310.0</ele>
        <time>2021-05-30T15:23:55Z</time>
      </trkpt>
      <trkpt lat="-12.1383890" lon="-76.6159550">
        <ele>2310.3</ele>
        <time>2021-05-30T15:23:57Z</time>
      </trkpt>
      <trkpt lat="-12.1383830" lon="-76.6159620">
        <ele>2310.4</ele>
        <time>2021-05-30T15:23:58Z</time>
      </trkpt>
      <trkpt lat="-12.1383560" lon="-76.6159900">
        <ele>2310.7</ele>
        <time>2021-05-30T15:23:59Z</time>
      </trkpt>
      <trkpt lat="-12.1383440" lon="-76.6160020">
        <ele>2310.8</ele>
        <time>2021-05-30T15:24:00Z</time>
      </trkpt>
      <trkpt lat="-12.1383190" lon="-76.6160290">
        <ele>2311.2</ele>
        <time>2021-05-30T15:24:02Z</time>
      </trkpt>
      <trkpt lat="-12.1382950" lon="-76.6160610">
        <ele>2311.6</ele>
        <time>2021-05-30T15:24:03Z</time>
      </trkpt>
      <trkpt lat="-12.1382870" lon="-76.6160730">
        <ele>2311.7</ele>
        <time>2021-05-30T15:24:04Z</time>
      </trkpt>
      <trkpt lat="-12.1382720" lon="-76.6161000">
        <ele>2312.0</ele>
        <time>2021-05-30T15:24:05Z</time>
      </trkpt>
      <trkpt lat="-12.1382500" lon="-76.6161380">
        <ele>2312.4</ele>
        <time>2021-05-30T15:24:06Z</time>
      </trkpt>
      <trkpt lat="-12.1382310" lon="-76.6161680">
        <ele>2312.8</ele>
        <time>2021-05-30T15:24:08Z</time>
      </trkpt>
      <trkpt lat="-12.1382020" lon="-76.6162090">
        <ele>2313.4</ele>
        <time>2021-05-30T15:24:09Z</time>
      </trkpt>
      <trkpt lat="-12.1381820" lon="-76.6162360">
        <ele>2313.8</ele>
        <time>2021-05-30T15:24:10Z</time>
      </trkpt>
      <trkpt lat="-12.1381530" lon="-76.6162770">
        <ele>2314.4</ele>
        <time>2021-05-30T15:24:12Z</time>
      </trkpt>
      <trkpt lat="-12.1381430" lon="-76.6162900">
        <ele>2314.6</ele>
        <time>2021-05-30T15:24:13Z</time>
      </trkpt>
      <trkpt lat="-12.1381320" lon="-76.6163040">
        <ele>2314.8</ele>
        <time>2021-05-30T15:24:14Z</time>
      </trkpt>
      <trkpt lat="-12.1381110" lon="-76.6163340">
        <ele>2315.2</ele>
        <time>2021-05-30T15:24:15Z</time>
      </trkpt>
      <trkpt lat="-12.1380880" lon="-76.6163720">
        <ele>2315.7</ele>
        <time>2021-05-30T15:24:17Z</time>
      </trkpt>
      <trkpt lat="-12.1380660" lon="-76.6164140">
        <ele>2316.3</ele>
        <time>2021-05-30T15:24:18Z</time>
      </trkpt>
      <trkpt lat="-12.1380530" lon="-76.6164420">
        <ele>2316.6</ele>
        <time>2021-05-30T15:24:20Z</time>
      </trkpt>
      <trkpt lat="-12.1380430" lon="-76.6164700">
        <ele>2317.0</ele>
        <time>2021-05-30T15:24:21Z</time>
      </trkpt>
      <trkpt lat="-12.1380330" lon="-76.6165000">
        <ele>2317.4</ele>
        <time>2021-05-30T15:24:23Z</time>
      </trkpt>
      <trkpt lat="-12.1380210" lon="-76.6165280">
        <ele>2317.7</ele>
        <time>2021-05-30T15:24:24Z</time>
      </trkpt>
      <trkpt lat="-12.1380040" lon="-76.6165560">
        <ele>2318.1</ele>
        <time>2021-05-30T15:24:25Z</time>
      </trkpt>
      <trkpt lat="-12.1379760" lon="-76.6165860">
        <ele>2318.6</ele>
        <time>2021-05-30T15:24:27Z</time>
      </trkpt>
      <trkpt lat="-12.1379470" lon="-76.6166020">
        <ele>2318.9</ele>
        <time>2021-05-30T15:24:28Z</time>
      </trkpt>
      <trkpt lat="-12.1379340" lon="-76.6166080">
        <ele>2319.1</ele>
        <time>2021-05-30T15:24:29Z</time>
      </trkpt>
      <trkpt lat="-12.1378970" lon="-76.6166290">
        <ele>2319.5</ele>
        <time>2021-05-30T15:24:30Z</time>
      </trkpt>
      <trkpt lat="-12.1378810" lon="-76.6166360">
        <ele>2319.7</ele>
        <time>2021-05-30T15:24:31Z</time>
      </trkpt>
      <trkpt lat="-12.1378280" lon="-76.6166600">
        <ele>2320.2</ele>
        <time>2021-05-30T15:24:33Z</time>
      </trkpt>
      <trkpt lat="-12.1377820" lon="-76.6166790">
        <ele>2320.7</ele>
        <time>2021-05-30T15:24:35Z</time>
      </trkpt>
      <trkpt lat="-12.1377460" lon="-76.6166930">
        <ele>2321.0</ele>
        <time>2021-05-30T15:24:36Z</time>
      </trkpt>
      <trkpt lat="-12.1376960" lon="-76.6167120">
        <ele>2321.4</ele>
        <time>2021-05-30T15:24:37Z</time>
      </trkpt>
      <trkpt lat="-12.1376510" lon="-76.6167240">
        <ele>2321.7</ele>
        <time>2021-05-30T15:24:38Z</time>
      </trkpt>
      <trkpt lat="-12.1376040" lon="-76.6167270">
        <ele>2322.1</ele>
        <time>2021-05-30T15:24:40Z</time>
      </trkpt>
      <trkpt lat="-12.1375480" lon="-76.6167280">
        <ele>2322.4</ele>
        <time>2021-05-30T15:24:41Z</time>
      </trkpt>
      <trkpt lat="-12.1375070" lon="-76.6167280">
        <ele>2322.7</ele>
        <time>2021-05-30T15:24:42Z</time>
      </trkpt>
      <trkpt lat="-12.1374480" lon="-76.6167260">
        <ele>2323.1</ele>
        <time>2021-05-30T15:24:44Z</time>
      </trkpt>
      <trkpt lat="-12.1374080" lon="-76.6167260">
        <ele>2323.4</ele>
        <time>2021-05-30T15:24:45Z</time>
      </trkpt>
      <trkpt lat="-12.1373560" lon="-76.6167260">
        <ele>2323.8</ele>
        <time>2021-05-30T15:24:46Z</time>
      </trkpt>
      <trkpt lat="-12.1373150" lon="-76.6167210">
        <ele>2324.1</ele>
        <time>2021-05-30T15:24:48Z</time>
      </trkpt>
      <trkpt lat="-12.1372670" lon="-76.6167170">
        <ele>2324.5</ele>
        <time>2021-05-30T15:24:49Z</time>
      </trkpt>
      <trkpt lat="-12.1372270" lon="-76.6167140">
        <ele>2324.9</ele>
        <time>2021-05-30T15:24:51Z</time>
      </trkpt>
      <trkpt lat="-12.1371930" lon="-76.6167110">
        <ele>2325.2</ele>
        <time>2021-05-30T15:24:52Z</time>
      </trkpt>
      <trkpt lat="-12.1371640" lon="-76.6167110">
        <ele>2325.5</ele>
        <time>2021-05-30T15:24:53Z</time>
      </trkpt>
      <trkpt lat="-12.1371130" lon="-76.6167050">
        <ele>2326.0</ele>
        <time>2021-05-30T15:24:55Z</time>
      </trkpt>
      <trkpt lat="-12.1370800" lon="-76.6167000">
        <ele>2326.4</ele>
        <time>2021-05-30T15:24:56Z</time>
      </trkpt>
      <trkpt lat="-12.1370360" lon="-76.6167000">
        <ele>2326.8</ele>
        <time>2021-05-30T15:24:57Z</time>
      </trkpt>
      <trkpt lat="-12.1370130" lon="-76.6167040">
        <ele>2327.1</ele>
        <time>2021-05-30T15:24:58Z</time>
      </trkpt>
      <trkpt lat="-12.1369920" lon="-76.6167120">
        <ele>2327.3</ele>
        <time>2021-05-30T15:25:00Z</time>
      </trkpt>
      <trkpt lat="-12.1369640" lon="-76.6167210">
        <ele>2327.6</ele>
        <time>2021-05-30T15:25:01Z</time>
      </trkpt>
      <trkpt lat="-12.1369330" lon="-76.6167400">
        <ele>2327.9</ele>
        <time>2021-05-30T15:25:03Z</time>
      </trkpt>
      <trkpt lat="-12.1369240" lon="-76.6167460">
        <ele>2328.0</ele>
        <time>2021-05-30T15:25:04Z</time>
      </trkpt>
      <trkpt lat="-12.1368970" lon="-76.6167630">
        <ele>2328.3</ele>
        <time>2021-05-30T15:25:05Z</time>
      </trkpt>
      <trkpt lat="-12.1368870" lon="-76.6167680">
        <ele>2328.4</ele>
        <time>2021-05-30T15:25:06Z</time>
      </trkpt>
      <trkpt lat="-12.1368610" lon="-76.6167860">
        <ele>2328.6</ele>
        <time>2021-05-30T15:25:07Z</time>
      </trkpt>
      <trkpt lat="-12.1368380" lon="-76.6168150">
        <ele>2328.8</ele>
        <time>2021-05-30T15:25:09Z</time>
      </trkpt>
      <trkpt lat="-12.1368180" lon="-76.6168390">
        <ele>2329.0</ele>
        <time>2021-05-30T15:25:10Z</time>
      </trkpt>
      <trkpt lat="-12.1367980" lon="-76.6168610">
        <ele>2329.2</ele>
        <time>2021-05-30T15:25:11Z</time>
      </trkpt>
      <trkpt lat="-12.1367790" lon="-76.6168850">
        <ele>2329.4</ele>
        <time>2021-05-30T15:25:12Z</time>
      </trkpt>
      <trkpt lat="-12.1367550" lon="-76.6169140">
        <ele>2329.7</ele>
        <time>2021-05-30T15:25:14Z</time>
      </trkpt>
      <trkpt lat="-12.1367260" lon="-76.6169520">
        <ele>2329.9</ele>
        <time>2021-05-30T15:25:15Z</time>
      </trkpt>
      <trkpt lat="-12.1366990" lon="-76.6169880">
        <ele>2330.2</ele>
        <time>2021-05-30T15:25:17Z</time>
      </trkpt>
      <trkpt lat="-12.1366820" lon="-76.6170120">
        <ele>2330.4</ele>
        <time>2021-05-30T15:25:19Z</time>
      </trkpt>
      <trkpt lat="-12.1366610" lon="-76.6170370">
        <ele>2330.6</ele>
        <time>2021-05-30T15:25:21Z</time>
      </trkpt>
      <trkpt lat="-12.1366450" lon="-76.6170620">
        <ele>2330.8</ele>
        <time>2021-05-30T15:25:22Z</time>
      </trkpt>
      <trkpt lat="-12.1366280" lon="-76.6170830">
        <ele>2331.0</ele>
        <time>2021-05-30T15:25:23Z</time>
      </trkpt>
      <trkpt lat="-12.1366100" lon="-76.6171090">
        <ele>2331.2</ele>
        <time>2021-05-30T15:25:25Z</time>
      </trkpt>
      <trkpt lat="-12.1365990" lon="-76.6171460">
        <ele>2331.4</ele>
        <time>2021-05-30T15:25:26Z</time>
      </trkpt>
      <trkpt lat="-12.1365980" lon="-76.6171780">
        <ele>2331.7</ele>
        <time>2021-05-30T15:25:28Z</time>
      </trkpt>
      <trkpt lat="-12.1366040" lon="-76.6172160">
        <ele>2332.0</ele>
        <time>2021-05-30T15:25:29Z</time>
      </trkpt>
      <trkpt lat="-12.1366180" lon="-76.6172470">
        <ele>2332.3</ele>
        <time>2021-05-30T15:25:31Z</time>
      </trkpt>
      <trkpt lat="-12.1366240" lon="-76.6172560">
        <ele>2332.4</ele>
        <time>2021-05-30T15:25:32Z</time>
      </trkpt>
      <trkpt lat="-12.1366360" lon="-76.6172690">
        <ele>2332.6</ele>
        <time>2021-05-30T15:25:33Z</time>
      </trkpt>
      <trkpt lat="-12.1366480" lon="-76.6172790">
        <ele>2332.8</ele>
        <time>2021-05-30T15:25:34Z</time>
      </trkpt>
      <trkpt lat="-12.1366830" lon="-76.6172950">
        <ele>2333.2</ele>
        <time>2021-05-30T15:25:35Z</time>
      </trkpt>
      <trkpt lat="-12.1367000" lon="-76.6173010">
        <ele>2333.4</ele>
        <time>2021-05-30T15:25:36Z</time>
      </trkpt>
      <trkpt lat="-12.1367330" lon="-76.6173080">
        <ele>2333.8</ele>
        <time>2021-05-30T15:25:38Z</time>
      </trkpt>
      <trkpt lat="-12.1367440" lon="-76.6173100">
        <ele>2333.9</ele>
        <time>2021-05-30T15:25:39Z</time>
      </trkpt>
      <trkpt lat="-12.1367730" lon="-76.6173120">
        <ele>2334.2</ele>
        <time>2021-05-30T15:25:41Z</time>
      </trkpt>
      <trkpt lat="-12.1368060" lon="-76.6173050">
        <ele>2334.6</ele>
        <time>2021-05-30T15:25:42Z</time>
      </trkpt>
      <trkpt lat="-12.1368380" lon="-76.6172930">
        <ele>2335.0</ele>
        <time>2021-05-30T15:25:44Z</time>
      </trkpt>
      <trkpt lat="-12.1368450" lon="-76.6172880">
        <ele>2335.1</ele>
        <time>2021-05-30T15:25:45Z</time>
      </trkpt>
      <trkpt lat="-12.1368670" lon="-76.6172700">
        <ele>2335.4</ele>
        <time>2021-05-30T15:25:46Z</time>
      </trkpt>
      <trkpt lat="-12.1368770" lon="-76.6172600">
        <ele>2335.6</ele>
        <time>2021-05-30T15:25:47Z</time>
      </trkpt>
      <trkpt lat="-12.1369060" lon="-76.6172380">
        <ele>2335.9</ele>
        <time>2021-05-30T15:25:49Z</time>
      </trkpt>
      <trkpt lat="-12.1369190" lon="-76.6172320">
        <ele>2336.1</ele>
        <time>2021-05-30T15:25:50Z</time>
      </trkpt>
      <trkpt lat="-12.1369490" lon="-76.6172280">
        <ele>2336.4</ele>
        <time>2021-05-30T15:25:52Z</time>
      </trkpt>
      <trkpt lat="-12.1369570" lon="-76.6172260">
        <ele>2336.4</ele>
        <time>2021-05-30T15:25:53Z</time>
      </trkpt>
      <trkpt lat="-12.1369710" lon="-76.6172170">
        <ele>2336.6</ele>
        <time>2021-05-30T15:25:54Z</time>
      </trkpt>
      <trkpt lat="-12.1369800" lon="-76.6171970">
        <ele>2336.8</ele>
        <time>2021-05-30T15:25:56Z</time>
      </trkpt>
      <trkpt lat="-12.1369890" lon="-76.6171630">
        <ele>2337.1</ele>
        <time>2021-05-30T15:25:57Z</time>
      </trkpt>
      <trkpt lat="-12.1369900" lon="-76.6171490">
        <ele>2337.2</ele>
        <time>2021-05-30T15:25:58Z</time>
      </trkpt>
      <trkpt lat="-12.1369970" lon="-76.6171110">
        <ele>2337.5</ele>
        <time>2021-05-30T15:25:59Z</time>
      </trkpt>
      <trkpt lat="-12.1369940" lon="-76.6170600">
        <ele>2337.9</ele>
        <time>2021-05-30T15:26:00Z</time>
      </trkpt>
      <trkpt lat="-12.1369980" lon="-76.6170300">
        <ele>2338.2</ele>
        <time>2021-05-30T15:26:01Z</time>
      </trkpt>
      <trkpt lat="-12.1370040" lon="-76.6170010">
        <ele>2338.4</ele>
        <time>2021-05-30T15:26:03Z</time>
      </trkpt>
      <trkpt lat="-12.1370080" lon="-76.6169690">
        <ele>2338.6</ele>
        <time>2021-05-30T15:26:04Z</time>
      </trkpt>
      <trkpt lat="-12.1370170" lon="-76.6169320">
        <ele>2338.8</ele>
        <time>2021-05-30T15:26:05Z</time>
      </trkpt>
      <trkpt lat="-12.1370300" lon="-76.6168830">
        <ele>2339.1</ele>
        <time>2021-05-30T15:26:07Z</time>
      </trkpt>
      <trkpt lat="-12.1370400" lon="-76.6168500">
        <ele>2339.3</ele>
        <time>2021-05-30T15:26:08Z</time>
      </trkpt>
      <trkpt lat="-12.1370610" lon="-76.6168050">
        <ele>2339.6</ele>
        <time>2021-05-30T15:26:10Z</time>
      </trkpt>
      <trkpt lat="-12.1370940" lon="-76.6167580">
        <ele>2339.9</ele>
        <time>2021-05-30T15:26:11Z</time>
      </trkpt>
      <trkpt lat="-12.1371340" lon="-76.6167480">
        <ele>2341.8</ele>
        <time>2021-05-30T15:26:13Z</time>
      </trkpt>
      <trkpt lat="-12.1371480" lon="-76.6167450">
        <ele>2343.7</ele>
        <time>2021-05-30T15:26:14Z</time>
      </trkpt>
      <trkpt lat="-12.1372070" lon="-76.6167260">
        <ele>2345.7</ele>
        <time>2021-05-30T15:26:16Z</time>
      </trkpt>
      <trkpt lat="-12.1372420" lon="-76.6167140">
        <ele>2345.1</ele>
        <time>2021-05-30T15:26:17Z</time>
      </trkpt>
      <trkpt lat="-12.1372750" lon="-76.6167050">
        <ele>2346.9</ele>
        <time>2021-05-30T15:26:18Z</time>
      </trkpt>
      <trkpt lat="-12.1373120" lon="-76.6167030">
        <ele>2348.5</ele>
        <time>2021-05-30T15:26:19Z</time>
      </trkpt>
      <trkpt lat="-12.1373420" lon="-76.6166980">
        <ele>2348.0</ele>
        <time>2021-05-30T15:26:21Z</time>
      </trkpt>
      <trkpt lat="-12.1373880" lon="-76.6166950">
        <ele>2349.4</ele>
        <time>2021-05-30T15:26:22Z</time>
      </trkpt>
      <trkpt lat="-12.1374170" lon="-76.6166960">
        <ele>2350.4</ele>
        <time>2021-05-30T15:26:23Z</time>
      </trkpt>
      <trkpt lat="-12.1374520" lon="-76.6166990">
        <ele>2350.9</ele>
        <time>2021-05-30T15:26:25Z</time>
      </trkpt>
      <trkpt lat="-12.1374800" lon="-76.6167050">
        <ele>2351.1</ele>
        <time>2021-05-30T15:26:26Z</time>
      </trkpt>
      <trkpt lat="-12.1375260" lon="-76.6167210">
        <ele>2350.9</ele>
        <time>2021-05-30T15:26:27Z</time>
      </trkpt>
      <trkpt lat="-12.1375720" lon="-76.6167350">
        <ele>2353.7</ele>
        <time>2021-05-30T15:26:29Z</time>
      </trkpt>
      <trkpt lat="-12.1376340" lon="-76.6167460">
        <ele>2353.0</ele>
        <time>2021-05-30T15:26:31Z</time>
      </trkpt>
      <trkpt lat="-12.1376690" lon="-76.6167440">
        <ele>2352.2</ele>
        <time>2021-05-30T15:26:32Z</time>
      </trkpt>
      <trkpt lat="-12.1377250" lon="-76.6167400">
        <ele>2351.0</ele>
        <time>2021-05-30T15:26:33Z</time>
      </trkpt>
      <trkpt lat="-12.1377620" lon="-76.6167410">
        <ele>2349.6</ele>
        <time>2021-05-30T15:26:34Z</time>
      </trkpt>
      <trkpt lat="-12.1378140" lon="-76.6167480">
        <ele>2346.2</ele>
        <time>2021-05-30T15:26:36Z</time>
      </trkpt>
      <trkpt lat="-12.1378660" lon="-76.6167470">
        <ele>2344.3</ele>
        <time>2021-05-30T15:26:37Z</time>
      </trkpt>
      <trkpt lat="-12.1379130" lon="-76.6167380">
        <ele>2343.0</ele>
        <time>2021-05-30T15:26:39Z</time>
      </trkpt>
      <trkpt lat="-12.1379300" lon="-76.6167350">
        <ele>2342.6</ele>
        <time>2021-05-30T15:26:40Z</time>
      </trkpt>
      <trkpt lat="-12.1379470" lon="-76.6167320">
        <ele>2342.1</ele>
        <time>2021-05-30T15:26:41Z</time>
      </trkpt>
      <trkpt lat="-12.1379650" lon="-76.6167280">
        <ele>2341.7</ele>
        <time>2021-05-30T15:26:42Z</time>
      </trkpt>
      <trkpt lat="-12.1379900" lon="-76.6167240">
        <ele>2342.2</ele>
        <time>2021-05-30T15:26:44Z</time>
      </trkpt>
      <trkpt lat="-12.1380240" lon="-76.6167200">
        <ele>2342.6</ele>
        <time>2021-05-30T15:26:45Z</time>
      </trkpt>
      <trkpt lat="-12.1380360" lon="-76.6167180">
        <ele>2342.1</ele>
        <time>2021-05-30T15:26:46Z</time>
      </trkpt>
      <trkpt lat="-12.1380580" lon="-76.6167160">
        <ele>2341.7</ele>
        <time>2021-05-30T15:26:47Z</time>
      </trkpt>
      <trkpt lat="-12.1380860" lon="-76.6167120">
        <ele>2345.1</ele>
        <time>2021-05-30T15:26:49Z</time>
      </trkpt>
      <trkpt lat="-12.1381120" lon="-76.6167040">
        <ele>2349.9</ele>
        <time>2021-05-30T15:26:50Z</time>
      </trkpt>
      <trkpt lat="-12.1381450" lon="-76.6166800">
        <ele>2355.9</ele>
        <time>2021-05-30T15:26:52Z</time>
      </trkpt>
      <trkpt lat="-12.1381540" lon="-76.6166690">
        <ele>2354.0</ele>
        <time>2021-05-30T15:26:53Z</time>
      </trkpt>
      <trkpt lat="-12.1381620" lon="-76.6166590">
        <ele>2353.5</ele>
        <time>2021-05-30T15:26:54Z</time>
      </trkpt>
      <trkpt lat="-12.1381750" lon="-76.6166410">
        <ele>2353.1</ele>
        <time>2021-05-30T15:26:55Z</time>
      </trkpt>
      <trkpt lat="-12.1381930" lon="-76.6166070">
        <ele>2356.5</ele>
        <time>2021-05-30T15:26:57Z</time>
      </trkpt>
      <trkpt lat="-12.1382160" lon="-76.6165740">
        <ele>2352.4</ele>
        <time>2021-05-30T15:26:59Z</time>
      </trkpt>
      <trkpt lat="-12.1382250" lon="-76.6165620">
        <ele>2352.0</ele>
        <time>2021-05-30T15:27:00Z</time>
      </trkpt>
      <trkpt lat="-12.1382410" lon="-76.6165410">
        <ele>2352.2</ele>
        <time>2021-05-30T15:27:01Z</time>
      </trkpt>
      <trkpt lat="-12.1382640" lon="-76.6165170">
        <ele>2351.8</ele>
        <time>2021-05-30T15:27:03Z</time>
      </trkpt>
      <trkpt lat="-12.1382820" lon="-76.6165020">
        <ele>2350.6</ele>
        <time>2021-05-30T15:27:04Z</time>
      </trkpt>
      <trkpt lat="-12.1383010" lon="-76.6164800">
        <ele>2350.7</ele>
        <time>2021-05-30T15:27:06Z</time>
      </trkpt>
      <trkpt lat="-12.1383280" lon="-76.6164530">
        <ele>2350.8</ele>
        <time>2021-05-30T15:27:07Z</time>
      </trkpt>
      <trkpt lat="-12.1383410" lon="-76.6164380">
        <ele>2350.8</ele>
        <time>2021-05-30T15:27:08Z</time>
      </trkpt>
      <trkpt lat="-12.1383730" lon="-76.6164110">
        <ele>2350.9</ele>
        <time>2021-05-30T15:27:10Z</time>
      </trkpt>
      <trkpt lat="-12.1383850" lon="-76.6163990">
        <ele>2350.9</ele>
        <time>2021-05-30T15:27:11Z</time>
      </trkpt>
      <trkpt lat="-12.1384090" lon="-76.6163760">
        <ele>2351.0</ele>
        <time>2021-05-30T15:27:12Z</time>
      </trkpt>
      <trkpt lat="-12.1384390" lon="-76.6163480">
        <ele>2350.9</ele>
        <time>2021-05-30T15:27:13Z</time>
      </trkpt>
      <trkpt lat="-12.1384490" lon="-76.6163370">
        <ele>2350.9</ele>
        <time>2021-05-30T15:27:14Z</time>
      </trkpt>
      <trkpt lat="-12.1384740" lon="-76.6163140">
        <ele>2350.9</ele>
        <time>2021-05-30T15:27:16Z</time>
      </trkpt>
      <trkpt lat="-12.1384920" lon="-76.6162930">
        <ele>2350.8</ele>
        <time>2021-05-30T15:27:17Z</time>
      </trkpt>
      <trkpt lat="-12.1385340" lon="-76.6162530">
        <ele>2350.8</ele>
        <time>2021-05-30T15:27:19Z</time>
      </trkpt>
      <trkpt lat="-12.1385690" lon="-76.6162220">
        <ele>2350.9</ele>
        <time>2021-05-30T15:27:20Z</time>
      </trkpt>
      <trkpt lat="-12.1386040" lon="-76.6161940">
        <ele>2350.9</ele>
        <time>2021-05-30T15:27:22Z</time>
      </trkpt>
      <trkpt lat="-12.1386470" lon="-76.6161540">
        <ele>2351.0</ele>
        <time>2021-05-30T15:27:23Z</time>
      </trkpt>
      <trkpt lat="-12.1386770" lon="-76.6161190">
        <ele>2351.1</ele>
        <time>2021-05-30T15:27:25Z</time>
      </trkpt>
      <trkpt lat="-12.1387070" lon="-76.6160800">
        <ele>2351.3</ele>
        <time>2021-05-30T15:27:26Z</time>
      </trkpt>
      <trkpt lat="-12.1387350" lon="-76.6160440">
        <ele>2351.4</ele>
        <time>2021-05-30T15:27:27Z</time>
      </trkpt>
      <trkpt lat="-12.1387680" lon="-76.6160060">
        <ele>2351.6</ele>
        <time>2021-05-30T15:27:28Z</time>
      </trkpt>
      <trkpt lat="-12.1388180" lon="-76.6159570">
        <ele>2351.8</ele>
        <time>2021-05-30T15:27:29Z</time>
      </trkpt>
      <trkpt lat="-12.1388600" lon="-76.6159380">
        <ele>2351.9</ele>
        <time>2021-05-30T15:27:31Z</time>
      </trkpt>
      <trkpt lat="-12.1388900" lon="-76.6159340">
        <ele>2352.0</ele>
        <time>2021-05-30T15:27:32Z</time>
      </trkpt>
      <trkpt lat="-12.1389470" lon="-76.6159290">
        <ele>2352.0</ele>
        <time>2021-05-30T15:27:34Z</time>
      </trkpt>
      <trkpt lat="-12.1389870" lon="-76.6159290">
        <ele>2352.0</ele>
        <time>2021-05-30T15:27:35Z</time>
      </trkpt>
      <trkpt lat="-12.1390220" lon="-76.6159310">
        <ele>2352.0</ele>
        <time>2021-05-30T15:27:36Z</time>
      </trkpt>
      <trkpt lat="-12.1390570" lon="-76.6159360">
        <ele>2351.9</ele>
        <time>2021-05-30T15:27:37Z</time>
      </trkpt>
      <trkpt lat="-12.1390990" lon="-76.6159500">
        <ele>2351.9</ele>
        <time>2021-05-30T15:27:39Z</time>
      </trkpt>
      <trkpt lat="-12.1391140" lon="-76.6159540">
        <ele>2351.9</ele>
        <time>2021-05-30T15:27:40Z</time>
      </trkpt>
      <trkpt lat="-12.1391290" lon="-76.6159590">
        <ele>2351.9</ele>
        <time>2021-05-30T15:27:41Z</time>
      </trkpt>
      <trkpt lat="-12.1391650" lon="-76.6159710">
        <ele>2351.9</ele>
        <time>2021-05-30T15:27:43Z</time>
      </trkpt>
      <trkpt lat="-12.1392060" lon="-76.6159850">
        <ele>2351.9</ele>
        <time>2021-05-30T15:27:44Z</time>
      </trkpt>
      <trkpt lat="-12.1392400" lon="-76.6159980">
        <ele>2351.9</ele>
        <time>2021-05-30T15:27:45Z</time>
      </trkpt>
      <trkpt lat="-12.1392660" lon="-76.6160060">
        <ele>2351.9</ele>
        <time>2021-05-30T15:27:46Z</time>
      </trkpt>
      <trkpt lat="-12.1392890" lon="-76.6160150">
        <ele>2351.9</ele>
        <time>2021-05-30T15:27:47Z</time>
      </trkpt>
      <trkpt lat="-12.1393120" lon="-76.6160230">
        <ele>2351.9</ele>
        <time>2021-05-30T15:27:49Z</time>
      </trkpt>
      <trkpt lat="-12.1393510" lon="-76.6160420">
        <ele>2352.0</ele>
        <time>2021-05-30T15:27:51Z</time>
      </trkpt>
      <trkpt lat="-12.1393880" lon="-76.6160740">
        <ele>2352.1</ele>
        <time>2021-05-30T15:27:53Z</time>
      </trkpt>
      <trkpt lat="-12.1393990" lon="-76.6161100">
        <ele>2352.1</ele>
        <time>2021-05-30T15:27:54Z</time>
      </trkpt>
      <trkpt lat="-12.1394240" lon="-76.6161420">
        <ele>2352.1</ele>
        <time>2021-05-30T15:27:55Z</time>
      </trkpt>
      <trkpt lat="-12.1394630" lon="-76.6161510">
        <ele>2352.0</ele>
        <time>2021-05-30T15:27:57Z</time>
      </trkpt>
      <trkpt lat="-12.1394800" lon="-76.6161520">
        <ele>2352.0</ele>
        <time>2021-05-30T15:27:58Z</time>
      </trkpt>
      <trkpt lat="-12.1395010" lon="-76.6161420">
        <ele>2351.8</ele>
        <time>2021-05-30T15:27:59Z</time>
      </trkpt>
      <trkpt lat="-12.1395410" lon="-76.6161200">
        <ele>2351.6</ele>
        <time>2021-05-30T15:28:01Z</time>
      </trkpt>
      <trkpt lat="-12.1395760" lon="-76.6160950">
        <ele>2351.3</ele>
        <time>2021-05-30T15:28:03Z</time>
      </trkpt>
      <trkpt lat="-12.1396020" lon="-76.6160760">
        <ele>2351.2</ele>
        <time>2021-05-30T15:28:04Z</time>
      </trkpt>
      <trkpt lat="-12.1396290" lon="-76.6160550">
        <ele>2351.1</ele>
        <time>2021-05-30T15:28:05Z</time>
      </trkpt>
      <trkpt lat="-12.1396640" lon="-76.6160240">
        <ele>2351.0</ele>
        <time>2021-05-30T15:28:06Z</time>
      </trkpt>
      <trkpt lat="-12.1397050" lon="-76.6159830">
        <ele>2350.9</ele>
        <time>2021-05-30T15:28:08Z</time>
      </trkpt>
      <trkpt lat="-12.1397300" lon="-76.6159590">
        <ele>2350.9</ele>
        <time>2021-05-30T15:28:09Z</time>
      </trkpt>
      <trkpt lat="-12.1397520" lon="-76.6159370">
        <ele>2350.8</ele>
        <time>2021-05-30T15:28:10Z</time>
      </trkpt>
      <trkpt lat="-12.1397690" lon="-76.6159150">
        <ele>2350.8</ele>
        <time>2021-05-30T15:28:11Z</time>
      </trkpt>
      <trkpt lat="-12.1397860" lon="-76.6158910">
        <ele>2350.7</ele>
        <time>2021-05-30T15:28:12Z</time>
      </trkpt>
      <trkpt lat="-12.1398080" lon="-76.6158560">
        <ele>2350.6</ele>
        <time>2021-05-30T15:28:13Z</time>
      </trkpt>
      <trkpt lat="-12.1398150" lon="-76.6158430">
        <ele>2350.6</ele>
        <time>2021-05-30T15:28:14Z</time>
      </trkpt>
      <trkpt lat="-12.1398260" lon="-76.6158190">
        <ele>2350.6</ele>
        <time>2021-05-30T15:28:15Z</time>
      </trkpt>
      <trkpt lat="-12.1398360" lon="-76.6157930">
        <ele>2350.5</ele>
        <time>2021-05-30T15:28:17Z</time>
      </trkpt>
      <trkpt lat="-12.1398480" lon="-76.6157630">
        <ele>2350.4</ele>
        <time>2021-05-30T15:28:18Z</time>
      </trkpt>
      <trkpt lat="-12.1398530" lon="-76.6157530">
        <ele>2350.4</ele>
        <time>2021-05-30T15:28:19Z</time>
      </trkpt>
      <trkpt lat="-12.1398650" lon="-76.6157320">
        <ele>2350.3</ele>
        <time>2021-05-30T15:28:20Z</time>
      </trkpt>
      <trkpt lat="-12.1398830" lon="-76.6157000">
        <ele>2350.2</ele>
        <time>2021-05-30T15:28:22Z</time>
      </trkpt>
      <trkpt lat="-12.1399000" lon="-76.6156740">
        <ele>2350.2</ele>
        <time>2021-05-30T15:28:23Z</time>
      </trkpt>
      <trkpt lat="-12.1399190" lon="-76.6156500">
        <ele>2350.2</ele>
        <time>2021-05-30T15:28:24Z</time>
      </trkpt>
      <trkpt lat="-12.1399470" lon="-76.6156190">
        <ele>2350.2</ele>
        <time>2021-05-30T15:28:25Z</time>
      </trkpt>
      <trkpt lat="-12.1399580" lon="-76.6156060">
        <ele>2350.3</ele>
        <time>2021-05-30T15:28:26Z</time>
      </trkpt>
      <trkpt lat="-12.1399780" lon="-76.6155820">
        <ele>2350.3</ele>
        <time>2021-05-30T15:28:27Z</time>
      </trkpt>
      <trkpt lat="-12.1399960" lon="-76.6155620">
        <ele>2350.4</ele>
        <time>2021-05-30T15:28:28Z</time>
      </trkpt>
      <trkpt lat="-12.1400190" lon="-76.6155430">
        <ele>2350.5</ele>
        <time>2021-05-30T15:28:30Z</time>
      </trkpt>
      <trkpt lat="-12.1400690" lon="-76.6154980">
        <ele>2350.6</ele>
        <time>2021-05-30T15:28:32Z</time>
      </trkpt>
      <trkpt lat="-12.1401110" lon="-76.6154620">
        <ele>2350.7</ele>
        <time>2021-05-30T15:28:33Z</time>
      </trkpt>
      <trkpt lat="-12.1401530" lon="-76.6154270">
        <ele>2350.6</ele>
        <time>2021-05-30T15:28:35Z</time>
      </trkpt>
      <trkpt lat="-12.1401920" lon="-76.6154020">
        <ele>2350.5</ele>
        <time>2021-05-30T15:28:36Z</time>
      </trkpt>
      <trkpt lat="-12.1402220" lon="-76.6153840">
        <ele>2350.5</ele>
        <time>2021-05-30T15:28:37Z</time>
      </trkpt>
      <trkpt lat="-12.1402580" lon="-76.6153680">
        <ele>2350.7</ele>
        <time>2021-05-30T15:28:38Z</time>
      </trkpt>
      <trkpt lat="-12.1402980" lon="-76.6153560">
        <ele>2351.0</ele>
        <time>2021-05-30T15:28:40Z</time>
      </trkpt>
      <trkpt lat="-12.1403640" lon="-76.6153260">
        <ele>2351.5</ele>
        <time>2021-05-30T15:28:42Z</time>
      </trkpt>
      <trkpt lat="-12.1404040" lon="-76.6153120">
        <ele>2351.7</ele>
        <time>2021-05-30T15:28:43Z</time>
      </trkpt>
      <trkpt lat="-12.1404600" lon="-76.6152920">
        <ele>2351.8</ele>
        <time>2021-05-30T15:28:45Z</time>
      </trkpt>
      <trkpt lat="-12.1404880" lon="-76.6152870">
        <ele>2351.8</ele>
        <time>2021-05-30T15:28:46Z</time>
      </trkpt>
      <trkpt lat="-12.1405420" lon="-76.6152750">
        <ele>2351.7</ele>
        <time>2021-05-30T15:28:48Z</time>
      </trkpt>
      <trkpt lat="-12.1405930" lon="-76.6152610">
        <ele>2351.5</ele>
        <time>2021-05-30T15:28:49Z</time>
      </trkpt>
      <trkpt lat="-12.1406210" lon="-76.6152480">
        <ele>2351.3</ele>
        <time>2021-05-30T15:28:50Z</time>
      </trkpt>
      <trkpt lat="-12.1406610" lon="-76.6152340">
        <ele>2351.0</ele>
        <time>2021-05-30T15:28:52Z</time>
      </trkpt>
      <trkpt lat="-12.1406930" lon="-76.6152120">
        <ele>2350.8</ele>
        <time>2021-05-30T15:28:53Z</time>
      </trkpt>
      <trkpt lat="-12.1407020" lon="-76.6152030">
        <ele>2350.7</ele>
        <time>2021-05-30T15:28:54Z</time>
      </trkpt>
      <trkpt lat="-12.1407180" lon="-76.6151840">
        <ele>2350.6</ele>
        <time>2021-05-30T15:28:55Z</time>
      </trkpt>
      <trkpt lat="-12.1407340" lon="-76.6151680">
        <ele>2350.5</ele>
        <time>2021-05-30T15:28:57Z</time>
      </trkpt>
      <trkpt lat="-12.1407470" lon="-76.6151560">
        <ele>2350.4</ele>
        <time>2021-05-30T15:28:58Z</time>
      </trkpt>
      <trkpt lat="-12.1407510" lon="-76.6151410">
        <ele>2350.4</ele>
        <time>2021-05-30T15:28:59Z</time>
      </trkpt>
      <trkpt lat="-12.1407600" lon="-76.6151140">
        <ele>2350.3</ele>
        <time>2021-05-30T15:29:00Z</time>
      </trkpt>
      <trkpt lat="-12.1407680" lon="-76.6150980">
        <ele>2350.3</ele>
        <time>2021-05-30T15:29:01Z</time>
      </trkpt>
      <trkpt lat="-12.1407790" lon="-76.6150790">
        <ele>2350.3</ele>
        <time>2021-05-30T15:29:03Z</time>
      </trkpt>
      <trkpt lat="-12.1407980" lon="-76.6150530">
        <ele>2350.4</ele>
        <time>2021-05-30T15:29:04Z</time>
      </trkpt>
      <trkpt lat="-12.1408030" lon="-76.6150470">
        <ele>2350.4</ele>
        <time>2021-05-30T15:29:05Z</time>
      </trkpt>
      <trkpt lat="-12.1408140" lon="-76.6150360">
        <ele>2350.4</ele>
        <time>2021-05-30T15:29:06Z</time>
      </trkpt>
      <trkpt lat="-12.1408280" lon="-76.6150230">
        <ele>2350.4</ele>
        <time>2021-05-30T15:29:08Z</time>
      </trkpt>
      <trkpt lat="-12.1408400" lon="-76.6150120">
        <ele>2350.4</ele>
        <time>2021-05-30T15:29:09Z</time>
      </trkpt>
      <trkpt lat="-12.1408510" lon="-76.6150000">
        <ele>2350.4</ele>
        <time>2021-05-30T15:29:10Z</time>
      </trkpt>
      <trkpt lat="-12.1408800" lon="-76.6149780">
        <ele>2350.4</ele>
        <time>2021-05-30T15:29:11Z</time>
      </trkpt>
      <trkpt lat="-12.1408920" lon="-76.6149700">
        <ele>2350.3</ele>
        <time>2021-05-30T15:29:12Z</time>
      </trkpt>
      <trkpt lat="-12.1409190" lon="-76.6149440">
        <ele>2350.3</ele>
        <time>2021-05-30T15:29:14Z</time>
      </trkpt>
      <trkpt lat="-12.1409270" lon="-76.6149340">
        <ele>2350.2</ele>
        <time>2021-05-30T15:29:15Z</time>
      </trkpt>
      <trkpt lat="-12.1409470" lon="-76.6149130">
        <ele>2350.2</ele>
        <time>2021-05-30T15:29:16Z</time>
      </trkpt>
      <trkpt lat="-12.1409720" lon="-76.6148810">
        <ele>2350.1</ele>
        <time>2021-05-30T15:29:18Z</time>
      </trkpt>
      <trkpt lat="-12.1409880" lon="-76.6148530">
        <ele>2350.1</ele>
        <time>2021-05-30T15:29:19Z</time>
      </trkpt>
      <trkpt lat="-12.1410060" lon="-76.6148290">
        <ele>2350.1</ele>
        <time>2021-05-30T15:29:20Z</time>
      </trkpt>
      <trkpt lat="-12.1410260" lon="-76.6148060">
        <ele>2350.1</ele>
        <time>2021-05-30T15:29:21Z</time>
      </trkpt>
      <trkpt lat="-12.1410570" lon="-76.6147710">
        <ele>2350.1</ele>
        <time>2021-05-30T15:29:23Z</time>
      </trkpt>
      <trkpt lat="-12.1410820" lon="-76.6147390">
        <ele>2350.1</ele>
        <time>2021-05-30T15:29:24Z</time>
      </trkpt>
      <trkpt lat="-12.1411070" lon="-76.6147130">
        <ele>2350.1</ele>
        <time>2021-05-30T15:29:25Z</time>
      </trkpt>
      <trkpt lat="-12.1411370" lon="-76.6146860">
        <ele>2350.1</ele>
        <time>2021-05-30T15:29:26Z</time>
      </trkpt>
      <trkpt lat="-12.1411720" lon="-76.6146550">
        <ele>2350.1</ele>
        <time>2021-05-30T15:29:28Z</time>
      </trkpt>
      <trkpt lat="-12.1412160" lon="-76.6146140">
        <ele>2350.2</ele>
        <time>2021-05-30T15:29:30Z</time>
      </trkpt>
      <trkpt lat="-12.1412480" lon="-76.6145890">
        <ele>2350.2</ele>
        <time>2021-05-30T15:29:31Z</time>
      </trkpt>
      <trkpt lat="-12.1412960" lon="-76.6145630">
        <ele>2350.1</ele>
        <time>2021-05-30T15:29:32Z</time>
      </trkpt>
      <trkpt lat="-12.1413580" lon="-76.6145360">
        <ele>2350.0</ele>
        <time>2021-05-30T15:29:33Z</time>
      </trkpt>
      <trkpt lat="-12.1413960" lon="-76.6145220">
        <ele>2350.0</ele>
        <time>2021-05-30T15:29:35Z</time>
      </trkpt>
      <trkpt lat="-12.1414250" lon="-76.6145100">
        <ele>2349.9</ele>
        <time>2021-05-30T15:29:36Z</time>
      </trkpt>
      <trkpt lat="-12.1414530" lon="-76.6144980">
        <ele>2349.9</ele>
        <time>2021-05-30T15:29:37Z</time>
      </trkpt>
      <trkpt lat="-12.1414730" lon="-76.6144880">
        <ele>2349.9</ele>
        <time>2021-05-30T15:29:38Z</time>
      </trkpt>
      <trkpt lat="-12.1415030" lon="-76.6144700">
        <ele>2349.8</ele>
        <time>2021-05-30T15:29:40Z</time>
      </trkpt>
      <trkpt lat="-12.1415420" lon="-76.6144450">
        <ele>2349.8</ele>
        <time>2021-05-30T15:29:42Z</time>
      </trkpt>
      <trkpt lat="-12.1415720" lon="-76.6144180">
        <ele>2349.9</ele>
        <time>2021-05-30T15:29:43Z</time>
      </trkpt>
      <trkpt lat="-12.1415830" lon="-76.6144070">
        <ele>2349.9</ele>
        <time>2021-05-30T15:29:44Z</time>
      </trkpt>
      <trkpt lat="-12.1416080" lon="-76.6143700">
        <ele>2349.9</ele>
        <time>2021-05-30T15:29:45Z</time>
      </trkpt>
      <trkpt lat="-12.1416320" lon="-76.6143130">
        <ele>2350.0</ele>
        <time>2021-05-30T15:29:47Z</time>
      </trkpt>
      <trkpt lat="-12.1416650" lon="-76.6142520">
        <ele>2350.0</ele>
        <time>2021-05-30T15:29:48Z</time>
      </trkpt>
      <trkpt lat="-12.1416900" lon="-76.6142140">
        <ele>2349.8</ele>
        <time>2021-05-30T15:29:50Z</time>
      </trkpt>
      <trkpt lat="-12.1417300" lon="-76.6141610">
        <ele>2349.5</ele>
        <time>2021-05-30T15:29:52Z</time>
      </trkpt>
      <trkpt lat="-12.1417630" lon="-76.6141240">
        <ele>2349.2</ele>
        <time>2021-05-30T15:29:53Z</time>
      </trkpt>
      <trkpt lat="-12.1417850" lon="-76.6140970">
        <ele>2348.9</ele>
        <time>2021-05-30T15:29:54Z</time>
      </trkpt>
      <trkpt lat="-12.1418060" lon="-76.6140640">
        <ele>2348.7</ele>
        <time>2021-05-30T15:29:55Z</time>
      </trkpt>
      <trkpt lat="-12.1418260" lon="-76.6140310">
        <ele>2348.6</ele>
        <time>2021-05-30T15:29:57Z</time>
      </trkpt>
      <trkpt lat="-12.1418520" lon="-76.6139880">
        <ele>2348.4</ele>
        <time>2021-05-30T15:29:58Z</time>
      </trkpt>
      <trkpt lat="-12.1418830" lon="-76.6139410">
        <ele>2348.3</ele>
        <time>2021-05-30T15:29:59Z</time>
      </trkpt>
      <trkpt lat="-12.1419120" lon="-76.6138970">
        <ele>2348.2</ele>
        <time>2021-05-30T15:30:00Z</time>
      </trkpt>
      <trkpt lat="-12.1419420" lon="-76.6138560">
        <ele>2348.3</ele>
        <time>2021-05-30T15:30:01Z</time>
      </trkpt>
      <trkpt lat="-12.1419760" lon="-76.6138180">
        <ele>2348.4</ele>
        <time>2021-05-30T15:30:03Z</time>
      </trkpt>
      <trkpt lat="-12.1420280" lon="-76.6137650">
        <ele>2348.4</ele>
        <time>2021-05-30T15:30:04Z</time>
      </trkpt>
      <trkpt lat="-12.1420640" lon="-76.6137240">
        <ele>2348.3</ele>
        <time>2021-05-30T15:30:06Z</time>
      </trkpt>
      <trkpt lat="-12.1420880" lon="-76.6136940">
        <ele>2348.3</ele>
        <time>2021-05-30T15:30:07Z</time>
      </trkpt>
      <trkpt lat="-12.1421240" lon="-76.6136480">
        <ele>2348.3</ele>
        <time>2021-05-30T15:30:08Z</time>
      </trkpt>
      <trkpt lat="-12.1421490" lon="-76.6136150">
        <ele>2348.2</ele>
        <time>2021-05-30T15:30:10Z</time>
      </trkpt>
      <trkpt lat="-12.1421840" lon="-76.6135780">
        <ele>2348.3</ele>
        <time>2021-05-30T15:30:11Z</time>
      </trkpt>
      <trkpt lat="-12.1422010" lon="-76.6135610">
        <ele>2348.3</ele>
        <time>2021-05-30T15:30:12Z</time>
      </trkpt>
      <trkpt lat="-12.1422260" lon="-76.6135370">
        <ele>2348.3</ele>
        <time>2021-05-30T15:30:13Z</time>
      </trkpt>
      <trkpt lat="-12.1422690" lon="-76.6135030">
        <ele>2348.4</ele>
        <time>2021-05-30T15:30:15Z</time>
      </trkpt>
      <trkpt lat="-12.1423250" lon="-76.6134630">
        <ele>2348.6</ele>
        <time>2021-05-30T15:30:17Z</time>
      </trkpt>
      <trkpt lat="-12.1423580" lon="-76.6134390">
        <ele>2348.6</ele>
        <time>2021-05-30T15:30:18Z</time>
      </trkpt>
      <trkpt lat="-12.1423880" lon="-76.6134160">
        <ele>2348.6</ele>
        <time>2021-05-30T15:30:19Z</time>
      </trkpt>
      <trkpt lat="-12.1424230" lon="-76.6133890">
        <ele>2348.6</ele>
        <time>2021-05-30T15:30:20Z</time>
      </trkpt>
      <trkpt lat="-12.1424480" lon="-76.6133660">
        <ele>2348.5</ele>
        <time>2021-05-30T15:30:21Z</time>
      </trkpt>
      <trkpt lat="-12.1424860" lon="-76.6133300">
        <ele>2348.4</ele>
        <time>2021-05-30T15:30:23Z</time>
      </trkpt>
      <trkpt lat="-12.1425180" lon="-76.6132980">
        <ele>2348.3</ele>
        <time>2021-05-30T15:30:24Z</time>
      </trkpt>
      <trkpt lat="-12.1425420" lon="-76.6132640">
        <ele>2348.4</ele>
        <time>2021-05-30T15:30:26Z</time>
      </trkpt>
      <trkpt lat="-12.1425590" lon="-76.6132260">
        <ele>2348.5</ele>
        <time>2021-05-30T15:30:27Z</time>
      </trkpt>
      <trkpt lat="-12.1425640" lon="-76.6132100">
        <ele>2348.5</ele>
        <time>2021-05-30T15:30:28Z</time>
      </trkpt>
      <trkpt lat="-12.1425700" lon="-76.6131630">
        <ele>2348.7</ele>
        <time>2021-05-30T15:30:30Z</time>
      </trkpt>
      <trkpt lat="-12.1425740" lon="-76.6131140">
        <ele>2348.9</ele>
        <time>2021-05-30T15:30:31Z</time>
      </trkpt>
      <trkpt lat="-12.1425790" lon="-76.6130710">
        <ele>2349.0</ele>
        <time>2021-05-30T15:30:33Z</time>
      </trkpt>
      <trkpt lat="-12.1425870" lon="-76.6130300">
        <ele>2349.0</ele>
        <time>2021-05-30T15:30:34Z</time>
      </trkpt>
      <trkpt lat="-12.1425950" lon="-76.6129920">
        <ele>2349.1</ele>
        <time>2021-05-30T15:30:36Z</time>
      </trkpt>
      <trkpt lat="-12.1426050" lon="-76.6129570">
        <ele>2349.2</ele>
        <time>2021-05-30T15:30:37Z</time>
      </trkpt>
      <trkpt lat="-12.1426160" lon="-76.6129250">
        <ele>2349.2</ele>
        <time>2021-05-30T15:30:38Z</time>
      </trkpt>
      <trkpt lat="-12.1426480" lon="-76.6128870">
        <ele>2349.1</ele>
        <time>2021-05-30T15:30:40Z</time>
      </trkpt>
      <trkpt lat="-12.1426670" lon="-76.6128630">
        <ele>2349.1</ele>
        <time>2021-05-30T15:30:41Z</time>
      </trkpt>
      <trkpt lat="-12.1426910" lon="-76.6128180">
        <ele>2348.9</ele>
        <time>2021-05-30T15:30:43Z</time>
      </trkpt>
      <trkpt lat="-12.1426990" lon="-76.6127980">
        <ele>2348.9</ele>
        <time>2021-05-30T15:30:44Z</time>
      </trkpt>
      <trkpt lat="-12.1427060" lon="-76.6127770">
        <ele>2348.9</ele>
        <time>2021-05-30T15:30:45Z</time>
      </trkpt>
      <trkpt lat="-12.1427110" lon="-76.6127450">
        <ele>2348.9</ele>
        <time>2021-05-30T15:30:47Z</time>
      </trkpt>
      <trkpt lat="-12.1427160" lon="-76.6127100">
        <ele>2348.8</ele>
        <time>2021-05-30T15:30:48Z</time>
      </trkpt>
      <trkpt lat="-12.1427160" lon="-76.6126780">
        <ele>2348.8</ele>
        <time>2021-05-30T15:30:49Z</time>
      </trkpt>
      <trkpt lat="-12.1427070" lon="-76.6126280">
        <ele>2348.7</ele>
        <time>2021-05-30T15:30:51Z</time>
      </trkpt>
      <trkpt lat="-12.1426950" lon="-76.6125980">
        <ele>2348.7</ele>
        <time>2021-05-30T15:30:53Z</time>
      </trkpt>
      <trkpt lat="-12.1426910" lon="-76.6125890">
        <ele>2348.7</ele>
        <time>2021-05-30T15:30:54Z</time>
      </trkpt>
      <trkpt lat="-12.1426780" lon="-76.6125580">
        <ele>2348.6</ele>
        <time>2021-05-30T15:30:55Z</time>
      </trkpt>
      <trkpt lat="-12.1426710" lon="-76.6125460">
        <ele>2348.6</ele>
        <time>2021-05-30T15:30:56Z</time>
      </trkpt>
      <trkpt lat="-12.1426550" lon="-76.6125130">
        <ele>2348.5</ele>
        <time>2021-05-30T15:30:57Z</time>
      </trkpt>
      <trkpt lat="-12.1426390" lon="-76.6124840">
        <ele>2348.5</ele>
        <time>2021-05-30T15:30:58Z</time>
      </trkpt>
      <trkpt lat="-12.1426070" lon="-76.6124290">
        <ele>2348.4</ele>
        <time>2021-05-30T15:31:00Z</time>
      </trkpt>
      <trkpt lat="-12.1425930" lon="-76.6123990">
        <ele>2348.3</ele>
        <time>2021-05-30T15:31:01Z</time>
      </trkpt>
      <trkpt lat="-12.1425730" lon="-76.6123650">
        <ele>2348.3</ele>
        <time>2021-05-30T15:31:03Z</time>
      </trkpt>
      <trkpt lat="-12.1425540" lon="-76.6123340">
        <ele>2348.2</ele>
        <time>2021-05-30T15:31:04Z</time>
      </trkpt>
      <trkpt lat="-12.1425300" lon="-76.6122880">
        <ele>2348.2</ele>
        <time>2021-05-30T15:31:05Z</time>
      </trkpt>
      <trkpt lat="-12.1425060" lon="-76.6122420">
        <ele>2348.1</ele>
        <time>2021-05-30T15:31:07Z</time>
      </trkpt>
      <trkpt lat="-12.1424860" lon="-76.6122020">
        <ele>2348.0</ele>
        <time>2021-05-30T15:31:08Z</time>
      </trkpt>
      <trkpt lat="-12.1424710" lon="-76.6121670">
        <ele>2348.0</ele>
        <time>2021-05-30T15:31:09Z</time>
      </trkpt>
      <trkpt lat="-12.1424430" lon="-76.6121180">
        <ele>2347.9</ele>
        <time>2021-05-30T15:31:11Z</time>
      </trkpt>
      <trkpt lat="-12.1424170" lon="-76.6120780">
        <ele>2347.8</ele>
        <time>2021-05-30T15:31:12Z</time>
      </trkpt>
      <trkpt lat="-12.1423900" lon="-76.6120440">
        <ele>2347.7</ele>
        <time>2021-05-30T15:31:14Z</time>
      </trkpt>
      <trkpt lat="-12.1423710" lon="-76.6120190">
        <ele>2347.6</ele>
        <time>2021-05-30T15:31:15Z</time>
      </trkpt>
      <trkpt lat="-12.1423380" lon="-76.6119830">
        <ele>2347.5</ele>
        <time>2021-05-30T15:31:16Z</time>
      </trkpt>
      <trkpt lat="-12.1423090" lon="-76.6119560">
        <ele>2347.5</ele>
        <time>2021-05-30T15:31:17Z</time>
      </trkpt>
      <trkpt lat="-12.1422880" lon="-76.6119360">
        <ele>2347.4</ele>
        <time>2021-05-30T15:31:18Z</time>
      </trkpt>
      <trkpt lat="-12.1422630" lon="-76.6119060">
        <ele>2347.4</ele>
        <time>2021-05-30T15:31:20Z</time>
      </trkpt>
      <trkpt lat="-12.1422440" lon="-76.6118810">
        <ele>2347.4</ele>
        <time>2021-05-30T15:31:21Z</time>
      </trkpt>
      <trkpt lat="-12.1422110" lon="-76.6118660">
        <ele>2347.3</ele>
        <time>2021-05-30T15:31:22Z</time>
      </trkpt>
      <trkpt lat="-12.1421790" lon="-76.6118400">
        <ele>2347.2</ele>
        <time>2021-05-30T15:31:23Z</time>
      </trkpt>
      <trkpt lat="-12.1421640" lon="-76.6118020">
        <ele>2347.0</ele>
        <time>2021-05-30T15:31:24Z</time>
      </trkpt>
      <trkpt lat="-12.1421350" lon="-76.6117440">
        <ele>2346.8</ele>
        <time>2021-05-30T15:31:27Z</time>
      </trkpt>
      <trkpt lat="-12.1421210" lon="-76.6117070">
        <ele>2346.8</ele>
        <time>2021-05-30T15:31:28Z</time>
      </trkpt>
      <trkpt lat="-12.1421150" lon="-76.6116930">
        <ele>2346.7</ele>
        <time>2021-05-30T15:31:29Z</time>
      </trkpt>
      <trkpt lat="-12.1421020" lon="-76.6116460">
        <ele>2346.6</ele>
        <time>2021-05-30T15:31:31Z</time>
      </trkpt>
      <trkpt lat="-12.1420960" lon="-76.6116340">
        <ele>2346.6</ele>
        <time>2021-05-30T15:31:32Z</time>
      </trkpt>
      <trkpt lat="-12.1420890" lon="-76.6116230">
        <ele>2346.6</ele>
        <time>2021-05-30T15:31:33Z</time>
      </trkpt>
      <trkpt lat="-12.1420730" lon="-76.6116000">
        <ele>2346.5</ele>
        <time>2021-05-30T15:31:34Z</time>
      </trkpt>
      <trkpt lat="-12.1420570" lon="-76.6115760">
        <ele>2346.4</ele>
        <time>2021-05-30T15:31:35Z</time>
      </trkpt>
      <trkpt lat="-12.1420410" lon="-76.6115330">
        <ele>2346.4</ele>
        <time>2021-05-30T15:31:37Z</time>
      </trkpt>
      <trkpt lat="-12.1420380" lon="-76.6115180">
        <ele>2346.4</ele>
        <time>2021-05-30T15:31:38Z</time>
      </trkpt>
      <trkpt lat="-12.1420360" lon="-76.6115040">
        <ele>2346.4</ele>
        <time>2021-05-30T15:31:39Z</time>
      </trkpt>
      <trkpt lat="-12.1420240" lon="-76.6114710">
        <ele>2346.5</ele>
        <time>2021-05-30T15:31:40Z</time>
      </trkpt>
      <trkpt lat="-12.1420170" lon="-76.6114630">
        <ele>2346.5</ele>
        <time>2021-05-30T15:31:41Z</time>
      </trkpt>
      <trkpt lat="-12.1420030" lon="-76.6114480">
        <ele>2346.5</ele>
        <time>2021-05-30T15:31:42Z</time>
      </trkpt>
      <trkpt lat="-12.1419770" lon="-76.6114250">
        <ele>2346.6</ele>
        <time>2021-05-30T15:31:44Z</time>
      </trkpt>
      <trkpt lat="-12.1419560" lon="-76.6114030">
        <ele>2346.6</ele>
        <time>2021-05-30T15:31:45Z</time>
      </trkpt>
      <trkpt lat="-12.1419360" lon="-76.6113760">
        <ele>2346.7</ele>
        <time>2021-05-30T15:31:46Z</time>
      </trkpt>
      <trkpt lat="-12.1419190" lon="-76.6113500">
        <ele>2346.7</ele>
        <time>2021-05-30T15:31:47Z</time>
      </trkpt>
      <trkpt lat="-12.1418950" lon="-76.6113090">
        <ele>2346.7</ele>
        <time>2021-05-30T15:31:49Z</time>
      </trkpt>
      <trkpt lat="-12.1418760" lon="-76.6112770">
        <ele>2346.7</ele>
        <time>2021-05-30T15:31:50Z</time>
      </trkpt>
      <trkpt lat="-12.1418570" lon="-76.6112480">
        <ele>2346.6</ele>
        <time>2021-05-30T15:31:51Z</time>
      </trkpt>
      <trkpt lat="-12.1418390" lon="-76.6112270">
        <ele>2346.5</ele>
        <time>2021-05-30T15:31:52Z</time>
      </trkpt>
      <trkpt lat="-12.1418150" lon="-76.6112050">
        <ele>2346.4</ele>
        <time>2021-05-30T15:31:54Z</time>
      </trkpt>
      <trkpt lat="-12.1417920" lon="-76.6111870">
        <ele>2346.3</ele>
        <time>2021-05-30T15:31:55Z</time>
      </trkpt>
      <trkpt lat="-12.1417630" lon="-76.6111670">
        <ele>2346.2</ele>
        <time>2021-05-30T15:31:56Z</time>
      </trkpt>
      <trkpt lat="-12.1417170" lon="-76.6111350">
        <ele>2346.1</ele>
        <time>2021-05-30T15:31:57Z</time>
      </trkpt>
      <trkpt lat="-12.1416790" lon="-76.6111060">
        <ele>2345.9</ele>
        <time>2021-05-30T15:31:59Z</time>
      </trkpt>
      <trkpt lat="-12.1416470" lon="-76.6110830">
        <ele>2345.7</ele>
        <time>2021-05-30T15:32:00Z</time>
      </trkpt>
      <trkpt lat="-12.1416070" lon="-76.6110490">
        <ele>2345.4</ele>
        <time>2021-05-30T15:32:01Z</time>
      </trkpt>
      <trkpt lat="-12.1415770" lon="-76.6110100">
        <ele>2345.2</ele>
        <time>2021-05-30T15:32:02Z</time>
      </trkpt>
      <trkpt lat="-12.1415500" lon="-76.6109620">
        <ele>2344.9</ele>
        <time>2021-05-30T15:32:04Z</time>
      </trkpt>
      <trkpt lat="-12.1415320" lon="-76.6109150">
        <ele>2344.8</ele>
        <time>2021-05-30T15:32:05Z</time>
      </trkpt>
      <trkpt lat="-12.1415110" lon="-76.6108520">
        <ele>2344.7</ele>
        <time>2021-05-30T15:32:06Z</time>
      </trkpt>
      <trkpt lat="-12.1414960" lon="-76.6107990">
        <ele>2344.8</ele>
        <time>2021-05-30T15:32:08Z</time>
      </trkpt>
      <trkpt lat="-12.1414880" lon="-76.6107600">
        <ele>2344.9</ele>
        <time>2021-05-30T15:32:09Z</time>
      </trkpt>
      <trkpt lat="-12.1414830" lon="-76.6106850">
        <ele>2345.0</ele>
        <time>2021-05-30T15:32:11Z</time>
      </trkpt>
      <trkpt lat="-12.1414770" lon="-76.6106410">
        <ele>2345.0</ele>
        <time>2021-05-30T15:32:12Z</time>
      </trkpt>
      <trkpt lat="-12.1414730" lon="-76.6105940">
        <ele>2345.3</ele>
        <time>2021-05-30T15:32:13Z</time>
      </trkpt>
      <trkpt lat="-12.1414720" lon="-76.6105270">
        <ele>2345.6</ele>
        <time>2021-05-30T15:32:15Z</time>
      </trkpt>
      <trkpt lat="-12.1414750" lon="-76.6104800">
        <ele>2345.9</ele>
        <time>2021-05-30T15:32:16Z</time>
      </trkpt>
      <trkpt lat="-12.1414790" lon="-76.6104390">
        <ele>2346.1</ele>
        <time>2021-05-30T15:32:17Z</time>
      </trkpt>
      <trkpt lat="-12.1414850" lon="-76.6103830">
        <ele>2346.4</ele>
        <time>2021-05-30T15:32:18Z</time>
      </trkpt>
      <trkpt lat="-12.1414920" lon="-76.6103390">
        <ele>2346.6</ele>
        <time>2021-05-30T15:32:19Z</time>
      </trkpt>
      <trkpt lat="-12.1414940" lon="-76.6102960">
        <ele>2346.8</ele>
        <time>2021-05-30T15:32:21Z</time>
      </trkpt>
      <trkpt lat="-12.1414970" lon="-76.6102310">
        <ele>2347.2</ele>
        <time>2021-05-30T15:32:22Z</time>
      </trkpt>
      <trkpt lat="-12.1414950" lon="-76.6101920">
        <ele>2347.4</ele>
        <time>2021-05-30T15:32:23Z</time>
      </trkpt>
      <trkpt lat="-12.1414890" lon="-76.6101540">
        <ele>2347.6</ele>
        <time>2021-05-30T15:32:25Z</time>
      </trkpt>
      <trkpt lat="-12.1414850" lon="-76.6101160">
        <ele>2347.8</ele>
        <time>2021-05-30T15:32:26Z</time>
      </trkpt>
      <trkpt lat="-12.1414790" lon="-76.6100780">
        <ele>2348.0</ele>
        <time>2021-05-30T15:32:27Z</time>
      </trkpt>
      <trkpt lat="-12.1414690" lon="-76.6100390">
        <ele>2348.2</ele>
        <time>2021-05-30T15:32:28Z</time>
      </trkpt>
      <trkpt lat="-12.1414600" lon="-76.6100040">
        <ele>2348.4</ele>
        <time>2021-05-30T15:32:29Z</time>
      </trkpt>
      <trkpt lat="-12.1414400" lon="-76.6099640">
        <ele>2348.6</ele>
        <time>2021-05-30T15:32:31Z</time>
      </trkpt>
      <trkpt lat="-12.1414240" lon="-76.6099310">
        <ele>2348.8</ele>
        <time>2021-05-30T15:32:32Z</time>
      </trkpt>
      <trkpt lat="-12.1413990" lon="-76.6098830">
        <ele>2349.1</ele>
        <time>2021-05-30T15:32:34Z</time>
      </trkpt>
      <trkpt lat="-12.1413710" lon="-76.6098410">
        <ele>2349.4</ele>
        <time>2021-05-30T15:32:35Z</time>
      </trkpt>
      <trkpt lat="-12.1413420" lon="-76.6097920">
        <ele>2349.7</ele>
        <time>2021-05-30T15:32:36Z</time>
      </trkpt>
      <trkpt lat="-12.1413220" lon="-76.6097500">
        <ele>2349.9</ele>
        <time>2021-05-30T15:32:38Z</time>
      </trkpt>
      <trkpt lat="-12.1413060" lon="-76.6097060">
        <ele>2350.2</ele>
        <time>2021-05-30T15:32:39Z</time>
      </trkpt>
      <trkpt lat="-12.1412950" lon="-76.6096530">
        <ele>2350.4</ele>
        <time>2021-05-30T15:32:40Z</time>
      </trkpt>
      <trkpt lat="-12.1412880" lon="-76.6096140">
        <ele>2350.6</ele>
        <time>2021-05-30T15:32:41Z</time>
      </trkpt>
      <trkpt lat="-12.1412890" lon="-76.6095550">
        <ele>2350.9</ele>
        <time>2021-05-30T15:32:43Z</time>
      </trkpt>
      <trkpt lat="-12.1412950" lon="-76.6095120">
        <ele>2351.2</ele>
        <time>2021-05-30T15:32:44Z</time>
      </trkpt>
      <trkpt lat="-12.1413030" lon="-76.6094450">
        <ele>2351.5</ele>
        <time>2021-05-30T15:32:45Z</time>
      </trkpt>
      <trkpt lat="-12.1413120" lon="-76.6093910">
        <ele>2351.8</ele>
        <time>2021-05-30T15:32:47Z</time>
      </trkpt>
      <trkpt lat="-12.1413280" lon="-76.6093450">
        <ele>2352.1</ele>
        <time>2021-05-30T15:32:48Z</time>
      </trkpt>
      <trkpt lat="-12.1413470" lon="-76.6092900">
        <ele>2352.4</ele>
        <time>2021-05-30T15:32:49Z</time>
      </trkpt>
      <trkpt lat="-12.1413600" lon="-76.6092430">
        <ele>2352.6</ele>
        <time>2021-05-30T15:32:50Z</time>
      </trkpt>
      <trkpt lat="-12.1413750" lon="-76.6091900">
        <ele>2352.9</ele>
        <time>2021-05-30T15:32:51Z</time>
      </trkpt>
      <trkpt lat="-12.1413920" lon="-76.6091380">
        <ele>2353.2</ele>
        <time>2021-05-30T15:32:53Z</time>
      </trkpt>
      <trkpt lat="-12.1414060" lon="-76.6091000">
        <ele>2353.4</ele>
        <time>2021-05-30T15:32:54Z</time>
      </trkpt>
      <trkpt lat="-12.1414300" lon="-76.6090340">
        <ele>2353.8</ele>
        <time>2021-05-30T15:32:55Z</time>
      </trkpt>
      <trkpt lat="-12.1414390" lon="-76.6089780">
        <ele>2354.1</ele>
        <time>2021-05-30T15:32:57Z</time>
      </trkpt>
      <trkpt lat="-12.1414400" lon="-76.6089340">
        <ele>2354.3</ele>
        <time>2021-05-30T15:32:58Z</time>
      </trkpt>
      <trkpt lat="-12.1414360" lon="-76.6088880">
        <ele>2354.5</ele>
        <time>2021-05-30T15:32:59Z</time>
      </trkpt>
      <trkpt lat="-12.1414280" lon="-76.6088420">
        <ele>2354.8</ele>
        <time>2021-05-30T15:33:00Z</time>
      </trkpt>
      <trkpt lat="-12.1414120" lon="-76.6087860">
        <ele>2355.1</ele>
        <time>2021-05-30T15:33:01Z</time>
      </trkpt>
      <trkpt lat="-12.1413950" lon="-76.6087460">
        <ele>2355.3</ele>
        <time>2021-05-30T15:33:02Z</time>
      </trkpt>
      <trkpt lat="-12.1413720" lon="-76.6087010">
        <ele>2355.6</ele>
        <time>2021-05-30T15:33:04Z</time>
      </trkpt>
      <trkpt lat="-12.1413570" lon="-76.6086670">
        <ele>2355.8</ele>
        <time>2021-05-30T15:33:05Z</time>
      </trkpt>
      <trkpt lat="-12.1413440" lon="-76.6086130">
        <ele>2356.1</ele>
        <time>2021-05-30T15:33:07Z</time>
      </trkpt>
      <trkpt lat="-12.1413420" lon="-76.6085940">
        <ele>2356.2</ele>
        <time>2021-05-30T15:33:08Z</time>
      </trkpt>
      <trkpt lat="-12.1413400" lon="-76.6085740">
        <ele>2356.3</ele>
        <time>2021-05-30T15:33:09Z</time>
      </trkpt>
      <trkpt lat="-12.1413410" lon="-76.6085370">
        <ele>2356.5</ele>
        <time>2021-05-30T15:33:11Z</time>
      </trkpt>
      <trkpt lat="-12.1413450" lon="-76.6085010">
        <ele>2356.7</ele>
        <time>2021-05-30T15:33:12Z</time>
      </trkpt>
      <trkpt lat="-12.1413470" lon="-76.6084880">
        <ele>2356.7</ele>
        <time>2021-05-30T15:33:13Z</time>
      </trkpt>
      <trkpt lat="-12.1413580" lon="-76.6084490">
        <ele>2356.9</ele>
        <time>2021-05-30T15:33:14Z</time>
      </trkpt>
      <trkpt lat="-12.1413770" lon="-76.6084100">
        <ele>2357.2</ele>
        <time>2021-05-30T15:33:16Z</time>
      </trkpt>
      <trkpt lat="-12.1413830" lon="-76.6083980">
        <ele>2357.2</ele>
        <time>2021-05-30T15:33:17Z</time>
      </trkpt>
      <trkpt lat="-12.1413900" lon="-76.6083860">
        <ele>2357.3</ele>
        <time>2021-05-30T15:33:18Z</time>
      </trkpt>
      <trkpt lat="-12.1413990" lon="-76.6083680">
        <ele>2357.4</ele>
        <time>2021-05-30T15:33:19Z</time>
      </trkpt>
      <trkpt lat="-12.1414040" lon="-76.6083410">
        <ele>2357.5</ele>
        <time>2021-05-30T15:33:21Z</time>
      </trkpt>
      <trkpt lat="-12.1414120" lon="-76.6083190">
        <ele>2357.7</ele>
        <time>2021-05-30T15:33:22Z</time>
      </trkpt>
      <trkpt lat="-12.1414160" lon="-76.6083070">
        <ele>2357.7</ele>
        <time>2021-05-30T15:33:24Z</time>
      </trkpt>
      <trkpt lat="-12.1414240" lon="-76.6082830">
        <ele>2357.9</ele>
        <time>2021-05-30T15:33:26Z</time>
      </trkpt>
      <trkpt lat="-12.1414280" lon="-76.6082750">
        <ele>2357.9</ele>
        <time>2021-05-30T15:33:27Z</time>
      </trkpt>
      <trkpt lat="-12.1414320" lon="-76.6082710">
        <ele>2357.9</ele>
        <time>2021-05-30T15:33:28Z</time>
      </trkpt>
      <trkpt lat="-12.1414360" lon="-76.6082690">
        <ele>2358.0</ele>
        <time>2021-05-30T15:33:29Z</time>
      </trkpt>
      <trkpt lat="-12.1414380" lon="-76.6082650">
        <ele>2358.0</ele>
        <time>2021-05-30T15:33:31Z</time>
      </trkpt>
      <trkpt lat="-12.1414380" lon="-76.6082630">
        <ele>2358.0</ele>
        <time>2021-05-30T15:33:32Z</time>
      </trkpt>
      <trkpt lat="-12.1414360" lon="-76.6082580">
        <ele>2358.0</ele>
        <time>2021-05-30T15:33:33Z</time>
      </trkpt>
      <trkpt lat="-12.1414350" lon="-76.6082430">
        <ele>2358.1</ele>
        <time>2021-05-30T15:33:35Z</time>
      </trkpt>
      <trkpt lat="-12.1414350" lon="-76.6082340">
        <ele>2358.2</ele>
        <time>2021-05-30T15:33:36Z</time>
      </trkpt>
      <trkpt lat="-12.1414340" lon="-76.6082150">
        <ele>2358.3</ele>
        <time>2021-05-30T15:33:38Z</time>
      </trkpt>
      <trkpt lat="-12.1414370" lon="-76.6081970">
        <ele>2358.4</ele>
        <time>2021-05-30T15:33:39Z</time>
      </trkpt>
      <trkpt lat="-12.1414410" lon="-76.6081870">
        <ele>2358.4</ele>
        <time>2021-05-30T15:33:41Z</time>
      </trkpt>
      <trkpt lat="-12.1414480" lon="-76.6081810">
        <ele>2358.5</ele>
        <time>2021-05-30T15:33:43Z</time>
      </trkpt>
      <trkpt lat="-12.1414510" lon="-76.6081800">
        <ele>2358.5</ele>
        <time>2021-05-30T15:33:44Z</time>
      </trkpt>
      <trkpt lat="-12.1414540" lon="-76.6081710">
        <ele>2358.5</ele>
        <time>2021-05-30T15:33:46Z</time>
      </trkpt>
      <trkpt lat="-12.1414580" lon="-76.6081650">
        <ele>2358.6</ele>
        <time>2021-05-30T15:33:47Z</time>
      </trkpt>
      <trkpt lat="-12.1414630" lon="-76.6081580">
        <ele>2358.6</ele>
        <time>2021-05-30T15:33:48Z</time>
      </trkpt>
      <trkpt lat="-12.1414680" lon="-76.6081470">
        <ele>2358.7</ele>
        <time>2021-05-30T15:33:50Z</time>
      </trkpt>
      <trkpt lat="-12.1414730" lon="-76.6081330">
        <ele>2358.7</ele>
        <time>2021-05-30T15:33:52Z</time>
      </trkpt>
      <trkpt lat="-12.1414780" lon="-76.6081290">
        <ele>2358.8</ele>
        <time>2021-05-30T15:33:53Z</time>
      </trkpt>
      <trkpt lat="-12.1414810" lon="-76.6081250">
        <ele>2358.8</ele>
        <time>2021-05-30T15:33:54Z</time>
      </trkpt>
      <trkpt lat="-12.1414870" lon="-76.6081120">
        <ele>2358.9</ele>
        <time>2021-05-30T15:33:56Z</time>
      </trkpt>
      <trkpt lat="-12.1414900" lon="-76.6081070">
        <ele>2358.9</ele>
        <time>2021-05-30T15:33:57Z</time>
      </trkpt>
      <trkpt lat="-12.1414930" lon="-76.6081020">
        <ele>2358.9</ele>
        <time>2021-05-30T15:33:58Z</time>
      </trkpt>
      <trkpt lat="-12.1414930" lon="-76.6080960">
        <ele>2359.0</ele>
        <time>2021-05-30T15:34:00Z</time>
      </trkpt>
      <trkpt lat="-12.1414910" lon="-76.6080930">
        <ele>2359.0</ele>
        <time>2021-05-30T15:34:01Z</time>
      </trkpt>
      <trkpt lat="-12.1414910" lon="-76.6080890">
        <ele>2359.0</ele>
        <time>2021-05-30T15:34:03Z</time>
      </trkpt>
      <trkpt lat="-12.1414920" lon="-76.6080850">
        <ele>2359.0</ele>
        <time>2021-05-30T15:34:04Z</time>
      </trkpt>
      <trkpt lat="-12.1414870" lon="-76.6080820">
        <ele>2359.1</ele>
        <time>2021-05-30T15:34:06Z</time>
      </trkpt>
      <trkpt lat="-12.1414860" lon="-76.6080820">
        <ele>2359.1</ele>
        <time>2021-05-30T15:34:08Z</time>
      </trkpt>
      <trkpt lat="-12.1414910" lon="-76.6080840">
        <ele>2359.1</ele>
        <time>2021-05-30T15:34:10Z</time>
      </trkpt>
      <trkpt lat="-12.1414970" lon="-76.6080860">
        <ele>2359.1</ele>
        <time>2021-05-30T15:34:12Z</time>
      </trkpt>
      <trkpt lat="-12.1415000" lon="-76.6080870">
        <ele>2359.2</ele>
        <time>2021-05-30T15:34:14Z</time>
      </trkpt>
      <trkpt lat="-12.1415040" lon="-76.6080880">
        <ele>2359.2</ele>
        <time>2021-05-30T15:34:16Z</time>
      </trkpt>
      <trkpt lat="-12.1413810" lon="-76.6079430">
        <ele>2360.2</ele>
        <time>2021-05-30T15:37:14Z</time>
      </trkpt>
      <trkpt lat="-12.1414050" lon="-76.6079110">
        <ele>2360.4</ele>
        <time>2021-05-30T15:37:16Z</time>
      </trkpt>
      <trkpt lat="-12.1414320" lon="-76.6078710">
        <ele>2360.6</ele>
        <time>2021-05-30T15:37:18Z</time>
      </trkpt>
      <trkpt lat="-12.1414670" lon="-76.6078180">
        <ele>2361.0</ele>
        <time>2021-05-30T15:37:20Z</time>
      </trkpt>
      <trkpt lat="-12.1414970" lon="-76.6077690">
        <ele>2361.3</ele>
        <time>2021-05-30T15:37:22Z</time>
      </trkpt>
      <trkpt lat="-12.1415280" lon="-76.6077190">
        <ele>2361.6</ele>
        <time>2021-05-30T15:37:24Z</time>
      </trkpt>
      <trkpt lat="-12.1415490" lon="-76.6077010">
        <ele>2361.7</ele>
        <time>2021-05-30T15:37:26Z</time>
      </trkpt>
      <trkpt lat="-12.1415740" lon="-76.6076690">
        <ele>2361.9</ele>
        <time>2021-05-30T15:37:27Z</time>
      </trkpt>
      <trkpt lat="-12.1415870" lon="-76.6076320">
        <ele>2362.1</ele>
        <time>2021-05-30T15:37:28Z</time>
      </trkpt>
      <trkpt lat="-12.1415940" lon="-76.6076040">
        <ele>2362.3</ele>
        <time>2021-05-30T15:37:29Z</time>
      </trkpt>
      <trkpt lat="-12.1416010" lon="-76.6075600">
        <ele>2362.5</ele>
        <time>2021-05-30T15:37:31Z</time>
      </trkpt>
      <trkpt lat="-12.1416070" lon="-76.6075320">
        <ele>2362.7</ele>
        <time>2021-05-30T15:37:33Z</time>
      </trkpt>
      <trkpt lat="-12.1416140" lon="-76.6075090">
        <ele>2362.8</ele>
        <time>2021-05-30T15:37:34Z</time>
      </trkpt>
      <trkpt lat="-12.1416150" lon="-76.6074970">
        <ele>2362.9</ele>
        <time>2021-05-30T15:37:35Z</time>
      </trkpt>
      <trkpt lat="-12.1416170" lon="-76.6074800">
        <ele>2363.0</ele>
        <time>2021-05-30T15:37:37Z</time>
      </trkpt>
      <trkpt lat="-12.1416170" lon="-76.6074640">
        <ele>2363.0</ele>
        <time>2021-05-30T15:37:38Z</time>
      </trkpt>
      <trkpt lat="-12.1416170" lon="-76.6074390">
        <ele>2363.2</ele>
        <time>2021-05-30T15:37:40Z</time>
      </trkpt>
      <trkpt lat="-12.1416140" lon="-76.6074280">
        <ele>2363.2</ele>
        <time>2021-05-30T15:37:41Z</time>
      </trkpt>
      <trkpt lat="-12.1416070" lon="-76.6074140">
        <ele>2363.3</ele>
        <time>2021-05-30T15:37:42Z</time>
      </trkpt>
      <trkpt lat="-12.1416030" lon="-76.6074010">
        <ele>2363.4</ele>
        <time>2021-05-30T15:37:43Z</time>
      </trkpt>
      <trkpt lat="-12.1416000" lon="-76.6073890">
        <ele>2363.4</ele>
        <time>2021-05-30T15:37:44Z</time>
      </trkpt>
      <trkpt lat="-12.1415960" lon="-76.6073800">
        <ele>2363.5</ele>
        <time>2021-05-30T15:37:45Z</time>
      </trkpt>
      <trkpt lat="-12.1415950" lon="-76.6073720">
        <ele>2363.5</ele>
        <time>2021-05-30T15:37:46Z</time>
      </trkpt>
      <trkpt lat="-12.1416010" lon="-76.6073540">
        <ele>2363.6</ele>
        <time>2021-05-30T15:37:48Z</time>
      </trkpt>
      <trkpt lat="-12.1416090" lon="-76.6073370">
        <ele>2363.7</ele>
        <time>2021-05-30T15:37:49Z</time>
      </trkpt>
      <trkpt lat="-12.1416140" lon="-76.6073120">
        <ele>2363.9</ele>
        <time>2021-05-30T15:37:50Z</time>
      </trkpt>
      <trkpt lat="-12.1416150" lon="-76.6072920">
        <ele>2363.8</ele>
        <time>2021-05-30T15:37:52Z</time>
      </trkpt>
      <trkpt lat="-12.1416250" lon="-76.6072650">
        <ele>2363.7</ele>
        <time>2021-05-30T15:37:53Z</time>
      </trkpt>
      <trkpt lat="-12.1416290" lon="-76.6072550">
        <ele>2363.6</ele>
        <time>2021-05-30T15:37:54Z</time>
      </trkpt>
      <trkpt lat="-12.1416370" lon="-76.6072360">
        <ele>2363.5</ele>
        <time>2021-05-30T15:37:56Z</time>
      </trkpt>
      <trkpt lat="-12.1416460" lon="-76.6072140">
        <ele>2363.4</ele>
        <time>2021-05-30T15:37:58Z</time>
      </trkpt>
      <trkpt lat="-12.1416470" lon="-76.6072070">
        <ele>2363.4</ele>
        <time>2021-05-30T15:37:59Z</time>
      </trkpt>
      <trkpt lat="-12.1416460" lon="-76.6072150">
        <ele>2363.3</ele>
        <time>2021-05-30T15:38:01Z</time>
      </trkpt>
      <trkpt lat="-12.1416470" lon="-76.6072150">
        <ele>2363.3</ele>
        <time>2021-05-30T15:38:02Z</time>
      </trkpt>
      <trkpt lat="-12.1416480" lon="-76.6072130">
        <ele>2363.3</ele>
        <time>2021-05-30T15:38:04Z</time>
      </trkpt>
      <trkpt lat="-12.1416490" lon="-76.6072110">
        <ele>2363.3</ele>
        <time>2021-05-30T15:38:05Z</time>
      </trkpt>
      <trkpt lat="-12.1416510" lon="-76.6072090">
        <ele>2363.3</ele>
        <time>2021-05-30T15:38:07Z</time>
      </trkpt>
      <trkpt lat="-12.1416520" lon="-76.6072070">
        <ele>2363.3</ele>
        <time>2021-05-30T15:38:09Z</time>
      </trkpt>
      <trkpt lat="-12.1416530" lon="-76.6072060">
        <ele>2363.3</ele>
        <time>2021-05-30T15:38:10Z</time>
      </trkpt>
      <trkpt lat="-12.1416530" lon="-76.6072050">
        <ele>2363.3</ele>
        <time>2021-05-30T15:38:12Z</time>
      </trkpt>
      <trkpt lat="-12.1416570" lon="-76.6072440">
        <ele>2363.1</ele>
        <time>2021-05-30T15:39:17Z</time>
      </trkpt>
      <trkpt lat="-12.1416630" lon="-76.6072630">
        <ele>2363.0</ele>
        <time>2021-05-30T15:39:19Z</time>
      </trkpt>
      <trkpt lat="-12.1416670" lon="-76.6072780">
        <ele>2362.9</ele>
        <time>2021-05-30T15:39:20Z</time>
      </trkpt>
      <trkpt lat="-12.1416680" lon="-76.6072990">
        <ele>2362.8</ele>
        <time>2021-05-30T15:39:21Z</time>
      </trkpt>
      <trkpt lat="-12.1416690" lon="-76.6073220">
        <ele>2362.7</ele>
        <time>2021-05-30T15:39:23Z</time>
      </trkpt>
      <trkpt lat="-12.1416680" lon="-76.6073350">
        <ele>2362.6</ele>
        <time>2021-05-30T15:39:24Z</time>
      </trkpt>
      <trkpt lat="-12.1416590" lon="-76.6073620">
        <ele>2362.5</ele>
        <time>2021-05-30T15:39:26Z</time>
      </trkpt>
      <trkpt lat="-12.1416530" lon="-76.6073770">
        <ele>2362.4</ele>
        <time>2021-05-30T15:39:27Z</time>
      </trkpt>
      <trkpt lat="-12.1416460" lon="-76.6073960">
        <ele>2362.3</ele>
        <time>2021-05-30T15:39:28Z</time>
      </trkpt>
      <trkpt lat="-12.1416390" lon="-76.6074330">
        <ele>2362.1</ele>
        <time>2021-05-30T15:39:30Z</time>
      </trkpt>
      <trkpt lat="-12.1416360" lon="-76.6074430">
        <ele>2362.1</ele>
        <time>2021-05-30T15:39:31Z</time>
      </trkpt>
      <trkpt lat="-12.1416270" lon="-76.6074650">
        <ele>2362.0</ele>
        <time>2021-05-30T15:39:32Z</time>
      </trkpt>
      <trkpt lat="-12.1416170" lon="-76.6074920">
        <ele>2361.8</ele>
        <time>2021-05-30T15:39:34Z</time>
      </trkpt>
      <trkpt lat="-12.1416110" lon="-76.6075090">
        <ele>2361.7</ele>
        <time>2021-05-30T15:39:35Z</time>
      </trkpt>
      <trkpt lat="-12.1415990" lon="-76.6075390">
        <ele>2361.6</ele>
        <time>2021-05-30T15:39:37Z</time>
      </trkpt>
      <trkpt lat="-12.1415920" lon="-76.6075530">
        <ele>2361.5</ele>
        <time>2021-05-30T15:39:38Z</time>
      </trkpt>
      <trkpt lat="-12.1415770" lon="-76.6075830">
        <ele>2361.3</ele>
        <time>2021-05-30T15:39:40Z</time>
      </trkpt>
      <trkpt lat="-12.1415650" lon="-76.6076070">
        <ele>2361.2</ele>
        <time>2021-05-30T15:39:41Z</time>
      </trkpt>
      <trkpt lat="-12.1415520" lon="-76.6076350">
        <ele>2361.1</ele>
        <time>2021-05-30T15:39:43Z</time>
      </trkpt>
      <trkpt lat="-12.1415400" lon="-76.6076720">
        <ele>2360.9</ele>
        <time>2021-05-30T15:39:45Z</time>
      </trkpt>
      <trkpt lat="-12.1415360" lon="-76.6076840">
        <ele>2360.8</ele>
        <time>2021-05-30T15:39:46Z</time>
      </trkpt>
      <trkpt lat="-12.1415290" lon="-76.6077080">
        <ele>2360.7</ele>
        <time>2021-05-30T15:39:48Z</time>
      </trkpt>
      <trkpt lat="-12.1415230" lon="-76.6077340">
        <ele>2360.6</ele>
        <time>2021-05-30T15:39:50Z</time>
      </trkpt>
      <trkpt lat="-12.1415230" lon="-76.6077450">
        <ele>2360.5</ele>
        <time>2021-05-30T15:39:51Z</time>
      </trkpt>
      <trkpt lat="-12.1415210" lon="-76.6077560">
        <ele>2360.4</ele>
        <time>2021-05-30T15:39:52Z</time>
      </trkpt>
      <trkpt lat="-12.1415190" lon="-76.6077670">
        <ele>2360.4</ele>
        <time>2021-05-30T15:39:53Z</time>
      </trkpt>
      <trkpt lat="-12.1415140" lon="-76.6078010">
        <ele>2360.2</ele>
        <time>2021-05-30T15:39:55Z</time>
      </trkpt>
      <trkpt lat="-12.1415120" lon="-76.6078150">
        <ele>2360.2</ele>
        <time>2021-05-30T15:39:56Z</time>
      </trkpt>
      <trkpt lat="-12.1415100" lon="-76.6078470">
        <ele>2360.0</ele>
        <time>2021-05-30T15:39:58Z</time>
      </trkpt>
      <trkpt lat="-12.1415100" lon="-76.6078560">
        <ele>2360.0</ele>
        <time>2021-05-30T15:39:59Z</time>
      </trkpt>
      <trkpt lat="-12.1415110" lon="-76.6078870">
        <ele>2359.8</ele>
        <time>2021-05-30T15:40:01Z</time>
      </trkpt>
      <trkpt lat="-12.1415140" lon="-76.6079240">
        <ele>2359.6</ele>
        <time>2021-05-30T15:40:03Z</time>
      </trkpt>
      <trkpt lat="-12.1415160" lon="-76.6079400">
        <ele>2359.5</ele>
        <time>2021-05-30T15:40:04Z</time>
      </trkpt>
      <trkpt lat="-12.1415170" lon="-76.6079680">
        <ele>2359.4</ele>
        <time>2021-05-30T15:40:06Z</time>
      </trkpt>
      <trkpt lat="-12.1415120" lon="-76.6080030">
        <ele>2359.2</ele>
        <time>2021-05-30T15:40:08Z</time>
      </trkpt>
      <trkpt lat="-12.1415120" lon="-76.6080120">
        <ele>2359.2</ele>
        <time>2021-05-30T15:40:09Z</time>
      </trkpt>
      <trkpt lat="-12.1415150" lon="-76.6080260">
        <ele>2359.1</ele>
        <time>2021-05-30T15:40:10Z</time>
      </trkpt>
      <trkpt lat="-12.1415170" lon="-76.6080400">
        <ele>2359.1</ele>
        <time>2021-05-30T15:40:11Z</time>
      </trkpt>
      <trkpt lat="-12.1415200" lon="-76.6080540">
        <ele>2359.0</ele>
        <time>2021-05-30T15:40:12Z</time>
      </trkpt>
      <trkpt lat="-12.1415240" lon="-76.6080660">
        <ele>2358.9</ele>
        <time>2021-05-30T15:40:14Z</time>
      </trkpt>
      <trkpt lat="-12.1415280" lon="-76.6080750">
        <ele>2358.9</ele>
        <time>2021-05-30T15:40:16Z</time>
      </trkpt>
      <trkpt lat="-12.1415290" lon="-76.6080820">
        <ele>2358.8</ele>
        <time>2021-05-30T15:40:17Z</time>
      </trkpt>
      <trkpt lat="-12.1415270" lon="-76.6080760">
        <ele>2358.8</ele>
        <time>2021-05-30T15:40:19Z</time>
      </trkpt>
      <trkpt lat="-12.1415240" lon="-76.6080730">
        <ele>2358.8</ele>
        <time>2021-05-30T15:40:20Z</time>
      </trkpt>
      <trkpt lat="-12.1415240" lon="-76.6080780">
        <ele>2358.8</ele>
        <time>2021-05-30T15:40:21Z</time>
      </trkpt>
      <trkpt lat="-12.1415250" lon="-76.6080890">
        <ele>2358.7</ele>
        <time>2021-05-30T15:40:22Z</time>
      </trkpt>
      <trkpt lat="-12.1415350" lon="-76.6081010">
        <ele>2358.6</ele>
        <time>2021-05-30T15:40:24Z</time>
      </trkpt>
      <trkpt lat="-12.1415210" lon="-76.6081070">
        <ele>2358.6</ele>
        <time>2021-05-30T15:40:25Z</time>
      </trkpt>
      <trkpt lat="-12.1415080" lon="-76.6081190">
        <ele>2358.5</ele>
        <time>2021-05-30T15:40:27Z</time>
      </trkpt>
      <trkpt lat="-12.1415020" lon="-76.6081250">
        <ele>2358.4</ele>
        <time>2021-05-30T15:40:29Z</time>
      </trkpt>
      <trkpt lat="-12.1414970" lon="-76.6081320">
        <ele>2358.4</ele>
        <time>2021-05-30T15:40:31Z</time>
      </trkpt>
      <trkpt lat="-12.1414910" lon="-76.6081380">
        <ele>2358.4</ele>
        <time>2021-05-30T15:40:33Z</time>
      </trkpt>
      <trkpt lat="-12.1414860" lon="-76.6081440">
        <ele>2358.3</ele>
        <time>2021-05-30T15:40:35Z</time>
      </trkpt>
      <trkpt lat="-12.1414800" lon="-76.6081500">
        <ele>2358.3</ele>
        <time>2021-05-30T15:40:37Z</time>
      </trkpt>
      <trkpt lat="-12.1414750" lon="-76.6081560">
        <ele>2358.2</ele>
        <time>2021-05-30T15:40:38Z</time>
      </trkpt>
      <trkpt lat="-12.1414690" lon="-76.6081620">
        <ele>2358.2</ele>
        <time>2021-05-30T15:40:40Z</time>
      </trkpt>
      <trkpt lat="-12.1414640" lon="-76.6081690">
        <ele>2358.2</ele>
        <time>2021-05-30T15:40:48Z</time>
      </trkpt>
      <trkpt lat="-12.1414580" lon="-76.6081750">
        <ele>2358.1</ele>
        <time>2021-05-30T15:40:49Z</time>
      </trkpt>
      <trkpt lat="-12.1414530" lon="-76.6081810">
        <ele>2358.1</ele>
        <time>2021-05-30T15:40:50Z</time>
      </trkpt>
      <trkpt lat="-12.1414340" lon="-76.6082100">
        <ele>2357.9</ele>
        <time>2021-05-30T15:40:51Z</time>
      </trkpt>
      <trkpt lat="-12.1414260" lon="-76.6082270">
        <ele>2357.8</ele>
        <time>2021-05-30T15:40:53Z</time>
      </trkpt>
      <trkpt lat="-12.1414230" lon="-76.6082410">
        <ele>2357.7</ele>
        <time>2021-05-30T15:40:54Z</time>
      </trkpt>
      <trkpt lat="-12.1414280" lon="-76.6082600">
        <ele>2357.6</ele>
        <time>2021-05-30T15:40:56Z</time>
      </trkpt>
      <trkpt lat="-12.1414310" lon="-76.6082630">
        <ele>2357.6</ele>
        <time>2021-05-30T15:40:57Z</time>
      </trkpt>
      <trkpt lat="-12.1414320" lon="-76.6082630">
        <ele>2357.6</ele>
        <time>2021-05-30T15:40:59Z</time>
      </trkpt>
      <trkpt lat="-12.1414320" lon="-76.6082610">
        <ele>2357.6</ele>
        <time>2021-05-30T15:41:00Z</time>
      </trkpt>
      <trkpt lat="-12.1414310" lon="-76.6082610">
        <ele>2357.6</ele>
        <time>2021-05-30T15:41:01Z</time>
      </trkpt>
      <trkpt lat="-12.1414290" lon="-76.6082600">
        <ele>2357.6</ele>
        <time>2021-05-30T15:41:03Z</time>
      </trkpt>
      <trkpt lat="-12.1414280" lon="-76.6082600">
        <ele>2357.6</ele>
        <time>2021-05-30T15:41:04Z</time>
      </trkpt>
      <trkpt lat="-12.1414100" lon="-76.6082560">
        <ele>2357.5</ele>
        <time>2021-05-30T15:45:09Z</time>
      </trkpt>
      <trkpt lat="-12.1414110" lon="-76.6082550">
        <ele>2357.5</ele>
        <time>2021-05-30T15:45:11Z</time>
      </trkpt>
      <trkpt lat="-12.1414120" lon="-76.6082550">
        <ele>2357.5</ele>
        <time>2021-05-30T15:45:13Z</time>
      </trkpt>
      <trkpt lat="-12.1414130" lon="-76.6082540">
        <ele>2357.5</ele>
        <time>2021-05-30T15:45:15Z</time>
      </trkpt>
      <trkpt lat="-12.1414130" lon="-76.6082540">
        <ele>2357.5</ele>
        <time>2021-05-30T15:45:16Z</time>
      </trkpt>
      <trkpt lat="-12.1414130" lon="-76.6082540">
        <ele>2357.5</ele>
        <time>2021-05-30T15:45:17Z</time>
      </trkpt>
      <trkpt lat="-12.1414130" lon="-76.6082540">
        <ele>2357.5</ele>
        <time>2021-05-30T15:45:18Z</time>
      </trkpt>
      <trkpt lat="-12.1414150" lon="-76.6082580">
        <ele>2357.5</ele>
        <time>2021-05-30T15:45:20Z</time>
      </trkpt>
      <trkpt lat="-12.1414160" lon="-76.6082610">
        <ele>2357.4</ele>
        <time>2021-05-30T15:45:33Z</time>
      </trkpt>
      <trkpt lat="-12.1414160" lon="-76.6082610">
        <ele>2357.4</ele>
        <time>2021-05-30T15:45:35Z</time>
      </trkpt>
      <trkpt lat="-12.1414160" lon="-76.6082610">
        <ele>2357.4</ele>
        <time>2021-05-30T15:45:37Z</time>
      </trkpt>
      <trkpt lat="-12.1414160" lon="-76.6082610">
        <ele>2357.4</ele>
        <time>2021-05-30T15:45:38Z</time>
      </trkpt>
      <trkpt lat="-12.1414160" lon="-76.6082610">
        <ele>2357.4</ele>
        <time>2021-05-30T15:45:39Z</time>
      </trkpt>
      <trkpt lat="-12.1414160" lon="-76.6082610">
        <ele>2357.4</ele>
        <time>2021-05-30T15:45:41Z</time>
      </trkpt>
      <trkpt lat="-12.1414160" lon="-76.6082610">
        <ele>2357.4</ele>
        <time>2021-05-30T15:45:42Z</time>
      </trkpt>
      <trkpt lat="-12.1414290" lon="-76.6083430">
        <ele>2357.0</ele>
        <time>2021-05-30T15:46:40Z</time>
      </trkpt>
      <trkpt lat="-12.1414220" lon="-76.6083770">
        <ele>2356.9</ele>
        <time>2021-05-30T15:46:41Z</time>
      </trkpt>
      <trkpt lat="-12.1413990" lon="-76.6084420">
        <ele>2356.5</ele>
        <time>2021-05-30T15:46:43Z</time>
      </trkpt>
      <trkpt lat="-12.1413800" lon="-76.6084970">
        <ele>2356.3</ele>
        <time>2021-05-30T15:46:44Z</time>
      </trkpt>
      <trkpt lat="-12.1413720" lon="-76.6085340">
        <ele>2356.1</ele>
        <time>2021-05-30T15:46:45Z</time>
      </trkpt>
      <trkpt lat="-12.1413670" lon="-76.6085680">
        <ele>2355.9</ele>
        <time>2021-05-30T15:46:47Z</time>
      </trkpt>
      <trkpt lat="-12.1413640" lon="-76.6086200">
        <ele>2355.7</ele>
        <time>2021-05-30T15:46:48Z</time>
      </trkpt>
      <trkpt lat="-12.1413650" lon="-76.6086670">
        <ele>2355.4</ele>
        <time>2021-05-30T15:46:49Z</time>
      </trkpt>
      <trkpt lat="-12.1413680" lon="-76.6087160">
        <ele>2355.2</ele>
        <time>2021-05-30T15:46:50Z</time>
      </trkpt>
      <trkpt lat="-12.1413750" lon="-76.6087660">
        <ele>2354.9</ele>
        <time>2021-05-30T15:46:52Z</time>
      </trkpt>
      <trkpt lat="-12.1413880" lon="-76.6088140">
        <ele>2354.7</ele>
        <time>2021-05-30T15:46:53Z</time>
      </trkpt>
      <trkpt lat="-12.1414020" lon="-76.6088780">
        <ele>2354.4</ele>
        <time>2021-05-30T15:46:54Z</time>
      </trkpt>
      <trkpt lat="-12.1414100" lon="-76.6089230">
        <ele>2354.2</ele>
        <time>2021-05-30T15:46:55Z</time>
      </trkpt>
      <trkpt lat="-12.1414130" lon="-76.6089740">
        <ele>2353.9</ele>
        <time>2021-05-30T15:46:56Z</time>
      </trkpt>
      <trkpt lat="-12.1414090" lon="-76.6090250">
        <ele>2353.7</ele>
        <time>2021-05-30T15:46:58Z</time>
      </trkpt>
      <trkpt lat="-12.1414050" lon="-76.6090740">
        <ele>2353.4</ele>
        <time>2021-05-30T15:46:59Z</time>
      </trkpt>
      <trkpt lat="-12.1414010" lon="-76.6091330">
        <ele>2353.1</ele>
        <time>2021-05-30T15:47:00Z</time>
      </trkpt>
      <trkpt lat="-12.1413910" lon="-76.6091860">
        <ele>2352.9</ele>
        <time>2021-05-30T15:47:01Z</time>
      </trkpt>
      <trkpt lat="-12.1413770" lon="-76.6092550">
        <ele>2352.5</ele>
        <time>2021-05-30T15:47:02Z</time>
      </trkpt>
      <trkpt lat="-12.1413640" lon="-76.6093120">
        <ele>2352.3</ele>
        <time>2021-05-30T15:47:03Z</time>
      </trkpt>
      <trkpt lat="-12.1413660" lon="-76.6094120">
        <ele>2351.8</ele>
        <time>2021-05-30T15:47:05Z</time>
      </trkpt>
      <trkpt lat="-12.1413670" lon="-76.6094810">
        <ele>2351.4</ele>
        <time>2021-05-30T15:47:06Z</time>
      </trkpt>
      <trkpt lat="-12.1413660" lon="-76.6095470">
        <ele>2351.1</ele>
        <time>2021-05-30T15:47:07Z</time>
      </trkpt>
      <trkpt lat="-12.1413540" lon="-76.6096570">
        <ele>2350.6</ele>
        <time>2021-05-30T15:47:09Z</time>
      </trkpt>
      <trkpt lat="-12.1413430" lon="-76.6097280">
        <ele>2350.2</ele>
        <time>2021-05-30T15:47:10Z</time>
      </trkpt>
      <trkpt lat="-12.1413390" lon="-76.6097280">
        <ele>2350.2</ele>
        <time>2021-05-30T15:47:11Z</time>
      </trkpt>
      <trkpt lat="-12.1413710" lon="-76.6098260">
        <ele>2349.7</ele>
        <time>2021-05-30T15:47:13Z</time>
      </trkpt>
      <trkpt lat="-12.1413830" lon="-76.6098730">
        <ele>2349.5</ele>
        <time>2021-05-30T15:47:14Z</time>
      </trkpt>
      <trkpt lat="-12.1414120" lon="-76.6099370">
        <ele>2349.1</ele>
        <time>2021-05-30T15:47:15Z</time>
      </trkpt>
      <trkpt lat="-12.1414230" lon="-76.6099790">
        <ele>2348.9</ele>
        <time>2021-05-30T15:47:16Z</time>
      </trkpt>
      <trkpt lat="-12.1414520" lon="-76.6100490">
        <ele>2348.6</ele>
        <time>2021-05-30T15:47:18Z</time>
      </trkpt>
      <trkpt lat="-12.1414700" lon="-76.6100880">
        <ele>2348.3</ele>
        <time>2021-05-30T15:47:19Z</time>
      </trkpt>
      <trkpt lat="-12.1414910" lon="-76.6101510">
        <ele>2348.0</ele>
        <time>2021-05-30T15:47:20Z</time>
      </trkpt>
      <trkpt lat="-12.1415050" lon="-76.6102120">
        <ele>2347.7</ele>
        <time>2021-05-30T15:47:23Z</time>
      </trkpt>
      <trkpt lat="-12.1414990" lon="-76.6102270">
        <ele>2347.6</ele>
        <time>2021-05-30T15:47:25Z</time>
      </trkpt>
      <trkpt lat="-12.1414970" lon="-76.6102230">
        <ele>2347.6</ele>
        <time>2021-05-30T15:47:26Z</time>
      </trkpt>
      <trkpt lat="-12.1414930" lon="-76.6102110">
        <ele>2347.6</ele>
        <time>2021-05-30T15:47:27Z</time>
      </trkpt>
      <trkpt lat="-12.1414940" lon="-76.6101960">
        <ele>2347.5</ele>
        <time>2021-05-30T15:47:29Z</time>
      </trkpt>
      <trkpt lat="-12.1414970" lon="-76.6101860">
        <ele>2347.4</ele>
        <time>2021-05-30T15:47:31Z</time>
      </trkpt>
      <trkpt lat="-12.1414970" lon="-76.6101820">
        <ele>2347.4</ele>
        <time>2021-05-30T15:47:32Z</time>
      </trkpt>
      <trkpt lat="-12.1414970" lon="-76.6101790">
        <ele>2347.4</ele>
        <time>2021-05-30T15:47:33Z</time>
      </trkpt>
      <trkpt lat="-12.1414970" lon="-76.6101780">
        <ele>2347.4</ele>
        <time>2021-05-30T15:47:34Z</time>
      </trkpt>
      <trkpt lat="-12.1414970" lon="-76.6101750">
        <ele>2347.4</ele>
        <time>2021-05-30T15:47:36Z</time>
      </trkpt>
      <trkpt lat="-12.1414970" lon="-76.6101750">
        <ele>2347.4</ele>
        <time>2021-05-30T15:47:37Z</time>
      </trkpt>
      <trkpt lat="-12.1414960" lon="-76.6101750">
        <ele>2347.4</ele>
        <time>2021-05-30T15:47:39Z</time>
      </trkpt>
      <trkpt lat="-12.1414760" lon="-76.6102210">
        <ele>2347.1</ele>
        <time>2021-05-30T15:47:47Z</time>
      </trkpt>
      <trkpt lat="-12.1414740" lon="-76.6102560">
        <ele>2347.0</ele>
        <time>2021-05-30T15:47:48Z</time>
      </trkpt>
      <trkpt lat="-12.1414730" lon="-76.6103070">
        <ele>2346.7</ele>
        <time>2021-05-30T15:47:49Z</time>
      </trkpt>
      <trkpt lat="-12.1414730" lon="-76.6103540">
        <ele>2346.5</ele>
        <time>2021-05-30T15:47:50Z</time>
      </trkpt>
      <trkpt lat="-12.1414670" lon="-76.6104200">
        <ele>2346.2</ele>
        <time>2021-05-30T15:47:52Z</time>
      </trkpt>
      <trkpt lat="-12.1414610" lon="-76.6104930">
        <ele>2345.8</ele>
        <time>2021-05-30T15:47:53Z</time>
      </trkpt>
      <trkpt lat="-12.1414790" lon="-76.6106090">
        <ele>2345.2</ele>
        <time>2021-05-30T15:47:55Z</time>
      </trkpt>
      <trkpt lat="-12.1414920" lon="-76.6107400">
        <ele>2344.8</ele>
        <time>2021-05-30T15:47:57Z</time>
      </trkpt>
      <trkpt lat="-12.1415220" lon="-76.6108620">
        <ele>2344.7</ele>
        <time>2021-05-30T15:47:59Z</time>
      </trkpt>
      <trkpt lat="-12.1415360" lon="-76.6109240">
        <ele>2344.9</ele>
        <time>2021-05-30T15:48:00Z</time>
      </trkpt>
      <trkpt lat="-12.1415810" lon="-76.6110370">
        <ele>2345.5</ele>
        <time>2021-05-30T15:48:02Z</time>
      </trkpt>
      <trkpt lat="-12.1416170" lon="-76.6110840">
        <ele>2345.8</ele>
        <time>2021-05-30T15:48:03Z</time>
      </trkpt>
      <trkpt lat="-12.1416450" lon="-76.6111240">
        <ele>2345.9</ele>
        <time>2021-05-30T15:48:04Z</time>
      </trkpt>
      <trkpt lat="-12.1416580" lon="-76.6111670">
        <ele>2346.1</ele>
        <time>2021-05-30T15:48:05Z</time>
      </trkpt>
      <trkpt lat="-12.1416980" lon="-76.6112080">
        <ele>2346.3</ele>
        <time>2021-05-30T15:48:07Z</time>
      </trkpt>
      <trkpt lat="-12.1417610" lon="-76.6112470">
        <ele>2346.5</ele>
        <time>2021-05-30T15:48:08Z</time>
      </trkpt>
      <trkpt lat="-12.1418020" lon="-76.6112640">
        <ele>2346.7</ele>
        <time>2021-05-30T15:48:10Z</time>
      </trkpt>
      <trkpt lat="-12.1418340" lon="-76.6112840">
        <ele>2346.7</ele>
        <time>2021-05-30T15:48:11Z</time>
      </trkpt>
      <trkpt lat="-12.1418630" lon="-76.6113110">
        <ele>2346.7</ele>
        <time>2021-05-30T15:48:12Z</time>
      </trkpt>
      <trkpt lat="-12.1418900" lon="-76.6113510">
        <ele>2346.7</ele>
        <time>2021-05-30T15:48:13Z</time>
      </trkpt>
      <trkpt lat="-12.1419080" lon="-76.6113800">
        <ele>2346.7</ele>
        <time>2021-05-30T15:48:14Z</time>
      </trkpt>
      <trkpt lat="-12.1419300" lon="-76.6114140">
        <ele>2346.6</ele>
        <time>2021-05-30T15:48:15Z</time>
      </trkpt>
      <trkpt lat="-12.1419600" lon="-76.6114560">
        <ele>2346.5</ele>
        <time>2021-05-30T15:48:17Z</time>
      </trkpt>
      <trkpt lat="-12.1419930" lon="-76.6115040">
        <ele>2346.4</ele>
        <time>2021-05-30T15:48:18Z</time>
      </trkpt>
      <trkpt lat="-12.1420220" lon="-76.6115430">
        <ele>2346.4</ele>
        <time>2021-05-30T15:48:19Z</time>
      </trkpt>
      <trkpt lat="-12.1420600" lon="-76.6116020">
        <ele>2346.5</ele>
        <time>2021-05-30T15:48:21Z</time>
      </trkpt>
      <trkpt lat="-12.1421040" lon="-76.6116620">
        <ele>2346.7</ele>
        <time>2021-05-30T15:48:23Z</time>
      </trkpt>
      <trkpt lat="-12.1421370" lon="-76.6116970">
        <ele>2346.8</ele>
        <time>2021-05-30T15:48:24Z</time>
      </trkpt>
      <trkpt lat="-12.1421590" lon="-76.6117310">
        <ele>2346.9</ele>
        <time>2021-05-30T15:48:25Z</time>
      </trkpt>
      <trkpt lat="-12.1421810" lon="-76.6117730">
        <ele>2347.0</ele>
        <time>2021-05-30T15:48:27Z</time>
      </trkpt>
      <trkpt lat="-12.1422400" lon="-76.6118620">
        <ele>2347.3</ele>
        <time>2021-05-30T15:48:29Z</time>
      </trkpt>
      <trkpt lat="-12.1422920" lon="-76.6119630">
        <ele>2347.5</ele>
        <time>2021-05-30T15:48:31Z</time>
      </trkpt>
      <trkpt lat="-12.1423140" lon="-76.6119760">
        <ele>2347.5</ele>
        <time>2021-05-30T15:48:32Z</time>
      </trkpt>
      <trkpt lat="-12.1423080" lon="-76.6120460">
        <ele>2347.6</ele>
        <time>2021-05-30T15:48:34Z</time>
      </trkpt>
      <trkpt lat="-12.1423950" lon="-76.6121400">
        <ele>2347.9</ele>
        <time>2021-05-30T15:48:36Z</time>
      </trkpt>
      <trkpt lat="-12.1424290" lon="-76.6121940">
        <ele>2348.0</ele>
        <time>2021-05-30T15:48:37Z</time>
      </trkpt>
      <trkpt lat="-12.1424790" lon="-76.6122950">
        <ele>2348.1</ele>
        <time>2021-05-30T15:48:39Z</time>
      </trkpt>
      <trkpt lat="-12.1425000" lon="-76.6123470">
        <ele>2348.2</ele>
        <time>2021-05-30T15:48:40Z</time>
      </trkpt>
      <trkpt lat="-12.1425290" lon="-76.6124530">
        <ele>2348.3</ele>
        <time>2021-05-30T15:48:42Z</time>
      </trkpt>
      <trkpt lat="-12.1425470" lon="-76.6125070">
        <ele>2348.4</ele>
        <time>2021-05-30T15:48:43Z</time>
      </trkpt>
      <trkpt lat="-12.1426020" lon="-76.6126170">
        <ele>2348.6</ele>
        <time>2021-05-30T15:48:45Z</time>
      </trkpt>
      <trkpt lat="-12.1426380" lon="-76.6126760">
        <ele>2348.7</ele>
        <time>2021-05-30T15:48:46Z</time>
      </trkpt>
      <trkpt lat="-12.1426880" lon="-76.6127820">
        <ele>2348.9</ele>
        <time>2021-05-30T15:48:48Z</time>
      </trkpt>
      <trkpt lat="-12.1427080" lon="-76.6128350">
        <ele>2348.9</ele>
        <time>2021-05-30T15:48:49Z</time>
      </trkpt>
      <trkpt lat="-12.1427280" lon="-76.6128910">
        <ele>2349.0</ele>
        <time>2021-05-30T15:48:50Z</time>
      </trkpt>
      <trkpt lat="-12.1427400" lon="-76.6129440">
        <ele>2349.1</ele>
        <time>2021-05-30T15:48:51Z</time>
      </trkpt>
      <trkpt lat="-12.1427460" lon="-76.6130280">
        <ele>2349.2</ele>
        <time>2021-05-30T15:48:53Z</time>
      </trkpt>
      <trkpt lat="-12.1427220" lon="-76.6130920">
        <ele>2349.0</ele>
        <time>2021-05-30T15:48:55Z</time>
      </trkpt>
      <trkpt lat="-12.1426830" lon="-76.6131760">
        <ele>2348.9</ele>
        <time>2021-05-30T15:48:57Z</time>
      </trkpt>
      <trkpt lat="-12.1426450" lon="-76.6132870">
        <ele>2348.4</ele>
        <time>2021-05-30T15:48:59Z</time>
      </trkpt>
      <trkpt lat="-12.1426320" lon="-76.6133500">
        <ele>2348.3</ele>
        <time>2021-05-30T15:49:00Z</time>
      </trkpt>
      <trkpt lat="-12.1426170" lon="-76.6134120">
        <ele>2348.4</ele>
        <time>2021-05-30T15:49:01Z</time>
      </trkpt>
      <trkpt lat="-12.1425960" lon="-76.6134690">
        <ele>2348.5</ele>
        <time>2021-05-30T15:49:02Z</time>
      </trkpt>
      <trkpt lat="-12.1425560" lon="-76.6135680">
        <ele>2348.6</ele>
        <time>2021-05-30T15:49:04Z</time>
      </trkpt>
      <trkpt lat="-12.1425290" lon="-76.6136120">
        <ele>2348.6</ele>
        <time>2021-05-30T15:49:05Z</time>
      </trkpt>
      <trkpt lat="-12.1424940" lon="-76.6136510">
        <ele>2348.5</ele>
        <time>2021-05-30T15:49:06Z</time>
      </trkpt>
      <trkpt lat="-12.1424220" lon="-76.6137460">
        <ele>2348.3</ele>
        <time>2021-05-30T15:49:08Z</time>
      </trkpt>
      <trkpt lat="-12.1423780" lon="-76.6137900">
        <ele>2348.2</ele>
        <time>2021-05-30T15:49:09Z</time>
      </trkpt>
      <trkpt lat="-12.1423340" lon="-76.6138280">
        <ele>2348.3</ele>
        <time>2021-05-30T15:49:10Z</time>
      </trkpt>
      <trkpt lat="-12.1422900" lon="-76.6138650">
        <ele>2348.3</ele>
        <time>2021-05-30T15:49:11Z</time>
      </trkpt>
      <trkpt lat="-12.1421980" lon="-76.6139510">
        <ele>2348.4</ele>
        <time>2021-05-30T15:49:13Z</time>
      </trkpt>
      <trkpt lat="-12.1421250" lon="-76.6140200">
        <ele>2348.3</ele>
        <time>2021-05-30T15:49:15Z</time>
      </trkpt>
      <trkpt lat="-12.1420810" lon="-76.6140500">
        <ele>2348.3</ele>
        <time>2021-05-30T15:49:16Z</time>
      </trkpt>
      <trkpt lat="-12.1420390" lon="-76.6140780">
        <ele>2348.3</ele>
        <time>2021-05-30T15:49:17Z</time>
      </trkpt>
      <trkpt lat="-12.1419550" lon="-76.6141370">
        <ele>2348.6</ele>
        <time>2021-05-30T15:49:19Z</time>
      </trkpt>
      <trkpt lat="-12.1418760" lon="-76.6142200">
        <ele>2349.3</ele>
        <time>2021-05-30T15:49:21Z</time>
      </trkpt>
      <trkpt lat="-12.1418330" lon="-76.6142590">
        <ele>2349.7</ele>
        <time>2021-05-30T15:49:22Z</time>
      </trkpt>
      <trkpt lat="-12.1417390" lon="-76.6143260">
        <ele>2350.0</ele>
        <time>2021-05-30T15:49:24Z</time>
      </trkpt>
      <trkpt lat="-12.1416540" lon="-76.6143920">
        <ele>2349.9</ele>
        <time>2021-05-30T15:49:26Z</time>
      </trkpt>
      <trkpt lat="-12.1416140" lon="-76.6144330">
        <ele>2349.9</ele>
        <time>2021-05-30T15:49:27Z</time>
      </trkpt>
      <trkpt lat="-12.1415300" lon="-76.6145010">
        <ele>2349.9</ele>
        <time>2021-05-30T15:49:29Z</time>
      </trkpt>
      <trkpt lat="-12.1414900" lon="-76.6145370">
        <ele>2349.9</ele>
        <time>2021-05-30T15:49:30Z</time>
      </trkpt>
      <trkpt lat="-12.1414110" lon="-76.6146110">
        <ele>2350.1</ele>
        <time>2021-05-30T15:49:32Z</time>
      </trkpt>
      <trkpt lat="-12.1413240" lon="-76.6146670">
        <ele>2350.2</ele>
        <time>2021-05-30T15:49:34Z</time>
      </trkpt>
      <trkpt lat="-12.1412790" lon="-76.6146930">
        <ele>2350.1</ele>
        <time>2021-05-30T15:49:35Z</time>
      </trkpt>
      <trkpt lat="-12.1411930" lon="-76.6147390">
        <ele>2350.1</ele>
        <time>2021-05-30T15:49:37Z</time>
      </trkpt>
      <trkpt lat="-12.1411480" lon="-76.6147610">
        <ele>2350.1</ele>
        <time>2021-05-30T15:49:38Z</time>
      </trkpt>
      <trkpt lat="-12.1410570" lon="-76.6148100">
        <ele>2350.1</ele>
        <time>2021-05-30T15:49:40Z</time>
      </trkpt>
      <trkpt lat="-12.1409630" lon="-76.6148800">
        <ele>2350.1</ele>
        <time>2021-05-30T15:49:42Z</time>
      </trkpt>
      <trkpt lat="-12.1409160" lon="-76.6149150">
        <ele>2350.2</ele>
        <time>2021-05-30T15:49:43Z</time>
      </trkpt>
      <trkpt lat="-12.1408150" lon="-76.6149750">
        <ele>2350.4</ele>
        <time>2021-05-30T15:49:45Z</time>
      </trkpt>
      <trkpt lat="-12.1407650" lon="-76.6150130">
        <ele>2350.4</ele>
        <time>2021-05-30T15:49:46Z</time>
      </trkpt>
      <trkpt lat="-12.1406920" lon="-76.6150850">
        <ele>2350.4</ele>
        <time>2021-05-30T15:49:48Z</time>
      </trkpt>
      <trkpt lat="-12.1406650" lon="-76.6151190">
        <ele>2350.5</ele>
        <time>2021-05-30T15:49:49Z</time>
      </trkpt>
      <trkpt lat="-12.1406360" lon="-76.6151990">
        <ele>2351.0</ele>
        <time>2021-05-30T15:49:51Z</time>
      </trkpt>
      <trkpt lat="-12.1406360" lon="-76.6152640">
        <ele>2351.4</ele>
        <time>2021-05-30T15:49:53Z</time>
      </trkpt>
      <trkpt lat="-12.1406350" lon="-76.6152950">
        <ele>2351.6</ele>
        <time>2021-05-30T15:49:54Z</time>
      </trkpt>
      <trkpt lat="-12.1406310" lon="-76.6153240">
        <ele>2351.7</ele>
        <time>2021-05-30T15:49:55Z</time>
      </trkpt>
      <trkpt lat="-12.1406210" lon="-76.6153510">
        <ele>2351.7</ele>
        <time>2021-05-30T15:49:56Z</time>
      </trkpt>
      <trkpt lat="-12.1406060" lon="-76.6153590">
        <ele>2351.8</ele>
        <time>2021-05-30T15:49:57Z</time>
      </trkpt>
      <trkpt lat="-12.1406070" lon="-76.6153740">
        <ele>2351.8</ele>
        <time>2021-05-30T15:49:59Z</time>
      </trkpt>
      <trkpt lat="-12.1405930" lon="-76.6153670">
        <ele>2351.8</ele>
        <time>2021-05-30T15:50:00Z</time>
      </trkpt>
      <trkpt lat="-12.1405460" lon="-76.6153740">
        <ele>2351.8</ele>
        <time>2021-05-30T15:50:01Z</time>
      </trkpt>
      <trkpt lat="-12.1405010" lon="-76.6153900">
        <ele>2351.6</ele>
        <time>2021-05-30T15:50:03Z</time>
      </trkpt>
      <trkpt lat="-12.1404410" lon="-76.6154000">
        <ele>2351.3</ele>
        <time>2021-05-30T15:50:04Z</time>
      </trkpt>
      <trkpt lat="-12.1403160" lon="-76.6154310">
        <ele>2350.5</ele>
        <time>2021-05-30T15:50:06Z</time>
      </trkpt>
      <trkpt lat="-12.1401950" lon="-76.6154680">
        <ele>2350.7</ele>
        <time>2021-05-30T15:50:08Z</time>
      </trkpt>
      <trkpt lat="-12.1401320" lon="-76.6154950">
        <ele>2350.6</ele>
        <time>2021-05-30T15:50:09Z</time>
      </trkpt>
      <trkpt lat="-12.1400740" lon="-76.6155300">
        <ele>2350.5</ele>
        <time>2021-05-30T15:50:10Z</time>
      </trkpt>
      <trkpt lat="-12.1399840" lon="-76.6156100">
        <ele>2350.2</ele>
        <time>2021-05-30T15:50:12Z</time>
      </trkpt>
      <trkpt lat="-12.1399450" lon="-76.6156600">
        <ele>2350.2</ele>
        <time>2021-05-30T15:50:13Z</time>
      </trkpt>
      <trkpt lat="-12.1398780" lon="-76.6157770">
        <ele>2350.5</ele>
        <time>2021-05-30T15:50:15Z</time>
      </trkpt>
      <trkpt lat="-12.1398430" lon="-76.6158360">
        <ele>2350.7</ele>
        <time>2021-05-30T15:50:16Z</time>
      </trkpt>
      <trkpt lat="-12.1398140" lon="-76.6158940">
        <ele>2350.8</ele>
        <time>2021-05-30T15:50:17Z</time>
      </trkpt>
      <trkpt lat="-12.1397520" lon="-76.6160050">
        <ele>2350.9</ele>
        <time>2021-05-30T15:50:19Z</time>
      </trkpt>
      <trkpt lat="-12.1396850" lon="-76.6160790">
        <ele>2351.1</ele>
        <time>2021-05-30T15:50:21Z</time>
      </trkpt>
      <trkpt lat="-12.1395990" lon="-76.6161530">
        <ele>2351.7</ele>
        <time>2021-05-30T15:50:23Z</time>
      </trkpt>
      <trkpt lat="-12.1395570" lon="-76.6161810">
        <ele>2352.0</ele>
        <time>2021-05-30T15:50:24Z</time>
      </trkpt>
      <trkpt lat="-12.1394900" lon="-76.6162000">
        <ele>2352.1</ele>
        <time>2021-05-30T15:50:26Z</time>
      </trkpt>
      <trkpt lat="-12.1394300" lon="-76.6162000">
        <ele>2352.1</ele>
        <time>2021-05-30T15:50:28Z</time>
      </trkpt>
      <trkpt lat="-12.1393970" lon="-76.6161910">
        <ele>2352.0</ele>
        <time>2021-05-30T15:50:29Z</time>
      </trkpt>
      <trkpt lat="-12.1393340" lon="-76.6161490">
        <ele>2351.9</ele>
        <time>2021-05-30T15:50:31Z</time>
      </trkpt>
      <trkpt lat="-12.1392820" lon="-76.6161460">
        <ele>2351.9</ele>
        <time>2021-05-30T15:50:32Z</time>
      </trkpt>
      <trkpt lat="-12.1392020" lon="-76.6161110">
        <ele>2351.9</ele>
        <time>2021-05-30T15:50:34Z</time>
      </trkpt>
      <trkpt lat="-12.1391080" lon="-76.6160660">
        <ele>2351.9</ele>
        <time>2021-05-30T15:50:36Z</time>
      </trkpt>
      <trkpt lat="-12.1390600" lon="-76.6160470">
        <ele>2352.0</ele>
        <time>2021-05-30T15:50:37Z</time>
      </trkpt>
      <trkpt lat="-12.1390110" lon="-76.6160290">
        <ele>2352.0</ele>
        <time>2021-05-30T15:50:38Z</time>
      </trkpt>
      <trkpt lat="-12.1388990" lon="-76.6159860">
        <ele>2351.9</ele>
        <time>2021-05-30T15:50:40Z</time>
      </trkpt>
      <trkpt lat="-12.1387870" lon="-76.6159960">
        <ele>2351.6</ele>
        <time>2021-05-30T15:50:42Z</time>
      </trkpt>
      <trkpt lat="-12.1387350" lon="-76.6160230">
        <ele>2351.4</ele>
        <time>2021-05-30T15:50:43Z</time>
      </trkpt>
      <trkpt lat="-12.1386860" lon="-76.6160600">
        <ele>2351.2</ele>
        <time>2021-05-30T15:50:44Z</time>
      </trkpt>
      <trkpt lat="-12.1385830" lon="-76.6161350">
        <ele>2350.9</ele>
        <time>2021-05-30T15:50:46Z</time>
      </trkpt>
      <trkpt lat="-12.1384910" lon="-76.6162330">
        <ele>2350.8</ele>
        <time>2021-05-30T15:50:48Z</time>
      </trkpt>
      <trkpt lat="-12.1384510" lon="-76.6162800">
        <ele>2350.9</ele>
        <time>2021-05-30T15:50:49Z</time>
      </trkpt>
      <trkpt lat="-12.1384100" lon="-76.6163250">
        <ele>2351.0</ele>
        <time>2021-05-30T15:50:50Z</time>
      </trkpt>
      <trkpt lat="-12.1383700" lon="-76.6163770">
        <ele>2350.9</ele>
        <time>2021-05-30T15:50:51Z</time>
      </trkpt>
      <trkpt lat="-12.1382960" lon="-76.6164880">
        <ele>2350.6</ele>
        <time>2021-05-30T15:50:53Z</time>
      </trkpt>
      <trkpt lat="-12.1382310" lon="-76.6165950">
        <ele>2361.4</ele>
        <time>2021-05-30T15:50:55Z</time>
      </trkpt>
      <trkpt lat="-12.1382040" lon="-76.6166430">
        <ele>2359.0</ele>
        <time>2021-05-30T15:50:56Z</time>
      </trkpt>
      <trkpt lat="-12.1381790" lon="-76.6166850">
        <ele>2354.5</ele>
        <time>2021-05-30T15:50:57Z</time>
      </trkpt>
      <trkpt lat="-12.1381340" lon="-76.6167360">
        <ele>2349.7</ele>
        <time>2021-05-30T15:50:59Z</time>
      </trkpt>
      <trkpt lat="-12.1381090" lon="-76.6167530">
        <ele>2350.6</ele>
        <time>2021-05-30T15:51:00Z</time>
      </trkpt>
      <trkpt lat="-12.1380500" lon="-76.6167460">
        <ele>2343.1</ele>
        <time>2021-05-30T15:51:02Z</time>
      </trkpt>
      <trkpt lat="-12.1380180" lon="-76.6167360">
        <ele>2341.7</ele>
        <time>2021-05-30T15:51:03Z</time>
      </trkpt>
      <trkpt lat="-12.1380370" lon="-76.6167280">
        <ele>2344.9</ele>
        <time>2021-05-30T15:51:04Z</time>
      </trkpt>
      <trkpt lat="-12.1379580" lon="-76.6167370">
        <ele>2342.5</ele>
        <time>2021-05-30T15:51:06Z</time>
      </trkpt>
      <trkpt lat="-12.1378270" lon="-76.6167600">
        <ele>2345.7</ele>
        <time>2021-05-30T15:51:08Z</time>
      </trkpt>
      <trkpt lat="-12.1377780" lon="-76.6167690">
        <ele>2350.9</ele>
        <time>2021-05-30T15:51:09Z</time>
      </trkpt>
      <trkpt lat="-12.1377340" lon="-76.6167730">
        <ele>2353.2</ele>
        <time>2021-05-30T15:51:10Z</time>
      </trkpt>
      <trkpt lat="-12.1376880" lon="-76.6167780">
        <ele>2355.3</ele>
        <time>2021-05-30T15:51:11Z</time>
      </trkpt>
      <trkpt lat="-12.1375880" lon="-76.6167640">
        <ele>2354.5</ele>
        <time>2021-05-30T15:51:13Z</time>
      </trkpt>
      <trkpt lat="-12.1374760" lon="-76.6167580">
        <ele>2355.2</ele>
        <time>2021-05-30T15:51:15Z</time>
      </trkpt>
      <trkpt lat="-12.1374180" lon="-76.6167560">
        <ele>2354.4</ele>
        <time>2021-05-30T15:51:16Z</time>
      </trkpt>
      <trkpt lat="-12.1373590" lon="-76.6167490">
        <ele>2353.8</ele>
        <time>2021-05-30T15:51:17Z</time>
      </trkpt>
      <trkpt lat="-12.1373020" lon="-76.6167380">
        <ele>2350.5</ele>
        <time>2021-05-30T15:51:18Z</time>
      </trkpt>
      <trkpt lat="-12.1371870" lon="-76.6167280">
        <ele>2346.5</ele>
        <time>2021-05-30T15:51:20Z</time>
      </trkpt>
      <trkpt lat="-12.1370760" lon="-76.6167360">
        <ele>2340.3</ele>
        <time>2021-05-30T15:51:22Z</time>
      </trkpt>
      <trkpt lat="-12.1370230" lon="-76.6167630">
        <ele>2339.0</ele>
        <time>2021-05-30T15:51:23Z</time>
      </trkpt>
      <trkpt lat="-12.1369770" lon="-76.6167980">
        <ele>2339.6</ele>
        <time>2021-05-30T15:51:24Z</time>
      </trkpt>
      <trkpt lat="-12.1369070" lon="-76.6168700">
        <ele>2338.6</ele>
        <time>2021-05-30T15:51:26Z</time>
      </trkpt>
      <trkpt lat="-12.1368550" lon="-76.6169440">
        <ele>2337.9</ele>
        <time>2021-05-30T15:51:28Z</time>
      </trkpt>
      <trkpt lat="-12.1368090" lon="-76.6170080">
        <ele>2337.2</ele>
        <time>2021-05-30T15:51:30Z</time>
      </trkpt>
      <trkpt lat="-12.1367840" lon="-76.6170750">
        <ele>2336.6</ele>
        <time>2021-05-30T15:51:32Z</time>
      </trkpt>
      <trkpt lat="-12.1367630" lon="-76.6170970">
        <ele>2336.3</ele>
        <time>2021-05-30T15:51:33Z</time>
      </trkpt>
      <trkpt lat="-12.1367490" lon="-76.6171230">
        <ele>2336.0</ele>
        <time>2021-05-30T15:51:34Z</time>
      </trkpt>
      <trkpt lat="-12.1367400" lon="-76.6171530">
        <ele>2335.7</ele>
        <time>2021-05-30T15:51:35Z</time>
      </trkpt>
      <trkpt lat="-12.1367260" lon="-76.6171840">
        <ele>2335.3</ele>
        <time>2021-05-30T15:51:37Z</time>
      </trkpt>
      <trkpt lat="-12.1367060" lon="-76.6172020">
        <ele>2335.0</ele>
        <time>2021-05-30T15:51:38Z</time>
      </trkpt>
      <trkpt lat="-12.1366720" lon="-76.6172190">
        <ele>2334.6</ele>
        <time>2021-05-30T15:51:40Z</time>
      </trkpt>
      <trkpt lat="-12.1366560" lon="-76.6172230">
        <ele>2334.4</ele>
        <time>2021-05-30T15:51:41Z</time>
      </trkpt>
      <trkpt lat="-12.1366340" lon="-76.6172220">
        <ele>2334.1</ele>
        <time>2021-05-30T15:51:43Z</time>
      </trkpt>
      <trkpt lat="-12.1366210" lon="-76.6172170">
        <ele>2333.9</ele>
        <time>2021-05-30T15:51:44Z</time>
      </trkpt>
      <trkpt lat="-12.1366040" lon="-76.6171960">
        <ele>2333.6</ele>
        <time>2021-05-30T15:51:45Z</time>
      </trkpt>
      <trkpt lat="-12.1365980" lon="-76.6171880">
        <ele>2333.5</ele>
        <time>2021-05-30T15:51:46Z</time>
      </trkpt>
      <trkpt lat="-12.1365910" lon="-76.6171680">
        <ele>2333.2</ele>
        <time>2021-05-30T15:51:47Z</time>
      </trkpt>
      <trkpt lat="-12.1365920" lon="-76.6171380">
        <ele>2332.9</ele>
        <time>2021-05-30T15:51:49Z</time>
      </trkpt>
      <trkpt lat="-12.1366020" lon="-76.6171070">
        <ele>2332.5</ele>
        <time>2021-05-30T15:51:50Z</time>
      </trkpt>
      <trkpt lat="-12.1366190" lon="-76.6170670">
        <ele>2332.1</ele>
        <time>2021-05-30T15:51:51Z</time>
      </trkpt>
      <trkpt lat="-12.1366420" lon="-76.6170270">
        <ele>2331.7</ele>
        <time>2021-05-30T15:51:53Z</time>
      </trkpt>
      <trkpt lat="-12.1366840" lon="-76.6169700">
        <ele>2331.2</ele>
        <time>2021-05-30T15:51:54Z</time>
      </trkpt>
      <trkpt lat="-12.1367190" lon="-76.6169320">
        <ele>2330.8</ele>
        <time>2021-05-30T15:51:56Z</time>
      </trkpt>
      <trkpt lat="-12.1367530" lon="-76.6168980">
        <ele>2330.5</ele>
        <time>2021-05-30T15:51:57Z</time>
      </trkpt>
      <trkpt lat="-12.1367910" lon="-76.6168550">
        <ele>2330.1</ele>
        <time>2021-05-30T15:51:58Z</time>
      </trkpt>
      <trkpt lat="-12.1368430" lon="-76.6168020">
        <ele>2329.7</ele>
        <time>2021-05-30T15:52:00Z</time>
      </trkpt>
      <trkpt lat="-12.1369220" lon="-76.6167350">
        <ele>2329.0</ele>
        <time>2021-05-30T15:52:01Z</time>
      </trkpt>
      <trkpt lat="-12.1369820" lon="-76.6166890">
        <ele>2328.5</ele>
        <time>2021-05-30T15:52:02Z</time>
      </trkpt>
      <trkpt lat="-12.1370420" lon="-76.6166600">
        <ele>2327.9</ele>
        <time>2021-05-30T15:52:04Z</time>
      </trkpt>
      <trkpt lat="-12.1370740" lon="-76.6166480">
        <ele>2327.6</ele>
        <time>2021-05-30T15:52:05Z</time>
      </trkpt>
      <trkpt lat="-12.1371310" lon="-76.6166410">
        <ele>2327.0</ele>
        <time>2021-05-30T15:52:07Z</time>
      </trkpt>
      <trkpt lat="-12.1371840" lon="-76.6166390">
        <ele>2326.4</ele>
        <time>2021-05-30T15:52:08Z</time>
      </trkpt>
      <trkpt lat="-12.1372360" lon="-76.6166410">
        <ele>2325.8</ele>
        <time>2021-05-30T15:52:09Z</time>
      </trkpt>
      <trkpt lat="-12.1372900" lon="-76.6166400">
        <ele>2325.3</ele>
        <time>2021-05-30T15:52:10Z</time>
      </trkpt>
      <trkpt lat="-12.1373520" lon="-76.6166370">
        <ele>2324.6</ele>
        <time>2021-05-30T15:52:12Z</time>
      </trkpt>
      <trkpt lat="-12.1374420" lon="-76.6166330">
        <ele>2323.8</ele>
        <time>2021-05-30T15:52:14Z</time>
      </trkpt>
      <trkpt lat="-12.1375250" lon="-76.6166290">
        <ele>2323.2</ele>
        <time>2021-05-30T15:52:15Z</time>
      </trkpt>
      <trkpt lat="-12.1376140" lon="-76.6166430">
        <ele>2322.6</ele>
        <time>2021-05-30T15:52:17Z</time>
      </trkpt>
      <trkpt lat="-12.1376700" lon="-76.6166440">
        <ele>2322.2</ele>
        <time>2021-05-30T15:52:18Z</time>
      </trkpt>
      <trkpt lat="-12.1377700" lon="-76.6166360">
        <ele>2321.4</ele>
        <time>2021-05-30T15:52:20Z</time>
      </trkpt>
      <trkpt lat="-12.1378170" lon="-76.6166190">
        <ele>2321.0</ele>
        <time>2021-05-30T15:52:21Z</time>
      </trkpt>
      <trkpt lat="-12.1378590" lon="-76.6165910">
        <ele>2320.6</ele>
        <time>2021-05-30T15:52:22Z</time>
      </trkpt>
      <trkpt lat="-12.1379000" lon="-76.6165600">
        <ele>2320.2</ele>
        <time>2021-05-30T15:52:23Z</time>
      </trkpt>
      <trkpt lat="-12.1379840" lon="-76.6165020">
        <ele>2319.1</ele>
        <time>2021-05-30T15:52:25Z</time>
      </trkpt>
      <trkpt lat="-12.1380490" lon="-76.6164230">
        <ele>2317.9</ele>
        <time>2021-05-30T15:52:27Z</time>
      </trkpt>
      <trkpt lat="-12.1380960" lon="-76.6163470">
        <ele>2316.8</ele>
        <time>2021-05-30T15:52:29Z</time>
      </trkpt>
      <trkpt lat="-12.1381440" lon="-76.6162500">
        <ele>2315.5</ele>
        <time>2021-05-30T15:52:31Z</time>
      </trkpt>
      <trkpt lat="-12.1381710" lon="-76.6161890">
        <ele>2314.7</ele>
        <time>2021-05-30T15:52:32Z</time>
      </trkpt>
      <trkpt lat="-12.1382250" lon="-76.6160840">
        <ele>2313.3</ele>
        <time>2021-05-30T15:52:34Z</time>
      </trkpt>
      <trkpt lat="-12.1383030" lon="-76.6159980">
        <ele>2312.0</ele>
        <time>2021-05-30T15:52:36Z</time>
      </trkpt>
      <trkpt lat="-12.1383490" lon="-76.6159640">
        <ele>2311.4</ele>
        <time>2021-05-30T15:52:37Z</time>
      </trkpt>
      <trkpt lat="-12.1384030" lon="-76.6159250">
        <ele>2310.7</ele>
        <time>2021-05-30T15:52:38Z</time>
      </trkpt>
      <trkpt lat="-12.1385130" lon="-76.6158260">
        <ele>2309.5</ele>
        <time>2021-05-30T15:52:40Z</time>
      </trkpt>
      <trkpt lat="-12.1385540" lon="-76.6157790">
        <ele>2309.0</ele>
        <time>2021-05-30T15:52:41Z</time>
      </trkpt>
      <trkpt lat="-12.1386290" lon="-76.6157110">
        <ele>2308.1</ele>
        <time>2021-05-30T15:52:43Z</time>
      </trkpt>
      <trkpt lat="-12.1386880" lon="-76.6156720">
        <ele>2307.3</ele>
        <time>2021-05-30T15:52:45Z</time>
      </trkpt>
      <trkpt lat="-12.1387660" lon="-76.6156430">
        <ele>2306.5</ele>
        <time>2021-05-30T15:52:47Z</time>
      </trkpt>
      <trkpt lat="-12.1388610" lon="-76.6156210">
        <ele>2305.6</ele>
        <time>2021-05-30T15:52:49Z</time>
      </trkpt>
      <trkpt lat="-12.1389070" lon="-76.6156300">
        <ele>2305.3</ele>
        <time>2021-05-30T15:52:50Z</time>
      </trkpt>
      <trkpt lat="-12.1389480" lon="-76.6156330">
        <ele>2305.0</ele>
        <time>2021-05-30T15:52:51Z</time>
      </trkpt>
      <trkpt lat="-12.1390250" lon="-76.6156470">
        <ele>2304.4</ele>
        <time>2021-05-30T15:52:53Z</time>
      </trkpt>
      <trkpt lat="-12.1390660" lon="-76.6156610">
        <ele>2304.0</ele>
        <time>2021-05-30T15:52:54Z</time>
      </trkpt>
      <trkpt lat="-12.1391370" lon="-76.6156830">
        <ele>2303.4</ele>
        <time>2021-05-30T15:52:56Z</time>
      </trkpt>
      <trkpt lat="-12.1391950" lon="-76.6156890">
        <ele>2302.9</ele>
        <time>2021-05-30T15:52:57Z</time>
      </trkpt>
      <trkpt lat="-12.1392910" lon="-76.6157060">
        <ele>2302.1</ele>
        <time>2021-05-30T15:52:59Z</time>
      </trkpt>
      <trkpt lat="-12.1393800" lon="-76.6156960">
        <ele>2301.1</ele>
        <time>2021-05-30T15:53:00Z</time>
      </trkpt>
      <trkpt lat="-12.1394230" lon="-76.6156820">
        <ele>2300.5</ele>
        <time>2021-05-30T15:53:02Z</time>
      </trkpt>
      <trkpt lat="-12.1394610" lon="-76.6156620">
        <ele>2300.0</ele>
        <time>2021-05-30T15:53:03Z</time>
      </trkpt>
      <trkpt lat="-12.1395060" lon="-76.6156200">
        <ele>2299.2</ele>
        <time>2021-05-30T15:53:04Z</time>
      </trkpt>
      <trkpt lat="-12.1395330" lon="-76.6155850">
        <ele>2298.6</ele>
        <time>2021-05-30T15:53:05Z</time>
      </trkpt>
      <trkpt lat="-12.1395640" lon="-76.6155440">
        <ele>2297.9</ele>
        <time>2021-05-30T15:53:07Z</time>
      </trkpt>
      <trkpt lat="-12.1395980" lon="-76.6154810">
        <ele>2297.0</ele>
        <time>2021-05-30T15:53:08Z</time>
      </trkpt>
      <trkpt lat="-12.1396710" lon="-76.6153810">
        <ele>2295.5</ele>
        <time>2021-05-30T15:53:10Z</time>
      </trkpt>
      <trkpt lat="-12.1397330" lon="-76.6152820">
        <ele>2294.1</ele>
        <time>2021-05-30T15:53:12Z</time>
      </trkpt>
      <trkpt lat="-12.1397660" lon="-76.6152350">
        <ele>2293.4</ele>
        <time>2021-05-30T15:53:13Z</time>
      </trkpt>
      <trkpt lat="-12.1398230" lon="-76.6151400">
        <ele>2292.1</ele>
        <time>2021-05-30T15:53:15Z</time>
      </trkpt>
      <trkpt lat="-12.1398490" lon="-76.6150970">
        <ele>2291.6</ele>
        <time>2021-05-30T15:53:16Z</time>
      </trkpt>
      <trkpt lat="-12.1399340" lon="-76.6150260">
        <ele>2290.6</ele>
        <time>2021-05-30T15:53:18Z</time>
      </trkpt>
      <trkpt lat="-12.1400420" lon="-76.6149570">
        <ele>2289.9</ele>
        <time>2021-05-30T15:53:20Z</time>
      </trkpt>
      <trkpt lat="-12.1400950" lon="-76.6149210">
        <ele>2289.5</ele>
        <time>2021-05-30T15:53:21Z</time>
      </trkpt>
      <trkpt lat="-12.1401390" lon="-76.6148920">
        <ele>2289.3</ele>
        <time>2021-05-30T15:53:22Z</time>
      </trkpt>
      <trkpt lat="-12.1401950" lon="-76.6148350">
        <ele>2288.7</ele>
        <time>2021-05-30T15:53:24Z</time>
      </trkpt>
      <trkpt lat="-12.1402110" lon="-76.6148070">
        <ele>2288.4</ele>
        <time>2021-05-30T15:53:25Z</time>
      </trkpt>
      <trkpt lat="-12.1402250" lon="-76.6147770">
        <ele>2288.0</ele>
        <time>2021-05-30T15:53:26Z</time>
      </trkpt>
      <trkpt lat="-12.1402280" lon="-76.6147480">
        <ele>2287.7</ele>
        <time>2021-05-30T15:53:27Z</time>
      </trkpt>
      <trkpt lat="-12.1402280" lon="-76.6146920">
        <ele>2286.9</ele>
        <time>2021-05-30T15:53:29Z</time>
      </trkpt>
      <trkpt lat="-12.1402020" lon="-76.6146700">
        <ele>2286.4</ele>
        <time>2021-05-30T15:53:30Z</time>
      </trkpt>
      <trkpt lat="-12.1402520" lon="-76.6145670">
        <ele>2284.8</ele>
        <time>2021-05-30T15:53:32Z</time>
      </trkpt>
      <trkpt lat="-12.1402950" lon="-76.6145160">
        <ele>2283.9</ele>
        <time>2021-05-30T15:53:33Z</time>
      </trkpt>
      <trkpt lat="-12.1403830" lon="-76.6144080">
        <ele>2282.1</ele>
        <time>2021-05-30T15:53:35Z</time>
      </trkpt>
      <trkpt lat="-12.1404230" lon="-76.6143570">
        <ele>2281.3</ele>
        <time>2021-05-30T15:53:36Z</time>
      </trkpt>
      <trkpt lat="-12.1404680" lon="-76.6143100">
        <ele>2280.5</ele>
        <time>2021-05-30T15:53:37Z</time>
      </trkpt>
      <trkpt lat="-12.1405150" lon="-76.6142660">
        <ele>2279.6</ele>
        <time>2021-05-30T15:53:38Z</time>
      </trkpt>
      <trkpt lat="-12.1406120" lon="-76.6141820">
        <ele>2278.1</ele>
        <time>2021-05-30T15:53:40Z</time>
      </trkpt>
      <trkpt lat="-12.1406680" lon="-76.6141280">
        <ele>2277.4</ele>
        <time>2021-05-30T15:53:41Z</time>
      </trkpt>
      <trkpt lat="-12.1407210" lon="-76.6140730">
        <ele>2276.8</ele>
        <time>2021-05-30T15:53:42Z</time>
      </trkpt>
      <trkpt lat="-12.1408210" lon="-76.6139680">
        <ele>2275.7</ele>
        <time>2021-05-30T15:53:44Z</time>
      </trkpt>
      <trkpt lat="-12.1409180" lon="-76.6138890">
        <ele>2274.8</ele>
        <time>2021-05-30T15:53:46Z</time>
      </trkpt>
      <trkpt lat="-12.1410010" lon="-76.6138180">
        <ele>2274.0</ele>
        <time>2021-05-30T15:53:48Z</time>
      </trkpt>
      <trkpt lat="-12.1410420" lon="-76.6137780">
        <ele>2273.6</ele>
        <time>2021-05-30T15:53:49Z</time>
      </trkpt>
      <trkpt lat="-12.1410770" lon="-76.6137350">
        <ele>2273.1</ele>
        <time>2021-05-30T15:53:50Z</time>
      </trkpt>
      <trkpt lat="-12.1411550" lon="-76.6136490">
        <ele>2272.4</ele>
        <time>2021-05-30T15:53:52Z</time>
      </trkpt>
      <trkpt lat="-12.1411960" lon="-76.6135960">
        <ele>2271.9</ele>
        <time>2021-05-30T15:53:53Z</time>
      </trkpt>
      <trkpt lat="-12.1412880" lon="-76.6134880">
        <ele>2271.2</ele>
        <time>2021-05-30T15:53:55Z</time>
      </trkpt>
      <trkpt lat="-12.1413690" lon="-76.6133750">
        <ele>2270.7</ele>
        <time>2021-05-30T15:53:57Z</time>
      </trkpt>
      <trkpt lat="-12.1414080" lon="-76.6133220">
        <ele>2270.3</ele>
        <time>2021-05-30T15:53:58Z</time>
      </trkpt>
      <trkpt lat="-12.1414780" lon="-76.6132170">
        <ele>2269.4</ele>
        <time>2021-05-30T15:54:00Z</time>
      </trkpt>
      <trkpt lat="-12.1415050" lon="-76.6131640">
        <ele>2269.0</ele>
        <time>2021-05-30T15:54:01Z</time>
      </trkpt>
      <trkpt lat="-12.1415620" lon="-76.6130610">
        <ele>2268.4</ele>
        <time>2021-05-30T15:54:03Z</time>
      </trkpt>
      <trkpt lat="-12.1415850" lon="-76.6130080">
        <ele>2268.0</ele>
        <time>2021-05-30T15:54:04Z</time>
      </trkpt>
      <trkpt lat="-12.1415980" lon="-76.6128910">
        <ele>2267.5</ele>
        <time>2021-05-30T15:54:06Z</time>
      </trkpt>
      <trkpt lat="-12.1415700" lon="-76.6128080">
        <ele>2267.1</ele>
        <time>2021-05-30T15:54:08Z</time>
      </trkpt>
      <trkpt lat="-12.1415440" lon="-76.6127780">
        <ele>2267.0</ele>
        <time>2021-05-30T15:54:09Z</time>
      </trkpt>
      <trkpt lat="-12.1415220" lon="-76.6127530">
        <ele>2266.8</ele>
        <time>2021-05-30T15:54:10Z</time>
      </trkpt>
      <trkpt lat="-12.1414760" lon="-76.6127040">
        <ele>2266.4</ele>
        <time>2021-05-30T15:54:12Z</time>
      </trkpt>
      <trkpt lat="-12.1414590" lon="-76.6126990">
        <ele>2266.3</ele>
        <time>2021-05-30T15:54:14Z</time>
      </trkpt>
      <trkpt lat="-12.1414560" lon="-76.6126940">
        <ele>2266.3</ele>
        <time>2021-05-30T15:54:15Z</time>
      </trkpt>
      <trkpt lat="-12.1414520" lon="-76.6126900">
        <ele>2266.3</ele>
        <time>2021-05-30T15:54:16Z</time>
      </trkpt>
      <trkpt lat="-12.1414490" lon="-76.6126850">
        <ele>2266.2</ele>
        <time>2021-05-30T15:54:18Z</time>
      </trkpt>
      <trkpt lat="-12.1414450" lon="-76.6126810">
        <ele>2266.2</ele>
        <time>2021-05-30T15:54:19Z</time>
      </trkpt>
      <trkpt lat="-12.1414390" lon="-76.6126630">
        <ele>2266.1</ele>
        <time>2021-05-30T15:54:21Z</time>
      </trkpt>
      <trkpt lat="-12.1414240" lon="-76.6126240">
        <ele>2265.9</ele>
        <time>2021-05-30T15:54:23Z</time>
      </trkpt>
      <trkpt lat="-12.1414100" lon="-76.6126010">
        <ele>2265.8</ele>
        <time>2021-05-30T15:54:24Z</time>
      </trkpt>
      <trkpt lat="-12.1413930" lon="-76.6125650">
        <ele>2265.7</ele>
        <time>2021-05-30T15:54:26Z</time>
      </trkpt>
      <trkpt lat="-12.1413630" lon="-76.6125140">
        <ele>2265.6</ele>
        <time>2021-05-30T15:54:27Z</time>
      </trkpt>
      <trkpt lat="-12.1413360" lon="-76.6124760">
        <ele>2265.4</ele>
        <time>2021-05-30T15:54:29Z</time>
      </trkpt>
      <trkpt lat="-12.1412970" lon="-76.6124190">
        <ele>2265.3</ele>
        <time>2021-05-30T15:54:30Z</time>
      </trkpt>
      <trkpt lat="-12.1412550" lon="-76.6123610">
        <ele>2265.1</ele>
        <time>2021-05-30T15:54:32Z</time>
      </trkpt>
      <trkpt lat="-12.1412270" lon="-76.6123090">
        <ele>2264.9</ele>
        <time>2021-05-30T15:54:34Z</time>
      </trkpt>
      <trkpt lat="-12.1411770" lon="-76.6121920">
        <ele>2264.5</ele>
        <time>2021-05-30T15:54:36Z</time>
      </trkpt>
      <trkpt lat="-12.1411410" lon="-76.6121310">
        <ele>2264.2</ele>
        <time>2021-05-30T15:54:38Z</time>
      </trkpt>
      <trkpt lat="-12.1411110" lon="-76.6120850">
        <ele>2263.9</ele>
        <time>2021-05-30T15:54:39Z</time>
      </trkpt>
      <trkpt lat="-12.1410780" lon="-76.6120410">
        <ele>2263.5</ele>
        <time>2021-05-30T15:54:40Z</time>
      </trkpt>
      <trkpt lat="-12.1410370" lon="-76.6120010">
        <ele>2263.1</ele>
        <time>2021-05-30T15:54:41Z</time>
      </trkpt>
      <trkpt lat="-12.1409690" lon="-76.6119530">
        <ele>2262.4</ele>
        <time>2021-05-30T15:54:43Z</time>
      </trkpt>
      <trkpt lat="-12.1408680" lon="-76.6118920">
        <ele>2261.6</ele>
        <time>2021-05-30T15:54:45Z</time>
      </trkpt>
      <trkpt lat="-12.1407690" lon="-76.6118290">
        <ele>2260.9</ele>
        <time>2021-05-30T15:54:47Z</time>
      </trkpt>
      <trkpt lat="-12.1407190" lon="-76.6117940">
        <ele>2260.6</ele>
        <time>2021-05-30T15:54:48Z</time>
      </trkpt>
      <trkpt lat="-12.1406380" lon="-76.6117140">
        <ele>2260.2</ele>
        <time>2021-05-30T15:54:50Z</time>
      </trkpt>
      <trkpt lat="-12.1405900" lon="-76.6116170">
        <ele>2259.6</ele>
        <time>2021-05-30T15:54:52Z</time>
      </trkpt>
      <trkpt lat="-12.1405800" lon="-76.6115600">
        <ele>2259.3</ele>
        <time>2021-05-30T15:54:53Z</time>
      </trkpt>
      <trkpt lat="-12.1405520" lon="-76.6114570">
        <ele>2258.7</ele>
        <time>2021-05-30T15:54:55Z</time>
      </trkpt>
      <trkpt lat="-12.1405240" lon="-76.6114200">
        <ele>2258.5</ele>
        <time>2021-05-30T15:54:56Z</time>
      </trkpt>
      <trkpt lat="-12.1404740" lon="-76.6113730">
        <ele>2258.3</ele>
        <time>2021-05-30T15:54:58Z</time>
      </trkpt>
      <trkpt lat="-12.1404210" lon="-76.6113220">
        <ele>2258.0</ele>
        <time>2021-05-30T15:55:00Z</time>
      </trkpt>
      <trkpt lat="-12.1403970" lon="-76.6112940">
        <ele>2257.8</ele>
        <time>2021-05-30T15:55:01Z</time>
      </trkpt>
      <trkpt lat="-12.1403580" lon="-76.6112460">
        <ele>2257.7</ele>
        <time>2021-05-30T15:55:03Z</time>
      </trkpt>
      <trkpt lat="-12.1403560" lon="-76.6112120">
        <ele>2257.6</ele>
        <time>2021-05-30T15:55:04Z</time>
      </trkpt>
      <trkpt lat="-12.1403540" lon="-76.6111690">
        <ele>2257.5</ele>
        <time>2021-05-30T15:55:05Z</time>
      </trkpt>
      <trkpt lat="-12.1403490" lon="-76.6111370">
        <ele>2257.4</ele>
        <time>2021-05-30T15:55:06Z</time>
      </trkpt>
      <trkpt lat="-12.1403550" lon="-76.6110830">
        <ele>2257.0</ele>
        <time>2021-05-30T15:55:08Z</time>
      </trkpt>
      <trkpt lat="-12.1403570" lon="-76.6110610">
        <ele>2256.9</ele>
        <time>2021-05-30T15:55:09Z</time>
      </trkpt>
      <trkpt lat="-12.1403580" lon="-76.6110380">
        <ele>2256.7</ele>
        <time>2021-05-30T15:55:10Z</time>
      </trkpt>
      <trkpt lat="-12.1403630" lon="-76.6109960">
        <ele>2256.4</ele>
        <time>2021-05-30T15:55:12Z</time>
      </trkpt>
      <trkpt lat="-12.1403630" lon="-76.6109660">
        <ele>2256.1</ele>
        <time>2021-05-30T15:55:13Z</time>
      </trkpt>
      <trkpt lat="-12.1403570" lon="-76.6109330">
        <ele>2255.8</ele>
        <time>2021-05-30T15:55:14Z</time>
      </trkpt>
      <trkpt lat="-12.1403440" lon="-76.6108960">
        <ele>2255.4</ele>
        <time>2021-05-30T15:55:15Z</time>
      </trkpt>
      <trkpt lat="-12.1403270" lon="-76.6108510">
        <ele>2255.0</ele>
        <time>2021-05-30T15:55:16Z</time>
      </trkpt>
      <trkpt lat="-12.1402770" lon="-76.6107690">
        <ele>2254.3</ele>
        <time>2021-05-30T15:55:18Z</time>
      </trkpt>
      <trkpt lat="-12.1401970" lon="-76.6106510">
        <ele>2253.9</ele>
        <time>2021-05-30T15:55:20Z</time>
      </trkpt>
      <trkpt lat="-12.1401480" lon="-76.6105270">
        <ele>2254.0</ele>
        <time>2021-05-30T15:55:22Z</time>
      </trkpt>
      <trkpt lat="-12.1401410" lon="-76.6104700">
        <ele>2254.2</ele>
        <time>2021-05-30T15:55:23Z</time>
      </trkpt>
      <trkpt lat="-12.1401530" lon="-76.6103630">
        <ele>2254.7</ele>
        <time>2021-05-30T15:55:25Z</time>
      </trkpt>
      <trkpt lat="-12.1401830" lon="-76.6102910">
        <ele>2254.8</ele>
        <time>2021-05-30T15:55:27Z</time>
      </trkpt>
      <trkpt lat="-12.1401880" lon="-76.6102300">
        <ele>2255.0</ele>
        <time>2021-05-30T15:55:28Z</time>
      </trkpt>
      <trkpt lat="-12.1402130" lon="-76.6101970">
        <ele>2255.0</ele>
        <time>2021-05-30T15:55:29Z</time>
      </trkpt>
      <trkpt lat="-12.1402460" lon="-76.6101580">
        <ele>2255.0</ele>
        <time>2021-05-30T15:55:31Z</time>
      </trkpt>
      <trkpt lat="-12.1402860" lon="-76.6100980">
        <ele>2254.8</ele>
        <time>2021-05-30T15:55:33Z</time>
      </trkpt>
      <trkpt lat="-12.1403070" lon="-76.6100400">
        <ele>2254.4</ele>
        <time>2021-05-30T15:55:34Z</time>
      </trkpt>
      <trkpt lat="-12.1403060" lon="-76.6100060">
        <ele>2254.3</ele>
        <time>2021-05-30T15:55:36Z</time>
      </trkpt>
      <trkpt lat="-12.1403040" lon="-76.6099960">
        <ele>2254.2</ele>
        <time>2021-05-30T15:55:37Z</time>
      </trkpt>
      <trkpt lat="-12.1402990" lon="-76.6099610">
        <ele>2254.0</ele>
        <time>2021-05-30T15:55:38Z</time>
      </trkpt>
      <trkpt lat="-12.1402970" lon="-76.6099310">
        <ele>2253.8</ele>
        <time>2021-05-30T15:55:39Z</time>
      </trkpt>
      <trkpt lat="-12.1402930" lon="-76.6099010">
        <ele>2253.6</ele>
        <time>2021-05-30T15:55:40Z</time>
      </trkpt>
      <trkpt lat="-12.1402900" lon="-76.6098640">
        <ele>2253.4</ele>
        <time>2021-05-30T15:55:42Z</time>
      </trkpt>
      <trkpt lat="-12.1402790" lon="-76.6098200">
        <ele>2253.0</ele>
        <time>2021-05-30T15:55:43Z</time>
      </trkpt>
      <trkpt lat="-12.1402650" lon="-76.6097920">
        <ele>2252.8</ele>
        <time>2021-05-30T15:55:44Z</time>
      </trkpt>
      <trkpt lat="-12.1402320" lon="-76.6097610">
        <ele>2252.5</ele>
        <time>2021-05-30T15:55:46Z</time>
      </trkpt>
      <trkpt lat="-12.1401770" lon="-76.6096600">
        <ele>2251.6</ele>
        <time>2021-05-30T15:55:48Z</time>
      </trkpt>
      <trkpt lat="-12.1401460" lon="-76.6096000">
        <ele>2251.3</ele>
        <time>2021-05-30T15:55:49Z</time>
      </trkpt>
      <trkpt lat="-12.1400830" lon="-76.6094900">
        <ele>2250.9</ele>
        <time>2021-05-30T15:55:51Z</time>
      </trkpt>
      <trkpt lat="-12.1400490" lon="-76.6094440">
        <ele>2251.0</ele>
        <time>2021-05-30T15:55:52Z</time>
      </trkpt>
      <trkpt lat="-12.1400010" lon="-76.6093590">
        <ele>2251.4</ele>
        <time>2021-05-30T15:55:54Z</time>
      </trkpt>
      <trkpt lat="-12.1399690" lon="-76.6093120">
        <ele>2251.8</ele>
        <time>2021-05-30T15:55:55Z</time>
      </trkpt>
      <trkpt lat="-12.1399510" lon="-76.6092680">
        <ele>2252.1</ele>
        <time>2021-05-30T15:55:56Z</time>
      </trkpt>
      <trkpt lat="-12.1399570" lon="-76.6092200">
        <ele>2252.2</ele>
        <time>2021-05-30T15:55:58Z</time>
      </trkpt>
      <trkpt lat="-12.1399610" lon="-76.6091790">
        <ele>2252.2</ele>
        <time>2021-05-30T15:55:59Z</time>
      </trkpt>
      <trkpt lat="-12.1399530" lon="-76.6091180">
        <ele>2252.0</ele>
        <time>2021-05-30T15:56:00Z</time>
      </trkpt>
      <trkpt lat="-12.1399400" lon="-76.6090990">
        <ele>2251.9</ele>
        <time>2021-05-30T15:56:01Z</time>
      </trkpt>
      <trkpt lat="-12.1399160" lon="-76.6090790">
        <ele>2251.8</ele>
        <time>2021-05-30T15:56:03Z</time>
      </trkpt>
      <trkpt lat="-12.1398710" lon="-76.6090550">
        <ele>2251.6</ele>
        <time>2021-05-30T15:56:04Z</time>
      </trkpt>
      <trkpt lat="-12.1398240" lon="-76.6090290">
        <ele>2251.4</ele>
        <time>2021-05-30T15:56:06Z</time>
      </trkpt>
      <trkpt lat="-12.1397830" lon="-76.6090040">
        <ele>2251.2</ele>
        <time>2021-05-30T15:56:07Z</time>
      </trkpt>
      <trkpt lat="-12.1397320" lon="-76.6089790">
        <ele>2251.0</ele>
        <time>2021-05-30T15:56:08Z</time>
      </trkpt>
      <trkpt lat="-12.1396860" lon="-76.6089630">
        <ele>2250.8</ele>
        <time>2021-05-30T15:56:09Z</time>
      </trkpt>
      <trkpt lat="-12.1396080" lon="-76.6089500">
        <ele>2250.4</ele>
        <time>2021-05-30T15:56:11Z</time>
      </trkpt>
      <trkpt lat="-12.1395470" lon="-76.6089270">
        <ele>2250.1</ele>
        <time>2021-05-30T15:56:12Z</time>
      </trkpt>
      <trkpt lat="-12.1394410" lon="-76.6088650">
        <ele>2249.5</ele>
        <time>2021-05-30T15:56:14Z</time>
      </trkpt>
      <trkpt lat="-12.1394000" lon="-76.6088400">
        <ele>2249.4</ele>
        <time>2021-05-30T15:56:15Z</time>
      </trkpt>
      <trkpt lat="-12.1393250" lon="-76.6088080">
        <ele>2249.4</ele>
        <time>2021-05-30T15:56:17Z</time>
      </trkpt>
      <trkpt lat="-12.1391910" lon="-76.6087910">
        <ele>2249.3</ele>
        <time>2021-05-30T15:56:19Z</time>
      </trkpt>
      <trkpt lat="-12.1391270" lon="-76.6087960">
        <ele>2249.1</ele>
        <time>2021-05-30T15:56:20Z</time>
      </trkpt>
      <trkpt lat="-12.1389980" lon="-76.6088250">
        <ele>2248.5</ele>
        <time>2021-05-30T15:56:22Z</time>
      </trkpt>
      <trkpt lat="-12.1389380" lon="-76.6088390">
        <ele>2248.3</ele>
        <time>2021-05-30T15:56:23Z</time>
      </trkpt>
      <trkpt lat="-12.1388750" lon="-76.6088460">
        <ele>2248.1</ele>
        <time>2021-05-30T15:56:24Z</time>
      </trkpt>
      <trkpt lat="-12.1387500" lon="-76.6088430">
        <ele>2247.8</ele>
        <time>2021-05-30T15:56:26Z</time>
      </trkpt>
      <trkpt lat="-12.1386360" lon="-76.6088190">
        <ele>2247.3</ele>
        <time>2021-05-30T15:56:28Z</time>
      </trkpt>
      <trkpt lat="-12.1385890" lon="-76.6088150">
        <ele>2247.1</ele>
        <time>2021-05-30T15:56:29Z</time>
      </trkpt>
      <trkpt lat="-12.1385440" lon="-76.6088280">
        <ele>2246.8</ele>
        <time>2021-05-30T15:56:30Z</time>
      </trkpt>
      <trkpt lat="-12.1384570" lon="-76.6088780">
        <ele>2246.2</ele>
        <time>2021-05-30T15:56:32Z</time>
      </trkpt>
      <trkpt lat="-12.1383680" lon="-76.6089210">
        <ele>2245.6</ele>
        <time>2021-05-30T15:56:34Z</time>
      </trkpt>
      <trkpt lat="-12.1382830" lon="-76.6089540">
        <ele>2245.1</ele>
        <time>2021-05-30T15:56:36Z</time>
      </trkpt>
      <trkpt lat="-12.1382370" lon="-76.6089540">
        <ele>2244.9</ele>
        <time>2021-05-30T15:56:37Z</time>
      </trkpt>
      <trkpt lat="-12.1382020" lon="-76.6089500">
        <ele>2244.8</ele>
        <time>2021-05-30T15:56:38Z</time>
      </trkpt>
      <trkpt lat="-12.1382170" lon="-76.6089530">
        <ele>2244.8</ele>
        <time>2021-05-30T15:56:39Z</time>
      </trkpt>
      <trkpt lat="-12.1381670" lon="-76.6089380">
        <ele>2244.6</ele>
        <time>2021-05-30T15:56:40Z</time>
      </trkpt>
      <trkpt lat="-12.1381090" lon="-76.6089530">
        <ele>2244.4</ele>
        <time>2021-05-30T15:56:41Z</time>
      </trkpt>
      <trkpt lat="-12.1380530" lon="-76.6089790">
        <ele>2244.1</ele>
        <time>2021-05-30T15:56:42Z</time>
      </trkpt>
      <trkpt lat="-12.1380090" lon="-76.6089980">
        <ele>2243.8</ele>
        <time>2021-05-30T15:56:43Z</time>
      </trkpt>
      <trkpt lat="-12.1379480" lon="-76.6090210">
        <ele>2243.4</ele>
        <time>2021-05-30T15:56:45Z</time>
      </trkpt>
      <trkpt lat="-12.1378900" lon="-76.6090270">
        <ele>2243.1</ele>
        <time>2021-05-30T15:56:46Z</time>
      </trkpt>
      <trkpt lat="-12.1378320" lon="-76.6090370">
        <ele>2242.8</ele>
        <time>2021-05-30T15:56:47Z</time>
      </trkpt>
      <trkpt lat="-12.1377050" lon="-76.6090620">
        <ele>2242.2</ele>
        <time>2021-05-30T15:56:49Z</time>
      </trkpt>
      <trkpt lat="-12.1376450" lon="-76.6090790">
        <ele>2241.8</ele>
        <time>2021-05-30T15:56:50Z</time>
      </trkpt>
      <trkpt lat="-12.1375920" lon="-76.6091050">
        <ele>2241.5</ele>
        <time>2021-05-30T15:56:51Z</time>
      </trkpt>
      <trkpt lat="-12.1375310" lon="-76.6091280">
        <ele>2241.1</ele>
        <time>2021-05-30T15:56:52Z</time>
      </trkpt>
      <trkpt lat="-12.1374170" lon="-76.6091640">
        <ele>2240.6</ele>
        <time>2021-05-30T15:56:54Z</time>
      </trkpt>
      <trkpt lat="-12.1372940" lon="-76.6091890">
        <ele>2240.2</ele>
        <time>2021-05-30T15:56:56Z</time>
      </trkpt>
      <trkpt lat="-12.1371730" lon="-76.6092080">
        <ele>2239.7</ele>
        <time>2021-05-30T15:56:58Z</time>
      </trkpt>
      <trkpt lat="-12.1371090" lon="-76.6092050">
        <ele>2239.5</ele>
        <time>2021-05-30T15:56:59Z</time>
      </trkpt>
      <trkpt lat="-12.1370490" lon="-76.6091870">
        <ele>2239.2</ele>
        <time>2021-05-30T15:57:00Z</time>
      </trkpt>
      <trkpt lat="-12.1369910" lon="-76.6091570">
        <ele>2238.9</ele>
        <time>2021-05-30T15:57:01Z</time>
      </trkpt>
      <trkpt lat="-12.1368590" lon="-76.6091080">
        <ele>2238.2</ele>
        <time>2021-05-30T15:57:03Z</time>
      </trkpt>
      <trkpt lat="-12.1367400" lon="-76.6090510">
        <ele>2237.7</ele>
        <time>2021-05-30T15:57:05Z</time>
      </trkpt>
      <trkpt lat="-12.1366300" lon="-76.6089770">
        <ele>2237.4</ele>
        <time>2021-05-30T15:57:07Z</time>
      </trkpt>
      <trkpt lat="-12.1365770" lon="-76.6089390">
        <ele>2237.4</ele>
        <time>2021-05-30T15:57:08Z</time>
      </trkpt>
      <trkpt lat="-12.1365230" lon="-76.6089020">
        <ele>2237.3</ele>
        <time>2021-05-30T15:57:09Z</time>
      </trkpt>
      <trkpt lat="-12.1364730" lon="-76.6088720">
        <ele>2237.3</ele>
        <time>2021-05-30T15:57:10Z</time>
      </trkpt>
      <trkpt lat="-12.1363910" lon="-76.6088420">
        <ele>2237.2</ele>
        <time>2021-05-30T15:57:12Z</time>
      </trkpt>
      <trkpt lat="-12.1363520" lon="-76.6088380">
        <ele>2237.1</ele>
        <time>2021-05-30T15:57:13Z</time>
      </trkpt>
      <trkpt lat="-12.1363350" lon="-76.6088330">
        <ele>2237.0</ele>
        <time>2021-05-30T15:57:14Z</time>
      </trkpt>
      <trkpt lat="-12.1362980" lon="-76.6087950">
        <ele>2236.9</ele>
        <time>2021-05-30T15:57:16Z</time>
      </trkpt>
      <trkpt lat="-12.1362890" lon="-76.6087640">
        <ele>2236.8</ele>
        <time>2021-05-30T15:57:17Z</time>
      </trkpt>
      <trkpt lat="-12.1362900" lon="-76.6087310">
        <ele>2236.7</ele>
        <time>2021-05-30T15:57:18Z</time>
      </trkpt>
      <trkpt lat="-12.1362950" lon="-76.6086980">
        <ele>2236.6</ele>
        <time>2021-05-30T15:57:19Z</time>
      </trkpt>
      <trkpt lat="-12.1362960" lon="-76.6086570">
        <ele>2236.4</ele>
        <time>2021-05-30T15:57:20Z</time>
      </trkpt>
      <trkpt lat="-12.1363220" lon="-76.6086170">
        <ele>2236.2</ele>
        <time>2021-05-30T15:57:21Z</time>
      </trkpt>
      <trkpt lat="-12.1363300" lon="-76.6085970">
        <ele>2236.2</ele>
        <time>2021-05-30T15:57:22Z</time>
      </trkpt>
      <trkpt lat="-12.1363450" lon="-76.6085580">
        <ele>2236.0</ele>
        <time>2021-05-30T15:57:24Z</time>
      </trkpt>
      <trkpt lat="-12.1363570" lon="-76.6085150">
        <ele>2235.8</ele>
        <time>2021-05-30T15:57:25Z</time>
      </trkpt>
      <trkpt lat="-12.1363640" lon="-76.6084730">
        <ele>2235.7</ele>
        <time>2021-05-30T15:57:26Z</time>
      </trkpt>
      <trkpt lat="-12.1363680" lon="-76.6084290">
        <ele>2235.5</ele>
        <time>2021-05-30T15:57:28Z</time>
      </trkpt>
      <trkpt lat="-12.1363670" lon="-76.6084000">
        <ele>2235.4</ele>
        <time>2021-05-30T15:57:29Z</time>
      </trkpt>
      <trkpt lat="-12.1363630" lon="-76.6083540">
        <ele>2235.2</ele>
        <time>2021-05-30T15:57:30Z</time>
      </trkpt>
      <trkpt lat="-12.1363600" lon="-76.6083340">
        <ele>2235.1</ele>
        <time>2021-05-30T15:57:31Z</time>
      </trkpt>
      <trkpt lat="-12.1363570" lon="-76.6082700">
        <ele>2234.9</ele>
        <time>2021-05-30T15:57:33Z</time>
      </trkpt>
      <trkpt lat="-12.1363640" lon="-76.6082070">
        <ele>2234.8</ele>
        <time>2021-05-30T15:57:34Z</time>
      </trkpt>
      <trkpt lat="-12.1363750" lon="-76.6081650">
        <ele>2234.7</ele>
        <time>2021-05-30T15:57:35Z</time>
      </trkpt>
      <trkpt lat="-12.1363970" lon="-76.6081060">
        <ele>2234.5</ele>
        <time>2021-05-30T15:57:37Z</time>
      </trkpt>
      <trkpt lat="-12.1364290" lon="-76.6080470">
        <ele>2234.3</ele>
        <time>2021-05-30T15:57:38Z</time>
      </trkpt>
      <trkpt lat="-12.1364600" lon="-76.6080140">
        <ele>2234.2</ele>
        <time>2021-05-30T15:57:39Z</time>
      </trkpt>
      <trkpt lat="-12.1364950" lon="-76.6079860">
        <ele>2234.0</ele>
        <time>2021-05-30T15:57:40Z</time>
      </trkpt>
      <trkpt lat="-12.1366240" lon="-76.6079770">
        <ele>2233.5</ele>
        <time>2021-05-30T15:57:42Z</time>
      </trkpt>
      <trkpt lat="-12.1367250" lon="-76.6079210">
        <ele>2233.0</ele>
        <time>2021-05-30T15:57:44Z</time>
      </trkpt>
      <trkpt lat="-12.1367740" lon="-76.6079030">
        <ele>2232.8</ele>
        <time>2021-05-30T15:57:45Z</time>
      </trkpt>
      <trkpt lat="-12.1368090" lon="-76.6078920">
        <ele>2232.6</ele>
        <time>2021-05-30T15:57:46Z</time>
      </trkpt>
      <trkpt lat="-12.1368310" lon="-76.6078610">
        <ele>2232.4</ele>
        <time>2021-05-30T15:57:47Z</time>
      </trkpt>
      <trkpt lat="-12.1368270" lon="-76.6077870">
        <ele>2232.1</ele>
        <time>2021-05-30T15:57:49Z</time>
      </trkpt>
      <trkpt lat="-12.1368210" lon="-76.6077500">
        <ele>2231.9</ele>
        <time>2021-05-30T15:57:50Z</time>
      </trkpt>
      <trkpt lat="-12.1368100" lon="-76.6077150">
        <ele>2231.8</ele>
        <time>2021-05-30T15:57:51Z</time>
      </trkpt>
      <trkpt lat="-12.1367990" lon="-76.6076780">
        <ele>2231.5</ele>
        <time>2021-05-30T15:57:53Z</time>
      </trkpt>
      <trkpt lat="-12.1367860" lon="-76.6076510">
        <ele>2231.3</ele>
        <time>2021-05-30T15:57:54Z</time>
      </trkpt>
      <trkpt lat="-12.1367590" lon="-76.6076070">
        <ele>2231.0</ele>
        <time>2021-05-30T15:57:55Z</time>
      </trkpt>
      <trkpt lat="-12.1367390" lon="-76.6075750">
        <ele>2230.8</ele>
        <time>2021-05-30T15:57:56Z</time>
      </trkpt>
      <trkpt lat="-12.1367220" lon="-76.6075450">
        <ele>2230.6</ele>
        <time>2021-05-30T15:57:58Z</time>
      </trkpt>
      <trkpt lat="-12.1366990" lon="-76.6075040">
        <ele>2230.4</ele>
        <time>2021-05-30T15:58:00Z</time>
      </trkpt>
      <trkpt lat="-12.1366850" lon="-76.6074750">
        <ele>2230.2</ele>
        <time>2021-05-30T15:58:01Z</time>
      </trkpt>
      <trkpt lat="-12.1366750" lon="-76.6074360">
        <ele>2230.1</ele>
        <time>2021-05-30T15:58:02Z</time>
      </trkpt>
      <trkpt lat="-12.1366680" lon="-76.6073810">
        <ele>2229.8</ele>
        <time>2021-05-30T15:58:03Z</time>
      </trkpt>
      <trkpt lat="-12.1366660" lon="-76.6073350">
        <ele>2229.6</ele>
        <time>2021-05-30T15:58:04Z</time>
      </trkpt>
      <trkpt lat="-12.1366680" lon="-76.6072880">
        <ele>2229.4</ele>
        <time>2021-05-30T15:58:05Z</time>
      </trkpt>
      <trkpt lat="-12.1366720" lon="-76.6072210">
        <ele>2229.1</ele>
        <time>2021-05-30T15:58:07Z</time>
      </trkpt>
      <trkpt lat="-12.1366660" lon="-76.6071720">
        <ele>2228.9</ele>
        <time>2021-05-30T15:58:08Z</time>
      </trkpt>
      <trkpt lat="-12.1366800" lon="-76.6071880">
        <ele>2228.8</ele>
        <time>2021-05-30T15:58:09Z</time>
      </trkpt>
      <trkpt lat="-12.1366490" lon="-76.6071690">
        <ele>2228.7</ele>
        <time>2021-05-30T15:58:10Z</time>
      </trkpt>
      <trkpt lat="-12.1366270" lon="-76.6071170">
        <ele>2228.4</ele>
        <time>2021-05-30T15:58:12Z</time>
      </trkpt>
      <trkpt lat="-12.1366090" lon="-76.6070570">
        <ele>2228.0</ele>
        <time>2021-05-30T15:58:13Z</time>
      </trkpt>
      <trkpt lat="-12.1365870" lon="-76.6070020">
        <ele>2227.7</ele>
        <time>2021-05-30T15:58:15Z</time>
      </trkpt>
      <trkpt lat="-12.1365630" lon="-76.6069400">
        <ele>2227.3</ele>
        <time>2021-05-30T15:58:16Z</time>
      </trkpt>
      <trkpt lat="-12.1365540" lon="-76.6068880">
        <ele>2227.0</ele>
        <time>2021-05-30T15:58:17Z</time>
      </trkpt>
      <trkpt lat="-12.1365590" lon="-76.6068370">
        <ele>2226.8</ele>
        <time>2021-05-30T15:58:19Z</time>
      </trkpt>
      <trkpt lat="-12.1365720" lon="-76.6067800">
        <ele>2226.4</ele>
        <time>2021-05-30T15:58:20Z</time>
      </trkpt>
      <trkpt lat="-12.1365870" lon="-76.6067420">
        <ele>2226.1</ele>
        <time>2021-05-30T15:58:22Z</time>
      </trkpt>
      <trkpt lat="-12.1366090" lon="-76.6067090">
        <ele>2225.9</ele>
        <time>2021-05-30T15:58:23Z</time>
      </trkpt>
      <trkpt lat="-12.1366400" lon="-76.6066750">
        <ele>2225.6</ele>
        <time>2021-05-30T15:58:24Z</time>
      </trkpt>
      <trkpt lat="-12.1366710" lon="-76.6066330">
        <ele>2225.3</ele>
        <time>2021-05-30T15:58:26Z</time>
      </trkpt>
      <trkpt lat="-12.1367000" lon="-76.6065910">
        <ele>2225.0</ele>
        <time>2021-05-30T15:58:27Z</time>
      </trkpt>
      <trkpt lat="-12.1367330" lon="-76.6065560">
        <ele>2224.7</ele>
        <time>2021-05-30T15:58:29Z</time>
      </trkpt>
      <trkpt lat="-12.1367470" lon="-76.6065390">
        <ele>2224.6</ele>
        <time>2021-05-30T15:58:30Z</time>
      </trkpt>
      <trkpt lat="-12.1367780" lon="-76.6064990">
        <ele>2224.3</ele>
        <time>2021-05-30T15:58:31Z</time>
      </trkpt>
      <trkpt lat="-12.1368160" lon="-76.6064340">
        <ele>2223.8</ele>
        <time>2021-05-30T15:58:33Z</time>
      </trkpt>
      <trkpt lat="-12.1368400" lon="-76.6063930">
        <ele>2223.5</ele>
        <time>2021-05-30T15:58:34Z</time>
      </trkpt>
      <trkpt lat="-12.1368800" lon="-76.6062920">
        <ele>2222.8</ele>
        <time>2021-05-30T15:58:36Z</time>
      </trkpt>
      <trkpt lat="-12.1368950" lon="-76.6062440">
        <ele>2222.5</ele>
        <time>2021-05-30T15:58:37Z</time>
      </trkpt>
      <trkpt lat="-12.1369160" lon="-76.6061760">
        <ele>2222.1</ele>
        <time>2021-05-30T15:58:38Z</time>
      </trkpt>
      <trkpt lat="-12.1369290" lon="-76.6061360">
        <ele>2221.9</ele>
        <time>2021-05-30T15:58:39Z</time>
      </trkpt>
      <trkpt lat="-12.1369490" lon="-76.6060980">
        <ele>2221.7</ele>
        <time>2021-05-30T15:58:40Z</time>
      </trkpt>
      <trkpt lat="-12.1369800" lon="-76.6060540">
        <ele>2221.5</ele>
        <time>2021-05-30T15:58:42Z</time>
      </trkpt>
      <trkpt lat="-12.1370160" lon="-76.6060180">
        <ele>2221.4</ele>
        <time>2021-05-30T15:58:43Z</time>
      </trkpt>
      <trkpt lat="-12.1370550" lon="-76.6059850">
        <ele>2221.3</ele>
        <time>2021-05-30T15:58:44Z</time>
      </trkpt>
      <trkpt lat="-12.1371300" lon="-76.6059040">
        <ele>2221.0</ele>
        <time>2021-05-30T15:58:46Z</time>
      </trkpt>
      <trkpt lat="-12.1371580" lon="-76.6058500">
        <ele>2220.8</ele>
        <time>2021-05-30T15:58:47Z</time>
      </trkpt>
      <trkpt lat="-12.1371750" lon="-76.6057970">
        <ele>2220.7</ele>
        <time>2021-05-30T15:58:48Z</time>
      </trkpt>
      <trkpt lat="-12.1371930" lon="-76.6057520">
        <ele>2220.5</ele>
        <time>2021-05-30T15:58:49Z</time>
      </trkpt>
      <trkpt lat="-12.1371770" lon="-76.6056450">
        <ele>2220.2</ele>
        <time>2021-05-30T15:58:51Z</time>
      </trkpt>
      <trkpt lat="-12.1371800" lon="-76.6055850">
        <ele>2220.0</ele>
        <time>2021-05-30T15:58:52Z</time>
      </trkpt>
      <trkpt lat="-12.1371910" lon="-76.6055290">
        <ele>2219.8</ele>
        <time>2021-05-30T15:58:53Z</time>
      </trkpt>
      <trkpt lat="-12.1372060" lon="-76.6054740">
        <ele>2219.6</ele>
        <time>2021-05-30T15:58:54Z</time>
      </trkpt>
      <trkpt lat="-12.1372680" lon="-76.6053850">
        <ele>2219.2</ele>
        <time>2021-05-30T15:58:56Z</time>
      </trkpt>
      <trkpt lat="-12.1373440" lon="-76.6053120">
        <ele>2218.9</ele>
        <time>2021-05-30T15:58:58Z</time>
      </trkpt>
      <trkpt lat="-12.1373850" lon="-76.6052680">
        <ele>2218.7</ele>
        <time>2021-05-30T15:58:59Z</time>
      </trkpt>
      <trkpt lat="-12.1374260" lon="-76.6052250">
        <ele>2218.4</ele>
        <time>2021-05-30T15:59:00Z</time>
      </trkpt>
      <trkpt lat="-12.1375020" lon="-76.6051090">
        <ele>2217.9</ele>
        <time>2021-05-30T15:59:02Z</time>
      </trkpt>
      <trkpt lat="-12.1375290" lon="-76.6050520">
        <ele>2217.7</ele>
        <time>2021-05-30T15:59:03Z</time>
      </trkpt>
      <trkpt lat="-12.1375570" lon="-76.6049970">
        <ele>2217.6</ele>
        <time>2021-05-30T15:59:04Z</time>
      </trkpt>
      <trkpt lat="-12.1376210" lon="-76.6049070">
        <ele>2217.4</ele>
        <time>2021-05-30T15:59:06Z</time>
      </trkpt>
      <trkpt lat="-12.1376980" lon="-76.6048400">
        <ele>2217.3</ele>
        <time>2021-05-30T15:59:08Z</time>
      </trkpt>
      <trkpt lat="-12.1377760" lon="-76.6047740">
        <ele>2217.0</ele>
        <time>2021-05-30T15:59:10Z</time>
      </trkpt>
      <trkpt lat="-12.1378070" lon="-76.6047280">
        <ele>2216.8</ele>
        <time>2021-05-30T15:59:11Z</time>
      </trkpt>
      <trkpt lat="-12.1378270" lon="-76.6046520">
        <ele>2216.4</ele>
        <time>2021-05-30T15:59:13Z</time>
      </trkpt>
      <trkpt lat="-12.1377860" lon="-76.6045710">
        <ele>2215.9</ele>
        <time>2021-05-30T15:59:15Z</time>
      </trkpt>
      <trkpt lat="-12.1377200" lon="-76.6045090">
        <ele>2215.4</ele>
        <time>2021-05-30T15:59:17Z</time>
      </trkpt>
      <trkpt lat="-12.1376710" lon="-76.6044920">
        <ele>2215.2</ele>
        <time>2021-05-30T15:59:18Z</time>
      </trkpt>
      <trkpt lat="-12.1376480" lon="-76.6044620">
        <ele>2215.1</ele>
        <time>2021-05-30T15:59:19Z</time>
      </trkpt>
      <trkpt lat="-12.1376330" lon="-76.6044150">
        <ele>2214.9</ele>
        <time>2021-05-30T15:59:21Z</time>
      </trkpt>
      <trkpt lat="-12.1376320" lon="-76.6043720">
        <ele>2214.8</ele>
        <time>2021-05-30T15:59:22Z</time>
      </trkpt>
      <trkpt lat="-12.1376400" lon="-76.6043310">
        <ele>2214.7</ele>
        <time>2021-05-30T15:59:24Z</time>
      </trkpt>
      <trkpt lat="-12.1376460" lon="-76.6043020">
        <ele>2214.6</ele>
        <time>2021-05-30T15:59:25Z</time>
      </trkpt>
      <trkpt lat="-12.1376620" lon="-76.6042620">
        <ele>2214.4</ele>
        <time>2021-05-30T15:59:26Z</time>
      </trkpt>
      <trkpt lat="-12.1376850" lon="-76.6042350">
        <ele>2214.3</ele>
        <time>2021-05-30T15:59:27Z</time>
      </trkpt>
      <trkpt lat="-12.1377120" lon="-76.6042100">
        <ele>2214.2</ele>
        <time>2021-05-30T15:59:28Z</time>
      </trkpt>
      <trkpt lat="-12.1377470" lon="-76.6041870">
        <ele>2214.0</ele>
        <time>2021-05-30T15:59:30Z</time>
      </trkpt>
      <trkpt lat="-12.1377840" lon="-76.6041640">
        <ele>2213.9</ele>
        <time>2021-05-30T15:59:31Z</time>
      </trkpt>
      <trkpt lat="-12.1378230" lon="-76.6041440">
        <ele>2213.8</ele>
        <time>2021-05-30T15:59:32Z</time>
      </trkpt>
      <trkpt lat="-12.1378610" lon="-76.6041220">
        <ele>2213.7</ele>
        <time>2021-05-30T15:59:34Z</time>
      </trkpt>
      <trkpt lat="-12.1378950" lon="-76.6041030">
        <ele>2213.6</ele>
        <time>2021-05-30T15:59:35Z</time>
      </trkpt>
      <trkpt lat="-12.1379450" lon="-76.6040660">
        <ele>2213.6</ele>
        <time>2021-05-30T15:59:37Z</time>
      </trkpt>
      <trkpt lat="-12.1379700" lon="-76.6040430">
        <ele>2213.5</ele>
        <time>2021-05-30T15:59:38Z</time>
      </trkpt>
      <trkpt lat="-12.1380050" lon="-76.6040000">
        <ele>2213.5</ele>
        <time>2021-05-30T15:59:40Z</time>
      </trkpt>
      <trkpt lat="-12.1380260" lon="-76.6039740">
        <ele>2213.5</ele>
        <time>2021-05-30T15:59:41Z</time>
      </trkpt>
      <trkpt lat="-12.1380400" lon="-76.6039510">
        <ele>2213.4</ele>
        <time>2021-05-30T15:59:42Z</time>
      </trkpt>
      <trkpt lat="-12.1380650" lon="-76.6038980">
        <ele>2213.4</ele>
        <time>2021-05-30T15:59:44Z</time>
      </trkpt>
      <trkpt lat="-12.1380770" lon="-76.6038570">
        <ele>2213.3</ele>
        <time>2021-05-30T15:59:46Z</time>
      </trkpt>
      <trkpt lat="-12.1380830" lon="-76.6038100">
        <ele>2213.2</ele>
        <time>2021-05-30T15:59:47Z</time>
      </trkpt>
      <trkpt lat="-12.1380860" lon="-76.6037880">
        <ele>2213.2</ele>
        <time>2021-05-30T15:59:48Z</time>
      </trkpt>
      <trkpt lat="-12.1380900" lon="-76.6037650">
        <ele>2213.1</ele>
        <time>2021-05-30T15:59:50Z</time>
      </trkpt>
      <trkpt lat="-12.1380940" lon="-76.6037330">
        <ele>2213.0</ele>
        <time>2021-05-30T15:59:51Z</time>
      </trkpt>
      <trkpt lat="-12.1380950" lon="-76.6037190">
        <ele>2212.9</ele>
        <time>2021-05-30T15:59:52Z</time>
      </trkpt>
      <trkpt lat="-12.1380910" lon="-76.6036920">
        <ele>2212.8</ele>
        <time>2021-05-30T15:59:53Z</time>
      </trkpt>
      <trkpt lat="-12.1380720" lon="-76.6036500">
        <ele>2212.6</ele>
        <time>2021-05-30T15:59:55Z</time>
      </trkpt>
      <trkpt lat="-12.1380620" lon="-76.6036370">
        <ele>2212.5</ele>
        <time>2021-05-30T15:59:56Z</time>
      </trkpt>
      <trkpt lat="-12.1380520" lon="-76.6036240">
        <ele>2212.4</ele>
        <time>2021-05-30T15:59:57Z</time>
      </trkpt>
      <trkpt lat="-12.1380280" lon="-76.6036030">
        <ele>2212.2</ele>
        <time>2021-05-30T15:59:58Z</time>
      </trkpt>
      <trkpt lat="-12.1380020" lon="-76.6035850">
        <ele>2212.0</ele>
        <time>2021-05-30T15:59:59Z</time>
      </trkpt>
      <trkpt lat="-12.1379710" lon="-76.6035660">
        <ele>2211.8</ele>
        <time>2021-05-30T16:00:01Z</time>
      </trkpt>
      <trkpt lat="-12.1379270" lon="-76.6035470">
        <ele>2211.5</ele>
        <time>2021-05-30T16:00:02Z</time>
      </trkpt>
      <trkpt lat="-12.1378830" lon="-76.6035330">
        <ele>2211.2</ele>
        <time>2021-05-30T16:00:04Z</time>
      </trkpt>
      <trkpt lat="-12.1378370" lon="-76.6035240">
        <ele>2210.9</ele>
        <time>2021-05-30T16:00:05Z</time>
      </trkpt>
      <trkpt lat="-12.1377890" lon="-76.6035210">
        <ele>2210.7</ele>
        <time>2021-05-30T16:00:07Z</time>
      </trkpt>
      <trkpt lat="-12.1377160" lon="-76.6035130">
        <ele>2210.2</ele>
        <time>2021-05-30T16:00:09Z</time>
      </trkpt>
      <trkpt lat="-12.1376480" lon="-76.6034960">
        <ele>2209.8</ele>
        <time>2021-05-30T16:00:10Z</time>
      </trkpt>
      <trkpt lat="-12.1375430" lon="-76.6034480">
        <ele>2209.1</ele>
        <time>2021-05-30T16:00:12Z</time>
      </trkpt>
      <trkpt lat="-12.1374280" lon="-76.6033920">
        <ele>2208.3</ele>
        <time>2021-05-30T16:00:14Z</time>
      </trkpt>
      <trkpt lat="-12.1372930" lon="-76.6033550">
        <ele>2207.5</ele>
        <time>2021-05-30T16:00:16Z</time>
      </trkpt>
      <trkpt lat="-12.1372270" lon="-76.6033340">
        <ele>2207.1</ele>
        <time>2021-05-30T16:00:17Z</time>
      </trkpt>
      <trkpt lat="-12.1371180" lon="-76.6033000">
        <ele>2206.4</ele>
        <time>2021-05-30T16:00:19Z</time>
      </trkpt>
      <trkpt lat="-12.1370230" lon="-76.6032990">
        <ele>2205.8</ele>
        <time>2021-05-30T16:00:21Z</time>
      </trkpt>
      <trkpt lat="-12.1369910" lon="-76.6033070">
        <ele>2205.6</ele>
        <time>2021-05-30T16:00:22Z</time>
      </trkpt>
      <trkpt lat="-12.1369410" lon="-76.6033030">
        <ele>2205.3</ele>
        <time>2021-05-30T16:00:23Z</time>
      </trkpt>
      <trkpt lat="-12.1369000" lon="-76.6033330">
        <ele>2205.0</ele>
        <time>2021-05-30T16:00:25Z</time>
      </trkpt>
      <trkpt lat="-12.1368790" lon="-76.6033550">
        <ele>2204.9</ele>
        <time>2021-05-30T16:00:26Z</time>
      </trkpt>
      <trkpt lat="-12.1368490" lon="-76.6033830">
        <ele>2204.6</ele>
        <time>2021-05-30T16:00:28Z</time>
      </trkpt>
      <trkpt lat="-12.1368250" lon="-76.6034050">
        <ele>2204.4</ele>
        <time>2021-05-30T16:00:29Z</time>
      </trkpt>
      <trkpt lat="-12.1367960" lon="-76.6034260">
        <ele>2204.2</ele>
        <time>2021-05-30T16:00:30Z</time>
      </trkpt>
      <trkpt lat="-12.1367660" lon="-76.6034430">
        <ele>2204.0</ele>
        <time>2021-05-30T16:00:31Z</time>
      </trkpt>
      <trkpt lat="-12.1367400" lon="-76.6034540">
        <ele>2203.8</ele>
        <time>2021-05-30T16:00:32Z</time>
      </trkpt>
      <trkpt lat="-12.1367140" lon="-76.6034680">
        <ele>2203.7</ele>
        <time>2021-05-30T16:00:34Z</time>
      </trkpt>
      <trkpt lat="-12.1366790" lon="-76.6034840">
        <ele>2203.4</ele>
        <time>2021-05-30T16:00:35Z</time>
      </trkpt>
      <trkpt lat="-12.1366410" lon="-76.6035000">
        <ele>2203.2</ele>
        <time>2021-05-30T16:00:36Z</time>
      </trkpt>
      <trkpt lat="-12.1366000" lon="-76.6035140">
        <ele>2202.9</ele>
        <time>2021-05-30T16:00:38Z</time>
      </trkpt>
      <trkpt lat="-12.1365630" lon="-76.6035280">
        <ele>2202.7</ele>
        <time>2021-05-30T16:00:39Z</time>
      </trkpt>
      <trkpt lat="-12.1365070" lon="-76.6035450">
        <ele>2202.3</ele>
        <time>2021-05-30T16:00:41Z</time>
      </trkpt>
      <trkpt lat="-12.1364590" lon="-76.6035580">
        <ele>2202.0</ele>
        <time>2021-05-30T16:00:42Z</time>
      </trkpt>
      <trkpt lat="-12.1364070" lon="-76.6035720">
        <ele>2201.7</ele>
        <time>2021-05-30T16:00:43Z</time>
      </trkpt>
      <trkpt lat="-12.1363560" lon="-76.6035840">
        <ele>2201.4</ele>
        <time>2021-05-30T16:00:44Z</time>
      </trkpt>
      <trkpt lat="-12.1363110" lon="-76.6035940">
        <ele>2201.1</ele>
        <time>2021-05-30T16:00:45Z</time>
      </trkpt>
      <trkpt lat="-12.1362420" lon="-76.6035930">
        <ele>2200.7</ele>
        <time>2021-05-30T16:00:47Z</time>
      </trkpt>
      <trkpt lat="-12.1361980" lon="-76.6036110">
        <ele>2200.4</ele>
        <time>2021-05-30T16:00:48Z</time>
      </trkpt>
      <trkpt lat="-12.1361250" lon="-76.6036580">
        <ele>2199.9</ele>
        <time>2021-05-30T16:00:50Z</time>
      </trkpt>
      <trkpt lat="-12.1361280" lon="-76.6036810">
        <ele>2199.8</ele>
        <time>2021-05-30T16:00:51Z</time>
      </trkpt>
      <trkpt lat="-12.1360450" lon="-76.6037590">
        <ele>2199.1</ele>
        <time>2021-05-30T16:00:53Z</time>
      </trkpt>
      <trkpt lat="-12.1359190" lon="-76.6037960">
        <ele>2198.3</ele>
        <time>2021-05-30T16:00:55Z</time>
      </trkpt>
      <trkpt lat="-12.1357980" lon="-76.6038300">
        <ele>2197.6</ele>
        <time>2021-05-30T16:00:57Z</time>
      </trkpt>
      <trkpt lat="-12.1357430" lon="-76.6038440">
        <ele>2197.2</ele>
        <time>2021-05-30T16:00:58Z</time>
      </trkpt>
      <trkpt lat="-12.1356320" lon="-76.6038950">
        <ele>2196.5</ele>
        <time>2021-05-30T16:01:00Z</time>
      </trkpt>
      <trkpt lat="-12.1355760" lon="-76.6039370">
        <ele>2196.1</ele>
        <time>2021-05-30T16:01:01Z</time>
      </trkpt>
      <trkpt lat="-12.1355170" lon="-76.6039770">
        <ele>2195.7</ele>
        <time>2021-05-30T16:01:02Z</time>
      </trkpt>
      <trkpt lat="-12.1354630" lon="-76.6040140">
        <ele>2195.3</ele>
        <time>2021-05-30T16:01:03Z</time>
      </trkpt>
      <trkpt lat="-12.1353560" lon="-76.6040660">
        <ele>2194.6</ele>
        <time>2021-05-30T16:01:05Z</time>
      </trkpt>
      <trkpt lat="-12.1352580" lon="-76.6040390">
        <ele>2194.0</ele>
        <time>2021-05-30T16:01:07Z</time>
      </trkpt>
      <trkpt lat="-12.1352130" lon="-76.6040190">
        <ele>2193.7</ele>
        <time>2021-05-30T16:01:08Z</time>
      </trkpt>
      <trkpt lat="-12.1351690" lon="-76.6040030">
        <ele>2193.4</ele>
        <time>2021-05-30T16:01:09Z</time>
      </trkpt>
      <trkpt lat="-12.1350850" lon="-76.6039850">
        <ele>2192.9</ele>
        <time>2021-05-30T16:01:11Z</time>
      </trkpt>
      <trkpt lat="-12.1349850" lon="-76.6040000">
        <ele>2192.3</ele>
        <time>2021-05-30T16:01:13Z</time>
      </trkpt>
      <trkpt lat="-12.1349400" lon="-76.6040170">
        <ele>2192.0</ele>
        <time>2021-05-30T16:01:14Z</time>
      </trkpt>
      <trkpt lat="-12.1349000" lon="-76.6040470">
        <ele>2191.7</ele>
        <time>2021-05-30T16:01:15Z</time>
      </trkpt>
      <trkpt lat="-12.1348810" lon="-76.6040090">
        <ele>2191.4</ele>
        <time>2021-05-30T16:01:16Z</time>
      </trkpt>
      <trkpt lat="-12.1348530" lon="-76.6040260">
        <ele>2191.2</ele>
        <time>2021-05-30T16:01:17Z</time>
      </trkpt>
      <trkpt lat="-12.1347780" lon="-76.6041120">
        <ele>2190.6</ele>
        <time>2021-05-30T16:01:19Z</time>
      </trkpt>
      <trkpt lat="-12.1346690" lon="-76.6041800">
        <ele>2189.8</ele>
        <time>2021-05-30T16:01:21Z</time>
      </trkpt>
      <trkpt lat="-12.1345580" lon="-76.6042220">
        <ele>2189.1</ele>
        <time>2021-05-30T16:01:23Z</time>
      </trkpt>
      <trkpt lat="-12.1345130" lon="-76.6042450">
        <ele>2188.8</ele>
        <time>2021-05-30T16:01:24Z</time>
      </trkpt>
      <trkpt lat="-12.1344730" lon="-76.6042690">
        <ele>2188.5</ele>
        <time>2021-05-30T16:01:25Z</time>
      </trkpt>
      <trkpt lat="-12.1344130" lon="-76.6043010">
        <ele>2188.1</ele>
        <time>2021-05-30T16:01:27Z</time>
      </trkpt>
      <trkpt lat="-12.1343990" lon="-76.6043420">
        <ele>2187.9</ele>
        <time>2021-05-30T16:01:28Z</time>
      </trkpt>
      <trkpt lat="-12.1343740" lon="-76.6043830">
        <ele>2187.6</ele>
        <time>2021-05-30T16:01:29Z</time>
      </trkpt>
      <trkpt lat="-12.1343050" lon="-76.6044470">
        <ele>2187.0</ele>
        <time>2021-05-30T16:01:31Z</time>
      </trkpt>
      <trkpt lat="-12.1342610" lon="-76.6044920">
        <ele>2186.7</ele>
        <time>2021-05-30T16:01:32Z</time>
      </trkpt>
      <trkpt lat="-12.1341730" lon="-76.6045880">
        <ele>2185.9</ele>
        <time>2021-05-30T16:01:34Z</time>
      </trkpt>
      <trkpt lat="-12.1341310" lon="-76.6046340">
        <ele>2185.5</ele>
        <time>2021-05-30T16:01:35Z</time>
      </trkpt>
      <trkpt lat="-12.1340970" lon="-76.6046850">
        <ele>2185.2</ele>
        <time>2021-05-30T16:01:36Z</time>
      </trkpt>
      <trkpt lat="-12.1340460" lon="-76.6047920">
        <ele>2184.5</ele>
        <time>2021-05-30T16:01:38Z</time>
      </trkpt>
      <trkpt lat="-12.1340030" lon="-76.6048750">
        <ele>2183.9</ele>
        <time>2021-05-30T16:01:40Z</time>
      </trkpt>
      <trkpt lat="-12.1339500" lon="-76.6049400">
        <ele>2183.4</ele>
        <time>2021-05-30T16:01:42Z</time>
      </trkpt>
      <trkpt lat="-12.1339190" lon="-76.6049540">
        <ele>2183.2</ele>
        <time>2021-05-30T16:01:43Z</time>
      </trkpt>
      <trkpt lat="-12.1338910" lon="-76.6049460">
        <ele>2183.0</ele>
        <time>2021-05-30T16:01:44Z</time>
      </trkpt>
      <trkpt lat="-12.1338550" lon="-76.6049410">
        <ele>2182.8</ele>
        <time>2021-05-30T16:01:45Z</time>
      </trkpt>
      <trkpt lat="-12.1338200" lon="-76.6049260">
        <ele>2182.6</ele>
        <time>2021-05-30T16:01:46Z</time>
      </trkpt>
      <trkpt lat="-12.1337620" lon="-76.6048970">
        <ele>2182.2</ele>
        <time>2021-05-30T16:01:48Z</time>
      </trkpt>
      <trkpt lat="-12.1337340" lon="-76.6048850">
        <ele>2182.0</ele>
        <time>2021-05-30T16:01:49Z</time>
      </trkpt>
      <trkpt lat="-12.1336890" lon="-76.6048670">
        <ele>2181.7</ele>
        <time>2021-05-30T16:01:51Z</time>
      </trkpt>
      <trkpt lat="-12.1336260" lon="-76.6048610">
        <ele>2181.4</ele>
        <time>2021-05-30T16:01:52Z</time>
      </trkpt>
      <trkpt lat="-12.1335870" lon="-76.6048630">
        <ele>2181.1</ele>
        <time>2021-05-30T16:01:53Z</time>
      </trkpt>
      <trkpt lat="-12.1335480" lon="-76.6048690">
        <ele>2180.9</ele>
        <time>2021-05-30T16:01:54Z</time>
      </trkpt>
      <trkpt lat="-12.1335030" lon="-76.6048780">
        <ele>2180.6</ele>
        <time>2021-05-30T16:01:56Z</time>
      </trkpt>
      <trkpt lat="-12.1334320" lon="-76.6048930">
        <ele>2180.2</ele>
        <time>2021-05-30T16:01:58Z</time>
      </trkpt>
      <trkpt lat="-12.1333980" lon="-76.6049000">
        <ele>2180.0</ele>
        <time>2021-05-30T16:01:59Z</time>
      </trkpt>
      <trkpt lat="-12.1333480" lon="-76.6049060">
        <ele>2179.7</ele>
        <time>2021-05-30T16:02:00Z</time>
      </trkpt>
      <trkpt lat="-12.1333080" lon="-76.6049140">
        <ele>2179.4</ele>
        <time>2021-05-30T16:02:01Z</time>
      </trkpt>
      <trkpt lat="-12.1332710" lon="-76.6049150">
        <ele>2179.2</ele>
        <time>2021-05-30T16:02:03Z</time>
      </trkpt>
      <trkpt lat="-12.1332230" lon="-76.6049060">
        <ele>2178.9</ele>
        <time>2021-05-30T16:02:04Z</time>
      </trkpt>
      <trkpt lat="-12.1331820" lon="-76.6048860">
        <ele>2178.6</ele>
        <time>2021-05-30T16:02:06Z</time>
      </trkpt>
      <trkpt lat="-12.1331270" lon="-76.6048590">
        <ele>2178.3</ele>
        <time>2021-05-30T16:02:07Z</time>
      </trkpt>
      <trkpt lat="-12.1330800" lon="-76.6048430">
        <ele>2178.0</ele>
        <time>2021-05-30T16:02:09Z</time>
      </trkpt>
      <trkpt lat="-12.1330630" lon="-76.6048390">
        <ele>2177.9</ele>
        <time>2021-05-30T16:02:10Z</time>
      </trkpt>
      <trkpt lat="-12.1330470" lon="-76.6048340">
        <ele>2177.8</ele>
        <time>2021-05-30T16:02:11Z</time>
      </trkpt>
      <trkpt lat="-12.1330170" lon="-76.6048450">
        <ele>2177.6</ele>
        <time>2021-05-30T16:02:12Z</time>
      </trkpt>
      <trkpt lat="-12.1330050" lon="-76.6048520">
        <ele>2177.5</ele>
        <time>2021-05-30T16:02:13Z</time>
      </trkpt>
      <trkpt lat="-12.1329770" lon="-76.6048730">
        <ele>2177.3</ele>
        <time>2021-05-30T16:02:15Z</time>
      </trkpt>
      <trkpt lat="-12.1329520" lon="-76.6048920">
        <ele>2177.1</ele>
        <time>2021-05-30T16:02:16Z</time>
      </trkpt>
      <trkpt lat="-12.1329200" lon="-76.6049220">
        <ele>2176.8</ele>
        <time>2021-05-30T16:02:17Z</time>
      </trkpt>
      <trkpt lat="-12.1328870" lon="-76.6049590">
        <ele>2176.5</ele>
        <time>2021-05-30T16:02:19Z</time>
      </trkpt>
      <trkpt lat="-12.1328650" lon="-76.6050000">
        <ele>2176.3</ele>
        <time>2021-05-30T16:02:20Z</time>
      </trkpt>
      <trkpt lat="-12.1328440" lon="-76.6050380">
        <ele>2176.0</ele>
        <time>2021-05-30T16:02:21Z</time>
      </trkpt>
      <trkpt lat="-12.1328210" lon="-76.6050800">
        <ele>2175.7</ele>
        <time>2021-05-30T16:02:22Z</time>
      </trkpt>
      <trkpt lat="-12.1328030" lon="-76.6051170">
        <ele>2175.5</ele>
        <time>2021-05-30T16:02:23Z</time>
      </trkpt>
      <trkpt lat="-12.1327810" lon="-76.6051610">
        <ele>2175.2</ele>
        <time>2021-05-30T16:02:24Z</time>
      </trkpt>
      <trkpt lat="-12.1327660" lon="-76.6051950">
        <ele>2175.0</ele>
        <time>2021-05-30T16:02:25Z</time>
      </trkpt>
      <trkpt lat="-12.1327430" lon="-76.6052420">
        <ele>2174.7</ele>
        <time>2021-05-30T16:02:27Z</time>
      </trkpt>
      <trkpt lat="-12.1327260" lon="-76.6052810">
        <ele>2174.4</ele>
        <time>2021-05-30T16:02:28Z</time>
      </trkpt>
      <trkpt lat="-12.1327090" lon="-76.6053190">
        <ele>2174.2</ele>
        <time>2021-05-30T16:02:29Z</time>
      </trkpt>
      <trkpt lat="-12.1326900" lon="-76.6053640">
        <ele>2173.9</ele>
        <time>2021-05-30T16:02:30Z</time>
      </trkpt>
      <trkpt lat="-12.1326690" lon="-76.6054030">
        <ele>2173.6</ele>
        <time>2021-05-30T16:02:31Z</time>
      </trkpt>
      <trkpt lat="-12.1326400" lon="-76.6054380">
        <ele>2173.4</ele>
        <time>2021-05-30T16:02:33Z</time>
      </trkpt>
      <trkpt lat="-12.1326050" lon="-76.6054690">
        <ele>2173.1</ele>
        <time>2021-05-30T16:02:34Z</time>
      </trkpt>
      <trkpt lat="-12.1325630" lon="-76.6054980">
        <ele>2172.8</ele>
        <time>2021-05-30T16:02:35Z</time>
      </trkpt>
      <trkpt lat="-12.1325220" lon="-76.6055220">
        <ele>2172.5</ele>
        <time>2021-05-30T16:02:37Z</time>
      </trkpt>
      <trkpt lat="-12.1324860" lon="-76.6055440">
        <ele>2172.3</ele>
        <time>2021-05-30T16:02:38Z</time>
      </trkpt>
      <trkpt lat="-12.1324350" lon="-76.6055780">
        <ele>2171.9</ele>
        <time>2021-05-30T16:02:39Z</time>
      </trkpt>
      <trkpt lat="-12.1323970" lon="-76.6056120">
        <ele>2171.6</ele>
        <time>2021-05-30T16:02:40Z</time>
      </trkpt>
      <trkpt lat="-12.1323650" lon="-76.6056490">
        <ele>2171.3</ele>
        <time>2021-05-30T16:02:41Z</time>
      </trkpt>
      <trkpt lat="-12.1323350" lon="-76.6056860">
        <ele>2171.0</ele>
        <time>2021-05-30T16:02:42Z</time>
      </trkpt>
      <trkpt lat="-12.1323000" lon="-76.6057350">
        <ele>2170.7</ele>
        <time>2021-05-30T16:02:44Z</time>
      </trkpt>
      <trkpt lat="-12.1322640" lon="-76.6057980">
        <ele>2170.2</ele>
        <time>2021-05-30T16:02:45Z</time>
      </trkpt>
      <trkpt lat="-12.1322520" lon="-76.6058780">
        <ele>2169.8</ele>
        <time>2021-05-30T16:02:47Z</time>
      </trkpt>
      <trkpt lat="-12.1322170" lon="-76.6059210">
        <ele>2169.4</ele>
        <time>2021-05-30T16:02:48Z</time>
      </trkpt>
      <trkpt lat="-12.1321850" lon="-76.6059950">
        <ele>2169.0</ele>
        <time>2021-05-30T16:02:50Z</time>
      </trkpt>
      <trkpt lat="-12.1321430" lon="-76.6060990">
        <ele>2168.3</ele>
        <time>2021-05-30T16:02:52Z</time>
      </trkpt>
      <trkpt lat="-12.1321040" lon="-76.6062110">
        <ele>2167.6</ele>
        <time>2021-05-30T16:02:54Z</time>
      </trkpt>
      <trkpt lat="-12.1320840" lon="-76.6062670">
        <ele>2167.3</ele>
        <time>2021-05-30T16:02:55Z</time>
      </trkpt>
      <trkpt lat="-12.1320600" lon="-76.6063230">
        <ele>2166.9</ele>
        <time>2021-05-30T16:02:56Z</time>
      </trkpt>
      <trkpt lat="-12.1319960" lon="-76.6064160">
        <ele>2166.2</ele>
        <time>2021-05-30T16:02:58Z</time>
      </trkpt>
      <trkpt lat="-12.1319220" lon="-76.6065020">
        <ele>2165.6</ele>
        <time>2021-05-30T16:03:00Z</time>
      </trkpt>
      <trkpt lat="-12.1318780" lon="-76.6065430">
        <ele>2165.2</ele>
        <time>2021-05-30T16:03:01Z</time>
      </trkpt>
      <trkpt lat="-12.1317790" lon="-76.6066240">
        <ele>2164.5</ele>
        <time>2021-05-30T16:03:03Z</time>
      </trkpt>
      <trkpt lat="-12.1316930" lon="-76.6067320">
        <ele>2163.6</ele>
        <time>2021-05-30T16:03:05Z</time>
      </trkpt>
      <trkpt lat="-12.1316510" lon="-76.6067900">
        <ele>2163.2</ele>
        <time>2021-05-30T16:03:06Z</time>
      </trkpt>
      <trkpt lat="-12.1316090" lon="-76.6068550">
        <ele>2162.8</ele>
        <time>2021-05-30T16:03:07Z</time>
      </trkpt>
      <trkpt lat="-12.1315350" lon="-76.6069790">
        <ele>2161.9</ele>
        <time>2021-05-30T16:03:09Z</time>
      </trkpt>
      <trkpt lat="-12.1314430" lon="-76.6070830">
        <ele>2161.1</ele>
        <time>2021-05-30T16:03:11Z</time>
      </trkpt>
      <trkpt lat="-12.1313330" lon="-76.6071660">
        <ele>2160.3</ele>
        <time>2021-05-30T16:03:13Z</time>
      </trkpt>
      <trkpt lat="-12.1312280" lon="-76.6071950">
        <ele>2159.6</ele>
        <time>2021-05-30T16:03:15Z</time>
      </trkpt>
      <trkpt lat="-12.1311220" lon="-76.6072060">
        <ele>2159.0</ele>
        <time>2021-05-30T16:03:17Z</time>
      </trkpt>
      <trkpt lat="-12.1310650" lon="-76.6072050">
        <ele>2158.6</ele>
        <time>2021-05-30T16:03:18Z</time>
      </trkpt>
      <trkpt lat="-12.1309510" lon="-76.6071910">
        <ele>2158.0</ele>
        <time>2021-05-30T16:03:20Z</time>
      </trkpt>
      <trkpt lat="-12.1308530" lon="-76.6071770">
        <ele>2157.4</ele>
        <time>2021-05-30T16:03:22Z</time>
      </trkpt>
      <trkpt lat="-12.1308030" lon="-76.6071610">
        <ele>2157.0</ele>
        <time>2021-05-30T16:03:23Z</time>
      </trkpt>
      <trkpt lat="-12.1307130" lon="-76.6071000">
        <ele>2156.6</ele>
        <time>2021-05-30T16:03:25Z</time>
      </trkpt>
      <trkpt lat="-12.1306430" lon="-76.6070200">
        <ele>2156.1</ele>
        <time>2021-05-30T16:03:27Z</time>
      </trkpt>
      <trkpt lat="-12.1305800" lon="-76.6069420">
        <ele>2155.7</ele>
        <time>2021-05-30T16:03:29Z</time>
      </trkpt>
      <trkpt lat="-12.1305090" lon="-76.6068680">
        <ele>2155.2</ele>
        <time>2021-05-30T16:03:31Z</time>
      </trkpt>
      <trkpt lat="-12.1304770" lon="-76.6068350">
        <ele>2155.0</ele>
        <time>2021-05-30T16:03:32Z</time>
      </trkpt>
      <trkpt lat="-12.1304240" lon="-76.6067800">
        <ele>2154.7</ele>
        <time>2021-05-30T16:03:34Z</time>
      </trkpt>
      <trkpt lat="-12.1303450" lon="-76.6067740">
        <ele>2154.3</ele>
        <time>2021-05-30T16:03:36Z</time>
      </trkpt>
      <trkpt lat="-12.1303030" lon="-76.6067830">
        <ele>2154.1</ele>
        <time>2021-05-30T16:03:37Z</time>
      </trkpt>
      <trkpt lat="-12.1302640" lon="-76.6068010">
        <ele>2153.9</ele>
        <time>2021-05-30T16:03:38Z</time>
      </trkpt>
      <trkpt lat="-12.1302350" lon="-76.6068090">
        <ele>2153.8</ele>
        <time>2021-05-30T16:03:39Z</time>
      </trkpt>
      <trkpt lat="-12.1302020" lon="-76.6067720">
        <ele>2153.6</ele>
        <time>2021-05-30T16:03:40Z</time>
      </trkpt>
      <trkpt lat="-12.1301600" lon="-76.6067630">
        <ele>2153.4</ele>
        <time>2021-05-30T16:03:41Z</time>
      </trkpt>
      <trkpt lat="-12.1301140" lon="-76.6067500">
        <ele>2153.2</ele>
        <time>2021-05-30T16:03:43Z</time>
      </trkpt>
      <trkpt lat="-12.1300720" lon="-76.6067530">
        <ele>2153.0</ele>
        <time>2021-05-30T16:03:44Z</time>
      </trkpt>
      <trkpt lat="-12.1300330" lon="-76.6067760">
        <ele>2152.8</ele>
        <time>2021-05-30T16:03:45Z</time>
      </trkpt>
      <trkpt lat="-12.1300120" lon="-76.6068040">
        <ele>2152.6</ele>
        <time>2021-05-30T16:03:47Z</time>
      </trkpt>
      <trkpt lat="-12.1300040" lon="-76.6068390">
        <ele>2152.5</ele>
        <time>2021-05-30T16:03:49Z</time>
      </trkpt>
      <trkpt lat="-12.1300080" lon="-76.6068460">
        <ele>2152.4</ele>
        <time>2021-05-30T16:03:50Z</time>
      </trkpt>
      <trkpt lat="-12.1300190" lon="-76.6068470">
        <ele>2152.4</ele>
        <time>2021-05-30T16:03:52Z</time>
      </trkpt>
      <trkpt lat="-12.1300340" lon="-76.6068460">
        <ele>2152.3</ele>
        <time>2021-05-30T16:03:53Z</time>
      </trkpt>
      <trkpt lat="-12.1300600" lon="-76.6068480">
        <ele>2152.2</ele>
        <time>2021-05-30T16:03:54Z</time>
      </trkpt>
      <trkpt lat="-12.1301020" lon="-76.6068600">
        <ele>2152.3</ele>
        <time>2021-05-30T16:03:56Z</time>
      </trkpt>
      <trkpt lat="-12.1301440" lon="-76.6068700">
        <ele>2152.6</ele>
        <time>2021-05-30T16:03:57Z</time>
      </trkpt>
      <trkpt lat="-12.1301840" lon="-76.6068760">
        <ele>2152.8</ele>
        <time>2021-05-30T16:03:58Z</time>
      </trkpt>
      <trkpt lat="-12.1302290" lon="-76.6068780">
        <ele>2153.1</ele>
        <time>2021-05-30T16:03:59Z</time>
      </trkpt>
      <trkpt lat="-12.1302840" lon="-76.6068770">
        <ele>2153.4</ele>
        <time>2021-05-30T16:04:01Z</time>
      </trkpt>
      <trkpt lat="-12.1303250" lon="-76.6068770">
        <ele>2153.6</ele>
        <time>2021-05-30T16:04:02Z</time>
      </trkpt>
      <trkpt lat="-12.1303920" lon="-76.6068790">
        <ele>2154.0</ele>
        <time>2021-05-30T16:04:04Z</time>
      </trkpt>
      <trkpt lat="-12.1304380" lon="-76.6068860">
        <ele>2154.3</ele>
        <time>2021-05-30T16:04:05Z</time>
      </trkpt>
      <trkpt lat="-12.1304780" lon="-76.6068930">
        <ele>2154.6</ele>
        <time>2021-05-30T16:04:06Z</time>
      </trkpt>
      <trkpt lat="-12.1305130" lon="-76.6069080">
        <ele>2154.8</ele>
        <time>2021-05-30T16:04:08Z</time>
      </trkpt>
      <trkpt lat="-12.1305430" lon="-76.6069290">
        <ele>2155.0</ele>
        <time>2021-05-30T16:04:09Z</time>
      </trkpt>
      <trkpt lat="-12.1305790" lon="-76.6069570">
        <ele>2155.3</ele>
        <time>2021-05-30T16:04:10Z</time>
      </trkpt>
      <trkpt lat="-12.1306090" lon="-76.6069870">
        <ele>2155.5</ele>
        <time>2021-05-30T16:04:11Z</time>
      </trkpt>
      <trkpt lat="-12.1306410" lon="-76.6070230">
        <ele>2155.8</ele>
        <time>2021-05-30T16:04:12Z</time>
      </trkpt>
      <trkpt lat="-12.1306760" lon="-76.6070620">
        <ele>2156.0</ele>
        <time>2021-05-30T16:04:13Z</time>
      </trkpt>
      <trkpt lat="-12.1307090" lon="-76.6070960">
        <ele>2153.8</ele>
        <time>2021-05-30T16:04:15Z</time>
      </trkpt>
      <trkpt lat="-12.1307420" lon="-76.6071440">
        <ele>2151.8</ele>
        <time>2021-05-30T16:04:17Z</time>
      </trkpt>
      <trkpt lat="-12.1307810" lon="-76.6071980">
        <ele>2147.1</ele>
        <time>2021-05-30T16:04:18Z</time>
      </trkpt>
      <trkpt lat="-12.1308070" lon="-76.6072270">
        <ele>2146.9</ele>
        <time>2021-05-30T16:04:19Z</time>
      </trkpt>
      <trkpt lat="-12.1308400" lon="-76.6072550">
        <ele>2146.6</ele>
        <time>2021-05-30T16:04:21Z</time>
      </trkpt>
      <trkpt lat="-12.1308900" lon="-76.6072830">
        <ele>2146.3</ele>
        <time>2021-05-30T16:04:22Z</time>
      </trkpt>
      <trkpt lat="-12.1309340" lon="-76.6073040">
        <ele>2146.0</ele>
        <time>2021-05-30T16:04:24Z</time>
      </trkpt>
      <trkpt lat="-12.1309760" lon="-76.6073230">
        <ele>2145.8</ele>
        <time>2021-05-30T16:04:25Z</time>
      </trkpt>
      <trkpt lat="-12.1310200" lon="-76.6073380">
        <ele>2145.5</ele>
        <time>2021-05-30T16:04:26Z</time>
      </trkpt>
      <trkpt lat="-12.1311310" lon="-76.6073630">
        <ele>2144.8</ele>
        <time>2021-05-30T16:04:28Z</time>
      </trkpt>
      <trkpt lat="-12.1312380" lon="-76.6073910">
        <ele>2144.2</ele>
        <time>2021-05-30T16:04:30Z</time>
      </trkpt>
      <trkpt lat="-12.1312950" lon="-76.6073930">
        <ele>2143.8</ele>
        <time>2021-05-30T16:04:31Z</time>
      </trkpt>
      <trkpt lat="-12.1314200" lon="-76.6073820">
        <ele>2143.1</ele>
        <time>2021-05-30T16:04:33Z</time>
      </trkpt>
      <trkpt lat="-12.1315310" lon="-76.6073370">
        <ele>2142.4</ele>
        <time>2021-05-30T16:04:35Z</time>
      </trkpt>
      <trkpt lat="-12.1316240" lon="-76.6072780">
        <ele>2141.8</ele>
        <time>2021-05-30T16:04:37Z</time>
      </trkpt>
      <trkpt lat="-12.1316730" lon="-76.6072450">
        <ele>2141.4</ele>
        <time>2021-05-30T16:04:38Z</time>
      </trkpt>
      <trkpt lat="-12.1317640" lon="-76.6071670">
        <ele>2140.7</ele>
        <time>2021-05-30T16:04:40Z</time>
      </trkpt>
      <trkpt lat="-12.1318150" lon="-76.6071240">
        <ele>2140.4</ele>
        <time>2021-05-30T16:04:41Z</time>
      </trkpt>
      <trkpt lat="-12.1319100" lon="-76.6070370">
        <ele>2139.6</ele>
        <time>2021-05-30T16:04:43Z</time>
      </trkpt>
      <trkpt lat="-12.1319550" lon="-76.6069940">
        <ele>2139.2</ele>
        <time>2021-05-30T16:04:44Z</time>
      </trkpt>
      <trkpt lat="-12.1320520" lon="-76.6068970">
        <ele>2138.5</ele>
        <time>2021-05-30T16:04:46Z</time>
      </trkpt>
      <trkpt lat="-12.1321610" lon="-76.6068260">
        <ele>2137.7</ele>
        <time>2021-05-30T16:04:48Z</time>
      </trkpt>
      <trkpt lat="-12.1322180" lon="-76.6068000">
        <ele>2137.3</ele>
        <time>2021-05-30T16:04:49Z</time>
      </trkpt>
      <trkpt lat="-12.1323250" lon="-76.6067440">
        <ele>2136.6</ele>
        <time>2021-05-30T16:04:51Z</time>
      </trkpt>
      <trkpt lat="-12.1323720" lon="-76.6067140">
        <ele>2136.3</ele>
        <time>2021-05-30T16:04:52Z</time>
      </trkpt>
      <trkpt lat="-12.1324590" lon="-76.6066810">
        <ele>2135.8</ele>
        <time>2021-05-30T16:04:54Z</time>
      </trkpt>
      <trkpt lat="-12.1325320" lon="-76.6066840">
        <ele>2135.3</ele>
        <time>2021-05-30T16:04:56Z</time>
      </trkpt>
      <trkpt lat="-12.1325650" lon="-76.6066960">
        <ele>2135.1</ele>
        <time>2021-05-30T16:04:57Z</time>
      </trkpt>
      <trkpt lat="-12.1326300" lon="-76.6067280">
        <ele>2134.7</ele>
        <time>2021-05-30T16:04:59Z</time>
      </trkpt>
      <trkpt lat="-12.1326590" lon="-76.6067450">
        <ele>2134.5</ele>
        <time>2021-05-30T16:05:00Z</time>
      </trkpt>
      <trkpt lat="-12.1326920" lon="-76.6067520">
        <ele>2134.3</ele>
        <time>2021-05-30T16:05:01Z</time>
      </trkpt>
      <trkpt lat="-12.1327220" lon="-76.6067550">
        <ele>2134.1</ele>
        <time>2021-05-30T16:05:02Z</time>
      </trkpt>
      <trkpt lat="-12.1327270" lon="-76.6067220">
        <ele>2134.0</ele>
        <time>2021-05-30T16:05:03Z</time>
      </trkpt>
      <trkpt lat="-12.1327710" lon="-76.6067120">
        <ele>2133.7</ele>
        <time>2021-05-30T16:05:04Z</time>
      </trkpt>
      <trkpt lat="-12.1328190" lon="-76.6067020">
        <ele>2133.4</ele>
        <time>2021-05-30T16:05:06Z</time>
      </trkpt>
      <trkpt lat="-12.1328610" lon="-76.6066910">
        <ele>2133.2</ele>
        <time>2021-05-30T16:05:07Z</time>
      </trkpt>
      <trkpt lat="-12.1329000" lon="-76.6066840">
        <ele>2132.9</ele>
        <time>2021-05-30T16:05:09Z</time>
      </trkpt>
      <trkpt lat="-12.1329130" lon="-76.6066820">
        <ele>2132.8</ele>
        <time>2021-05-30T16:05:10Z</time>
      </trkpt>
      <trkpt lat="-12.1329440" lon="-76.6066880">
        <ele>2132.7</ele>
        <time>2021-05-30T16:05:11Z</time>
      </trkpt>
      <trkpt lat="-12.1329520" lon="-76.6066910">
        <ele>2132.6</ele>
        <time>2021-05-30T16:05:12Z</time>
      </trkpt>
      <trkpt lat="-12.1329830" lon="-76.6067070">
        <ele>2132.4</ele>
        <time>2021-05-30T16:05:14Z</time>
      </trkpt>
      <trkpt lat="-12.1330020" lon="-76.6067440">
        <ele>2132.2</ele>
        <time>2021-05-30T16:05:16Z</time>
      </trkpt>
      <trkpt lat="-12.1330050" lon="-76.6067740">
        <ele>2132.0</ele>
        <time>2021-05-30T16:05:17Z</time>
      </trkpt>
      <trkpt lat="-12.1329960" lon="-76.6068170">
        <ele>2131.7</ele>
        <time>2021-05-30T16:05:18Z</time>
      </trkpt>
      <trkpt lat="-12.1329810" lon="-76.6068450">
        <ele>2131.6</ele>
        <time>2021-05-30T16:05:19Z</time>
      </trkpt>
      <trkpt lat="-12.1329570" lon="-76.6068700">
        <ele>2131.4</ele>
        <time>2021-05-30T16:05:20Z</time>
      </trkpt>
      <trkpt lat="-12.1329080" lon="-76.6069080">
        <ele>2131.0</ele>
        <time>2021-05-30T16:05:22Z</time>
      </trkpt>
      <trkpt lat="-12.1328530" lon="-76.6069400">
        <ele>2130.6</ele>
        <time>2021-05-30T16:05:23Z</time>
      </trkpt>
      <trkpt lat="-12.1327740" lon="-76.6069680">
        <ele>2130.1</ele>
        <time>2021-05-30T16:05:25Z</time>
      </trkpt>
      <trkpt lat="-12.1327120" lon="-76.6069850">
        <ele>2129.8</ele>
        <time>2021-05-30T16:05:27Z</time>
      </trkpt>
      <trkpt lat="-12.1326350" lon="-76.6069930">
        <ele>2129.3</ele>
        <time>2021-05-30T16:05:29Z</time>
      </trkpt>
      <trkpt lat="-12.1325850" lon="-76.6069860">
        <ele>2129.0</ele>
        <time>2021-05-30T16:05:30Z</time>
      </trkpt>
      <trkpt lat="-12.1325410" lon="-76.6069780">
        <ele>2128.8</ele>
        <time>2021-05-30T16:05:32Z</time>
      </trkpt>
      <trkpt lat="-12.1325040" lon="-76.6069660">
        <ele>2128.5</ele>
        <time>2021-05-30T16:05:33Z</time>
      </trkpt>
      <trkpt lat="-12.1324760" lon="-76.6069650">
        <ele>2128.4</ele>
        <time>2021-05-30T16:05:35Z</time>
      </trkpt>
      <trkpt lat="-12.1324670" lon="-76.6069680">
        <ele>2128.3</ele>
        <time>2021-05-30T16:05:37Z</time>
      </trkpt>
      <trkpt lat="-12.1324590" lon="-76.6069720">
        <ele>2128.3</ele>
        <time>2021-05-30T16:05:39Z</time>
      </trkpt>
      <trkpt lat="-12.1324500" lon="-76.6069750">
        <ele>2128.2</ele>
        <time>2021-05-30T16:05:40Z</time>
      </trkpt>
      <trkpt lat="-12.1324420" lon="-76.6069780">
        <ele>2128.2</ele>
        <time>2021-05-30T16:05:42Z</time>
      </trkpt>
      <trkpt lat="-12.1324330" lon="-76.6069810">
        <ele>2128.1</ele>
        <time>2021-05-30T16:05:43Z</time>
      </trkpt>
      <trkpt lat="-12.1324050" lon="-76.6069960">
        <ele>2127.9</ele>
        <time>2021-05-30T16:05:44Z</time>
      </trkpt>
      <trkpt lat="-12.1323750" lon="-76.6070080">
        <ele>2127.7</ele>
        <time>2021-05-30T16:05:45Z</time>
      </trkpt>
      <trkpt lat="-12.1323320" lon="-76.6070220">
        <ele>2127.5</ele>
        <time>2021-05-30T16:05:47Z</time>
      </trkpt>
      <trkpt lat="-12.1322980" lon="-76.6070310">
        <ele>2127.3</ele>
        <time>2021-05-30T16:05:48Z</time>
      </trkpt>
      <trkpt lat="-12.1322630" lon="-76.6070440">
        <ele>2127.0</ele>
        <time>2021-05-30T16:05:49Z</time>
      </trkpt>
      <trkpt lat="-12.1322160" lon="-76.6070680">
        <ele>2126.7</ele>
        <time>2021-05-30T16:05:50Z</time>
      </trkpt>
      <trkpt lat="-12.1321170" lon="-76.6071340">
        <ele>2126.0</ele>
        <time>2021-05-30T16:05:52Z</time>
      </trkpt>
      <trkpt lat="-12.1320780" lon="-76.6071690">
        <ele>2125.7</ele>
        <time>2021-05-30T16:05:53Z</time>
      </trkpt>
      <trkpt lat="-12.1320070" lon="-76.6072550">
        <ele>2125.1</ele>
        <time>2021-05-30T16:05:55Z</time>
      </trkpt>
      <trkpt lat="-12.1319700" lon="-76.6073030">
        <ele>2124.8</ele>
        <time>2021-05-30T16:05:56Z</time>
      </trkpt>
      <trkpt lat="-12.1318970" lon="-76.6073990">
        <ele>2124.1</ele>
        <time>2021-05-30T16:05:58Z</time>
      </trkpt>
      <trkpt lat="-12.1318600" lon="-76.6074400">
        <ele>2123.7</ele>
        <time>2021-05-30T16:05:59Z</time>
      </trkpt>
      <trkpt lat="-12.1317690" lon="-76.6075360">
        <ele>2123.0</ele>
        <time>2021-05-30T16:06:01Z</time>
      </trkpt>
      <trkpt lat="-12.1317190" lon="-76.6075940">
        <ele>2122.5</ele>
        <time>2021-05-30T16:06:02Z</time>
      </trkpt>
      <trkpt lat="-12.1316160" lon="-76.6076870">
        <ele>2121.7</ele>
        <time>2021-05-30T16:06:04Z</time>
      </trkpt>
      <trkpt lat="-12.1315540" lon="-76.6077250">
        <ele>2121.3</ele>
        <time>2021-05-30T16:06:05Z</time>
      </trkpt>
      <trkpt lat="-12.1314140" lon="-76.6077850">
        <ele>2120.4</ele>
        <time>2021-05-30T16:06:07Z</time>
      </trkpt>
      <trkpt lat="-12.1312660" lon="-76.6077870">
        <ele>2119.6</ele>
        <time>2021-05-30T16:06:09Z</time>
      </trkpt>
      <trkpt lat="-12.1311430" lon="-76.6077590">
        <ele>2118.8</ele>
        <time>2021-05-30T16:06:11Z</time>
      </trkpt>
      <trkpt lat="-12.1310790" lon="-76.6077450">
        <ele>2118.4</ele>
        <time>2021-05-30T16:06:12Z</time>
      </trkpt>
      <trkpt lat="-12.1310170" lon="-76.6077300">
        <ele>2118.1</ele>
        <time>2021-05-30T16:06:13Z</time>
      </trkpt>
      <trkpt lat="-12.1309530" lon="-76.6077200">
        <ele>2117.7</ele>
        <time>2021-05-30T16:06:14Z</time>
      </trkpt>
      <trkpt lat="-12.1308220" lon="-76.6077140">
        <ele>2116.9</ele>
        <time>2021-05-30T16:06:16Z</time>
      </trkpt>
      <trkpt lat="-12.1306960" lon="-76.6076980">
        <ele>2116.2</ele>
        <time>2021-05-30T16:06:18Z</time>
      </trkpt>
      <trkpt lat="-12.1306470" lon="-76.6076950">
        <ele>2115.9</ele>
        <time>2021-05-30T16:06:19Z</time>
      </trkpt>
      <trkpt lat="-12.1306020" lon="-76.6076990">
        <ele>2115.6</ele>
        <time>2021-05-30T16:06:20Z</time>
      </trkpt>
      <trkpt lat="-12.1305350" lon="-76.6076830">
        <ele>2115.2</ele>
        <time>2021-05-30T16:06:22Z</time>
      </trkpt>
      <trkpt lat="-12.1304790" lon="-76.6076560">
        <ele>2114.9</ele>
        <time>2021-05-30T16:06:24Z</time>
      </trkpt>
      <trkpt lat="-12.1304120" lon="-76.6076090">
        <ele>2114.4</ele>
        <time>2021-05-30T16:06:26Z</time>
      </trkpt>
      <trkpt lat="-12.1303520" lon="-76.6075520">
        <ele>2113.9</ele>
        <time>2021-05-30T16:06:28Z</time>
      </trkpt>
      <trkpt lat="-12.1303240" lon="-76.6075810">
        <ele>2113.7</ele>
        <time>2021-05-30T16:06:29Z</time>
      </trkpt>
      <trkpt lat="-12.1302770" lon="-76.6075590">
        <ele>2113.4</ele>
        <time>2021-05-30T16:06:30Z</time>
      </trkpt>
      <trkpt lat="-12.1302470" lon="-76.6075330">
        <ele>2113.1</ele>
        <time>2021-05-30T16:06:31Z</time>
      </trkpt>
      <trkpt lat="-12.1302140" lon="-76.6075110">
        <ele>2112.9</ele>
        <time>2021-05-30T16:06:33Z</time>
      </trkpt>
      <trkpt lat="-12.1301880" lon="-76.6074900">
        <ele>2112.7</ele>
        <time>2021-05-30T16:06:34Z</time>
      </trkpt>
      <trkpt lat="-12.1301410" lon="-76.6074610">
        <ele>2112.4</ele>
        <time>2021-05-30T16:06:35Z</time>
      </trkpt>
      <trkpt lat="-12.1300870" lon="-76.6074450">
        <ele>2112.1</ele>
        <time>2021-05-30T16:06:37Z</time>
      </trkpt>
      <trkpt lat="-12.1300340" lon="-76.6074350">
        <ele>2111.8</ele>
        <time>2021-05-30T16:06:38Z</time>
      </trkpt>
      <trkpt lat="-12.1299680" lon="-76.6074270">
        <ele>2111.4</ele>
        <time>2021-05-30T16:06:39Z</time>
      </trkpt>
      <trkpt lat="-12.1299270" lon="-76.6074210">
        <ele>2111.1</ele>
        <time>2021-05-30T16:06:41Z</time>
      </trkpt>
      <trkpt lat="-12.1298860" lon="-76.6074130">
        <ele>2110.9</ele>
        <time>2021-05-30T16:06:42Z</time>
      </trkpt>
      <trkpt lat="-12.1298450" lon="-76.6074030">
        <ele>2110.6</ele>
        <time>2021-05-30T16:06:43Z</time>
      </trkpt>
      <trkpt lat="-12.1297900" lon="-76.6073780">
        <ele>2110.3</ele>
        <time>2021-05-30T16:06:44Z</time>
      </trkpt>
      <trkpt lat="-12.1297410" lon="-76.6073550">
        <ele>2110.0</ele>
        <time>2021-05-30T16:06:46Z</time>
      </trkpt>
      <trkpt lat="-12.1297060" lon="-76.6073410">
        <ele>2109.8</ele>
        <time>2021-05-30T16:06:47Z</time>
      </trkpt>
      <trkpt lat="-12.1296900" lon="-76.6073330">
        <ele>2109.7</ele>
        <time>2021-05-30T16:06:49Z</time>
      </trkpt>
      <trkpt lat="-12.1296730" lon="-76.6073300">
        <ele>2109.7</ele>
        <time>2021-05-30T16:06:50Z</time>
      </trkpt>
      <trkpt lat="-12.1296580" lon="-76.6073320">
        <ele>2109.1</ele>
        <time>2021-05-30T16:06:52Z</time>
      </trkpt>
      <trkpt lat="-12.1296690" lon="-76.6073420">
        <ele>2109.1</ele>
        <time>2021-05-30T16:06:53Z</time>
      </trkpt>
      <trkpt lat="-12.1296750" lon="-76.6073500">
        <ele>2109.7</ele>
        <time>2021-05-30T16:06:55Z</time>
      </trkpt>
      <trkpt lat="-12.1296840" lon="-76.6073760">
        <ele>2107.7</ele>
        <time>2021-05-30T16:06:57Z</time>
      </trkpt>
      <trkpt lat="-12.1296900" lon="-76.6073870">
        <ele>2107.7</ele>
        <time>2021-05-30T16:06:58Z</time>
      </trkpt>
      <trkpt lat="-12.1297010" lon="-76.6074020">
        <ele>2107.7</ele>
        <time>2021-05-30T16:06:59Z</time>
      </trkpt>
      <trkpt lat="-12.1297100" lon="-76.6074130">
        <ele>2105.8</ele>
        <time>2021-05-30T16:07:00Z</time>
      </trkpt>
      <trkpt lat="-12.1297220" lon="-76.6074320">
        <ele>2106.4</ele>
        <time>2021-05-30T16:07:02Z</time>
      </trkpt>
      <trkpt lat="-12.1297290" lon="-76.6074580">
        <ele>2104.6</ele>
        <time>2021-05-30T16:07:03Z</time>
      </trkpt>
      <trkpt lat="-12.1297300" lon="-76.6074750">
        <ele>2104.6</ele>
        <time>2021-05-30T16:07:05Z</time>
      </trkpt>
      <trkpt lat="-12.1297460" lon="-76.6074880">
        <ele>2104.6</ele>
        <time>2021-05-30T16:07:06Z</time>
      </trkpt>
      <trkpt lat="-12.1297630" lon="-76.6074890">
        <ele>2105.0</ele>
        <time>2021-05-30T16:07:08Z</time>
      </trkpt>
      <trkpt lat="-12.1297790" lon="-76.6074910">
        <ele>2105.0</ele>
        <time>2021-05-30T16:07:09Z</time>
      </trkpt>
      <trkpt lat="-12.1297950" lon="-76.6074930">
        <ele>2105.0</ele>
        <time>2021-05-30T16:07:10Z</time>
      </trkpt>
      <trkpt lat="-12.1298120" lon="-76.6074940">
        <ele>2105.1</ele>
        <time>2021-05-30T16:07:12Z</time>
      </trkpt>
      <trkpt lat="-12.1298280" lon="-76.6074960">
        <ele>2103.4</ele>
        <time>2021-05-30T16:07:14Z</time>
      </trkpt>
      <trkpt lat="-12.1298440" lon="-76.6074980">
        <ele>2103.5</ele>
        <time>2021-05-30T16:07:16Z</time>
      </trkpt>
      <trkpt lat="-12.1298610" lon="-76.6074990">
        <ele>2103.5</ele>
        <time>2021-05-30T16:07:23Z</time>
      </trkpt>
      <trkpt lat="-12.1298770" lon="-76.6075010">
        <ele>2103.5</ele>
        <time>2021-05-30T16:07:24Z</time>
      </trkpt>
      <trkpt lat="-12.1299150" lon="-76.6075040">
        <ele>2103.6</ele>
        <time>2021-05-30T16:07:25Z</time>
      </trkpt>
      <trkpt lat="-12.1299770" lon="-76.6075070">
        <ele>2104.2</ele>
        <time>2021-05-30T16:07:27Z</time>
      </trkpt>
      <trkpt lat="-12.1300150" lon="-76.6075110">
        <ele>2104.6</ele>
        <time>2021-05-30T16:07:28Z</time>
      </trkpt>
      <trkpt lat="-12.1300520" lon="-76.6075180">
        <ele>2105.1</ele>
        <time>2021-05-30T16:07:29Z</time>
      </trkpt>
      <trkpt lat="-12.1300960" lon="-76.6075340">
        <ele>2105.5</ele>
        <time>2021-05-30T16:07:30Z</time>
      </trkpt>
      <trkpt lat="-12.1301390" lon="-76.6075520">
        <ele>2104.2</ele>
        <time>2021-05-30T16:07:31Z</time>
      </trkpt>
      <trkpt lat="-12.1301890" lon="-76.6075750">
        <ele>2104.8</ele>
        <time>2021-05-30T16:07:33Z</time>
      </trkpt>
      <trkpt lat="-12.1302660" lon="-76.6076030">
        <ele>2104.1</ele>
        <time>2021-05-30T16:07:34Z</time>
      </trkpt>
      <trkpt lat="-12.1303710" lon="-76.6076390">
        <ele>2103.7</ele>
        <time>2021-05-30T16:07:36Z</time>
      </trkpt>
      <trkpt lat="-12.1304290" lon="-76.6076670">
        <ele>2102.3</ele>
        <time>2021-05-30T16:07:37Z</time>
      </trkpt>
      <trkpt lat="-12.1304730" lon="-76.6076860">
        <ele>2104.0</ele>
        <time>2021-05-30T16:07:38Z</time>
      </trkpt>
      <trkpt lat="-12.1305520" lon="-76.6077080">
        <ele>2103.3</ele>
        <time>2021-05-30T16:07:40Z</time>
      </trkpt>
      <trkpt lat="-12.1306130" lon="-76.6077230">
        <ele>2102.8</ele>
        <time>2021-05-30T16:07:41Z</time>
      </trkpt>
      <trkpt lat="-12.1307100" lon="-76.6077580">
        <ele>2102.0</ele>
        <time>2021-05-30T16:07:43Z</time>
      </trkpt>
      <trkpt lat="-12.1307640" lon="-76.6077800">
        <ele>2101.5</ele>
        <time>2021-05-30T16:07:44Z</time>
      </trkpt>
      <trkpt lat="-12.1308210" lon="-76.6078010">
        <ele>2101.0</ele>
        <time>2021-05-30T16:07:45Z</time>
      </trkpt>
      <trkpt lat="-12.1309330" lon="-76.6078670">
        <ele>2099.8</ele>
        <time>2021-05-30T16:07:47Z</time>
      </trkpt>
      <trkpt lat="-12.1310450" lon="-76.6079260">
        <ele>2098.7</ele>
        <time>2021-05-30T16:07:49Z</time>
      </trkpt>
      <trkpt lat="-12.1311620" lon="-76.6079930">
        <ele>2097.8</ele>
        <time>2021-05-30T16:07:51Z</time>
      </trkpt>
      <trkpt lat="-12.1312180" lon="-76.6080360">
        <ele>2097.3</ele>
        <time>2021-05-30T16:07:52Z</time>
      </trkpt>
      <trkpt lat="-12.1312780" lon="-76.6080690">
        <ele>2096.9</ele>
        <time>2021-05-30T16:07:53Z</time>
      </trkpt>
      <trkpt lat="-12.1314080" lon="-76.6081290">
        <ele>2095.9</ele>
        <time>2021-05-30T16:07:55Z</time>
      </trkpt>
      <trkpt lat="-12.1314730" lon="-76.6081620">
        <ele>2095.3</ele>
        <time>2021-05-30T16:07:56Z</time>
      </trkpt>
      <trkpt lat="-12.1315910" lon="-76.6082040">
        <ele>2094.3</ele>
        <time>2021-05-30T16:07:58Z</time>
      </trkpt>
      <trkpt lat="-12.1316840" lon="-76.6082380">
        <ele>2093.6</ele>
        <time>2021-05-30T16:08:00Z</time>
      </trkpt>
      <trkpt lat="-12.1317080" lon="-76.6082470">
        <ele>2093.3</ele>
        <time>2021-05-30T16:08:01Z</time>
      </trkpt>
      <trkpt lat="-12.1317820" lon="-76.6082690">
        <ele>2092.7</ele>
        <time>2021-05-30T16:08:03Z</time>
      </trkpt>
      <trkpt lat="-12.1318710" lon="-76.6082610">
        <ele>2091.8</ele>
        <time>2021-05-30T16:08:05Z</time>
      </trkpt>
      <trkpt lat="-12.1319750" lon="-76.6082420">
        <ele>2090.9</ele>
        <time>2021-05-30T16:08:07Z</time>
      </trkpt>
      <trkpt lat="-12.1320340" lon="-76.6082550">
        <ele>2090.4</ele>
        <time>2021-05-30T16:08:08Z</time>
      </trkpt>
      <trkpt lat="-12.1320590" lon="-76.6082500">
        <ele>2090.2</ele>
        <time>2021-05-30T16:08:10Z</time>
      </trkpt>
      <trkpt lat="-12.1320770" lon="-76.6082430">
        <ele>2090.0</ele>
        <time>2021-05-30T16:08:11Z</time>
      </trkpt>
      <trkpt lat="-12.1321220" lon="-76.6082230">
        <ele>2089.7</ele>
        <time>2021-05-30T16:08:12Z</time>
      </trkpt>
      <trkpt lat="-12.1321570" lon="-76.6082120">
        <ele>2089.4</ele>
        <time>2021-05-30T16:08:13Z</time>
      </trkpt>
      <trkpt lat="-12.1322150" lon="-76.6082060">
        <ele>2088.9</ele>
        <time>2021-05-30T16:08:15Z</time>
      </trkpt>
      <trkpt lat="-12.1322410" lon="-76.6082030">
        <ele>2088.7</ele>
        <time>2021-05-30T16:08:16Z</time>
      </trkpt>
      <trkpt lat="-12.1322850" lon="-76.6081960">
        <ele>2088.4</ele>
        <time>2021-05-30T16:08:18Z</time>
      </trkpt>
      <trkpt lat="-12.1323190" lon="-76.6081970">
        <ele>2088.1</ele>
        <time>2021-05-30T16:08:19Z</time>
      </trkpt>
      <trkpt lat="-12.1323590" lon="-76.6082110">
        <ele>2087.7</ele>
        <time>2021-05-30T16:08:20Z</time>
      </trkpt>
      <trkpt lat="-12.1323930" lon="-76.6082240">
        <ele>2087.4</ele>
        <time>2021-05-30T16:08:21Z</time>
      </trkpt>
      <trkpt lat="-12.1324270" lon="-76.6082500">
        <ele>2087.0</ele>
        <time>2021-05-30T16:08:22Z</time>
      </trkpt>
      <trkpt lat="-12.1324640" lon="-76.6082920">
        <ele>2086.4</ele>
        <time>2021-05-30T16:08:24Z</time>
      </trkpt>
      <trkpt lat="-12.1324900" lon="-76.6083330">
        <ele>2085.9</ele>
        <time>2021-05-30T16:08:25Z</time>
      </trkpt>
      <trkpt lat="-12.1325170" lon="-76.6083840">
        <ele>2085.3</ele>
        <time>2021-05-30T16:08:26Z</time>
      </trkpt>
      <trkpt lat="-12.1325470" lon="-76.6084330">
        <ele>2084.7</ele>
        <time>2021-05-30T16:08:28Z</time>
      </trkpt>
      <trkpt lat="-12.1325840" lon="-76.6084750">
        <ele>2084.0</ele>
        <time>2021-05-30T16:08:29Z</time>
      </trkpt>
      <trkpt lat="-12.1326200" lon="-76.6085090">
        <ele>2083.5</ele>
        <time>2021-05-30T16:08:30Z</time>
      </trkpt>
      <trkpt lat="-12.1326550" lon="-76.6085430">
        <ele>2082.9</ele>
        <time>2021-05-30T16:08:31Z</time>
      </trkpt>
      <trkpt lat="-12.1326980" lon="-76.6086140">
        <ele>2081.9</ele>
        <time>2021-05-30T16:08:33Z</time>
      </trkpt>
      <trkpt lat="-12.1327160" lon="-76.6086420">
        <ele>2081.6</ele>
        <time>2021-05-30T16:08:35Z</time>
      </trkpt>
      <trkpt lat="-12.1327290" lon="-76.6086580">
        <ele>2081.3</ele>
        <time>2021-05-30T16:08:36Z</time>
      </trkpt>
      <trkpt lat="-12.1327690" lon="-76.6086940">
        <ele>2080.8</ele>
        <time>2021-05-30T16:08:37Z</time>
      </trkpt>
      <trkpt lat="-12.1328080" lon="-76.6087240">
        <ele>2080.2</ele>
        <time>2021-05-30T16:08:38Z</time>
      </trkpt>
      <trkpt lat="-12.1328410" lon="-76.6087410">
        <ele>2079.9</ele>
        <time>2021-05-30T16:08:39Z</time>
      </trkpt>
      <trkpt lat="-12.1329090" lon="-76.6087390">
        <ele>2079.1</ele>
        <time>2021-05-30T16:08:41Z</time>
      </trkpt>
      <trkpt lat="-12.1329540" lon="-76.6087350">
        <ele>2078.7</ele>
        <time>2021-05-30T16:08:43Z</time>
      </trkpt>
      <trkpt lat="-12.1329940" lon="-76.6087310">
        <ele>2078.3</ele>
        <time>2021-05-30T16:08:44Z</time>
      </trkpt>
      <trkpt lat="-12.1330400" lon="-76.6087230">
        <ele>2077.9</ele>
        <time>2021-05-30T16:08:45Z</time>
      </trkpt>
      <trkpt lat="-12.1330990" lon="-76.6087190">
        <ele>2077.5</ele>
        <time>2021-05-30T16:08:47Z</time>
      </trkpt>
      <trkpt lat="-12.1331470" lon="-76.6087330">
        <ele>2077.2</ele>
        <time>2021-05-30T16:08:48Z</time>
      </trkpt>
      <trkpt lat="-12.1331800" lon="-76.6087440">
        <ele>2077.1</ele>
        <time>2021-05-30T16:08:50Z</time>
      </trkpt>
      <trkpt lat="-12.1332360" lon="-76.6087600">
        <ele>2076.8</ele>
        <time>2021-05-30T16:08:52Z</time>
      </trkpt>
      <trkpt lat="-12.1332670" lon="-76.6087740">
        <ele>2076.7</ele>
        <time>2021-05-30T16:08:53Z</time>
      </trkpt>
      <trkpt lat="-12.1332970" lon="-76.6087920">
        <ele>2076.6</ele>
        <time>2021-05-30T16:08:54Z</time>
      </trkpt>
      <trkpt lat="-12.1333360" lon="-76.6088190">
        <ele>2076.5</ele>
        <time>2021-05-30T16:08:56Z</time>
      </trkpt>
      <trkpt lat="-12.1333520" lon="-76.6088310">
        <ele>2076.4</ele>
        <time>2021-05-30T16:08:57Z</time>
      </trkpt>
      <trkpt lat="-12.1333670" lon="-76.6088420">
        <ele>2076.4</ele>
        <time>2021-05-30T16:08:58Z</time>
      </trkpt>
      <trkpt lat="-12.1333900" lon="-76.6088640">
        <ele>2076.3</ele>
        <time>2021-05-30T16:08:59Z</time>
      </trkpt>
      <trkpt lat="-12.1334040" lon="-76.6088840">
        <ele>2076.2</ele>
        <time>2021-05-30T16:09:00Z</time>
      </trkpt>
      <trkpt lat="-12.1334170" lon="-76.6089180">
        <ele>2076.0</ele>
        <time>2021-05-30T16:09:02Z</time>
      </trkpt>
      <trkpt lat="-12.1334280" lon="-76.6089680">
        <ele>2075.8</ele>
        <time>2021-05-30T16:09:03Z</time>
      </trkpt>
      <trkpt lat="-12.1334360" lon="-76.6090450">
        <ele>2075.4</ele>
        <time>2021-05-30T16:09:06Z</time>
      </trkpt>
      <trkpt lat="-12.1334290" lon="-76.6090820">
        <ele>2075.1</ele>
        <time>2021-05-30T16:09:07Z</time>
      </trkpt>
      <trkpt lat="-12.1334080" lon="-76.6091360">
        <ele>2074.7</ele>
        <time>2021-05-30T16:09:08Z</time>
      </trkpt>
      <trkpt lat="-12.1333820" lon="-76.6091700">
        <ele>2074.3</ele>
        <time>2021-05-30T16:09:09Z</time>
      </trkpt>
      <trkpt lat="-12.1333520" lon="-76.6091950">
        <ele>2074.0</ele>
        <time>2021-05-30T16:09:10Z</time>
      </trkpt>
      <trkpt lat="-12.1333210" lon="-76.6092120">
        <ele>2073.7</ele>
        <time>2021-05-30T16:09:12Z</time>
      </trkpt>
      <trkpt lat="-12.1332870" lon="-76.6092240">
        <ele>2073.4</ele>
        <time>2021-05-30T16:09:13Z</time>
      </trkpt>
      <trkpt lat="-12.1332400" lon="-76.6092280">
        <ele>2072.9</ele>
        <time>2021-05-30T16:09:14Z</time>
      </trkpt>
      <trkpt lat="-12.1331930" lon="-76.6092250">
        <ele>2072.5</ele>
        <time>2021-05-30T16:09:15Z</time>
      </trkpt>
      <trkpt lat="-12.1331580" lon="-76.6092120">
        <ele>2072.2</ele>
        <time>2021-05-30T16:09:17Z</time>
      </trkpt>
      <trkpt lat="-12.1331360" lon="-76.6091960">
        <ele>2071.9</ele>
        <time>2021-05-30T16:09:18Z</time>
      </trkpt>
      <trkpt lat="-12.1330880" lon="-76.6091550">
        <ele>2071.3</ele>
        <time>2021-05-30T16:09:20Z</time>
      </trkpt>
      <trkpt lat="-12.1330610" lon="-76.6091250">
        <ele>2070.9</ele>
        <time>2021-05-30T16:09:21Z</time>
      </trkpt>
      <trkpt lat="-12.1330170" lon="-76.6090890">
        <ele>2070.4</ele>
        <time>2021-05-30T16:09:22Z</time>
      </trkpt>
      <trkpt lat="-12.1329740" lon="-76.6090670">
        <ele>2070.0</ele>
        <time>2021-05-30T16:09:23Z</time>
      </trkpt>
      <trkpt lat="-12.1329280" lon="-76.6090600">
        <ele>2069.5</ele>
        <time>2021-05-30T16:09:25Z</time>
      </trkpt>
      <trkpt lat="-12.1328630" lon="-76.6090700">
        <ele>2068.9</ele>
        <time>2021-05-30T16:09:27Z</time>
      </trkpt>
      <trkpt lat="-12.1328120" lon="-76.6091040">
        <ele>2068.3</ele>
        <time>2021-05-30T16:09:28Z</time>
      </trkpt>
      <trkpt lat="-12.1327620" lon="-76.6091380">
        <ele>2067.8</ele>
        <time>2021-05-30T16:09:29Z</time>
      </trkpt>
      <trkpt lat="-12.1327090" lon="-76.6091670">
        <ele>2067.2</ele>
        <time>2021-05-30T16:09:30Z</time>
      </trkpt>
      <trkpt lat="-12.1326260" lon="-76.6092230">
        <ele>2066.3</ele>
        <time>2021-05-30T16:09:32Z</time>
      </trkpt>
      <trkpt lat="-12.1325920" lon="-76.6092170">
        <ele>2066.0</ele>
        <time>2021-05-30T16:09:33Z</time>
      </trkpt>
      <trkpt lat="-12.1325510" lon="-76.6092190">
        <ele>2065.6</ele>
        <time>2021-05-30T16:09:34Z</time>
      </trkpt>
      <trkpt lat="-12.1324410" lon="-76.6092350">
        <ele>2064.5</ele>
        <time>2021-05-30T16:09:36Z</time>
      </trkpt>
      <trkpt lat="-12.1323950" lon="-76.6092400">
        <ele>2064.1</ele>
        <time>2021-05-30T16:09:37Z</time>
      </trkpt>
      <trkpt lat="-12.1323460" lon="-76.6092910">
        <ele>2063.5</ele>
        <time>2021-05-30T16:09:38Z</time>
      </trkpt>
      <trkpt lat="-12.1323050" lon="-76.6093170">
        <ele>2063.0</ele>
        <time>2021-05-30T16:09:40Z</time>
      </trkpt>
      <trkpt lat="-12.1322500" lon="-76.6093440">
        <ele>2062.4</ele>
        <time>2021-05-30T16:09:41Z</time>
      </trkpt>
      <trkpt lat="-12.1322080" lon="-76.6093570">
        <ele>2062.0</ele>
        <time>2021-05-30T16:09:42Z</time>
      </trkpt>
      <trkpt lat="-12.1321700" lon="-76.6093550">
        <ele>2061.7</ele>
        <time>2021-05-30T16:09:43Z</time>
      </trkpt>
      <trkpt lat="-12.1321000" lon="-76.6093320">
        <ele>2061.0</ele>
        <time>2021-05-30T16:09:45Z</time>
      </trkpt>
      <trkpt lat="-12.1319940" lon="-76.6093090">
        <ele>2060.0</ele>
        <time>2021-05-30T16:09:47Z</time>
      </trkpt>
      <trkpt lat="-12.1319390" lon="-76.6092980">
        <ele>2059.4</ele>
        <time>2021-05-30T16:09:48Z</time>
      </trkpt>
      <trkpt lat="-12.1318270" lon="-76.6092900">
        <ele>2058.4</ele>
        <time>2021-05-30T16:09:50Z</time>
      </trkpt>
      <trkpt lat="-12.1317210" lon="-76.6093010">
        <ele>2057.4</ele>
        <time>2021-05-30T16:09:52Z</time>
      </trkpt>
      <trkpt lat="-12.1316240" lon="-76.6092850">
        <ele>2056.5</ele>
        <time>2021-05-30T16:09:54Z</time>
      </trkpt>
      <trkpt lat="-12.1315450" lon="-76.6092420">
        <ele>2055.6</ele>
        <time>2021-05-30T16:09:56Z</time>
      </trkpt>
      <trkpt lat="-12.1315030" lon="-76.6092200">
        <ele>2055.2</ele>
        <time>2021-05-30T16:09:57Z</time>
      </trkpt>
      <trkpt lat="-12.1314580" lon="-76.6092120">
        <ele>2054.8</ele>
        <time>2021-05-30T16:09:58Z</time>
      </trkpt>
      <trkpt lat="-12.1314230" lon="-76.6092100">
        <ele>2054.4</ele>
        <time>2021-05-30T16:09:59Z</time>
      </trkpt>
      <trkpt lat="-12.1313930" lon="-76.6092140">
        <ele>2054.2</ele>
        <time>2021-05-30T16:10:01Z</time>
      </trkpt>
      <trkpt lat="-12.1313680" lon="-76.6092290">
        <ele>2053.9</ele>
        <time>2021-05-30T16:10:02Z</time>
      </trkpt>
      <trkpt lat="-12.1313400" lon="-76.6092800">
        <ele>2053.3</ele>
        <time>2021-05-30T16:10:03Z</time>
      </trkpt>
      <trkpt lat="-12.1313300" lon="-76.6093110">
        <ele>2053.0</ele>
        <time>2021-05-30T16:10:04Z</time>
      </trkpt>
      <trkpt lat="-12.1313230" lon="-76.6093440">
        <ele>2052.7</ele>
        <time>2021-05-30T16:10:06Z</time>
      </trkpt>
      <trkpt lat="-12.1313230" lon="-76.6093850">
        <ele>2052.4</ele>
        <time>2021-05-30T16:10:07Z</time>
      </trkpt>
      <trkpt lat="-12.1313250" lon="-76.6094420">
        <ele>2051.8</ele>
        <time>2021-05-30T16:10:08Z</time>
      </trkpt>
      <trkpt lat="-12.1313250" lon="-76.6094860">
        <ele>2051.4</ele>
        <time>2021-05-30T16:10:09Z</time>
      </trkpt>
      <trkpt lat="-12.1313210" lon="-76.6095400">
        <ele>2050.9</ele>
        <time>2021-05-30T16:10:10Z</time>
      </trkpt>
      <trkpt lat="-12.1313040" lon="-76.6096300">
        <ele>2050.1</ele>
        <time>2021-05-30T16:10:12Z</time>
      </trkpt>
      <trkpt lat="-12.1312720" lon="-76.6096780">
        <ele>2049.6</ele>
        <time>2021-05-30T16:10:13Z</time>
      </trkpt>
      <trkpt lat="-12.1311900" lon="-76.6097710">
        <ele>2048.4</ele>
        <time>2021-05-30T16:10:15Z</time>
      </trkpt>
      <trkpt lat="-12.1310940" lon="-76.6098680">
        <ele>2047.2</ele>
        <time>2021-05-30T16:10:17Z</time>
      </trkpt>
      <trkpt lat="-12.1310460" lon="-76.6099140">
        <ele>2046.6</ele>
        <time>2021-05-30T16:10:18Z</time>
      </trkpt>
      <trkpt lat="-12.1309540" lon="-76.6099850">
        <ele>2045.5</ele>
        <time>2021-05-30T16:10:20Z</time>
      </trkpt>
      <trkpt lat="-12.1309200" lon="-76.6100140">
        <ele>2045.1</ele>
        <time>2021-05-30T16:10:21Z</time>
      </trkpt>
      <trkpt lat="-12.1308810" lon="-76.6100380">
        <ele>2044.6</ele>
        <time>2021-05-30T16:10:22Z</time>
      </trkpt>
      <trkpt lat="-12.1308440" lon="-76.6100610">
        <ele>2044.2</ele>
        <time>2021-05-30T16:10:23Z</time>
      </trkpt>
      <trkpt lat="-12.1308160" lon="-76.6100810">
        <ele>2043.9</ele>
        <time>2021-05-30T16:10:24Z</time>
      </trkpt>
      <trkpt lat="-12.1307890" lon="-76.6100960">
        <ele>2043.6</ele>
        <time>2021-05-30T16:10:25Z</time>
      </trkpt>
      <trkpt lat="-12.1307630" lon="-76.6101120">
        <ele>2043.3</ele>
        <time>2021-05-30T16:10:26Z</time>
      </trkpt>
      <trkpt lat="-12.1307450" lon="-76.6101490">
        <ele>2043.0</ele>
        <time>2021-05-30T16:10:28Z</time>
      </trkpt>
      <trkpt lat="-12.1307410" lon="-76.6101640">
        <ele>2042.8</ele>
        <time>2021-05-30T16:10:29Z</time>
      </trkpt>
      <trkpt lat="-12.1307400" lon="-76.6101950">
        <ele>2042.5</ele>
        <time>2021-05-30T16:10:30Z</time>
      </trkpt>
      <trkpt lat="-12.1307570" lon="-76.6102330">
        <ele>2042.1</ele>
        <time>2021-05-30T16:10:32Z</time>
      </trkpt>
      <trkpt lat="-12.1307650" lon="-76.6102460">
        <ele>2042.0</ele>
        <time>2021-05-30T16:10:33Z</time>
      </trkpt>
      <trkpt lat="-12.1307870" lon="-76.6102780">
        <ele>2041.7</ele>
        <time>2021-05-30T16:10:35Z</time>
      </trkpt>
      <trkpt lat="-12.1308110" lon="-76.6102990">
        <ele>2041.4</ele>
        <time>2021-05-30T16:10:36Z</time>
      </trkpt>
      <trkpt lat="-12.1308400" lon="-76.6103210">
        <ele>2041.0</ele>
        <time>2021-05-30T16:10:37Z</time>
      </trkpt>
      <trkpt lat="-12.1308830" lon="-76.6103450">
        <ele>2040.6</ele>
        <time>2021-05-30T16:10:38Z</time>
      </trkpt>
      <trkpt lat="-12.1309250" lon="-76.6103680">
        <ele>2040.1</ele>
        <time>2021-05-30T16:10:40Z</time>
      </trkpt>
      <trkpt lat="-12.1309620" lon="-76.6103900">
        <ele>2039.7</ele>
        <time>2021-05-30T16:10:41Z</time>
      </trkpt>
      <trkpt lat="-12.1310010" lon="-76.6104130">
        <ele>2039.3</ele>
        <time>2021-05-30T16:10:42Z</time>
      </trkpt>
      <trkpt lat="-12.1310690" lon="-76.6104430">
        <ele>2038.6</ele>
        <time>2021-05-30T16:10:43Z</time>
      </trkpt>
      <trkpt lat="-12.1311150" lon="-76.6104570">
        <ele>2038.1</ele>
        <time>2021-05-30T16:10:45Z</time>
      </trkpt>
      <trkpt lat="-12.1311550" lon="-76.6104630">
        <ele>2037.8</ele>
        <time>2021-05-30T16:10:46Z</time>
      </trkpt>
      <trkpt lat="-12.1312050" lon="-76.6104670">
        <ele>2037.3</ele>
        <time>2021-05-30T16:10:47Z</time>
      </trkpt>
      <trkpt lat="-12.1312470" lon="-76.6104670">
        <ele>2036.9</ele>
        <time>2021-05-30T16:10:48Z</time>
      </trkpt>
      <trkpt lat="-12.1312910" lon="-76.6104640">
        <ele>2036.5</ele>
        <time>2021-05-30T16:10:49Z</time>
      </trkpt>
      <trkpt lat="-12.1313360" lon="-76.6104660">
        <ele>2036.1</ele>
        <time>2021-05-30T16:10:51Z</time>
      </trkpt>
      <trkpt lat="-12.1313720" lon="-76.6104700">
        <ele>2035.7</ele>
        <time>2021-05-30T16:10:52Z</time>
      </trkpt>
      <trkpt lat="-12.1314240" lon="-76.6104790">
        <ele>2035.2</ele>
        <time>2021-05-30T16:10:53Z</time>
      </trkpt>
      <trkpt lat="-12.1314630" lon="-76.6104870">
        <ele>2034.9</ele>
        <time>2021-05-30T16:10:54Z</time>
      </trkpt>
      <trkpt lat="-12.1314970" lon="-76.6105000">
        <ele>2034.5</ele>
        <time>2021-05-30T16:10:56Z</time>
      </trkpt>
      <trkpt lat="-12.1315360" lon="-76.6105310">
        <ele>2034.1</ele>
        <time>2021-05-30T16:10:58Z</time>
      </trkpt>
      <trkpt lat="-12.1315520" lon="-76.6105640">
        <ele>2033.7</ele>
        <time>2021-05-30T16:10:59Z</time>
      </trkpt>
      <trkpt lat="-12.1315530" lon="-76.6105750">
        <ele>2033.6</ele>
        <time>2021-05-30T16:11:00Z</time>
      </trkpt>
      <trkpt lat="-12.1315530" lon="-76.6106030">
        <ele>2033.4</ele>
        <time>2021-05-30T16:11:02Z</time>
      </trkpt>
      <trkpt lat="-12.1315440" lon="-76.6106380">
        <ele>2033.0</ele>
        <time>2021-05-30T16:11:03Z</time>
      </trkpt>
      <trkpt lat="-12.1315270" lon="-76.6106740">
        <ele>2032.7</ele>
        <time>2021-05-30T16:11:04Z</time>
      </trkpt>
      <trkpt lat="-12.1315060" lon="-76.6107140">
        <ele>2032.3</ele>
        <time>2021-05-30T16:11:06Z</time>
      </trkpt>
      <trkpt lat="-12.1314870" lon="-76.6107490">
        <ele>2031.9</ele>
        <time>2021-05-30T16:11:07Z</time>
      </trkpt>
      <trkpt lat="-12.1314510" lon="-76.6108140">
        <ele>2031.2</ele>
        <time>2021-05-30T16:11:09Z</time>
      </trkpt>
      <trkpt lat="-12.1314250" lon="-76.6108490">
        <ele>2030.8</ele>
        <time>2021-05-30T16:11:10Z</time>
      </trkpt>
      <trkpt lat="-12.1313940" lon="-76.6108810">
        <ele>2030.4</ele>
        <time>2021-05-30T16:11:11Z</time>
      </trkpt>
      <trkpt lat="-12.1313560" lon="-76.6109090">
        <ele>2030.0</ele>
        <time>2021-05-30T16:11:12Z</time>
      </trkpt>
      <trkpt lat="-12.1312880" lon="-76.6109460">
        <ele>2029.2</ele>
        <time>2021-05-30T16:11:13Z</time>
      </trkpt>
      <trkpt lat="-12.1312420" lon="-76.6109620">
        <ele>2028.8</ele>
        <time>2021-05-30T16:11:15Z</time>
      </trkpt>
      <trkpt lat="-12.1311940" lon="-76.6109750">
        <ele>2028.3</ele>
        <time>2021-05-30T16:11:16Z</time>
      </trkpt>
      <trkpt lat="-12.1311400" lon="-76.6109850">
        <ele>2027.8</ele>
        <time>2021-05-30T16:11:17Z</time>
      </trkpt>
      <trkpt lat="-12.1310860" lon="-76.6109990">
        <ele>2027.3</ele>
        <time>2021-05-30T16:11:18Z</time>
      </trkpt>
      <trkpt lat="-12.1310420" lon="-76.6110210">
        <ele>2026.8</ele>
        <time>2021-05-30T16:11:19Z</time>
      </trkpt>
      <trkpt lat="-12.1309770" lon="-76.6110780">
        <ele>2026.0</ele>
        <time>2021-05-30T16:11:21Z</time>
      </trkpt>
      <trkpt lat="-12.1308970" lon="-76.6111800">
        <ele>2024.8</ele>
        <time>2021-05-30T16:11:23Z</time>
      </trkpt>
      <trkpt lat="-12.1308600" lon="-76.6112220">
        <ele>2024.3</ele>
        <time>2021-05-30T16:11:24Z</time>
      </trkpt>
      <trkpt lat="-12.1308230" lon="-76.6112580">
        <ele>2023.8</ele>
        <time>2021-05-30T16:11:25Z</time>
      </trkpt>
      <trkpt lat="-12.1307710" lon="-76.6113060">
        <ele>2023.2</ele>
        <time>2021-05-30T16:11:26Z</time>
      </trkpt>
      <trkpt lat="-12.1307500" lon="-76.6113210">
        <ele>2022.9</ele>
        <time>2021-05-30T16:11:27Z</time>
      </trkpt>
      <trkpt lat="-12.1307420" lon="-76.6113700">
        <ele>2022.5</ele>
        <time>2021-05-30T16:11:29Z</time>
      </trkpt>
      <trkpt lat="-12.1307400" lon="-76.6114160">
        <ele>2022.1</ele>
        <time>2021-05-30T16:11:30Z</time>
      </trkpt>
      <trkpt lat="-12.1307410" lon="-76.6114730">
        <ele>2021.5</ele>
        <time>2021-05-30T16:11:31Z</time>
      </trkpt>
      <trkpt lat="-12.1307650" lon="-76.6115830">
        <ele>2020.5</ele>
        <time>2021-05-30T16:11:33Z</time>
      </trkpt>
      <trkpt lat="-12.1307650" lon="-76.6116310">
        <ele>2020.1</ele>
        <time>2021-05-30T16:11:34Z</time>
      </trkpt>
      <trkpt lat="-12.1307540" lon="-76.6116740">
        <ele>2019.7</ele>
        <time>2021-05-30T16:11:35Z</time>
      </trkpt>
      <trkpt lat="-12.1307210" lon="-76.6117370">
        <ele>2019.0</ele>
        <time>2021-05-30T16:11:36Z</time>
      </trkpt>
      <trkpt lat="-12.1306820" lon="-76.6117970">
        <ele>2018.3</ele>
        <time>2021-05-30T16:11:38Z</time>
      </trkpt>
      <trkpt lat="-12.1306500" lon="-76.6118410">
        <ele>2017.8</ele>
        <time>2021-05-30T16:11:39Z</time>
      </trkpt>
      <trkpt lat="-12.1305870" lon="-76.6119180">
        <ele>2016.9</ele>
        <time>2021-05-30T16:11:41Z</time>
      </trkpt>
      <trkpt lat="-12.1305300" lon="-76.6119930">
        <ele>2016.1</ele>
        <time>2021-05-30T16:11:43Z</time>
      </trkpt>
      <trkpt lat="-12.1304730" lon="-76.6120520">
        <ele>2015.3</ele>
        <time>2021-05-30T16:11:45Z</time>
      </trkpt>
      <trkpt lat="-12.1304380" lon="-76.6120790">
        <ele>2014.9</ele>
        <time>2021-05-30T16:11:46Z</time>
      </trkpt>
      <trkpt lat="-12.1304120" lon="-76.6121020">
        <ele>2014.6</ele>
        <time>2021-05-30T16:11:47Z</time>
      </trkpt>
      <trkpt lat="-12.1303030" lon="-76.6121210">
        <ele>2013.5</ele>
        <time>2021-05-30T16:11:49Z</time>
      </trkpt>
      <trkpt lat="-12.1301970" lon="-76.6121290">
        <ele>2012.5</ele>
        <time>2021-05-30T16:11:51Z</time>
      </trkpt>
      <trkpt lat="-12.1301460" lon="-76.6121680">
        <ele>2011.9</ele>
        <time>2021-05-30T16:11:52Z</time>
      </trkpt>
      <trkpt lat="-12.1301020" lon="-76.6121880">
        <ele>2011.5</ele>
        <time>2021-05-30T16:11:53Z</time>
      </trkpt>
      <trkpt lat="-12.1300550" lon="-76.6122090">
        <ele>2011.0</ele>
        <time>2021-05-30T16:11:55Z</time>
      </trkpt>
      <trkpt lat="-12.1300110" lon="-76.6122340">
        <ele>2010.5</ele>
        <time>2021-05-30T16:11:56Z</time>
      </trkpt>
      <trkpt lat="-12.1299720" lon="-76.6122730">
        <ele>2010.0</ele>
        <time>2021-05-30T16:11:57Z</time>
      </trkpt>
      <trkpt lat="-12.1299460" lon="-76.6123040">
        <ele>2009.7</ele>
        <time>2021-05-30T16:11:59Z</time>
      </trkpt>
      <trkpt lat="-12.1299220" lon="-76.6123340">
        <ele>2009.3</ele>
        <time>2021-05-30T16:12:00Z</time>
      </trkpt>
      <trkpt lat="-12.1299020" lon="-76.6123720">
        <ele>2008.9</ele>
        <time>2021-05-30T16:12:01Z</time>
      </trkpt>
      <trkpt lat="-12.1298810" lon="-76.6124190">
        <ele>2008.4</ele>
        <time>2021-05-30T16:12:02Z</time>
      </trkpt>
      <trkpt lat="-12.1298680" lon="-76.6124640">
        <ele>2008.0</ele>
        <time>2021-05-30T16:12:03Z</time>
      </trkpt>
      <trkpt lat="-12.1298500" lon="-76.6125090">
        <ele>2007.6</ele>
        <time>2021-05-30T16:12:05Z</time>
      </trkpt>
      <trkpt lat="-12.1298330" lon="-76.6125540">
        <ele>2007.1</ele>
        <time>2021-05-30T16:12:06Z</time>
      </trkpt>
      <trkpt lat="-12.1298040" lon="-76.6126440">
        <ele>2006.3</ele>
        <time>2021-05-30T16:12:08Z</time>
      </trkpt>
      <trkpt lat="-12.1297840" lon="-76.6126910">
        <ele>2005.8</ele>
        <time>2021-05-30T16:12:09Z</time>
      </trkpt>
      <trkpt lat="-12.1297540" lon="-76.6127370">
        <ele>2005.3</ele>
        <time>2021-05-30T16:12:10Z</time>
      </trkpt>
      <trkpt lat="-12.1297340" lon="-76.6127570">
        <ele>2005.0</ele>
        <time>2021-05-30T16:12:11Z</time>
      </trkpt>
      <trkpt lat="-12.1297150" lon="-76.6127700">
        <ele>2004.8</ele>
        <time>2021-05-30T16:12:12Z</time>
      </trkpt>
      <trkpt lat="-12.1296510" lon="-76.6128160">
        <ele>2004.1</ele>
        <time>2021-05-30T16:12:14Z</time>
      </trkpt>
      <trkpt lat="-12.1295750" lon="-76.6128690">
        <ele>2003.2</ele>
        <time>2021-05-30T16:12:16Z</time>
      </trkpt>
      <trkpt lat="-12.1295560" lon="-76.6128840">
        <ele>2003.0</ele>
        <time>2021-05-30T16:12:17Z</time>
      </trkpt>
      <trkpt lat="-12.1295560" lon="-76.6128480">
        <ele>2002.7</ele>
        <time>2021-05-30T16:12:18Z</time>
      </trkpt>
      <trkpt lat="-12.1295190" lon="-76.6128850">
        <ele>2002.2</ele>
        <time>2021-05-30T16:12:20Z</time>
      </trkpt>
      <trkpt lat="-12.1295030" lon="-76.6129240">
        <ele>2001.8</ele>
        <time>2021-05-30T16:12:21Z</time>
      </trkpt>
      <trkpt lat="-12.1294820" lon="-76.6129900">
        <ele>2001.2</ele>
        <time>2021-05-30T16:12:22Z</time>
      </trkpt>
      <trkpt lat="-12.1294770" lon="-76.6130340">
        <ele>2000.7</ele>
        <time>2021-05-30T16:12:23Z</time>
      </trkpt>
      <trkpt lat="-12.1294550" lon="-76.6130810">
        <ele>2000.3</ele>
        <time>2021-05-30T16:12:24Z</time>
      </trkpt>
      <trkpt lat="-12.1294170" lon="-76.6131150">
        <ele>1999.8</ele>
        <time>2021-05-30T16:12:26Z</time>
      </trkpt>
      <trkpt lat="-12.1293310" lon="-76.6131360">
        <ele>1999.0</ele>
        <time>2021-05-30T16:12:28Z</time>
      </trkpt>
      <trkpt lat="-12.1292820" lon="-76.6131320">
        <ele>1998.5</ele>
        <time>2021-05-30T16:12:29Z</time>
      </trkpt>
      <trkpt lat="-12.1291980" lon="-76.6131340">
        <ele>1997.7</ele>
        <time>2021-05-30T16:12:31Z</time>
      </trkpt>
      <trkpt lat="-12.1291590" lon="-76.6131460">
        <ele>1997.3</ele>
        <time>2021-05-30T16:12:32Z</time>
      </trkpt>
      <trkpt lat="-12.1290740" lon="-76.6132060">
        <ele>1996.4</ele>
        <time>2021-05-30T16:12:34Z</time>
      </trkpt>
      <trkpt lat="-12.1290230" lon="-76.6132560">
        <ele>1995.7</ele>
        <time>2021-05-30T16:12:35Z</time>
      </trkpt>
      <trkpt lat="-12.1289900" lon="-76.6132890">
        <ele>1995.3</ele>
        <time>2021-05-30T16:12:36Z</time>
      </trkpt>
      <trkpt lat="-12.1289330" lon="-76.6133920">
        <ele>1994.2</ele>
        <time>2021-05-30T16:12:38Z</time>
      </trkpt>
      <trkpt lat="-12.1288660" lon="-76.6135010">
        <ele>1993.0</ele>
        <time>2021-05-30T16:12:40Z</time>
      </trkpt>
      <trkpt lat="-12.1287860" lon="-76.6136120">
        <ele>1991.8</ele>
        <time>2021-05-30T16:12:42Z</time>
      </trkpt>
      <trkpt lat="-12.1287470" lon="-76.6136660">
        <ele>1991.1</ele>
        <time>2021-05-30T16:12:43Z</time>
      </trkpt>
      <trkpt lat="-12.1287040" lon="-76.6137040">
        <ele>1990.6</ele>
        <time>2021-05-30T16:12:44Z</time>
      </trkpt>
      <trkpt lat="-12.1286090" lon="-76.6137370">
        <ele>1989.9</ele>
        <time>2021-05-30T16:12:46Z</time>
      </trkpt>
      <trkpt lat="-12.1285010" lon="-76.6137480">
        <ele>1989.0</ele>
        <time>2021-05-30T16:12:48Z</time>
      </trkpt>
      <trkpt lat="-12.1283830" lon="-76.6137390">
        <ele>1987.9</ele>
        <time>2021-05-30T16:12:50Z</time>
      </trkpt>
      <trkpt lat="-12.1282700" lon="-76.6137290">
        <ele>1986.9</ele>
        <time>2021-05-30T16:12:52Z</time>
      </trkpt>
      <trkpt lat="-12.1281740" lon="-76.6137280">
        <ele>1986.1</ele>
        <time>2021-05-30T16:12:54Z</time>
      </trkpt>
      <trkpt lat="-12.1281130" lon="-76.6137350">
        <ele>1985.6</ele>
        <time>2021-05-30T16:12:55Z</time>
      </trkpt>
      <trkpt lat="-12.1280580" lon="-76.6137400">
        <ele>1985.1</ele>
        <time>2021-05-30T16:12:57Z</time>
      </trkpt>
      <trkpt lat="-12.1280030" lon="-76.6137520">
        <ele>1984.6</ele>
        <time>2021-05-30T16:12:58Z</time>
      </trkpt>
      <trkpt lat="-12.1279550" lon="-76.6137620">
        <ele>1984.2</ele>
        <time>2021-05-30T16:12:59Z</time>
      </trkpt>
      <trkpt lat="-12.1278640" lon="-76.6137860">
        <ele>1983.3</ele>
        <time>2021-05-30T16:13:01Z</time>
      </trkpt>
      <trkpt lat="-12.1278280" lon="-76.6137610">
        <ele>1983.0</ele>
        <time>2021-05-30T16:13:02Z</time>
      </trkpt>
      <trkpt lat="-12.1277870" lon="-76.6137870">
        <ele>1982.5</ele>
        <time>2021-05-30T16:13:04Z</time>
      </trkpt>
      <trkpt lat="-12.1277530" lon="-76.6138240">
        <ele>1982.1</ele>
        <time>2021-05-30T16:13:05Z</time>
      </trkpt>
      <trkpt lat="-12.1277330" lon="-76.6138720">
        <ele>1981.7</ele>
        <time>2021-05-30T16:13:07Z</time>
      </trkpt>
      <trkpt lat="-12.1277250" lon="-76.6139180">
        <ele>1981.3</ele>
        <time>2021-05-30T16:13:08Z</time>
      </trkpt>
      <trkpt lat="-12.1277230" lon="-76.6139790">
        <ele>1980.8</ele>
        <time>2021-05-30T16:13:09Z</time>
      </trkpt>
      <trkpt lat="-12.1277280" lon="-76.6140340">
        <ele>1980.3</ele>
        <time>2021-05-30T16:13:11Z</time>
      </trkpt>
      <trkpt lat="-12.1277370" lon="-76.6140900">
        <ele>1979.8</ele>
        <time>2021-05-30T16:13:12Z</time>
      </trkpt>
      <trkpt lat="-12.1277480" lon="-76.6141520">
        <ele>1979.3</ele>
        <time>2021-05-30T16:13:14Z</time>
      </trkpt>
      <trkpt lat="-12.1277370" lon="-76.6141980">
        <ele>1978.9</ele>
        <time>2021-05-30T16:13:15Z</time>
      </trkpt>
      <trkpt lat="-12.1277170" lon="-76.6142280">
        <ele>1978.6</ele>
        <time>2021-05-30T16:13:16Z</time>
      </trkpt>
      <trkpt lat="-12.1276900" lon="-76.6142600">
        <ele>1978.2</ele>
        <time>2021-05-30T16:13:18Z</time>
      </trkpt>
      <trkpt lat="-12.1276730" lon="-76.6142890">
        <ele>1977.9</ele>
        <time>2021-05-30T16:13:19Z</time>
      </trkpt>
      <trkpt lat="-12.1276550" lon="-76.6143340">
        <ele>1977.5</ele>
        <time>2021-05-30T16:13:20Z</time>
      </trkpt>
      <trkpt lat="-12.1276430" lon="-76.6143690">
        <ele>1977.2</ele>
        <time>2021-05-30T16:13:21Z</time>
      </trkpt>
      <trkpt lat="-12.1276090" lon="-76.6144400">
        <ele>1976.5</ele>
        <time>2021-05-30T16:13:23Z</time>
      </trkpt>
      <trkpt lat="-12.1275810" lon="-76.6145050">
        <ele>1975.9</ele>
        <time>2021-05-30T16:13:24Z</time>
      </trkpt>
      <trkpt lat="-12.1275290" lon="-76.6146320">
        <ele>1974.7</ele>
        <time>2021-05-30T16:13:26Z</time>
      </trkpt>
      <trkpt lat="-12.1274720" lon="-76.6147440">
        <ele>1973.7</ele>
        <time>2021-05-30T16:13:28Z</time>
      </trkpt>
      <trkpt lat="-12.1274190" lon="-76.6148150">
        <ele>1972.9</ele>
        <time>2021-05-30T16:13:30Z</time>
      </trkpt>
      <trkpt lat="-12.1273830" lon="-76.6148220">
        <ele>1972.6</ele>
        <time>2021-05-30T16:13:31Z</time>
      </trkpt>
      <trkpt lat="-12.1273640" lon="-76.6148270">
        <ele>1972.4</ele>
        <time>2021-05-30T16:13:32Z</time>
      </trkpt>
      <trkpt lat="-12.1273250" lon="-76.6148560">
        <ele>1972.0</ele>
        <time>2021-05-30T16:13:33Z</time>
      </trkpt>
      <trkpt lat="-12.1272890" lon="-76.6148860">
        <ele>1971.6</ele>
        <time>2021-05-30T16:13:35Z</time>
      </trkpt>
      <trkpt lat="-12.1272550" lon="-76.6149170">
        <ele>1971.2</ele>
        <time>2021-05-30T16:13:36Z</time>
      </trkpt>
      <trkpt lat="-12.1271740" lon="-76.6150160">
        <ele>1970.1</ele>
        <time>2021-05-30T16:13:38Z</time>
      </trkpt>
      <trkpt lat="-12.1271380" lon="-76.6149990">
        <ele>1969.7</ele>
        <time>2021-05-30T16:13:39Z</time>
      </trkpt>
      <trkpt lat="-12.1270840" lon="-76.6150230">
        <ele>1969.2</ele>
        <time>2021-05-30T16:13:41Z</time>
      </trkpt>
      <trkpt lat="-12.1270220" lon="-76.6150810">
        <ele>1968.5</ele>
        <time>2021-05-30T16:13:42Z</time>
      </trkpt>
      <trkpt lat="-12.1269630" lon="-76.6151170">
        <ele>1967.9</ele>
        <time>2021-05-30T16:13:43Z</time>
      </trkpt>
      <trkpt lat="-12.1268420" lon="-76.6151400">
        <ele>1966.8</ele>
        <time>2021-05-30T16:13:45Z</time>
      </trkpt>
      <trkpt lat="-12.1267830" lon="-76.6151310">
        <ele>1966.3</ele>
        <time>2021-05-30T16:13:46Z</time>
      </trkpt>
      <trkpt lat="-12.1267240" lon="-76.6151150">
        <ele>1965.8</ele>
        <time>2021-05-30T16:13:47Z</time>
      </trkpt>
      <trkpt lat="-12.1266080" lon="-76.6151000">
        <ele>1964.8</ele>
        <time>2021-05-30T16:13:49Z</time>
      </trkpt>
      <trkpt lat="-12.1265460" lon="-76.6150980">
        <ele>1964.2</ele>
        <time>2021-05-30T16:13:50Z</time>
      </trkpt>
      <trkpt lat="-12.1264290" lon="-76.6150800">
        <ele>1963.2</ele>
        <time>2021-05-30T16:13:52Z</time>
      </trkpt>
      <trkpt lat="-12.1263260" lon="-76.6150970">
        <ele>1962.3</ele>
        <time>2021-05-30T16:13:54Z</time>
      </trkpt>
      <trkpt lat="-12.1262720" lon="-76.6151050">
        <ele>1961.8</ele>
        <time>2021-05-30T16:13:55Z</time>
      </trkpt>
      <trkpt lat="-12.1261620" lon="-76.6151030">
        <ele>1960.8</ele>
        <time>2021-05-30T16:13:57Z</time>
      </trkpt>
      <trkpt lat="-12.1260530" lon="-76.6150880">
        <ele>1959.9</ele>
        <time>2021-05-30T16:13:59Z</time>
      </trkpt>
      <trkpt lat="-12.1259610" lon="-76.6150560">
        <ele>1959.0</ele>
        <time>2021-05-30T16:14:01Z</time>
      </trkpt>
      <trkpt lat="-12.1259120" lon="-76.6150350">
        <ele>1958.6</ele>
        <time>2021-05-30T16:14:02Z</time>
      </trkpt>
      <trkpt lat="-12.1258610" lon="-76.6150140">
        <ele>1958.1</ele>
        <time>2021-05-30T16:14:03Z</time>
      </trkpt>
      <trkpt lat="-12.1257620" lon="-76.6150010">
        <ele>1957.2</ele>
        <time>2021-05-30T16:14:05Z</time>
      </trkpt>
      <trkpt lat="-12.1257170" lon="-76.6150100">
        <ele>1956.8</ele>
        <time>2021-05-30T16:14:06Z</time>
      </trkpt>
      <trkpt lat="-12.1256440" lon="-76.6150300">
        <ele>1956.2</ele>
        <time>2021-05-30T16:14:08Z</time>
      </trkpt>
      <trkpt lat="-12.1255570" lon="-76.6150430">
        <ele>1955.4</ele>
        <time>2021-05-30T16:14:10Z</time>
      </trkpt>
      <trkpt lat="-12.1255220" lon="-76.6150440">
        <ele>1955.1</ele>
        <time>2021-05-30T16:14:11Z</time>
      </trkpt>
      <trkpt lat="-12.1254670" lon="-76.6150320">
        <ele>1954.6</ele>
        <time>2021-05-30T16:14:12Z</time>
      </trkpt>
      <trkpt lat="-12.1254340" lon="-76.6150090">
        <ele>1954.3</ele>
        <time>2021-05-30T16:14:14Z</time>
      </trkpt>
      <trkpt lat="-12.1253750" lon="-76.6150110">
        <ele>1953.7</ele>
        <time>2021-05-30T16:14:15Z</time>
      </trkpt>
      <trkpt lat="-12.1253460" lon="-76.6150160">
        <ele>1953.5</ele>
        <time>2021-05-30T16:14:16Z</time>
      </trkpt>
      <trkpt lat="-12.1253090" lon="-76.6150230">
        <ele>1953.2</ele>
        <time>2021-05-30T16:14:18Z</time>
      </trkpt>
      <trkpt lat="-12.1252710" lon="-76.6150380">
        <ele>1952.8</ele>
        <time>2021-05-30T16:14:19Z</time>
      </trkpt>
      <trkpt lat="-12.1252460" lon="-76.6150550">
        <ele>1952.5</ele>
        <time>2021-05-30T16:14:20Z</time>
      </trkpt>
      <trkpt lat="-12.1252220" lon="-76.6150760">
        <ele>1952.3</ele>
        <time>2021-05-30T16:14:22Z</time>
      </trkpt>
      <trkpt lat="-12.1252010" lon="-76.6151020">
        <ele>1952.0</ele>
        <time>2021-05-30T16:14:23Z</time>
      </trkpt>
      <trkpt lat="-12.1251790" lon="-76.6151290">
        <ele>1951.7</ele>
        <time>2021-05-30T16:14:24Z</time>
      </trkpt>
      <trkpt lat="-12.1251570" lon="-76.6151620">
        <ele>1951.3</ele>
        <time>2021-05-30T16:14:25Z</time>
      </trkpt>
      <trkpt lat="-12.1251380" lon="-76.6151920">
        <ele>1951.0</ele>
        <time>2021-05-30T16:14:26Z</time>
      </trkpt>
      <trkpt lat="-12.1251150" lon="-76.6152250">
        <ele>1950.7</ele>
        <time>2021-05-30T16:14:27Z</time>
      </trkpt>
      <trkpt lat="-12.1250830" lon="-76.6152580">
        <ele>1950.3</ele>
        <time>2021-05-30T16:14:29Z</time>
      </trkpt>
      <trkpt lat="-12.1250480" lon="-76.6152930">
        <ele>1949.9</ele>
        <time>2021-05-30T16:14:30Z</time>
      </trkpt>
      <trkpt lat="-12.1250230" lon="-76.6153190">
        <ele>1949.6</ele>
        <time>2021-05-30T16:14:31Z</time>
      </trkpt>
      <trkpt lat="-12.1249940" lon="-76.6153480">
        <ele>1949.2</ele>
        <time>2021-05-30T16:14:32Z</time>
      </trkpt>
      <trkpt lat="-12.1249580" lon="-76.6153810">
        <ele>1948.8</ele>
        <time>2021-05-30T16:14:34Z</time>
      </trkpt>
      <trkpt lat="-12.1249130" lon="-76.6154290">
        <ele>1948.2</ele>
        <time>2021-05-30T16:14:35Z</time>
      </trkpt>
      <trkpt lat="-12.1248850" lon="-76.6154520">
        <ele>1947.9</ele>
        <time>2021-05-30T16:14:36Z</time>
      </trkpt>
      <trkpt lat="-12.1248560" lon="-76.6154700">
        <ele>1947.6</ele>
        <time>2021-05-30T16:14:38Z</time>
      </trkpt>
      <trkpt lat="-12.1248310" lon="-76.6154830">
        <ele>1947.4</ele>
        <time>2021-05-30T16:14:39Z</time>
      </trkpt>
      <trkpt lat="-12.1247880" lon="-76.6155040">
        <ele>1947.0</ele>
        <time>2021-05-30T16:14:40Z</time>
      </trkpt>
      <trkpt lat="-12.1247620" lon="-76.6155210">
        <ele>1946.7</ele>
        <time>2021-05-30T16:14:41Z</time>
      </trkpt>
      <trkpt lat="-12.1247340" lon="-76.6155450">
        <ele>1946.4</ele>
        <time>2021-05-30T16:14:42Z</time>
      </trkpt>
      <trkpt lat="-12.1247100" lon="-76.6155730">
        <ele>1946.1</ele>
        <time>2021-05-30T16:14:43Z</time>
      </trkpt>
      <trkpt lat="-12.1246860" lon="-76.6156060">
        <ele>1945.7</ele>
        <time>2021-05-30T16:14:45Z</time>
      </trkpt>
      <trkpt lat="-12.1246660" lon="-76.6156400">
        <ele>1945.4</ele>
        <time>2021-05-30T16:14:46Z</time>
      </trkpt>
      <trkpt lat="-12.1246340" lon="-76.6157020">
        <ele>1944.8</ele>
        <time>2021-05-30T16:14:47Z</time>
      </trkpt>
      <trkpt lat="-12.1246190" lon="-76.6157660">
        <ele>1944.2</ele>
        <time>2021-05-30T16:14:49Z</time>
      </trkpt>
      <trkpt lat="-12.1247240" lon="-76.6158800">
        <ele>1942.9</ele>
        <time>2021-05-30T16:14:51Z</time>
      </trkpt>
      <trkpt lat="-12.1247810" lon="-76.6159150">
        <ele>1942.3</ele>
        <time>2021-05-30T16:14:52Z</time>
      </trkpt>
      <trkpt lat="-12.1248250" lon="-76.6159360">
        <ele>1941.9</ele>
        <time>2021-05-30T16:14:54Z</time>
      </trkpt>
      <trkpt lat="-12.1248430" lon="-76.6159650">
        <ele>1941.6</ele>
        <time>2021-05-30T16:14:55Z</time>
      </trkpt>
      <trkpt lat="-12.1248780" lon="-76.6160330">
        <ele>1940.9</ele>
        <time>2021-05-30T16:14:57Z</time>
      </trkpt>
      <trkpt lat="-12.1248910" lon="-76.6160790">
        <ele>1940.5</ele>
        <time>2021-05-30T16:14:58Z</time>
      </trkpt>
      <trkpt lat="-12.1249040" lon="-76.6161160">
        <ele>1940.2</ele>
        <time>2021-05-30T16:14:59Z</time>
      </trkpt>
      <trkpt lat="-12.1249190" lon="-76.6161450">
        <ele>1939.9</ele>
        <time>2021-05-30T16:15:00Z</time>
      </trkpt>
      <trkpt lat="-12.1249570" lon="-76.6161760">
        <ele>1939.5</ele>
        <time>2021-05-30T16:15:01Z</time>
      </trkpt>
      <trkpt lat="-12.1249920" lon="-76.6161900">
        <ele>1939.2</ele>
        <time>2021-05-30T16:15:03Z</time>
      </trkpt>
      <trkpt lat="-12.1250800" lon="-76.6162640">
        <ele>1938.2</ele>
        <time>2021-05-30T16:15:05Z</time>
      </trkpt>
      <trkpt lat="-12.1251250" lon="-76.6163130">
        <ele>1937.6</ele>
        <time>2021-05-30T16:15:06Z</time>
      </trkpt>
      <trkpt lat="-12.1251600" lon="-76.6163710">
        <ele>1937.0</ele>
        <time>2021-05-30T16:15:07Z</time>
      </trkpt>
      <trkpt lat="-12.1252070" lon="-76.6165140">
        <ele>1935.7</ele>
        <time>2021-05-30T16:15:09Z</time>
      </trkpt>
      <trkpt lat="-12.1252330" lon="-76.6165870">
        <ele>1935.1</ele>
        <time>2021-05-30T16:15:10Z</time>
      </trkpt>
      <trkpt lat="-12.1252860" lon="-76.6167430">
        <ele>1933.7</ele>
        <time>2021-05-30T16:15:12Z</time>
      </trkpt>
      <trkpt lat="-12.1253200" lon="-76.6168170">
        <ele>1933.0</ele>
        <time>2021-05-30T16:15:13Z</time>
      </trkpt>
      <trkpt lat="-12.1253540" lon="-76.6168830">
        <ele>1932.3</ele>
        <time>2021-05-30T16:15:14Z</time>
      </trkpt>
      <trkpt lat="-12.1254000" lon="-76.6170120">
        <ele>1931.2</ele>
        <time>2021-05-30T16:15:16Z</time>
      </trkpt>
      <trkpt lat="-12.1254310" lon="-76.6171440">
        <ele>1930.0</ele>
        <time>2021-05-30T16:15:18Z</time>
      </trkpt>
      <trkpt lat="-12.1254690" lon="-76.6172540">
        <ele>1929.0</ele>
        <time>2021-05-30T16:15:20Z</time>
      </trkpt>
      <trkpt lat="-12.1254960" lon="-76.6172970">
        <ele>1928.6</ele>
        <time>2021-05-30T16:15:21Z</time>
      </trkpt>
      <trkpt lat="-12.1255640" lon="-76.6173590">
        <ele>1927.8</ele>
        <time>2021-05-30T16:15:23Z</time>
      </trkpt>
      <trkpt lat="-12.1256140" lon="-76.6174100">
        <ele>1927.2</ele>
        <time>2021-05-30T16:15:25Z</time>
      </trkpt>
      <trkpt lat="-12.1256500" lon="-76.6174820">
        <ele>1926.5</ele>
        <time>2021-05-30T16:15:27Z</time>
      </trkpt>
      <trkpt lat="-12.1256610" lon="-76.6175280">
        <ele>1926.1</ele>
        <time>2021-05-30T16:15:28Z</time>
      </trkpt>
      <trkpt lat="-12.1256660" lon="-76.6176350">
        <ele>1925.2</ele>
        <time>2021-05-30T16:15:30Z</time>
      </trkpt>
      <trkpt lat="-12.1256590" lon="-76.6177440">
        <ele>1924.2</ele>
        <time>2021-05-30T16:15:32Z</time>
      </trkpt>
      <trkpt lat="-12.1256450" lon="-76.6178530">
        <ele>1923.3</ele>
        <time>2021-05-30T16:15:34Z</time>
      </trkpt>
      <trkpt lat="-12.1256060" lon="-76.6179530">
        <ele>1922.4</ele>
        <time>2021-05-30T16:15:36Z</time>
      </trkpt>
      <trkpt lat="-12.1255760" lon="-76.6179960">
        <ele>1921.9</ele>
        <time>2021-05-30T16:15:37Z</time>
      </trkpt>
      <trkpt lat="-12.1255060" lon="-76.6180920">
        <ele>1920.9</ele>
        <time>2021-05-30T16:15:39Z</time>
      </trkpt>
      <trkpt lat="-12.1254650" lon="-76.6181430">
        <ele>1920.4</ele>
        <time>2021-05-30T16:15:40Z</time>
      </trkpt>
      <trkpt lat="-12.1254140" lon="-76.6181870">
        <ele>1919.8</ele>
        <time>2021-05-30T16:15:41Z</time>
      </trkpt>
      <trkpt lat="-12.1253150" lon="-76.6182820">
        <ele>1918.6</ele>
        <time>2021-05-30T16:15:43Z</time>
      </trkpt>
      <trkpt lat="-12.1252290" lon="-76.6183700">
        <ele>1917.5</ele>
        <time>2021-05-30T16:15:45Z</time>
      </trkpt>
      <trkpt lat="-12.1251860" lon="-76.6184170">
        <ele>1917.0</ele>
        <time>2021-05-30T16:15:46Z</time>
      </trkpt>
      <trkpt lat="-12.1250940" lon="-76.6185200">
        <ele>1915.8</ele>
        <time>2021-05-30T16:15:48Z</time>
      </trkpt>
      <trkpt lat="-12.1249980" lon="-76.6186040">
        <ele>1914.7</ele>
        <time>2021-05-30T16:15:50Z</time>
      </trkpt>
      <trkpt lat="-12.1249370" lon="-76.6186330">
        <ele>1914.1</ele>
        <time>2021-05-30T16:15:51Z</time>
      </trkpt>
      <trkpt lat="-12.1248120" lon="-76.6186840">
        <ele>1912.9</ele>
        <time>2021-05-30T16:15:53Z</time>
      </trkpt>
      <trkpt lat="-12.1247530" lon="-76.6187080">
        <ele>1912.4</ele>
        <time>2021-05-30T16:15:54Z</time>
      </trkpt>
      <trkpt lat="-12.1246760" lon="-76.6187800">
        <ele>1911.5</ele>
        <time>2021-05-30T16:15:56Z</time>
      </trkpt>
      <trkpt lat="-12.1246440" lon="-76.6188260">
        <ele>1911.0</ele>
        <time>2021-05-30T16:15:57Z</time>
      </trkpt>
      <trkpt lat="-12.1246060" lon="-76.6189450">
        <ele>1910.2</ele>
        <time>2021-05-30T16:15:59Z</time>
      </trkpt>
      <trkpt lat="-12.1245750" lon="-76.6190690">
        <ele>1909.3</ele>
        <time>2021-05-30T16:16:01Z</time>
      </trkpt>
      <trkpt lat="-12.1245450" lon="-76.6191420">
        <ele>1908.8</ele>
        <time>2021-05-30T16:16:03Z</time>
      </trkpt>
      <trkpt lat="-12.1245130" lon="-76.6192010">
        <ele>1908.3</ele>
        <time>2021-05-30T16:16:05Z</time>
      </trkpt>
      <trkpt lat="-12.1244870" lon="-76.6192240">
        <ele>1908.1</ele>
        <time>2021-05-30T16:16:06Z</time>
      </trkpt>
      <trkpt lat="-12.1244570" lon="-76.6192520">
        <ele>1907.8</ele>
        <time>2021-05-30T16:16:07Z</time>
      </trkpt>
      <trkpt lat="-12.1244180" lon="-76.6192830">
        <ele>1907.5</ele>
        <time>2021-05-30T16:16:08Z</time>
      </trkpt>
      <trkpt lat="-12.1243110" lon="-76.6193410">
        <ele>1906.6</ele>
        <time>2021-05-30T16:16:10Z</time>
      </trkpt>
      <trkpt lat="-12.1241910" lon="-76.6193820">
        <ele>1905.8</ele>
        <time>2021-05-30T16:16:12Z</time>
      </trkpt>
      <trkpt lat="-12.1241230" lon="-76.6193990">
        <ele>1905.3</ele>
        <time>2021-05-30T16:16:13Z</time>
      </trkpt>
      <trkpt lat="-12.1240560" lon="-76.6194180">
        <ele>1904.8</ele>
        <time>2021-05-30T16:16:14Z</time>
      </trkpt>
      <trkpt lat="-12.1239890" lon="-76.6194310">
        <ele>1904.3</ele>
        <time>2021-05-30T16:16:15Z</time>
      </trkpt>
      <trkpt lat="-12.1239240" lon="-76.6194390">
        <ele>1903.9</ele>
        <time>2021-05-30T16:16:16Z</time>
      </trkpt>
      <trkpt lat="-12.1238070" lon="-76.6194640">
        <ele>1903.1</ele>
        <time>2021-05-30T16:16:18Z</time>
      </trkpt>
      <trkpt lat="-12.1237520" lon="-76.6194740">
        <ele>1902.7</ele>
        <time>2021-05-30T16:16:19Z</time>
      </trkpt>
      <trkpt lat="-12.1236490" lon="-76.6194790">
        <ele>1902.0</ele>
        <time>2021-05-30T16:16:21Z</time>
      </trkpt>
      <trkpt lat="-12.1235860" lon="-76.6195170">
        <ele>1901.4</ele>
        <time>2021-05-30T16:16:23Z</time>
      </trkpt>
      <trkpt lat="-12.1235700" lon="-76.6195590">
        <ele>1901.1</ele>
        <time>2021-05-30T16:16:24Z</time>
      </trkpt>
      <trkpt lat="-12.1235400" lon="-76.6196610">
        <ele>1900.4</ele>
        <time>2021-05-30T16:16:26Z</time>
      </trkpt>
      <trkpt lat="-12.1235140" lon="-76.6197650">
        <ele>1899.7</ele>
        <time>2021-05-30T16:16:28Z</time>
      </trkpt>
      <trkpt lat="-12.1235060" lon="-76.6198200">
        <ele>1899.3</ele>
        <time>2021-05-30T16:16:29Z</time>
      </trkpt>
      <trkpt lat="-12.1235060" lon="-76.6198810">
        <ele>1898.9</ele>
        <time>2021-05-30T16:16:30Z</time>
      </trkpt>
      <trkpt lat="-12.1235200" lon="-76.6200110">
        <ele>1898.0</ele>
        <time>2021-05-30T16:16:32Z</time>
      </trkpt>
      <trkpt lat="-12.1235390" lon="-76.6201450">
        <ele>1897.1</ele>
        <time>2021-05-30T16:16:34Z</time>
      </trkpt>
      <trkpt lat="-12.1235660" lon="-76.6202530">
        <ele>1896.4</ele>
        <time>2021-05-30T16:16:36Z</time>
      </trkpt>
      <trkpt lat="-12.1235700" lon="-76.6203020">
        <ele>1896.0</ele>
        <time>2021-05-30T16:16:37Z</time>
      </trkpt>
      <trkpt lat="-12.1235680" lon="-76.6203310">
        <ele>1895.8</ele>
        <time>2021-05-30T16:16:38Z</time>
      </trkpt>
      <trkpt lat="-12.1235560" lon="-76.6203690">
        <ele>1895.6</ele>
        <time>2021-05-30T16:16:39Z</time>
      </trkpt>
      <trkpt lat="-12.1235400" lon="-76.6204080">
        <ele>1895.3</ele>
        <time>2021-05-30T16:16:40Z</time>
      </trkpt>
      <trkpt lat="-12.1234990" lon="-76.6205040">
        <ele>1894.6</ele>
        <time>2021-05-30T16:16:42Z</time>
      </trkpt>
      <trkpt lat="-12.1234700" lon="-76.6205520">
        <ele>1894.2</ele>
        <time>2021-05-30T16:16:43Z</time>
      </trkpt>
      <trkpt lat="-12.1233960" lon="-76.6206360">
        <ele>1893.4</ele>
        <time>2021-05-30T16:16:45Z</time>
      </trkpt>
      <trkpt lat="-12.1233190" lon="-76.6207090">
        <ele>1892.7</ele>
        <time>2021-05-30T16:16:47Z</time>
      </trkpt>
      <trkpt lat="-12.1232460" lon="-76.6207940">
        <ele>1891.9</ele>
        <time>2021-05-30T16:16:49Z</time>
      </trkpt>
      <trkpt lat="-12.1231890" lon="-76.6209080">
        <ele>1891.1</ele>
        <time>2021-05-30T16:16:51Z</time>
      </trkpt>
      <trkpt lat="-12.1231650" lon="-76.6209720">
        <ele>1890.6</ele>
        <time>2021-05-30T16:16:52Z</time>
      </trkpt>
      <trkpt lat="-12.1231380" lon="-76.6210820">
        <ele>1889.9</ele>
        <time>2021-05-30T16:16:54Z</time>
      </trkpt>
      <trkpt lat="-12.1231140" lon="-76.6211900">
        <ele>1889.1</ele>
        <time>2021-05-30T16:16:56Z</time>
      </trkpt>
      <trkpt lat="-12.1230930" lon="-76.6212430">
        <ele>1888.7</ele>
        <time>2021-05-30T16:16:57Z</time>
      </trkpt>
      <trkpt lat="-12.1230600" lon="-76.6212940">
        <ele>1888.3</ele>
        <time>2021-05-30T16:16:58Z</time>
      </trkpt>
      <trkpt lat="-12.1229910" lon="-76.6213840">
        <ele>1887.5</ele>
        <time>2021-05-30T16:17:00Z</time>
      </trkpt>
      <trkpt lat="-12.1229040" lon="-76.6214520">
        <ele>1886.8</ele>
        <time>2021-05-30T16:17:02Z</time>
      </trkpt>
      <trkpt lat="-12.1228560" lon="-76.6214840">
        <ele>1886.4</ele>
        <time>2021-05-30T16:17:03Z</time>
      </trkpt>
      <trkpt lat="-12.1227740" lon="-76.6215390">
        <ele>1885.7</ele>
        <time>2021-05-30T16:17:05Z</time>
      </trkpt>
      <trkpt lat="-12.1227120" lon="-76.6215740">
        <ele>1885.2</ele>
        <time>2021-05-30T16:17:07Z</time>
      </trkpt>
      <trkpt lat="-12.1226760" lon="-76.6215940">
        <ele>1884.9</ele>
        <time>2021-05-30T16:17:08Z</time>
      </trkpt>
      <trkpt lat="-12.1226640" lon="-76.6216020">
        <ele>1884.8</ele>
        <time>2021-05-30T16:17:09Z</time>
      </trkpt>
      <trkpt lat="-12.1226530" lon="-76.6216190">
        <ele>1884.7</ele>
        <time>2021-05-30T16:17:10Z</time>
      </trkpt>
      <trkpt lat="-12.1226440" lon="-76.6216620">
        <ele>1884.4</ele>
        <time>2021-05-30T16:17:12Z</time>
      </trkpt>
      <trkpt lat="-12.1226470" lon="-76.6216900">
        <ele>1884.2</ele>
        <time>2021-05-30T16:17:13Z</time>
      </trkpt>
      <trkpt lat="-12.1226530" lon="-76.6217150">
        <ele>1884.0</ele>
        <time>2021-05-30T16:17:14Z</time>
      </trkpt>
      <trkpt lat="-12.1226600" lon="-76.6217270">
        <ele>1883.9</ele>
        <time>2021-05-30T16:17:16Z</time>
      </trkpt>
      <trkpt lat="-12.1226990" lon="-76.6217280">
        <ele>1883.7</ele>
        <time>2021-05-30T16:17:17Z</time>
      </trkpt>
      <trkpt lat="-12.1227150" lon="-76.6217230">
        <ele>1883.6</ele>
        <time>2021-05-30T16:17:18Z</time>
      </trkpt>
      <trkpt lat="-12.1227410" lon="-76.6217080">
        <ele>1883.4</ele>
        <time>2021-05-30T16:17:19Z</time>
      </trkpt>
      <trkpt lat="-12.1227800" lon="-76.6216830">
        <ele>1883.0</ele>
        <time>2021-05-30T16:17:21Z</time>
      </trkpt>
      <trkpt lat="-12.1228250" lon="-76.6216520">
        <ele>1882.7</ele>
        <time>2021-05-30T16:17:22Z</time>
      </trkpt>
      <trkpt lat="-12.1228610" lon="-76.6216340">
        <ele>1882.4</ele>
        <time>2021-05-30T16:17:24Z</time>
      </trkpt>
      <trkpt lat="-12.1229790" lon="-76.6215810">
        <ele>1881.5</ele>
        <time>2021-05-30T16:17:26Z</time>
      </trkpt>
      <trkpt lat="-12.1230340" lon="-76.6215410">
        <ele>1881.0</ele>
        <time>2021-05-30T16:17:27Z</time>
      </trkpt>
      <trkpt lat="-12.1231270" lon="-76.6214570">
        <ele>1880.2</ele>
        <time>2021-05-30T16:17:29Z</time>
      </trkpt>
      <trkpt lat="-12.1231710" lon="-76.6214200">
        <ele>1879.8</ele>
        <time>2021-05-30T16:17:30Z</time>
      </trkpt>
      <trkpt lat="-12.1232150" lon="-76.6213760">
        <ele>1879.4</ele>
        <time>2021-05-30T16:17:31Z</time>
      </trkpt>
      <trkpt lat="-12.1232570" lon="-76.6213340">
        <ele>1879.0</ele>
        <time>2021-05-30T16:17:32Z</time>
      </trkpt>
      <trkpt lat="-12.1233100" lon="-76.6212430">
        <ele>1878.2</ele>
        <time>2021-05-30T16:17:34Z</time>
      </trkpt>
      <trkpt lat="-12.1233390" lon="-76.6211950">
        <ele>1877.9</ele>
        <time>2021-05-30T16:17:35Z</time>
      </trkpt>
      <trkpt lat="-12.1233870" lon="-76.6210940">
        <ele>1877.1</ele>
        <time>2021-05-30T16:17:37Z</time>
      </trkpt>
      <trkpt lat="-12.1234440" lon="-76.6210070">
        <ele>1876.4</ele>
        <time>2021-05-30T16:17:39Z</time>
      </trkpt>
      <trkpt lat="-12.1234800" lon="-76.6209660">
        <ele>1876.0</ele>
        <time>2021-05-30T16:17:40Z</time>
      </trkpt>
      <trkpt lat="-12.1235530" lon="-76.6208940">
        <ele>1875.3</ele>
        <time>2021-05-30T16:17:42Z</time>
      </trkpt>
      <trkpt lat="-12.1236370" lon="-76.6208290">
        <ele>1874.6</ele>
        <time>2021-05-30T16:17:44Z</time>
      </trkpt>
      <trkpt lat="-12.1236790" lon="-76.6207960">
        <ele>1874.2</ele>
        <time>2021-05-30T16:17:45Z</time>
      </trkpt>
      <trkpt lat="-12.1237180" lon="-76.6207640">
        <ele>1873.9</ele>
        <time>2021-05-30T16:17:46Z</time>
      </trkpt>
      <trkpt lat="-12.1237540" lon="-76.6207190">
        <ele>1873.5</ele>
        <time>2021-05-30T16:17:47Z</time>
      </trkpt>
      <trkpt lat="-12.1237890" lon="-76.6206770">
        <ele>1873.1</ele>
        <time>2021-05-30T16:17:48Z</time>
      </trkpt>
      <trkpt lat="-12.1238260" lon="-76.6206350">
        <ele>1872.7</ele>
        <time>2021-05-30T16:17:49Z</time>
      </trkpt>
      <trkpt lat="-12.1238980" lon="-76.6205390">
        <ele>1871.9</ele>
        <time>2021-05-30T16:17:51Z</time>
      </trkpt>
      <trkpt lat="-12.1239380" lon="-76.6204350">
        <ele>1871.2</ele>
        <time>2021-05-30T16:17:53Z</time>
      </trkpt>
      <trkpt lat="-12.1239470" lon="-76.6203780">
        <ele>1870.8</ele>
        <time>2021-05-30T16:17:54Z</time>
      </trkpt>
      <trkpt lat="-12.1239500" lon="-76.6203180">
        <ele>1870.4</ele>
        <time>2021-05-30T16:17:55Z</time>
      </trkpt>
      <trkpt lat="-12.1239580" lon="-76.6201910">
        <ele>1869.5</ele>
        <time>2021-05-30T16:17:57Z</time>
      </trkpt>
      <trkpt lat="-12.1239660" lon="-76.6201230">
        <ele>1869.1</ele>
        <time>2021-05-30T16:17:58Z</time>
      </trkpt>
      <trkpt lat="-12.1239820" lon="-76.6200670">
        <ele>1868.7</ele>
        <time>2021-05-30T16:17:59Z</time>
      </trkpt>
      <trkpt lat="-12.1240080" lon="-76.6199850">
        <ele>1868.1</ele>
        <time>2021-05-30T16:18:01Z</time>
      </trkpt>
      <trkpt lat="-12.1240270" lon="-76.6199570">
        <ele>1867.8</ele>
        <time>2021-05-30T16:18:02Z</time>
      </trkpt>
      <trkpt lat="-12.1240490" lon="-76.6199340">
        <ele>1867.6</ele>
        <time>2021-05-30T16:18:03Z</time>
      </trkpt>
      <trkpt lat="-12.1240740" lon="-76.6199280">
        <ele>1867.5</ele>
        <time>2021-05-30T16:18:04Z</time>
      </trkpt>
      <trkpt lat="-12.1241220" lon="-76.6199280">
        <ele>1867.1</ele>
        <time>2021-05-30T16:18:06Z</time>
      </trkpt>
      <trkpt lat="-12.1241590" lon="-76.6199260">
        <ele>1866.9</ele>
        <time>2021-05-30T16:18:07Z</time>
      </trkpt>
      <trkpt lat="-12.1241960" lon="-76.6199060">
        <ele>1866.6</ele>
        <time>2021-05-30T16:18:08Z</time>
      </trkpt>
      <trkpt lat="-12.1242890" lon="-76.6199040">
        <ele>1865.9</ele>
        <time>2021-05-30T16:18:10Z</time>
      </trkpt>
      <trkpt lat="-12.1244070" lon="-76.6199110">
        <ele>1865.1</ele>
        <time>2021-05-30T16:18:12Z</time>
      </trkpt>
      <trkpt lat="-12.1245110" lon="-76.6198760">
        <ele>1864.4</ele>
        <time>2021-05-30T16:18:14Z</time>
      </trkpt>
      <trkpt lat="-12.1246260" lon="-76.6198450">
        <ele>1863.5</ele>
        <time>2021-05-30T16:18:16Z</time>
      </trkpt>
      <trkpt lat="-12.1246870" lon="-76.6198300">
        <ele>1863.1</ele>
        <time>2021-05-30T16:18:17Z</time>
      </trkpt>
      <trkpt lat="-12.1248190" lon="-76.6197940">
        <ele>1862.2</ele>
        <time>2021-05-30T16:18:19Z</time>
      </trkpt>
      <trkpt lat="-12.1248880" lon="-76.6197650">
        <ele>1861.6</ele>
        <time>2021-05-30T16:18:20Z</time>
      </trkpt>
      <trkpt lat="-12.1249520" lon="-76.6197280">
        <ele>1861.1</ele>
        <time>2021-05-30T16:18:21Z</time>
      </trkpt>
      <trkpt lat="-12.1250130" lon="-76.6196980">
        <ele>1860.7</ele>
        <time>2021-05-30T16:18:22Z</time>
      </trkpt>
      <trkpt lat="-12.1251190" lon="-76.6196390">
        <ele>1859.8</ele>
        <time>2021-05-30T16:18:24Z</time>
      </trkpt>
      <trkpt lat="-12.1251730" lon="-76.6196090">
        <ele>1859.4</ele>
        <time>2021-05-30T16:18:25Z</time>
      </trkpt>
      <trkpt lat="-12.1252230" lon="-76.6195870">
        <ele>1859.0</ele>
        <time>2021-05-30T16:18:26Z</time>
      </trkpt>
      <trkpt lat="-12.1252690" lon="-76.6195690">
        <ele>1858.7</ele>
        <time>2021-05-30T16:18:27Z</time>
      </trkpt>
      <trkpt lat="-12.1253470" lon="-76.6195520">
        <ele>1858.2</ele>
        <time>2021-05-30T16:18:29Z</time>
      </trkpt>
      <trkpt lat="-12.1254120" lon="-76.6195640">
        <ele>1857.7</ele>
        <time>2021-05-30T16:18:31Z</time>
      </trkpt>
      <trkpt lat="-12.1254890" lon="-76.6195770">
        <ele>1857.2</ele>
        <time>2021-05-30T16:18:33Z</time>
      </trkpt>
      <trkpt lat="-12.1255220" lon="-76.6195620">
        <ele>1856.9</ele>
        <time>2021-05-30T16:18:34Z</time>
      </trkpt>
      <trkpt lat="-12.1255150" lon="-76.6195420">
        <ele>1856.8</ele>
        <time>2021-05-30T16:18:35Z</time>
      </trkpt>
      <trkpt lat="-12.1255090" lon="-76.6195260">
        <ele>1856.6</ele>
        <time>2021-05-30T16:18:36Z</time>
      </trkpt>
      <trkpt lat="-12.1256130" lon="-76.6195010">
        <ele>1855.9</ele>
        <time>2021-05-30T16:18:38Z</time>
      </trkpt>
      <trkpt lat="-12.1257310" lon="-76.6194900">
        <ele>1855.1</ele>
        <time>2021-05-30T16:18:40Z</time>
      </trkpt>
      <trkpt lat="-12.1257790" lon="-76.6194920">
        <ele>1854.8</ele>
        <time>2021-05-30T16:18:41Z</time>
      </trkpt>
      <trkpt lat="-12.1258600" lon="-76.6194970">
        <ele>1854.2</ele>
        <time>2021-05-30T16:18:43Z</time>
      </trkpt>
      <trkpt lat="-12.1259130" lon="-76.6195130">
        <ele>1853.8</ele>
        <time>2021-05-30T16:18:45Z</time>
      </trkpt>
      <trkpt lat="-12.1259550" lon="-76.6195460">
        <ele>1853.5</ele>
        <time>2021-05-30T16:18:47Z</time>
      </trkpt>
      <trkpt lat="-12.1259710" lon="-76.6195710">
        <ele>1853.3</ele>
        <time>2021-05-30T16:18:48Z</time>
      </trkpt>
      <trkpt lat="-12.1259810" lon="-76.6195990">
        <ele>1853.1</ele>
        <time>2021-05-30T16:18:49Z</time>
      </trkpt>
      <trkpt lat="-12.1259620" lon="-76.6196640">
        <ele>1852.6</ele>
        <time>2021-05-30T16:18:51Z</time>
      </trkpt>
      <trkpt lat="-12.1259450" lon="-76.6196940">
        <ele>1852.4</ele>
        <time>2021-05-30T16:18:52Z</time>
      </trkpt>
      <trkpt lat="-12.1259260" lon="-76.6197170">
        <ele>1852.2</ele>
        <time>2021-05-30T16:18:53Z</time>
      </trkpt>
      <trkpt lat="-12.1258990" lon="-76.6197380">
        <ele>1851.9</ele>
        <time>2021-05-30T16:18:54Z</time>
      </trkpt>
      <trkpt lat="-12.1258350" lon="-76.6197530">
        <ele>1851.5</ele>
        <time>2021-05-30T16:18:56Z</time>
      </trkpt>
      <trkpt lat="-12.1257930" lon="-76.6197500">
        <ele>1851.2</ele>
        <time>2021-05-30T16:18:57Z</time>
      </trkpt>
      <trkpt lat="-12.1257510" lon="-76.6197380">
        <ele>1850.9</ele>
        <time>2021-05-30T16:18:58Z</time>
      </trkpt>
      <trkpt lat="-12.1256730" lon="-76.6197160">
        <ele>1850.3</ele>
        <time>2021-05-30T16:19:00Z</time>
      </trkpt>
      <trkpt lat="-12.1255920" lon="-76.6197240">
        <ele>1849.8</ele>
        <time>2021-05-30T16:19:02Z</time>
      </trkpt>
      <trkpt lat="-12.1255020" lon="-76.6197480">
        <ele>1849.1</ele>
        <time>2021-05-30T16:19:04Z</time>
      </trkpt>
      <trkpt lat="-12.1254130" lon="-76.6197470">
        <ele>1848.5</ele>
        <time>2021-05-30T16:19:06Z</time>
      </trkpt>
      <trkpt lat="-12.1253630" lon="-76.6197310">
        <ele>1848.1</ele>
        <time>2021-05-30T16:19:07Z</time>
      </trkpt>
      <trkpt lat="-12.1252760" lon="-76.6196920">
        <ele>1848.0</ele>
        <time>2021-05-30T16:19:09Z</time>
      </trkpt>
      <trkpt lat="-12.1251980" lon="-76.6196620">
        <ele>1847.4</ele>
        <time>2021-05-30T16:19:11Z</time>
      </trkpt>
      <trkpt lat="-12.1251580" lon="-76.6196770">
        <ele>1847.1</ele>
        <time>2021-05-30T16:19:12Z</time>
      </trkpt>
      <trkpt lat="-12.1251060" lon="-76.6197130">
        <ele>1846.6</ele>
        <time>2021-05-30T16:19:13Z</time>
      </trkpt>
      <trkpt lat="-12.1250620" lon="-76.6197510">
        <ele>1846.2</ele>
        <time>2021-05-30T16:19:15Z</time>
      </trkpt>
      <trkpt lat="-12.1250280" lon="-76.6197920">
        <ele>1845.8</ele>
        <time>2021-05-30T16:19:16Z</time>
      </trkpt>
      <trkpt lat="-12.1249630" lon="-76.6199030">
        <ele>1844.9</ele>
        <time>2021-05-30T16:19:18Z</time>
      </trkpt>
      <trkpt lat="-12.1249240" lon="-76.6199530">
        <ele>1844.5</ele>
        <time>2021-05-30T16:19:19Z</time>
      </trkpt>
      <trkpt lat="-12.1248380" lon="-76.6200460">
        <ele>1843.6</ele>
        <time>2021-05-30T16:19:21Z</time>
      </trkpt>
      <trkpt lat="-12.1247440" lon="-76.6201290">
        <ele>1842.7</ele>
        <time>2021-05-30T16:19:23Z</time>
      </trkpt>
      <trkpt lat="-12.1246540" lon="-76.6202050">
        <ele>1841.8</ele>
        <time>2021-05-30T16:19:25Z</time>
      </trkpt>
      <trkpt lat="-12.1245600" lon="-76.6202590">
        <ele>1841.0</ele>
        <time>2021-05-30T16:19:27Z</time>
      </trkpt>
      <trkpt lat="-12.1244560" lon="-76.6203280">
        <ele>1840.1</ele>
        <time>2021-05-30T16:19:29Z</time>
      </trkpt>
      <trkpt lat="-12.1243640" lon="-76.6204200">
        <ele>1839.2</ele>
        <time>2021-05-30T16:19:31Z</time>
      </trkpt>
      <trkpt lat="-12.1243280" lon="-76.6204640">
        <ele>1838.8</ele>
        <time>2021-05-30T16:19:32Z</time>
      </trkpt>
      <trkpt lat="-12.1242970" lon="-76.6205100">
        <ele>1838.4</ele>
        <time>2021-05-30T16:19:33Z</time>
      </trkpt>
      <trkpt lat="-12.1242660" lon="-76.6206140">
        <ele>1837.6</ele>
        <time>2021-05-30T16:19:35Z</time>
      </trkpt>
      <trkpt lat="-12.1242580" lon="-76.6206740">
        <ele>1837.2</ele>
        <time>2021-05-30T16:19:36Z</time>
      </trkpt>
      <trkpt lat="-12.1242380" lon="-76.6207970">
        <ele>1836.3</ele>
        <time>2021-05-30T16:19:38Z</time>
      </trkpt>
      <trkpt lat="-12.1241990" lon="-76.6209150">
        <ele>1835.5</ele>
        <time>2021-05-30T16:19:40Z</time>
      </trkpt>
      <trkpt lat="-12.1241660" lon="-76.6209760">
        <ele>1835.0</ele>
        <time>2021-05-30T16:19:41Z</time>
      </trkpt>
      <trkpt lat="-12.1241040" lon="-76.6210940">
        <ele>1834.0</ele>
        <time>2021-05-30T16:19:43Z</time>
      </trkpt>
      <trkpt lat="-12.1240720" lon="-76.6211500">
        <ele>1833.6</ele>
        <time>2021-05-30T16:19:44Z</time>
      </trkpt>
      <trkpt lat="-12.1240050" lon="-76.6212670">
        <ele>1832.6</ele>
        <time>2021-05-30T16:19:46Z</time>
      </trkpt>
      <trkpt lat="-12.1239680" lon="-76.6213320">
        <ele>1832.1</ele>
        <time>2021-05-30T16:19:47Z</time>
      </trkpt>
      <trkpt lat="-12.1238930" lon="-76.6214730">
        <ele>1830.9</ele>
        <time>2021-05-30T16:19:49Z</time>
      </trkpt>
      <trkpt lat="-12.1238160" lon="-76.6215920">
        <ele>1829.9</ele>
        <time>2021-05-30T16:19:51Z</time>
      </trkpt>
      <trkpt lat="-12.1237750" lon="-76.6216520">
        <ele>1829.4</ele>
        <time>2021-05-30T16:19:52Z</time>
      </trkpt>
      <trkpt lat="-12.1237010" lon="-76.6217680">
        <ele>1828.4</ele>
        <time>2021-05-30T16:19:54Z</time>
      </trkpt>
      <trkpt lat="-12.1236290" lon="-76.6218850">
        <ele>1827.4</ele>
        <time>2021-05-30T16:19:56Z</time>
      </trkpt>
      <trkpt lat="-12.1235930" lon="-76.6219480">
        <ele>1826.9</ele>
        <time>2021-05-30T16:19:57Z</time>
      </trkpt>
      <trkpt lat="-12.1235140" lon="-76.6220870">
        <ele>1825.8</ele>
        <time>2021-05-30T16:19:59Z</time>
      </trkpt>
      <trkpt lat="-12.1234740" lon="-76.6221440">
        <ele>1825.3</ele>
        <time>2021-05-30T16:20:00Z</time>
      </trkpt>
      <trkpt lat="-12.1234340" lon="-76.6221890">
        <ele>1824.9</ele>
        <time>2021-05-30T16:20:01Z</time>
      </trkpt>
      <trkpt lat="-12.1233510" lon="-76.6222630">
        <ele>1824.1</ele>
        <time>2021-05-30T16:20:03Z</time>
      </trkpt>
      <trkpt lat="-12.1232750" lon="-76.6223210">
        <ele>1823.4</ele>
        <time>2021-05-30T16:20:05Z</time>
      </trkpt>
      <trkpt lat="-12.1231930" lon="-76.6223920">
        <ele>1822.6</ele>
        <time>2021-05-30T16:20:07Z</time>
      </trkpt>
      <trkpt lat="-12.1230970" lon="-76.6224480">
        <ele>1821.8</ele>
        <time>2021-05-30T16:20:09Z</time>
      </trkpt>
      <trkpt lat="-12.1230530" lon="-76.6224710">
        <ele>1821.5</ele>
        <time>2021-05-30T16:20:10Z</time>
      </trkpt>
      <trkpt lat="-12.1230080" lon="-76.6224990">
        <ele>1821.1</ele>
        <time>2021-05-30T16:20:11Z</time>
      </trkpt>
      <trkpt lat="-12.1229180" lon="-76.6225490">
        <ele>1820.3</ele>
        <time>2021-05-30T16:20:13Z</time>
      </trkpt>
      <trkpt lat="-12.1228280" lon="-76.6225790">
        <ele>1819.6</ele>
        <time>2021-05-30T16:20:15Z</time>
      </trkpt>
      <trkpt lat="-12.1227850" lon="-76.6225930">
        <ele>1819.3</ele>
        <time>2021-05-30T16:20:16Z</time>
      </trkpt>
      <trkpt lat="-12.1227060" lon="-76.6226100">
        <ele>1818.7</ele>
        <time>2021-05-30T16:20:18Z</time>
      </trkpt>
      <trkpt lat="-12.1226190" lon="-76.6226300">
        <ele>1818.1</ele>
        <time>2021-05-30T16:20:20Z</time>
      </trkpt>
      <trkpt lat="-12.1225730" lon="-76.6226320">
        <ele>1817.8</ele>
        <time>2021-05-30T16:20:21Z</time>
      </trkpt>
      <trkpt lat="-12.1225290" lon="-76.6226390">
        <ele>1817.4</ele>
        <time>2021-05-30T16:20:22Z</time>
      </trkpt>
      <trkpt lat="-12.1224710" lon="-76.6226700">
        <ele>1817.0</ele>
        <time>2021-05-30T16:20:23Z</time>
      </trkpt>
      <trkpt lat="-12.1224240" lon="-76.6227000">
        <ele>1816.6</ele>
        <time>2021-05-30T16:20:24Z</time>
      </trkpt>
      <trkpt lat="-12.1223860" lon="-76.6227250">
        <ele>1816.2</ele>
        <time>2021-05-30T16:20:26Z</time>
      </trkpt>
      <trkpt lat="-12.1223510" lon="-76.6227510">
        <ele>1815.9</ele>
        <time>2021-05-30T16:20:27Z</time>
      </trkpt>
      <trkpt lat="-12.1223080" lon="-76.6228010">
        <ele>1815.5</ele>
        <time>2021-05-30T16:20:28Z</time>
      </trkpt>
      <trkpt lat="-12.1222870" lon="-76.6228410">
        <ele>1815.1</ele>
        <time>2021-05-30T16:20:30Z</time>
      </trkpt>
      <trkpt lat="-12.1222730" lon="-76.6228690">
        <ele>1814.9</ele>
        <time>2021-05-30T16:20:31Z</time>
      </trkpt>
      <trkpt lat="-12.1222610" lon="-76.6229090">
        <ele>1814.6</ele>
        <time>2021-05-30T16:20:32Z</time>
      </trkpt>
      <trkpt lat="-12.1222530" lon="-76.6229510">
        <ele>1814.3</ele>
        <time>2021-05-30T16:20:33Z</time>
      </trkpt>
      <trkpt lat="-12.1222500" lon="-76.6229660">
        <ele>1814.2</ele>
        <time>2021-05-30T16:20:34Z</time>
      </trkpt>
      <trkpt lat="-12.1222410" lon="-76.6230040">
        <ele>1813.9</ele>
        <time>2021-05-30T16:20:36Z</time>
      </trkpt>
      <trkpt lat="-12.1222330" lon="-76.6230310">
        <ele>1813.7</ele>
        <time>2021-05-30T16:20:37Z</time>
      </trkpt>
      <trkpt lat="-12.1222260" lon="-76.6230610">
        <ele>1813.5</ele>
        <time>2021-05-30T16:20:38Z</time>
      </trkpt>
      <trkpt lat="-12.1222180" lon="-76.6230990">
        <ele>1813.2</ele>
        <time>2021-05-30T16:20:39Z</time>
      </trkpt>
      <trkpt lat="-12.1222160" lon="-76.6231310">
        <ele>1813.0</ele>
        <time>2021-05-30T16:20:41Z</time>
      </trkpt>
      <trkpt lat="-12.1222160" lon="-76.6231590">
        <ele>1812.8</ele>
        <time>2021-05-30T16:20:42Z</time>
      </trkpt>
      <trkpt lat="-12.1222250" lon="-76.6232030">
        <ele>1812.5</ele>
        <time>2021-05-30T16:20:44Z</time>
      </trkpt>
      <trkpt lat="-12.1222530" lon="-76.6232350">
        <ele>1812.2</ele>
        <time>2021-05-30T16:20:45Z</time>
      </trkpt>
      <trkpt lat="-12.1222790" lon="-76.6232600">
        <ele>1811.9</ele>
        <time>2021-05-30T16:20:46Z</time>
      </trkpt>
      <trkpt lat="-12.1223060" lon="-76.6232820">
        <ele>1811.7</ele>
        <time>2021-05-30T16:20:47Z</time>
      </trkpt>
      <trkpt lat="-12.1223420" lon="-76.6233030">
        <ele>1811.4</ele>
        <time>2021-05-30T16:20:48Z</time>
      </trkpt>
      <trkpt lat="-12.1224260" lon="-76.6233510">
        <ele>1810.7</ele>
        <time>2021-05-30T16:20:50Z</time>
      </trkpt>
      <trkpt lat="-12.1225330" lon="-76.6234170">
        <ele>1809.8</ele>
        <time>2021-05-30T16:20:52Z</time>
      </trkpt>
      <trkpt lat="-12.1225840" lon="-76.6234490">
        <ele>1809.3</ele>
        <time>2021-05-30T16:20:53Z</time>
      </trkpt>
      <trkpt lat="-12.1226240" lon="-76.6234760">
        <ele>1809.0</ele>
        <time>2021-05-30T16:20:54Z</time>
      </trkpt>
      <trkpt lat="-12.1226820" lon="-76.6234980">
        <ele>1808.6</ele>
        <time>2021-05-30T16:20:55Z</time>
      </trkpt>
      <trkpt lat="-12.1227160" lon="-76.6235290">
        <ele>1808.2</ele>
        <time>2021-05-30T16:20:56Z</time>
      </trkpt>
      <trkpt lat="-12.1227520" lon="-76.6235850">
        <ele>1807.7</ele>
        <time>2021-05-30T16:20:58Z</time>
      </trkpt>
      <trkpt lat="-12.1228060" lon="-76.6236500">
        <ele>1807.1</ele>
        <time>2021-05-30T16:21:00Z</time>
      </trkpt>
      <trkpt lat="-12.1228410" lon="-76.6237080">
        <ele>1806.7</ele>
        <time>2021-05-30T16:21:01Z</time>
      </trkpt>
      <trkpt lat="-12.1228620" lon="-76.6237500">
        <ele>1806.3</ele>
        <time>2021-05-30T16:21:02Z</time>
      </trkpt>
      <trkpt lat="-12.1228810" lon="-76.6238330">
        <ele>1805.7</ele>
        <time>2021-05-30T16:21:04Z</time>
      </trkpt>
      <trkpt lat="-12.1228760" lon="-76.6238790">
        <ele>1805.4</ele>
        <time>2021-05-30T16:21:05Z</time>
      </trkpt>
      <trkpt lat="-12.1228400" lon="-76.6239920">
        <ele>1804.6</ele>
        <time>2021-05-30T16:21:07Z</time>
      </trkpt>
      <trkpt lat="-12.1228080" lon="-76.6240430">
        <ele>1804.1</ele>
        <time>2021-05-30T16:21:08Z</time>
      </trkpt>
      <trkpt lat="-12.1227790" lon="-76.6240970">
        <ele>1803.7</ele>
        <time>2021-05-30T16:21:09Z</time>
      </trkpt>
      <trkpt lat="-12.1227560" lon="-76.6241530">
        <ele>1803.3</ele>
        <time>2021-05-30T16:21:10Z</time>
      </trkpt>
      <trkpt lat="-12.1227290" lon="-76.6242120">
        <ele>1802.8</ele>
        <time>2021-05-30T16:21:11Z</time>
      </trkpt>
      <trkpt lat="-12.1226680" lon="-76.6243090">
        <ele>1802.0</ele>
        <time>2021-05-30T16:21:13Z</time>
      </trkpt>
      <trkpt lat="-12.1226260" lon="-76.6243590">
        <ele>1801.5</ele>
        <time>2021-05-30T16:21:14Z</time>
      </trkpt>
      <trkpt lat="-12.1225900" lon="-76.6244130">
        <ele>1801.1</ele>
        <time>2021-05-30T16:21:15Z</time>
      </trkpt>
      <trkpt lat="-12.1225160" lon="-76.6245210">
        <ele>1800.1</ele>
        <time>2021-05-30T16:21:17Z</time>
      </trkpt>
      <trkpt lat="-12.1224780" lon="-76.6245770">
        <ele>1799.6</ele>
        <time>2021-05-30T16:21:18Z</time>
      </trkpt>
      <trkpt lat="-12.1224480" lon="-76.6246330">
        <ele>1799.2</ele>
        <time>2021-05-30T16:21:19Z</time>
      </trkpt>
      <trkpt lat="-12.1223930" lon="-76.6247370">
        <ele>1798.4</ele>
        <time>2021-05-30T16:21:21Z</time>
      </trkpt>
      <trkpt lat="-12.1223670" lon="-76.6247910">
        <ele>1797.9</ele>
        <time>2021-05-30T16:21:22Z</time>
      </trkpt>
      <trkpt lat="-12.1223200" lon="-76.6249010">
        <ele>1797.1</ele>
        <time>2021-05-30T16:21:24Z</time>
      </trkpt>
      <trkpt lat="-12.1222720" lon="-76.6250100">
        <ele>1796.2</ele>
        <time>2021-05-30T16:21:26Z</time>
      </trkpt>
      <trkpt lat="-12.1222480" lon="-76.6250660">
        <ele>1795.8</ele>
        <time>2021-05-30T16:21:27Z</time>
      </trkpt>
      <trkpt lat="-12.1222220" lon="-76.6251280">
        <ele>1795.3</ele>
        <time>2021-05-30T16:21:28Z</time>
      </trkpt>
      <trkpt lat="-12.1221450" lon="-76.6252400">
        <ele>1794.4</ele>
        <time>2021-05-30T16:21:30Z</time>
      </trkpt>
      <trkpt lat="-12.1220630" lon="-76.6253550">
        <ele>1793.4</ele>
        <time>2021-05-30T16:21:32Z</time>
      </trkpt>
      <trkpt lat="-12.1220180" lon="-76.6254080">
        <ele>1792.9</ele>
        <time>2021-05-30T16:21:33Z</time>
      </trkpt>
      <trkpt lat="-12.1219240" lon="-76.6255210">
        <ele>1791.8</ele>
        <time>2021-05-30T16:21:35Z</time>
      </trkpt>
      <trkpt lat="-12.1218360" lon="-76.6256460">
        <ele>1790.7</ele>
        <time>2021-05-30T16:21:37Z</time>
      </trkpt>
      <trkpt lat="-12.1217860" lon="-76.6257100">
        <ele>1790.1</ele>
        <time>2021-05-30T16:21:38Z</time>
      </trkpt>
      <trkpt lat="-12.1217340" lon="-76.6257790">
        <ele>1789.5</ele>
        <time>2021-05-30T16:21:39Z</time>
      </trkpt>
      <trkpt lat="-12.1216040" lon="-76.6259020">
        <ele>1788.2</ele>
        <time>2021-05-30T16:21:41Z</time>
      </trkpt>
      <trkpt lat="-12.1215340" lon="-76.6259560">
        <ele>1787.6</ele>
        <time>2021-05-30T16:21:42Z</time>
      </trkpt>
      <trkpt lat="-12.1214710" lon="-76.6260140">
        <ele>1787.0</ele>
        <time>2021-05-30T16:21:43Z</time>
      </trkpt>
      <trkpt lat="-12.1214120" lon="-76.6260780">
        <ele>1786.4</ele>
        <time>2021-05-30T16:21:44Z</time>
      </trkpt>
      <trkpt lat="-12.1212890" lon="-76.6262130">
        <ele>1785.1</ele>
        <time>2021-05-30T16:21:46Z</time>
      </trkpt>
      <trkpt lat="-12.1212200" lon="-76.6262820">
        <ele>1784.4</ele>
        <time>2021-05-30T16:21:47Z</time>
      </trkpt>
      <trkpt lat="-12.1210880" lon="-76.6264250">
        <ele>1783.0</ele>
        <time>2021-05-30T16:21:49Z</time>
      </trkpt>
      <trkpt lat="-12.1210290" lon="-76.6264900">
        <ele>1782.4</ele>
        <time>2021-05-30T16:21:50Z</time>
      </trkpt>
      <trkpt lat="-12.1208950" lon="-76.6266160">
        <ele>1781.1</ele>
        <time>2021-05-30T16:21:52Z</time>
      </trkpt>
      <trkpt lat="-12.1208290" lon="-76.6266790">
        <ele>1780.4</ele>
        <time>2021-05-30T16:21:53Z</time>
      </trkpt>
      <trkpt lat="-12.1207750" lon="-76.6267470">
        <ele>1779.8</ele>
        <time>2021-05-30T16:21:54Z</time>
      </trkpt>
      <trkpt lat="-12.1207280" lon="-76.6268160">
        <ele>1779.3</ele>
        <time>2021-05-30T16:21:55Z</time>
      </trkpt>
      <trkpt lat="-12.1206840" lon="-76.6268850">
        <ele>1778.7</ele>
        <time>2021-05-30T16:21:56Z</time>
      </trkpt>
      <trkpt lat="-12.1206090" lon="-76.6270320">
        <ele>1777.7</ele>
        <time>2021-05-30T16:21:58Z</time>
      </trkpt>
      <trkpt lat="-12.1205780" lon="-76.6271030">
        <ele>1777.2</ele>
        <time>2021-05-30T16:21:59Z</time>
      </trkpt>
      <trkpt lat="-12.1205150" lon="-76.6272390">
        <ele>1776.2</ele>
        <time>2021-05-30T16:22:01Z</time>
      </trkpt>
      <trkpt lat="-12.1204510" lon="-76.6273700">
        <ele>1775.2</ele>
        <time>2021-05-30T16:22:03Z</time>
      </trkpt>
      <trkpt lat="-12.1204220" lon="-76.6274430">
        <ele>1774.7</ele>
        <time>2021-05-30T16:22:04Z</time>
      </trkpt>
      <trkpt lat="-12.1203720" lon="-76.6275940">
        <ele>1773.8</ele>
        <time>2021-05-30T16:22:06Z</time>
      </trkpt>
      <trkpt lat="-12.1203450" lon="-76.6276710">
        <ele>1773.4</ele>
        <time>2021-05-30T16:22:07Z</time>
      </trkpt>
      <trkpt lat="-12.1203230" lon="-76.6277450">
        <ele>1773.0</ele>
        <time>2021-05-30T16:22:08Z</time>
      </trkpt>
      <trkpt lat="-12.1203090" lon="-76.6278160">
        <ele>1772.6</ele>
        <time>2021-05-30T16:22:09Z</time>
      </trkpt>
      <trkpt lat="-12.1202660" lon="-76.6279530">
        <ele>1772.0</ele>
        <time>2021-05-30T16:22:11Z</time>
      </trkpt>
      <trkpt lat="-12.1202470" lon="-76.6280760">
        <ele>1771.7</ele>
        <time>2021-05-30T16:22:13Z</time>
      </trkpt>
      <trkpt lat="-12.1202450" lon="-76.6281390">
        <ele>1771.5</ele>
        <time>2021-05-30T16:22:14Z</time>
      </trkpt>
      <trkpt lat="-12.1202610" lon="-76.6282780">
        <ele>1770.9</ele>
        <time>2021-05-30T16:22:16Z</time>
      </trkpt>
      <trkpt lat="-12.1202740" lon="-76.6283420">
        <ele>1770.6</ele>
        <time>2021-05-30T16:22:17Z</time>
      </trkpt>
      <trkpt lat="-12.1202900" lon="-76.6284010">
        <ele>1770.3</ele>
        <time>2021-05-30T16:22:18Z</time>
      </trkpt>
      <trkpt lat="-12.1203160" lon="-76.6285150">
        <ele>1769.6</ele>
        <time>2021-05-30T16:22:20Z</time>
      </trkpt>
      <trkpt lat="-12.1203200" lon="-76.6285730">
        <ele>1769.2</ele>
        <time>2021-05-30T16:22:21Z</time>
      </trkpt>
      <trkpt lat="-12.1203150" lon="-76.6286300">
        <ele>1768.9</ele>
        <time>2021-05-30T16:22:22Z</time>
      </trkpt>
      <trkpt lat="-12.1202710" lon="-76.6287400">
        <ele>1768.2</ele>
        <time>2021-05-30T16:22:24Z</time>
      </trkpt>
      <trkpt lat="-12.1202490" lon="-76.6288020">
        <ele>1767.9</ele>
        <time>2021-05-30T16:22:25Z</time>
      </trkpt>
      <trkpt lat="-12.1202200" lon="-76.6289320">
        <ele>1767.1</ele>
        <time>2021-05-30T16:22:27Z</time>
      </trkpt>
      <trkpt lat="-12.1202040" lon="-76.6289950">
        <ele>1766.7</ele>
        <time>2021-05-30T16:22:28Z</time>
      </trkpt>
      <trkpt lat="-12.1201590" lon="-76.6291140">
        <ele>1765.9</ele>
        <time>2021-05-30T16:22:30Z</time>
      </trkpt>
      <trkpt lat="-12.1201320" lon="-76.6291770">
        <ele>1765.5</ele>
        <time>2021-05-30T16:22:31Z</time>
      </trkpt>
      <trkpt lat="-12.1201070" lon="-76.6292380">
        <ele>1765.0</ele>
        <time>2021-05-30T16:22:32Z</time>
      </trkpt>
      <trkpt lat="-12.1200830" lon="-76.6293000">
        <ele>1764.5</ele>
        <time>2021-05-30T16:22:33Z</time>
      </trkpt>
      <trkpt lat="-12.1200510" lon="-76.6294320">
        <ele>1763.5</ele>
        <time>2021-05-30T16:22:35Z</time>
      </trkpt>
      <trkpt lat="-12.1200310" lon="-76.6295730">
        <ele>1762.8</ele>
        <time>2021-05-30T16:22:37Z</time>
      </trkpt>
      <trkpt lat="-12.1200280" lon="-76.6296430">
        <ele>1762.4</ele>
        <time>2021-05-30T16:22:38Z</time>
      </trkpt>
      <trkpt lat="-12.1200240" lon="-76.6297180">
        <ele>1762.0</ele>
        <time>2021-05-30T16:22:39Z</time>
      </trkpt>
      <trkpt lat="-12.1200250" lon="-76.6297890">
        <ele>1761.5</ele>
        <time>2021-05-30T16:22:40Z</time>
      </trkpt>
      <trkpt lat="-12.1200220" lon="-76.6298610">
        <ele>1761.1</ele>
        <time>2021-05-30T16:22:41Z</time>
      </trkpt>
      <trkpt lat="-12.1200300" lon="-76.6300190">
        <ele>1760.2</ele>
        <time>2021-05-30T16:22:43Z</time>
      </trkpt>
      <trkpt lat="-12.1200440" lon="-76.6301030">
        <ele>1759.7</ele>
        <time>2021-05-30T16:22:44Z</time>
      </trkpt>
      <trkpt lat="-12.1200860" lon="-76.6302390">
        <ele>1759.0</ele>
        <time>2021-05-30T16:22:46Z</time>
      </trkpt>
      <trkpt lat="-12.1201040" lon="-76.6302980">
        <ele>1758.8</ele>
        <time>2021-05-30T16:22:47Z</time>
      </trkpt>
      <trkpt lat="-12.1201160" lon="-76.6303480">
        <ele>1758.6</ele>
        <time>2021-05-30T16:22:48Z</time>
      </trkpt>
      <trkpt lat="-12.1201400" lon="-76.6304380">
        <ele>1758.2</ele>
        <time>2021-05-30T16:22:50Z</time>
      </trkpt>
      <trkpt lat="-12.1201200" lon="-76.6305060">
        <ele>1757.9</ele>
        <time>2021-05-30T16:22:52Z</time>
      </trkpt>
      <trkpt lat="-12.1200980" lon="-76.6305490">
        <ele>1757.8</ele>
        <time>2021-05-30T16:22:53Z</time>
      </trkpt>
      <trkpt lat="-12.1200380" lon="-76.6306400">
        <ele>1757.4</ele>
        <time>2021-05-30T16:22:55Z</time>
      </trkpt>
      <trkpt lat="-12.1199490" lon="-76.6307120">
        <ele>1756.9</ele>
        <time>2021-05-30T16:22:57Z</time>
      </trkpt>
      <trkpt lat="-12.1199070" lon="-76.6307470">
        <ele>1756.7</ele>
        <time>2021-05-30T16:22:58Z</time>
      </trkpt>
      <trkpt lat="-12.1198650" lon="-76.6307760">
        <ele>1756.6</ele>
        <time>2021-05-30T16:22:59Z</time>
      </trkpt>
      <trkpt lat="-12.1197810" lon="-76.6308260">
        <ele>1756.3</ele>
        <time>2021-05-30T16:23:01Z</time>
      </trkpt>
      <trkpt lat="-12.1196890" lon="-76.6308600">
        <ele>1756.0</ele>
        <time>2021-05-30T16:23:03Z</time>
      </trkpt>
      <trkpt lat="-12.1195880" lon="-76.6308700">
        <ele>1755.7</ele>
        <time>2021-05-30T16:23:05Z</time>
      </trkpt>
      <trkpt lat="-12.1195370" lon="-76.6308720">
        <ele>1755.6</ele>
        <time>2021-05-30T16:23:06Z</time>
      </trkpt>
      <trkpt lat="-12.1194230" lon="-76.6308740">
        <ele>1755.2</ele>
        <time>2021-05-30T16:23:08Z</time>
      </trkpt>
      <trkpt lat="-12.1193670" lon="-76.6308800">
        <ele>1755.0</ele>
        <time>2021-05-30T16:23:09Z</time>
      </trkpt>
      <trkpt lat="-12.1193100" lon="-76.6308830">
        <ele>1754.7</ele>
        <time>2021-05-30T16:23:10Z</time>
      </trkpt>
      <trkpt lat="-12.1191970" lon="-76.6308810">
        <ele>1754.2</ele>
        <time>2021-05-30T16:23:12Z</time>
      </trkpt>
      <trkpt lat="-12.1191400" lon="-76.6308890">
        <ele>1753.9</ele>
        <time>2021-05-30T16:23:13Z</time>
      </trkpt>
      <trkpt lat="-12.1190190" lon="-76.6309010">
        <ele>1753.4</ele>
        <time>2021-05-30T16:23:15Z</time>
      </trkpt>
      <trkpt lat="-12.1189530" lon="-76.6309060">
        <ele>1753.1</ele>
        <time>2021-05-30T16:23:16Z</time>
      </trkpt>
      <trkpt lat="-12.1188860" lon="-76.6309150">
        <ele>1752.7</ele>
        <time>2021-05-30T16:23:17Z</time>
      </trkpt>
      <trkpt lat="-12.1187750" lon="-76.6309010">
        <ele>1752.2</ele>
        <time>2021-05-30T16:23:19Z</time>
      </trkpt>
      <trkpt lat="-12.1187210" lon="-76.6308800">
        <ele>1751.9</ele>
        <time>2021-05-30T16:23:20Z</time>
      </trkpt>
      <trkpt lat="-12.1186230" lon="-76.6308280">
        <ele>1751.4</ele>
        <time>2021-05-30T16:23:22Z</time>
      </trkpt>
      <trkpt lat="-12.1185800" lon="-76.6307900">
        <ele>1751.2</ele>
        <time>2021-05-30T16:23:23Z</time>
      </trkpt>
      <trkpt lat="-12.1184940" lon="-76.6307140">
        <ele>1750.7</ele>
        <time>2021-05-30T16:23:25Z</time>
      </trkpt>
      <trkpt lat="-12.1184500" lon="-76.6306910">
        <ele>1750.5</ele>
        <time>2021-05-30T16:23:26Z</time>
      </trkpt>
      <trkpt lat="-12.1183870" lon="-76.6306610">
        <ele>1750.2</ele>
        <time>2021-05-30T16:23:28Z</time>
      </trkpt>
      <trkpt lat="-12.1183630" lon="-76.6306080">
        <ele>1750.0</ele>
        <time>2021-05-30T16:23:30Z</time>
      </trkpt>
      <trkpt lat="-12.1183570" lon="-76.6305180">
        <ele>1749.7</ele>
        <time>2021-05-30T16:23:32Z</time>
      </trkpt>
      <trkpt lat="-12.1183660" lon="-76.6304480">
        <ele>1749.5</ele>
        <time>2021-05-30T16:23:34Z</time>
      </trkpt>
      <trkpt lat="-12.1183650" lon="-76.6304200">
        <ele>1749.5</ele>
        <time>2021-05-30T16:23:35Z</time>
      </trkpt>
      <trkpt lat="-12.1183640" lon="-76.6303580">
        <ele>1749.4</ele>
        <time>2021-05-30T16:23:37Z</time>
      </trkpt>
      <trkpt lat="-12.1183570" lon="-76.6302900">
        <ele>1749.3</ele>
        <time>2021-05-30T16:23:39Z</time>
      </trkpt>
      <trkpt lat="-12.1183520" lon="-76.6302200">
        <ele>1749.2</ele>
        <time>2021-05-30T16:23:41Z</time>
      </trkpt>
      <trkpt lat="-12.1183490" lon="-76.6301850">
        <ele>1749.2</ele>
        <time>2021-05-30T16:23:42Z</time>
      </trkpt>
      <trkpt lat="-12.1183380" lon="-76.6301180">
        <ele>1749.1</ele>
        <time>2021-05-30T16:23:44Z</time>
      </trkpt>
      <trkpt lat="-12.1183300" lon="-76.6300890">
        <ele>1749.1</ele>
        <time>2021-05-30T16:23:45Z</time>
      </trkpt>
      <trkpt lat="-12.1183230" lon="-76.6300650">
        <ele>1749.1</ele>
        <time>2021-05-30T16:23:46Z</time>
      </trkpt>
      <trkpt lat="-12.1183010" lon="-76.6300200">
        <ele>1749.1</ele>
        <time>2021-05-30T16:23:48Z</time>
      </trkpt>
      <trkpt lat="-12.1182780" lon="-76.6299920">
        <ele>1749.1</ele>
        <time>2021-05-30T16:23:49Z</time>
      </trkpt>
      <trkpt lat="-12.1182710" lon="-76.6299830">
        <ele>1749.1</ele>
        <time>2021-05-30T16:23:50Z</time>
      </trkpt>
      <trkpt lat="-12.1182500" lon="-76.6299510">
        <ele>1749.1</ele>
        <time>2021-05-30T16:23:52Z</time>
      </trkpt>
      <trkpt lat="-12.1182340" lon="-76.6299250">
        <ele>1749.2</ele>
        <time>2021-05-30T16:23:53Z</time>
      </trkpt>
      <trkpt lat="-12.1182290" lon="-76.6299170">
        <ele>1749.2</ele>
        <time>2021-05-30T16:23:54Z</time>
      </trkpt>
      <trkpt lat="-12.1182180" lon="-76.6298960">
        <ele>1749.3</ele>
        <time>2021-05-30T16:23:55Z</time>
      </trkpt>
      <trkpt lat="-12.1182000" lon="-76.6298580">
        <ele>1749.4</ele>
        <time>2021-05-30T16:23:57Z</time>
      </trkpt>
      <trkpt lat="-12.1181820" lon="-76.6298320">
        <ele>1749.5</ele>
        <time>2021-05-30T16:23:58Z</time>
      </trkpt>
      <trkpt lat="-12.1181740" lon="-76.6298250">
        <ele>1749.5</ele>
        <time>2021-05-30T16:23:59Z</time>
      </trkpt>
      <trkpt lat="-12.1181380" lon="-76.6298030">
        <ele>1749.6</ele>
        <time>2021-05-30T16:24:01Z</time>
      </trkpt>
      <trkpt lat="-12.1181060" lon="-76.6297870">
        <ele>1749.7</ele>
        <time>2021-05-30T16:24:02Z</time>
      </trkpt>
      <trkpt lat="-12.1180940" lon="-76.6297820">
        <ele>1749.8</ele>
        <time>2021-05-30T16:24:03Z</time>
      </trkpt>
      <trkpt lat="-12.1180510" lon="-76.6297630">
        <ele>1749.9</ele>
        <time>2021-05-30T16:24:05Z</time>
      </trkpt>
      <trkpt lat="-12.1180190" lon="-76.6297520">
        <ele>1750.1</ele>
        <time>2021-05-30T16:24:06Z</time>
      </trkpt>
      <trkpt lat="-12.1179590" lon="-76.6297270">
        <ele>1750.4</ele>
        <time>2021-05-30T16:24:08Z</time>
      </trkpt>
      <trkpt lat="-12.1179060" lon="-76.6296900">
        <ele>1750.7</ele>
        <time>2021-05-30T16:24:10Z</time>
      </trkpt>
      <trkpt lat="-12.1178750" lon="-76.6296560">
        <ele>1750.9</ele>
        <time>2021-05-30T16:24:11Z</time>
      </trkpt>
      <trkpt lat="-12.1178510" lon="-76.6296150">
        <ele>1751.1</ele>
        <time>2021-05-30T16:24:13Z</time>
      </trkpt>
      <trkpt lat="-12.1178400" lon="-76.6295960">
        <ele>1751.2</ele>
        <time>2021-05-30T16:24:14Z</time>
      </trkpt>
      <trkpt lat="-12.1178200" lon="-76.6295650">
        <ele>1751.4</ele>
        <time>2021-05-30T16:24:16Z</time>
      </trkpt>
      <trkpt lat="-12.1178070" lon="-76.6295380">
        <ele>1751.5</ele>
        <time>2021-05-30T16:24:17Z</time>
      </trkpt>
      <trkpt lat="-12.1177970" lon="-76.6295060">
        <ele>1751.7</ele>
        <time>2021-05-30T16:24:18Z</time>
      </trkpt>
      <trkpt lat="-12.1177940" lon="-76.6294710">
        <ele>1751.8</ele>
        <time>2021-05-30T16:24:20Z</time>
      </trkpt>
      <trkpt lat="-12.1177920" lon="-76.6294360">
        <ele>1751.9</ele>
        <time>2021-05-30T16:24:21Z</time>
      </trkpt>
      <trkpt lat="-12.1177900" lon="-76.6294050">
        <ele>1752.0</ele>
        <time>2021-05-30T16:24:22Z</time>
      </trkpt>
      <trkpt lat="-12.1177910" lon="-76.6293690">
        <ele>1752.1</ele>
        <time>2021-05-30T16:24:23Z</time>
      </trkpt>
      <trkpt lat="-12.1177960" lon="-76.6293290">
        <ele>1752.1</ele>
        <time>2021-05-30T16:24:24Z</time>
      </trkpt>
      <trkpt lat="-12.1178110" lon="-76.6292670">
        <ele>1752.3</ele>
        <time>2021-05-30T16:24:26Z</time>
      </trkpt>
      <trkpt lat="-12.1178190" lon="-76.6292400">
        <ele>1752.3</ele>
        <time>2021-05-30T16:24:27Z</time>
      </trkpt>
      <trkpt lat="-12.1178410" lon="-76.6292040">
        <ele>1752.4</ele>
        <time>2021-05-30T16:24:29Z</time>
      </trkpt>
      <trkpt lat="-12.1178540" lon="-76.6291760">
        <ele>1752.4</ele>
        <time>2021-05-30T16:24:30Z</time>
      </trkpt>
      <trkpt lat="-12.1178670" lon="-76.6291360">
        <ele>1752.5</ele>
        <time>2021-05-30T16:24:31Z</time>
      </trkpt>
      <trkpt lat="-12.1178790" lon="-76.6290890">
        <ele>1752.5</ele>
        <time>2021-05-30T16:24:33Z</time>
      </trkpt>
      <trkpt lat="-12.1178860" lon="-76.6290570">
        <ele>1752.6</ele>
        <time>2021-05-30T16:24:35Z</time>
      </trkpt>
      <trkpt lat="-12.1178930" lon="-76.6290250">
        <ele>1752.6</ele>
        <time>2021-05-30T16:24:36Z</time>
      </trkpt>
      <trkpt lat="-12.1179000" lon="-76.6289920">
        <ele>1752.6</ele>
        <time>2021-05-30T16:24:37Z</time>
      </trkpt>
      <trkpt lat="-12.1179090" lon="-76.6289430">
        <ele>1752.6</ele>
        <time>2021-05-30T16:24:38Z</time>
      </trkpt>
      <trkpt lat="-12.1179130" lon="-76.6289060">
        <ele>1752.6</ele>
        <time>2021-05-30T16:24:39Z</time>
      </trkpt>
      <trkpt lat="-12.1179130" lon="-76.6288690">
        <ele>1752.6</ele>
        <time>2021-05-30T16:24:41Z</time>
      </trkpt>
      <trkpt lat="-12.1179120" lon="-76.6288390">
        <ele>1752.6</ele>
        <time>2021-05-30T16:24:42Z</time>
      </trkpt>
      <trkpt lat="-12.1179090" lon="-76.6287860">
        <ele>1752.5</ele>
        <time>2021-05-30T16:24:44Z</time>
      </trkpt>
      <trkpt lat="-12.1179080" lon="-76.6287530">
        <ele>1752.5</ele>
        <time>2021-05-30T16:24:45Z</time>
      </trkpt>
      <trkpt lat="-12.1179040" lon="-76.6287000">
        <ele>1752.5</ele>
        <time>2021-05-30T16:24:46Z</time>
      </trkpt>
      <trkpt lat="-12.1178930" lon="-76.6286370">
        <ele>1752.6</ele>
        <time>2021-05-30T16:24:48Z</time>
      </trkpt>
      <trkpt lat="-12.1178830" lon="-76.6285970">
        <ele>1752.8</ele>
        <time>2021-05-30T16:24:49Z</time>
      </trkpt>
      <trkpt lat="-12.1178740" lon="-76.6285570">
        <ele>1753.0</ele>
        <time>2021-05-30T16:24:50Z</time>
      </trkpt>
      <trkpt lat="-12.1178660" lon="-76.6285030">
        <ele>1753.3</ele>
        <time>2021-05-30T16:24:52Z</time>
      </trkpt>
      <trkpt lat="-12.1178620" lon="-76.6284420">
        <ele>1753.7</ele>
        <time>2021-05-30T16:24:53Z</time>
      </trkpt>
      <trkpt lat="-12.1178540" lon="-76.6283990">
        <ele>1754.0</ele>
        <time>2021-05-30T16:24:54Z</time>
      </trkpt>
      <trkpt lat="-12.1178420" lon="-76.6283570">
        <ele>1754.4</ele>
        <time>2021-05-30T16:24:56Z</time>
      </trkpt>
      <trkpt lat="-12.1178280" lon="-76.6283030">
        <ele>1754.8</ele>
        <time>2021-05-30T16:24:58Z</time>
      </trkpt>
      <trkpt lat="-12.1178170" lon="-76.6282730">
        <ele>1755.1</ele>
        <time>2021-05-30T16:24:59Z</time>
      </trkpt>
      <trkpt lat="-12.1178100" lon="-76.6282580">
        <ele>1755.3</ele>
        <time>2021-05-30T16:25:00Z</time>
      </trkpt>
      <trkpt lat="-12.1177980" lon="-76.6282380">
        <ele>1755.4</ele>
        <time>2021-05-30T16:25:02Z</time>
      </trkpt>
      <trkpt lat="-12.1177690" lon="-76.6282010">
        <ele>1755.7</ele>
        <time>2021-05-30T16:25:04Z</time>
      </trkpt>
      <trkpt lat="-12.1177560" lon="-76.6281950">
        <ele>1755.8</ele>
        <time>2021-05-30T16:25:05Z</time>
      </trkpt>
      <trkpt lat="-12.1177440" lon="-76.6281880">
        <ele>1755.8</ele>
        <time>2021-05-30T16:25:06Z</time>
      </trkpt>
      <trkpt lat="-12.1177160" lon="-76.6281940">
        <ele>1755.9</ele>
        <time>2021-05-30T16:25:08Z</time>
      </trkpt>
      <trkpt lat="-12.1177080" lon="-76.6281970">
        <ele>1756.0</ele>
        <time>2021-05-30T16:25:09Z</time>
      </trkpt>
      <trkpt lat="-12.1176840" lon="-76.6282140">
        <ele>1756.0</ele>
        <time>2021-05-30T16:25:10Z</time>
      </trkpt>
      <trkpt lat="-12.1176770" lon="-76.6282210">
        <ele>1756.0</ele>
        <time>2021-05-30T16:25:11Z</time>
      </trkpt>
      <trkpt lat="-12.1176650" lon="-76.6282410">
        <ele>1756.0</ele>
        <time>2021-05-30T16:25:12Z</time>
      </trkpt>
      <trkpt lat="-12.1176520" lon="-76.6282710">
        <ele>1756.0</ele>
        <time>2021-05-30T16:25:14Z</time>
      </trkpt>
      <trkpt lat="-12.1176450" lon="-76.6283090">
        <ele>1755.8</ele>
        <time>2021-05-30T16:25:15Z</time>
      </trkpt>
      <trkpt lat="-12.1176450" lon="-76.6283620">
        <ele>1755.4</ele>
        <time>2021-05-30T16:25:17Z</time>
      </trkpt>
      <trkpt lat="-12.1176560" lon="-76.6284750">
        <ele>1754.6</ele>
        <time>2021-05-30T16:25:18Z</time>
      </trkpt>
      <trkpt lat="-12.1176570" lon="-76.6286380">
        <ele>1753.5</ele>
        <time>2021-05-30T16:25:20Z</time>
      </trkpt>
      <trkpt lat="-12.1176360" lon="-76.6287100">
        <ele>1753.0</ele>
        <time>2021-05-30T16:25:21Z</time>
      </trkpt>
      <trkpt lat="-12.1175780" lon="-76.6288500">
        <ele>1752.0</ele>
        <time>2021-05-30T16:25:23Z</time>
      </trkpt>
      <trkpt lat="-12.1175470" lon="-76.6289190">
        <ele>1751.5</ele>
        <time>2021-05-30T16:25:24Z</time>
      </trkpt>
      <trkpt lat="-12.1175200" lon="-76.6289830">
        <ele>1751.0</ele>
        <time>2021-05-30T16:25:25Z</time>
      </trkpt>
      <trkpt lat="-12.1174940" lon="-76.6290430">
        <ele>1750.6</ele>
        <time>2021-05-30T16:25:26Z</time>
      </trkpt>
      <trkpt lat="-12.1174390" lon="-76.6291340">
        <ele>1749.8</ele>
        <time>2021-05-30T16:25:28Z</time>
      </trkpt>
      <trkpt lat="-12.1174060" lon="-76.6291680">
        <ele>1749.5</ele>
        <time>2021-05-30T16:25:29Z</time>
      </trkpt>
      <trkpt lat="-12.1173670" lon="-76.6291960">
        <ele>1749.2</ele>
        <time>2021-05-30T16:25:30Z</time>
      </trkpt>
      <trkpt lat="-12.1172750" lon="-76.6292500">
        <ele>1748.5</ele>
        <time>2021-05-30T16:25:32Z</time>
      </trkpt>
      <trkpt lat="-12.1172220" lon="-76.6292770">
        <ele>1748.0</ele>
        <time>2021-05-30T16:25:33Z</time>
      </trkpt>
      <trkpt lat="-12.1171720" lon="-76.6293110">
        <ele>1747.6</ele>
        <time>2021-05-30T16:25:34Z</time>
      </trkpt>
      <trkpt lat="-12.1171260" lon="-76.6293520">
        <ele>1747.2</ele>
        <time>2021-05-30T16:25:35Z</time>
      </trkpt>
      <trkpt lat="-12.1170730" lon="-76.6294490">
        <ele>1746.4</ele>
        <time>2021-05-30T16:25:37Z</time>
      </trkpt>
      <trkpt lat="-12.1170760" lon="-76.6295720">
        <ele>1745.6</ele>
        <time>2021-05-30T16:25:39Z</time>
      </trkpt>
      <trkpt lat="-12.1170830" lon="-76.6296370">
        <ele>1745.2</ele>
        <time>2021-05-30T16:25:40Z</time>
      </trkpt>
      <trkpt lat="-12.1171080" lon="-76.6297730">
        <ele>1744.2</ele>
        <time>2021-05-30T16:25:42Z</time>
      </trkpt>
      <trkpt lat="-12.1171300" lon="-76.6298360">
        <ele>1743.8</ele>
        <time>2021-05-30T16:25:43Z</time>
      </trkpt>
      <trkpt lat="-12.1172130" lon="-76.6299700">
        <ele>1742.7</ele>
        <time>2021-05-30T16:25:45Z</time>
      </trkpt>
      <trkpt lat="-12.1172540" lon="-76.6300350">
        <ele>1742.2</ele>
        <time>2021-05-30T16:25:46Z</time>
      </trkpt>
      <trkpt lat="-12.1172870" lon="-76.6300960">
        <ele>1741.7</ele>
        <time>2021-05-30T16:25:47Z</time>
      </trkpt>
      <trkpt lat="-12.1173080" lon="-76.6301580">
        <ele>1741.3</ele>
        <time>2021-05-30T16:25:48Z</time>
      </trkpt>
      <trkpt lat="-12.1173160" lon="-76.6302790">
        <ele>1740.4</ele>
        <time>2021-05-30T16:25:50Z</time>
      </trkpt>
      <trkpt lat="-12.1173140" lon="-76.6303420">
        <ele>1740.0</ele>
        <time>2021-05-30T16:25:51Z</time>
      </trkpt>
      <trkpt lat="-12.1173130" lon="-76.6304080">
        <ele>1739.6</ele>
        <time>2021-05-30T16:25:52Z</time>
      </trkpt>
      <trkpt lat="-12.1173270" lon="-76.6305530">
        <ele>1738.6</ele>
        <time>2021-05-30T16:25:54Z</time>
      </trkpt>
      <trkpt lat="-12.1173320" lon="-76.6307040">
        <ele>1737.6</ele>
        <time>2021-05-30T16:25:56Z</time>
      </trkpt>
      <trkpt lat="-12.1173250" lon="-76.6307820">
        <ele>1737.0</ele>
        <time>2021-05-30T16:25:57Z</time>
      </trkpt>
      <trkpt lat="-12.1172900" lon="-76.6309380">
        <ele>1735.9</ele>
        <time>2021-05-30T16:25:59Z</time>
      </trkpt>
      <trkpt lat="-12.1172770" lon="-76.6310740">
        <ele>1735.0</ele>
        <time>2021-05-30T16:26:01Z</time>
      </trkpt>
      <trkpt lat="-12.1172930" lon="-76.6311960">
        <ele>1734.2</ele>
        <time>2021-05-30T16:26:03Z</time>
      </trkpt>
      <trkpt lat="-12.1173420" lon="-76.6313070">
        <ele>1733.4</ele>
        <time>2021-05-30T16:26:05Z</time>
      </trkpt>
      <trkpt lat="-12.1173770" lon="-76.6313630">
        <ele>1732.9</ele>
        <time>2021-05-30T16:26:06Z</time>
      </trkpt>
      <trkpt lat="-12.1174650" lon="-76.6314710">
        <ele>1731.9</ele>
        <time>2021-05-30T16:26:08Z</time>
      </trkpt>
      <trkpt lat="-12.1175100" lon="-76.6315090">
        <ele>1731.5</ele>
        <time>2021-05-30T16:26:09Z</time>
      </trkpt>
      <trkpt lat="-12.1175540" lon="-76.6315450">
        <ele>1731.2</ele>
        <time>2021-05-30T16:26:10Z</time>
      </trkpt>
      <trkpt lat="-12.1175970" lon="-76.6315770">
        <ele>1730.8</ele>
        <time>2021-05-30T16:26:11Z</time>
      </trkpt>
      <trkpt lat="-12.1176300" lon="-76.6316160">
        <ele>1730.4</ele>
        <time>2021-05-30T16:26:12Z</time>
      </trkpt>
      <trkpt lat="-12.1176370" lon="-76.6317270">
        <ele>1729.7</ele>
        <time>2021-05-30T16:26:14Z</time>
      </trkpt>
      <trkpt lat="-12.1176200" lon="-76.6317880">
        <ele>1729.2</ele>
        <time>2021-05-30T16:26:15Z</time>
      </trkpt>
      <trkpt lat="-12.1175960" lon="-76.6319110">
        <ele>1728.4</ele>
        <time>2021-05-30T16:26:17Z</time>
      </trkpt>
      <trkpt lat="-12.1175960" lon="-76.6319760">
        <ele>1728.0</ele>
        <time>2021-05-30T16:26:18Z</time>
      </trkpt>
      <trkpt lat="-12.1176270" lon="-76.6320760">
        <ele>1727.2</ele>
        <time>2021-05-30T16:26:20Z</time>
      </trkpt>
      <trkpt lat="-12.1176890" lon="-76.6321600">
        <ele>1726.5</ele>
        <time>2021-05-30T16:26:22Z</time>
      </trkpt>
      <trkpt lat="-12.1177490" lon="-76.6322150">
        <ele>1726.0</ele>
        <time>2021-05-30T16:26:24Z</time>
      </trkpt>
      <trkpt lat="-12.1178020" lon="-76.6322850">
        <ele>1725.4</ele>
        <time>2021-05-30T16:26:26Z</time>
      </trkpt>
      <trkpt lat="-12.1178700" lon="-76.6323730">
        <ele>1724.6</ele>
        <time>2021-05-30T16:26:28Z</time>
      </trkpt>
      <trkpt lat="-12.1179570" lon="-76.6324580">
        <ele>1723.8</ele>
        <time>2021-05-30T16:26:30Z</time>
      </trkpt>
      <trkpt lat="-12.1180150" lon="-76.6324920">
        <ele>1723.3</ele>
        <time>2021-05-30T16:26:31Z</time>
      </trkpt>
      <trkpt lat="-12.1181180" lon="-76.6325600">
        <ele>1722.5</ele>
        <time>2021-05-30T16:26:33Z</time>
      </trkpt>
      <trkpt lat="-12.1181680" lon="-76.6325940">
        <ele>1722.0</ele>
        <time>2021-05-30T16:26:34Z</time>
      </trkpt>
      <trkpt lat="-12.1182730" lon="-76.6326560">
        <ele>1721.2</ele>
        <time>2021-05-30T16:26:36Z</time>
      </trkpt>
      <trkpt lat="-12.1183800" lon="-76.6327180">
        <ele>1720.4</ele>
        <time>2021-05-30T16:26:38Z</time>
      </trkpt>
      <trkpt lat="-12.1184320" lon="-76.6327500">
        <ele>1719.9</ele>
        <time>2021-05-30T16:26:39Z</time>
      </trkpt>
      <trkpt lat="-12.1185380" lon="-76.6328080">
        <ele>1719.1</ele>
        <time>2021-05-30T16:26:41Z</time>
      </trkpt>
      <trkpt lat="-12.1185980" lon="-76.6328350">
        <ele>1718.6</ele>
        <time>2021-05-30T16:26:42Z</time>
      </trkpt>
      <trkpt lat="-12.1186650" lon="-76.6329100">
        <ele>1718.0</ele>
        <time>2021-05-30T16:26:44Z</time>
      </trkpt>
      <trkpt lat="-12.1186870" lon="-76.6329610">
        <ele>1717.6</ele>
        <time>2021-05-30T16:26:45Z</time>
      </trkpt>
      <trkpt lat="-12.1187430" lon="-76.6330620">
        <ele>1716.8</ele>
        <time>2021-05-30T16:26:47Z</time>
      </trkpt>
      <trkpt lat="-12.1187910" lon="-76.6331890">
        <ele>1715.9</ele>
        <time>2021-05-30T16:26:49Z</time>
      </trkpt>
      <trkpt lat="-12.1188230" lon="-76.6332480">
        <ele>1715.4</ele>
        <time>2021-05-30T16:26:50Z</time>
      </trkpt>
      <trkpt lat="-12.1188600" lon="-76.6333060">
        <ele>1714.9</ele>
        <time>2021-05-30T16:26:51Z</time>
      </trkpt>
      <trkpt lat="-12.1189000" lon="-76.6333670">
        <ele>1714.4</ele>
        <time>2021-05-30T16:26:52Z</time>
      </trkpt>
      <trkpt lat="-12.1189410" lon="-76.6334250">
        <ele>1714.0</ele>
        <time>2021-05-30T16:26:53Z</time>
      </trkpt>
      <trkpt lat="-12.1190190" lon="-76.6335350">
        <ele>1713.0</ele>
        <time>2021-05-30T16:26:55Z</time>
      </trkpt>
      <trkpt lat="-12.1191060" lon="-76.6336590">
        <ele>1712.0</ele>
        <time>2021-05-30T16:26:57Z</time>
      </trkpt>
      <trkpt lat="-12.1191520" lon="-76.6337200">
        <ele>1711.5</ele>
        <time>2021-05-30T16:26:58Z</time>
      </trkpt>
      <trkpt lat="-12.1192030" lon="-76.6337790">
        <ele>1710.9</ele>
        <time>2021-05-30T16:26:59Z</time>
      </trkpt>
      <trkpt lat="-12.1192610" lon="-76.6338340">
        <ele>1710.4</ele>
        <time>2021-05-30T16:27:00Z</time>
      </trkpt>
      <trkpt lat="-12.1193710" lon="-76.6339500">
        <ele>1709.3</ele>
        <time>2021-05-30T16:27:02Z</time>
      </trkpt>
      <trkpt lat="-12.1194420" lon="-76.6340000">
        <ele>1708.7</ele>
        <time>2021-05-30T16:27:03Z</time>
      </trkpt>
      <trkpt lat="-12.1195980" lon="-76.6340730">
        <ele>1707.5</ele>
        <time>2021-05-30T16:27:05Z</time>
      </trkpt>
      <trkpt lat="-12.1197360" lon="-76.6341370">
        <ele>1706.5</ele>
        <time>2021-05-30T16:27:07Z</time>
      </trkpt>
      <trkpt lat="-12.1198880" lon="-76.6342060">
        <ele>1705.3</ele>
        <time>2021-05-30T16:27:09Z</time>
      </trkpt>
      <trkpt lat="-12.1199810" lon="-76.6342450">
        <ele>1704.6</ele>
        <time>2021-05-30T16:27:10Z</time>
      </trkpt>
      <trkpt lat="-12.1201550" lon="-76.6342980">
        <ele>1703.4</ele>
        <time>2021-05-30T16:27:12Z</time>
      </trkpt>
      <trkpt lat="-12.1203120" lon="-76.6343700">
        <ele>1702.2</ele>
        <time>2021-05-30T16:27:14Z</time>
      </trkpt>
      <trkpt lat="-12.1204780" lon="-76.6344280">
        <ele>1700.9</ele>
        <time>2021-05-30T16:27:16Z</time>
      </trkpt>
      <trkpt lat="-12.1205510" lon="-76.6344690">
        <ele>1700.4</ele>
        <time>2021-05-30T16:27:17Z</time>
      </trkpt>
      <trkpt lat="-12.1206840" lon="-76.6345340">
        <ele>1699.3</ele>
        <time>2021-05-30T16:27:19Z</time>
      </trkpt>
      <trkpt lat="-12.1207410" lon="-76.6345620">
        <ele>1698.9</ele>
        <time>2021-05-30T16:27:20Z</time>
      </trkpt>
      <trkpt lat="-12.1208660" lon="-76.6346000">
        <ele>1698.0</ele>
        <time>2021-05-30T16:27:22Z</time>
      </trkpt>
      <trkpt lat="-12.1208950" lon="-76.6346420">
        <ele>1697.7</ele>
        <time>2021-05-30T16:27:23Z</time>
      </trkpt>
      <trkpt lat="-12.1209080" lon="-76.6347750">
        <ele>1696.7</ele>
        <time>2021-05-30T16:27:25Z</time>
      </trkpt>
      <trkpt lat="-12.1208710" lon="-76.6349080">
        <ele>1695.8</ele>
        <time>2021-05-30T16:27:27Z</time>
      </trkpt>
      <trkpt lat="-12.1208370" lon="-76.6349600">
        <ele>1695.4</ele>
        <time>2021-05-30T16:27:28Z</time>
      </trkpt>
      <trkpt lat="-12.1207860" lon="-76.6350560">
        <ele>1694.6</ele>
        <time>2021-05-30T16:27:30Z</time>
      </trkpt>
      <trkpt lat="-12.1207060" lon="-76.6351230">
        <ele>1693.9</ele>
        <time>2021-05-30T16:27:32Z</time>
      </trkpt>
      <trkpt lat="-12.1206600" lon="-76.6351440">
        <ele>1693.6</ele>
        <time>2021-05-30T16:27:33Z</time>
      </trkpt>
      <trkpt lat="-12.1206110" lon="-76.6351620">
        <ele>1693.2</ele>
        <time>2021-05-30T16:27:34Z</time>
      </trkpt>
      <trkpt lat="-12.1205300" lon="-76.6351820">
        <ele>1692.6</ele>
        <time>2021-05-30T16:27:36Z</time>
      </trkpt>
      <trkpt lat="-12.1204420" lon="-76.6352110">
        <ele>1692.0</ele>
        <time>2021-05-30T16:27:38Z</time>
      </trkpt>
      <trkpt lat="-12.1203360" lon="-76.6352330">
        <ele>1691.5</ele>
        <time>2021-05-30T16:27:40Z</time>
      </trkpt>
      <trkpt lat="-12.1202350" lon="-76.6352610">
        <ele>1691.1</ele>
        <time>2021-05-30T16:27:42Z</time>
      </trkpt>
      <trkpt lat="-12.1201840" lon="-76.6352680">
        <ele>1690.9</ele>
        <time>2021-05-30T16:27:43Z</time>
      </trkpt>
      <trkpt lat="-12.1200780" lon="-76.6352850">
        <ele>1690.4</ele>
        <time>2021-05-30T16:27:45Z</time>
      </trkpt>
      <trkpt lat="-12.1199820" lon="-76.6353210">
        <ele>1689.9</ele>
        <time>2021-05-30T16:27:47Z</time>
      </trkpt>
      <trkpt lat="-12.1198740" lon="-76.6353590">
        <ele>1689.4</ele>
        <time>2021-05-30T16:27:49Z</time>
      </trkpt>
      <trkpt lat="-12.1198300" lon="-76.6353810">
        <ele>1689.2</ele>
        <time>2021-05-30T16:27:50Z</time>
      </trkpt>
      <trkpt lat="-12.1197440" lon="-76.6354250">
        <ele>1688.8</ele>
        <time>2021-05-30T16:27:52Z</time>
      </trkpt>
      <trkpt lat="-12.1196450" lon="-76.6354770">
        <ele>1688.4</ele>
        <time>2021-05-30T16:27:54Z</time>
      </trkpt>
      <trkpt lat="-12.1195890" lon="-76.6355050">
        <ele>1688.1</ele>
        <time>2021-05-30T16:27:55Z</time>
      </trkpt>
      <trkpt lat="-12.1195380" lon="-76.6355340">
        <ele>1687.8</ele>
        <time>2021-05-30T16:27:56Z</time>
      </trkpt>
      <trkpt lat="-12.1194350" lon="-76.6355730">
        <ele>1687.2</ele>
        <time>2021-05-30T16:27:58Z</time>
      </trkpt>
      <trkpt lat="-12.1193800" lon="-76.6355890">
        <ele>1686.8</ele>
        <time>2021-05-30T16:27:59Z</time>
      </trkpt>
      <trkpt lat="-12.1192740" lon="-76.6356320">
        <ele>1686.0</ele>
        <time>2021-05-30T16:28:01Z</time>
      </trkpt>
      <trkpt lat="-12.1191680" lon="-76.6356740">
        <ele>1685.1</ele>
        <time>2021-05-30T16:28:03Z</time>
      </trkpt>
      <trkpt lat="-12.1190600" lon="-76.6357190">
        <ele>1684.3</ele>
        <time>2021-05-30T16:28:05Z</time>
      </trkpt>
      <trkpt lat="-12.1190010" lon="-76.6357410">
        <ele>1683.9</ele>
        <time>2021-05-30T16:28:06Z</time>
      </trkpt>
      <trkpt lat="-12.1188910" lon="-76.6358010">
        <ele>1683.1</ele>
        <time>2021-05-30T16:28:08Z</time>
      </trkpt>
      <trkpt lat="-12.1187840" lon="-76.6358590">
        <ele>1682.2</ele>
        <time>2021-05-30T16:28:10Z</time>
      </trkpt>
      <trkpt lat="-12.1186860" lon="-76.6359490">
        <ele>1681.2</ele>
        <time>2021-05-30T16:28:12Z</time>
      </trkpt>
      <trkpt lat="-12.1185930" lon="-76.6360580">
        <ele>1680.1</ele>
        <time>2021-05-30T16:28:14Z</time>
      </trkpt>
      <trkpt lat="-12.1185460" lon="-76.6361150">
        <ele>1679.5</ele>
        <time>2021-05-30T16:28:15Z</time>
      </trkpt>
      <trkpt lat="-12.1184640" lon="-76.6362190">
        <ele>1678.6</ele>
        <time>2021-05-30T16:28:17Z</time>
      </trkpt>
      <trkpt lat="-12.1184200" lon="-76.6362730">
        <ele>1678.2</ele>
        <time>2021-05-30T16:28:18Z</time>
      </trkpt>
      <trkpt lat="-12.1183330" lon="-76.6363930">
        <ele>1677.3</ele>
        <time>2021-05-30T16:28:20Z</time>
      </trkpt>
      <trkpt lat="-12.1182940" lon="-76.6364460">
        <ele>1676.9</ele>
        <time>2021-05-30T16:28:21Z</time>
      </trkpt>
      <trkpt lat="-12.1182550" lon="-76.6364960">
        <ele>1676.5</ele>
        <time>2021-05-30T16:28:22Z</time>
      </trkpt>
      <trkpt lat="-12.1182180" lon="-76.6365470">
        <ele>1676.1</ele>
        <time>2021-05-30T16:28:23Z</time>
      </trkpt>
      <trkpt lat="-12.1181560" lon="-76.6366560">
        <ele>1675.1</ele>
        <time>2021-05-30T16:28:25Z</time>
      </trkpt>
      <trkpt lat="-12.1180980" lon="-76.6367570">
        <ele>1674.2</ele>
        <time>2021-05-30T16:28:27Z</time>
      </trkpt>
      <trkpt lat="-12.1180710" lon="-76.6368070">
        <ele>1673.8</ele>
        <time>2021-05-30T16:28:28Z</time>
      </trkpt>
      <trkpt lat="-12.1180430" lon="-76.6368630">
        <ele>1673.3</ele>
        <time>2021-05-30T16:28:29Z</time>
      </trkpt>
      <trkpt lat="-12.1179860" lon="-76.6369850">
        <ele>1672.3</ele>
        <time>2021-05-30T16:28:31Z</time>
      </trkpt>
      <trkpt lat="-12.1179490" lon="-76.6370390">
        <ele>1671.8</ele>
        <time>2021-05-30T16:28:32Z</time>
      </trkpt>
      <trkpt lat="-12.1178690" lon="-76.6371490">
        <ele>1670.5</ele>
        <time>2021-05-30T16:28:34Z</time>
      </trkpt>
      <trkpt lat="-12.1177830" lon="-76.6372510">
        <ele>1669.1</ele>
        <time>2021-05-30T16:28:36Z</time>
      </trkpt>
      <trkpt lat="-12.1177380" lon="-76.6373080">
        <ele>1668.4</ele>
        <time>2021-05-30T16:28:37Z</time>
      </trkpt>
      <trkpt lat="-12.1176540" lon="-76.6374300">
        <ele>1667.0</ele>
        <time>2021-05-30T16:28:39Z</time>
      </trkpt>
      <trkpt lat="-12.1175740" lon="-76.6375550">
        <ele>1665.7</ele>
        <time>2021-05-30T16:28:41Z</time>
      </trkpt>
      <trkpt lat="-12.1175180" lon="-76.6376850">
        <ele>1664.5</ele>
        <time>2021-05-30T16:28:43Z</time>
      </trkpt>
      <trkpt lat="-12.1174870" lon="-76.6377530">
        <ele>1664.0</ele>
        <time>2021-05-30T16:28:44Z</time>
      </trkpt>
      <trkpt lat="-12.1174530" lon="-76.6378230">
        <ele>1663.5</ele>
        <time>2021-05-30T16:28:45Z</time>
      </trkpt>
      <trkpt lat="-12.1174030" lon="-76.6379600">
        <ele>1662.5</ele>
        <time>2021-05-30T16:28:47Z</time>
      </trkpt>
      <trkpt lat="-12.1173510" lon="-76.6380980">
        <ele>1661.5</ele>
        <time>2021-05-30T16:28:49Z</time>
      </trkpt>
      <trkpt lat="-12.1173270" lon="-76.6381650">
        <ele>1661.1</ele>
        <time>2021-05-30T16:28:50Z</time>
      </trkpt>
      <trkpt lat="-12.1173020" lon="-76.6382300">
        <ele>1660.7</ele>
        <time>2021-05-30T16:28:51Z</time>
      </trkpt>
      <trkpt lat="-12.1172750" lon="-76.6382930">
        <ele>1660.3</ele>
        <time>2021-05-30T16:28:52Z</time>
      </trkpt>
      <trkpt lat="-12.1172150" lon="-76.6384170">
        <ele>1659.3</ele>
        <time>2021-05-30T16:28:54Z</time>
      </trkpt>
      <trkpt lat="-12.1171820" lon="-76.6384800">
        <ele>1658.7</ele>
        <time>2021-05-30T16:28:55Z</time>
      </trkpt>
      <trkpt lat="-12.1171540" lon="-76.6385460">
        <ele>1658.0</ele>
        <time>2021-05-30T16:28:56Z</time>
      </trkpt>
      <trkpt lat="-12.1171110" lon="-76.6386790">
        <ele>1656.8</ele>
        <time>2021-05-30T16:28:58Z</time>
      </trkpt>
      <trkpt lat="-12.1170860" lon="-76.6387480">
        <ele>1656.3</ele>
        <time>2021-05-30T16:28:59Z</time>
      </trkpt>
      <trkpt lat="-12.1170460" lon="-76.6388960">
        <ele>1655.4</ele>
        <time>2021-05-30T16:29:01Z</time>
      </trkpt>
      <trkpt lat="-12.1170340" lon="-76.6389720">
        <ele>1655.0</ele>
        <time>2021-05-30T16:29:02Z</time>
      </trkpt>
      <trkpt lat="-12.1170230" lon="-76.6390500">
        <ele>1654.7</ele>
        <time>2021-05-30T16:29:03Z</time>
      </trkpt>
      <trkpt lat="-12.1170170" lon="-76.6391290">
        <ele>1654.3</ele>
        <time>2021-05-30T16:29:04Z</time>
      </trkpt>
      <trkpt lat="-12.1170100" lon="-76.6392700">
        <ele>1653.7</ele>
        <time>2021-05-30T16:29:06Z</time>
      </trkpt>
      <trkpt lat="-12.1170060" lon="-76.6393370">
        <ele>1653.4</ele>
        <time>2021-05-30T16:29:07Z</time>
      </trkpt>
      <trkpt lat="-12.1170160" lon="-76.6394650">
        <ele>1652.8</ele>
        <time>2021-05-30T16:29:09Z</time>
      </trkpt>
      <trkpt lat="-12.1170220" lon="-76.6395270">
        <ele>1652.5</ele>
        <time>2021-05-30T16:29:10Z</time>
      </trkpt>
      <trkpt lat="-12.1170220" lon="-76.6395820">
        <ele>1652.2</ele>
        <time>2021-05-30T16:29:11Z</time>
      </trkpt>
      <trkpt lat="-12.1170110" lon="-76.6396970">
        <ele>1651.6</ele>
        <time>2021-05-30T16:29:13Z</time>
      </trkpt>
      <trkpt lat="-12.1170040" lon="-76.6398210">
        <ele>1650.9</ele>
        <time>2021-05-30T16:29:15Z</time>
      </trkpt>
      <trkpt lat="-12.1169980" lon="-76.6399470">
        <ele>1650.1</ele>
        <time>2021-05-30T16:29:17Z</time>
      </trkpt>
      <trkpt lat="-12.1169910" lon="-76.6400100">
        <ele>1649.7</ele>
        <time>2021-05-30T16:29:18Z</time>
      </trkpt>
      <trkpt lat="-12.1169770" lon="-76.6401280">
        <ele>1648.8</ele>
        <time>2021-05-30T16:29:20Z</time>
      </trkpt>
      <trkpt lat="-12.1169660" lon="-76.6401930">
        <ele>1648.4</ele>
        <time>2021-05-30T16:29:21Z</time>
      </trkpt>
      <trkpt lat="-12.1169540" lon="-76.6402600">
        <ele>1647.9</ele>
        <time>2021-05-30T16:29:22Z</time>
      </trkpt>
      <trkpt lat="-12.1169360" lon="-76.6403250">
        <ele>1647.5</ele>
        <time>2021-05-30T16:29:23Z</time>
      </trkpt>
      <trkpt lat="-12.1169110" lon="-76.6403920">
        <ele>1647.0</ele>
        <time>2021-05-30T16:29:24Z</time>
      </trkpt>
      <trkpt lat="-12.1168500" lon="-76.6405160">
        <ele>1646.0</ele>
        <time>2021-05-30T16:29:26Z</time>
      </trkpt>
      <trkpt lat="-12.1168060" lon="-76.6406400">
        <ele>1645.1</ele>
        <time>2021-05-30T16:29:28Z</time>
      </trkpt>
      <trkpt lat="-12.1168030" lon="-76.6407100">
        <ele>1644.7</ele>
        <time>2021-05-30T16:29:29Z</time>
      </trkpt>
      <trkpt lat="-12.1168180" lon="-76.6408470">
        <ele>1643.9</ele>
        <time>2021-05-30T16:29:31Z</time>
      </trkpt>
      <trkpt lat="-12.1168320" lon="-76.6409170">
        <ele>1643.4</ele>
        <time>2021-05-30T16:29:32Z</time>
      </trkpt>
      <trkpt lat="-12.1168440" lon="-76.6409870">
        <ele>1643.0</ele>
        <time>2021-05-30T16:29:33Z</time>
      </trkpt>
      <trkpt lat="-12.1168530" lon="-76.6410570">
        <ele>1642.6</ele>
        <time>2021-05-30T16:29:34Z</time>
      </trkpt>
      <trkpt lat="-12.1168580" lon="-76.6411310">
        <ele>1642.2</ele>
        <time>2021-05-30T16:29:35Z</time>
      </trkpt>
      <trkpt lat="-12.1169090" lon="-76.6412640">
        <ele>1642.9</ele>
        <time>2021-05-30T16:29:37Z</time>
      </trkpt>
      <trkpt lat="-12.1169120" lon="-76.6414120">
        <ele>1643.4</ele>
        <time>2021-05-30T16:29:39Z</time>
      </trkpt>
      <trkpt lat="-12.1168690" lon="-76.6415490">
        <ele>1642.7</ele>
        <time>2021-05-30T16:29:41Z</time>
      </trkpt>
      <trkpt lat="-12.1168360" lon="-76.6416070">
        <ele>1642.0</ele>
        <time>2021-05-30T16:29:42Z</time>
      </trkpt>
      <trkpt lat="-12.1168130" lon="-76.6416510">
        <ele>1641.9</ele>
        <time>2021-05-30T16:29:43Z</time>
      </trkpt>
      <trkpt lat="-12.1167450" lon="-76.6416920">
        <ele>1640.9</ele>
        <time>2021-05-30T16:29:45Z</time>
      </trkpt>
      <trkpt lat="-12.1167180" lon="-76.6417560">
        <ele>1638.5</ele>
        <time>2021-05-30T16:29:47Z</time>
      </trkpt>
      <trkpt lat="-12.1166960" lon="-76.6418230">
        <ele>1638.1</ele>
        <time>2021-05-30T16:29:49Z</time>
      </trkpt>
      <trkpt lat="-12.1166680" lon="-76.6418130">
        <ele>1637.9</ele>
        <time>2021-05-30T16:29:51Z</time>
      </trkpt>
      <trkpt lat="-12.1167060" lon="-76.6418060">
        <ele>1637.6</ele>
        <time>2021-05-30T16:29:52Z</time>
      </trkpt>
      <trkpt lat="-12.1167310" lon="-76.6418140">
        <ele>1637.5</ele>
        <time>2021-05-30T16:29:53Z</time>
      </trkpt>
      <trkpt lat="-12.1167630" lon="-76.6418150">
        <ele>1637.2</ele>
        <time>2021-05-30T16:29:55Z</time>
      </trkpt>
      <trkpt lat="-12.1167940" lon="-76.6418170">
        <ele>1637.0</ele>
        <time>2021-05-30T16:29:56Z</time>
      </trkpt>
      <trkpt lat="-12.1168200" lon="-76.6418090">
        <ele>1636.8</ele>
        <time>2021-05-30T16:29:57Z</time>
      </trkpt>
      <trkpt lat="-12.1168420" lon="-76.6417860">
        <ele>1636.6</ele>
        <time>2021-05-30T16:29:59Z</time>
      </trkpt>
      <trkpt lat="-12.1168490" lon="-76.6417780">
        <ele>1636.6</ele>
        <time>2021-05-30T16:30:00Z</time>
      </trkpt>
      <trkpt lat="-12.1168710" lon="-76.6417460">
        <ele>1636.3</ele>
        <time>2021-05-30T16:30:01Z</time>
      </trkpt>
      <trkpt lat="-12.1168820" lon="-76.6417150">
        <ele>1636.1</ele>
        <time>2021-05-30T16:30:02Z</time>
      </trkpt>
      <trkpt lat="-12.1168870" lon="-76.6416690">
        <ele>1635.9</ele>
        <time>2021-05-30T16:30:04Z</time>
      </trkpt>
      <trkpt lat="-12.1168880" lon="-76.6415900">
        <ele>1635.6</ele>
        <time>2021-05-30T16:30:06Z</time>
      </trkpt>
      <trkpt lat="-12.1168880" lon="-76.6415400">
        <ele>1635.5</ele>
        <time>2021-05-30T16:30:07Z</time>
      </trkpt>
      <trkpt lat="-12.1168960" lon="-76.6414720">
        <ele>1635.3</ele>
        <time>2021-05-30T16:30:08Z</time>
      </trkpt>
      <trkpt lat="-12.1169070" lon="-76.6414080">
        <ele>1635.2</ele>
        <time>2021-05-30T16:30:09Z</time>
      </trkpt>
      <trkpt lat="-12.1169360" lon="-76.6412850">
        <ele>1635.1</ele>
        <time>2021-05-30T16:30:11Z</time>
      </trkpt>
      <trkpt lat="-12.1169440" lon="-76.6412160">
        <ele>1635.1</ele>
        <time>2021-05-30T16:30:12Z</time>
      </trkpt>
      <trkpt lat="-12.1169570" lon="-76.6411120">
        <ele>1635.0</ele>
        <time>2021-05-30T16:30:14Z</time>
      </trkpt>
      <trkpt lat="-12.1169560" lon="-76.6410600">
        <ele>1635.0</ele>
        <time>2021-05-30T16:30:15Z</time>
      </trkpt>
      <trkpt lat="-12.1169470" lon="-76.6409980">
        <ele>1635.0</ele>
        <time>2021-05-30T16:30:16Z</time>
      </trkpt>
      <trkpt lat="-12.1169360" lon="-76.6409430">
        <ele>1635.0</ele>
        <time>2021-05-30T16:30:18Z</time>
      </trkpt>
      <trkpt lat="-12.1169300" lon="-76.6409040">
        <ele>1634.9</ele>
        <time>2021-05-30T16:30:19Z</time>
      </trkpt>
      <trkpt lat="-12.1169190" lon="-76.6408540">
        <ele>1634.9</ele>
        <time>2021-05-30T16:30:20Z</time>
      </trkpt>
      <trkpt lat="-12.1169060" lon="-76.6407980">
        <ele>1634.8</ele>
        <time>2021-05-30T16:30:21Z</time>
      </trkpt>
      <trkpt lat="-12.1168970" lon="-76.6407540">
        <ele>1634.8</ele>
        <time>2021-05-30T16:30:22Z</time>
      </trkpt>
      <trkpt lat="-12.1168920" lon="-76.6407050">
        <ele>1634.8</ele>
        <time>2021-05-30T16:30:24Z</time>
      </trkpt>
      <trkpt lat="-12.1168950" lon="-76.6406600">
        <ele>1634.8</ele>
        <time>2021-05-30T16:30:25Z</time>
      </trkpt>
      <trkpt lat="-12.1169090" lon="-76.6405940">
        <ele>1634.8</ele>
        <time>2021-05-30T16:30:26Z</time>
      </trkpt>
      <trkpt lat="-12.1169280" lon="-76.6405380">
        <ele>1634.7</ele>
        <time>2021-05-30T16:30:28Z</time>
      </trkpt>
      <trkpt lat="-12.1169590" lon="-76.6404730">
        <ele>1634.6</ele>
        <time>2021-05-30T16:30:30Z</time>
      </trkpt>
      <trkpt lat="-12.1169790" lon="-76.6404370">
        <ele>1634.5</ele>
        <time>2021-05-30T16:30:31Z</time>
      </trkpt>
      <trkpt lat="-12.1170010" lon="-76.6404050">
        <ele>1634.4</ele>
        <time>2021-05-30T16:30:32Z</time>
      </trkpt>
      <trkpt lat="-12.1170730" lon="-76.6402990">
        <ele>1633.9</ele>
        <time>2021-05-30T16:30:34Z</time>
      </trkpt>
      <trkpt lat="-12.1171010" lon="-76.6402410">
        <ele>1633.6</ele>
        <time>2021-05-30T16:30:35Z</time>
      </trkpt>
      <trkpt lat="-12.1171270" lon="-76.6401830">
        <ele>1633.3</ele>
        <time>2021-05-30T16:30:36Z</time>
      </trkpt>
      <trkpt lat="-12.1171650" lon="-76.6400660">
        <ele>1632.6</ele>
        <time>2021-05-30T16:30:38Z</time>
      </trkpt>
      <trkpt lat="-12.1171750" lon="-76.6399980">
        <ele>1632.3</ele>
        <time>2021-05-30T16:30:39Z</time>
      </trkpt>
      <trkpt lat="-12.1171870" lon="-76.6399260">
        <ele>1631.9</ele>
        <time>2021-05-30T16:30:40Z</time>
      </trkpt>
      <trkpt lat="-12.1172010" lon="-76.6398560">
        <ele>1631.5</ele>
        <time>2021-05-30T16:30:41Z</time>
      </trkpt>
      <trkpt lat="-12.1172350" lon="-76.6397070">
        <ele>1630.8</ele>
        <time>2021-05-30T16:30:43Z</time>
      </trkpt>
      <trkpt lat="-12.1172570" lon="-76.6396330">
        <ele>1630.5</ele>
        <time>2021-05-30T16:30:44Z</time>
      </trkpt>
      <trkpt lat="-12.1172830" lon="-76.6394850">
        <ele>1630.1</ele>
        <time>2021-05-30T16:30:46Z</time>
      </trkpt>
      <trkpt lat="-12.1172720" lon="-76.6393330">
        <ele>1629.7</ele>
        <time>2021-05-30T16:30:48Z</time>
      </trkpt>
      <trkpt lat="-12.1172660" lon="-76.6392570">
        <ele>1629.4</ele>
        <time>2021-05-30T16:30:49Z</time>
      </trkpt>
      <trkpt lat="-12.1172720" lon="-76.6391110">
        <ele>1628.6</ele>
        <time>2021-05-30T16:30:51Z</time>
      </trkpt>
      <trkpt lat="-12.1172910" lon="-76.6390370">
        <ele>1628.2</ele>
        <time>2021-05-30T16:30:52Z</time>
      </trkpt>
      <trkpt lat="-12.1173390" lon="-76.6388850">
        <ele>1627.4</ele>
        <time>2021-05-30T16:30:54Z</time>
      </trkpt>
      <trkpt lat="-12.1174200" lon="-76.6387450">
        <ele>1626.7</ele>
        <time>2021-05-30T16:30:56Z</time>
      </trkpt>
      <trkpt lat="-12.1175090" lon="-76.6386130">
        <ele>1626.2</ele>
        <time>2021-05-30T16:30:58Z</time>
      </trkpt>
      <trkpt lat="-12.1175530" lon="-76.6385460">
        <ele>1625.9</ele>
        <time>2021-05-30T16:30:59Z</time>
      </trkpt>
      <trkpt lat="-12.1175990" lon="-76.6384750">
        <ele>1625.5</ele>
        <time>2021-05-30T16:31:00Z</time>
      </trkpt>
      <trkpt lat="-12.1176880" lon="-76.6383290">
        <ele>1624.6</ele>
        <time>2021-05-30T16:31:02Z</time>
      </trkpt>
      <trkpt lat="-12.1177810" lon="-76.6381830">
        <ele>1623.4</ele>
        <time>2021-05-30T16:31:04Z</time>
      </trkpt>
      <trkpt lat="-12.1178270" lon="-76.6381100">
        <ele>1622.8</ele>
        <time>2021-05-30T16:31:05Z</time>
      </trkpt>
      <trkpt lat="-12.1178720" lon="-76.6380340">
        <ele>1622.4</ele>
        <time>2021-05-30T16:31:06Z</time>
      </trkpt>
      <trkpt lat="-12.1179790" lon="-76.6378860">
        <ele>1621.5</ele>
        <time>2021-05-30T16:31:08Z</time>
      </trkpt>
      <trkpt lat="-12.1181000" lon="-76.6377570">
        <ele>1621.0</ele>
        <time>2021-05-30T16:31:10Z</time>
      </trkpt>
      <trkpt lat="-12.1182220" lon="-76.6376280">
        <ele>1620.8</ele>
        <time>2021-05-30T16:31:12Z</time>
      </trkpt>
      <trkpt lat="-12.1182830" lon="-76.6375650">
        <ele>1620.7</ele>
        <time>2021-05-30T16:31:13Z</time>
      </trkpt>
      <trkpt lat="-12.1184070" lon="-76.6374520">
        <ele>1620.0</ele>
        <time>2021-05-30T16:31:15Z</time>
      </trkpt>
      <trkpt lat="-12.1185250" lon="-76.6373520">
        <ele>1619.3</ele>
        <time>2021-05-30T16:31:17Z</time>
      </trkpt>
      <trkpt lat="-12.1185810" lon="-76.6373030">
        <ele>1619.0</ele>
        <time>2021-05-30T16:31:18Z</time>
      </trkpt>
      <trkpt lat="-12.1186310" lon="-76.6372470">
        <ele>1618.8</ele>
        <time>2021-05-30T16:31:19Z</time>
      </trkpt>
      <trkpt lat="-12.1187360" lon="-76.6371420">
        <ele>1618.3</ele>
        <time>2021-05-30T16:31:21Z</time>
      </trkpt>
      <trkpt lat="-12.1187910" lon="-76.6370970">
        <ele>1618.2</ele>
        <time>2021-05-30T16:31:22Z</time>
      </trkpt>
      <trkpt lat="-12.1188960" lon="-76.6369980">
        <ele>1617.7</ele>
        <time>2021-05-30T16:31:24Z</time>
      </trkpt>
      <trkpt lat="-12.1189510" lon="-76.6369390">
        <ele>1617.3</ele>
        <time>2021-05-30T16:31:25Z</time>
      </trkpt>
      <trkpt lat="-12.1190590" lon="-76.6368270">
        <ele>1616.4</ele>
        <time>2021-05-30T16:31:27Z</time>
      </trkpt>
      <trkpt lat="-12.1191190" lon="-76.6367830">
        <ele>1616.1</ele>
        <time>2021-05-30T16:31:28Z</time>
      </trkpt>
      <trkpt lat="-12.1191810" lon="-76.6367420">
        <ele>1615.8</ele>
        <time>2021-05-30T16:31:29Z</time>
      </trkpt>
      <trkpt lat="-12.1193060" lon="-76.6366570">
        <ele>1615.2</ele>
        <time>2021-05-30T16:31:31Z</time>
      </trkpt>
      <trkpt lat="-12.1194280" lon="-76.6365840">
        <ele>1614.4</ele>
        <time>2021-05-30T16:31:33Z</time>
      </trkpt>
      <trkpt lat="-12.1194960" lon="-76.6365540">
        <ele>1614.1</ele>
        <time>2021-05-30T16:31:34Z</time>
      </trkpt>
      <trkpt lat="-12.1196360" lon="-76.6365130">
        <ele>1613.6</ele>
        <time>2021-05-30T16:31:36Z</time>
      </trkpt>
      <trkpt lat="-12.1197790" lon="-76.6364840">
        <ele>1612.8</ele>
        <time>2021-05-30T16:31:38Z</time>
      </trkpt>
      <trkpt lat="-12.1199290" lon="-76.6364620">
        <ele>1611.8</ele>
        <time>2021-05-30T16:31:40Z</time>
      </trkpt>
      <trkpt lat="-12.1200100" lon="-76.6364520">
        <ele>1611.2</ele>
        <time>2021-05-30T16:31:41Z</time>
      </trkpt>
      <trkpt lat="-12.1200910" lon="-76.6364420">
        <ele>1610.6</ele>
        <time>2021-05-30T16:31:42Z</time>
      </trkpt>
      <trkpt lat="-12.1202510" lon="-76.6364170">
        <ele>1609.6</ele>
        <time>2021-05-30T16:31:44Z</time>
      </trkpt>
      <trkpt lat="-12.1204110" lon="-76.6363880">
        <ele>1608.8</ele>
        <time>2021-05-30T16:31:46Z</time>
      </trkpt>
      <trkpt lat="-12.1205890" lon="-76.6363740">
        <ele>1607.9</ele>
        <time>2021-05-30T16:31:48Z</time>
      </trkpt>
      <trkpt lat="-12.1207550" lon="-76.6363700">
        <ele>1607.3</ele>
        <time>2021-05-30T16:31:50Z</time>
      </trkpt>
      <trkpt lat="-12.1209190" lon="-76.6363720">
        <ele>1606.6</ele>
        <time>2021-05-30T16:31:52Z</time>
      </trkpt>
      <trkpt lat="-12.1210040" lon="-76.6363770">
        <ele>1606.3</ele>
        <time>2021-05-30T16:31:53Z</time>
      </trkpt>
      <trkpt lat="-12.1211550" lon="-76.6364140">
        <ele>1606.0</ele>
        <time>2021-05-30T16:31:55Z</time>
      </trkpt>
      <trkpt lat="-12.1212280" lon="-76.6364370">
        <ele>1605.8</ele>
        <time>2021-05-30T16:31:56Z</time>
      </trkpt>
      <trkpt lat="-12.1213620" lon="-76.6364790">
        <ele>1605.4</ele>
        <time>2021-05-30T16:31:58Z</time>
      </trkpt>
      <trkpt lat="-12.1214250" lon="-76.6365020">
        <ele>1605.3</ele>
        <time>2021-05-30T16:31:59Z</time>
      </trkpt>
      <trkpt lat="-12.1214840" lon="-76.6365220">
        <ele>1605.2</ele>
        <time>2021-05-30T16:32:00Z</time>
      </trkpt>
      <trkpt lat="-12.1215410" lon="-76.6365400">
        <ele>1605.1</ele>
        <time>2021-05-30T16:32:01Z</time>
      </trkpt>
      <trkpt lat="-12.1215980" lon="-76.6365530">
        <ele>1605.0</ele>
        <time>2021-05-30T16:32:02Z</time>
      </trkpt>
      <trkpt lat="-12.1216540" lon="-76.6365480">
        <ele>1604.9</ele>
        <time>2021-05-30T16:32:03Z</time>
      </trkpt>
      <trkpt lat="-12.1217640" lon="-76.6365010">
        <ele>1604.6</ele>
        <time>2021-05-30T16:32:05Z</time>
      </trkpt>
      <trkpt lat="-12.1218560" lon="-76.6364140">
        <ele>1604.1</ele>
        <time>2021-05-30T16:32:07Z</time>
      </trkpt>
      <trkpt lat="-12.1219220" lon="-76.6362920">
        <ele>1603.0</ele>
        <time>2021-05-30T16:32:09Z</time>
      </trkpt>
      <trkpt lat="-12.1219610" lon="-76.6361710">
        <ele>1603.1</ele>
        <time>2021-05-30T16:32:11Z</time>
      </trkpt>
      <trkpt lat="-12.1220050" lon="-76.6360630">
        <ele>1602.5</ele>
        <time>2021-05-30T16:32:13Z</time>
      </trkpt>
      <trkpt lat="-12.1220260" lon="-76.6360140">
        <ele>1602.2</ele>
        <time>2021-05-30T16:32:14Z</time>
      </trkpt>
      <trkpt lat="-12.1220400" lon="-76.6359740">
        <ele>1601.9</ele>
        <time>2021-05-30T16:32:15Z</time>
      </trkpt>
      <trkpt lat="-12.1220640" lon="-76.6359210">
        <ele>1601.6</ele>
        <time>2021-05-30T16:32:17Z</time>
      </trkpt>
      <trkpt lat="-12.1220840" lon="-76.6358930">
        <ele>1601.4</ele>
        <time>2021-05-30T16:32:18Z</time>
      </trkpt>
      <trkpt lat="-12.1221290" lon="-76.6358380">
        <ele>1601.1</ele>
        <time>2021-05-30T16:32:20Z</time>
      </trkpt>
      <trkpt lat="-12.1221510" lon="-76.6358200">
        <ele>1601.0</ele>
        <time>2021-05-30T16:32:21Z</time>
      </trkpt>
      <trkpt lat="-12.1221950" lon="-76.6358130">
        <ele>1600.8</ele>
        <time>2021-05-30T16:32:23Z</time>
      </trkpt>
      <trkpt lat="-12.1222140" lon="-76.6358220">
        <ele>1600.7</ele>
        <time>2021-05-30T16:32:24Z</time>
      </trkpt>
      <trkpt lat="-12.1222170" lon="-76.6358660">
        <ele>1600.5</ele>
        <time>2021-05-30T16:32:26Z</time>
      </trkpt>
      <trkpt lat="-12.1222160" lon="-76.6358960">
        <ele>1600.4</ele>
        <time>2021-05-30T16:32:27Z</time>
      </trkpt>
      <trkpt lat="-12.1222040" lon="-76.6359660">
        <ele>1600.1</ele>
        <time>2021-05-30T16:32:29Z</time>
      </trkpt>
      <trkpt lat="-12.1221660" lon="-76.6360360">
        <ele>1599.8</ele>
        <time>2021-05-30T16:32:31Z</time>
      </trkpt>
      <trkpt lat="-12.1221350" lon="-76.6360760">
        <ele>1599.6</ele>
        <time>2021-05-30T16:32:32Z</time>
      </trkpt>
      <trkpt lat="-12.1220740" lon="-76.6361570">
        <ele>1599.2</ele>
        <time>2021-05-30T16:32:34Z</time>
      </trkpt>
      <trkpt lat="-12.1220390" lon="-76.6362020">
        <ele>1599.0</ele>
        <time>2021-05-30T16:32:35Z</time>
      </trkpt>
      <trkpt lat="-12.1219910" lon="-76.6362950">
        <ele>1598.3</ele>
        <time>2021-05-30T16:32:37Z</time>
      </trkpt>
      <trkpt lat="-12.1219450" lon="-76.6364020">
        <ele>1597.5</ele>
        <time>2021-05-30T16:32:39Z</time>
      </trkpt>
      <trkpt lat="-12.1218850" lon="-76.6365100">
        <ele>1596.4</ele>
        <time>2021-05-30T16:32:41Z</time>
      </trkpt>
      <trkpt lat="-12.1218060" lon="-76.6365920">
        <ele>1595.7</ele>
        <time>2021-05-30T16:32:43Z</time>
      </trkpt>
      <trkpt lat="-12.1217050" lon="-76.6366680">
        <ele>1594.9</ele>
        <time>2021-05-30T16:32:45Z</time>
      </trkpt>
      <trkpt lat="-12.1216520" lon="-76.6366970">
        <ele>1594.6</ele>
        <time>2021-05-30T16:32:46Z</time>
      </trkpt>
      <trkpt lat="-12.1215460" lon="-76.6367430">
        <ele>1594.0</ele>
        <time>2021-05-30T16:32:48Z</time>
      </trkpt>
      <trkpt lat="-12.1214950" lon="-76.6367650">
        <ele>1593.6</ele>
        <time>2021-05-30T16:32:49Z</time>
      </trkpt>
      <trkpt lat="-12.1214460" lon="-76.6367880">
        <ele>1593.2</ele>
        <time>2021-05-30T16:32:50Z</time>
      </trkpt>
      <trkpt lat="-12.1213950" lon="-76.6368110">
        <ele>1592.8</ele>
        <time>2021-05-30T16:32:51Z</time>
      </trkpt>
      <trkpt lat="-12.1213390" lon="-76.6368370">
        <ele>1592.3</ele>
        <time>2021-05-30T16:32:52Z</time>
      </trkpt>
      <trkpt lat="-12.1212800" lon="-76.6368540">
        <ele>1591.8</ele>
        <time>2021-05-30T16:32:53Z</time>
      </trkpt>
      <trkpt lat="-12.1211540" lon="-76.6368640">
        <ele>1590.8</ele>
        <time>2021-05-30T16:32:55Z</time>
      </trkpt>
      <trkpt lat="-12.1210870" lon="-76.6368640">
        <ele>1590.4</ele>
        <time>2021-05-30T16:32:56Z</time>
      </trkpt>
      <trkpt lat="-12.1209440" lon="-76.6368710">
        <ele>1589.5</ele>
        <time>2021-05-30T16:32:58Z</time>
      </trkpt>
      <trkpt lat="-12.1208650" lon="-76.6368820">
        <ele>1589.1</ele>
        <time>2021-05-30T16:32:59Z</time>
      </trkpt>
      <trkpt lat="-12.1207240" lon="-76.6369100">
        <ele>1588.5</ele>
        <time>2021-05-30T16:33:01Z</time>
      </trkpt>
      <trkpt lat="-12.1206580" lon="-76.6369190">
        <ele>1588.3</ele>
        <time>2021-05-30T16:33:02Z</time>
      </trkpt>
      <trkpt lat="-12.1205910" lon="-76.6369310">
        <ele>1588.1</ele>
        <time>2021-05-30T16:33:03Z</time>
      </trkpt>
      <trkpt lat="-12.1204640" lon="-76.6369520">
        <ele>1587.9</ele>
        <time>2021-05-30T16:33:05Z</time>
      </trkpt>
      <trkpt lat="-12.1204020" lon="-76.6369630">
        <ele>1587.7</ele>
        <time>2021-05-30T16:33:06Z</time>
      </trkpt>
      <trkpt lat="-12.1203380" lon="-76.6369720">
        <ele>1587.6</ele>
        <time>2021-05-30T16:33:07Z</time>
      </trkpt>
      <trkpt lat="-12.1202230" lon="-76.6369910">
        <ele>1587.3</ele>
        <time>2021-05-30T16:33:09Z</time>
      </trkpt>
      <trkpt lat="-12.1201630" lon="-76.6370070">
        <ele>1587.1</ele>
        <time>2021-05-30T16:33:10Z</time>
      </trkpt>
      <trkpt lat="-12.1201040" lon="-76.6370260">
        <ele>1586.9</ele>
        <time>2021-05-30T16:33:11Z</time>
      </trkpt>
      <trkpt lat="-12.1199940" lon="-76.6370850">
        <ele>1586.5</ele>
        <time>2021-05-30T16:33:13Z</time>
      </trkpt>
      <trkpt lat="-12.1199390" lon="-76.6371210">
        <ele>1586.3</ele>
        <time>2021-05-30T16:33:14Z</time>
      </trkpt>
      <trkpt lat="-12.1198430" lon="-76.6371980">
        <ele>1585.9</ele>
        <time>2021-05-30T16:33:16Z</time>
      </trkpt>
      <trkpt lat="-12.1197480" lon="-76.6372770">
        <ele>1585.5</ele>
        <time>2021-05-30T16:33:18Z</time>
      </trkpt>
      <trkpt lat="-12.1196560" lon="-76.6373630">
        <ele>1585.1</ele>
        <time>2021-05-30T16:33:20Z</time>
      </trkpt>
      <trkpt lat="-12.1195630" lon="-76.6374360">
        <ele>1584.6</ele>
        <time>2021-05-30T16:33:22Z</time>
      </trkpt>
      <trkpt lat="-12.1194730" lon="-76.6375310">
        <ele>1584.0</ele>
        <time>2021-05-30T16:33:24Z</time>
      </trkpt>
      <trkpt lat="-12.1194280" lon="-76.6375860">
        <ele>1583.6</ele>
        <time>2021-05-30T16:33:25Z</time>
      </trkpt>
      <trkpt lat="-12.1193430" lon="-76.6376830">
        <ele>1582.9</ele>
        <time>2021-05-30T16:33:27Z</time>
      </trkpt>
      <trkpt lat="-12.1193010" lon="-76.6377280">
        <ele>1582.6</ele>
        <time>2021-05-30T16:33:28Z</time>
      </trkpt>
      <trkpt lat="-12.1192150" lon="-76.6378170">
        <ele>1582.1</ele>
        <time>2021-05-30T16:33:30Z</time>
      </trkpt>
      <trkpt lat="-12.1191700" lon="-76.6378550">
        <ele>1581.8</ele>
        <time>2021-05-30T16:33:31Z</time>
      </trkpt>
      <trkpt lat="-12.1191220" lon="-76.6378950">
        <ele>1581.5</ele>
        <time>2021-05-30T16:33:32Z</time>
      </trkpt>
      <trkpt lat="-12.1190360" lon="-76.6379930">
        <ele>1580.7</ele>
        <time>2021-05-30T16:33:34Z</time>
      </trkpt>
      <trkpt lat="-12.1189580" lon="-76.6380890">
        <ele>1580.0</ele>
        <time>2021-05-30T16:33:36Z</time>
      </trkpt>
      <trkpt lat="-12.1189180" lon="-76.6381410">
        <ele>1579.7</ele>
        <time>2021-05-30T16:33:37Z</time>
      </trkpt>
      <trkpt lat="-12.1188420" lon="-76.6382420">
        <ele>1579.0</ele>
        <time>2021-05-30T16:33:39Z</time>
      </trkpt>
      <trkpt lat="-12.1187700" lon="-76.6383530">
        <ele>1578.3</ele>
        <time>2021-05-30T16:33:41Z</time>
      </trkpt>
      <trkpt lat="-12.1187330" lon="-76.6384110">
        <ele>1577.9</ele>
        <time>2021-05-30T16:33:42Z</time>
      </trkpt>
      <trkpt lat="-12.1186640" lon="-76.6385180">
        <ele>1577.1</ele>
        <time>2021-05-30T16:33:44Z</time>
      </trkpt>
      <trkpt lat="-12.1186340" lon="-76.6385750">
        <ele>1576.7</ele>
        <time>2021-05-30T16:33:45Z</time>
      </trkpt>
      <trkpt lat="-12.1185770" lon="-76.6386970">
        <ele>1575.9</ele>
        <time>2021-05-30T16:33:47Z</time>
      </trkpt>
      <trkpt lat="-12.1185100" lon="-76.6388230">
        <ele>1575.1</ele>
        <time>2021-05-30T16:33:49Z</time>
      </trkpt>
      <trkpt lat="-12.1184500" lon="-76.6389600">
        <ele>1574.3</ele>
        <time>2021-05-30T16:33:51Z</time>
      </trkpt>
      <trkpt lat="-12.1184120" lon="-76.6391060">
        <ele>1573.6</ele>
        <time>2021-05-30T16:33:53Z</time>
      </trkpt>
      <trkpt lat="-12.1183950" lon="-76.6391830">
        <ele>1573.2</ele>
        <time>2021-05-30T16:33:54Z</time>
      </trkpt>
      <trkpt lat="-12.1183790" lon="-76.6392610">
        <ele>1572.9</ele>
        <time>2021-05-30T16:33:55Z</time>
      </trkpt>
      <trkpt lat="-12.1183650" lon="-76.6393370">
        <ele>1572.4</ele>
        <time>2021-05-30T16:33:56Z</time>
      </trkpt>
      <trkpt lat="-12.1183440" lon="-76.6394750">
        <ele>1571.6</ele>
        <time>2021-05-30T16:33:58Z</time>
      </trkpt>
      <trkpt lat="-12.1183320" lon="-76.6395430">
        <ele>1571.2</ele>
        <time>2021-05-30T16:33:59Z</time>
      </trkpt>
      <trkpt lat="-12.1183210" lon="-76.6396100">
        <ele>1570.8</ele>
        <time>2021-05-30T16:34:00Z</time>
      </trkpt>
      <trkpt lat="-12.1183130" lon="-76.6396820">
        <ele>1570.5</ele>
        <time>2021-05-30T16:34:01Z</time>
      </trkpt>
      <trkpt lat="-12.1182910" lon="-76.6398220">
        <ele>1569.8</ele>
        <time>2021-05-30T16:34:03Z</time>
      </trkpt>
      <trkpt lat="-12.1182810" lon="-76.6399690">
        <ele>1569.2</ele>
        <time>2021-05-30T16:34:05Z</time>
      </trkpt>
      <trkpt lat="-12.1182700" lon="-76.6400420">
        <ele>1568.9</ele>
        <time>2021-05-30T16:34:06Z</time>
      </trkpt>
      <trkpt lat="-12.1182410" lon="-76.6401790">
        <ele>1568.2</ele>
        <time>2021-05-30T16:34:08Z</time>
      </trkpt>
      <trkpt lat="-12.1182290" lon="-76.6402440">
        <ele>1567.9</ele>
        <time>2021-05-30T16:34:09Z</time>
      </trkpt>
      <trkpt lat="-12.1182270" lon="-76.6403680">
        <ele>1567.5</ele>
        <time>2021-05-30T16:34:11Z</time>
      </trkpt>
      <trkpt lat="-12.1182240" lon="-76.6404270">
        <ele>1567.3</ele>
        <time>2021-05-30T16:34:12Z</time>
      </trkpt>
      <trkpt lat="-12.1182180" lon="-76.6404830">
        <ele>1567.1</ele>
        <time>2021-05-30T16:34:13Z</time>
      </trkpt>
      <trkpt lat="-12.1181990" lon="-76.6405940">
        <ele>1566.8</ele>
        <time>2021-05-30T16:34:15Z</time>
      </trkpt>
      <trkpt lat="-12.1181460" lon="-76.6407130">
        <ele>1566.4</ele>
        <time>2021-05-30T16:34:17Z</time>
      </trkpt>
      <trkpt lat="-12.1180980" lon="-76.6408380">
        <ele>1566.0</ele>
        <time>2021-05-30T16:34:19Z</time>
      </trkpt>
      <trkpt lat="-12.1180760" lon="-76.6409660">
        <ele>1565.6</ele>
        <time>2021-05-30T16:34:21Z</time>
      </trkpt>
      <trkpt lat="-12.1180770" lon="-76.6410290">
        <ele>1565.4</ele>
        <time>2021-05-30T16:34:22Z</time>
      </trkpt>
      <trkpt lat="-12.1180890" lon="-76.6410900">
        <ele>1565.1</ele>
        <time>2021-05-30T16:34:23Z</time>
      </trkpt>
      <trkpt lat="-12.1181040" lon="-76.6411550">
        <ele>1564.8</ele>
        <time>2021-05-30T16:34:24Z</time>
      </trkpt>
      <trkpt lat="-12.1181710" lon="-76.6415030">
        <ele>1563.2</ele>
        <time>2021-05-30T16:34:29Z</time>
      </trkpt>
      <trkpt lat="-12.1182030" lon="-76.6416460">
        <ele>1562.3</ele>
        <time>2021-05-30T16:34:31Z</time>
      </trkpt>
      <trkpt lat="-12.1182330" lon="-76.6418010">
        <ele>1561.4</ele>
        <time>2021-05-30T16:34:33Z</time>
      </trkpt>
      <trkpt lat="-12.1182500" lon="-76.6418810">
        <ele>1561.0</ele>
        <time>2021-05-30T16:34:34Z</time>
      </trkpt>
      <trkpt lat="-12.1182670" lon="-76.6419570">
        <ele>1560.6</ele>
        <time>2021-05-30T16:34:35Z</time>
      </trkpt>
      <trkpt lat="-12.1183030" lon="-76.6420990">
        <ele>1559.9</ele>
        <time>2021-05-30T16:34:37Z</time>
      </trkpt>
      <trkpt lat="-12.1183450" lon="-76.6422340">
        <ele>1559.1</ele>
        <time>2021-05-30T16:34:39Z</time>
      </trkpt>
      <trkpt lat="-12.1183770" lon="-76.6422980">
        <ele>1558.8</ele>
        <time>2021-05-30T16:34:40Z</time>
      </trkpt>
      <trkpt lat="-12.1184380" lon="-76.6424110">
        <ele>1558.3</ele>
        <time>2021-05-30T16:34:42Z</time>
      </trkpt>
      <trkpt lat="-12.1184940" lon="-76.6425360">
        <ele>1557.8</ele>
        <time>2021-05-30T16:34:44Z</time>
      </trkpt>
      <trkpt lat="-12.1185260" lon="-76.6426010">
        <ele>1557.6</ele>
        <time>2021-05-30T16:34:45Z</time>
      </trkpt>
      <trkpt lat="-12.1185640" lon="-76.6427260">
        <ele>1557.2</ele>
        <time>2021-05-30T16:34:47Z</time>
      </trkpt>
      <trkpt lat="-12.1185820" lon="-76.6428680">
        <ele>1556.7</ele>
        <time>2021-05-30T16:34:49Z</time>
      </trkpt>
      <trkpt lat="-12.1185830" lon="-76.6429370">
        <ele>1556.5</ele>
        <time>2021-05-30T16:34:50Z</time>
      </trkpt>
      <trkpt lat="-12.1185500" lon="-76.6432160">
        <ele>1555.6</ele>
        <time>2021-05-30T16:34:55Z</time>
      </trkpt>
      <trkpt lat="-12.1185010" lon="-76.6432340">
        <ele>1555.4</ele>
        <time>2021-05-30T16:34:56Z</time>
      </trkpt>
      <trkpt lat="-12.1184550" lon="-76.6432330">
        <ele>1555.3</ele>
        <time>2021-05-30T16:34:57Z</time>
      </trkpt>
      <trkpt lat="-12.1184230" lon="-76.6432690">
        <ele>1555.1</ele>
        <time>2021-05-30T16:34:59Z</time>
      </trkpt>
      <trkpt lat="-12.1184400" lon="-76.6433060">
        <ele>1555.1</ele>
        <time>2021-05-30T16:35:01Z</time>
      </trkpt>
      <trkpt lat="-12.1184880" lon="-76.6433350">
        <ele>1555.0</ele>
        <time>2021-05-30T16:35:03Z</time>
      </trkpt>
      <trkpt lat="-12.1184870" lon="-76.6433540">
        <ele>1554.9</ele>
        <time>2021-05-30T16:35:04Z</time>
      </trkpt>
      <trkpt lat="-12.1185040" lon="-76.6433630">
        <ele>1554.9</ele>
        <time>2021-05-30T16:35:05Z</time>
      </trkpt>
      <trkpt lat="-12.1185400" lon="-76.6433640">
        <ele>1554.8</ele>
        <time>2021-05-30T16:35:07Z</time>
      </trkpt>
      <trkpt lat="-12.1185720" lon="-76.6433590">
        <ele>1554.7</ele>
        <time>2021-05-30T16:35:08Z</time>
      </trkpt>
      <trkpt lat="-12.1185990" lon="-76.6433510">
        <ele>1554.5</ele>
        <time>2021-05-30T16:35:09Z</time>
      </trkpt>
      <trkpt lat="-12.1186220" lon="-76.6433340">
        <ele>1554.4</ele>
        <time>2021-05-30T16:35:11Z</time>
      </trkpt>
      <trkpt lat="-12.1186300" lon="-76.6433270">
        <ele>1554.4</ele>
        <time>2021-05-30T16:35:12Z</time>
      </trkpt>
      <trkpt lat="-12.1186420" lon="-76.6433020">
        <ele>1554.3</ele>
        <time>2021-05-30T16:35:13Z</time>
      </trkpt>
      <trkpt lat="-12.1186600" lon="-76.6432620">
        <ele>1554.1</ele>
        <time>2021-05-30T16:35:14Z</time>
      </trkpt>
      <trkpt lat="-12.1186660" lon="-76.6432470">
        <ele>1554.0</ele>
        <time>2021-05-30T16:35:15Z</time>
      </trkpt>
      <trkpt lat="-12.1186800" lon="-76.6432130">
        <ele>1553.8</ele>
        <time>2021-05-30T16:35:17Z</time>
      </trkpt>
      <trkpt lat="-12.1186910" lon="-76.6431840">
        <ele>1553.7</ele>
        <time>2021-05-30T16:35:18Z</time>
      </trkpt>
      <trkpt lat="-12.1187040" lon="-76.6431480">
        <ele>1553.5</ele>
        <time>2021-05-30T16:35:19Z</time>
      </trkpt>
      <trkpt lat="-12.1187160" lon="-76.6431090">
        <ele>1553.2</ele>
        <time>2021-05-30T16:35:20Z</time>
      </trkpt>
      <trkpt lat="-12.1187240" lon="-76.6430690">
        <ele>1553.0</ele>
        <time>2021-05-30T16:35:22Z</time>
      </trkpt>
      <trkpt lat="-12.1187310" lon="-76.6430250">
        <ele>1552.7</ele>
        <time>2021-05-30T16:35:23Z</time>
      </trkpt>
      <trkpt lat="-12.1187350" lon="-76.6429840">
        <ele>1552.5</ele>
        <time>2021-05-30T16:35:24Z</time>
      </trkpt>
      <trkpt lat="-12.1187370" lon="-76.6429360">
        <ele>1552.3</ele>
        <time>2021-05-30T16:35:25Z</time>
      </trkpt>
      <trkpt lat="-12.1187370" lon="-76.6428590">
        <ele>1551.9</ele>
        <time>2021-05-30T16:35:26Z</time>
      </trkpt>
      <trkpt lat="-12.1187360" lon="-76.6428000">
        <ele>1551.7</ele>
        <time>2021-05-30T16:35:28Z</time>
      </trkpt>
      <trkpt lat="-12.1187340" lon="-76.6427400">
        <ele>1551.5</ele>
        <time>2021-05-30T16:35:29Z</time>
      </trkpt>
      <trkpt lat="-12.1187280" lon="-76.6426850">
        <ele>1551.3</ele>
        <time>2021-05-30T16:35:30Z</time>
      </trkpt>
      <trkpt lat="-12.1187110" lon="-76.6425750">
        <ele>1550.9</ele>
        <time>2021-05-30T16:35:33Z</time>
      </trkpt>
      <trkpt lat="-12.1187000" lon="-76.6425280">
        <ele>1550.7</ele>
        <time>2021-05-30T16:35:34Z</time>
      </trkpt>
      <trkpt lat="-12.1186780" lon="-76.6424510">
        <ele>1550.4</ele>
        <time>2021-05-30T16:35:35Z</time>
      </trkpt>
      <trkpt lat="-12.1186540" lon="-76.6423760">
        <ele>1550.0</ele>
        <time>2021-05-30T16:35:37Z</time>
      </trkpt>
      <trkpt lat="-12.1186370" lon="-76.6423350">
        <ele>1549.8</ele>
        <time>2021-05-30T16:35:38Z</time>
      </trkpt>
      <trkpt lat="-12.1186150" lon="-76.6422730">
        <ele>1549.6</ele>
        <time>2021-05-30T16:35:40Z</time>
      </trkpt>
      <trkpt lat="-12.1185960" lon="-76.6422200">
        <ele>1549.3</ele>
        <time>2021-05-30T16:35:41Z</time>
      </trkpt>
      <trkpt lat="-12.1185860" lon="-76.6421700">
        <ele>1549.1</ele>
        <time>2021-05-30T16:35:42Z</time>
      </trkpt>
      <trkpt lat="-12.1185780" lon="-76.6421260">
        <ele>1549.0</ele>
        <time>2021-05-30T16:35:43Z</time>
      </trkpt>
      <trkpt lat="-12.1185590" lon="-76.6420530">
        <ele>1548.7</ele>
        <time>2021-05-30T16:35:45Z</time>
      </trkpt>
      <trkpt lat="-12.1185480" lon="-76.6420050">
        <ele>1548.5</ele>
        <time>2021-05-30T16:35:46Z</time>
      </trkpt>
      <trkpt lat="-12.1185370" lon="-76.6418930">
        <ele>1548.2</ele>
        <time>2021-05-30T16:35:48Z</time>
      </trkpt>
      <trkpt lat="-12.1185220" lon="-76.6417740">
        <ele>1547.9</ele>
        <time>2021-05-30T16:35:50Z</time>
      </trkpt>
      <trkpt lat="-12.1185040" lon="-76.6416630">
        <ele>1547.7</ele>
        <time>2021-05-30T16:35:52Z</time>
      </trkpt>
      <trkpt lat="-12.1184990" lon="-76.6416070">
        <ele>1547.6</ele>
        <time>2021-05-30T16:35:53Z</time>
      </trkpt>
      <trkpt lat="-12.1185020" lon="-76.6415540">
        <ele>1547.5</ele>
        <time>2021-05-30T16:35:54Z</time>
      </trkpt>
      <trkpt lat="-12.1185040" lon="-76.6415030">
        <ele>1547.4</ele>
        <time>2021-05-30T16:35:55Z</time>
      </trkpt>
      <trkpt lat="-12.1185010" lon="-76.6414090">
        <ele>1547.1</ele>
        <time>2021-05-30T16:35:57Z</time>
      </trkpt>
      <trkpt lat="-12.1184920" lon="-76.6413120">
        <ele>1546.9</ele>
        <time>2021-05-30T16:35:59Z</time>
      </trkpt>
      <trkpt lat="-12.1184820" lon="-76.6412600">
        <ele>1546.8</ele>
        <time>2021-05-30T16:36:00Z</time>
      </trkpt>
      <trkpt lat="-12.1184670" lon="-76.6412020">
        <ele>1546.7</ele>
        <time>2021-05-30T16:36:01Z</time>
      </trkpt>
      <trkpt lat="-12.1184660" lon="-76.6410900">
        <ele>1546.6</ele>
        <time>2021-05-30T16:36:03Z</time>
      </trkpt>
      <trkpt lat="-12.1184860" lon="-76.6409700">
        <ele>1546.5</ele>
        <time>2021-05-30T16:36:05Z</time>
      </trkpt>
      <trkpt lat="-12.1185020" lon="-76.6409110">
        <ele>1546.5</ele>
        <time>2021-05-30T16:36:06Z</time>
      </trkpt>
      <trkpt lat="-12.1185210" lon="-76.6408590">
        <ele>1546.4</ele>
        <time>2021-05-30T16:36:07Z</time>
      </trkpt>
      <trkpt lat="-12.1185510" lon="-76.6407500">
        <ele>1546.2</ele>
        <time>2021-05-30T16:36:09Z</time>
      </trkpt>
      <trkpt lat="-12.1185900" lon="-76.6406410">
        <ele>1546.1</ele>
        <time>2021-05-30T16:36:11Z</time>
      </trkpt>
      <trkpt lat="-12.1186100" lon="-76.6405870">
        <ele>1546.1</ele>
        <time>2021-05-30T16:36:12Z</time>
      </trkpt>
      <trkpt lat="-12.1186300" lon="-76.6405310">
        <ele>1546.1</ele>
        <time>2021-05-30T16:36:13Z</time>
      </trkpt>
      <trkpt lat="-12.1186470" lon="-76.6404760">
        <ele>1546.0</ele>
        <time>2021-05-30T16:36:14Z</time>
      </trkpt>
      <trkpt lat="-12.1186660" lon="-76.6403620">
        <ele>1545.8</ele>
        <time>2021-05-30T16:36:16Z</time>
      </trkpt>
      <trkpt lat="-12.1186980" lon="-76.6402450">
        <ele>1545.5</ele>
        <time>2021-05-30T16:36:18Z</time>
      </trkpt>
      <trkpt lat="-12.1187370" lon="-76.6401420">
        <ele>1545.3</ele>
        <time>2021-05-30T16:36:20Z</time>
      </trkpt>
      <trkpt lat="-12.1187790" lon="-76.6400300">
        <ele>1545.0</ele>
        <time>2021-05-30T16:36:22Z</time>
      </trkpt>
      <trkpt lat="-12.1188080" lon="-76.6399750">
        <ele>1544.9</ele>
        <time>2021-05-30T16:36:23Z</time>
      </trkpt>
      <trkpt lat="-12.1188680" lon="-76.6398690">
        <ele>1544.6</ele>
        <time>2021-05-30T16:36:25Z</time>
      </trkpt>
      <trkpt lat="-12.1189120" lon="-76.6397580">
        <ele>1544.3</ele>
        <time>2021-05-30T16:36:27Z</time>
      </trkpt>
      <trkpt lat="-12.1189300" lon="-76.6397050">
        <ele>1544.2</ele>
        <time>2021-05-30T16:36:28Z</time>
      </trkpt>
      <trkpt lat="-12.1189580" lon="-76.6396590">
        <ele>1544.1</ele>
        <time>2021-05-30T16:36:29Z</time>
      </trkpt>
      <trkpt lat="-12.1189870" lon="-76.6396120">
        <ele>1543.9</ele>
        <time>2021-05-30T16:36:30Z</time>
      </trkpt>
      <trkpt lat="-12.1190650" lon="-76.6395220">
        <ele>1543.7</ele>
        <time>2021-05-30T16:36:32Z</time>
      </trkpt>
      <trkpt lat="-12.1190950" lon="-76.6394780">
        <ele>1543.6</ele>
        <time>2021-05-30T16:36:33Z</time>
      </trkpt>
      <trkpt lat="-12.1191220" lon="-76.6394320">
        <ele>1543.4</ele>
        <time>2021-05-30T16:36:34Z</time>
      </trkpt>
      <trkpt lat="-12.1191670" lon="-76.6393580">
        <ele>1543.2</ele>
        <time>2021-05-30T16:36:36Z</time>
      </trkpt>
      <trkpt lat="-12.1192210" lon="-76.6392860">
        <ele>1543.0</ele>
        <time>2021-05-30T16:36:38Z</time>
      </trkpt>
      <trkpt lat="-12.1193040" lon="-76.6392610">
        <ele>1542.8</ele>
        <time>2021-05-30T16:36:40Z</time>
      </trkpt>
      <trkpt lat="-12.1193830" lon="-76.6392060">
        <ele>1542.8</ele>
        <time>2021-05-30T16:36:42Z</time>
      </trkpt>
      <trkpt lat="-12.1194470" lon="-76.6391650">
        <ele>1543.0</ele>
        <time>2021-05-30T16:36:44Z</time>
      </trkpt>
      <trkpt lat="-12.1194830" lon="-76.6391440">
        <ele>1543.2</ele>
        <time>2021-05-30T16:36:45Z</time>
      </trkpt>
      <trkpt lat="-12.1195430" lon="-76.6391260">
        <ele>1543.4</ele>
        <time>2021-05-30T16:36:47Z</time>
      </trkpt>
      <trkpt lat="-12.1195700" lon="-76.6391180">
        <ele>1543.6</ele>
        <time>2021-05-30T16:36:48Z</time>
      </trkpt>
      <trkpt lat="-12.1195910" lon="-76.6390910">
        <ele>1543.7</ele>
        <time>2021-05-30T16:36:49Z</time>
      </trkpt>
      <trkpt lat="-12.1196020" lon="-76.6390830">
        <ele>1543.8</ele>
        <time>2021-05-30T16:36:51Z</time>
      </trkpt>
      <trkpt lat="-12.1196090" lon="-76.6391030">
        <ele>1543.9</ele>
        <time>2021-05-30T16:36:52Z</time>
      </trkpt>
      <trkpt lat="-12.1196170" lon="-76.6391060">
        <ele>1543.9</ele>
        <time>2021-05-30T16:36:54Z</time>
      </trkpt>
      <trkpt lat="-12.1196270" lon="-76.6391090">
        <ele>1543.9</ele>
        <time>2021-05-30T16:36:55Z</time>
      </trkpt>
      <trkpt lat="-12.1196440" lon="-76.6391110">
        <ele>1544.0</ele>
        <time>2021-05-30T16:36:57Z</time>
      </trkpt>
      <trkpt lat="-12.1196620" lon="-76.6391050">
        <ele>1544.1</ele>
        <time>2021-05-30T16:36:59Z</time>
      </trkpt>
      <trkpt lat="-12.1196720" lon="-76.6391020">
        <ele>1544.2</ele>
        <time>2021-05-30T16:37:00Z</time>
      </trkpt>
      <trkpt lat="-12.1196800" lon="-76.6390980">
        <ele>1544.2</ele>
        <time>2021-05-30T16:37:01Z</time>
      </trkpt>
      <trkpt lat="-12.1196910" lon="-76.6390890">
        <ele>1544.3</ele>
        <time>2021-05-30T16:37:02Z</time>
      </trkpt>
      <trkpt lat="-12.1196970" lon="-76.6390760">
        <ele>1544.3</ele>
        <time>2021-05-30T16:37:04Z</time>
      </trkpt>
      <trkpt lat="-12.1197070" lon="-76.6390610">
        <ele>1544.4</ele>
        <time>2021-05-30T16:37:05Z</time>
      </trkpt>
      <trkpt lat="-12.1197170" lon="-76.6390460">
        <ele>1544.4</ele>
        <time>2021-05-30T16:37:07Z</time>
      </trkpt>
      <trkpt lat="-12.1197140" lon="-76.6390380">
        <ele>1544.5</ele>
        <time>2021-05-30T16:37:09Z</time>
      </trkpt>
      <trkpt lat="-12.1197120" lon="-76.6390350">
        <ele>1544.5</ele>
        <time>2021-05-30T16:37:10Z</time>
      </trkpt>
      <trkpt lat="-12.1197100" lon="-76.6390330">
        <ele>1544.5</ele>
        <time>2021-05-30T16:37:11Z</time>
      </trkpt>
      <trkpt lat="-12.1197070" lon="-76.6390300">
        <ele>1544.5</ele>
        <time>2021-05-30T16:37:13Z</time>
      </trkpt>
      <trkpt lat="-12.1197040" lon="-76.6390290">
        <ele>1544.5</ele>
        <time>2021-05-30T16:37:14Z</time>
      </trkpt>
      <trkpt lat="-12.1196980" lon="-76.6390260">
        <ele>1544.5</ele>
        <time>2021-05-30T16:37:16Z</time>
      </trkpt>
      <trkpt lat="-12.1196950" lon="-76.6390240">
        <ele>1544.6</ele>
        <time>2021-05-30T16:37:17Z</time>
      </trkpt>
      <trkpt lat="-12.1197520" lon="-76.6389750">
        <ele>1544.8</ele>
        <time>2021-05-30T16:37:42Z</time>
      </trkpt>
      <trkpt lat="-12.1197740" lon="-76.6389560">
        <ele>1544.8</ele>
        <time>2021-05-30T16:37:43Z</time>
      </trkpt>
      <trkpt lat="-12.1197940" lon="-76.6389400">
        <ele>1544.9</ele>
        <time>2021-05-30T16:37:45Z</time>
      </trkpt>
      <trkpt lat="-12.1198330" lon="-76.6389130">
        <ele>1544.9</ele>
        <time>2021-05-30T16:37:47Z</time>
      </trkpt>
      <trkpt lat="-12.1198670" lon="-76.6388970">
        <ele>1544.9</ele>
        <time>2021-05-30T16:37:48Z</time>
      </trkpt>
      <trkpt lat="-12.1199160" lon="-76.6388780">
        <ele>1544.9</ele>
        <time>2021-05-30T16:37:49Z</time>
      </trkpt>
      <trkpt lat="-12.1199550" lon="-76.6388710">
        <ele>1544.9</ele>
        <time>2021-05-30T16:37:51Z</time>
      </trkpt>
      <trkpt lat="-12.1199900" lon="-76.6388680">
        <ele>1544.8</ele>
        <time>2021-05-30T16:37:52Z</time>
      </trkpt>
      <trkpt lat="-12.1200480" lon="-76.6388710">
        <ele>1544.7</ele>
        <time>2021-05-30T16:37:53Z</time>
      </trkpt>
      <trkpt lat="-12.1201010" lon="-76.6388840">
        <ele>1544.5</ele>
        <time>2021-05-30T16:37:55Z</time>
      </trkpt>
      <trkpt lat="-12.1201440" lon="-76.6389000">
        <ele>1544.4</ele>
        <time>2021-05-30T16:37:56Z</time>
      </trkpt>
      <trkpt lat="-12.1202250" lon="-76.6389350">
        <ele>1544.1</ele>
        <time>2021-05-30T16:37:57Z</time>
      </trkpt>
      <trkpt lat="-12.1202750" lon="-76.6389620">
        <ele>1543.8</ele>
        <time>2021-05-30T16:37:59Z</time>
      </trkpt>
      <trkpt lat="-12.1202980" lon="-76.6389870">
        <ele>1543.6</ele>
        <time>2021-05-30T16:38:00Z</time>
      </trkpt>
      <trkpt lat="-12.1203210" lon="-76.6390160">
        <ele>1543.4</ele>
        <time>2021-05-30T16:38:01Z</time>
      </trkpt>
      <trkpt lat="-12.1203530" lon="-76.6390440">
        <ele>1543.1</ele>
        <time>2021-05-30T16:38:03Z</time>
      </trkpt>
      <trkpt lat="-12.1203700" lon="-76.6390670">
        <ele>1542.9</ele>
        <time>2021-05-30T16:38:04Z</time>
      </trkpt>
      <trkpt lat="-12.1203830" lon="-76.6391000">
        <ele>1542.6</ele>
        <time>2021-05-30T16:38:05Z</time>
      </trkpt>
      <trkpt lat="-12.1203900" lon="-76.6391270">
        <ele>1542.3</ele>
        <time>2021-05-30T16:38:06Z</time>
      </trkpt>
      <trkpt lat="-12.1203870" lon="-76.6391770">
        <ele>1541.8</ele>
        <time>2021-05-30T16:38:08Z</time>
      </trkpt>
      <trkpt lat="-12.1203830" lon="-76.6392210">
        <ele>1541.3</ele>
        <time>2021-05-30T16:38:09Z</time>
      </trkpt>
      <trkpt lat="-12.1203690" lon="-76.6392960">
        <ele>1540.4</ele>
        <time>2021-05-30T16:38:10Z</time>
      </trkpt>
      <trkpt lat="-12.1203580" lon="-76.6393510">
        <ele>1539.7</ele>
        <time>2021-05-30T16:38:12Z</time>
      </trkpt>
      <trkpt lat="-12.1203380" lon="-76.6394140">
        <ele>1538.8</ele>
        <time>2021-05-30T16:38:13Z</time>
      </trkpt>
      <trkpt lat="-12.1203180" lon="-76.6394650">
        <ele>1538.1</ele>
        <time>2021-05-30T16:38:14Z</time>
      </trkpt>
      <trkpt lat="-12.1203020" lon="-76.6395040">
        <ele>1537.6</ele>
        <time>2021-05-30T16:38:15Z</time>
      </trkpt>
      <trkpt lat="-12.1202790" lon="-76.6395510">
        <ele>1537.0</ele>
        <time>2021-05-30T16:38:16Z</time>
      </trkpt>
      <trkpt lat="-12.1202580" lon="-76.6395950">
        <ele>1536.3</ele>
        <time>2021-05-30T16:38:18Z</time>
      </trkpt>
      <trkpt lat="-12.1202270" lon="-76.6396450">
        <ele>1535.5</ele>
        <time>2021-05-30T16:38:19Z</time>
      </trkpt>
      <trkpt lat="-12.1201930" lon="-76.6397060">
        <ele>1534.6</ele>
        <time>2021-05-30T16:38:20Z</time>
      </trkpt>
      <trkpt lat="-12.1201670" lon="-76.6397590">
        <ele>1533.8</ele>
        <time>2021-05-30T16:38:21Z</time>
      </trkpt>
      <trkpt lat="-12.1201020" lon="-76.6398700">
        <ele>1532.2</ele>
        <time>2021-05-30T16:38:23Z</time>
      </trkpt>
      <trkpt lat="-12.1200580" lon="-76.6399210">
        <ele>1531.4</ele>
        <time>2021-05-30T16:38:24Z</time>
      </trkpt>
      <trkpt lat="-12.1200150" lon="-76.6399750">
        <ele>1530.6</ele>
        <time>2021-05-30T16:38:25Z</time>
      </trkpt>
      <trkpt lat="-12.1199480" lon="-76.6400720">
        <ele>1529.3</ele>
        <time>2021-05-30T16:38:27Z</time>
      </trkpt>
      <trkpt lat="-12.1199160" lon="-76.6401260">
        <ele>1528.6</ele>
        <time>2021-05-30T16:38:28Z</time>
      </trkpt>
      <trkpt lat="-12.1198820" lon="-76.6401830">
        <ele>1527.8</ele>
        <time>2021-05-30T16:38:29Z</time>
      </trkpt>
      <trkpt lat="-12.1198230" lon="-76.6402850">
        <ele>1526.1</ele>
        <time>2021-05-30T16:38:31Z</time>
      </trkpt>
      <trkpt lat="-12.1197930" lon="-76.6403300">
        <ele>1525.3</ele>
        <time>2021-05-30T16:38:32Z</time>
      </trkpt>
      <trkpt lat="-12.1197350" lon="-76.6404140">
        <ele>1523.8</ele>
        <time>2021-05-30T16:38:34Z</time>
      </trkpt>
      <trkpt lat="-12.1197100" lon="-76.6404620">
        <ele>1523.0</ele>
        <time>2021-05-30T16:38:35Z</time>
      </trkpt>
      <trkpt lat="-12.1196850" lon="-76.6405080">
        <ele>1522.2</ele>
        <time>2021-05-30T16:38:36Z</time>
      </trkpt>
      <trkpt lat="-12.1196370" lon="-76.6405970">
        <ele>1520.8</ele>
        <time>2021-05-30T16:38:38Z</time>
      </trkpt>
      <trkpt lat="-12.1195770" lon="-76.6406880">
        <ele>1519.4</ele>
        <time>2021-05-30T16:38:40Z</time>
      </trkpt>
      <trkpt lat="-12.1195350" lon="-76.6407820">
        <ele>1518.3</ele>
        <time>2021-05-30T16:38:42Z</time>
      </trkpt>
      <trkpt lat="-12.1195130" lon="-76.6408310">
        <ele>1517.7</ele>
        <time>2021-05-30T16:38:43Z</time>
      </trkpt>
      <trkpt lat="-12.1194850" lon="-76.6409260">
        <ele>1516.8</ele>
        <time>2021-05-30T16:38:45Z</time>
      </trkpt>
      <trkpt lat="-12.1194820" lon="-76.6409650">
        <ele>1516.4</ele>
        <time>2021-05-30T16:38:46Z</time>
      </trkpt>
      <trkpt lat="-12.1194790" lon="-76.6410040">
        <ele>1516.0</ele>
        <time>2021-05-30T16:38:47Z</time>
      </trkpt>
      <trkpt lat="-12.1194590" lon="-76.6410890">
        <ele>1515.2</ele>
        <time>2021-05-30T16:38:49Z</time>
      </trkpt>
      <trkpt lat="-12.1194390" lon="-76.6411890">
        <ele>1514.1</ele>
        <time>2021-05-30T16:38:51Z</time>
      </trkpt>
      <trkpt lat="-12.1194070" lon="-76.6412970">
        <ele>1513.1</ele>
        <time>2021-05-30T16:38:53Z</time>
      </trkpt>
      <trkpt lat="-12.1194010" lon="-76.6413560">
        <ele>1512.5</ele>
        <time>2021-05-30T16:38:54Z</time>
      </trkpt>
      <trkpt lat="-12.1193880" lon="-76.6414590">
        <ele>1511.5</ele>
        <time>2021-05-30T16:38:56Z</time>
      </trkpt>
      <trkpt lat="-12.1193660" lon="-76.6414960">
        <ele>1511.0</ele>
        <time>2021-05-30T16:38:57Z</time>
      </trkpt>
      <trkpt lat="-12.1193440" lon="-76.6415590">
        <ele>1510.3</ele>
        <time>2021-05-30T16:38:59Z</time>
      </trkpt>
      <trkpt lat="-12.1193320" lon="-76.6416060">
        <ele>1509.8</ele>
        <time>2021-05-30T16:39:00Z</time>
      </trkpt>
      <trkpt lat="-12.1193240" lon="-76.6416420">
        <ele>1509.3</ele>
        <time>2021-05-30T16:39:01Z</time>
      </trkpt>
      <trkpt lat="-12.1193150" lon="-76.6417080">
        <ele>1508.6</ele>
        <time>2021-05-30T16:39:03Z</time>
      </trkpt>
      <trkpt lat="-12.1193220" lon="-76.6417570">
        <ele>1508.0</ele>
        <time>2021-05-30T16:39:04Z</time>
      </trkpt>
      <trkpt lat="-12.1193380" lon="-76.6418120">
        <ele>1507.3</ele>
        <time>2021-05-30T16:39:06Z</time>
      </trkpt>
      <trkpt lat="-12.1193500" lon="-76.6418580">
        <ele>1506.8</ele>
        <time>2021-05-30T16:39:07Z</time>
      </trkpt>
      <trkpt lat="-12.1193590" lon="-76.6419110">
        <ele>1506.3</ele>
        <time>2021-05-30T16:39:08Z</time>
      </trkpt>
      <trkpt lat="-12.1193680" lon="-76.6419580">
        <ele>1505.8</ele>
        <time>2021-05-30T16:39:09Z</time>
      </trkpt>
      <trkpt lat="-12.1193740" lon="-76.6419980">
        <ele>1505.3</ele>
        <time>2021-05-30T16:39:10Z</time>
      </trkpt>
      <trkpt lat="-12.1193840" lon="-76.6420550">
        <ele>1504.7</ele>
        <time>2021-05-30T16:39:12Z</time>
      </trkpt>
      <trkpt lat="-12.1193900" lon="-76.6420960">
        <ele>1504.3</ele>
        <time>2021-05-30T16:39:13Z</time>
      </trkpt>
      <trkpt lat="-12.1193960" lon="-76.6421330">
        <ele>1503.9</ele>
        <time>2021-05-30T16:39:14Z</time>
      </trkpt>
      <trkpt lat="-12.1193980" lon="-76.6421630">
        <ele>1503.6</ele>
        <time>2021-05-30T16:39:15Z</time>
      </trkpt>
      <trkpt lat="-12.1194030" lon="-76.6422050">
        <ele>1503.1</ele>
        <time>2021-05-30T16:39:16Z</time>
      </trkpt>
      <trkpt lat="-12.1194090" lon="-76.6422430">
        <ele>1502.7</ele>
        <time>2021-05-30T16:39:18Z</time>
      </trkpt>
      <trkpt lat="-12.1194170" lon="-76.6422700">
        <ele>1502.4</ele>
        <time>2021-05-30T16:39:19Z</time>
      </trkpt>
      <trkpt lat="-12.1194320" lon="-76.6423240">
        <ele>1501.9</ele>
        <time>2021-05-30T16:39:20Z</time>
      </trkpt>
      <trkpt lat="-12.1194560" lon="-76.6424170">
        <ele>1500.9</ele>
        <time>2021-05-30T16:39:22Z</time>
      </trkpt>
      <trkpt lat="-12.1194650" lon="-76.6424850">
        <ele>1500.2</ele>
        <time>2021-05-30T16:39:23Z</time>
      </trkpt>
      <trkpt lat="-12.1194810" lon="-76.6426180">
        <ele>1498.7</ele>
        <time>2021-05-30T16:39:25Z</time>
      </trkpt>
      <trkpt lat="-12.1194870" lon="-76.6426880">
        <ele>1497.9</ele>
        <time>2021-05-30T16:39:26Z</time>
      </trkpt>
      <trkpt lat="-12.1195090" lon="-76.6428090">
        <ele>1496.6</ele>
        <time>2021-05-30T16:39:28Z</time>
      </trkpt>
      <trkpt lat="-12.1195280" lon="-76.6429380">
        <ele>1495.2</ele>
        <time>2021-05-30T16:39:30Z</time>
      </trkpt>
      <trkpt lat="-12.1195390" lon="-76.6429990">
        <ele>1494.5</ele>
        <time>2021-05-30T16:39:31Z</time>
      </trkpt>
      <trkpt lat="-12.1195560" lon="-76.6431050">
        <ele>1493.3</ele>
        <time>2021-05-30T16:39:33Z</time>
      </trkpt>
      <trkpt lat="-12.1195750" lon="-76.6432020">
        <ele>1492.2</ele>
        <time>2021-05-30T16:39:35Z</time>
      </trkpt>
      <trkpt lat="-12.1195730" lon="-76.6433160">
        <ele>1491.2</ele>
        <time>2021-05-30T16:39:37Z</time>
      </trkpt>
      <trkpt lat="-12.1195720" lon="-76.6434250">
        <ele>1489.9</ele>
        <time>2021-05-30T16:39:39Z</time>
      </trkpt>
      <trkpt lat="-12.1195630" lon="-76.6435040">
        <ele>1489.0</ele>
        <time>2021-05-30T16:39:41Z</time>
      </trkpt>
      <trkpt lat="-12.1195650" lon="-76.6435830">
        <ele>1488.1</ele>
        <time>2021-05-30T16:39:43Z</time>
      </trkpt>
      <trkpt lat="-12.1195700" lon="-76.6436250">
        <ele>1487.7</ele>
        <time>2021-05-30T16:39:44Z</time>
      </trkpt>
      <trkpt lat="-12.1195720" lon="-76.6436680">
        <ele>1487.2</ele>
        <time>2021-05-30T16:39:45Z</time>
      </trkpt>
      <trkpt lat="-12.1195540" lon="-76.6436900">
        <ele>1486.8</ele>
        <time>2021-05-30T16:39:46Z</time>
      </trkpt>
      <trkpt lat="-12.1195230" lon="-76.6436770">
        <ele>1486.5</ele>
        <time>2021-05-30T16:39:47Z</time>
      </trkpt>
      <trkpt lat="-12.1194960" lon="-76.6437020">
        <ele>1486.0</ele>
        <time>2021-05-30T16:39:48Z</time>
      </trkpt>
      <trkpt lat="-12.1194900" lon="-76.6437200">
        <ele>1485.8</ele>
        <time>2021-05-30T16:39:49Z</time>
      </trkpt>
      <trkpt lat="-12.1194990" lon="-76.6437830">
        <ele>1485.1</ele>
        <time>2021-05-30T16:39:51Z</time>
      </trkpt>
      <trkpt lat="-12.1195060" lon="-76.6438460">
        <ele>1484.4</ele>
        <time>2021-05-30T16:39:52Z</time>
      </trkpt>
      <trkpt lat="-12.1195150" lon="-76.6438970">
        <ele>1483.8</ele>
        <time>2021-05-30T16:39:53Z</time>
      </trkpt>
      <trkpt lat="-12.1195240" lon="-76.6439490">
        <ele>1483.2</ele>
        <time>2021-05-30T16:39:55Z</time>
      </trkpt>
      <trkpt lat="-12.1195380" lon="-76.6440020">
        <ele>1482.6</ele>
        <time>2021-05-30T16:39:56Z</time>
      </trkpt>
      <trkpt lat="-12.1195560" lon="-76.6440770">
        <ele>1481.7</ele>
        <time>2021-05-30T16:39:57Z</time>
      </trkpt>
      <trkpt lat="-12.1195670" lon="-76.6441440">
        <ele>1480.9</ele>
        <time>2021-05-30T16:39:59Z</time>
      </trkpt>
      <trkpt lat="-12.1195770" lon="-76.6441880">
        <ele>1480.4</ele>
        <time>2021-05-30T16:40:00Z</time>
      </trkpt>
      <trkpt lat="-12.1195870" lon="-76.6442430">
        <ele>1479.8</ele>
        <time>2021-05-30T16:40:01Z</time>
      </trkpt>
      <trkpt lat="-12.1195960" lon="-76.6443050">
        <ele>1479.1</ele>
        <time>2021-05-30T16:40:02Z</time>
      </trkpt>
      <trkpt lat="-12.1196210" lon="-76.6444270">
        <ele>1477.7</ele>
        <time>2021-05-30T16:40:04Z</time>
      </trkpt>
      <trkpt lat="-12.1196380" lon="-76.6445000">
        <ele>1476.8</ele>
        <time>2021-05-30T16:40:05Z</time>
      </trkpt>
      <trkpt lat="-12.1196530" lon="-76.6445670">
        <ele>1476.1</ele>
        <time>2021-05-30T16:40:06Z</time>
      </trkpt>
      <trkpt lat="-12.1196600" lon="-76.6446260">
        <ele>1475.4</ele>
        <time>2021-05-30T16:40:07Z</time>
      </trkpt>
      <trkpt lat="-12.1196770" lon="-76.6447470">
        <ele>1474.0</ele>
        <time>2021-05-30T16:40:09Z</time>
      </trkpt>
      <trkpt lat="-12.1196940" lon="-76.6448060">
        <ele>1473.3</ele>
        <time>2021-05-30T16:40:10Z</time>
      </trkpt>
      <trkpt lat="-12.1197290" lon="-76.6449290">
        <ele>1471.9</ele>
        <time>2021-05-30T16:40:12Z</time>
      </trkpt>
      <trkpt lat="-12.1197420" lon="-76.6449900">
        <ele>1471.2</ele>
        <time>2021-05-30T16:40:13Z</time>
      </trkpt>
      <trkpt lat="-12.1197620" lon="-76.6451140">
        <ele>1469.7</ele>
        <time>2021-05-30T16:40:15Z</time>
      </trkpt>
      <trkpt lat="-12.1197920" lon="-76.6452330">
        <ele>1468.4</ele>
        <time>2021-05-30T16:40:17Z</time>
      </trkpt>
      <trkpt lat="-12.1198200" lon="-76.6453520">
        <ele>1467.0</ele>
        <time>2021-05-30T16:40:19Z</time>
      </trkpt>
      <trkpt lat="-12.1198320" lon="-76.6454790">
        <ele>1465.5</ele>
        <time>2021-05-30T16:40:21Z</time>
      </trkpt>
      <trkpt lat="-12.1198410" lon="-76.6455320">
        <ele>1464.9</ele>
        <time>2021-05-30T16:40:22Z</time>
      </trkpt>
      <trkpt lat="-12.1198650" lon="-76.6456450">
        <ele>1463.6</ele>
        <time>2021-05-30T16:40:24Z</time>
      </trkpt>
      <trkpt lat="-12.1198770" lon="-76.6457070">
        <ele>1462.9</ele>
        <time>2021-05-30T16:40:25Z</time>
      </trkpt>
      <trkpt lat="-12.1199000" lon="-76.6458420">
        <ele>1461.4</ele>
        <time>2021-05-30T16:40:27Z</time>
      </trkpt>
      <trkpt lat="-12.1199170" lon="-76.6459050">
        <ele>1460.6</ele>
        <time>2021-05-30T16:40:28Z</time>
      </trkpt>
      <trkpt lat="-12.1199350" lon="-76.6459610">
        <ele>1460.0</ele>
        <time>2021-05-30T16:40:29Z</time>
      </trkpt>
      <trkpt lat="-12.1199680" lon="-76.6460800">
        <ele>1458.6</ele>
        <time>2021-05-30T16:40:31Z</time>
      </trkpt>
      <trkpt lat="-12.1199830" lon="-76.6461480">
        <ele>1457.8</ele>
        <time>2021-05-30T16:40:32Z</time>
      </trkpt>
      <trkpt lat="-12.1200010" lon="-76.6462110">
        <ele>1457.0</ele>
        <time>2021-05-30T16:40:33Z</time>
      </trkpt>
      <trkpt lat="-12.1200220" lon="-76.6462790">
        <ele>1456.2</ele>
        <time>2021-05-30T16:40:34Z</time>
      </trkpt>
      <trkpt lat="-12.1200600" lon="-76.6464150">
        <ele>1454.6</ele>
        <time>2021-05-30T16:40:36Z</time>
      </trkpt>
      <trkpt lat="-12.1200850" lon="-76.6464710">
        <ele>1453.9</ele>
        <time>2021-05-30T16:40:37Z</time>
      </trkpt>
      <trkpt lat="-12.1201280" lon="-76.6465810">
        <ele>1452.6</ele>
        <time>2021-05-30T16:40:39Z</time>
      </trkpt>
      <trkpt lat="-12.1201820" lon="-76.6466800">
        <ele>1451.3</ele>
        <time>2021-05-30T16:40:41Z</time>
      </trkpt>
      <trkpt lat="-12.1202030" lon="-76.6467280">
        <ele>1450.7</ele>
        <time>2021-05-30T16:40:42Z</time>
      </trkpt>
      <trkpt lat="-12.1202370" lon="-76.6468340">
        <ele>1449.5</ele>
        <time>2021-05-30T16:40:44Z</time>
      </trkpt>
      <trkpt lat="-12.1202750" lon="-76.6469270">
        <ele>1448.3</ele>
        <time>2021-05-30T16:40:46Z</time>
      </trkpt>
      <trkpt lat="-12.1203100" lon="-76.6470210">
        <ele>1447.2</ele>
        <time>2021-05-30T16:40:48Z</time>
      </trkpt>
      <trkpt lat="-12.1203260" lon="-76.6470690">
        <ele>1446.6</ele>
        <time>2021-05-30T16:40:49Z</time>
      </trkpt>
      <trkpt lat="-12.1203580" lon="-76.6471540">
        <ele>1445.6</ele>
        <time>2021-05-30T16:40:51Z</time>
      </trkpt>
      <trkpt lat="-12.1203760" lon="-76.6472460">
        <ele>1444.5</ele>
        <time>2021-05-30T16:40:53Z</time>
      </trkpt>
      <trkpt lat="-12.1204170" lon="-76.6473510">
        <ele>1443.2</ele>
        <time>2021-05-30T16:40:55Z</time>
      </trkpt>
      <trkpt lat="-12.1204440" lon="-76.6474060">
        <ele>1442.5</ele>
        <time>2021-05-30T16:40:56Z</time>
      </trkpt>
      <trkpt lat="-12.1205000" lon="-76.6475100">
        <ele>1441.2</ele>
        <time>2021-05-30T16:40:58Z</time>
      </trkpt>
      <trkpt lat="-12.1205200" lon="-76.6475620">
        <ele>1440.6</ele>
        <time>2021-05-30T16:40:59Z</time>
      </trkpt>
      <trkpt lat="-12.1205630" lon="-76.6476670">
        <ele>1439.3</ele>
        <time>2021-05-30T16:41:01Z</time>
      </trkpt>
      <trkpt lat="-12.1205960" lon="-76.6477630">
        <ele>1438.1</ele>
        <time>2021-05-30T16:41:03Z</time>
      </trkpt>
      <trkpt lat="-12.1206090" lon="-76.6478140">
        <ele>1437.5</ele>
        <time>2021-05-30T16:41:04Z</time>
      </trkpt>
      <trkpt lat="-12.1206260" lon="-76.6479320">
        <ele>1436.2</ele>
        <time>2021-05-30T16:41:06Z</time>
      </trkpt>
      <trkpt lat="-12.1206260" lon="-76.6480560">
        <ele>1434.8</ele>
        <time>2021-05-30T16:41:08Z</time>
      </trkpt>
      <trkpt lat="-12.1206350" lon="-76.6481900">
        <ele>1433.3</ele>
        <time>2021-05-30T16:41:10Z</time>
      </trkpt>
      <trkpt lat="-12.1206500" lon="-76.6483360">
        <ele>1431.6</ele>
        <time>2021-05-30T16:41:12Z</time>
      </trkpt>
      <trkpt lat="-12.1206690" lon="-76.6484840">
        <ele>1429.9</ele>
        <time>2021-05-30T16:41:14Z</time>
      </trkpt>
      <trkpt lat="-12.1206820" lon="-76.6485500">
        <ele>1429.2</ele>
        <time>2021-05-30T16:41:15Z</time>
      </trkpt>
      <trkpt lat="-12.1206960" lon="-76.6486120">
        <ele>1428.5</ele>
        <time>2021-05-30T16:41:16Z</time>
      </trkpt>
      <trkpt lat="-12.1207210" lon="-76.6487250">
        <ele>1427.1</ele>
        <time>2021-05-30T16:41:18Z</time>
      </trkpt>
      <trkpt lat="-12.1207350" lon="-76.6488340">
        <ele>1425.9</ele>
        <time>2021-05-30T16:41:20Z</time>
      </trkpt>
      <trkpt lat="-12.1207360" lon="-76.6489420">
        <ele>1424.7</ele>
        <time>2021-05-30T16:41:22Z</time>
      </trkpt>
      <trkpt lat="-12.1207340" lon="-76.6489890">
        <ele>1424.2</ele>
        <time>2021-05-30T16:41:23Z</time>
      </trkpt>
      <trkpt lat="-12.1207270" lon="-76.6490230">
        <ele>1423.8</ele>
        <time>2021-05-30T16:41:24Z</time>
      </trkpt>
      <trkpt lat="-12.1207200" lon="-76.6490690">
        <ele>1423.2</ele>
        <time>2021-05-30T16:41:25Z</time>
      </trkpt>
      <trkpt lat="-12.1207070" lon="-76.6491770">
        <ele>1422.0</ele>
        <time>2021-05-30T16:41:27Z</time>
      </trkpt>
      <trkpt lat="-12.1206990" lon="-76.6493020">
        <ele>1420.6</ele>
        <time>2021-05-30T16:41:29Z</time>
      </trkpt>
      <trkpt lat="-12.1206960" lon="-76.6493750">
        <ele>1419.8</ele>
        <time>2021-05-30T16:41:30Z</time>
      </trkpt>
      <trkpt lat="-12.1206890" lon="-76.6494470">
        <ele>1419.0</ele>
        <time>2021-05-30T16:41:31Z</time>
      </trkpt>
      <trkpt lat="-12.1206840" lon="-76.6495750">
        <ele>1417.5</ele>
        <time>2021-05-30T16:41:33Z</time>
      </trkpt>
      <trkpt lat="-12.1206860" lon="-76.6497240">
        <ele>1415.8</ele>
        <time>2021-05-30T16:41:35Z</time>
      </trkpt>
      <trkpt lat="-12.1206910" lon="-76.6498130">
        <ele>1414.8</ele>
        <time>2021-05-30T16:41:36Z</time>
      </trkpt>
      <trkpt lat="-12.1206920" lon="-76.6499050">
        <ele>1413.8</ele>
        <time>2021-05-30T16:41:37Z</time>
      </trkpt>
      <trkpt lat="-12.1207010" lon="-76.6500870">
        <ele>1411.7</ele>
        <time>2021-05-30T16:41:39Z</time>
      </trkpt>
      <trkpt lat="-12.1206840" lon="-76.6502480">
        <ele>1409.9</ele>
        <time>2021-05-30T16:41:41Z</time>
      </trkpt>
      <trkpt lat="-12.1206800" lon="-76.6503290">
        <ele>1409.0</ele>
        <time>2021-05-30T16:41:42Z</time>
      </trkpt>
      <trkpt lat="-12.1206760" lon="-76.6504070">
        <ele>1408.1</ele>
        <time>2021-05-30T16:41:43Z</time>
      </trkpt>
      <trkpt lat="-12.1206730" lon="-76.6504840">
        <ele>1407.2</ele>
        <time>2021-05-30T16:41:44Z</time>
      </trkpt>
      <trkpt lat="-12.1206630" lon="-76.6506310">
        <ele>1405.6</ele>
        <time>2021-05-30T16:41:46Z</time>
      </trkpt>
      <trkpt lat="-12.1206670" lon="-76.6507560">
        <ele>1404.1</ele>
        <time>2021-05-30T16:41:48Z</time>
      </trkpt>
      <trkpt lat="-12.1206730" lon="-76.6508080">
        <ele>1403.6</ele>
        <time>2021-05-30T16:41:49Z</time>
      </trkpt>
      <trkpt lat="-12.1206820" lon="-76.6509100">
        <ele>1402.4</ele>
        <time>2021-05-30T16:41:51Z</time>
      </trkpt>
      <trkpt lat="-12.1206680" lon="-76.6510210">
        <ele>1401.1</ele>
        <time>2021-05-30T16:41:53Z</time>
      </trkpt>
      <trkpt lat="-12.1206270" lon="-76.6511300">
        <ele>1399.8</ele>
        <time>2021-05-30T16:41:55Z</time>
      </trkpt>
      <trkpt lat="-12.1206090" lon="-76.6511910">
        <ele>1399.1</ele>
        <time>2021-05-30T16:41:56Z</time>
      </trkpt>
      <trkpt lat="-12.1205950" lon="-76.6512540">
        <ele>1398.4</ele>
        <time>2021-05-30T16:41:57Z</time>
      </trkpt>
      <trkpt lat="-12.1205830" lon="-76.6513180">
        <ele>1397.6</ele>
        <time>2021-05-30T16:41:58Z</time>
      </trkpt>
      <trkpt lat="-12.1205600" lon="-76.6514350">
        <ele>1396.3</ele>
        <time>2021-05-30T16:42:00Z</time>
      </trkpt>
      <trkpt lat="-12.1205390" lon="-76.6514920">
        <ele>1395.6</ele>
        <time>2021-05-30T16:42:01Z</time>
      </trkpt>
      <trkpt lat="-12.1205150" lon="-76.6515500">
        <ele>1394.9</ele>
        <time>2021-05-30T16:42:02Z</time>
      </trkpt>
      <trkpt lat="-12.1204930" lon="-76.6516140">
        <ele>1394.1</ele>
        <time>2021-05-30T16:42:03Z</time>
      </trkpt>
      <trkpt lat="-12.1204750" lon="-76.6516800">
        <ele>1393.3</ele>
        <time>2021-05-30T16:42:04Z</time>
      </trkpt>
      <trkpt lat="-12.1204450" lon="-76.6518110">
        <ele>1391.8</ele>
        <time>2021-05-30T16:42:06Z</time>
      </trkpt>
      <trkpt lat="-12.1204330" lon="-76.6518760">
        <ele>1391.1</ele>
        <time>2021-05-30T16:42:07Z</time>
      </trkpt>
      <trkpt lat="-12.1204210" lon="-76.6519420">
        <ele>1390.3</ele>
        <time>2021-05-30T16:42:08Z</time>
      </trkpt>
      <trkpt lat="-12.1203850" lon="-76.6520580">
        <ele>1389.0</ele>
        <time>2021-05-30T16:42:10Z</time>
      </trkpt>
      <trkpt lat="-12.1203620" lon="-76.6521080">
        <ele>1388.7</ele>
        <time>2021-05-30T16:42:11Z</time>
      </trkpt>
      <trkpt lat="-12.1203420" lon="-76.6521550">
        <ele>1388.4</ele>
        <time>2021-05-30T16:42:12Z</time>
      </trkpt>
      <trkpt lat="-12.1203240" lon="-76.6522050">
        <ele>1388.0</ele>
        <time>2021-05-30T16:42:13Z</time>
      </trkpt>
      <trkpt lat="-12.1203120" lon="-76.6522540">
        <ele>1387.5</ele>
        <time>2021-05-30T16:42:14Z</time>
      </trkpt>
      <trkpt lat="-12.1202990" lon="-76.6523480">
        <ele>1386.5</ele>
        <time>2021-05-30T16:42:16Z</time>
      </trkpt>
      <trkpt lat="-12.1203030" lon="-76.6523950">
        <ele>1386.0</ele>
        <time>2021-05-30T16:42:17Z</time>
      </trkpt>
      <trkpt lat="-12.1203090" lon="-76.6524960">
        <ele>1385.1</ele>
        <time>2021-05-30T16:42:19Z</time>
      </trkpt>
      <trkpt lat="-12.1203080" lon="-76.6525530">
        <ele>1384.7</ele>
        <time>2021-05-30T16:42:20Z</time>
      </trkpt>
      <trkpt lat="-12.1203030" lon="-76.6526740">
        <ele>1383.9</ele>
        <time>2021-05-30T16:42:22Z</time>
      </trkpt>
      <trkpt lat="-12.1202990" lon="-76.6527380">
        <ele>1383.6</ele>
        <time>2021-05-30T16:42:23Z</time>
      </trkpt>
      <trkpt lat="-12.1202880" lon="-76.6528550">
        <ele>1382.8</ele>
        <time>2021-05-30T16:42:25Z</time>
      </trkpt>
      <trkpt lat="-12.1202890" lon="-76.6529130">
        <ele>1382.3</ele>
        <time>2021-05-30T16:42:26Z</time>
      </trkpt>
      <trkpt lat="-12.1202960" lon="-76.6529770">
        <ele>1381.8</ele>
        <time>2021-05-30T16:42:27Z</time>
      </trkpt>
      <trkpt lat="-12.1203000" lon="-76.6530440">
        <ele>1381.2</ele>
        <time>2021-05-30T16:42:28Z</time>
      </trkpt>
      <trkpt lat="-12.1202620" lon="-76.6531840">
        <ele>1379.9</ele>
        <time>2021-05-30T16:42:30Z</time>
      </trkpt>
      <trkpt lat="-12.1202080" lon="-76.6533230">
        <ele>1378.5</ele>
        <time>2021-05-30T16:42:32Z</time>
      </trkpt>
      <trkpt lat="-12.1201810" lon="-76.6533970">
        <ele>1377.6</ele>
        <time>2021-05-30T16:42:33Z</time>
      </trkpt>
      <trkpt lat="-12.1201420" lon="-76.6535410">
        <ele>1376.1</ele>
        <time>2021-05-30T16:42:35Z</time>
      </trkpt>
      <trkpt lat="-12.1201220" lon="-76.6536130">
        <ele>1375.4</ele>
        <time>2021-05-30T16:42:36Z</time>
      </trkpt>
      <trkpt lat="-12.1200910" lon="-76.6537540">
        <ele>1374.0</ele>
        <time>2021-05-30T16:42:38Z</time>
      </trkpt>
      <trkpt lat="-12.1200860" lon="-76.6538240">
        <ele>1373.3</ele>
        <time>2021-05-30T16:42:39Z</time>
      </trkpt>
      <trkpt lat="-12.1200750" lon="-76.6539620">
        <ele>1371.4</ele>
        <time>2021-05-30T16:42:41Z</time>
      </trkpt>
      <trkpt lat="-12.1200570" lon="-76.6541030">
        <ele>1369.9</ele>
        <time>2021-05-30T16:42:43Z</time>
      </trkpt>
      <trkpt lat="-12.1200310" lon="-76.6542580">
        <ele>1368.2</ele>
        <time>2021-05-30T16:42:45Z</time>
      </trkpt>
      <trkpt lat="-12.1200090" lon="-76.6543330">
        <ele>1367.2</ele>
        <time>2021-05-30T16:42:46Z</time>
      </trkpt>
      <trkpt lat="-12.1199890" lon="-76.6544040">
        <ele>1366.3</ele>
        <time>2021-05-30T16:42:47Z</time>
      </trkpt>
      <trkpt lat="-12.1199520" lon="-76.6545370">
        <ele>1364.8</ele>
        <time>2021-05-30T16:42:49Z</time>
      </trkpt>
      <trkpt lat="-12.1199410" lon="-76.6546010">
        <ele>1364.4</ele>
        <time>2021-05-30T16:42:50Z</time>
      </trkpt>
      <trkpt lat="-12.1199270" lon="-76.6547260">
        <ele>1363.7</ele>
        <time>2021-05-30T16:42:52Z</time>
      </trkpt>
      <trkpt lat="-12.1199260" lon="-76.6547890">
        <ele>1363.2</ele>
        <time>2021-05-30T16:42:53Z</time>
      </trkpt>
      <trkpt lat="-12.1199250" lon="-76.6548550">
        <ele>1362.8</ele>
        <time>2021-05-30T16:42:54Z</time>
      </trkpt>
      <trkpt lat="-12.1199240" lon="-76.6549220">
        <ele>1362.4</ele>
        <time>2021-05-30T16:42:55Z</time>
      </trkpt>
      <trkpt lat="-12.1199250" lon="-76.6549880">
        <ele>1361.8</ele>
        <time>2021-05-30T16:42:56Z</time>
      </trkpt>
      <trkpt lat="-12.1199270" lon="-76.6551150">
        <ele>1360.5</ele>
        <time>2021-05-30T16:42:58Z</time>
      </trkpt>
      <trkpt lat="-12.1199010" lon="-76.6552300">
        <ele>1359.3</ele>
        <time>2021-05-30T16:43:00Z</time>
      </trkpt>
      <trkpt lat="-12.1198740" lon="-76.6553540">
        <ele>1358.6</ele>
        <time>2021-05-30T16:43:02Z</time>
      </trkpt>
      <trkpt lat="-12.1198370" lon="-76.6554810">
        <ele>1357.6</ele>
        <time>2021-05-30T16:43:04Z</time>
      </trkpt>
      <trkpt lat="-12.1198150" lon="-76.6555390">
        <ele>1356.9</ele>
        <time>2021-05-30T16:43:05Z</time>
      </trkpt>
      <trkpt lat="-12.1197930" lon="-76.6555970">
        <ele>1356.2</ele>
        <time>2021-05-30T16:43:06Z</time>
      </trkpt>
      <trkpt lat="-12.1197250" lon="-76.6557220">
        <ele>1354.6</ele>
        <time>2021-05-30T16:43:08Z</time>
      </trkpt>
      <trkpt lat="-12.1196890" lon="-76.6557870">
        <ele>1354.0</ele>
        <time>2021-05-30T16:43:09Z</time>
      </trkpt>
      <trkpt lat="-12.1196510" lon="-76.6559190">
        <ele>1353.0</ele>
        <time>2021-05-30T16:43:11Z</time>
      </trkpt>
      <trkpt lat="-12.1196350" lon="-76.6559870">
        <ele>1352.5</ele>
        <time>2021-05-30T16:43:12Z</time>
      </trkpt>
      <trkpt lat="-12.1195990" lon="-76.6561350">
        <ele>1351.3</ele>
        <time>2021-05-30T16:43:14Z</time>
      </trkpt>
      <trkpt lat="-12.1195820" lon="-76.6562170">
        <ele>1350.4</ele>
        <time>2021-05-30T16:43:15Z</time>
      </trkpt>
      <trkpt lat="-12.1195450" lon="-76.6563820">
        <ele>1348.4</ele>
        <time>2021-05-30T16:43:17Z</time>
      </trkpt>
      <trkpt lat="-12.1195300" lon="-76.6564640">
        <ele>1347.4</ele>
        <time>2021-05-30T16:43:18Z</time>
      </trkpt>
      <trkpt lat="-12.1195110" lon="-76.6566420">
        <ele>1345.8</ele>
        <time>2021-05-30T16:43:20Z</time>
      </trkpt>
      <trkpt lat="-12.1195290" lon="-76.6568030">
        <ele>1344.5</ele>
        <time>2021-05-30T16:43:22Z</time>
      </trkpt>
      <trkpt lat="-12.1195540" lon="-76.6569700">
        <ele>1342.6</ele>
        <time>2021-05-30T16:43:24Z</time>
      </trkpt>
      <trkpt lat="-12.1195480" lon="-76.6570550">
        <ele>1341.7</ele>
        <time>2021-05-30T16:43:25Z</time>
      </trkpt>
      <trkpt lat="-12.1195150" lon="-76.6572180">
        <ele>1340.4</ele>
        <time>2021-05-30T16:43:27Z</time>
      </trkpt>
      <trkpt lat="-12.1194870" lon="-76.6572960">
        <ele>1339.7</ele>
        <time>2021-05-30T16:43:28Z</time>
      </trkpt>
      <trkpt lat="-12.1194240" lon="-76.6574610">
        <ele>1338.2</ele>
        <time>2021-05-30T16:43:30Z</time>
      </trkpt>
      <trkpt lat="-12.1193940" lon="-76.6575480">
        <ele>1337.4</ele>
        <time>2021-05-30T16:43:31Z</time>
      </trkpt>
      <trkpt lat="-12.1193550" lon="-76.6577120">
        <ele>1335.9</ele>
        <time>2021-05-30T16:43:33Z</time>
      </trkpt>
      <trkpt lat="-12.1193240" lon="-76.6578800">
        <ele>1333.6</ele>
        <time>2021-05-30T16:43:35Z</time>
      </trkpt>
      <trkpt lat="-12.1193130" lon="-76.6579680">
        <ele>1333.0</ele>
        <time>2021-05-30T16:43:36Z</time>
      </trkpt>
      <trkpt lat="-12.1193050" lon="-76.6580540">
        <ele>1332.6</ele>
        <time>2021-05-30T16:43:37Z</time>
      </trkpt>
      <trkpt lat="-12.1192960" lon="-76.6581400">
        <ele>1332.0</ele>
        <time>2021-05-30T16:43:38Z</time>
      </trkpt>
      <trkpt lat="-12.1192610" lon="-76.6583040">
        <ele>1330.4</ele>
        <time>2021-05-30T16:43:40Z</time>
      </trkpt>
      <trkpt lat="-12.1192330" lon="-76.6584670">
        <ele>1328.8</ele>
        <time>2021-05-30T16:43:42Z</time>
      </trkpt>
      <trkpt lat="-12.1192190" lon="-76.6586350">
        <ele>1327.2</ele>
        <time>2021-05-30T16:43:44Z</time>
      </trkpt>
      <trkpt lat="-12.1192110" lon="-76.6587160">
        <ele>1326.5</ele>
        <time>2021-05-30T16:43:45Z</time>
      </trkpt>
      <trkpt lat="-12.1191910" lon="-76.6588690">
        <ele>1325.2</ele>
        <time>2021-05-30T16:43:47Z</time>
      </trkpt>
      <trkpt lat="-12.1191810" lon="-76.6589510">
        <ele>1324.4</ele>
        <time>2021-05-30T16:43:48Z</time>
      </trkpt>
      <trkpt lat="-12.1191780" lon="-76.6590360">
        <ele>1323.6</ele>
        <time>2021-05-30T16:43:49Z</time>
      </trkpt>
      <trkpt lat="-12.1191510" lon="-76.6592020">
        <ele>1322.4</ele>
        <time>2021-05-30T16:43:51Z</time>
      </trkpt>
      <trkpt lat="-12.1191040" lon="-76.6593600">
        <ele>1320.8</ele>
        <time>2021-05-30T16:43:53Z</time>
      </trkpt>
      <trkpt lat="-12.1190760" lon="-76.6594860">
        <ele>1319.0</ele>
        <time>2021-05-30T16:43:55Z</time>
      </trkpt>
      <trkpt lat="-12.1190730" lon="-76.6595450">
        <ele>1318.2</ele>
        <time>2021-05-30T16:43:56Z</time>
      </trkpt>
      <trkpt lat="-12.1190800" lon="-76.6596500">
        <ele>1317.0</ele>
        <time>2021-05-30T16:43:58Z</time>
      </trkpt>
      <trkpt lat="-12.1190770" lon="-76.6597730">
        <ele>1315.9</ele>
        <time>2021-05-30T16:44:00Z</time>
      </trkpt>
      <trkpt lat="-12.1191130" lon="-76.6598950">
        <ele>1315.1</ele>
        <time>2021-05-30T16:44:02Z</time>
      </trkpt>
      <trkpt lat="-12.1191400" lon="-76.6599420">
        <ele>1314.7</ele>
        <time>2021-05-30T16:44:03Z</time>
      </trkpt>
      <trkpt lat="-12.1191690" lon="-76.6599750">
        <ele>1314.3</ele>
        <time>2021-05-30T16:44:04Z</time>
      </trkpt>
      <trkpt lat="-12.1192280" lon="-76.6600050">
        <ele>1313.8</ele>
        <time>2021-05-30T16:44:06Z</time>
      </trkpt>
      <trkpt lat="-12.1192610" lon="-76.6600070">
        <ele>1313.5</ele>
        <time>2021-05-30T16:44:07Z</time>
      </trkpt>
      <trkpt lat="-12.1193270" lon="-76.6600110">
        <ele>1313.0</ele>
        <time>2021-05-30T16:44:09Z</time>
      </trkpt>
      <trkpt lat="-12.1193590" lon="-76.6600090">
        <ele>1312.8</ele>
        <time>2021-05-30T16:44:10Z</time>
      </trkpt>
      <trkpt lat="-12.1193970" lon="-76.6600010">
        <ele>1312.6</ele>
        <time>2021-05-30T16:44:11Z</time>
      </trkpt>
      <trkpt lat="-12.1194410" lon="-76.6600130">
        <ele>1312.4</ele>
        <time>2021-05-30T16:44:12Z</time>
      </trkpt>
      <trkpt lat="-12.1194640" lon="-76.6600090">
        <ele>1312.3</ele>
        <time>2021-05-30T16:44:13Z</time>
      </trkpt>
      <trkpt lat="-12.1195090" lon="-76.6599860">
        <ele>1312.3</ele>
        <time>2021-05-30T16:44:15Z</time>
      </trkpt>
      <trkpt lat="-12.1195430" lon="-76.6599580">
        <ele>1312.3</ele>
        <time>2021-05-30T16:44:16Z</time>
      </trkpt>
      <trkpt lat="-12.1195810" lon="-76.6599130">
        <ele>1312.4</ele>
        <time>2021-05-30T16:44:18Z</time>
      </trkpt>
      <trkpt lat="-12.1196030" lon="-76.6598900">
        <ele>1312.4</ele>
        <time>2021-05-30T16:44:19Z</time>
      </trkpt>
      <trkpt lat="-12.1196220" lon="-76.6598610">
        <ele>1312.5</ele>
        <time>2021-05-30T16:44:20Z</time>
      </trkpt>
      <trkpt lat="-12.1196260" lon="-76.6598520">
        <ele>1312.6</ele>
        <time>2021-05-30T16:44:21Z</time>
      </trkpt>
      <trkpt lat="-12.1196370" lon="-76.6598110">
        <ele>1312.7</ele>
        <time>2021-05-30T16:44:23Z</time>
      </trkpt>
      <trkpt lat="-12.1196340" lon="-76.6597670">
        <ele>1312.9</ele>
        <time>2021-05-30T16:44:25Z</time>
      </trkpt>
      <trkpt lat="-12.1196350" lon="-76.6597270">
        <ele>1313.0</ele>
        <time>2021-05-30T16:44:27Z</time>
      </trkpt>
      <trkpt lat="-12.1196540" lon="-76.6596990">
        <ele>1313.0</ele>
        <time>2021-05-30T16:44:29Z</time>
      </trkpt>
      <trkpt lat="-12.1196620" lon="-76.6596950">
        <ele>1313.0</ele>
        <time>2021-05-30T16:44:30Z</time>
      </trkpt>
      <trkpt lat="-12.1197110" lon="-76.6596920">
        <ele>1313.0</ele>
        <time>2021-05-30T16:44:32Z</time>
      </trkpt>
      <trkpt lat="-12.1197300" lon="-76.6596940">
        <ele>1313.0</ele>
        <time>2021-05-30T16:44:33Z</time>
      </trkpt>
      <trkpt lat="-12.1197810" lon="-76.6597110">
        <ele>1313.1</ele>
        <time>2021-05-30T16:44:35Z</time>
      </trkpt>
      <trkpt lat="-12.1198030" lon="-76.6597310">
        <ele>1313.1</ele>
        <time>2021-05-30T16:44:36Z</time>
      </trkpt>
      <trkpt lat="-12.1198340" lon="-76.6597720">
        <ele>1313.2</ele>
        <time>2021-05-30T16:44:38Z</time>
      </trkpt>
      <trkpt lat="-12.1198450" lon="-76.6598230">
        <ele>1313.3</ele>
        <time>2021-05-30T16:44:40Z</time>
      </trkpt>
      <trkpt lat="-12.1198440" lon="-76.6598530">
        <ele>1313.4</ele>
        <time>2021-05-30T16:44:41Z</time>
      </trkpt>
      <trkpt lat="-12.1198300" lon="-76.6599120">
        <ele>1313.6</ele>
        <time>2021-05-30T16:44:43Z</time>
      </trkpt>
      <trkpt lat="-12.1198100" lon="-76.6599530">
        <ele>1313.8</ele>
        <time>2021-05-30T16:44:45Z</time>
      </trkpt>
      <trkpt lat="-12.1197930" lon="-76.6599830">
        <ele>1314.0</ele>
        <time>2021-05-30T16:44:46Z</time>
      </trkpt>
      <trkpt lat="-12.1197870" lon="-76.6599950">
        <ele>1314.0</ele>
        <time>2021-05-30T16:44:47Z</time>
      </trkpt>
      <trkpt lat="-12.1197760" lon="-76.6600270">
        <ele>1314.2</ele>
        <time>2021-05-30T16:44:48Z</time>
      </trkpt>
      <trkpt lat="-12.1197630" lon="-76.6600620">
        <ele>1314.4</ele>
        <time>2021-05-30T16:44:50Z</time>
      </trkpt>
      <trkpt lat="-12.1197500" lon="-76.6600890">
        <ele>1314.5</ele>
        <time>2021-05-30T16:44:51Z</time>
      </trkpt>
      <trkpt lat="-12.1197380" lon="-76.6601190">
        <ele>1314.6</ele>
        <time>2021-05-30T16:44:52Z</time>
      </trkpt>
      <trkpt lat="-12.1197200" lon="-76.6601520">
        <ele>1314.7</ele>
        <time>2021-05-30T16:44:54Z</time>
      </trkpt>
      <trkpt lat="-12.1197040" lon="-76.6601870">
        <ele>1314.8</ele>
        <time>2021-05-30T16:44:55Z</time>
      </trkpt>
      <trkpt lat="-12.1196990" lon="-76.6601980">
        <ele>1314.8</ele>
        <time>2021-05-30T16:44:56Z</time>
      </trkpt>
      <trkpt lat="-12.1196910" lon="-76.6602150">
        <ele>1314.8</ele>
        <time>2021-05-30T16:44:57Z</time>
      </trkpt>
      <trkpt lat="-12.1196780" lon="-76.6602370">
        <ele>1314.9</ele>
        <time>2021-05-30T16:44:59Z</time>
      </trkpt>
      <trkpt lat="-12.1196580" lon="-76.6602710">
        <ele>1314.8</ele>
        <time>2021-05-30T16:45:00Z</time>
      </trkpt>
      <trkpt lat="-12.1196310" lon="-76.6603120">
        <ele>1314.7</ele>
        <time>2021-05-30T16:45:02Z</time>
      </trkpt>
      <trkpt lat="-12.1196210" lon="-76.6603280">
        <ele>1314.6</ele>
        <time>2021-05-30T16:45:03Z</time>
      </trkpt>
      <trkpt lat="-12.1196100" lon="-76.6603440">
        <ele>1314.5</ele>
        <time>2021-05-30T16:45:04Z</time>
      </trkpt>
      <trkpt lat="-12.1195960" lon="-76.6603750">
        <ele>1314.3</ele>
        <time>2021-05-30T16:45:06Z</time>
      </trkpt>
      <trkpt lat="-12.1195820" lon="-76.6604080">
        <ele>1314.1</ele>
        <time>2021-05-30T16:45:07Z</time>
      </trkpt>
      <trkpt lat="-12.1195640" lon="-76.6604450">
        <ele>1313.8</ele>
        <time>2021-05-30T16:45:09Z</time>
      </trkpt>
      <trkpt lat="-12.1195560" lon="-76.6604600">
        <ele>1313.7</ele>
        <time>2021-05-30T16:45:10Z</time>
      </trkpt>
      <trkpt lat="-12.1195380" lon="-76.6604920">
        <ele>1313.4</ele>
        <time>2021-05-30T16:45:11Z</time>
      </trkpt>
      <trkpt lat="-12.1195160" lon="-76.6605370">
        <ele>1312.9</ele>
        <time>2021-05-30T16:45:13Z</time>
      </trkpt>
      <trkpt lat="-12.1194930" lon="-76.6605910">
        <ele>1312.5</ele>
        <time>2021-05-30T16:45:14Z</time>
      </trkpt>
      <trkpt lat="-12.1194710" lon="-76.6606490">
        <ele>1311.9</ele>
        <time>2021-05-30T16:45:16Z</time>
      </trkpt>
      <trkpt lat="-12.1194580" lon="-76.6606940">
        <ele>1311.5</ele>
        <time>2021-05-30T16:45:17Z</time>
      </trkpt>
      <trkpt lat="-12.1194490" lon="-76.6607520">
        <ele>1311.1</ele>
        <time>2021-05-30T16:45:18Z</time>
      </trkpt>
      <trkpt lat="-12.1194380" lon="-76.6608040">
        <ele>1310.6</ele>
        <time>2021-05-30T16:45:19Z</time>
      </trkpt>
      <trkpt lat="-12.1194270" lon="-76.6608810">
        <ele>1310.0</ele>
        <time>2021-05-30T16:45:21Z</time>
      </trkpt>
      <trkpt lat="-12.1194210" lon="-76.6609280">
        <ele>1309.6</ele>
        <time>2021-05-30T16:45:23Z</time>
      </trkpt>
      <trkpt lat="-12.1194040" lon="-76.6610070">
        <ele>1309.0</ele>
        <time>2021-05-30T16:45:25Z</time>
      </trkpt>
      <trkpt lat="-12.1193860" lon="-76.6610700">
        <ele>1308.5</ele>
        <time>2021-05-30T16:45:27Z</time>
      </trkpt>
      <trkpt lat="-12.1193630" lon="-76.6611200">
        <ele>1308.0</ele>
        <time>2021-05-30T16:45:28Z</time>
      </trkpt>
      <trkpt lat="-12.1193410" lon="-76.6611570">
        <ele>1307.7</ele>
        <time>2021-05-30T16:45:30Z</time>
      </trkpt>
      <trkpt lat="-12.1193220" lon="-76.6611880">
        <ele>1307.3</ele>
        <time>2021-05-30T16:45:31Z</time>
      </trkpt>
      <trkpt lat="-12.1193030" lon="-76.6612210">
        <ele>1307.0</ele>
        <time>2021-05-30T16:45:32Z</time>
      </trkpt>
      <trkpt lat="-12.1192890" lon="-76.6612520">
        <ele>1306.8</ele>
        <time>2021-05-30T16:45:33Z</time>
      </trkpt>
      <trkpt lat="-12.1192740" lon="-76.6612880">
        <ele>1306.5</ele>
        <time>2021-05-30T16:45:34Z</time>
      </trkpt>
      <trkpt lat="-12.1192610" lon="-76.6613270">
        <ele>1306.2</ele>
        <time>2021-05-30T16:45:35Z</time>
      </trkpt>
      <trkpt lat="-12.1192510" lon="-76.6613660">
        <ele>1305.9</ele>
        <time>2021-05-30T16:45:36Z</time>
      </trkpt>
      <trkpt lat="-12.1192470" lon="-76.6614020">
        <ele>1305.7</ele>
        <time>2021-05-30T16:45:37Z</time>
      </trkpt>
      <trkpt lat="-12.1192440" lon="-76.6614310">
        <ele>1305.5</ele>
        <time>2021-05-30T16:45:39Z</time>
      </trkpt>
      <trkpt lat="-12.1192390" lon="-76.6614600">
        <ele>1305.3</ele>
        <time>2021-05-30T16:45:40Z</time>
      </trkpt>
      <trkpt lat="-12.1192230" lon="-76.6615070">
        <ele>1305.0</ele>
        <time>2021-05-30T16:45:41Z</time>
      </trkpt>
      <trkpt lat="-12.1192070" lon="-76.6615470">
        <ele>1304.7</ele>
        <time>2021-05-30T16:45:42Z</time>
      </trkpt>
      <trkpt lat="-12.1191920" lon="-76.6615890">
        <ele>1304.4</ele>
        <time>2021-05-30T16:45:44Z</time>
      </trkpt>
      <trkpt lat="-12.1191790" lon="-76.6616350">
        <ele>1304.1</ele>
        <time>2021-05-30T16:45:45Z</time>
      </trkpt>
      <trkpt lat="-12.1191650" lon="-76.6616900">
        <ele>1303.7</ele>
        <time>2021-05-30T16:45:47Z</time>
      </trkpt>
      <trkpt lat="-12.1191530" lon="-76.6617280">
        <ele>1303.5</ele>
        <time>2021-05-30T16:45:48Z</time>
      </trkpt>
      <trkpt lat="-12.1191390" lon="-76.6617840">
        <ele>1303.2</ele>
        <time>2021-05-30T16:45:49Z</time>
      </trkpt>
      <trkpt lat="-12.1191260" lon="-76.6618380">
        <ele>1302.9</ele>
        <time>2021-05-30T16:45:50Z</time>
      </trkpt>
      <trkpt lat="-12.1191060" lon="-76.6619290">
        <ele>1302.3</ele>
        <time>2021-05-30T16:45:52Z</time>
      </trkpt>
      <trkpt lat="-12.1190740" lon="-76.6620490">
        <ele>1301.4</ele>
        <time>2021-05-30T16:45:54Z</time>
      </trkpt>
      <trkpt lat="-12.1190570" lon="-76.6621160">
        <ele>1300.7</ele>
        <time>2021-05-30T16:45:55Z</time>
      </trkpt>
      <trkpt lat="-12.1190390" lon="-76.6621760">
        <ele>1300.1</ele>
        <time>2021-05-30T16:45:56Z</time>
      </trkpt>
      <trkpt lat="-12.1189960" lon="-76.6622950">
        <ele>1298.8</ele>
        <time>2021-05-30T16:45:58Z</time>
      </trkpt>
      <trkpt lat="-12.1189680" lon="-76.6623500">
        <ele>1298.2</ele>
        <time>2021-05-30T16:45:59Z</time>
      </trkpt>
      <trkpt lat="-12.1189070" lon="-76.6624640">
        <ele>1296.9</ele>
        <time>2021-05-30T16:46:01Z</time>
      </trkpt>
      <trkpt lat="-12.1188760" lon="-76.6625220">
        <ele>1296.3</ele>
        <time>2021-05-30T16:46:02Z</time>
      </trkpt>
      <trkpt lat="-12.1188500" lon="-76.6625770">
        <ele>1295.7</ele>
        <time>2021-05-30T16:46:03Z</time>
      </trkpt>
      <trkpt lat="-12.1187960" lon="-76.6626950">
        <ele>1294.5</ele>
        <time>2021-05-30T16:46:05Z</time>
      </trkpt>
      <trkpt lat="-12.1187180" lon="-76.6627900">
        <ele>1293.3</ele>
        <time>2021-05-30T16:46:07Z</time>
      </trkpt>
      <trkpt lat="-12.1186190" lon="-76.6628730">
        <ele>1292.0</ele>
        <time>2021-05-30T16:46:09Z</time>
      </trkpt>
      <trkpt lat="-12.1185670" lon="-76.6629180">
        <ele>1291.3</ele>
        <time>2021-05-30T16:46:10Z</time>
      </trkpt>
      <trkpt lat="-12.1184600" lon="-76.6630080">
        <ele>1289.9</ele>
        <time>2021-05-30T16:46:12Z</time>
      </trkpt>
      <trkpt lat="-12.1184060" lon="-76.6630540">
        <ele>1289.1</ele>
        <time>2021-05-30T16:46:13Z</time>
      </trkpt>
      <trkpt lat="-12.1183540" lon="-76.6631120">
        <ele>1288.2</ele>
        <time>2021-05-30T16:46:14Z</time>
      </trkpt>
      <trkpt lat="-12.1182720" lon="-76.6632550">
        <ele>1286.6</ele>
        <time>2021-05-30T16:46:16Z</time>
      </trkpt>
      <trkpt lat="-12.1182450" lon="-76.6633360">
        <ele>1285.8</ele>
        <time>2021-05-30T16:46:17Z</time>
      </trkpt>
      <trkpt lat="-12.1182030" lon="-76.6634990">
        <ele>1284.4</ele>
        <time>2021-05-30T16:46:19Z</time>
      </trkpt>
      <trkpt lat="-12.1181590" lon="-76.6636530">
        <ele>1283.2</ele>
        <time>2021-05-30T16:46:21Z</time>
      </trkpt>
      <trkpt lat="-12.1181440" lon="-76.6637290">
        <ele>1282.7</ele>
        <time>2021-05-30T16:46:22Z</time>
      </trkpt>
      <trkpt lat="-12.1181330" lon="-76.6638070">
        <ele>1282.2</ele>
        <time>2021-05-30T16:46:23Z</time>
      </trkpt>
      <trkpt lat="-12.1181230" lon="-76.6638900">
        <ele>1281.6</ele>
        <time>2021-05-30T16:46:24Z</time>
      </trkpt>
      <trkpt lat="-12.1181160" lon="-76.6639770">
        <ele>1281.0</ele>
        <time>2021-05-30T16:46:25Z</time>
      </trkpt>
      <trkpt lat="-12.1181020" lon="-76.6641330">
        <ele>1279.9</ele>
        <time>2021-05-30T16:46:27Z</time>
      </trkpt>
      <trkpt lat="-12.1180830" lon="-76.6642100">
        <ele>1279.3</ele>
        <time>2021-05-30T16:46:28Z</time>
      </trkpt>
      <trkpt lat="-12.1180630" lon="-76.6643650">
        <ele>1278.1</ele>
        <time>2021-05-30T16:46:30Z</time>
      </trkpt>
      <trkpt lat="-12.1180160" lon="-76.6645190">
        <ele>1276.8</ele>
        <time>2021-05-30T16:46:32Z</time>
      </trkpt>
      <trkpt lat="-12.1179170" lon="-76.6646760">
        <ele>1275.1</ele>
        <time>2021-05-30T16:46:34Z</time>
      </trkpt>
      <trkpt lat="-12.1178160" lon="-76.6648330">
        <ele>1273.5</ele>
        <time>2021-05-30T16:46:36Z</time>
      </trkpt>
      <trkpt lat="-12.1177470" lon="-76.6649940">
        <ele>1272.1</ele>
        <time>2021-05-30T16:46:38Z</time>
      </trkpt>
      <trkpt lat="-12.1177160" lon="-76.6650780">
        <ele>1271.3</ele>
        <time>2021-05-30T16:46:39Z</time>
      </trkpt>
      <trkpt lat="-12.1176840" lon="-76.6651670">
        <ele>1270.5</ele>
        <time>2021-05-30T16:46:40Z</time>
      </trkpt>
      <trkpt lat="-12.1176200" lon="-76.6653460">
        <ele>1268.9</ele>
        <time>2021-05-30T16:46:42Z</time>
      </trkpt>
      <trkpt lat="-12.1175950" lon="-76.6654360">
        <ele>1268.3</ele>
        <time>2021-05-30T16:46:43Z</time>
      </trkpt>
      <trkpt lat="-12.1175600" lon="-76.6656060">
        <ele>1267.1</ele>
        <time>2021-05-30T16:46:45Z</time>
      </trkpt>
      <trkpt lat="-12.1175340" lon="-76.6657700">
        <ele>1265.7</ele>
        <time>2021-05-30T16:46:47Z</time>
      </trkpt>
      <trkpt lat="-12.1175080" lon="-76.6659310">
        <ele>1264.2</ele>
        <time>2021-05-30T16:46:49Z</time>
      </trkpt>
      <trkpt lat="-12.1174910" lon="-76.6660200">
        <ele>1263.4</ele>
        <time>2021-05-30T16:46:50Z</time>
      </trkpt>
      <trkpt lat="-12.1174620" lon="-76.6661880">
        <ele>1262.0</ele>
        <time>2021-05-30T16:46:52Z</time>
      </trkpt>
      <trkpt lat="-12.1174240" lon="-76.6663520">
        <ele>1260.6</ele>
        <time>2021-05-30T16:46:54Z</time>
      </trkpt>
      <trkpt lat="-12.1173890" lon="-76.6665330">
        <ele>1258.8</ele>
        <time>2021-05-30T16:46:56Z</time>
      </trkpt>
      <trkpt lat="-12.1173740" lon="-76.6666320">
        <ele>1257.8</ele>
        <time>2021-05-30T16:46:57Z</time>
      </trkpt>
      <trkpt lat="-12.1173580" lon="-76.6667360">
        <ele>1256.8</ele>
        <time>2021-05-30T16:46:58Z</time>
      </trkpt>
      <trkpt lat="-12.1173260" lon="-76.6669330">
        <ele>1255.0</ele>
        <time>2021-05-30T16:47:00Z</time>
      </trkpt>
      <trkpt lat="-12.1173040" lon="-76.6670330">
        <ele>1254.1</ele>
        <time>2021-05-30T16:47:01Z</time>
      </trkpt>
      <trkpt lat="-12.1172840" lon="-76.6672320">
        <ele>1252.1</ele>
        <time>2021-05-30T16:47:03Z</time>
      </trkpt>
      <trkpt lat="-12.1172780" lon="-76.6673320">
        <ele>1251.0</ele>
        <time>2021-05-30T16:47:04Z</time>
      </trkpt>
      <trkpt lat="-12.1172400" lon="-76.6675360">
        <ele>1249.0</ele>
        <time>2021-05-30T16:47:06Z</time>
      </trkpt>
      <trkpt lat="-12.1172160" lon="-76.6676400">
        <ele>1248.0</ele>
        <time>2021-05-30T16:47:07Z</time>
      </trkpt>
      <trkpt lat="-12.1172010" lon="-76.6678480">
        <ele>1246.2</ele>
        <time>2021-05-30T16:47:09Z</time>
      </trkpt>
      <trkpt lat="-12.1172120" lon="-76.6680420">
        <ele>1244.4</ele>
        <time>2021-05-30T16:47:11Z</time>
      </trkpt>
      <trkpt lat="-12.1172130" lon="-76.6681360">
        <ele>1243.4</ele>
        <time>2021-05-30T16:47:12Z</time>
      </trkpt>
      <trkpt lat="-12.1172020" lon="-76.6683300">
        <ele>1241.4</ele>
        <time>2021-05-30T16:47:14Z</time>
      </trkpt>
      <trkpt lat="-12.1171870" lon="-76.6685280">
        <ele>1239.3</ele>
        <time>2021-05-30T16:47:16Z</time>
      </trkpt>
      <trkpt lat="-12.1171760" lon="-76.6687290">
        <ele>1237.2</ele>
        <time>2021-05-30T16:47:18Z</time>
      </trkpt>
      <trkpt lat="-12.1171720" lon="-76.6688340">
        <ele>1236.1</ele>
        <time>2021-05-30T16:47:19Z</time>
      </trkpt>
      <trkpt lat="-12.1171730" lon="-76.6689420">
        <ele>1235.0</ele>
        <time>2021-05-30T16:47:20Z</time>
      </trkpt>
      <trkpt lat="-12.1171950" lon="-76.6691510">
        <ele>1232.7</ele>
        <time>2021-05-30T16:47:22Z</time>
      </trkpt>
      <trkpt lat="-12.1171940" lon="-76.6693580">
        <ele>1230.6</ele>
        <time>2021-05-30T16:47:24Z</time>
      </trkpt>
      <trkpt lat="-12.1171890" lon="-76.6694650">
        <ele>1229.7</ele>
        <time>2021-05-30T16:47:25Z</time>
      </trkpt>
      <trkpt lat="-12.1171840" lon="-76.6695720">
        <ele>1228.7</ele>
        <time>2021-05-30T16:47:26Z</time>
      </trkpt>
      <trkpt lat="-12.1171810" lon="-76.6697890">
        <ele>1227.0</ele>
        <time>2021-05-30T16:47:28Z</time>
      </trkpt>
      <trkpt lat="-12.1171730" lon="-76.6699810">
        <ele>1225.3</ele>
        <time>2021-05-30T16:47:30Z</time>
      </trkpt>
      <trkpt lat="-12.1171620" lon="-76.6700740">
        <ele>1224.4</ele>
        <time>2021-05-30T16:47:31Z</time>
      </trkpt>
      <trkpt lat="-12.1171240" lon="-76.6702650">
        <ele>1222.5</ele>
        <time>2021-05-30T16:47:33Z</time>
      </trkpt>
      <trkpt lat="-12.1171160" lon="-76.6703590">
        <ele>1221.5</ele>
        <time>2021-05-30T16:47:34Z</time>
      </trkpt>
      <trkpt lat="-12.1171160" lon="-76.6704550">
        <ele>1220.6</ele>
        <time>2021-05-30T16:47:35Z</time>
      </trkpt>
      <trkpt lat="-12.1171190" lon="-76.6705570">
        <ele>1219.7</ele>
        <time>2021-05-30T16:47:36Z</time>
      </trkpt>
      <trkpt lat="-12.1171190" lon="-76.6707520">
        <ele>1218.0</ele>
        <time>2021-05-30T16:47:38Z</time>
      </trkpt>
      <trkpt lat="-12.1171190" lon="-76.6708490">
        <ele>1217.2</ele>
        <time>2021-05-30T16:47:39Z</time>
      </trkpt>
      <trkpt lat="-12.1171230" lon="-76.6710490">
        <ele>1215.2</ele>
        <time>2021-05-30T16:47:41Z</time>
      </trkpt>
      <trkpt lat="-12.1171290" lon="-76.6711540">
        <ele>1214.2</ele>
        <time>2021-05-30T16:47:42Z</time>
      </trkpt>
      <trkpt lat="-12.1171690" lon="-76.6713450">
        <ele>1212.5</ele>
        <time>2021-05-30T16:47:44Z</time>
      </trkpt>
      <trkpt lat="-12.1171960" lon="-76.6714410">
        <ele>1211.6</ele>
        <time>2021-05-30T16:47:45Z</time>
      </trkpt>
      <trkpt lat="-12.1172100" lon="-76.6715330">
        <ele>1210.7</ele>
        <time>2021-05-30T16:47:46Z</time>
      </trkpt>
      <trkpt lat="-12.1172160" lon="-76.6716290">
        <ele>1209.8</ele>
        <time>2021-05-30T16:47:47Z</time>
      </trkpt>
      <trkpt lat="-12.1172180" lon="-76.6717300">
        <ele>1208.8</ele>
        <time>2021-05-30T16:47:48Z</time>
      </trkpt>
      <trkpt lat="-12.1172140" lon="-76.6719280">
        <ele>1206.9</ele>
        <time>2021-05-30T16:47:50Z</time>
      </trkpt>
      <trkpt lat="-12.1171740" lon="-76.6721340">
        <ele>1204.9</ele>
        <time>2021-05-30T16:47:52Z</time>
      </trkpt>
      <trkpt lat="-12.1171360" lon="-76.6722340">
        <ele>1203.9</ele>
        <time>2021-05-30T16:47:53Z</time>
      </trkpt>
      <trkpt lat="-12.1170700" lon="-76.6724070">
        <ele>1202.1</ele>
        <time>2021-05-30T16:47:55Z</time>
      </trkpt>
      <trkpt lat="-12.1170290" lon="-76.6724930">
        <ele>1201.3</ele>
        <time>2021-05-30T16:47:56Z</time>
      </trkpt>
      <trkpt lat="-12.1169520" lon="-76.6726710">
        <ele>1199.9</ele>
        <time>2021-05-30T16:47:58Z</time>
      </trkpt>
      <trkpt lat="-12.1169140" lon="-76.6727620">
        <ele>1199.3</ele>
        <time>2021-05-30T16:47:59Z</time>
      </trkpt>
      <trkpt lat="-12.1168480" lon="-76.6729390">
        <ele>1197.7</ele>
        <time>2021-05-30T16:48:01Z</time>
      </trkpt>
      <trkpt lat="-12.1168210" lon="-76.6730300">
        <ele>1196.6</ele>
        <time>2021-05-30T16:48:02Z</time>
      </trkpt>
      <trkpt lat="-12.1167830" lon="-76.6732170">
        <ele>1194.0</ele>
        <time>2021-05-30T16:48:04Z</time>
      </trkpt>
      <trkpt lat="-12.1167410" lon="-76.6734030">
        <ele>1191.6</ele>
        <time>2021-05-30T16:48:06Z</time>
      </trkpt>
      <trkpt lat="-12.1167160" lon="-76.6734970">
        <ele>1190.3</ele>
        <time>2021-05-30T16:48:07Z</time>
      </trkpt>
      <trkpt lat="-12.1167020" lon="-76.6735900">
        <ele>1189.0</ele>
        <time>2021-05-30T16:48:08Z</time>
      </trkpt>
      <trkpt lat="-12.1167010" lon="-76.6736840">
        <ele>1187.7</ele>
        <time>2021-05-30T16:48:09Z</time>
      </trkpt>
      <trkpt lat="-12.1167160" lon="-76.6738780">
        <ele>1185.4</ele>
        <time>2021-05-30T16:48:11Z</time>
      </trkpt>
      <trkpt lat="-12.1167310" lon="-76.6739790">
        <ele>1184.7</ele>
        <time>2021-05-30T16:48:12Z</time>
      </trkpt>
      <trkpt lat="-12.1167490" lon="-76.6741740">
        <ele>1184.3</ele>
        <time>2021-05-30T16:48:14Z</time>
      </trkpt>
      <trkpt lat="-12.1167550" lon="-76.6742690">
        <ele>1184.3</ele>
        <time>2021-05-30T16:48:15Z</time>
      </trkpt>
      <trkpt lat="-12.1167670" lon="-76.6744360">
        <ele>1184.7</ele>
        <time>2021-05-30T16:48:17Z</time>
      </trkpt>
      <trkpt lat="-12.1167720" lon="-76.6745110">
        <ele>1184.8</ele>
        <time>2021-05-30T16:48:18Z</time>
      </trkpt>
      <trkpt lat="-12.1167680" lon="-76.6745780">
        <ele>1184.9</ele>
        <time>2021-05-30T16:48:19Z</time>
      </trkpt>
      <trkpt lat="-12.1167860" lon="-76.6746870">
        <ele>1184.9</ele>
        <time>2021-05-30T16:48:21Z</time>
      </trkpt>
      <trkpt lat="-12.1168000" lon="-76.6747420">
        <ele>1184.8</ele>
        <time>2021-05-30T16:48:22Z</time>
      </trkpt>
      <trkpt lat="-12.1168080" lon="-76.6747930">
        <ele>1184.6</ele>
        <time>2021-05-30T16:48:23Z</time>
      </trkpt>
      <trkpt lat="-12.1168080" lon="-76.6748910">
        <ele>1184.2</ele>
        <time>2021-05-30T16:48:25Z</time>
      </trkpt>
      <trkpt lat="-12.1168140" lon="-76.6749440">
        <ele>1183.8</ele>
        <time>2021-05-30T16:48:26Z</time>
      </trkpt>
      <trkpt lat="-12.1168170" lon="-76.6750480">
        <ele>1183.1</ele>
        <time>2021-05-30T16:48:28Z</time>
      </trkpt>
      <trkpt lat="-12.1168360" lon="-76.6751610">
        <ele>1182.1</ele>
        <time>2021-05-30T16:48:30Z</time>
      </trkpt>
      <trkpt lat="-12.1168490" lon="-76.6752850">
        <ele>1180.9</ele>
        <time>2021-05-30T16:48:32Z</time>
      </trkpt>
      <trkpt lat="-12.1168470" lon="-76.6753490">
        <ele>1180.3</ele>
        <time>2021-05-30T16:48:33Z</time>
      </trkpt>
      <trkpt lat="-12.1168450" lon="-76.6754780">
        <ele>1179.1</ele>
        <time>2021-05-30T16:48:35Z</time>
      </trkpt>
      <trkpt lat="-12.1168530" lon="-76.6755490">
        <ele>1178.4</ele>
        <time>2021-05-30T16:48:36Z</time>
      </trkpt>
      <trkpt lat="-12.1168640" lon="-76.6756290">
        <ele>1177.6</ele>
        <time>2021-05-30T16:48:37Z</time>
      </trkpt>
      <trkpt lat="-12.1168590" lon="-76.6757990">
        <ele>1176.1</ele>
        <time>2021-05-30T16:48:39Z</time>
      </trkpt>
      <trkpt lat="-12.1168310" lon="-76.6758820">
        <ele>1175.4</ele>
        <time>2021-05-30T16:48:40Z</time>
      </trkpt>
      <trkpt lat="-12.1167420" lon="-76.6760280">
        <ele>1174.1</ele>
        <time>2021-05-30T16:48:42Z</time>
      </trkpt>
      <trkpt lat="-12.1167020" lon="-76.6761010">
        <ele>1173.4</ele>
        <time>2021-05-30T16:48:43Z</time>
      </trkpt>
      <trkpt lat="-12.1166270" lon="-76.6762540">
        <ele>1171.9</ele>
        <time>2021-05-30T16:48:45Z</time>
      </trkpt>
      <trkpt lat="-12.1165890" lon="-76.6763290">
        <ele>1171.3</ele>
        <time>2021-05-30T16:48:46Z</time>
      </trkpt>
      <trkpt lat="-12.1165410" lon="-76.6763930">
        <ele>1170.7</ele>
        <time>2021-05-30T16:48:47Z</time>
      </trkpt>
      <trkpt lat="-12.1164930" lon="-76.6764560">
        <ele>1170.0</ele>
        <time>2021-05-30T16:48:48Z</time>
      </trkpt>
      <trkpt lat="-12.1164150" lon="-76.6765870">
        <ele>1168.5</ele>
        <time>2021-05-30T16:48:50Z</time>
      </trkpt>
      <trkpt lat="-12.1163830" lon="-76.6766610">
        <ele>1167.9</ele>
        <time>2021-05-30T16:48:51Z</time>
      </trkpt>
      <trkpt lat="-12.1163290" lon="-76.6768150">
        <ele>1167.2</ele>
        <time>2021-05-30T16:48:53Z</time>
      </trkpt>
      <trkpt lat="-12.1162990" lon="-76.6769750">
        <ele>1166.4</ele>
        <time>2021-05-30T16:48:55Z</time>
      </trkpt>
      <trkpt lat="-12.1162890" lon="-76.6771340">
        <ele>1165.5</ele>
        <time>2021-05-30T16:48:57Z</time>
      </trkpt>
      <trkpt lat="-12.1162850" lon="-76.6772110">
        <ele>1165.1</ele>
        <time>2021-05-30T16:48:58Z</time>
      </trkpt>
      <trkpt lat="-12.1162720" lon="-76.6772860">
        <ele>1164.6</ele>
        <time>2021-05-30T16:48:59Z</time>
      </trkpt>
      <trkpt lat="-12.1162430" lon="-76.6774440">
        <ele>1163.6</ele>
        <time>2021-05-30T16:49:01Z</time>
      </trkpt>
      <trkpt lat="-12.1162290" lon="-76.6775250">
        <ele>1163.1</ele>
        <time>2021-05-30T16:49:02Z</time>
      </trkpt>
      <trkpt lat="-12.1162180" lon="-76.6776120">
        <ele>1162.4</ele>
        <time>2021-05-30T16:49:03Z</time>
      </trkpt>
      <trkpt lat="-12.1162090" lon="-76.6777020">
        <ele>1161.7</ele>
        <time>2021-05-30T16:49:04Z</time>
      </trkpt>
      <trkpt lat="-12.1161860" lon="-76.6778670">
        <ele>1160.5</ele>
        <time>2021-05-30T16:49:06Z</time>
      </trkpt>
      <trkpt lat="-12.1161600" lon="-76.6780340">
        <ele>1159.3</ele>
        <time>2021-05-30T16:49:08Z</time>
      </trkpt>
      <trkpt lat="-12.1161430" lon="-76.6781180">
        <ele>1158.7</ele>
        <time>2021-05-30T16:49:09Z</time>
      </trkpt>
      <trkpt lat="-12.1161190" lon="-76.6782800">
        <ele>1157.5</ele>
        <time>2021-05-30T16:49:11Z</time>
      </trkpt>
      <trkpt lat="-12.1161230" lon="-76.6783620">
        <ele>1156.9</ele>
        <time>2021-05-30T16:49:12Z</time>
      </trkpt>
      <trkpt lat="-12.1161370" lon="-76.6784500">
        <ele>1156.3</ele>
        <time>2021-05-30T16:49:13Z</time>
      </trkpt>
      <trkpt lat="-12.1161540" lon="-76.6785370">
        <ele>1155.7</ele>
        <time>2021-05-30T16:49:14Z</time>
      </trkpt>
      <trkpt lat="-12.1161850" lon="-76.6787120">
        <ele>1154.5</ele>
        <time>2021-05-30T16:49:16Z</time>
      </trkpt>
      <trkpt lat="-12.1162150" lon="-76.6788900">
        <ele>1153.3</ele>
        <time>2021-05-30T16:49:18Z</time>
      </trkpt>
      <trkpt lat="-12.1162550" lon="-76.6790740">
        <ele>1151.9</ele>
        <time>2021-05-30T16:49:20Z</time>
      </trkpt>
      <trkpt lat="-12.1163060" lon="-76.6792590">
        <ele>1150.7</ele>
        <time>2021-05-30T16:49:22Z</time>
      </trkpt>
      <trkpt lat="-12.1163360" lon="-76.6793460">
        <ele>1150.3</ele>
        <time>2021-05-30T16:49:23Z</time>
      </trkpt>
      <trkpt lat="-12.1163940" lon="-76.6794960">
        <ele>1149.6</ele>
        <time>2021-05-30T16:49:25Z</time>
      </trkpt>
      <trkpt lat="-12.1164210" lon="-76.6795720">
        <ele>1149.3</ele>
        <time>2021-05-30T16:49:26Z</time>
      </trkpt>
      <trkpt lat="-12.1164350" lon="-76.6797290">
        <ele>1148.7</ele>
        <time>2021-05-30T16:49:28Z</time>
      </trkpt>
      <trkpt lat="-12.1164200" lon="-76.6798040">
        <ele>1148.5</ele>
        <time>2021-05-30T16:49:29Z</time>
      </trkpt>
      <trkpt lat="-12.1163910" lon="-76.6798730">
        <ele>1148.3</ele>
        <time>2021-05-30T16:49:30Z</time>
      </trkpt>
      <trkpt lat="-12.1163490" lon="-76.6800040">
        <ele>1148.0</ele>
        <time>2021-05-30T16:49:32Z</time>
      </trkpt>
      <trkpt lat="-12.1163240" lon="-76.6801230">
        <ele>1147.8</ele>
        <time>2021-05-30T16:49:34Z</time>
      </trkpt>
      <trkpt lat="-12.1163150" lon="-76.6801740">
        <ele>1147.7</ele>
        <time>2021-05-30T16:49:35Z</time>
      </trkpt>
      <trkpt lat="-12.1163220" lon="-76.6802760">
        <ele>1147.6</ele>
        <time>2021-05-30T16:49:37Z</time>
      </trkpt>
      <trkpt lat="-12.1163270" lon="-76.6803210">
        <ele>1147.5</ele>
        <time>2021-05-30T16:49:39Z</time>
      </trkpt>
      <trkpt lat="-12.1163260" lon="-76.6803350">
        <ele>1147.5</ele>
        <time>2021-05-30T16:49:40Z</time>
      </trkpt>
      <trkpt lat="-12.1163280" lon="-76.6803390">
        <ele>1147.5</ele>
        <time>2021-05-30T16:49:41Z</time>
      </trkpt>
      <trkpt lat="-12.1163410" lon="-76.6803400">
        <ele>1147.5</ele>
        <time>2021-05-30T16:49:43Z</time>
      </trkpt>
      <trkpt lat="-12.1163490" lon="-76.6803220">
        <ele>1147.4</ele>
        <time>2021-05-30T16:49:45Z</time>
      </trkpt>
      <trkpt lat="-12.1163540" lon="-76.6803280">
        <ele>1147.4</ele>
        <time>2021-05-30T16:49:47Z</time>
      </trkpt>
      <trkpt lat="-12.1163560" lon="-76.6803340">
        <ele>1147.4</ele>
        <time>2021-05-30T16:49:48Z</time>
      </trkpt>
      <trkpt lat="-12.1163660" lon="-76.6803470">
        <ele>1147.4</ele>
        <time>2021-05-30T16:49:50Z</time>
      </trkpt>
      <trkpt lat="-12.1163900" lon="-76.6803540">
        <ele>1147.3</ele>
        <time>2021-05-30T16:49:52Z</time>
      </trkpt>
      <trkpt lat="-12.1163980" lon="-76.6803570">
        <ele>1147.3</ele>
        <time>2021-05-30T16:49:53Z</time>
      </trkpt>
      <trkpt lat="-12.1164000" lon="-76.6803710">
        <ele>1147.3</ele>
        <time>2021-05-30T16:49:55Z</time>
      </trkpt>
      <trkpt lat="-12.1163930" lon="-76.6803790">
        <ele>1147.3</ele>
        <time>2021-05-30T16:49:57Z</time>
      </trkpt>
      <trkpt lat="-12.1163840" lon="-76.6803640">
        <ele>1147.2</ele>
        <time>2021-05-30T16:49:59Z</time>
      </trkpt>
      <trkpt lat="-12.1163770" lon="-76.6803330">
        <ele>1147.2</ele>
        <time>2021-05-30T16:50:01Z</time>
      </trkpt>
      <trkpt lat="-12.1163740" lon="-76.6803230">
        <ele>1147.2</ele>
        <time>2021-05-30T16:50:02Z</time>
      </trkpt>
      <trkpt lat="-12.1163740" lon="-76.6803170">
        <ele>1147.2</ele>
        <time>2021-05-30T16:50:03Z</time>
      </trkpt>
      <trkpt lat="-12.1163790" lon="-76.6803180">
        <ele>1147.2</ele>
        <time>2021-05-30T16:50:05Z</time>
      </trkpt>
      <trkpt lat="-12.1163890" lon="-76.6803210">
        <ele>1147.1</ele>
        <time>2021-05-30T16:50:07Z</time>
      </trkpt>
      <trkpt lat="-12.1164090" lon="-76.6803230">
        <ele>1147.1</ele>
        <time>2021-05-30T16:50:09Z</time>
      </trkpt>
      <trkpt lat="-12.1164270" lon="-76.6803230">
        <ele>1147.1</ele>
        <time>2021-05-30T16:50:11Z</time>
      </trkpt>
      <trkpt lat="-12.1164340" lon="-76.6803220">
        <ele>1147.0</ele>
        <time>2021-05-30T16:50:12Z</time>
      </trkpt>
      <trkpt lat="-12.1164370" lon="-76.6803120">
        <ele>1147.0</ele>
        <time>2021-05-30T16:50:13Z</time>
      </trkpt>
      <trkpt lat="-12.1164380" lon="-76.6803000">
        <ele>1147.0</ele>
        <time>2021-05-30T16:50:14Z</time>
      </trkpt>
      <trkpt lat="-12.1164300" lon="-76.6802750">
        <ele>1146.9</ele>
        <time>2021-05-30T16:50:16Z</time>
      </trkpt>
      <trkpt lat="-12.1164240" lon="-76.6802630">
        <ele>1146.9</ele>
        <time>2021-05-30T16:50:17Z</time>
      </trkpt>
      <trkpt lat="-12.1164180" lon="-76.6802420">
        <ele>1146.9</ele>
        <time>2021-05-30T16:50:19Z</time>
      </trkpt>
      <trkpt lat="-12.1164180" lon="-76.6802270">
        <ele>1146.8</ele>
        <time>2021-05-30T16:50:21Z</time>
      </trkpt>
      <trkpt lat="-12.1164100" lon="-76.6802120">
        <ele>1146.8</ele>
        <time>2021-05-30T16:50:23Z</time>
      </trkpt>
      <trkpt lat="-12.1164040" lon="-76.6802050">
        <ele>1146.8</ele>
        <time>2021-05-30T16:50:24Z</time>
      </trkpt>
      <trkpt lat="-12.1164010" lon="-76.6801950">
        <ele>1146.7</ele>
        <time>2021-05-30T16:50:26Z</time>
      </trkpt>
      <trkpt lat="-12.1164000" lon="-76.6801860">
        <ele>1146.7</ele>
        <time>2021-05-30T16:50:27Z</time>
      </trkpt>
      <trkpt lat="-12.1164020" lon="-76.6801730">
        <ele>1146.6</ele>
        <time>2021-05-30T16:50:29Z</time>
      </trkpt>
      <trkpt lat="-12.1164070" lon="-76.6801680">
        <ele>1146.6</ele>
        <time>2021-05-30T16:50:30Z</time>
      </trkpt>
      <trkpt lat="-12.1164240" lon="-76.6801710">
        <ele>1146.6</ele>
        <time>2021-05-30T16:50:32Z</time>
      </trkpt>
      <trkpt lat="-12.1164750" lon="-76.6802180">
        <ele>1146.3</ele>
        <time>2021-05-30T16:50:34Z</time>
      </trkpt>
      <trkpt lat="-12.1164900" lon="-76.6802350">
        <ele>1146.2</ele>
        <time>2021-05-30T16:50:35Z</time>
      </trkpt>
      <trkpt lat="-12.1165270" lon="-76.6802790">
        <ele>1146.0</ele>
        <time>2021-05-30T16:50:37Z</time>
      </trkpt>
      <trkpt lat="-12.1165400" lon="-76.6803060">
        <ele>1145.9</ele>
        <time>2021-05-30T16:50:39Z</time>
      </trkpt>
      <trkpt lat="-12.1165370" lon="-76.6803090">
        <ele>1145.9</ele>
        <time>2021-05-30T16:50:40Z</time>
      </trkpt>
      <trkpt lat="-12.1165260" lon="-76.6803060">
        <ele>1145.8</ele>
        <time>2021-05-30T16:50:42Z</time>
      </trkpt>
      <trkpt lat="-12.1165130" lon="-76.6802790">
        <ele>1145.7</ele>
        <time>2021-05-30T16:50:44Z</time>
      </trkpt>
      <trkpt lat="-12.1165070" lon="-76.6802640">
        <ele>1145.6</ele>
        <time>2021-05-30T16:50:45Z</time>
      </trkpt>
      <trkpt lat="-12.1164960" lon="-76.6802480">
        <ele>1145.6</ele>
        <time>2021-05-30T16:50:46Z</time>
      </trkpt>
      <trkpt lat="-12.1164640" lon="-76.6802180">
        <ele>1145.4</ele>
        <time>2021-05-30T16:50:48Z</time>
      </trkpt>
      <trkpt lat="-12.1164330" lon="-76.6801890">
        <ele>1145.3</ele>
        <time>2021-05-30T16:50:50Z</time>
      </trkpt>
      <trkpt lat="-12.1164200" lon="-76.6801740">
        <ele>1145.2</ele>
        <time>2021-05-30T16:50:51Z</time>
      </trkpt>
      <trkpt lat="-12.1164010" lon="-76.6801500">
        <ele>1145.1</ele>
        <time>2021-05-30T16:50:53Z</time>
      </trkpt>
      <trkpt lat="-12.1164020" lon="-76.6801490">
        <ele>1145.1</ele>
        <time>2021-05-30T16:50:55Z</time>
      </trkpt>
      <trkpt lat="-12.1164580" lon="-76.6802120">
        <ele>1144.8</ele>
        <time>2021-05-30T16:50:57Z</time>
      </trkpt>
      <trkpt lat="-12.1164910" lon="-76.6802390">
        <ele>1144.7</ele>
        <time>2021-05-30T16:51:01Z</time>
      </trkpt>
      <trkpt lat="-12.1164760" lon="-76.6802590">
        <ele>1144.6</ele>
        <time>2021-05-30T16:51:02Z</time>
      </trkpt>
      <trkpt lat="-12.1163810" lon="-76.6803180">
        <ele>1144.1</ele>
        <time>2021-05-30T16:51:23Z</time>
      </trkpt>
      <trkpt lat="-12.1163790" lon="-76.6803200">
        <ele>1144.1</ele>
        <time>2021-05-30T16:51:25Z</time>
      </trkpt>
      <trkpt lat="-12.1163780" lon="-76.6803200">
        <ele>1144.1</ele>
        <time>2021-05-30T16:51:26Z</time>
      </trkpt>
      <trkpt lat="-12.1163760" lon="-76.6803210">
        <ele>1144.1</ele>
        <time>2021-05-30T16:51:28Z</time>
      </trkpt>
      <trkpt lat="-12.1163750" lon="-76.6803220">
        <ele>1144.1</ele>
        <time>2021-05-30T16:51:29Z</time>
      </trkpt>
      <trkpt lat="-12.1163740" lon="-76.6803220">
        <ele>1144.1</ele>
        <time>2021-05-30T16:51:31Z</time>
      </trkpt>
      <trkpt lat="-12.1163740" lon="-76.6803220">
        <ele>1144.1</ele>
        <time>2021-05-30T16:51:33Z</time>
      </trkpt>
      <trkpt lat="-12.1163670" lon="-76.6803790">
        <ele>1143.8</ele>
        <time>2021-05-30T16:51:52Z</time>
      </trkpt>
      <trkpt lat="-12.1163670" lon="-76.6804180">
        <ele>1143.7</ele>
        <time>2021-05-30T16:51:53Z</time>
      </trkpt>
      <trkpt lat="-12.1163680" lon="-76.6804620">
        <ele>1143.5</ele>
        <time>2021-05-30T16:51:54Z</time>
      </trkpt>
      <trkpt lat="-12.1163710" lon="-76.6805140">
        <ele>1143.3</ele>
        <time>2021-05-30T16:51:55Z</time>
      </trkpt>
      <trkpt lat="-12.1163760" lon="-76.6806200">
        <ele>1143.0</ele>
        <time>2021-05-30T16:51:57Z</time>
      </trkpt>
      <trkpt lat="-12.1163740" lon="-76.6806690">
        <ele>1142.9</ele>
        <time>2021-05-30T16:51:58Z</time>
      </trkpt>
      <trkpt lat="-12.1163690" lon="-76.6807190">
        <ele>1142.8</ele>
        <time>2021-05-30T16:51:59Z</time>
      </trkpt>
      <trkpt lat="-12.1163580" lon="-76.6807950">
        <ele>1142.6</ele>
        <time>2021-05-30T16:52:00Z</time>
      </trkpt>
      <trkpt lat="-12.1163490" lon="-76.6808420">
        <ele>1142.5</ele>
        <time>2021-05-30T16:52:02Z</time>
      </trkpt>
      <trkpt lat="-12.1163400" lon="-76.6808870">
        <ele>1142.4</ele>
        <time>2021-05-30T16:52:03Z</time>
      </trkpt>
      <trkpt lat="-12.1163240" lon="-76.6809590">
        <ele>1142.3</ele>
        <time>2021-05-30T16:52:04Z</time>
      </trkpt>
      <trkpt lat="-12.1163030" lon="-76.6810510">
        <ele>1142.1</ele>
        <time>2021-05-30T16:52:06Z</time>
      </trkpt>
      <trkpt lat="-12.1162730" lon="-76.6811840">
        <ele>1141.9</ele>
        <time>2021-05-30T16:52:08Z</time>
      </trkpt>
      <trkpt lat="-12.1162570" lon="-76.6812520">
        <ele>1141.7</ele>
        <time>2021-05-30T16:52:09Z</time>
      </trkpt>
      <trkpt lat="-12.1162480" lon="-76.6813170">
        <ele>1141.6</ele>
        <time>2021-05-30T16:52:10Z</time>
      </trkpt>
      <trkpt lat="-12.1162120" lon="-76.6814180">
        <ele>1141.4</ele>
        <time>2021-05-30T16:52:12Z</time>
      </trkpt>
      <trkpt lat="-12.1161750" lon="-76.6814910">
        <ele>1141.2</ele>
        <time>2021-05-30T16:52:13Z</time>
      </trkpt>
      <trkpt lat="-12.1161400" lon="-76.6815430">
        <ele>1141.1</ele>
        <time>2021-05-30T16:52:15Z</time>
      </trkpt>
      <trkpt lat="-12.1161020" lon="-76.6816510">
        <ele>1140.8</ele>
        <time>2021-05-30T16:52:17Z</time>
      </trkpt>
      <trkpt lat="-12.1160790" lon="-76.6817610">
        <ele>1140.5</ele>
        <time>2021-05-30T16:52:19Z</time>
      </trkpt>
      <trkpt lat="-12.1160730" lon="-76.6818260">
        <ele>1140.3</ele>
        <time>2021-05-30T16:52:20Z</time>
      </trkpt>
      <trkpt lat="-12.1160660" lon="-76.6819400">
        <ele>1140.0</ele>
        <time>2021-05-30T16:52:22Z</time>
      </trkpt>
      <trkpt lat="-12.1160610" lon="-76.6820400">
        <ele>1139.8</ele>
        <time>2021-05-30T16:52:24Z</time>
      </trkpt>
      <trkpt lat="-12.1160700" lon="-76.6820820">
        <ele>1139.7</ele>
        <time>2021-05-30T16:52:25Z</time>
      </trkpt>
      <trkpt lat="-12.1160970" lon="-76.6822000">
        <ele>1139.5</ele>
        <time>2021-05-30T16:52:27Z</time>
      </trkpt>
      <trkpt lat="-12.1161480" lon="-76.6823360">
        <ele>1139.2</ele>
        <time>2021-05-30T16:52:29Z</time>
      </trkpt>
      <trkpt lat="-12.1162030" lon="-76.6825420">
        <ele>1138.8</ele>
        <time>2021-05-30T16:52:32Z</time>
      </trkpt>
      <trkpt lat="-12.1162420" lon="-76.6826330">
        <ele>1138.6</ele>
        <time>2021-05-30T16:52:34Z</time>
      </trkpt>
      <trkpt lat="-12.1162620" lon="-76.6826940">
        <ele>1138.4</ele>
        <time>2021-05-30T16:52:35Z</time>
      </trkpt>
      <trkpt lat="-12.1162970" lon="-76.6828120">
        <ele>1138.2</ele>
        <time>2021-05-30T16:52:37Z</time>
      </trkpt>
      <trkpt lat="-12.1163110" lon="-76.6828710">
        <ele>1138.1</ele>
        <time>2021-05-30T16:52:38Z</time>
      </trkpt>
      <trkpt lat="-12.1163160" lon="-76.6829270">
        <ele>1137.9</ele>
        <time>2021-05-30T16:52:39Z</time>
      </trkpt>
      <trkpt lat="-12.1163090" lon="-76.6830490">
        <ele>1137.4</ele>
        <time>2021-05-30T16:52:41Z</time>
      </trkpt>
      <trkpt lat="-12.1163050" lon="-76.6831110">
        <ele>1137.1</ele>
        <time>2021-05-30T16:52:42Z</time>
      </trkpt>
      <trkpt lat="-12.1162980" lon="-76.6832250">
        <ele>1136.5</ele>
        <time>2021-05-30T16:52:44Z</time>
      </trkpt>
      <trkpt lat="-12.1162730" lon="-76.6832690">
        <ele>1136.2</ele>
        <time>2021-05-30T16:52:45Z</time>
      </trkpt>
      <trkpt lat="-12.1161990" lon="-76.6833460">
        <ele>1135.5</ele>
        <time>2021-05-30T16:52:47Z</time>
      </trkpt>
      <trkpt lat="-12.1160820" lon="-76.6833950">
        <ele>1134.7</ele>
        <time>2021-05-30T16:52:49Z</time>
      </trkpt>
      <trkpt lat="-12.1159350" lon="-76.6834120">
        <ele>1133.7</ele>
        <time>2021-05-30T16:52:51Z</time>
      </trkpt>
      <trkpt lat="-12.1158530" lon="-76.6834120">
        <ele>1133.1</ele>
        <time>2021-05-30T16:52:52Z</time>
      </trkpt>
      <trkpt lat="-12.1156910" lon="-76.6834100">
        <ele>1131.8</ele>
        <time>2021-05-30T16:52:54Z</time>
      </trkpt>
      <trkpt lat="-12.1156110" lon="-76.6834200">
        <ele>1131.1</ele>
        <time>2021-05-30T16:52:55Z</time>
      </trkpt>
      <trkpt lat="-12.1154610" lon="-76.6834560">
        <ele>1129.7</ele>
        <time>2021-05-30T16:52:57Z</time>
      </trkpt>
      <trkpt lat="-12.1153270" lon="-76.6835330">
        <ele>1128.4</ele>
        <time>2021-05-30T16:52:59Z</time>
      </trkpt>
      <trkpt lat="-12.1152580" lon="-76.6835820">
        <ele>1127.8</ele>
        <time>2021-05-30T16:53:00Z</time>
      </trkpt>
      <trkpt lat="-12.1151890" lon="-76.6836410">
        <ele>1127.1</ele>
        <time>2021-05-30T16:53:01Z</time>
      </trkpt>
      <trkpt lat="-12.1150510" lon="-76.6837700">
        <ele>1125.7</ele>
        <time>2021-05-30T16:53:03Z</time>
      </trkpt>
      <trkpt lat="-12.1149060" lon="-76.6838830">
        <ele>1124.1</ele>
        <time>2021-05-30T16:53:05Z</time>
      </trkpt>
      <trkpt lat="-12.1148320" lon="-76.6839330">
        <ele>1123.3</ele>
        <time>2021-05-30T16:53:06Z</time>
      </trkpt>
      <trkpt lat="-12.1146910" lon="-76.6840330">
        <ele>1121.8</ele>
        <time>2021-05-30T16:53:08Z</time>
      </trkpt>
      <trkpt lat="-12.1146250" lon="-76.6840980">
        <ele>1121.1</ele>
        <time>2021-05-30T16:53:09Z</time>
      </trkpt>
      <trkpt lat="-12.1145640" lon="-76.6841640">
        <ele>1120.4</ele>
        <time>2021-05-30T16:53:10Z</time>
      </trkpt>
      <trkpt lat="-12.1145030" lon="-76.6842290">
        <ele>1119.8</ele>
        <time>2021-05-30T16:53:11Z</time>
      </trkpt>
      <trkpt lat="-12.1143860" lon="-76.6843590">
        <ele>1118.7</ele>
        <time>2021-05-30T16:53:13Z</time>
      </trkpt>
      <trkpt lat="-12.1143310" lon="-76.6844200">
        <ele>1118.3</ele>
        <time>2021-05-30T16:53:14Z</time>
      </trkpt>
      <trkpt lat="-12.1142500" lon="-76.6845470">
        <ele>1117.6</ele>
        <time>2021-05-30T16:53:16Z</time>
      </trkpt>
      <trkpt lat="-12.1142550" lon="-76.6846970">
        <ele>1117.0</ele>
        <time>2021-05-30T16:53:18Z</time>
      </trkpt>
      <trkpt lat="-12.1143110" lon="-76.6848410">
        <ele>1116.2</ele>
        <time>2021-05-30T16:53:20Z</time>
      </trkpt>
      <trkpt lat="-12.1143550" lon="-76.6849050">
        <ele>1115.7</ele>
        <time>2021-05-30T16:53:21Z</time>
      </trkpt>
      <trkpt lat="-12.1144480" lon="-76.6850190">
        <ele>1114.8</ele>
        <time>2021-05-30T16:53:23Z</time>
      </trkpt>
      <trkpt lat="-12.1145110" lon="-76.6851120">
        <ele>1114.4</ele>
        <time>2021-05-30T16:53:25Z</time>
      </trkpt>
      <trkpt lat="-12.1145090" lon="-76.6851490">
        <ele>1114.2</ele>
        <time>2021-05-30T16:53:26Z</time>
      </trkpt>
      <trkpt lat="-12.1144900" lon="-76.6851780">
        <ele>1114.1</ele>
        <time>2021-05-30T16:53:27Z</time>
      </trkpt>
      <trkpt lat="-12.1144460" lon="-76.6852090">
        <ele>1113.9</ele>
        <time>2021-05-30T16:53:28Z</time>
      </trkpt>
      <trkpt lat="-12.1143490" lon="-76.6852800">
        <ele>1113.4</ele>
        <time>2021-05-30T16:53:30Z</time>
      </trkpt>
      <trkpt lat="-12.1142410" lon="-76.6853310">
        <ele>1112.8</ele>
        <time>2021-05-30T16:53:32Z</time>
      </trkpt>
      <trkpt lat="-12.1141820" lon="-76.6853530">
        <ele>1112.5</ele>
        <time>2021-05-30T16:53:33Z</time>
      </trkpt>
      <trkpt lat="-12.1140840" lon="-76.6854130">
        <ele>1111.8</ele>
        <time>2021-05-30T16:53:35Z</time>
      </trkpt>
      <trkpt lat="-12.1140430" lon="-76.6854510">
        <ele>1111.4</ele>
        <time>2021-05-30T16:53:36Z</time>
      </trkpt>
      <trkpt lat="-12.1139900" lon="-76.6855470">
        <ele>1110.6</ele>
        <time>2021-05-30T16:53:38Z</time>
      </trkpt>
      <trkpt lat="-12.1139780" lon="-76.6856140">
        <ele>1110.2</ele>
        <time>2021-05-30T16:53:39Z</time>
      </trkpt>
      <trkpt lat="-12.1139810" lon="-76.6856920">
        <ele>1109.7</ele>
        <time>2021-05-30T16:53:40Z</time>
      </trkpt>
      <trkpt lat="-12.1139920" lon="-76.6857660">
        <ele>1109.3</ele>
        <time>2021-05-30T16:53:41Z</time>
      </trkpt>
      <trkpt lat="-12.1139920" lon="-76.6859000">
        <ele>1108.6</ele>
        <time>2021-05-30T16:53:43Z</time>
      </trkpt>
      <trkpt lat="-12.1139800" lon="-76.6860310">
        <ele>1107.8</ele>
        <time>2021-05-30T16:53:45Z</time>
      </trkpt>
      <trkpt lat="-12.1139770" lon="-76.6861660">
        <ele>1107.0</ele>
        <time>2021-05-30T16:53:47Z</time>
      </trkpt>
      <trkpt lat="-12.1139940" lon="-76.6863150">
        <ele>1106.2</ele>
        <time>2021-05-30T16:53:49Z</time>
      </trkpt>
      <trkpt lat="-12.1140100" lon="-76.6863880">
        <ele>1105.8</ele>
        <time>2021-05-30T16:53:50Z</time>
      </trkpt>
      <trkpt lat="-12.1140730" lon="-76.6865060">
        <ele>1105.1</ele>
        <time>2021-05-30T16:53:52Z</time>
      </trkpt>
      <trkpt lat="-12.1141760" lon="-76.6866000">
        <ele>1104.7</ele>
        <time>2021-05-30T16:53:54Z</time>
      </trkpt>
      <trkpt lat="-12.1142720" lon="-76.6866950">
        <ele>1104.4</ele>
        <time>2021-05-30T16:53:56Z</time>
      </trkpt>
      <trkpt lat="-12.1143560" lon="-76.6868050">
        <ele>1104.3</ele>
        <time>2021-05-30T16:53:58Z</time>
      </trkpt>
      <trkpt lat="-12.1143980" lon="-76.6868590">
        <ele>1104.2</ele>
        <time>2021-05-30T16:53:59Z</time>
      </trkpt>
      <trkpt lat="-12.1145000" lon="-76.6869180">
        <ele>1104.3</ele>
        <time>2021-05-30T16:54:01Z</time>
      </trkpt>
      <trkpt lat="-12.1145530" lon="-76.6869290">
        <ele>1104.3</ele>
        <time>2021-05-30T16:54:02Z</time>
      </trkpt>
      <trkpt lat="-12.1146050" lon="-76.6869280">
        <ele>1104.4</ele>
        <time>2021-05-30T16:54:03Z</time>
      </trkpt>
      <trkpt lat="-12.1147040" lon="-76.6868900">
        <ele>1104.8</ele>
        <time>2021-05-30T16:54:05Z</time>
      </trkpt>
      <trkpt lat="-12.1147510" lon="-76.6868660">
        <ele>1105.0</ele>
        <time>2021-05-30T16:54:06Z</time>
      </trkpt>
      <trkpt lat="-12.1148520" lon="-76.6868170">
        <ele>1105.5</ele>
        <time>2021-05-30T16:54:08Z</time>
      </trkpt>
      <trkpt lat="-12.1149050" lon="-76.6867990">
        <ele>1105.6</ele>
        <time>2021-05-30T16:54:09Z</time>
      </trkpt>
      <trkpt lat="-12.1149530" lon="-76.6867950">
        <ele>1105.8</ele>
        <time>2021-05-30T16:54:10Z</time>
      </trkpt>
      <trkpt lat="-12.1149950" lon="-76.6868000">
        <ele>1105.8</ele>
        <time>2021-05-30T16:54:11Z</time>
      </trkpt>
      <trkpt lat="-12.1150900" lon="-76.6868240">
        <ele>1105.9</ele>
        <time>2021-05-30T16:54:13Z</time>
      </trkpt>
      <trkpt lat="-12.1151810" lon="-76.6868700">
        <ele>1105.6</ele>
        <time>2021-05-30T16:54:15Z</time>
      </trkpt>
      <trkpt lat="-12.1152140" lon="-76.6869110">
        <ele>1105.4</ele>
        <time>2021-05-30T16:54:16Z</time>
      </trkpt>
      <trkpt lat="-12.1152770" lon="-76.6870080">
        <ele>1104.8</ele>
        <time>2021-05-30T16:54:18Z</time>
      </trkpt>
      <trkpt lat="-12.1153200" lon="-76.6871230">
        <ele>1104.0</ele>
        <time>2021-05-30T16:54:20Z</time>
      </trkpt>
      <trkpt lat="-12.1152990" lon="-76.6872490">
        <ele>1102.7</ele>
        <time>2021-05-30T16:54:22Z</time>
      </trkpt>
      <trkpt lat="-12.1152440" lon="-76.6873600">
        <ele>1101.4</ele>
        <time>2021-05-30T16:54:24Z</time>
      </trkpt>
      <trkpt lat="-12.1152070" lon="-76.6874170">
        <ele>1100.7</ele>
        <time>2021-05-30T16:54:25Z</time>
      </trkpt>
      <trkpt lat="-12.1151640" lon="-76.6874880">
        <ele>1100.1</ele>
        <time>2021-05-30T16:54:26Z</time>
      </trkpt>
      <trkpt lat="-12.1150740" lon="-76.6876180">
        <ele>1099.0</ele>
        <time>2021-05-30T16:54:28Z</time>
      </trkpt>
      <trkpt lat="-12.1150270" lon="-76.6876760">
        <ele>1098.5</ele>
        <time>2021-05-30T16:54:29Z</time>
      </trkpt>
      <trkpt lat="-12.1149840" lon="-76.6877390">
        <ele>1098.0</ele>
        <time>2021-05-30T16:54:30Z</time>
      </trkpt>
      <trkpt lat="-12.1149220" lon="-76.6878660">
        <ele>1097.1</ele>
        <time>2021-05-30T16:54:32Z</time>
      </trkpt>
      <trkpt lat="-12.1149030" lon="-76.6879300">
        <ele>1096.7</ele>
        <time>2021-05-30T16:54:33Z</time>
      </trkpt>
      <trkpt lat="-12.1148870" lon="-76.6880660">
        <ele>1095.8</ele>
        <time>2021-05-30T16:54:35Z</time>
      </trkpt>
      <trkpt lat="-12.1148810" lon="-76.6881390">
        <ele>1095.3</ele>
        <time>2021-05-30T16:54:36Z</time>
      </trkpt>
      <trkpt lat="-12.1148850" lon="-76.6882890">
        <ele>1094.1</ele>
        <time>2021-05-30T16:54:38Z</time>
      </trkpt>
      <trkpt lat="-12.1148900" lon="-76.6884420">
        <ele>1092.6</ele>
        <time>2021-05-30T16:54:40Z</time>
      </trkpt>
      <trkpt lat="-12.1148830" lon="-76.6885210">
        <ele>1091.9</ele>
        <time>2021-05-30T16:54:41Z</time>
      </trkpt>
      <trkpt lat="-12.1148660" lon="-76.6885890">
        <ele>1091.4</ele>
        <time>2021-05-30T16:54:42Z</time>
      </trkpt>
      <trkpt lat="-12.1148440" lon="-76.6886510">
        <ele>1090.9</ele>
        <time>2021-05-30T16:54:43Z</time>
      </trkpt>
      <trkpt lat="-12.1148130" lon="-76.6887030">
        <ele>1090.4</ele>
        <time>2021-05-30T16:54:44Z</time>
      </trkpt>
      <trkpt lat="-12.1147290" lon="-76.6887780">
        <ele>1089.6</ele>
        <time>2021-05-30T16:54:46Z</time>
      </trkpt>
      <trkpt lat="-12.1146210" lon="-76.6888310">
        <ele>1088.5</ele>
        <time>2021-05-30T16:54:48Z</time>
      </trkpt>
      <trkpt lat="-12.1145120" lon="-76.6888940">
        <ele>1087.4</ele>
        <time>2021-05-30T16:54:50Z</time>
      </trkpt>
      <trkpt lat="-12.1144560" lon="-76.6889340">
        <ele>1086.8</ele>
        <time>2021-05-30T16:54:51Z</time>
      </trkpt>
      <trkpt lat="-12.1143600" lon="-76.6890310">
        <ele>1085.6</ele>
        <time>2021-05-30T16:54:53Z</time>
      </trkpt>
      <trkpt lat="-12.1143270" lon="-76.6891000">
        <ele>1084.9</ele>
        <time>2021-05-30T16:54:54Z</time>
      </trkpt>
      <trkpt lat="-12.1142770" lon="-76.6892390">
        <ele>1083.6</ele>
        <time>2021-05-30T16:54:56Z</time>
      </trkpt>
      <trkpt lat="-12.1142590" lon="-76.6893180">
        <ele>1082.9</ele>
        <time>2021-05-30T16:54:57Z</time>
      </trkpt>
      <trkpt lat="-12.1142230" lon="-76.6894830">
        <ele>1081.6</ele>
        <time>2021-05-30T16:54:59Z</time>
      </trkpt>
      <trkpt lat="-12.1141720" lon="-76.6896260">
        <ele>1080.6</ele>
        <time>2021-05-30T16:55:01Z</time>
      </trkpt>
      <trkpt lat="-12.1141250" lon="-76.6897600">
        <ele>1079.8</ele>
        <time>2021-05-30T16:55:03Z</time>
      </trkpt>
      <trkpt lat="-12.1141150" lon="-76.6898900">
        <ele>1078.9</ele>
        <time>2021-05-30T16:55:05Z</time>
      </trkpt>
      <trkpt lat="-12.1141510" lon="-76.6900190">
        <ele>1077.9</ele>
        <time>2021-05-30T16:55:07Z</time>
      </trkpt>
      <trkpt lat="-12.1141810" lon="-76.6900800">
        <ele>1077.4</ele>
        <time>2021-05-30T16:55:08Z</time>
      </trkpt>
      <trkpt lat="-12.1142080" lon="-76.6901420">
        <ele>1076.9</ele>
        <time>2021-05-30T16:55:09Z</time>
      </trkpt>
      <trkpt lat="-12.1142850" lon="-76.6902760">
        <ele>1075.8</ele>
        <time>2021-05-30T16:55:11Z</time>
      </trkpt>
      <trkpt lat="-12.1143750" lon="-76.6904160">
        <ele>1074.6</ele>
        <time>2021-05-30T16:55:13Z</time>
      </trkpt>
      <trkpt lat="-12.1144860" lon="-76.6905310">
        <ele>1073.3</ele>
        <time>2021-05-30T16:55:15Z</time>
      </trkpt>
      <trkpt lat="-12.1145750" lon="-76.6906670">
        <ele>1071.9</ele>
        <time>2021-05-30T16:55:17Z</time>
      </trkpt>
      <trkpt lat="-12.1146130" lon="-76.6907340">
        <ele>1071.2</ele>
        <time>2021-05-30T16:55:18Z</time>
      </trkpt>
      <trkpt lat="-12.1146490" lon="-76.6907990">
        <ele>1070.3</ele>
        <time>2021-05-30T16:55:19Z</time>
      </trkpt>
      <trkpt lat="-12.1146880" lon="-76.6908650">
        <ele>1069.3</ele>
        <time>2021-05-30T16:55:20Z</time>
      </trkpt>
      <trkpt lat="-12.1147750" lon="-76.6909830">
        <ele>1067.1</ele>
        <time>2021-05-30T16:55:22Z</time>
      </trkpt>
      <trkpt lat="-12.1148230" lon="-76.6910440">
        <ele>1066.0</ele>
        <time>2021-05-30T16:55:23Z</time>
      </trkpt>
      <trkpt lat="-12.1148690" lon="-76.6911100">
        <ele>1064.9</ele>
        <time>2021-05-30T16:55:24Z</time>
      </trkpt>
      <trkpt lat="-12.1149070" lon="-76.6911790">
        <ele>1064.0</ele>
        <time>2021-05-30T16:55:25Z</time>
      </trkpt>
      <trkpt lat="-12.1149370" lon="-76.6912590">
        <ele>1063.0</ele>
        <time>2021-05-30T16:55:26Z</time>
      </trkpt>
      <trkpt lat="-12.1149640" lon="-76.6913500">
        <ele>1062.1</ele>
        <time>2021-05-30T16:55:27Z</time>
      </trkpt>
      <trkpt lat="-12.1149900" lon="-76.6914460">
        <ele>1060.9</ele>
        <time>2021-05-30T16:55:28Z</time>
      </trkpt>
      <trkpt lat="-12.1150410" lon="-76.6916280">
        <ele>1058.4</ele>
        <time>2021-05-30T16:55:30Z</time>
      </trkpt>
      <trkpt lat="-12.1150740" lon="-76.6918070">
        <ele>1056.4</ele>
        <time>2021-05-30T16:55:32Z</time>
      </trkpt>
      <trkpt lat="-12.1151080" lon="-76.6919550">
        <ele>1055.1</ele>
        <time>2021-05-30T16:55:34Z</time>
      </trkpt>
      <trkpt lat="-12.1151710" lon="-76.6920830">
        <ele>1053.8</ele>
        <time>2021-05-30T16:55:36Z</time>
      </trkpt>
      <trkpt lat="-12.1152210" lon="-76.6922240">
        <ele>1052.5</ele>
        <time>2021-05-30T16:55:38Z</time>
      </trkpt>
      <trkpt lat="-12.1152400" lon="-76.6923050">
        <ele>1051.9</ele>
        <time>2021-05-30T16:55:39Z</time>
      </trkpt>
      <trkpt lat="-12.1152440" lon="-76.6923850">
        <ele>1051.4</ele>
        <time>2021-05-30T16:55:40Z</time>
      </trkpt>
      <trkpt lat="-12.1152280" lon="-76.6925230">
        <ele>1050.7</ele>
        <time>2021-05-30T16:55:42Z</time>
      </trkpt>
      <trkpt lat="-12.1151730" lon="-76.6926510">
        <ele>1049.5</ele>
        <time>2021-05-30T16:55:44Z</time>
      </trkpt>
      <trkpt lat="-12.1151280" lon="-76.6927620">
        <ele>1048.2</ele>
        <time>2021-05-30T16:55:46Z</time>
      </trkpt>
      <trkpt lat="-12.1150760" lon="-76.6928820">
        <ele>1046.6</ele>
        <time>2021-05-30T16:55:48Z</time>
      </trkpt>
      <trkpt lat="-12.1150490" lon="-76.6929470">
        <ele>1045.7</ele>
        <time>2021-05-30T16:55:49Z</time>
      </trkpt>
      <trkpt lat="-12.1149910" lon="-76.6930820">
        <ele>1043.8</ele>
        <time>2021-05-30T16:55:51Z</time>
      </trkpt>
      <trkpt lat="-12.1149240" lon="-76.6932400">
        <ele>1042.0</ele>
        <time>2021-05-30T16:55:53Z</time>
      </trkpt>
      <trkpt lat="-12.1148890" lon="-76.6933180">
        <ele>1041.3</ele>
        <time>2021-05-30T16:55:54Z</time>
      </trkpt>
      <trkpt lat="-12.1148150" lon="-76.6934710">
        <ele>1040.0</ele>
        <time>2021-05-30T16:55:56Z</time>
      </trkpt>
      <trkpt lat="-12.1147940" lon="-76.6935470">
        <ele>1039.3</ele>
        <time>2021-05-30T16:55:57Z</time>
      </trkpt>
      <trkpt lat="-12.1147790" lon="-76.6936260">
        <ele>1038.7</ele>
        <time>2021-05-30T16:55:58Z</time>
      </trkpt>
      <trkpt lat="-12.1147710" lon="-76.6937040">
        <ele>1038.1</ele>
        <time>2021-05-30T16:55:59Z</time>
      </trkpt>
      <trkpt lat="-12.1147680" lon="-76.6938670">
        <ele>1037.1</ele>
        <time>2021-05-30T16:56:01Z</time>
      </trkpt>
      <trkpt lat="-12.1147570" lon="-76.6940180">
        <ele>1036.2</ele>
        <time>2021-05-30T16:56:03Z</time>
      </trkpt>
      <trkpt lat="-12.1147310" lon="-76.6941650">
        <ele>1035.1</ele>
        <time>2021-05-30T16:56:05Z</time>
      </trkpt>
      <trkpt lat="-12.1146910" lon="-76.6943090">
        <ele>1033.8</ele>
        <time>2021-05-30T16:56:07Z</time>
      </trkpt>
      <trkpt lat="-12.1146810" lon="-76.6943770">
        <ele>1033.2</ele>
        <time>2021-05-30T16:56:08Z</time>
      </trkpt>
      <trkpt lat="-12.1146710" lon="-76.6944480">
        <ele>1032.5</ele>
        <time>2021-05-30T16:56:09Z</time>
      </trkpt>
      <trkpt lat="-12.1146730" lon="-76.6945960">
        <ele>1031.2</ele>
        <time>2021-05-30T16:56:11Z</time>
      </trkpt>
      <trkpt lat="-12.1146950" lon="-76.6947610">
        <ele>1029.8</ele>
        <time>2021-05-30T16:56:13Z</time>
      </trkpt>
      <trkpt lat="-12.1147030" lon="-76.6948420">
        <ele>1029.2</ele>
        <time>2021-05-30T16:56:14Z</time>
      </trkpt>
      <trkpt lat="-12.1147060" lon="-76.6949250">
        <ele>1028.5</ele>
        <time>2021-05-30T16:56:15Z</time>
      </trkpt>
      <trkpt lat="-12.1147030" lon="-76.6950840">
        <ele>1027.3</ele>
        <time>2021-05-30T16:56:17Z</time>
      </trkpt>
      <trkpt lat="-12.1147020" lon="-76.6951660">
        <ele>1026.6</ele>
        <time>2021-05-30T16:56:18Z</time>
      </trkpt>
      <trkpt lat="-12.1147140" lon="-76.6952470">
        <ele>1026.0</ele>
        <time>2021-05-30T16:56:19Z</time>
      </trkpt>
      <trkpt lat="-12.1147520" lon="-76.6954000">
        <ele>1024.9</ele>
        <time>2021-05-30T16:56:21Z</time>
      </trkpt>
      <trkpt lat="-12.1147740" lon="-76.6954740">
        <ele>1024.3</ele>
        <time>2021-05-30T16:56:22Z</time>
      </trkpt>
      <trkpt lat="-12.1148300" lon="-76.6956230">
        <ele>1023.0</ele>
        <time>2021-05-30T16:56:24Z</time>
      </trkpt>
      <trkpt lat="-12.1148640" lon="-76.6957040">
        <ele>1022.3</ele>
        <time>2021-05-30T16:56:25Z</time>
      </trkpt>
      <trkpt lat="-12.1149310" lon="-76.6958560">
        <ele>1020.9</ele>
        <time>2021-05-30T16:56:27Z</time>
      </trkpt>
      <trkpt lat="-12.1149650" lon="-76.6959350">
        <ele>1020.1</ele>
        <time>2021-05-30T16:56:28Z</time>
      </trkpt>
      <trkpt lat="-12.1150260" lon="-76.6960960">
        <ele>1018.7</ele>
        <time>2021-05-30T16:56:30Z</time>
      </trkpt>
      <trkpt lat="-12.1150720" lon="-76.6962540">
        <ele>1017.5</ele>
        <time>2021-05-30T16:56:32Z</time>
      </trkpt>
      <trkpt lat="-12.1151160" lon="-76.6964180">
        <ele>1016.2</ele>
        <time>2021-05-30T16:56:34Z</time>
      </trkpt>
      <trkpt lat="-12.1151380" lon="-76.6964970">
        <ele>1015.6</ele>
        <time>2021-05-30T16:56:35Z</time>
      </trkpt>
      <trkpt lat="-12.1151650" lon="-76.6965700">
        <ele>1014.9</ele>
        <time>2021-05-30T16:56:36Z</time>
      </trkpt>
      <trkpt lat="-12.1152220" lon="-76.6967080">
        <ele>1013.5</ele>
        <time>2021-05-30T16:56:38Z</time>
      </trkpt>
      <trkpt lat="-12.1152520" lon="-76.6967800">
        <ele>1012.7</ele>
        <time>2021-05-30T16:56:39Z</time>
      </trkpt>
      <trkpt lat="-12.1153150" lon="-76.6969300">
        <ele>1011.2</ele>
        <time>2021-05-30T16:56:41Z</time>
      </trkpt>
      <trkpt lat="-12.1153450" lon="-76.6970110">
        <ele>1010.5</ele>
        <time>2021-05-30T16:56:42Z</time>
      </trkpt>
      <trkpt lat="-12.1154190" lon="-76.6971590">
        <ele>1009.4</ele>
        <time>2021-05-30T16:56:44Z</time>
      </trkpt>
      <trkpt lat="-12.1154920" lon="-76.6973030">
        <ele>1008.4</ele>
        <time>2021-05-30T16:56:46Z</time>
      </trkpt>
      <trkpt lat="-12.1155780" lon="-76.6974350">
        <ele>1007.4</ele>
        <time>2021-05-30T16:56:48Z</time>
      </trkpt>
      <trkpt lat="-12.1156300" lon="-76.6974960">
        <ele>1007.0</ele>
        <time>2021-05-30T16:56:49Z</time>
      </trkpt>
      <trkpt lat="-12.1156830" lon="-76.6975560">
        <ele>1006.6</ele>
        <time>2021-05-30T16:56:50Z</time>
      </trkpt>
      <trkpt lat="-12.1157860" lon="-76.6976590">
        <ele>1005.8</ele>
        <time>2021-05-30T16:56:52Z</time>
      </trkpt>
      <trkpt lat="-12.1158870" lon="-76.6977630">
        <ele>1005.0</ele>
        <time>2021-05-30T16:56:54Z</time>
      </trkpt>
      <trkpt lat="-12.1159350" lon="-76.6978150">
        <ele>1004.6</ele>
        <time>2021-05-30T16:56:55Z</time>
      </trkpt>
      <trkpt lat="-12.1159760" lon="-76.6978740">
        <ele>1004.2</ele>
        <time>2021-05-30T16:56:56Z</time>
      </trkpt>
      <trkpt lat="-12.1160600" lon="-76.6979960">
        <ele>1003.4</ele>
        <time>2021-05-30T16:56:58Z</time>
      </trkpt>
      <trkpt lat="-12.1161470" lon="-76.6981000">
        <ele>1002.8</ele>
        <time>2021-05-30T16:57:00Z</time>
      </trkpt>
      <trkpt lat="-12.1161820" lon="-76.6981510">
        <ele>1002.5</ele>
        <time>2021-05-30T16:57:01Z</time>
      </trkpt>
      <trkpt lat="-12.1162140" lon="-76.6982770">
        <ele>1001.7</ele>
        <time>2021-05-30T16:57:03Z</time>
      </trkpt>
      <trkpt lat="-12.1162200" lon="-76.6983460">
        <ele>1001.2</ele>
        <time>2021-05-30T16:57:04Z</time>
      </trkpt>
      <trkpt lat="-12.1162390" lon="-76.6984820">
        <ele>1000.2</ele>
        <time>2021-05-30T16:57:06Z</time>
      </trkpt>
      <trkpt lat="-12.1162570" lon="-76.6986160">
        <ele>999.2</ele>
        <time>2021-05-30T16:57:08Z</time>
      </trkpt>
      <trkpt lat="-12.1162620" lon="-76.6986880">
        <ele>998.7</ele>
        <time>2021-05-30T16:57:09Z</time>
      </trkpt>
      <trkpt lat="-12.1162720" lon="-76.6987630">
        <ele>998.2</ele>
        <time>2021-05-30T16:57:10Z</time>
      </trkpt>
      <trkpt lat="-12.1162790" lon="-76.6988380">
        <ele>997.7</ele>
        <time>2021-05-30T16:57:11Z</time>
      </trkpt>
      <trkpt lat="-12.1162860" lon="-76.6989080">
        <ele>997.2</ele>
        <time>2021-05-30T16:57:12Z</time>
      </trkpt>
      <trkpt lat="-12.1163100" lon="-76.6990520">
        <ele>996.2</ele>
        <time>2021-05-30T16:57:14Z</time>
      </trkpt>
      <trkpt lat="-12.1163200" lon="-76.6991260">
        <ele>995.6</ele>
        <time>2021-05-30T16:57:15Z</time>
      </trkpt>
      <trkpt lat="-12.1163240" lon="-76.6992050">
        <ele>994.9</ele>
        <time>2021-05-30T16:57:16Z</time>
      </trkpt>
      <trkpt lat="-12.1163360" lon="-76.6993640">
        <ele>993.6</ele>
        <time>2021-05-30T16:57:18Z</time>
      </trkpt>
      <trkpt lat="-12.1163480" lon="-76.6994470">
        <ele>993.0</ele>
        <time>2021-05-30T16:57:19Z</time>
      </trkpt>
      <trkpt lat="-12.1163580" lon="-76.6995240">
        <ele>992.5</ele>
        <time>2021-05-30T16:57:20Z</time>
      </trkpt>
      <trkpt lat="-12.1163540" lon="-76.6996780">
        <ele>991.7</ele>
        <time>2021-05-30T16:57:22Z</time>
      </trkpt>
      <trkpt lat="-12.1163440" lon="-76.6997550">
        <ele>991.2</ele>
        <time>2021-05-30T16:57:23Z</time>
      </trkpt>
      <trkpt lat="-12.1163280" lon="-76.6998970">
        <ele>990.4</ele>
        <time>2021-05-30T16:57:25Z</time>
      </trkpt>
      <trkpt lat="-12.1163280" lon="-76.7000330">
        <ele>989.7</ele>
        <time>2021-05-30T16:57:27Z</time>
      </trkpt>
      <trkpt lat="-12.1163370" lon="-76.7001690">
        <ele>989.0</ele>
        <time>2021-05-30T16:57:29Z</time>
      </trkpt>
      <trkpt lat="-12.1163280" lon="-76.7002420">
        <ele>988.8</ele>
        <time>2021-05-30T16:57:30Z</time>
      </trkpt>
      <trkpt lat="-12.1163180" lon="-76.7003160">
        <ele>988.5</ele>
        <time>2021-05-30T16:57:31Z</time>
      </trkpt>
      <trkpt lat="-12.1163140" lon="-76.7004720">
        <ele>988.0</ele>
        <time>2021-05-30T16:57:33Z</time>
      </trkpt>
      <trkpt lat="-12.1163240" lon="-76.7005440">
        <ele>987.8</ele>
        <time>2021-05-30T16:57:34Z</time>
      </trkpt>
      <trkpt lat="-12.1163580" lon="-76.7006560">
        <ele>987.3</ele>
        <time>2021-05-30T16:57:36Z</time>
      </trkpt>
      <trkpt lat="-12.1163750" lon="-76.7007170">
        <ele>986.9</ele>
        <time>2021-05-30T16:57:37Z</time>
      </trkpt>
      <trkpt lat="-12.1163950" lon="-76.7007790">
        <ele>986.6</ele>
        <time>2021-05-30T16:57:38Z</time>
      </trkpt>
      <trkpt lat="-12.1164220" lon="-76.7008450">
        <ele>986.2</ele>
        <time>2021-05-30T16:57:39Z</time>
      </trkpt>
      <trkpt lat="-12.1164710" lon="-76.7009710">
        <ele>985.4</ele>
        <time>2021-05-30T16:57:41Z</time>
      </trkpt>
      <trkpt lat="-12.1165030" lon="-76.7010900">
        <ele>984.7</ele>
        <time>2021-05-30T16:57:43Z</time>
      </trkpt>
      <trkpt lat="-12.1165150" lon="-76.7011510">
        <ele>984.3</ele>
        <time>2021-05-30T16:57:44Z</time>
      </trkpt>
      <trkpt lat="-12.1165270" lon="-76.7012130">
        <ele>983.8</ele>
        <time>2021-05-30T16:57:45Z</time>
      </trkpt>
      <trkpt lat="-12.1165310" lon="-76.7013450">
        <ele>982.9</ele>
        <time>2021-05-30T16:57:47Z</time>
      </trkpt>
      <trkpt lat="-12.1164930" lon="-76.7014760">
        <ele>982.1</ele>
        <time>2021-05-30T16:57:49Z</time>
      </trkpt>
      <trkpt lat="-12.1164600" lon="-76.7015370">
        <ele>981.8</ele>
        <time>2021-05-30T16:57:50Z</time>
      </trkpt>
      <trkpt lat="-12.1164170" lon="-76.7015910">
        <ele>981.5</ele>
        <time>2021-05-30T16:57:51Z</time>
      </trkpt>
      <trkpt lat="-12.1163730" lon="-76.7016420">
        <ele>981.3</ele>
        <time>2021-05-30T16:57:52Z</time>
      </trkpt>
      <trkpt lat="-12.1162920" lon="-76.7017310">
        <ele>980.7</ele>
        <time>2021-05-30T16:57:54Z</time>
      </trkpt>
      <trkpt lat="-12.1162570" lon="-76.7017730">
        <ele>980.4</ele>
        <time>2021-05-30T16:57:55Z</time>
      </trkpt>
      <trkpt lat="-12.1161650" lon="-76.7018450">
        <ele>979.8</ele>
        <time>2021-05-30T16:57:57Z</time>
      </trkpt>
      <trkpt lat="-12.1161100" lon="-76.7018770">
        <ele>979.4</ele>
        <time>2021-05-30T16:57:58Z</time>
      </trkpt>
      <trkpt lat="-12.1160570" lon="-76.7019130">
        <ele>979.0</ele>
        <time>2021-05-30T16:57:59Z</time>
      </trkpt>
      <trkpt lat="-12.1160050" lon="-76.7019600">
        <ele>978.7</ele>
        <time>2021-05-30T16:58:00Z</time>
      </trkpt>
      <trkpt lat="-12.1159240" lon="-76.7020390">
        <ele>978.0</ele>
        <time>2021-05-30T16:58:02Z</time>
      </trkpt>
      <trkpt lat="-12.1158850" lon="-76.7020750">
        <ele>977.7</ele>
        <time>2021-05-30T16:58:03Z</time>
      </trkpt>
      <trkpt lat="-12.1158080" lon="-76.7021550">
        <ele>977.0</ele>
        <time>2021-05-30T16:58:05Z</time>
      </trkpt>
      <trkpt lat="-12.1157720" lon="-76.7022000">
        <ele>976.6</ele>
        <time>2021-05-30T16:58:06Z</time>
      </trkpt>
      <trkpt lat="-12.1156860" lon="-76.7023000">
        <ele>975.5</ele>
        <time>2021-05-30T16:58:08Z</time>
      </trkpt>
      <trkpt lat="-12.1156420" lon="-76.7023510">
        <ele>975.0</ele>
        <time>2021-05-30T16:58:09Z</time>
      </trkpt>
      <trkpt lat="-12.1155450" lon="-76.7024450">
        <ele>973.8</ele>
        <time>2021-05-30T16:58:11Z</time>
      </trkpt>
      <trkpt lat="-12.1155020" lon="-76.7024970">
        <ele>973.2</ele>
        <time>2021-05-30T16:58:12Z</time>
      </trkpt>
      <trkpt lat="-12.1154030" lon="-76.7026130">
        <ele>971.8</ele>
        <time>2021-05-30T16:58:14Z</time>
      </trkpt>
      <trkpt lat="-12.1152990" lon="-76.7027280">
        <ele>970.5</ele>
        <time>2021-05-30T16:58:16Z</time>
      </trkpt>
      <trkpt lat="-12.1151930" lon="-76.7028310">
        <ele>969.3</ele>
        <time>2021-05-30T16:58:18Z</time>
      </trkpt>
      <trkpt lat="-12.1151410" lon="-76.7028800">
        <ele>968.8</ele>
        <time>2021-05-30T16:58:19Z</time>
      </trkpt>
      <trkpt lat="-12.1150430" lon="-76.7029810">
        <ele>967.6</ele>
        <time>2021-05-30T16:58:21Z</time>
      </trkpt>
      <trkpt lat="-12.1150000" lon="-76.7030350">
        <ele>966.9</ele>
        <time>2021-05-30T16:58:22Z</time>
      </trkpt>
      <trkpt lat="-12.1149340" lon="-76.7031520">
        <ele>965.7</ele>
        <time>2021-05-30T16:58:24Z</time>
      </trkpt>
      <trkpt lat="-12.1149080" lon="-76.7032210">
        <ele>965.0</ele>
        <time>2021-05-30T16:58:25Z</time>
      </trkpt>
      <trkpt lat="-12.1148530" lon="-76.7033700">
        <ele>963.9</ele>
        <time>2021-05-30T16:58:27Z</time>
      </trkpt>
      <trkpt lat="-12.1148260" lon="-76.7034470">
        <ele>963.3</ele>
        <time>2021-05-30T16:58:28Z</time>
      </trkpt>
      <trkpt lat="-12.1147710" lon="-76.7035980">
        <ele>962.2</ele>
        <time>2021-05-30T16:58:30Z</time>
      </trkpt>
      <trkpt lat="-12.1147500" lon="-76.7037190">
        <ele>961.2</ele>
        <time>2021-05-30T16:58:32Z</time>
      </trkpt>
      <trkpt lat="-12.1147770" lon="-76.7038410">
        <ele>959.9</ele>
        <time>2021-05-30T16:58:34Z</time>
      </trkpt>
      <trkpt lat="-12.1148200" lon="-76.7039830">
        <ele>958.2</ele>
        <time>2021-05-30T16:58:36Z</time>
      </trkpt>
      <trkpt lat="-12.1148270" lon="-76.7041410">
        <ele>956.7</ele>
        <time>2021-05-30T16:58:38Z</time>
      </trkpt>
      <trkpt lat="-12.1148130" lon="-76.7042220">
        <ele>956.0</ele>
        <time>2021-05-30T16:58:39Z</time>
      </trkpt>
      <trkpt lat="-12.1147520" lon="-76.7043800">
        <ele>954.8</ele>
        <time>2021-05-30T16:58:41Z</time>
      </trkpt>
      <trkpt lat="-12.1147160" lon="-76.7044530">
        <ele>954.2</ele>
        <time>2021-05-30T16:58:42Z</time>
      </trkpt>
      <trkpt lat="-12.1146700" lon="-76.7045160">
        <ele>953.7</ele>
        <time>2021-05-30T16:58:43Z</time>
      </trkpt>
      <trkpt lat="-12.1145720" lon="-76.7046310">
        <ele>952.5</ele>
        <time>2021-05-30T16:58:45Z</time>
      </trkpt>
      <trkpt lat="-12.1145250" lon="-76.7046860">
        <ele>951.9</ele>
        <time>2021-05-30T16:58:46Z</time>
      </trkpt>
      <trkpt lat="-12.1144800" lon="-76.7047460">
        <ele>951.1</ele>
        <time>2021-05-30T16:58:47Z</time>
      </trkpt>
      <trkpt lat="-12.1144060" lon="-76.7048860">
        <ele>949.4</ele>
        <time>2021-05-30T16:58:49Z</time>
      </trkpt>
      <trkpt lat="-12.1143790" lon="-76.7049610">
        <ele>948.6</ele>
        <time>2021-05-30T16:58:50Z</time>
      </trkpt>
      <trkpt lat="-12.1143690" lon="-76.7050440">
        <ele>947.7</ele>
        <time>2021-05-30T16:58:51Z</time>
      </trkpt>
      <trkpt lat="-12.1143620" lon="-76.7051290">
        <ele>946.9</ele>
        <time>2021-05-30T16:58:52Z</time>
      </trkpt>
      <trkpt lat="-12.1143610" lon="-76.7053000">
        <ele>945.4</ele>
        <time>2021-05-30T16:58:54Z</time>
      </trkpt>
      <trkpt lat="-12.1143620" lon="-76.7053790">
        <ele>944.7</ele>
        <time>2021-05-30T16:58:55Z</time>
      </trkpt>
      <trkpt lat="-12.1143850" lon="-76.7055390">
        <ele>943.4</ele>
        <time>2021-05-30T16:58:57Z</time>
      </trkpt>
      <trkpt lat="-12.1144400" lon="-76.7056940">
        <ele>942.3</ele>
        <time>2021-05-30T16:58:59Z</time>
      </trkpt>
      <trkpt lat="-12.1144800" lon="-76.7057670">
        <ele>941.7</ele>
        <time>2021-05-30T16:59:00Z</time>
      </trkpt>
      <trkpt lat="-12.1145280" lon="-76.7058340">
        <ele>941.1</ele>
        <time>2021-05-30T16:59:01Z</time>
      </trkpt>
      <trkpt lat="-12.1146360" lon="-76.7059420">
        <ele>939.9</ele>
        <time>2021-05-30T16:59:03Z</time>
      </trkpt>
      <trkpt lat="-12.1147500" lon="-76.7060410">
        <ele>938.7</ele>
        <time>2021-05-30T16:59:05Z</time>
      </trkpt>
      <trkpt lat="-12.1148620" lon="-76.7061330">
        <ele>937.5</ele>
        <time>2021-05-30T16:59:07Z</time>
      </trkpt>
      <trkpt lat="-12.1149170" lon="-76.7061860">
        <ele>936.9</ele>
        <time>2021-05-30T16:59:08Z</time>
      </trkpt>
      <trkpt lat="-12.1149680" lon="-76.7062400">
        <ele>936.3</ele>
        <time>2021-05-30T16:59:09Z</time>
      </trkpt>
      <trkpt lat="-12.1150610" lon="-76.7063460">
        <ele>935.1</ele>
        <time>2021-05-30T16:59:11Z</time>
      </trkpt>
      <trkpt lat="-12.1151240" lon="-76.7064870">
        <ele>933.7</ele>
        <time>2021-05-30T16:59:13Z</time>
      </trkpt>
      <trkpt lat="-12.1151420" lon="-76.7065650">
        <ele>932.9</ele>
        <time>2021-05-30T16:59:14Z</time>
      </trkpt>
      <trkpt lat="-12.1151580" lon="-76.7066490">
        <ele>932.1</ele>
        <time>2021-05-30T16:59:15Z</time>
      </trkpt>
      <trkpt lat="-12.1151930" lon="-76.7068160">
        <ele>930.5</ele>
        <time>2021-05-30T16:59:17Z</time>
      </trkpt>
      <trkpt lat="-12.1152350" lon="-76.7069810">
        <ele>928.9</ele>
        <time>2021-05-30T16:59:19Z</time>
      </trkpt>
      <trkpt lat="-12.1152670" lon="-76.7070600">
        <ele>928.2</ele>
        <time>2021-05-30T16:59:20Z</time>
      </trkpt>
      <trkpt lat="-12.1153270" lon="-76.7072190">
        <ele>926.7</ele>
        <time>2021-05-30T16:59:22Z</time>
      </trkpt>
      <trkpt lat="-12.1153510" lon="-76.7072980">
        <ele>926.0</ele>
        <time>2021-05-30T16:59:23Z</time>
      </trkpt>
      <trkpt lat="-12.1153790" lon="-76.7073790">
        <ele>925.3</ele>
        <time>2021-05-30T16:59:24Z</time>
      </trkpt>
      <trkpt lat="-12.1154550" lon="-76.7075260">
        <ele>924.0</ele>
        <time>2021-05-30T16:59:26Z</time>
      </trkpt>
      <trkpt lat="-12.1155600" lon="-76.7076570">
        <ele>922.8</ele>
        <time>2021-05-30T16:59:28Z</time>
      </trkpt>
      <trkpt lat="-12.1156150" lon="-76.7077180">
        <ele>922.1</ele>
        <time>2021-05-30T16:59:29Z</time>
      </trkpt>
      <trkpt lat="-12.1157270" lon="-76.7078400">
        <ele>920.8</ele>
        <time>2021-05-30T16:59:31Z</time>
      </trkpt>
      <trkpt lat="-12.1158380" lon="-76.7079720">
        <ele>919.5</ele>
        <time>2021-05-30T16:59:33Z</time>
      </trkpt>
      <trkpt lat="-12.1159350" lon="-76.7081020">
        <ele>918.3</ele>
        <time>2021-05-30T16:59:35Z</time>
      </trkpt>
      <trkpt lat="-12.1159710" lon="-76.7081720">
        <ele>917.7</ele>
        <time>2021-05-30T16:59:36Z</time>
      </trkpt>
      <trkpt lat="-12.1159930" lon="-76.7082520">
        <ele>917.1</ele>
        <time>2021-05-30T16:59:37Z</time>
      </trkpt>
      <trkpt lat="-12.1160170" lon="-76.7084180">
        <ele>915.6</ele>
        <time>2021-05-30T16:59:39Z</time>
      </trkpt>
      <trkpt lat="-12.1160190" lon="-76.7085700">
        <ele>914.1</ele>
        <time>2021-05-30T16:59:41Z</time>
      </trkpt>
      <trkpt lat="-12.1160220" lon="-76.7086510">
        <ele>913.4</ele>
        <time>2021-05-30T16:59:42Z</time>
      </trkpt>
      <trkpt lat="-12.1160530" lon="-76.7088100">
        <ele>912.2</ele>
        <time>2021-05-30T16:59:44Z</time>
      </trkpt>
      <trkpt lat="-12.1160810" lon="-76.7089760">
        <ele>911.2</ele>
        <time>2021-05-30T16:59:46Z</time>
      </trkpt>
      <trkpt lat="-12.1160970" lon="-76.7091370">
        <ele>910.4</ele>
        <time>2021-05-30T16:59:48Z</time>
      </trkpt>
      <trkpt lat="-12.1161060" lon="-76.7092150">
        <ele>910.0</ele>
        <time>2021-05-30T16:59:49Z</time>
      </trkpt>
      <trkpt lat="-12.1161380" lon="-76.7093610">
        <ele>909.2</ele>
        <time>2021-05-30T16:59:51Z</time>
      </trkpt>
      <trkpt lat="-12.1161530" lon="-76.7094280">
        <ele>908.9</ele>
        <time>2021-05-30T16:59:52Z</time>
      </trkpt>
      <trkpt lat="-12.1161840" lon="-76.7095680">
        <ele>908.2</ele>
        <time>2021-05-30T16:59:54Z</time>
      </trkpt>
      <trkpt lat="-12.1161960" lon="-76.7096400">
        <ele>907.9</ele>
        <time>2021-05-30T16:59:55Z</time>
      </trkpt>
      <trkpt lat="-12.1162100" lon="-76.7097130">
        <ele>907.5</ele>
        <time>2021-05-30T16:59:56Z</time>
      </trkpt>
      <trkpt lat="-12.1162260" lon="-76.7097780">
        <ele>907.1</ele>
        <time>2021-05-30T16:59:57Z</time>
      </trkpt>
      <trkpt lat="-12.1162660" lon="-76.7099060">
        <ele>906.1</ele>
        <time>2021-05-30T16:59:59Z</time>
      </trkpt>
      <trkpt lat="-12.1162830" lon="-76.7099720">
        <ele>905.6</ele>
        <time>2021-05-30T17:00:00Z</time>
      </trkpt>
      <trkpt lat="-12.1163220" lon="-76.7101140">
        <ele>904.5</ele>
        <time>2021-05-30T17:00:02Z</time>
      </trkpt>
      <trkpt lat="-12.1163640" lon="-76.7102520">
        <ele>903.5</ele>
        <time>2021-05-30T17:00:04Z</time>
      </trkpt>
      <trkpt lat="-12.1164080" lon="-76.7103840">
        <ele>902.6</ele>
        <time>2021-05-30T17:00:06Z</time>
      </trkpt>
      <trkpt lat="-12.1164260" lon="-76.7104510">
        <ele>902.2</ele>
        <time>2021-05-30T17:00:07Z</time>
      </trkpt>
      <trkpt lat="-12.1164670" lon="-76.7105780">
        <ele>901.4</ele>
        <time>2021-05-30T17:00:09Z</time>
      </trkpt>
      <trkpt lat="-12.1164820" lon="-76.7106410">
        <ele>901.0</ele>
        <time>2021-05-30T17:00:10Z</time>
      </trkpt>
      <trkpt lat="-12.1165180" lon="-76.7107800">
        <ele>900.1</ele>
        <time>2021-05-30T17:00:12Z</time>
      </trkpt>
      <trkpt lat="-12.1165380" lon="-76.7108480">
        <ele>899.7</ele>
        <time>2021-05-30T17:00:13Z</time>
      </trkpt>
      <trkpt lat="-12.1165620" lon="-76.7109090">
        <ele>899.3</ele>
        <time>2021-05-30T17:00:14Z</time>
      </trkpt>
      <trkpt lat="-12.1166010" lon="-76.7110210">
        <ele>898.6</ele>
        <time>2021-05-30T17:00:16Z</time>
      </trkpt>
      <trkpt lat="-12.1166530" lon="-76.7111400">
        <ele>897.7</ele>
        <time>2021-05-30T17:00:18Z</time>
      </trkpt>
      <trkpt lat="-12.1166750" lon="-76.7112040">
        <ele>897.2</ele>
        <time>2021-05-30T17:00:19Z</time>
      </trkpt>
      <trkpt lat="-12.1167190" lon="-76.7113290">
        <ele>896.3</ele>
        <time>2021-05-30T17:00:21Z</time>
      </trkpt>
      <trkpt lat="-12.1167420" lon="-76.7113880">
        <ele>895.8</ele>
        <time>2021-05-30T17:00:22Z</time>
      </trkpt>
      <trkpt lat="-12.1167890" lon="-76.7115210">
        <ele>894.7</ele>
        <time>2021-05-30T17:00:24Z</time>
      </trkpt>
      <trkpt lat="-12.1168410" lon="-76.7116620">
        <ele>893.3</ele>
        <time>2021-05-30T17:00:26Z</time>
      </trkpt>
      <trkpt lat="-12.1168890" lon="-76.7118040">
        <ele>892.1</ele>
        <time>2021-05-30T17:00:28Z</time>
      </trkpt>
      <trkpt lat="-12.1169550" lon="-76.7119390">
        <ele>890.9</ele>
        <time>2021-05-30T17:00:30Z</time>
      </trkpt>
      <trkpt lat="-12.1169860" lon="-76.7120080">
        <ele>890.4</ele>
        <time>2021-05-30T17:00:31Z</time>
      </trkpt>
      <trkpt lat="-12.1170200" lon="-76.7120770">
        <ele>889.8</ele>
        <time>2021-05-30T17:00:32Z</time>
      </trkpt>
      <trkpt lat="-12.1170750" lon="-76.7122210">
        <ele>888.8</ele>
        <time>2021-05-30T17:00:34Z</time>
      </trkpt>
      <trkpt lat="-12.1171270" lon="-76.7123640">
        <ele>887.8</ele>
        <time>2021-05-30T17:00:36Z</time>
      </trkpt>
      <trkpt lat="-12.1171870" lon="-76.7124960">
        <ele>887.0</ele>
        <time>2021-05-30T17:00:38Z</time>
      </trkpt>
      <trkpt lat="-12.1172170" lon="-76.7125600">
        <ele>886.6</ele>
        <time>2021-05-30T17:00:39Z</time>
      </trkpt>
      <trkpt lat="-12.1172870" lon="-76.7126770">
        <ele>885.7</ele>
        <time>2021-05-30T17:00:41Z</time>
      </trkpt>
      <trkpt lat="-12.1173270" lon="-76.7127410">
        <ele>885.2</ele>
        <time>2021-05-30T17:00:42Z</time>
      </trkpt>
      <trkpt lat="-12.1173970" lon="-76.7128720">
        <ele>884.3</ele>
        <time>2021-05-30T17:00:44Z</time>
      </trkpt>
      <trkpt lat="-12.1174420" lon="-76.7130040">
        <ele>883.2</ele>
        <time>2021-05-30T17:00:46Z</time>
      </trkpt>
      <trkpt lat="-12.1174530" lon="-76.7130730">
        <ele>882.7</ele>
        <time>2021-05-30T17:00:47Z</time>
      </trkpt>
      <trkpt lat="-12.1174650" lon="-76.7131420">
        <ele>882.2</ele>
        <time>2021-05-30T17:00:48Z</time>
      </trkpt>
      <trkpt lat="-12.1174900" lon="-76.7132810">
        <ele>881.3</ele>
        <time>2021-05-30T17:00:50Z</time>
      </trkpt>
      <trkpt lat="-12.1175050" lon="-76.7133540">
        <ele>880.8</ele>
        <time>2021-05-30T17:00:51Z</time>
      </trkpt>
      <trkpt lat="-12.1175210" lon="-76.7134240">
        <ele>880.3</ele>
        <time>2021-05-30T17:00:52Z</time>
      </trkpt>
      <trkpt lat="-12.1175450" lon="-76.7134870">
        <ele>879.8</ele>
        <time>2021-05-30T17:00:53Z</time>
      </trkpt>
      <trkpt lat="-12.1175880" lon="-76.7136100">
        <ele>878.9</ele>
        <time>2021-05-30T17:00:55Z</time>
      </trkpt>
      <trkpt lat="-12.1176050" lon="-76.7136740">
        <ele>878.5</ele>
        <time>2021-05-30T17:00:56Z</time>
      </trkpt>
      <trkpt lat="-12.1176540" lon="-76.7138010">
        <ele>877.7</ele>
        <time>2021-05-30T17:00:58Z</time>
      </trkpt>
      <trkpt lat="-12.1177330" lon="-76.7139470">
        <ele>876.9</ele>
        <time>2021-05-30T17:01:00Z</time>
      </trkpt>
      <trkpt lat="-12.1177680" lon="-76.7140140">
        <ele>876.5</ele>
        <time>2021-05-30T17:01:01Z</time>
      </trkpt>
      <trkpt lat="-12.1178220" lon="-76.7141430">
        <ele>875.7</ele>
        <time>2021-05-30T17:01:03Z</time>
      </trkpt>
      <trkpt lat="-12.1178620" lon="-76.7142700">
        <ele>874.8</ele>
        <time>2021-05-30T17:01:05Z</time>
      </trkpt>
      <trkpt lat="-12.1178760" lon="-76.7143380">
        <ele>874.4</ele>
        <time>2021-05-30T17:01:06Z</time>
      </trkpt>
      <trkpt lat="-12.1178990" lon="-76.7144650">
        <ele>873.7</ele>
        <time>2021-05-30T17:01:08Z</time>
      </trkpt>
      <trkpt lat="-12.1179170" lon="-76.7145380">
        <ele>873.3</ele>
        <time>2021-05-30T17:01:09Z</time>
      </trkpt>
      <trkpt lat="-12.1179520" lon="-76.7146650">
        <ele>872.4</ele>
        <time>2021-05-30T17:01:11Z</time>
      </trkpt>
      <trkpt lat="-12.1179640" lon="-76.7147280">
        <ele>872.0</ele>
        <time>2021-05-30T17:01:12Z</time>
      </trkpt>
      <trkpt lat="-12.1179870" lon="-76.7148560">
        <ele>871.1</ele>
        <time>2021-05-30T17:01:14Z</time>
      </trkpt>
      <trkpt lat="-12.1180100" lon="-76.7149210">
        <ele>870.6</ele>
        <time>2021-05-30T17:01:15Z</time>
      </trkpt>
      <trkpt lat="-12.1180520" lon="-76.7150470">
        <ele>869.6</ele>
        <time>2021-05-30T17:01:17Z</time>
      </trkpt>
      <trkpt lat="-12.1180920" lon="-76.7151730">
        <ele>868.6</ele>
        <time>2021-05-30T17:01:19Z</time>
      </trkpt>
      <trkpt lat="-12.1181180" lon="-76.7152330">
        <ele>868.0</ele>
        <time>2021-05-30T17:01:20Z</time>
      </trkpt>
      <trkpt lat="-12.1181720" lon="-76.7153560">
        <ele>866.9</ele>
        <time>2021-05-30T17:01:22Z</time>
      </trkpt>
      <trkpt lat="-12.1181860" lon="-76.7154920">
        <ele>865.7</ele>
        <time>2021-05-30T17:01:24Z</time>
      </trkpt>
      <trkpt lat="-12.1181740" lon="-76.7155630">
        <ele>865.2</ele>
        <time>2021-05-30T17:01:25Z</time>
      </trkpt>
      <trkpt lat="-12.1181280" lon="-76.7157190">
        <ele>864.1</ele>
        <time>2021-05-30T17:01:27Z</time>
      </trkpt>
      <trkpt lat="-12.1181030" lon="-76.7158840">
        <ele>863.3</ele>
        <time>2021-05-30T17:01:29Z</time>
      </trkpt>
      <trkpt lat="-12.1181090" lon="-76.7159620">
        <ele>863.0</ele>
        <time>2021-05-30T17:01:30Z</time>
      </trkpt>
      <trkpt lat="-12.1181730" lon="-76.7160950">
        <ele>862.3</ele>
        <time>2021-05-30T17:01:32Z</time>
      </trkpt>
      <trkpt lat="-12.1182590" lon="-76.7161950">
        <ele>861.7</ele>
        <time>2021-05-30T17:01:34Z</time>
      </trkpt>
      <trkpt lat="-12.1183880" lon="-76.7162910">
        <ele>861.0</ele>
        <time>2021-05-30T17:01:36Z</time>
      </trkpt>
      <trkpt lat="-12.1184600" lon="-76.7163390">
        <ele>860.7</ele>
        <time>2021-05-30T17:01:37Z</time>
      </trkpt>
      <trkpt lat="-12.1185890" lon="-76.7164320">
        <ele>860.2</ele>
        <time>2021-05-30T17:01:39Z</time>
      </trkpt>
      <trkpt lat="-12.1186470" lon="-76.7164880">
        <ele>859.8</ele>
        <time>2021-05-30T17:01:40Z</time>
      </trkpt>
      <trkpt lat="-12.1187050" lon="-76.7165540">
        <ele>859.5</ele>
        <time>2021-05-30T17:01:41Z</time>
      </trkpt>
      <trkpt lat="-12.1188240" lon="-76.7166730">
        <ele>858.4</ele>
        <time>2021-05-30T17:01:43Z</time>
      </trkpt>
      <trkpt lat="-12.1188760" lon="-76.7167330">
        <ele>857.8</ele>
        <time>2021-05-30T17:01:44Z</time>
      </trkpt>
      <trkpt lat="-12.1189690" lon="-76.7168560">
        <ele>856.5</ele>
        <time>2021-05-30T17:01:46Z</time>
      </trkpt>
      <trkpt lat="-12.1190680" lon="-76.7169800">
        <ele>855.0</ele>
        <time>2021-05-30T17:01:48Z</time>
      </trkpt>
      <trkpt lat="-12.1191170" lon="-76.7170550">
        <ele>854.2</ele>
        <time>2021-05-30T17:01:49Z</time>
      </trkpt>
      <trkpt lat="-12.1191640" lon="-76.7171390">
        <ele>853.5</ele>
        <time>2021-05-30T17:01:50Z</time>
      </trkpt>
      <trkpt lat="-12.1192520" lon="-76.7173060">
        <ele>852.2</ele>
        <time>2021-05-30T17:01:52Z</time>
      </trkpt>
      <trkpt lat="-12.1192930" lon="-76.7173900">
        <ele>851.8</ele>
        <time>2021-05-30T17:01:53Z</time>
      </trkpt>
      <trkpt lat="-12.1193730" lon="-76.7175340">
        <ele>851.2</ele>
        <time>2021-05-30T17:01:55Z</time>
      </trkpt>
      <trkpt lat="-12.1194310" lon="-76.7175820">
        <ele>851.2</ele>
        <time>2021-05-30T17:01:56Z</time>
      </trkpt>
      <trkpt lat="-12.1194960" lon="-76.7176160">
        <ele>851.2</ele>
        <time>2021-05-30T17:01:57Z</time>
      </trkpt>
      <trkpt lat="-12.1196210" lon="-76.7176700">
        <ele>851.2</ele>
        <time>2021-05-30T17:01:59Z</time>
      </trkpt>
      <trkpt lat="-12.1197310" lon="-76.7177360">
        <ele>850.8</ele>
        <time>2021-05-30T17:02:01Z</time>
      </trkpt>
      <trkpt lat="-12.1197810" lon="-76.7177730">
        <ele>850.6</ele>
        <time>2021-05-30T17:02:02Z</time>
      </trkpt>
      <trkpt lat="-12.1198910" lon="-76.7178560">
        <ele>849.9</ele>
        <time>2021-05-30T17:02:04Z</time>
      </trkpt>
      <trkpt lat="-12.1200060" lon="-76.7179330">
        <ele>849.0</ele>
        <time>2021-05-30T17:02:06Z</time>
      </trkpt>
      <trkpt lat="-12.1201120" lon="-76.7180190">
        <ele>848.2</ele>
        <time>2021-05-30T17:02:08Z</time>
      </trkpt>
      <trkpt lat="-12.1201720" lon="-76.7180510">
        <ele>847.8</ele>
        <time>2021-05-30T17:02:09Z</time>
      </trkpt>
      <trkpt lat="-12.1202940" lon="-76.7181240">
        <ele>846.9</ele>
        <time>2021-05-30T17:02:11Z</time>
      </trkpt>
      <trkpt lat="-12.1203520" lon="-76.7181720">
        <ele>846.3</ele>
        <time>2021-05-30T17:02:12Z</time>
      </trkpt>
      <trkpt lat="-12.1204470" lon="-76.7182800">
        <ele>845.4</ele>
        <time>2021-05-30T17:02:14Z</time>
      </trkpt>
      <trkpt lat="-12.1205140" lon="-76.7184060">
        <ele>844.4</ele>
        <time>2021-05-30T17:02:16Z</time>
      </trkpt>
      <trkpt lat="-12.1205370" lon="-76.7184830">
        <ele>843.8</ele>
        <time>2021-05-30T17:02:17Z</time>
      </trkpt>
      <trkpt lat="-12.1205540" lon="-76.7185600">
        <ele>843.1</ele>
        <time>2021-05-30T17:02:18Z</time>
      </trkpt>
      <trkpt lat="-12.1205800" lon="-76.7186350">
        <ele>842.4</ele>
        <time>2021-05-30T17:02:19Z</time>
      </trkpt>
      <trkpt lat="-12.1206380" lon="-76.7187830">
        <ele>841.2</ele>
        <time>2021-05-30T17:02:21Z</time>
      </trkpt>
      <trkpt lat="-12.1207060" lon="-76.7189370">
        <ele>840.1</ele>
        <time>2021-05-30T17:02:23Z</time>
      </trkpt>
      <trkpt lat="-12.1207390" lon="-76.7190110">
        <ele>839.6</ele>
        <time>2021-05-30T17:02:24Z</time>
      </trkpt>
      <trkpt lat="-12.1208050" lon="-76.7191530">
        <ele>838.7</ele>
        <time>2021-05-30T17:02:26Z</time>
      </trkpt>
      <trkpt lat="-12.1208870" lon="-76.7192880">
        <ele>837.8</ele>
        <time>2021-05-30T17:02:28Z</time>
      </trkpt>
      <trkpt lat="-12.1209530" lon="-76.7194280">
        <ele>836.8</ele>
        <time>2021-05-30T17:02:30Z</time>
      </trkpt>
      <trkpt lat="-12.1209850" lon="-76.7194930">
        <ele>836.3</ele>
        <time>2021-05-30T17:02:31Z</time>
      </trkpt>
      <trkpt lat="-12.1210570" lon="-76.7196100">
        <ele>835.4</ele>
        <time>2021-05-30T17:02:33Z</time>
      </trkpt>
      <trkpt lat="-12.1211390" lon="-76.7197170">
        <ele>834.4</ele>
        <time>2021-05-30T17:02:35Z</time>
      </trkpt>
      <trkpt lat="-12.1211790" lon="-76.7197730">
        <ele>833.9</ele>
        <time>2021-05-30T17:02:36Z</time>
      </trkpt>
      <trkpt lat="-12.1212210" lon="-76.7198240">
        <ele>833.4</ele>
        <time>2021-05-30T17:02:37Z</time>
      </trkpt>
      <trkpt lat="-12.1213000" lon="-76.7199280">
        <ele>832.3</ele>
        <time>2021-05-30T17:02:39Z</time>
      </trkpt>
      <trkpt lat="-12.1213300" lon="-76.7199870">
        <ele>831.7</ele>
        <time>2021-05-30T17:02:40Z</time>
      </trkpt>
      <trkpt lat="-12.1213830" lon="-76.7201050">
        <ele>830.6</ele>
        <time>2021-05-30T17:02:42Z</time>
      </trkpt>
      <trkpt lat="-12.1214250" lon="-76.7202310">
        <ele>829.4</ele>
        <time>2021-05-30T17:02:44Z</time>
      </trkpt>
      <trkpt lat="-12.1214540" lon="-76.7203700">
        <ele>828.2</ele>
        <time>2021-05-30T17:02:46Z</time>
      </trkpt>
      <trkpt lat="-12.1214550" lon="-76.7205180">
        <ele>827.1</ele>
        <time>2021-05-30T17:02:48Z</time>
      </trkpt>
      <trkpt lat="-12.1214270" lon="-76.7206750">
        <ele>826.1</ele>
        <time>2021-05-30T17:02:50Z</time>
      </trkpt>
      <trkpt lat="-12.1214020" lon="-76.7208300">
        <ele>825.2</ele>
        <time>2021-05-30T17:02:52Z</time>
      </trkpt>
      <trkpt lat="-12.1213940" lon="-76.7209130">
        <ele>824.8</ele>
        <time>2021-05-30T17:02:53Z</time>
      </trkpt>
      <trkpt lat="-12.1213870" lon="-76.7209910">
        <ele>824.6</ele>
        <time>2021-05-30T17:02:54Z</time>
      </trkpt>
      <trkpt lat="-12.1213740" lon="-76.7211370">
        <ele>824.5</ele>
        <time>2021-05-30T17:02:56Z</time>
      </trkpt>
      <trkpt lat="-12.1213600" lon="-76.7212040">
        <ele>824.5</ele>
        <time>2021-05-30T17:02:57Z</time>
      </trkpt>
      <trkpt lat="-12.1213380" lon="-76.7212600">
        <ele>824.6</ele>
        <time>2021-05-30T17:02:58Z</time>
      </trkpt>
      <trkpt lat="-12.1213110" lon="-76.7213080">
        <ele>824.6</ele>
        <time>2021-05-30T17:02:59Z</time>
      </trkpt>
      <trkpt lat="-12.1212450" lon="-76.7213990">
        <ele>824.5</ele>
        <time>2021-05-30T17:03:01Z</time>
      </trkpt>
      <trkpt lat="-12.1212140" lon="-76.7214570">
        <ele>824.4</ele>
        <time>2021-05-30T17:03:02Z</time>
      </trkpt>
      <trkpt lat="-12.1211870" lon="-76.7215690">
        <ele>824.3</ele>
        <time>2021-05-30T17:03:04Z</time>
      </trkpt>
      <trkpt lat="-12.1211880" lon="-76.7216300">
        <ele>824.3</ele>
        <time>2021-05-30T17:03:05Z</time>
      </trkpt>
      <trkpt lat="-12.1211870" lon="-76.7217010">
        <ele>824.3</ele>
        <time>2021-05-30T17:03:06Z</time>
      </trkpt>
      <trkpt lat="-12.1211900" lon="-76.7218390">
        <ele>824.1</ele>
        <time>2021-05-30T17:03:08Z</time>
      </trkpt>
      <trkpt lat="-12.1211890" lon="-76.7219040">
        <ele>823.9</ele>
        <time>2021-05-30T17:03:09Z</time>
      </trkpt>
      <trkpt lat="-12.1211860" lon="-76.7219600">
        <ele>823.7</ele>
        <time>2021-05-30T17:03:10Z</time>
      </trkpt>
      <trkpt lat="-12.1211960" lon="-76.7220620">
        <ele>823.3</ele>
        <time>2021-05-30T17:03:12Z</time>
      </trkpt>
      <trkpt lat="-12.1212160" lon="-76.7221060">
        <ele>823.1</ele>
        <time>2021-05-30T17:03:13Z</time>
      </trkpt>
      <trkpt lat="-12.1212380" lon="-76.7221510">
        <ele>822.8</ele>
        <time>2021-05-30T17:03:14Z</time>
      </trkpt>
      <trkpt lat="-12.1213230" lon="-76.7222240">
        <ele>822.1</ele>
        <time>2021-05-30T17:03:16Z</time>
      </trkpt>
      <trkpt lat="-12.1213740" lon="-76.7222560">
        <ele>821.7</ele>
        <time>2021-05-30T17:03:17Z</time>
      </trkpt>
      <trkpt lat="-12.1214710" lon="-76.7222970">
        <ele>820.8</ele>
        <time>2021-05-30T17:03:19Z</time>
      </trkpt>
      <trkpt lat="-12.1215410" lon="-76.7223220">
        <ele>820.1</ele>
        <time>2021-05-30T17:03:21Z</time>
      </trkpt>
      <trkpt lat="-12.1215730" lon="-76.7223440">
        <ele>819.7</ele>
        <time>2021-05-30T17:03:23Z</time>
      </trkpt>
      <trkpt lat="-12.1215840" lon="-76.7223540">
        <ele>819.6</ele>
        <time>2021-05-30T17:03:24Z</time>
      </trkpt>
      <trkpt lat="-12.1215850" lon="-76.7223620">
        <ele>819.5</ele>
        <time>2021-05-30T17:03:25Z</time>
      </trkpt>
      <trkpt lat="-12.1215830" lon="-76.7223740">
        <ele>819.4</ele>
        <time>2021-05-30T17:03:27Z</time>
      </trkpt>
      <trkpt lat="-12.1215880" lon="-76.7223740">
        <ele>819.4</ele>
        <time>2021-05-30T17:03:29Z</time>
      </trkpt>
      <trkpt lat="-12.1216040" lon="-76.7223610">
        <ele>819.2</ele>
        <time>2021-05-30T17:03:31Z</time>
      </trkpt>
      <trkpt lat="-12.1216090" lon="-76.7223530">
        <ele>819.1</ele>
        <time>2021-05-30T17:03:32Z</time>
      </trkpt>
      <trkpt lat="-12.1216210" lon="-76.7223450">
        <ele>819.0</ele>
        <time>2021-05-30T17:03:34Z</time>
      </trkpt>
      <trkpt lat="-12.1216290" lon="-76.7223480">
        <ele>818.9</ele>
        <time>2021-05-30T17:03:36Z</time>
      </trkpt>
      <trkpt lat="-12.1216380" lon="-76.7223510">
        <ele>818.8</ele>
        <time>2021-05-30T17:03:38Z</time>
      </trkpt>
      <trkpt lat="-12.1216460" lon="-76.7223540">
        <ele>818.7</ele>
        <time>2021-05-30T17:03:39Z</time>
      </trkpt>
      <trkpt lat="-12.1216550" lon="-76.7223560">
        <ele>818.6</ele>
        <time>2021-05-30T17:03:41Z</time>
      </trkpt>
      <trkpt lat="-12.1216640" lon="-76.7223590">
        <ele>818.5</ele>
        <time>2021-05-30T17:03:42Z</time>
      </trkpt>
      <trkpt lat="-12.1216720" lon="-76.7223620">
        <ele>818.5</ele>
        <time>2021-05-30T17:03:43Z</time>
      </trkpt>
      <trkpt lat="-12.1216810" lon="-76.7223650">
        <ele>818.4</ele>
        <time>2021-05-30T17:03:44Z</time>
      </trkpt>
      <trkpt lat="-12.1216890" lon="-76.7223680">
        <ele>818.3</ele>
        <time>2021-05-30T17:03:48Z</time>
      </trkpt>
      <trkpt lat="-12.1216980" lon="-76.7223710">
        <ele>818.2</ele>
        <time>2021-05-30T17:03:49Z</time>
      </trkpt>
      <trkpt lat="-12.1217790" lon="-76.7224610">
        <ele>817.2</ele>
        <time>2021-05-30T17:03:51Z</time>
      </trkpt>
      <trkpt lat="-12.1218440" lon="-76.7225880">
        <ele>816.1</ele>
        <time>2021-05-30T17:03:53Z</time>
      </trkpt>
      <trkpt lat="-12.1218720" lon="-76.7226510">
        <ele>815.6</ele>
        <time>2021-05-30T17:03:54Z</time>
      </trkpt>
      <trkpt lat="-12.1219290" lon="-76.7227530">
        <ele>814.9</ele>
        <time>2021-05-30T17:03:56Z</time>
      </trkpt>
      <trkpt lat="-12.1219570" lon="-76.7228070">
        <ele>814.5</ele>
        <time>2021-05-30T17:03:57Z</time>
      </trkpt>
      <trkpt lat="-12.1220310" lon="-76.7229120">
        <ele>813.8</ele>
        <time>2021-05-30T17:03:59Z</time>
      </trkpt>
      <trkpt lat="-12.1220580" lon="-76.7229680">
        <ele>813.4</ele>
        <time>2021-05-30T17:04:00Z</time>
      </trkpt>
      <trkpt lat="-12.1220770" lon="-76.7230320">
        <ele>813.1</ele>
        <time>2021-05-30T17:04:01Z</time>
      </trkpt>
      <trkpt lat="-12.1221090" lon="-76.7231710">
        <ele>812.4</ele>
        <time>2021-05-30T17:04:03Z</time>
      </trkpt>
      <trkpt lat="-12.1220940" lon="-76.7233130">
        <ele>811.7</ele>
        <time>2021-05-30T17:04:05Z</time>
      </trkpt>
      <trkpt lat="-12.1220570" lon="-76.7233840">
        <ele>811.4</ele>
        <time>2021-05-30T17:04:06Z</time>
      </trkpt>
      <trkpt lat="-12.1219730" lon="-76.7235130">
        <ele>810.8</ele>
        <time>2021-05-30T17:04:08Z</time>
      </trkpt>
      <trkpt lat="-12.1219020" lon="-76.7236380">
        <ele>810.2</ele>
        <time>2021-05-30T17:04:10Z</time>
      </trkpt>
      <trkpt lat="-12.1218790" lon="-76.7237000">
        <ele>809.8</ele>
        <time>2021-05-30T17:04:11Z</time>
      </trkpt>
      <trkpt lat="-12.1218390" lon="-76.7238380">
        <ele>809.1</ele>
        <time>2021-05-30T17:04:13Z</time>
      </trkpt>
      <trkpt lat="-12.1218360" lon="-76.7240010">
        <ele>808.0</ele>
        <time>2021-05-30T17:04:15Z</time>
      </trkpt>
      <trkpt lat="-12.1218410" lon="-76.7240860">
        <ele>807.5</ele>
        <time>2021-05-30T17:04:16Z</time>
      </trkpt>
      <trkpt lat="-12.1218600" lon="-76.7242440">
        <ele>806.4</ele>
        <time>2021-05-30T17:04:18Z</time>
      </trkpt>
      <trkpt lat="-12.1218830" lon="-76.7243850">
        <ele>805.3</ele>
        <time>2021-05-30T17:04:20Z</time>
      </trkpt>
      <trkpt lat="-12.1218970" lon="-76.7244550">
        <ele>804.7</ele>
        <time>2021-05-30T17:04:21Z</time>
      </trkpt>
      <trkpt lat="-12.1219090" lon="-76.7245240">
        <ele>804.2</ele>
        <time>2021-05-30T17:04:22Z</time>
      </trkpt>
      <trkpt lat="-12.1219210" lon="-76.7246600">
        <ele>803.2</ele>
        <time>2021-05-30T17:04:24Z</time>
      </trkpt>
      <trkpt lat="-12.1219440" lon="-76.7248040">
        <ele>802.2</ele>
        <time>2021-05-30T17:04:26Z</time>
      </trkpt>
      <trkpt lat="-12.1219670" lon="-76.7248700">
        <ele>801.8</ele>
        <time>2021-05-30T17:04:27Z</time>
      </trkpt>
      <trkpt lat="-12.1220550" lon="-76.7249650">
        <ele>801.0</ele>
        <time>2021-05-30T17:04:29Z</time>
      </trkpt>
      <trkpt lat="-12.1221780" lon="-76.7250230">
        <ele>800.3</ele>
        <time>2021-05-30T17:04:31Z</time>
      </trkpt>
      <trkpt lat="-12.1222990" lon="-76.7250710">
        <ele>799.5</ele>
        <time>2021-05-30T17:04:33Z</time>
      </trkpt>
      <trkpt lat="-12.1224160" lon="-76.7251320">
        <ele>798.6</ele>
        <time>2021-05-30T17:04:35Z</time>
      </trkpt>
      <trkpt lat="-12.1224770" lon="-76.7251620">
        <ele>798.2</ele>
        <time>2021-05-30T17:04:36Z</time>
      </trkpt>
      <trkpt lat="-12.1225960" lon="-76.7252340">
        <ele>797.3</ele>
        <time>2021-05-30T17:04:38Z</time>
      </trkpt>
      <trkpt lat="-12.1227080" lon="-76.7252990">
        <ele>796.5</ele>
        <time>2021-05-30T17:04:40Z</time>
      </trkpt>
      <trkpt lat="-12.1228220" lon="-76.7253440">
        <ele>795.9</ele>
        <time>2021-05-30T17:04:42Z</time>
      </trkpt>
      <trkpt lat="-12.1229350" lon="-76.7254060">
        <ele>795.2</ele>
        <time>2021-05-30T17:04:44Z</time>
      </trkpt>
      <trkpt lat="-12.1229910" lon="-76.7255240">
        <ele>794.5</ele>
        <time>2021-05-30T17:04:46Z</time>
      </trkpt>
      <trkpt lat="-12.1229950" lon="-76.7255870">
        <ele>794.2</ele>
        <time>2021-05-30T17:04:47Z</time>
      </trkpt>
      <trkpt lat="-12.1229610" lon="-76.7257110">
        <ele>793.6</ele>
        <time>2021-05-30T17:04:49Z</time>
      </trkpt>
      <trkpt lat="-12.1228860" lon="-76.7258290">
        <ele>793.0</ele>
        <time>2021-05-30T17:04:51Z</time>
      </trkpt>
      <trkpt lat="-12.1228400" lon="-76.7258830">
        <ele>792.6</ele>
        <time>2021-05-30T17:04:52Z</time>
      </trkpt>
      <trkpt lat="-12.1227420" lon="-76.7259860">
        <ele>792.1</ele>
        <time>2021-05-30T17:04:54Z</time>
      </trkpt>
      <trkpt lat="-12.1226890" lon="-76.7261090">
        <ele>791.3</ele>
        <time>2021-05-30T17:04:56Z</time>
      </trkpt>
      <trkpt lat="-12.1226980" lon="-76.7262460">
        <ele>790.4</ele>
        <time>2021-05-30T17:04:58Z</time>
      </trkpt>
      <trkpt lat="-12.1227270" lon="-76.7263070">
        <ele>790.0</ele>
        <time>2021-05-30T17:04:59Z</time>
      </trkpt>
      <trkpt lat="-12.1227620" lon="-76.7263660">
        <ele>789.6</ele>
        <time>2021-05-30T17:05:00Z</time>
      </trkpt>
      <trkpt lat="-12.1228620" lon="-76.7264670">
        <ele>788.7</ele>
        <time>2021-05-30T17:05:02Z</time>
      </trkpt>
      <trkpt lat="-12.1229790" lon="-76.7265580">
        <ele>787.8</ele>
        <time>2021-05-30T17:05:04Z</time>
      </trkpt>
      <trkpt lat="-12.1230800" lon="-76.7266620">
        <ele>786.9</ele>
        <time>2021-05-30T17:05:06Z</time>
      </trkpt>
      <trkpt lat="-12.1231310" lon="-76.7267850">
        <ele>786.0</ele>
        <time>2021-05-30T17:05:08Z</time>
      </trkpt>
      <trkpt lat="-12.1231580" lon="-76.7269140">
        <ele>785.0</ele>
        <time>2021-05-30T17:05:10Z</time>
      </trkpt>
      <trkpt lat="-12.1232060" lon="-76.7270450">
        <ele>784.0</ele>
        <time>2021-05-30T17:05:12Z</time>
      </trkpt>
      <trkpt lat="-12.1232460" lon="-76.7271780">
        <ele>783.1</ele>
        <time>2021-05-30T17:05:14Z</time>
      </trkpt>
      <trkpt lat="-12.1232700" lon="-76.7273200">
        <ele>782.4</ele>
        <time>2021-05-30T17:05:16Z</time>
      </trkpt>
      <trkpt lat="-12.1233050" lon="-76.7274770">
        <ele>781.6</ele>
        <time>2021-05-30T17:05:18Z</time>
      </trkpt>
      <trkpt lat="-12.1233440" lon="-76.7276280">
        <ele>780.9</ele>
        <time>2021-05-30T17:05:20Z</time>
      </trkpt>
      <trkpt lat="-12.1233750" lon="-76.7277620">
        <ele>780.3</ele>
        <time>2021-05-30T17:05:22Z</time>
      </trkpt>
      <trkpt lat="-12.1233900" lon="-76.7279140">
        <ele>779.6</ele>
        <time>2021-05-30T17:05:24Z</time>
      </trkpt>
      <trkpt lat="-12.1234000" lon="-76.7280600">
        <ele>778.6</ele>
        <time>2021-05-30T17:05:26Z</time>
      </trkpt>
      <trkpt lat="-12.1234010" lon="-76.7281330">
        <ele>778.1</ele>
        <time>2021-05-30T17:05:27Z</time>
      </trkpt>
      <trkpt lat="-12.1233960" lon="-76.7282750">
        <ele>777.2</ele>
        <time>2021-05-30T17:05:29Z</time>
      </trkpt>
      <trkpt lat="-12.1233970" lon="-76.7283450">
        <ele>776.8</ele>
        <time>2021-05-30T17:05:30Z</time>
      </trkpt>
      <trkpt lat="-12.1234040" lon="-76.7284130">
        <ele>776.4</ele>
        <time>2021-05-30T17:05:31Z</time>
      </trkpt>
      <trkpt lat="-12.1234300" lon="-76.7285480">
        <ele>775.6</ele>
        <time>2021-05-30T17:05:33Z</time>
      </trkpt>
      <trkpt lat="-12.1234740" lon="-76.7286710">
        <ele>774.9</ele>
        <time>2021-05-30T17:05:35Z</time>
      </trkpt>
      <trkpt lat="-12.1235070" lon="-76.7287330">
        <ele>774.5</ele>
        <time>2021-05-30T17:05:36Z</time>
      </trkpt>
      <trkpt lat="-12.1235380" lon="-76.7287990">
        <ele>774.2</ele>
        <time>2021-05-30T17:05:37Z</time>
      </trkpt>
      <trkpt lat="-12.1235690" lon="-76.7288660">
        <ele>773.8</ele>
        <time>2021-05-30T17:05:38Z</time>
      </trkpt>
      <trkpt lat="-12.1236320" lon="-76.7290030">
        <ele>772.8</ele>
        <time>2021-05-30T17:05:40Z</time>
      </trkpt>
      <trkpt lat="-12.1236950" lon="-76.7291360">
        <ele>771.8</ele>
        <time>2021-05-30T17:05:42Z</time>
      </trkpt>
      <trkpt lat="-12.1237200" lon="-76.7292030">
        <ele>771.4</ele>
        <time>2021-05-30T17:05:43Z</time>
      </trkpt>
      <trkpt lat="-12.1237850" lon="-76.7293260">
        <ele>770.4</ele>
        <time>2021-05-30T17:05:45Z</time>
      </trkpt>
      <trkpt lat="-12.1238140" lon="-76.7293870">
        <ele>770.0</ele>
        <time>2021-05-30T17:05:46Z</time>
      </trkpt>
      <trkpt lat="-12.1238420" lon="-76.7294470">
        <ele>769.5</ele>
        <time>2021-05-30T17:05:47Z</time>
      </trkpt>
      <trkpt lat="-12.1238940" lon="-76.7295680">
        <ele>768.7</ele>
        <time>2021-05-30T17:05:49Z</time>
      </trkpt>
      <trkpt lat="-12.1239530" lon="-76.7296940">
        <ele>767.9</ele>
        <time>2021-05-30T17:05:51Z</time>
      </trkpt>
      <trkpt lat="-12.1239860" lon="-76.7297510">
        <ele>767.4</ele>
        <time>2021-05-30T17:05:52Z</time>
      </trkpt>
      <trkpt lat="-12.1240530" lon="-76.7298610">
        <ele>766.6</ele>
        <time>2021-05-30T17:05:54Z</time>
      </trkpt>
      <trkpt lat="-12.1241230" lon="-76.7299810">
        <ele>765.7</ele>
        <time>2021-05-30T17:05:56Z</time>
      </trkpt>
      <trkpt lat="-12.1241500" lon="-76.7300450">
        <ele>765.3</ele>
        <time>2021-05-30T17:05:57Z</time>
      </trkpt>
      <trkpt lat="-12.1241890" lon="-76.7301720">
        <ele>764.6</ele>
        <time>2021-05-30T17:05:59Z</time>
      </trkpt>
      <trkpt lat="-12.1242070" lon="-76.7302440">
        <ele>764.2</ele>
        <time>2021-05-30T17:06:00Z</time>
      </trkpt>
      <trkpt lat="-12.1242370" lon="-76.7303780">
        <ele>763.3</ele>
        <time>2021-05-30T17:06:02Z</time>
      </trkpt>
      <trkpt lat="-12.1242540" lon="-76.7304420">
        <ele>762.8</ele>
        <time>2021-05-30T17:06:03Z</time>
      </trkpt>
      <trkpt lat="-12.1242790" lon="-76.7305000">
        <ele>762.4</ele>
        <time>2021-05-30T17:06:04Z</time>
      </trkpt>
      <trkpt lat="-12.1243040" lon="-76.7305600">
        <ele>761.9</ele>
        <time>2021-05-30T17:06:05Z</time>
      </trkpt>
      <trkpt lat="-12.1243490" lon="-76.7306910">
        <ele>761.0</ele>
        <time>2021-05-30T17:06:07Z</time>
      </trkpt>
      <trkpt lat="-12.1243710" lon="-76.7307570">
        <ele>760.5</ele>
        <time>2021-05-30T17:06:08Z</time>
      </trkpt>
      <trkpt lat="-12.1244190" lon="-76.7308880">
        <ele>759.6</ele>
        <time>2021-05-30T17:06:10Z</time>
      </trkpt>
      <trkpt lat="-12.1244770" lon="-76.7310230">
        <ele>758.8</ele>
        <time>2021-05-30T17:06:12Z</time>
      </trkpt>
      <trkpt lat="-12.1245290" lon="-76.7311550">
        <ele>758.0</ele>
        <time>2021-05-30T17:06:14Z</time>
      </trkpt>
      <trkpt lat="-12.1245550" lon="-76.7312230">
        <ele>757.6</ele>
        <time>2021-05-30T17:06:15Z</time>
      </trkpt>
      <trkpt lat="-12.1245850" lon="-76.7312920">
        <ele>757.2</ele>
        <time>2021-05-30T17:06:16Z</time>
      </trkpt>
      <trkpt lat="-12.1246540" lon="-76.7314080">
        <ele>756.4</ele>
        <time>2021-05-30T17:06:18Z</time>
      </trkpt>
      <trkpt lat="-12.1247390" lon="-76.7315070">
        <ele>755.7</ele>
        <time>2021-05-30T17:06:20Z</time>
      </trkpt>
      <trkpt lat="-12.1248250" lon="-76.7316040">
        <ele>755.0</ele>
        <time>2021-05-30T17:06:22Z</time>
      </trkpt>
      <trkpt lat="-12.1248680" lon="-76.7316520">
        <ele>754.6</ele>
        <time>2021-05-30T17:06:23Z</time>
      </trkpt>
      <trkpt lat="-12.1249600" lon="-76.7317490">
        <ele>753.9</ele>
        <time>2021-05-30T17:06:25Z</time>
      </trkpt>
      <trkpt lat="-12.1250050" lon="-76.7317970">
        <ele>753.6</ele>
        <time>2021-05-30T17:06:26Z</time>
      </trkpt>
      <trkpt lat="-12.1250960" lon="-76.7318970">
        <ele>752.9</ele>
        <time>2021-05-30T17:06:28Z</time>
      </trkpt>
      <trkpt lat="-12.1251960" lon="-76.7319900">
        <ele>751.9</ele>
        <time>2021-05-30T17:06:30Z</time>
      </trkpt>
      <trkpt lat="-12.1252430" lon="-76.7320350">
        <ele>751.4</ele>
        <time>2021-05-30T17:06:31Z</time>
      </trkpt>
      <trkpt lat="-12.1253350" lon="-76.7321190">
        <ele>750.3</ele>
        <time>2021-05-30T17:06:33Z</time>
      </trkpt>
      <trkpt lat="-12.1253890" lon="-76.7321530">
        <ele>749.8</ele>
        <time>2021-05-30T17:06:34Z</time>
      </trkpt>
      <trkpt lat="-12.1254890" lon="-76.7322360">
        <ele>748.8</ele>
        <time>2021-05-30T17:06:36Z</time>
      </trkpt>
      <trkpt lat="-12.1255870" lon="-76.7323400">
        <ele>747.9</ele>
        <time>2021-05-30T17:06:38Z</time>
      </trkpt>
      <trkpt lat="-12.1256870" lon="-76.7324440">
        <ele>747.2</ele>
        <time>2021-05-30T17:06:40Z</time>
      </trkpt>
      <trkpt lat="-12.1257690" lon="-76.7325610">
        <ele>746.4</ele>
        <time>2021-05-30T17:06:42Z</time>
      </trkpt>
      <trkpt lat="-12.1258470" lon="-76.7326570">
        <ele>745.7</ele>
        <time>2021-05-30T17:06:44Z</time>
      </trkpt>
      <trkpt lat="-12.1259360" lon="-76.7327410">
        <ele>744.9</ele>
        <time>2021-05-30T17:06:46Z</time>
      </trkpt>
      <trkpt lat="-12.1259790" lon="-76.7327820">
        <ele>744.5</ele>
        <time>2021-05-30T17:06:47Z</time>
      </trkpt>
      <trkpt lat="-12.1260820" lon="-76.7328420">
        <ele>743.8</ele>
        <time>2021-05-30T17:06:49Z</time>
      </trkpt>
      <trkpt lat="-12.1262080" lon="-76.7328970">
        <ele>743.1</ele>
        <time>2021-05-30T17:06:51Z</time>
      </trkpt>
      <trkpt lat="-12.1263430" lon="-76.7329560">
        <ele>742.2</ele>
        <time>2021-05-30T17:06:53Z</time>
      </trkpt>
      <trkpt lat="-12.1264070" lon="-76.7329860">
        <ele>741.7</ele>
        <time>2021-05-30T17:06:54Z</time>
      </trkpt>
      <trkpt lat="-12.1265210" lon="-76.7330480">
        <ele>740.8</ele>
        <time>2021-05-30T17:06:56Z</time>
      </trkpt>
      <trkpt lat="-12.1266330" lon="-76.7331070">
        <ele>740.0</ele>
        <time>2021-05-30T17:06:58Z</time>
      </trkpt>
      <trkpt lat="-12.1267550" lon="-76.7331800">
        <ele>739.2</ele>
        <time>2021-05-30T17:07:00Z</time>
      </trkpt>
      <trkpt lat="-12.1268620" lon="-76.7332600">
        <ele>738.5</ele>
        <time>2021-05-30T17:07:02Z</time>
      </trkpt>
      <trkpt lat="-12.1269250" lon="-76.7332970">
        <ele>738.1</ele>
        <time>2021-05-30T17:07:03Z</time>
      </trkpt>
      <trkpt lat="-12.1270430" lon="-76.7333630">
        <ele>737.2</ele>
        <time>2021-05-30T17:07:05Z</time>
      </trkpt>
      <trkpt lat="-12.1271530" lon="-76.7334260">
        <ele>736.4</ele>
        <time>2021-05-30T17:07:07Z</time>
      </trkpt>
      <trkpt lat="-12.1272010" lon="-76.7334600">
        <ele>736.0</ele>
        <time>2021-05-30T17:07:08Z</time>
      </trkpt>
      <trkpt lat="-12.1272950" lon="-76.7335290">
        <ele>735.3</ele>
        <time>2021-05-30T17:07:10Z</time>
      </trkpt>
      <trkpt lat="-12.1273410" lon="-76.7335630">
        <ele>735.0</ele>
        <time>2021-05-30T17:07:11Z</time>
      </trkpt>
      <trkpt lat="-12.1274300" lon="-76.7336460">
        <ele>734.3</ele>
        <time>2021-05-30T17:07:13Z</time>
      </trkpt>
      <trkpt lat="-12.1274840" lon="-76.7336810">
        <ele>733.9</ele>
        <time>2021-05-30T17:07:14Z</time>
      </trkpt>
      <trkpt lat="-12.1275350" lon="-76.7337160">
        <ele>733.5</ele>
        <time>2021-05-30T17:07:15Z</time>
      </trkpt>
      <trkpt lat="-12.1276220" lon="-76.7337950">
        <ele>732.8</ele>
        <time>2021-05-30T17:07:17Z</time>
      </trkpt>
      <trkpt lat="-12.1276700" lon="-76.7338420">
        <ele>732.4</ele>
        <time>2021-05-30T17:07:18Z</time>
      </trkpt>
      <trkpt lat="-12.1277640" lon="-76.7339390">
        <ele>731.6</ele>
        <time>2021-05-30T17:07:20Z</time>
      </trkpt>
      <trkpt lat="-12.1278110" lon="-76.7339860">
        <ele>731.2</ele>
        <time>2021-05-30T17:07:21Z</time>
      </trkpt>
      <trkpt lat="-12.1278580" lon="-76.7340350">
        <ele>730.8</ele>
        <time>2021-05-30T17:07:22Z</time>
      </trkpt>
      <trkpt lat="-12.1279560" lon="-76.7341360">
        <ele>729.9</ele>
        <time>2021-05-30T17:07:24Z</time>
      </trkpt>
      <trkpt lat="-12.1280070" lon="-76.7341910">
        <ele>729.4</ele>
        <time>2021-05-30T17:07:25Z</time>
      </trkpt>
      <trkpt lat="-12.1281000" lon="-76.7343070">
        <ele>728.6</ele>
        <time>2021-05-30T17:07:27Z</time>
      </trkpt>
      <trkpt lat="-12.1281470" lon="-76.7343700">
        <ele>728.1</ele>
        <time>2021-05-30T17:07:28Z</time>
      </trkpt>
      <trkpt lat="-12.1282510" lon="-76.7344900">
        <ele>727.0</ele>
        <time>2021-05-30T17:07:30Z</time>
      </trkpt>
      <trkpt lat="-12.1283080" lon="-76.7345470">
        <ele>726.5</ele>
        <time>2021-05-30T17:07:31Z</time>
      </trkpt>
      <trkpt lat="-12.1284000" lon="-76.7346790">
        <ele>725.2</ele>
        <time>2021-05-30T17:07:33Z</time>
      </trkpt>
      <trkpt lat="-12.1284730" lon="-76.7348330">
        <ele>723.9</ele>
        <time>2021-05-30T17:07:35Z</time>
      </trkpt>
      <trkpt lat="-12.1285360" lon="-76.7349930">
        <ele>722.8</ele>
        <time>2021-05-30T17:07:37Z</time>
      </trkpt>
      <trkpt lat="-12.1285690" lon="-76.7350740">
        <ele>722.2</ele>
        <time>2021-05-30T17:07:38Z</time>
      </trkpt>
      <trkpt lat="-12.1286400" lon="-76.7352230">
        <ele>721.2</ele>
        <time>2021-05-30T17:07:40Z</time>
      </trkpt>
      <trkpt lat="-12.1286750" lon="-76.7352950">
        <ele>720.7</ele>
        <time>2021-05-30T17:07:41Z</time>
      </trkpt>
      <trkpt lat="-12.1287530" lon="-76.7354470">
        <ele>719.8</ele>
        <time>2021-05-30T17:07:43Z</time>
      </trkpt>
      <trkpt lat="-12.1288100" lon="-76.7356090">
        <ele>718.9</ele>
        <time>2021-05-30T17:07:45Z</time>
      </trkpt>
      <trkpt lat="-12.1288460" lon="-76.7357790">
        <ele>718.0</ele>
        <time>2021-05-30T17:07:47Z</time>
      </trkpt>
      <trkpt lat="-12.1288920" lon="-76.7359400">
        <ele>717.0</ele>
        <time>2021-05-30T17:07:49Z</time>
      </trkpt>
      <trkpt lat="-12.1289240" lon="-76.7361030">
        <ele>716.0</ele>
        <time>2021-05-30T17:07:51Z</time>
      </trkpt>
      <trkpt lat="-12.1289710" lon="-76.7362550">
        <ele>715.0</ele>
        <time>2021-05-30T17:07:53Z</time>
      </trkpt>
      <trkpt lat="-12.1289940" lon="-76.7363370">
        <ele>714.4</ele>
        <time>2021-05-30T17:07:54Z</time>
      </trkpt>
      <trkpt lat="-12.1290250" lon="-76.7364970">
        <ele>713.2</ele>
        <time>2021-05-30T17:07:56Z</time>
      </trkpt>
      <trkpt lat="-12.1290450" lon="-76.7365770">
        <ele>712.7</ele>
        <time>2021-05-30T17:07:57Z</time>
      </trkpt>
      <trkpt lat="-12.1290760" lon="-76.7366540">
        <ele>712.1</ele>
        <time>2021-05-30T17:07:58Z</time>
      </trkpt>
      <trkpt lat="-12.1291080" lon="-76.7367240">
        <ele>711.6</ele>
        <time>2021-05-30T17:07:59Z</time>
      </trkpt>
      <trkpt lat="-12.1291390" lon="-76.7367950">
        <ele>711.1</ele>
        <time>2021-05-30T17:08:00Z</time>
      </trkpt>
      <trkpt lat="-12.1291870" lon="-76.7369300">
        <ele>710.1</ele>
        <time>2021-05-30T17:08:02Z</time>
      </trkpt>
      <trkpt lat="-12.1292100" lon="-76.7369970">
        <ele>709.7</ele>
        <time>2021-05-30T17:08:03Z</time>
      </trkpt>
      <trkpt lat="-12.1292380" lon="-76.7370660">
        <ele>709.2</ele>
        <time>2021-05-30T17:08:04Z</time>
      </trkpt>
      <trkpt lat="-12.1292900" lon="-76.7372090">
        <ele>708.2</ele>
        <time>2021-05-30T17:08:06Z</time>
      </trkpt>
      <trkpt lat="-12.1293400" lon="-76.7373470">
        <ele>707.2</ele>
        <time>2021-05-30T17:08:08Z</time>
      </trkpt>
      <trkpt lat="-12.1294080" lon="-76.7374820">
        <ele>706.3</ele>
        <time>2021-05-30T17:08:10Z</time>
      </trkpt>
      <trkpt lat="-12.1294510" lon="-76.7375520">
        <ele>705.8</ele>
        <time>2021-05-30T17:08:11Z</time>
      </trkpt>
      <trkpt lat="-12.1295200" lon="-76.7376970">
        <ele>704.9</ele>
        <time>2021-05-30T17:08:13Z</time>
      </trkpt>
      <trkpt lat="-12.1295460" lon="-76.7377730">
        <ele>704.5</ele>
        <time>2021-05-30T17:08:14Z</time>
      </trkpt>
      <trkpt lat="-12.1296130" lon="-76.7379250">
        <ele>703.6</ele>
        <time>2021-05-30T17:08:16Z</time>
      </trkpt>
      <trkpt lat="-12.1296540" lon="-76.7379960">
        <ele>703.1</ele>
        <time>2021-05-30T17:08:17Z</time>
      </trkpt>
      <trkpt lat="-12.1297430" lon="-76.7381220">
        <ele>702.1</ele>
        <time>2021-05-30T17:08:19Z</time>
      </trkpt>
      <trkpt lat="-12.1297830" lon="-76.7381800">
        <ele>701.6</ele>
        <time>2021-05-30T17:08:20Z</time>
      </trkpt>
      <trkpt lat="-12.1298510" lon="-76.7382990">
        <ele>700.6</ele>
        <time>2021-05-30T17:08:22Z</time>
      </trkpt>
      <trkpt lat="-12.1299080" lon="-76.7384340">
        <ele>699.7</ele>
        <time>2021-05-30T17:08:24Z</time>
      </trkpt>
      <trkpt lat="-12.1299740" lon="-76.7385730">
        <ele>698.8</ele>
        <time>2021-05-30T17:08:26Z</time>
      </trkpt>
      <trkpt lat="-12.1300180" lon="-76.7387080">
        <ele>698.0</ele>
        <time>2021-05-30T17:08:28Z</time>
      </trkpt>
      <trkpt lat="-12.1300340" lon="-76.7387820">
        <ele>697.7</ele>
        <time>2021-05-30T17:08:29Z</time>
      </trkpt>
      <trkpt lat="-12.1300780" lon="-76.7389270">
        <ele>697.0</ele>
        <time>2021-05-30T17:08:31Z</time>
      </trkpt>
      <trkpt lat="-12.1301310" lon="-76.7390620">
        <ele>696.4</ele>
        <time>2021-05-30T17:08:33Z</time>
      </trkpt>
      <trkpt lat="-12.1301880" lon="-76.7391940">
        <ele>695.6</ele>
        <time>2021-05-30T17:08:35Z</time>
      </trkpt>
      <trkpt lat="-12.1302290" lon="-76.7392570">
        <ele>695.2</ele>
        <time>2021-05-30T17:08:36Z</time>
      </trkpt>
      <trkpt lat="-12.1302740" lon="-76.7393120">
        <ele>694.8</ele>
        <time>2021-05-30T17:08:37Z</time>
      </trkpt>
      <trkpt lat="-12.1303150" lon="-76.7393590">
        <ele>694.5</ele>
        <time>2021-05-30T17:08:38Z</time>
      </trkpt>
      <trkpt lat="-12.1303490" lon="-76.7394100">
        <ele>694.1</ele>
        <time>2021-05-30T17:08:39Z</time>
      </trkpt>
      <trkpt lat="-12.1303910" lon="-76.7395200">
        <ele>693.3</ele>
        <time>2021-05-30T17:08:41Z</time>
      </trkpt>
      <trkpt lat="-12.1304190" lon="-76.7396420">
        <ele>692.4</ele>
        <time>2021-05-30T17:08:43Z</time>
      </trkpt>
      <trkpt lat="-12.1304350" lon="-76.7396940">
        <ele>692.0</ele>
        <time>2021-05-30T17:08:44Z</time>
      </trkpt>
      <trkpt lat="-12.1304900" lon="-76.7397930">
        <ele>691.2</ele>
        <time>2021-05-30T17:08:46Z</time>
      </trkpt>
      <trkpt lat="-12.1305530" lon="-76.7398880">
        <ele>690.4</ele>
        <time>2021-05-30T17:08:48Z</time>
      </trkpt>
      <trkpt lat="-12.1305740" lon="-76.7399220">
        <ele>690.2</ele>
        <time>2021-05-30T17:08:49Z</time>
      </trkpt>
      <trkpt lat="-12.1305970" lon="-76.7399780">
        <ele>689.7</ele>
        <time>2021-05-30T17:08:51Z</time>
      </trkpt>
      <trkpt lat="-12.1305980" lon="-76.7400030">
        <ele>689.6</ele>
        <time>2021-05-30T17:08:53Z</time>
      </trkpt>
      <trkpt lat="-12.1305920" lon="-76.7399960">
        <ele>689.5</ele>
        <time>2021-05-30T17:08:55Z</time>
      </trkpt>
      <trkpt lat="-12.1305770" lon="-76.7399840">
        <ele>689.4</ele>
        <time>2021-05-30T17:08:57Z</time>
      </trkpt>
      <trkpt lat="-12.1305660" lon="-76.7399820">
        <ele>689.3</ele>
        <time>2021-05-30T17:08:59Z</time>
      </trkpt>
      <trkpt lat="-12.1305570" lon="-76.7399800">
        <ele>689.2</ele>
        <time>2021-05-30T17:09:01Z</time>
      </trkpt>
      <trkpt lat="-12.1305530" lon="-76.7399780">
        <ele>689.2</ele>
        <time>2021-05-30T17:09:03Z</time>
      </trkpt>
      <trkpt lat="-12.1305560" lon="-76.7399690">
        <ele>689.2</ele>
        <time>2021-05-30T17:09:05Z</time>
      </trkpt>
      <trkpt lat="-12.1305580" lon="-76.7399670">
        <ele>689.2</ele>
        <time>2021-05-30T17:09:06Z</time>
      </trkpt>
      <trkpt lat="-12.1305590" lon="-76.7399660">
        <ele>689.1</ele>
        <time>2021-05-30T17:09:07Z</time>
      </trkpt>
      <trkpt lat="-12.1305580" lon="-76.7399650">
        <ele>689.1</ele>
        <time>2021-05-30T17:09:09Z</time>
      </trkpt>
      <trkpt lat="-12.1305560" lon="-76.7399650">
        <ele>689.1</ele>
        <time>2021-05-30T17:09:11Z</time>
      </trkpt>
      <trkpt lat="-12.1305250" lon="-76.7399830">
        <ele>688.9</ele>
        <time>2021-05-30T17:09:15Z</time>
      </trkpt>
      <trkpt lat="-12.1305230" lon="-76.7399850">
        <ele>688.9</ele>
        <time>2021-05-30T17:09:16Z</time>
      </trkpt>
      <trkpt lat="-12.1305220" lon="-76.7399850">
        <ele>688.9</ele>
        <time>2021-05-30T17:09:18Z</time>
      </trkpt>
      <trkpt lat="-12.1305230" lon="-76.7399840">
        <ele>688.9</ele>
        <time>2021-05-30T17:09:20Z</time>
      </trkpt>
      <trkpt lat="-12.1305230" lon="-76.7399840">
        <ele>688.9</ele>
        <time>2021-05-30T17:09:21Z</time>
      </trkpt>
      <trkpt lat="-12.1305230" lon="-76.7399840">
        <ele>688.9</ele>
        <time>2021-05-30T17:09:23Z</time>
      </trkpt>
      <trkpt lat="-12.1305230" lon="-76.7399840">
        <ele>688.9</ele>
        <time>2021-05-30T17:09:25Z</time>
      </trkpt>
      <trkpt lat="-12.1305230" lon="-76.7399840">
        <ele>688.9</ele>
        <time>2021-05-30T17:09:27Z</time>
      </trkpt>
      <trkpt lat="-12.1305770" lon="-76.7400180">
        <ele>688.6</ele>
        <time>2021-05-30T17:24:48Z</time>
      </trkpt>
      <trkpt lat="-12.1305790" lon="-76.7400250">
        <ele>688.5</ele>
        <time>2021-05-30T17:24:49Z</time>
      </trkpt>
      <trkpt lat="-12.1305820" lon="-76.7400320">
        <ele>688.5</ele>
        <time>2021-05-30T17:24:50Z</time>
      </trkpt>
      <trkpt lat="-12.1305840" lon="-76.7400390">
        <ele>688.4</ele>
        <time>2021-05-30T17:24:51Z</time>
      </trkpt>
      <trkpt lat="-12.1305870" lon="-76.7400450">
        <ele>688.4</ele>
        <time>2021-05-30T17:24:53Z</time>
      </trkpt>
      <trkpt lat="-12.1305890" lon="-76.7400520">
        <ele>688.3</ele>
        <time>2021-05-30T17:24:55Z</time>
      </trkpt>
      <trkpt lat="-12.1305920" lon="-76.7400590">
        <ele>688.3</ele>
        <time>2021-05-30T17:24:56Z</time>
      </trkpt>
      <trkpt lat="-12.1305940" lon="-76.7400660">
        <ele>688.3</ele>
        <time>2021-05-30T17:24:57Z</time>
      </trkpt>
      <trkpt lat="-12.1305970" lon="-76.7400730">
        <ele>688.2</ele>
        <time>2021-05-30T17:24:59Z</time>
      </trkpt>
      <trkpt lat="-12.1305990" lon="-76.7400800">
        <ele>688.2</ele>
        <time>2021-05-30T17:25:00Z</time>
      </trkpt>
      <trkpt lat="-12.1306020" lon="-76.7400860">
        <ele>688.1</ele>
        <time>2021-05-30T17:25:01Z</time>
      </trkpt>
      <trkpt lat="-12.1306040" lon="-76.7400930">
        <ele>688.1</ele>
        <time>2021-05-30T17:25:03Z</time>
      </trkpt>
      <trkpt lat="-12.1306070" lon="-76.7401000">
        <ele>688.1</ele>
        <time>2021-05-30T17:26:25Z</time>
      </trkpt>
      <trkpt lat="-12.1306090" lon="-76.7401070">
        <ele>688.0</ele>
        <time>2021-05-30T17:26:26Z</time>
      </trkpt>
      <trkpt lat="-12.1306400" lon="-76.7401540">
        <ele>687.7</ele>
        <time>2021-05-30T17:26:28Z</time>
      </trkpt>
      <trkpt lat="-12.1306780" lon="-76.7402120">
        <ele>687.3</ele>
        <time>2021-05-30T17:26:29Z</time>
      </trkpt>
      <trkpt lat="-12.1307130" lon="-76.7402680">
        <ele>686.9</ele>
        <time>2021-05-30T17:26:30Z</time>
      </trkpt>
      <trkpt lat="-12.1307440" lon="-76.7403130">
        <ele>686.6</ele>
        <time>2021-05-30T17:26:32Z</time>
      </trkpt>
      <trkpt lat="-12.1307670" lon="-76.7403600">
        <ele>686.2</ele>
        <time>2021-05-30T17:26:33Z</time>
      </trkpt>
      <trkpt lat="-12.1307980" lon="-76.7404300">
        <ele>685.7</ele>
        <time>2021-05-30T17:26:34Z</time>
      </trkpt>
      <trkpt lat="-12.1308180" lon="-76.7404790">
        <ele>685.4</ele>
        <time>2021-05-30T17:26:35Z</time>
      </trkpt>
      <trkpt lat="-12.1308370" lon="-76.7405250">
        <ele>685.0</ele>
        <time>2021-05-30T17:26:36Z</time>
      </trkpt>
      <trkpt lat="-12.1308550" lon="-76.7405730">
        <ele>684.7</ele>
        <time>2021-05-30T17:26:37Z</time>
      </trkpt>
      <trkpt lat="-12.1308800" lon="-76.7406320">
        <ele>684.3</ele>
        <time>2021-05-30T17:26:39Z</time>
      </trkpt>
      <trkpt lat="-12.1309410" lon="-76.7407780">
        <ele>683.2</ele>
        <time>2021-05-30T17:26:41Z</time>
      </trkpt>
      <trkpt lat="-12.1309540" lon="-76.7408250">
        <ele>683.0</ele>
        <time>2021-05-30T17:26:42Z</time>
      </trkpt>
      <trkpt lat="-12.1309830" lon="-76.7408740">
        <ele>682.6</ele>
        <time>2021-05-30T17:26:43Z</time>
      </trkpt>
      <trkpt lat="-12.1310040" lon="-76.7409220">
        <ele>682.3</ele>
        <time>2021-05-30T17:26:44Z</time>
      </trkpt>
      <trkpt lat="-12.1310200" lon="-76.7409710">
        <ele>682.0</ele>
        <time>2021-05-30T17:26:46Z</time>
      </trkpt>
      <trkpt lat="-12.1310070" lon="-76.7409990">
        <ele>681.8</ele>
        <time>2021-05-30T17:26:47Z</time>
      </trkpt>
      <trkpt lat="-12.1310020" lon="-76.7410260">
        <ele>681.7</ele>
        <time>2021-05-30T17:26:49Z</time>
      </trkpt>
      <trkpt lat="-12.1309930" lon="-76.7410190">
        <ele>681.6</ele>
        <time>2021-05-30T17:26:50Z</time>
      </trkpt>
      <trkpt lat="-12.1309760" lon="-76.7410000">
        <ele>681.5</ele>
        <time>2021-05-30T17:26:52Z</time>
      </trkpt>
      <trkpt lat="-12.1309730" lon="-76.7409940">
        <ele>681.4</ele>
        <time>2021-05-30T17:26:54Z</time>
      </trkpt>
      <trkpt lat="-12.1309720" lon="-76.7409910">
        <ele>681.4</ele>
        <time>2021-05-30T17:26:56Z</time>
      </trkpt>
      <trkpt lat="-12.1309720" lon="-76.7409890">
        <ele>681.4</ele>
        <time>2021-05-30T17:26:58Z</time>
      </trkpt>
      <trkpt lat="-12.1309740" lon="-76.7409880">
        <ele>681.4</ele>
        <time>2021-05-30T17:27:00Z</time>
      </trkpt>
      <trkpt lat="-12.1309770" lon="-76.7409900">
        <ele>681.4</ele>
        <time>2021-05-30T17:27:05Z</time>
      </trkpt>
      <trkpt lat="-12.1309770" lon="-76.7409870">
        <ele>681.3</ele>
        <time>2021-05-30T17:27:07Z</time>
      </trkpt>
      <trkpt lat="-12.1309780" lon="-76.7409740">
        <ele>681.3</ele>
        <time>2021-05-30T17:27:09Z</time>
      </trkpt>
      <trkpt lat="-12.1309780" lon="-76.7409710">
        <ele>681.2</ele>
        <time>2021-05-30T17:27:10Z</time>
      </trkpt>
      <trkpt lat="-12.1309780" lon="-76.7409720">
        <ele>681.2</ele>
        <time>2021-05-30T17:27:11Z</time>
      </trkpt>
      <trkpt lat="-12.1309740" lon="-76.7409870">
        <ele>681.1</ele>
        <time>2021-05-30T17:27:12Z</time>
      </trkpt>
      <trkpt lat="-12.1309720" lon="-76.7409880">
        <ele>681.1</ele>
        <time>2021-05-30T17:27:13Z</time>
      </trkpt>
      <trkpt lat="-12.1309700" lon="-76.7409870">
        <ele>681.1</ele>
        <time>2021-05-30T17:27:15Z</time>
      </trkpt>
      <trkpt lat="-12.1309670" lon="-76.7409870">
        <ele>681.1</ele>
        <time>2021-05-30T17:27:16Z</time>
      </trkpt>
      <trkpt lat="-12.1309640" lon="-76.7409850">
        <ele>681.1</ele>
        <time>2021-05-30T17:27:17Z</time>
      </trkpt>
      <trkpt lat="-12.1309590" lon="-76.7409860">
        <ele>681.0</ele>
        <time>2021-05-30T17:27:18Z</time>
      </trkpt>
      <trkpt lat="-12.1309360" lon="-76.7410230">
        <ele>680.8</ele>
        <time>2021-05-30T17:27:20Z</time>
      </trkpt>
      <trkpt lat="-12.1309820" lon="-76.7411540">
        <ele>680.0</ele>
        <time>2021-05-30T17:27:22Z</time>
      </trkpt>
      <trkpt lat="-12.1310340" lon="-76.7412870">
        <ele>679.2</ele>
        <time>2021-05-30T17:27:24Z</time>
      </trkpt>
      <trkpt lat="-12.1310770" lon="-76.7414190">
        <ele>678.5</ele>
        <time>2021-05-30T17:27:26Z</time>
      </trkpt>
      <trkpt lat="-12.1311260" lon="-76.7415400">
        <ele>677.8</ele>
        <time>2021-05-30T17:27:28Z</time>
      </trkpt>
      <trkpt lat="-12.1311640" lon="-76.7416040">
        <ele>677.4</ele>
        <time>2021-05-30T17:27:29Z</time>
      </trkpt>
      <trkpt lat="-12.1312130" lon="-76.7417140">
        <ele>676.6</ele>
        <time>2021-05-30T17:27:31Z</time>
      </trkpt>
      <trkpt lat="-12.1312650" lon="-76.7418220">
        <ele>675.8</ele>
        <time>2021-05-30T17:27:33Z</time>
      </trkpt>
      <trkpt lat="-12.1312980" lon="-76.7418670">
        <ele>675.5</ele>
        <time>2021-05-30T17:27:34Z</time>
      </trkpt>
      <trkpt lat="-12.1313230" lon="-76.7419170">
        <ele>675.2</ele>
        <time>2021-05-30T17:27:35Z</time>
      </trkpt>
      <trkpt lat="-12.1313410" lon="-76.7419670">
        <ele>674.9</ele>
        <time>2021-05-30T17:27:36Z</time>
      </trkpt>
      <trkpt lat="-12.1313540" lon="-76.7420180">
        <ele>674.6</ele>
        <time>2021-05-30T17:27:37Z</time>
      </trkpt>
      <trkpt lat="-12.1314080" lon="-76.7421270">
        <ele>673.8</ele>
        <time>2021-05-30T17:27:39Z</time>
      </trkpt>
      <trkpt lat="-12.1314590" lon="-76.7422600">
        <ele>673.1</ele>
        <time>2021-05-30T17:27:41Z</time>
      </trkpt>
      <trkpt lat="-12.1314830" lon="-76.7423420">
        <ele>672.7</ele>
        <time>2021-05-30T17:27:42Z</time>
      </trkpt>
      <trkpt lat="-12.1315400" lon="-76.7424780">
        <ele>671.8</ele>
        <time>2021-05-30T17:27:44Z</time>
      </trkpt>
      <trkpt lat="-12.1315630" lon="-76.7425360">
        <ele>671.4</ele>
        <time>2021-05-30T17:27:45Z</time>
      </trkpt>
      <trkpt lat="-12.1315840" lon="-76.7425960">
        <ele>671.0</ele>
        <time>2021-05-30T17:27:46Z</time>
      </trkpt>
      <trkpt lat="-12.1316320" lon="-76.7427300">
        <ele>670.2</ele>
        <time>2021-05-30T17:27:48Z</time>
      </trkpt>
      <trkpt lat="-12.1316740" lon="-76.7428670">
        <ele>669.4</ele>
        <time>2021-05-30T17:27:50Z</time>
      </trkpt>
      <trkpt lat="-12.1316920" lon="-76.7429320">
        <ele>669.0</ele>
        <time>2021-05-30T17:27:51Z</time>
      </trkpt>
      <trkpt lat="-12.1317410" lon="-76.7430450">
        <ele>668.4</ele>
        <time>2021-05-30T17:27:53Z</time>
      </trkpt>
      <trkpt lat="-12.1317690" lon="-76.7431060">
        <ele>668.1</ele>
        <time>2021-05-30T17:27:54Z</time>
      </trkpt>
      <trkpt lat="-12.1318010" lon="-76.7431630">
        <ele>667.7</ele>
        <time>2021-05-30T17:27:55Z</time>
      </trkpt>
      <trkpt lat="-12.1318270" lon="-76.7432300">
        <ele>667.3</ele>
        <time>2021-05-30T17:27:56Z</time>
      </trkpt>
      <trkpt lat="-12.1318510" lon="-76.7433020">
        <ele>666.9</ele>
        <time>2021-05-30T17:27:57Z</time>
      </trkpt>
      <trkpt lat="-12.1318760" lon="-76.7433760">
        <ele>666.4</ele>
        <time>2021-05-30T17:27:58Z</time>
      </trkpt>
      <trkpt lat="-12.1319040" lon="-76.7434540">
        <ele>665.9</ele>
        <time>2021-05-30T17:27:59Z</time>
      </trkpt>
      <trkpt lat="-12.1319570" lon="-76.7436010">
        <ele>665.0</ele>
        <time>2021-05-30T17:28:01Z</time>
      </trkpt>
      <trkpt lat="-12.1320130" lon="-76.7437470">
        <ele>664.1</ele>
        <time>2021-05-30T17:28:03Z</time>
      </trkpt>
      <trkpt lat="-12.1320670" lon="-76.7438910">
        <ele>663.3</ele>
        <time>2021-05-30T17:28:05Z</time>
      </trkpt>
      <trkpt lat="-12.1320920" lon="-76.7440320">
        <ele>662.4</ele>
        <time>2021-05-30T17:28:07Z</time>
      </trkpt>
      <trkpt lat="-12.1321010" lon="-76.7441560">
        <ele>661.7</ele>
        <time>2021-05-30T17:28:09Z</time>
      </trkpt>
      <trkpt lat="-12.1321110" lon="-76.7442210">
        <ele>661.2</ele>
        <time>2021-05-30T17:28:10Z</time>
      </trkpt>
      <trkpt lat="-12.1321320" lon="-76.7442800">
        <ele>660.8</ele>
        <time>2021-05-30T17:28:11Z</time>
      </trkpt>
      <trkpt lat="-12.1321580" lon="-76.7443420">
        <ele>660.1</ele>
        <time>2021-05-30T17:28:12Z</time>
      </trkpt>
      <trkpt lat="-12.1321900" lon="-76.7443980">
        <ele>659.8</ele>
        <time>2021-05-30T17:28:13Z</time>
      </trkpt>
      <trkpt lat="-12.1322210" lon="-76.7444560">
        <ele>659.4</ele>
        <time>2021-05-30T17:28:14Z</time>
      </trkpt>
      <trkpt lat="-12.1322850" lon="-76.7445920">
        <ele>658.6</ele>
        <time>2021-05-30T17:28:16Z</time>
      </trkpt>
      <trkpt lat="-12.1323480" lon="-76.7447300">
        <ele>657.7</ele>
        <time>2021-05-30T17:28:18Z</time>
      </trkpt>
      <trkpt lat="-12.1324030" lon="-76.7448890">
        <ele>656.5</ele>
        <time>2021-05-30T17:28:20Z</time>
      </trkpt>
      <trkpt lat="-12.1324280" lon="-76.7449750">
        <ele>655.9</ele>
        <time>2021-05-30T17:28:21Z</time>
      </trkpt>
      <trkpt lat="-12.1324510" lon="-76.7450620">
        <ele>655.3</ele>
        <time>2021-05-30T17:28:22Z</time>
      </trkpt>
      <trkpt lat="-12.1324730" lon="-76.7451400">
        <ele>654.8</ele>
        <time>2021-05-30T17:28:23Z</time>
      </trkpt>
      <trkpt lat="-12.1325200" lon="-76.7452630">
        <ele>654.0</ele>
        <time>2021-05-30T17:28:25Z</time>
      </trkpt>
      <trkpt lat="-12.1325390" lon="-76.7453250">
        <ele>653.6</ele>
        <time>2021-05-30T17:28:26Z</time>
      </trkpt>
      <trkpt lat="-12.1325590" lon="-76.7453900">
        <ele>653.2</ele>
        <time>2021-05-30T17:28:27Z</time>
      </trkpt>
      <trkpt lat="-12.1325990" lon="-76.7455100">
        <ele>652.4</ele>
        <time>2021-05-30T17:28:29Z</time>
      </trkpt>
      <trkpt lat="-12.1326180" lon="-76.7455700">
        <ele>652.1</ele>
        <time>2021-05-30T17:28:30Z</time>
      </trkpt>
      <trkpt lat="-12.1326340" lon="-76.7456320">
        <ele>651.7</ele>
        <time>2021-05-30T17:28:31Z</time>
      </trkpt>
      <trkpt lat="-12.1326740" lon="-76.7457620">
        <ele>650.9</ele>
        <time>2021-05-30T17:28:33Z</time>
      </trkpt>
      <trkpt lat="-12.1326830" lon="-76.7458360">
        <ele>650.5</ele>
        <time>2021-05-30T17:28:34Z</time>
      </trkpt>
      <trkpt lat="-12.1326950" lon="-76.7459810">
        <ele>649.6</ele>
        <time>2021-05-30T17:28:36Z</time>
      </trkpt>
      <trkpt lat="-12.1327300" lon="-76.7461150">
        <ele>648.8</ele>
        <time>2021-05-30T17:28:38Z</time>
      </trkpt>
      <trkpt lat="-12.1327530" lon="-76.7461800">
        <ele>648.4</ele>
        <time>2021-05-30T17:28:39Z</time>
      </trkpt>
      <trkpt lat="-12.1327910" lon="-76.7463030">
        <ele>647.6</ele>
        <time>2021-05-30T17:28:41Z</time>
      </trkpt>
      <trkpt lat="-12.1328040" lon="-76.7463720">
        <ele>647.1</ele>
        <time>2021-05-30T17:28:42Z</time>
      </trkpt>
      <trkpt lat="-12.1328160" lon="-76.7464390">
        <ele>646.7</ele>
        <time>2021-05-30T17:28:43Z</time>
      </trkpt>
      <trkpt lat="-12.1328630" lon="-76.7465520">
        <ele>646.0</ele>
        <time>2021-05-30T17:28:45Z</time>
      </trkpt>
      <trkpt lat="-12.1329230" lon="-76.7466670">
        <ele>645.2</ele>
        <time>2021-05-30T17:28:47Z</time>
      </trkpt>
      <trkpt lat="-12.1329490" lon="-76.7467340">
        <ele>644.7</ele>
        <time>2021-05-30T17:28:48Z</time>
      </trkpt>
      <trkpt lat="-12.1329900" lon="-76.7468720">
        <ele>644.0</ele>
        <time>2021-05-30T17:28:50Z</time>
      </trkpt>
      <trkpt lat="-12.1330080" lon="-76.7469290">
        <ele>643.7</ele>
        <time>2021-05-30T17:28:51Z</time>
      </trkpt>
      <trkpt lat="-12.1330410" lon="-76.7470460">
        <ele>643.0</ele>
        <time>2021-05-30T17:28:53Z</time>
      </trkpt>
      <trkpt lat="-12.1330540" lon="-76.7471170">
        <ele>642.7</ele>
        <time>2021-05-30T17:28:54Z</time>
      </trkpt>
      <trkpt lat="-12.1330660" lon="-76.7472580">
        <ele>642.0</ele>
        <time>2021-05-30T17:28:56Z</time>
      </trkpt>
      <trkpt lat="-12.1330760" lon="-76.7473330">
        <ele>641.6</ele>
        <time>2021-05-30T17:28:57Z</time>
      </trkpt>
      <trkpt lat="-12.1331010" lon="-76.7474670">
        <ele>641.0</ele>
        <time>2021-05-30T17:28:59Z</time>
      </trkpt>
      <trkpt lat="-12.1331290" lon="-76.7475340">
        <ele>640.7</ele>
        <time>2021-05-30T17:29:00Z</time>
      </trkpt>
      <trkpt lat="-12.1331820" lon="-76.7476730">
        <ele>639.7</ele>
        <time>2021-05-30T17:29:02Z</time>
      </trkpt>
      <trkpt lat="-12.1332190" lon="-76.7477950">
        <ele>638.9</ele>
        <time>2021-05-30T17:29:04Z</time>
      </trkpt>
      <trkpt lat="-12.1332380" lon="-76.7478590">
        <ele>638.6</ele>
        <time>2021-05-30T17:29:05Z</time>
      </trkpt>
      <trkpt lat="-12.1332780" lon="-76.7479800">
        <ele>637.9</ele>
        <time>2021-05-30T17:29:07Z</time>
      </trkpt>
      <trkpt lat="-12.1332940" lon="-76.7480360">
        <ele>637.6</ele>
        <time>2021-05-30T17:29:08Z</time>
      </trkpt>
      <trkpt lat="-12.1333100" lon="-76.7480890">
        <ele>637.3</ele>
        <time>2021-05-30T17:29:09Z</time>
      </trkpt>
      <trkpt lat="-12.1333580" lon="-76.7482050">
        <ele>636.6</ele>
        <time>2021-05-30T17:29:11Z</time>
      </trkpt>
      <trkpt lat="-12.1334180" lon="-76.7483250">
        <ele>635.8</ele>
        <time>2021-05-30T17:29:13Z</time>
      </trkpt>
      <trkpt lat="-12.1334470" lon="-76.7483800">
        <ele>635.4</ele>
        <time>2021-05-30T17:29:14Z</time>
      </trkpt>
      <trkpt lat="-12.1334800" lon="-76.7484380">
        <ele>635.0</ele>
        <time>2021-05-30T17:29:15Z</time>
      </trkpt>
      <trkpt lat="-12.1335140" lon="-76.7485020">
        <ele>634.6</ele>
        <time>2021-05-30T17:29:16Z</time>
      </trkpt>
      <trkpt lat="-12.1335570" lon="-76.7486280">
        <ele>633.9</ele>
        <time>2021-05-30T17:29:18Z</time>
      </trkpt>
      <trkpt lat="-12.1335810" lon="-76.7486920">
        <ele>633.5</ele>
        <time>2021-05-30T17:29:19Z</time>
      </trkpt>
      <trkpt lat="-12.1336130" lon="-76.7487550">
        <ele>633.1</ele>
        <time>2021-05-30T17:29:20Z</time>
      </trkpt>
      <trkpt lat="-12.1336650" lon="-76.7488810">
        <ele>632.3</ele>
        <time>2021-05-30T17:29:22Z</time>
      </trkpt>
      <trkpt lat="-12.1336890" lon="-76.7489450">
        <ele>631.9</ele>
        <time>2021-05-30T17:29:23Z</time>
      </trkpt>
      <trkpt lat="-12.1337260" lon="-76.7490790">
        <ele>631.1</ele>
        <time>2021-05-30T17:29:25Z</time>
      </trkpt>
      <trkpt lat="-12.1337670" lon="-76.7492080">
        <ele>630.2</ele>
        <time>2021-05-30T17:29:27Z</time>
      </trkpt>
      <trkpt lat="-12.1338210" lon="-76.7493250">
        <ele>629.3</ele>
        <time>2021-05-30T17:29:29Z</time>
      </trkpt>
      <trkpt lat="-12.1338830" lon="-76.7494490">
        <ele>628.5</ele>
        <time>2021-05-30T17:29:31Z</time>
      </trkpt>
      <trkpt lat="-12.1339200" lon="-76.7495130">
        <ele>628.0</ele>
        <time>2021-05-30T17:29:32Z</time>
      </trkpt>
      <trkpt lat="-12.1339810" lon="-76.7496390">
        <ele>627.5</ele>
        <time>2021-05-30T17:29:34Z</time>
      </trkpt>
      <trkpt lat="-12.1340630" lon="-76.7497360">
        <ele>627.0</ele>
        <time>2021-05-30T17:29:36Z</time>
      </trkpt>
      <trkpt lat="-12.1341020" lon="-76.7497780">
        <ele>626.8</ele>
        <time>2021-05-30T17:29:37Z</time>
      </trkpt>
      <trkpt lat="-12.1341740" lon="-76.7498670">
        <ele>626.4</ele>
        <time>2021-05-30T17:29:39Z</time>
      </trkpt>
      <trkpt lat="-12.1342420" lon="-76.7499670">
        <ele>625.8</ele>
        <time>2021-05-30T17:29:41Z</time>
      </trkpt>
      <trkpt lat="-12.1343080" lon="-76.7500570">
        <ele>625.2</ele>
        <time>2021-05-30T17:29:43Z</time>
      </trkpt>
      <trkpt lat="-12.1343530" lon="-76.7500950">
        <ele>624.8</ele>
        <time>2021-05-30T17:29:44Z</time>
      </trkpt>
      <trkpt lat="-12.1344040" lon="-76.7501310">
        <ele>624.5</ele>
        <time>2021-05-30T17:29:45Z</time>
      </trkpt>
      <trkpt lat="-12.1345040" lon="-76.7502220">
        <ele>623.8</ele>
        <time>2021-05-30T17:29:47Z</time>
      </trkpt>
      <trkpt lat="-12.1345480" lon="-76.7502740">
        <ele>623.4</ele>
        <time>2021-05-30T17:29:48Z</time>
      </trkpt>
      <trkpt lat="-12.1345880" lon="-76.7503250">
        <ele>623.0</ele>
        <time>2021-05-30T17:29:49Z</time>
      </trkpt>
      <trkpt lat="-12.1346700" lon="-76.7504240">
        <ele>622.2</ele>
        <time>2021-05-30T17:29:51Z</time>
      </trkpt>
      <trkpt lat="-12.1347670" lon="-76.7504910">
        <ele>621.2</ele>
        <time>2021-05-30T17:29:53Z</time>
      </trkpt>
      <trkpt lat="-12.1348190" lon="-76.7505250">
        <ele>620.7</ele>
        <time>2021-05-30T17:29:54Z</time>
      </trkpt>
      <trkpt lat="-12.1349150" lon="-76.7506150">
        <ele>619.4</ele>
        <time>2021-05-30T17:29:56Z</time>
      </trkpt>
      <trkpt lat="-12.1349660" lon="-76.7506590">
        <ele>618.8</ele>
        <time>2021-05-30T17:29:57Z</time>
      </trkpt>
      <trkpt lat="-12.1350200" lon="-76.7507040">
        <ele>618.2</ele>
        <time>2021-05-30T17:29:58Z</time>
      </trkpt>
      <trkpt lat="-12.1350750" lon="-76.7507540">
        <ele>617.5</ele>
        <time>2021-05-30T17:29:59Z</time>
      </trkpt>
      <trkpt lat="-12.1351200" lon="-76.7508160">
        <ele>616.9</ele>
        <time>2021-05-30T17:30:00Z</time>
      </trkpt>
      <trkpt lat="-12.1351660" lon="-76.7508820">
        <ele>616.4</ele>
        <time>2021-05-30T17:30:01Z</time>
      </trkpt>
      <trkpt lat="-12.1352710" lon="-76.7510000">
        <ele>615.5</ele>
        <time>2021-05-30T17:30:03Z</time>
      </trkpt>
      <trkpt lat="-12.1353210" lon="-76.7510550">
        <ele>615.2</ele>
        <time>2021-05-30T17:30:04Z</time>
      </trkpt>
      <trkpt lat="-12.1354180" lon="-76.7511520">
        <ele>614.6</ele>
        <time>2021-05-30T17:30:06Z</time>
      </trkpt>
      <trkpt lat="-12.1354630" lon="-76.7512070">
        <ele>614.4</ele>
        <time>2021-05-30T17:30:07Z</time>
      </trkpt>
      <trkpt lat="-12.1355000" lon="-76.7512650">
        <ele>614.1</ele>
        <time>2021-05-30T17:30:08Z</time>
      </trkpt>
      <trkpt lat="-12.1355330" lon="-76.7513290">
        <ele>613.9</ele>
        <time>2021-05-30T17:30:09Z</time>
      </trkpt>
      <trkpt lat="-12.1355610" lon="-76.7513910">
        <ele>613.6</ele>
        <time>2021-05-30T17:30:10Z</time>
      </trkpt>
      <trkpt lat="-12.1356250" lon="-76.7515010">
        <ele>613.1</ele>
        <time>2021-05-30T17:30:12Z</time>
      </trkpt>
      <trkpt lat="-12.1356620" lon="-76.7516410">
        <ele>612.4</ele>
        <time>2021-05-30T17:30:14Z</time>
      </trkpt>
      <trkpt lat="-12.1356720" lon="-76.7517120">
        <ele>612.1</ele>
        <time>2021-05-30T17:30:15Z</time>
      </trkpt>
      <trkpt lat="-12.1357180" lon="-76.7518510">
        <ele>611.4</ele>
        <time>2021-05-30T17:30:17Z</time>
      </trkpt>
      <trkpt lat="-12.1357560" lon="-76.7519880">
        <ele>610.7</ele>
        <time>2021-05-30T17:30:19Z</time>
      </trkpt>
      <trkpt lat="-12.1357670" lon="-76.7520550">
        <ele>610.3</ele>
        <time>2021-05-30T17:30:20Z</time>
      </trkpt>
      <trkpt lat="-12.1357710" lon="-76.7521160">
        <ele>609.9</ele>
        <time>2021-05-30T17:30:21Z</time>
      </trkpt>
      <trkpt lat="-12.1357630" lon="-76.7522420">
        <ele>609.1</ele>
        <time>2021-05-30T17:30:23Z</time>
      </trkpt>
      <trkpt lat="-12.1357540" lon="-76.7523060">
        <ele>608.7</ele>
        <time>2021-05-30T17:30:24Z</time>
      </trkpt>
      <trkpt lat="-12.1357430" lon="-76.7523710">
        <ele>608.3</ele>
        <time>2021-05-30T17:30:25Z</time>
      </trkpt>
      <trkpt lat="-12.1357240" lon="-76.7525000">
        <ele>607.6</ele>
        <time>2021-05-30T17:30:27Z</time>
      </trkpt>
      <trkpt lat="-12.1357150" lon="-76.7525600">
        <ele>607.3</ele>
        <time>2021-05-30T17:30:28Z</time>
      </trkpt>
      <trkpt lat="-12.1357050" lon="-76.7526160">
        <ele>607.0</ele>
        <time>2021-05-30T17:30:29Z</time>
      </trkpt>
      <trkpt lat="-12.1356990" lon="-76.7527380">
        <ele>606.4</ele>
        <time>2021-05-30T17:30:31Z</time>
      </trkpt>
      <trkpt lat="-12.1357040" lon="-76.7528670">
        <ele>605.7</ele>
        <time>2021-05-30T17:30:33Z</time>
      </trkpt>
      <trkpt lat="-12.1357240" lon="-76.7529810">
        <ele>605.1</ele>
        <time>2021-05-30T17:30:35Z</time>
      </trkpt>
      <trkpt lat="-12.1357570" lon="-76.7531000">
        <ele>604.3</ele>
        <time>2021-05-30T17:30:37Z</time>
      </trkpt>
      <trkpt lat="-12.1357680" lon="-76.7531580">
        <ele>604.0</ele>
        <time>2021-05-30T17:30:38Z</time>
      </trkpt>
      <trkpt lat="-12.1357820" lon="-76.7532140">
        <ele>603.6</ele>
        <time>2021-05-30T17:30:39Z</time>
      </trkpt>
      <trkpt lat="-12.1357980" lon="-76.7533290">
        <ele>602.8</ele>
        <time>2021-05-30T17:30:41Z</time>
      </trkpt>
      <trkpt lat="-12.1357900" lon="-76.7533970">
        <ele>602.3</ele>
        <time>2021-05-30T17:30:42Z</time>
      </trkpt>
      <trkpt lat="-12.1357550" lon="-76.7535230">
        <ele>601.5</ele>
        <time>2021-05-30T17:30:44Z</time>
      </trkpt>
      <trkpt lat="-12.1357320" lon="-76.7535820">
        <ele>601.1</ele>
        <time>2021-05-30T17:30:45Z</time>
      </trkpt>
      <trkpt lat="-12.1357120" lon="-76.7536390">
        <ele>600.8</ele>
        <time>2021-05-30T17:30:46Z</time>
      </trkpt>
      <trkpt lat="-12.1357040" lon="-76.7537590">
        <ele>600.3</ele>
        <time>2021-05-30T17:30:48Z</time>
      </trkpt>
      <trkpt lat="-12.1357080" lon="-76.7538140">
        <ele>600.0</ele>
        <time>2021-05-30T17:30:49Z</time>
      </trkpt>
      <trkpt lat="-12.1357170" lon="-76.7538740">
        <ele>599.6</ele>
        <time>2021-05-30T17:30:50Z</time>
      </trkpt>
      <trkpt lat="-12.1357270" lon="-76.7539900">
        <ele>599.0</ele>
        <time>2021-05-30T17:30:52Z</time>
      </trkpt>
      <trkpt lat="-12.1357330" lon="-76.7540590">
        <ele>598.6</ele>
        <time>2021-05-30T17:30:53Z</time>
      </trkpt>
      <trkpt lat="-12.1357440" lon="-76.7541960">
        <ele>597.6</ele>
        <time>2021-05-30T17:30:55Z</time>
      </trkpt>
      <trkpt lat="-12.1357480" lon="-76.7542690">
        <ele>597.2</ele>
        <time>2021-05-30T17:30:56Z</time>
      </trkpt>
      <trkpt lat="-12.1357290" lon="-76.7544130">
        <ele>596.3</ele>
        <time>2021-05-30T17:30:58Z</time>
      </trkpt>
      <trkpt lat="-12.1357230" lon="-76.7545500">
        <ele>595.6</ele>
        <time>2021-05-30T17:31:00Z</time>
      </trkpt>
      <trkpt lat="-12.1357270" lon="-76.7546810">
        <ele>595.0</ele>
        <time>2021-05-30T17:31:02Z</time>
      </trkpt>
      <trkpt lat="-12.1357270" lon="-76.7548040">
        <ele>594.4</ele>
        <time>2021-05-30T17:31:04Z</time>
      </trkpt>
      <trkpt lat="-12.1357240" lon="-76.7549220">
        <ele>593.7</ele>
        <time>2021-05-30T17:31:06Z</time>
      </trkpt>
      <trkpt lat="-12.1357200" lon="-76.7550600">
        <ele>592.9</ele>
        <time>2021-05-30T17:31:08Z</time>
      </trkpt>
      <trkpt lat="-12.1357160" lon="-76.7551270">
        <ele>592.4</ele>
        <time>2021-05-30T17:31:09Z</time>
      </trkpt>
      <trkpt lat="-12.1357170" lon="-76.7551890">
        <ele>591.9</ele>
        <time>2021-05-30T17:31:10Z</time>
      </trkpt>
      <trkpt lat="-12.1357160" lon="-76.7553110">
        <ele>591.0</ele>
        <time>2021-05-30T17:31:12Z</time>
      </trkpt>
      <trkpt lat="-12.1357070" lon="-76.7554390">
        <ele>590.2</ele>
        <time>2021-05-30T17:31:14Z</time>
      </trkpt>
      <trkpt lat="-12.1356980" lon="-76.7555030">
        <ele>589.9</ele>
        <time>2021-05-30T17:31:15Z</time>
      </trkpt>
      <trkpt lat="-12.1356850" lon="-76.7555710">
        <ele>589.5</ele>
        <time>2021-05-30T17:31:16Z</time>
      </trkpt>
      <trkpt lat="-12.1356740" lon="-76.7557050">
        <ele>588.9</ele>
        <time>2021-05-30T17:31:18Z</time>
      </trkpt>
      <trkpt lat="-12.1356730" lon="-76.7557760">
        <ele>588.6</ele>
        <time>2021-05-30T17:31:19Z</time>
      </trkpt>
      <trkpt lat="-12.1356590" lon="-76.7559280">
        <ele>587.6</ele>
        <time>2021-05-30T17:31:21Z</time>
      </trkpt>
      <trkpt lat="-12.1356450" lon="-76.7560040">
        <ele>587.1</ele>
        <time>2021-05-30T17:31:22Z</time>
      </trkpt>
      <trkpt lat="-12.1356260" lon="-76.7561570">
        <ele>586.1</ele>
        <time>2021-05-30T17:31:24Z</time>
      </trkpt>
      <trkpt lat="-12.1355840" lon="-76.7563040">
        <ele>585.2</ele>
        <time>2021-05-30T17:31:26Z</time>
      </trkpt>
      <trkpt lat="-12.1355590" lon="-76.7563730">
        <ele>584.8</ele>
        <time>2021-05-30T17:31:27Z</time>
      </trkpt>
      <trkpt lat="-12.1355140" lon="-76.7565090">
        <ele>584.0</ele>
        <time>2021-05-30T17:31:29Z</time>
      </trkpt>
      <trkpt lat="-12.1354600" lon="-76.7566410">
        <ele>583.0</ele>
        <time>2021-05-30T17:31:31Z</time>
      </trkpt>
      <trkpt lat="-12.1354280" lon="-76.7567020">
        <ele>582.6</ele>
        <time>2021-05-30T17:31:32Z</time>
      </trkpt>
      <trkpt lat="-12.1353570" lon="-76.7568200">
        <ele>581.8</ele>
        <time>2021-05-30T17:31:34Z</time>
      </trkpt>
      <trkpt lat="-12.1352860" lon="-76.7569220">
        <ele>581.2</ele>
        <time>2021-05-30T17:31:36Z</time>
      </trkpt>
      <trkpt lat="-12.1352210" lon="-76.7570220">
        <ele>580.6</ele>
        <time>2021-05-30T17:31:38Z</time>
      </trkpt>
      <trkpt lat="-12.1351680" lon="-76.7571260">
        <ele>580.0</ele>
        <time>2021-05-30T17:31:40Z</time>
      </trkpt>
      <trkpt lat="-12.1351520" lon="-76.7571860">
        <ele>579.7</ele>
        <time>2021-05-30T17:31:41Z</time>
      </trkpt>
      <trkpt lat="-12.1351170" lon="-76.7573310">
        <ele>574.7</ele>
        <time>2021-05-30T17:31:43Z</time>
      </trkpt>
      <trkpt lat="-12.1350900" lon="-76.7574050">
        <ele>578.3</ele>
        <time>2021-05-30T17:31:44Z</time>
      </trkpt>
      <trkpt lat="-12.1350590" lon="-76.7574760">
        <ele>577.8</ele>
        <time>2021-05-30T17:31:45Z</time>
      </trkpt>
      <trkpt lat="-12.1350320" lon="-76.7575500">
        <ele>577.3</ele>
        <time>2021-05-30T17:31:46Z</time>
      </trkpt>
      <trkpt lat="-12.1349770" lon="-76.7577000">
        <ele>576.2</ele>
        <time>2021-05-30T17:31:48Z</time>
      </trkpt>
      <trkpt lat="-12.1349340" lon="-76.7578770">
        <ele>575.0</ele>
        <time>2021-05-30T17:31:50Z</time>
      </trkpt>
      <trkpt lat="-12.1348940" lon="-76.7580380">
        <ele>574.1</ele>
        <time>2021-05-30T17:31:52Z</time>
      </trkpt>
      <trkpt lat="-12.1348740" lon="-76.7581160">
        <ele>573.7</ele>
        <time>2021-05-30T17:31:53Z</time>
      </trkpt>
      <trkpt lat="-12.1348540" lon="-76.7581970">
        <ele>573.2</ele>
        <time>2021-05-30T17:31:54Z</time>
      </trkpt>
      <trkpt lat="-12.1348330" lon="-76.7582830">
        <ele>572.8</ele>
        <time>2021-05-30T17:31:55Z</time>
      </trkpt>
      <trkpt lat="-12.1348080" lon="-76.7583680">
        <ele>572.4</ele>
        <time>2021-05-30T17:31:56Z</time>
      </trkpt>
      <trkpt lat="-12.1347880" lon="-76.7584440">
        <ele>572.0</ele>
        <time>2021-05-30T17:31:57Z</time>
      </trkpt>
      <trkpt lat="-12.1347720" lon="-76.7585530">
        <ele>571.4</ele>
        <time>2021-05-30T17:31:59Z</time>
      </trkpt>
      <trkpt lat="-12.1347760" lon="-76.7586580">
        <ele>570.8</ele>
        <time>2021-05-30T17:32:01Z</time>
      </trkpt>
      <trkpt lat="-12.1347910" lon="-76.7587290">
        <ele>570.4</ele>
        <time>2021-05-30T17:32:02Z</time>
      </trkpt>
      <trkpt lat="-12.1348190" lon="-76.7588680">
        <ele>569.7</ele>
        <time>2021-05-30T17:32:04Z</time>
      </trkpt>
      <trkpt lat="-12.1348420" lon="-76.7589370">
        <ele>569.3</ele>
        <time>2021-05-30T17:32:05Z</time>
      </trkpt>
      <trkpt lat="-12.1348820" lon="-76.7590740">
        <ele>568.5</ele>
        <time>2021-05-30T17:32:07Z</time>
      </trkpt>
      <trkpt lat="-12.1349150" lon="-76.7592020">
        <ele>567.8</ele>
        <time>2021-05-30T17:32:09Z</time>
      </trkpt>
      <trkpt lat="-12.1349510" lon="-76.7593330">
        <ele>567.0</ele>
        <time>2021-05-30T17:32:11Z</time>
      </trkpt>
      <trkpt lat="-12.1349780" lon="-76.7594550">
        <ele>566.2</ele>
        <time>2021-05-30T17:32:13Z</time>
      </trkpt>
      <trkpt lat="-12.1349960" lon="-76.7595080">
        <ele>565.9</ele>
        <time>2021-05-30T17:32:14Z</time>
      </trkpt>
      <trkpt lat="-12.1350120" lon="-76.7596400">
        <ele>565.0</ele>
        <time>2021-05-30T17:32:16Z</time>
      </trkpt>
      <trkpt lat="-12.1350140" lon="-76.7597170">
        <ele>564.6</ele>
        <time>2021-05-30T17:32:17Z</time>
      </trkpt>
      <trkpt lat="-12.1350150" lon="-76.7598640">
        <ele>563.8</ele>
        <time>2021-05-30T17:32:19Z</time>
      </trkpt>
      <trkpt lat="-12.1350230" lon="-76.7599950">
        <ele>563.1</ele>
        <time>2021-05-30T17:32:21Z</time>
      </trkpt>
      <trkpt lat="-12.1350190" lon="-76.7601120">
        <ele>562.6</ele>
        <time>2021-05-30T17:32:23Z</time>
      </trkpt>
      <trkpt lat="-12.1350330" lon="-76.7602220">
        <ele>562.0</ele>
        <time>2021-05-30T17:32:25Z</time>
      </trkpt>
      <trkpt lat="-12.1350400" lon="-76.7602860">
        <ele>561.7</ele>
        <time>2021-05-30T17:32:26Z</time>
      </trkpt>
      <trkpt lat="-12.1350490" lon="-76.7604180">
        <ele>561.1</ele>
        <time>2021-05-30T17:32:28Z</time>
      </trkpt>
      <trkpt lat="-12.1350570" lon="-76.7605630">
        <ele>560.6</ele>
        <time>2021-05-30T17:32:30Z</time>
      </trkpt>
      <trkpt lat="-12.1350810" lon="-76.7607090">
        <ele>560.2</ele>
        <time>2021-05-30T17:32:32Z</time>
      </trkpt>
      <trkpt lat="-12.1351020" lon="-76.7608680">
        <ele>559.7</ele>
        <time>2021-05-30T17:32:34Z</time>
      </trkpt>
      <trkpt lat="-12.1351000" lon="-76.7610040">
        <ele>559.2</ele>
        <time>2021-05-30T17:32:36Z</time>
      </trkpt>
      <trkpt lat="-12.1350950" lon="-76.7610600">
        <ele>558.9</ele>
        <time>2021-05-30T17:32:37Z</time>
      </trkpt>
      <trkpt lat="-12.1350820" lon="-76.7611090">
        <ele>558.7</ele>
        <time>2021-05-30T17:32:38Z</time>
      </trkpt>
      <trkpt lat="-12.1350610" lon="-76.7611560">
        <ele>558.4</ele>
        <time>2021-05-30T17:32:39Z</time>
      </trkpt>
      <trkpt lat="-12.1350240" lon="-76.7612710">
        <ele>557.8</ele>
        <time>2021-05-30T17:32:41Z</time>
      </trkpt>
      <trkpt lat="-12.1350040" lon="-76.7614060">
        <ele>556.9</ele>
        <time>2021-05-30T17:32:43Z</time>
      </trkpt>
      <trkpt lat="-12.1350030" lon="-76.7614760">
        <ele>556.5</ele>
        <time>2021-05-30T17:32:44Z</time>
      </trkpt>
      <trkpt lat="-12.1349990" lon="-76.7615390">
        <ele>556.1</ele>
        <time>2021-05-30T17:32:45Z</time>
      </trkpt>
      <trkpt lat="-12.1349860" lon="-76.7616000">
        <ele>555.7</ele>
        <time>2021-05-30T17:32:46Z</time>
      </trkpt>
      <trkpt lat="-12.1349610" lon="-76.7617280">
        <ele>555.0</ele>
        <time>2021-05-30T17:32:48Z</time>
      </trkpt>
      <trkpt lat="-12.1349460" lon="-76.7617900">
        <ele>554.7</ele>
        <time>2021-05-30T17:32:49Z</time>
      </trkpt>
      <trkpt lat="-12.1349220" lon="-76.7619180">
        <ele>554.0</ele>
        <time>2021-05-30T17:32:51Z</time>
      </trkpt>
      <trkpt lat="-12.1349060" lon="-76.7619810">
        <ele>553.7</ele>
        <time>2021-05-30T17:32:52Z</time>
      </trkpt>
      <trkpt lat="-12.1348750" lon="-76.7621090">
        <ele>553.1</ele>
        <time>2021-05-30T17:32:54Z</time>
      </trkpt>
      <trkpt lat="-12.1348620" lon="-76.7621690">
        <ele>552.8</ele>
        <time>2021-05-30T17:32:55Z</time>
      </trkpt>
      <trkpt lat="-12.1348500" lon="-76.7622300">
        <ele>552.5</ele>
        <time>2021-05-30T17:32:56Z</time>
      </trkpt>
      <trkpt lat="-12.1348340" lon="-76.7622990">
        <ele>552.2</ele>
        <time>2021-05-30T17:32:57Z</time>
      </trkpt>
      <trkpt lat="-12.1348020" lon="-76.7624290">
        <ele>551.5</ele>
        <time>2021-05-30T17:32:59Z</time>
      </trkpt>
      <trkpt lat="-12.1347900" lon="-76.7624890">
        <ele>551.2</ele>
        <time>2021-05-30T17:33:00Z</time>
      </trkpt>
      <trkpt lat="-12.1347720" lon="-76.7625460">
        <ele>550.9</ele>
        <time>2021-05-30T17:33:01Z</time>
      </trkpt>
      <trkpt lat="-12.1347480" lon="-76.7626000">
        <ele>550.5</ele>
        <time>2021-05-30T17:33:02Z</time>
      </trkpt>
      <trkpt lat="-12.1347050" lon="-76.7627030">
        <ele>549.8</ele>
        <time>2021-05-30T17:33:04Z</time>
      </trkpt>
      <trkpt lat="-12.1346650" lon="-76.7627900">
        <ele>549.3</ele>
        <time>2021-05-30T17:33:06Z</time>
      </trkpt>
      <trkpt lat="-12.1346330" lon="-76.7628890">
        <ele>548.6</ele>
        <time>2021-05-30T17:33:08Z</time>
      </trkpt>
      <trkpt lat="-12.1346260" lon="-76.7629490">
        <ele>548.3</ele>
        <time>2021-05-30T17:33:09Z</time>
      </trkpt>
      <trkpt lat="-12.1346160" lon="-76.7630110">
        <ele>547.9</ele>
        <time>2021-05-30T17:33:10Z</time>
      </trkpt>
      <trkpt lat="-12.1346100" lon="-76.7630690">
        <ele>547.6</ele>
        <time>2021-05-30T17:33:11Z</time>
      </trkpt>
      <trkpt lat="-12.1346110" lon="-76.7631300">
        <ele>547.3</ele>
        <time>2021-05-30T17:33:12Z</time>
      </trkpt>
      <trkpt lat="-12.1346210" lon="-76.7632540">
        <ele>546.7</ele>
        <time>2021-05-30T17:33:14Z</time>
      </trkpt>
      <trkpt lat="-12.1346180" lon="-76.7633190">
        <ele>546.4</ele>
        <time>2021-05-30T17:33:15Z</time>
      </trkpt>
      <trkpt lat="-12.1346090" lon="-76.7634420">
        <ele>545.9</ele>
        <time>2021-05-30T17:33:17Z</time>
      </trkpt>
      <trkpt lat="-12.1346080" lon="-76.7634970">
        <ele>545.6</ele>
        <time>2021-05-30T17:33:18Z</time>
      </trkpt>
      <trkpt lat="-12.1346110" lon="-76.7635570">
        <ele>545.3</ele>
        <time>2021-05-30T17:33:19Z</time>
      </trkpt>
      <trkpt lat="-12.1346170" lon="-76.7637050">
        <ele>544.7</ele>
        <time>2021-05-30T17:33:21Z</time>
      </trkpt>
      <trkpt lat="-12.1346190" lon="-76.7637680">
        <ele>544.5</ele>
        <time>2021-05-30T17:33:22Z</time>
      </trkpt>
      <trkpt lat="-12.1346210" lon="-76.7638280">
        <ele>544.2</ele>
        <time>2021-05-30T17:33:23Z</time>
      </trkpt>
      <trkpt lat="-12.1346160" lon="-76.7639440">
        <ele>543.7</ele>
        <time>2021-05-30T17:33:25Z</time>
      </trkpt>
      <trkpt lat="-12.1346020" lon="-76.7640730">
        <ele>543.0</ele>
        <time>2021-05-30T17:33:27Z</time>
      </trkpt>
      <trkpt lat="-12.1346010" lon="-76.7641460">
        <ele>542.5</ele>
        <time>2021-05-30T17:33:28Z</time>
      </trkpt>
      <trkpt lat="-12.1346080" lon="-76.7642920">
        <ele>541.7</ele>
        <time>2021-05-30T17:33:30Z</time>
      </trkpt>
      <trkpt lat="-12.1346210" lon="-76.7644230">
        <ele>540.9</ele>
        <time>2021-05-30T17:33:32Z</time>
      </trkpt>
      <trkpt lat="-12.1346310" lon="-76.7644920">
        <ele>540.5</ele>
        <time>2021-05-30T17:33:33Z</time>
      </trkpt>
      <trkpt lat="-12.1346450" lon="-76.7645540">
        <ele>540.2</ele>
        <time>2021-05-30T17:33:34Z</time>
      </trkpt>
      <trkpt lat="-12.1346770" lon="-76.7646830">
        <ele>539.5</ele>
        <time>2021-05-30T17:33:36Z</time>
      </trkpt>
      <trkpt lat="-12.1346990" lon="-76.7647440">
        <ele>539.2</ele>
        <time>2021-05-30T17:33:37Z</time>
      </trkpt>
      <trkpt lat="-12.1347380" lon="-76.7648710">
        <ele>538.5</ele>
        <time>2021-05-30T17:33:39Z</time>
      </trkpt>
      <trkpt lat="-12.1347690" lon="-76.7650100">
        <ele>537.9</ele>
        <time>2021-05-30T17:33:41Z</time>
      </trkpt>
      <trkpt lat="-12.1347850" lon="-76.7650790">
        <ele>537.6</ele>
        <time>2021-05-30T17:33:42Z</time>
      </trkpt>
      <trkpt lat="-12.1347970" lon="-76.7651460">
        <ele>537.3</ele>
        <time>2021-05-30T17:33:43Z</time>
      </trkpt>
      <trkpt lat="-12.1348180" lon="-76.7652690">
        <ele>536.7</ele>
        <time>2021-05-30T17:33:45Z</time>
      </trkpt>
      <trkpt lat="-12.1348350" lon="-76.7653850">
        <ele>536.0</ele>
        <time>2021-05-30T17:33:47Z</time>
      </trkpt>
      <trkpt lat="-12.1348450" lon="-76.7654470">
        <ele>535.7</ele>
        <time>2021-05-30T17:33:48Z</time>
      </trkpt>
      <trkpt lat="-12.1348900" lon="-76.7655880">
        <ele>535.0</ele>
        <time>2021-05-30T17:33:50Z</time>
      </trkpt>
      <trkpt lat="-12.1348960" lon="-76.7656580">
        <ele>534.6</ele>
        <time>2021-05-30T17:33:51Z</time>
      </trkpt>
      <trkpt lat="-12.1349010" lon="-76.7657850">
        <ele>534.1</ele>
        <time>2021-05-30T17:33:53Z</time>
      </trkpt>
      <trkpt lat="-12.1349150" lon="-76.7658380">
        <ele>533.8</ele>
        <time>2021-05-30T17:33:54Z</time>
      </trkpt>
      <trkpt lat="-12.1349380" lon="-76.7659610">
        <ele>533.2</ele>
        <time>2021-05-30T17:33:56Z</time>
      </trkpt>
      <trkpt lat="-12.1349540" lon="-76.7660920">
        <ele>532.4</ele>
        <time>2021-05-30T17:33:58Z</time>
      </trkpt>
      <trkpt lat="-12.1349510" lon="-76.7661560">
        <ele>532.0</ele>
        <time>2021-05-30T17:33:59Z</time>
      </trkpt>
      <trkpt lat="-12.1349560" lon="-76.7662830">
        <ele>531.2</ele>
        <time>2021-05-30T17:34:01Z</time>
      </trkpt>
      <trkpt lat="-12.1349600" lon="-76.7663500">
        <ele>530.8</ele>
        <time>2021-05-30T17:34:02Z</time>
      </trkpt>
      <trkpt lat="-12.1349740" lon="-76.7664870">
        <ele>530.0</ele>
        <time>2021-05-30T17:34:04Z</time>
      </trkpt>
      <trkpt lat="-12.1349760" lon="-76.7665640">
        <ele>529.6</ele>
        <time>2021-05-30T17:34:05Z</time>
      </trkpt>
      <trkpt lat="-12.1349850" lon="-76.7667260">
        <ele>528.7</ele>
        <time>2021-05-30T17:34:07Z</time>
      </trkpt>
      <trkpt lat="-12.1349970" lon="-76.7668650">
        <ele>528.0</ele>
        <time>2021-05-30T17:34:09Z</time>
      </trkpt>
      <trkpt lat="-12.1350010" lon="-76.7670060">
        <ele>527.3</ele>
        <time>2021-05-30T17:34:11Z</time>
      </trkpt>
      <trkpt lat="-12.1350000" lon="-76.7670770">
        <ele>526.9</ele>
        <time>2021-05-30T17:34:12Z</time>
      </trkpt>
      <trkpt lat="-12.1350040" lon="-76.7671450">
        <ele>526.6</ele>
        <time>2021-05-30T17:34:13Z</time>
      </trkpt>
      <trkpt lat="-12.1350020" lon="-76.7672840">
        <ele>525.9</ele>
        <time>2021-05-30T17:34:15Z</time>
      </trkpt>
      <trkpt lat="-12.1350190" lon="-76.7674510">
        <ele>525.0</ele>
        <time>2021-05-30T17:34:17Z</time>
      </trkpt>
      <trkpt lat="-12.1350310" lon="-76.7675250">
        <ele>524.6</ele>
        <time>2021-05-30T17:34:18Z</time>
      </trkpt>
      <trkpt lat="-12.1350320" lon="-76.7676580">
        <ele>523.9</ele>
        <time>2021-05-30T17:34:20Z</time>
      </trkpt>
      <trkpt lat="-12.1350060" lon="-76.7677930">
        <ele>523.0</ele>
        <time>2021-05-30T17:34:22Z</time>
      </trkpt>
      <trkpt lat="-12.1349710" lon="-76.7679320">
        <ele>522.1</ele>
        <time>2021-05-30T17:34:24Z</time>
      </trkpt>
      <trkpt lat="-12.1349510" lon="-76.7679970">
        <ele>521.7</ele>
        <time>2021-05-30T17:34:25Z</time>
      </trkpt>
      <trkpt lat="-12.1349210" lon="-76.7680500">
        <ele>521.3</ele>
        <time>2021-05-30T17:34:26Z</time>
      </trkpt>
      <trkpt lat="-12.1348550" lon="-76.7681380">
        <ele>520.6</ele>
        <time>2021-05-30T17:34:28Z</time>
      </trkpt>
      <trkpt lat="-12.1348250" lon="-76.7681910">
        <ele>520.3</ele>
        <time>2021-05-30T17:34:29Z</time>
      </trkpt>
      <trkpt lat="-12.1347760" lon="-76.7683010">
        <ele>519.6</ele>
        <time>2021-05-30T17:34:31Z</time>
      </trkpt>
      <trkpt lat="-12.1347480" lon="-76.7683510">
        <ele>519.3</ele>
        <time>2021-05-30T17:34:32Z</time>
      </trkpt>
      <trkpt lat="-12.1346960" lon="-76.7684610">
        <ele>518.7</ele>
        <time>2021-05-30T17:34:34Z</time>
      </trkpt>
      <trkpt lat="-12.1346660" lon="-76.7685180">
        <ele>518.4</ele>
        <time>2021-05-30T17:34:35Z</time>
      </trkpt>
      <trkpt lat="-12.1346120" lon="-76.7686350">
        <ele>517.7</ele>
        <time>2021-05-30T17:34:37Z</time>
      </trkpt>
      <trkpt lat="-12.1345550" lon="-76.7687660">
        <ele>516.9</ele>
        <time>2021-05-30T17:34:39Z</time>
      </trkpt>
      <trkpt lat="-12.1345260" lon="-76.7688260">
        <ele>516.5</ele>
        <time>2021-05-30T17:34:40Z</time>
      </trkpt>
      <trkpt lat="-12.1344770" lon="-76.7689420">
        <ele>515.8</ele>
        <time>2021-05-30T17:34:42Z</time>
      </trkpt>
      <trkpt lat="-12.1344560" lon="-76.7690920">
        <ele>514.8</ele>
        <time>2021-05-30T17:34:44Z</time>
      </trkpt>
      <trkpt lat="-12.1344440" lon="-76.7692390">
        <ele>513.9</ele>
        <time>2021-05-30T17:34:46Z</time>
      </trkpt>
      <trkpt lat="-12.1344370" lon="-76.7693090">
        <ele>513.5</ele>
        <time>2021-05-30T17:34:47Z</time>
      </trkpt>
      <trkpt lat="-12.1344190" lon="-76.7694260">
        <ele>512.9</ele>
        <time>2021-05-30T17:34:49Z</time>
      </trkpt>
      <trkpt lat="-12.1344140" lon="-76.7695220">
        <ele>512.3</ele>
        <time>2021-05-30T17:34:51Z</time>
      </trkpt>
      <trkpt lat="-12.1344090" lon="-76.7696390">
        <ele>511.7</ele>
        <time>2021-05-30T17:34:53Z</time>
      </trkpt>
      <trkpt lat="-12.1343990" lon="-76.7697000">
        <ele>511.4</ele>
        <time>2021-05-30T17:34:54Z</time>
      </trkpt>
      <trkpt lat="-12.1343820" lon="-76.7698190">
        <ele>510.9</ele>
        <time>2021-05-30T17:34:56Z</time>
      </trkpt>
      <trkpt lat="-12.1343870" lon="-76.7699420">
        <ele>510.3</ele>
        <time>2021-05-30T17:34:58Z</time>
      </trkpt>
      <trkpt lat="-12.1344060" lon="-76.7700690">
        <ele>509.7</ele>
        <time>2021-05-30T17:35:00Z</time>
      </trkpt>
      <trkpt lat="-12.1344250" lon="-76.7701300">
        <ele>509.4</ele>
        <time>2021-05-30T17:35:01Z</time>
      </trkpt>
      <trkpt lat="-12.1344440" lon="-76.7701900">
        <ele>509.1</ele>
        <time>2021-05-30T17:35:02Z</time>
      </trkpt>
      <trkpt lat="-12.1344870" lon="-76.7703080">
        <ele>508.6</ele>
        <time>2021-05-30T17:35:04Z</time>
      </trkpt>
      <trkpt lat="-12.1345140" lon="-76.7703690">
        <ele>508.3</ele>
        <time>2021-05-30T17:35:05Z</time>
      </trkpt>
      <trkpt lat="-12.1345720" lon="-76.7704870">
        <ele>507.7</ele>
        <time>2021-05-30T17:35:07Z</time>
      </trkpt>
      <trkpt lat="-12.1346060" lon="-76.7705400">
        <ele>507.4</ele>
        <time>2021-05-30T17:35:08Z</time>
      </trkpt>
      <trkpt lat="-12.1346340" lon="-76.7705960">
        <ele>507.1</ele>
        <time>2021-05-30T17:35:09Z</time>
      </trkpt>
      <trkpt lat="-12.1346690" lon="-76.7707090">
        <ele>506.5</ele>
        <time>2021-05-30T17:35:11Z</time>
      </trkpt>
      <trkpt lat="-12.1346820" lon="-76.7708460">
        <ele>505.8</ele>
        <time>2021-05-30T17:35:13Z</time>
      </trkpt>
      <trkpt lat="-12.1346930" lon="-76.7709870">
        <ele>505.1</ele>
        <time>2021-05-30T17:35:15Z</time>
      </trkpt>
      <trkpt lat="-12.1346950" lon="-76.7710480">
        <ele>504.8</ele>
        <time>2021-05-30T17:35:16Z</time>
      </trkpt>
      <trkpt lat="-12.1346970" lon="-76.7711910">
        <ele>504.1</ele>
        <time>2021-05-30T17:35:18Z</time>
      </trkpt>
      <trkpt lat="-12.1347030" lon="-76.7712600">
        <ele>503.8</ele>
        <time>2021-05-30T17:35:19Z</time>
      </trkpt>
      <trkpt lat="-12.1347240" lon="-76.7713900">
        <ele>503.2</ele>
        <time>2021-05-30T17:35:21Z</time>
      </trkpt>
      <trkpt lat="-12.1347400" lon="-76.7714540">
        <ele>502.9</ele>
        <time>2021-05-30T17:35:22Z</time>
      </trkpt>
      <trkpt lat="-12.1347550" lon="-76.7715210">
        <ele>502.5</ele>
        <time>2021-05-30T17:35:23Z</time>
      </trkpt>
      <trkpt lat="-12.1347680" lon="-76.7715900">
        <ele>502.1</ele>
        <time>2021-05-30T17:35:24Z</time>
      </trkpt>
      <trkpt lat="-12.1347990" lon="-76.7717250">
        <ele>501.4</ele>
        <time>2021-05-30T17:35:26Z</time>
      </trkpt>
      <trkpt lat="-12.1348250" lon="-76.7718510">
        <ele>500.7</ele>
        <time>2021-05-30T17:35:28Z</time>
      </trkpt>
      <trkpt lat="-12.1348540" lon="-76.7719630">
        <ele>499.9</ele>
        <time>2021-05-30T17:35:30Z</time>
      </trkpt>
      <trkpt lat="-12.1348610" lon="-76.7720770">
        <ele>499.2</ele>
        <time>2021-05-30T17:35:32Z</time>
      </trkpt>
      <trkpt lat="-12.1348940" lon="-76.7722060">
        <ele>498.1</ele>
        <time>2021-05-30T17:35:34Z</time>
      </trkpt>
      <trkpt lat="-12.1349020" lon="-76.7722680">
        <ele>497.6</ele>
        <time>2021-05-30T17:35:35Z</time>
      </trkpt>
      <trkpt lat="-12.1349250" lon="-76.7723760">
        <ele>496.6</ele>
        <time>2021-05-30T17:35:37Z</time>
      </trkpt>
      <trkpt lat="-12.1349450" lon="-76.7724390">
        <ele>496.1</ele>
        <time>2021-05-30T17:35:38Z</time>
      </trkpt>
      <trkpt lat="-12.1349720" lon="-76.7725520">
        <ele>495.3</ele>
        <time>2021-05-30T17:35:40Z</time>
      </trkpt>
      <trkpt lat="-12.1350030" lon="-76.7726580">
        <ele>494.6</ele>
        <time>2021-05-30T17:35:42Z</time>
      </trkpt>
      <trkpt lat="-12.1350210" lon="-76.7727160">
        <ele>494.1</ele>
        <time>2021-05-30T17:35:43Z</time>
      </trkpt>
      <trkpt lat="-12.1350400" lon="-76.7727740">
        <ele>493.7</ele>
        <time>2021-05-30T17:35:44Z</time>
      </trkpt>
      <trkpt lat="-12.1350620" lon="-76.7728360">
        <ele>493.2</ele>
        <time>2021-05-30T17:35:45Z</time>
      </trkpt>
      <trkpt lat="-12.1350890" lon="-76.7729000">
        <ele>492.7</ele>
        <time>2021-05-30T17:35:46Z</time>
      </trkpt>
      <trkpt lat="-12.1351470" lon="-76.7730450">
        <ele>491.2</ele>
        <time>2021-05-30T17:35:48Z</time>
      </trkpt>
      <trkpt lat="-12.1351680" lon="-76.7731220">
        <ele>490.4</ele>
        <time>2021-05-30T17:35:49Z</time>
      </trkpt>
      <trkpt lat="-12.1352090" lon="-76.7732810">
        <ele>488.9</ele>
        <time>2021-05-30T17:35:51Z</time>
      </trkpt>
      <trkpt lat="-12.1352350" lon="-76.7733510">
        <ele>488.5</ele>
        <time>2021-05-30T17:35:52Z</time>
      </trkpt>
      <trkpt lat="-12.1352640" lon="-76.7734220">
        <ele>488.2</ele>
        <time>2021-05-30T17:35:53Z</time>
      </trkpt>
      <trkpt lat="-12.1353080" lon="-76.7735640">
        <ele>488.0</ele>
        <time>2021-05-30T17:35:55Z</time>
      </trkpt>
      <trkpt lat="-12.1353600" lon="-76.7736980">
        <ele>487.9</ele>
        <time>2021-05-30T17:35:57Z</time>
      </trkpt>
      <trkpt lat="-12.1354090" lon="-76.7738120">
        <ele>487.8</ele>
        <time>2021-05-30T17:35:59Z</time>
      </trkpt>
      <trkpt lat="-12.1354450" lon="-76.7739150">
        <ele>487.6</ele>
        <time>2021-05-30T17:36:01Z</time>
      </trkpt>
      <trkpt lat="-12.1354770" lon="-76.7740130">
        <ele>487.3</ele>
        <time>2021-05-30T17:36:03Z</time>
      </trkpt>
      <trkpt lat="-12.1354870" lon="-76.7740680">
        <ele>487.0</ele>
        <time>2021-05-30T17:36:04Z</time>
      </trkpt>
      <trkpt lat="-12.1355030" lon="-76.7741250">
        <ele>486.8</ele>
        <time>2021-05-30T17:36:05Z</time>
      </trkpt>
      <trkpt lat="-12.1355650" lon="-76.7742410">
        <ele>486.2</ele>
        <time>2021-05-30T17:36:07Z</time>
      </trkpt>
      <trkpt lat="-12.1356070" lon="-76.7743010">
        <ele>485.8</ele>
        <time>2021-05-30T17:36:08Z</time>
      </trkpt>
      <trkpt lat="-12.1356840" lon="-76.7744160">
        <ele>485.1</ele>
        <time>2021-05-30T17:36:10Z</time>
      </trkpt>
      <trkpt lat="-12.1357520" lon="-76.7745430">
        <ele>484.4</ele>
        <time>2021-05-30T17:36:12Z</time>
      </trkpt>
      <trkpt lat="-12.1358090" lon="-76.7746550">
        <ele>483.8</ele>
        <time>2021-05-30T17:36:14Z</time>
      </trkpt>
      <trkpt lat="-12.1358380" lon="-76.7747110">
        <ele>483.5</ele>
        <time>2021-05-30T17:36:15Z</time>
      </trkpt>
      <trkpt lat="-12.1358590" lon="-76.7747720">
        <ele>483.1</ele>
        <time>2021-05-30T17:36:16Z</time>
      </trkpt>
      <trkpt lat="-12.1359040" lon="-76.7749130">
        <ele>482.3</ele>
        <time>2021-05-30T17:36:18Z</time>
      </trkpt>
      <trkpt lat="-12.1359340" lon="-76.7749820">
        <ele>481.9</ele>
        <time>2021-05-30T17:36:19Z</time>
      </trkpt>
      <trkpt lat="-12.1359890" lon="-76.7751250">
        <ele>481.0</ele>
        <time>2021-05-30T17:36:21Z</time>
      </trkpt>
      <trkpt lat="-12.1360120" lon="-76.7752010">
        <ele>480.6</ele>
        <time>2021-05-30T17:36:22Z</time>
      </trkpt>
      <trkpt lat="-12.1360380" lon="-76.7752720">
        <ele>480.2</ele>
        <time>2021-05-30T17:36:23Z</time>
      </trkpt>
      <trkpt lat="-12.1360690" lon="-76.7753460">
        <ele>479.8</ele>
        <time>2021-05-30T17:36:24Z</time>
      </trkpt>
      <trkpt lat="-12.1361390" lon="-76.7754940">
        <ele>479.2</ele>
        <time>2021-05-30T17:36:26Z</time>
      </trkpt>
      <trkpt lat="-12.1362030" lon="-76.7756310">
        <ele>478.7</ele>
        <time>2021-05-30T17:36:28Z</time>
      </trkpt>
      <trkpt lat="-12.1362690" lon="-76.7757640">
        <ele>478.3</ele>
        <time>2021-05-30T17:36:30Z</time>
      </trkpt>
      <trkpt lat="-12.1363220" lon="-76.7759060">
        <ele>477.7</ele>
        <time>2021-05-30T17:36:32Z</time>
      </trkpt>
      <trkpt lat="-12.1363690" lon="-76.7760440">
        <ele>477.0</ele>
        <time>2021-05-30T17:36:34Z</time>
      </trkpt>
      <trkpt lat="-12.1364460" lon="-76.7762130">
        <ele>475.7</ele>
        <time>2021-05-30T17:36:36Z</time>
      </trkpt>
      <trkpt lat="-12.1364850" lon="-76.7762850">
        <ele>475.1</ele>
        <time>2021-05-30T17:36:37Z</time>
      </trkpt>
      <trkpt lat="-12.1365230" lon="-76.7763530">
        <ele>474.5</ele>
        <time>2021-05-30T17:36:38Z</time>
      </trkpt>
      <trkpt lat="-12.1365880" lon="-76.7764780">
        <ele>473.6</ele>
        <time>2021-05-30T17:36:40Z</time>
      </trkpt>
      <trkpt lat="-12.1366420" lon="-76.7766020">
        <ele>472.8</ele>
        <time>2021-05-30T17:36:42Z</time>
      </trkpt>
      <trkpt lat="-12.1366660" lon="-76.7766670">
        <ele>472.3</ele>
        <time>2021-05-30T17:36:43Z</time>
      </trkpt>
      <trkpt lat="-12.1367330" lon="-76.7768030">
        <ele>471.3</ele>
        <time>2021-05-30T17:36:45Z</time>
      </trkpt>
      <trkpt lat="-12.1367670" lon="-76.7768720">
        <ele>470.7</ele>
        <time>2021-05-30T17:36:46Z</time>
      </trkpt>
      <trkpt lat="-12.1368170" lon="-76.7770090">
        <ele>469.6</ele>
        <time>2021-05-30T17:36:48Z</time>
      </trkpt>
      <trkpt lat="-12.1368390" lon="-76.7770790">
        <ele>469.1</ele>
        <time>2021-05-30T17:36:49Z</time>
      </trkpt>
      <trkpt lat="-12.1368670" lon="-76.7771440">
        <ele>468.8</ele>
        <time>2021-05-30T17:36:50Z</time>
      </trkpt>
      <trkpt lat="-12.1369090" lon="-76.7772820">
        <ele>468.3</ele>
        <time>2021-05-30T17:36:52Z</time>
      </trkpt>
      <trkpt lat="-12.1369300" lon="-76.7773530">
        <ele>468.2</ele>
        <time>2021-05-30T17:36:53Z</time>
      </trkpt>
      <trkpt lat="-12.1369540" lon="-76.7774240">
        <ele>468.0</ele>
        <time>2021-05-30T17:36:54Z</time>
      </trkpt>
      <trkpt lat="-12.1370110" lon="-76.7775570">
        <ele>467.5</ele>
        <time>2021-05-30T17:36:56Z</time>
      </trkpt>
      <trkpt lat="-12.1370280" lon="-76.7776240">
        <ele>467.3</ele>
        <time>2021-05-30T17:36:57Z</time>
      </trkpt>
      <trkpt lat="-12.1370700" lon="-76.7777510">
        <ele>466.6</ele>
        <time>2021-05-30T17:36:59Z</time>
      </trkpt>
      <trkpt lat="-12.1370970" lon="-76.7778120">
        <ele>466.2</ele>
        <time>2021-05-30T17:37:00Z</time>
      </trkpt>
      <trkpt lat="-12.1371230" lon="-76.7778730">
        <ele>465.9</ele>
        <time>2021-05-30T17:37:01Z</time>
      </trkpt>
      <trkpt lat="-12.1371510" lon="-76.7779340">
        <ele>465.5</ele>
        <time>2021-05-30T17:37:02Z</time>
      </trkpt>
      <trkpt lat="-12.1371970" lon="-76.7780450">
        <ele>464.9</ele>
        <time>2021-05-30T17:37:04Z</time>
      </trkpt>
      <trkpt lat="-12.1372600" lon="-76.7781450">
        <ele>464.2</ele>
        <time>2021-05-30T17:37:06Z</time>
      </trkpt>
      <trkpt lat="-12.1372960" lon="-76.7781970">
        <ele>463.8</ele>
        <time>2021-05-30T17:37:07Z</time>
      </trkpt>
      <trkpt lat="-12.1373650" lon="-76.7783090">
        <ele>462.6</ele>
        <time>2021-05-30T17:37:09Z</time>
      </trkpt>
      <trkpt lat="-12.1374100" lon="-76.7784400">
        <ele>461.2</ele>
        <time>2021-05-30T17:37:11Z</time>
      </trkpt>
      <trkpt lat="-12.1374470" lon="-76.7785820">
        <ele>459.5</ele>
        <time>2021-05-30T17:37:13Z</time>
      </trkpt>
      <trkpt lat="-12.1374730" lon="-76.7787240">
        <ele>457.7</ele>
        <time>2021-05-30T17:37:15Z</time>
      </trkpt>
      <trkpt lat="-12.1374880" lon="-76.7788630">
        <ele>456.5</ele>
        <time>2021-05-30T17:37:17Z</time>
      </trkpt>
      <trkpt lat="-12.1375030" lon="-76.7790120">
        <ele>455.8</ele>
        <time>2021-05-30T17:37:19Z</time>
      </trkpt>
      <trkpt lat="-12.1375100" lon="-76.7790800">
        <ele>455.7</ele>
        <time>2021-05-30T17:37:20Z</time>
      </trkpt>
      <trkpt lat="-12.1375330" lon="-76.7792120">
        <ele>455.6</ele>
        <time>2021-05-30T17:37:22Z</time>
      </trkpt>
      <trkpt lat="-12.1375470" lon="-76.7793530">
        <ele>455.4</ele>
        <time>2021-05-30T17:37:24Z</time>
      </trkpt>
      <trkpt lat="-12.1375520" lon="-76.7795040">
        <ele>455.1</ele>
        <time>2021-05-30T17:37:26Z</time>
      </trkpt>
      <trkpt lat="-12.1375580" lon="-76.7795800">
        <ele>454.9</ele>
        <time>2021-05-30T17:37:27Z</time>
      </trkpt>
      <trkpt lat="-12.1375680" lon="-76.7797400">
        <ele>454.6</ele>
        <time>2021-05-30T17:37:29Z</time>
      </trkpt>
      <trkpt lat="-12.1375750" lon="-76.7798940">
        <ele>454.4</ele>
        <time>2021-05-30T17:37:31Z</time>
      </trkpt>
      <trkpt lat="-12.1375850" lon="-76.7800330">
        <ele>454.0</ele>
        <time>2021-05-30T17:37:33Z</time>
      </trkpt>
      <trkpt lat="-12.1375880" lon="-76.7801750">
        <ele>453.3</ele>
        <time>2021-05-30T17:37:35Z</time>
      </trkpt>
      <trkpt lat="-12.1375920" lon="-76.7802440">
        <ele>453.0</ele>
        <time>2021-05-30T17:37:36Z</time>
      </trkpt>
      <trkpt lat="-12.1376040" lon="-76.7803820">
        <ele>452.2</ele>
        <time>2021-05-30T17:37:38Z</time>
      </trkpt>
      <trkpt lat="-12.1376090" lon="-76.7805220">
        <ele>451.4</ele>
        <time>2021-05-30T17:37:40Z</time>
      </trkpt>
      <trkpt lat="-12.1375960" lon="-76.7806700">
        <ele>450.8</ele>
        <time>2021-05-30T17:37:42Z</time>
      </trkpt>
      <trkpt lat="-12.1375940" lon="-76.7807480">
        <ele>450.5</ele>
        <time>2021-05-30T17:37:43Z</time>
      </trkpt>
      <trkpt lat="-12.1375930" lon="-76.7808930">
        <ele>450.0</ele>
        <time>2021-05-30T17:37:45Z</time>
      </trkpt>
      <trkpt lat="-12.1375950" lon="-76.7809630">
        <ele>449.7</ele>
        <time>2021-05-30T17:37:46Z</time>
      </trkpt>
      <trkpt lat="-12.1375980" lon="-76.7810310">
        <ele>449.4</ele>
        <time>2021-05-30T17:37:47Z</time>
      </trkpt>
      <trkpt lat="-12.1376060" lon="-76.7811000">
        <ele>449.1</ele>
        <time>2021-05-30T17:37:48Z</time>
      </trkpt>
      <trkpt lat="-12.1376190" lon="-76.7811720">
        <ele>448.7</ele>
        <time>2021-05-30T17:37:49Z</time>
      </trkpt>
      <trkpt lat="-12.1376560" lon="-76.7812970">
        <ele>448.2</ele>
        <time>2021-05-30T17:37:51Z</time>
      </trkpt>
      <trkpt lat="-12.1376810" lon="-76.7813660">
        <ele>447.8</ele>
        <time>2021-05-30T17:37:52Z</time>
      </trkpt>
      <trkpt lat="-12.1377260" lon="-76.7815090">
        <ele>447.2</ele>
        <time>2021-05-30T17:37:54Z</time>
      </trkpt>
      <trkpt lat="-12.1377460" lon="-76.7815810">
        <ele>446.8</ele>
        <time>2021-05-30T17:37:55Z</time>
      </trkpt>
      <trkpt lat="-12.1377870" lon="-76.7817310">
        <ele>446.1</ele>
        <time>2021-05-30T17:37:57Z</time>
      </trkpt>
      <trkpt lat="-12.1378360" lon="-76.7818930">
        <ele>445.6</ele>
        <time>2021-05-30T17:37:59Z</time>
      </trkpt>
      <trkpt lat="-12.1378660" lon="-76.7819810">
        <ele>445.3</ele>
        <time>2021-05-30T17:38:00Z</time>
      </trkpt>
      <trkpt lat="-12.1379160" lon="-76.7821480">
        <ele>444.6</ele>
        <time>2021-05-30T17:38:02Z</time>
      </trkpt>
      <trkpt lat="-12.1379460" lon="-76.7822310">
        <ele>444.3</ele>
        <time>2021-05-30T17:38:03Z</time>
      </trkpt>
      <trkpt lat="-12.1379760" lon="-76.7823170">
        <ele>444.0</ele>
        <time>2021-05-30T17:38:04Z</time>
      </trkpt>
      <trkpt lat="-12.1380050" lon="-76.7824050">
        <ele>443.7</ele>
        <time>2021-05-30T17:38:05Z</time>
      </trkpt>
      <trkpt lat="-12.1380260" lon="-76.7824950">
        <ele>443.3</ele>
        <time>2021-05-30T17:38:06Z</time>
      </trkpt>
      <trkpt lat="-12.1380650" lon="-76.7826820">
        <ele>442.5</ele>
        <time>2021-05-30T17:38:08Z</time>
      </trkpt>
      <trkpt lat="-12.1381210" lon="-76.7828690">
        <ele>441.6</ele>
        <time>2021-05-30T17:38:10Z</time>
      </trkpt>
      <trkpt lat="-12.1381470" lon="-76.7829630">
        <ele>441.0</ele>
        <time>2021-05-30T17:38:11Z</time>
      </trkpt>
      <trkpt lat="-12.1381960" lon="-76.7831510">
        <ele>439.9</ele>
        <time>2021-05-30T17:38:13Z</time>
      </trkpt>
      <trkpt lat="-12.1382270" lon="-76.7832470">
        <ele>439.5</ele>
        <time>2021-05-30T17:38:14Z</time>
      </trkpt>
      <trkpt lat="-12.1382590" lon="-76.7833460">
        <ele>439.2</ele>
        <time>2021-05-30T17:38:15Z</time>
      </trkpt>
      <trkpt lat="-12.1383190" lon="-76.7835360">
        <ele>438.3</ele>
        <time>2021-05-30T17:38:17Z</time>
      </trkpt>
      <trkpt lat="-12.1383770" lon="-76.7837160">
        <ele>436.5</ele>
        <time>2021-05-30T17:38:19Z</time>
      </trkpt>
      <trkpt lat="-12.1384070" lon="-76.7838080">
        <ele>435.9</ele>
        <time>2021-05-30T17:38:20Z</time>
      </trkpt>
      <trkpt lat="-12.1384400" lon="-76.7838970">
        <ele>435.5</ele>
        <time>2021-05-30T17:38:21Z</time>
      </trkpt>
      <trkpt lat="-12.1384770" lon="-76.7839850">
        <ele>435.2</ele>
        <time>2021-05-30T17:38:22Z</time>
      </trkpt>
      <trkpt lat="-12.1385640" lon="-76.7841420">
        <ele>434.7</ele>
        <time>2021-05-30T17:38:24Z</time>
      </trkpt>
      <trkpt lat="-12.1386020" lon="-76.7842200">
        <ele>434.5</ele>
        <time>2021-05-30T17:38:25Z</time>
      </trkpt>
      <trkpt lat="-12.1386370" lon="-76.7843000">
        <ele>434.3</ele>
        <time>2021-05-30T17:38:26Z</time>
      </trkpt>
      <trkpt lat="-12.1387140" lon="-76.7844620">
        <ele>433.9</ele>
        <time>2021-05-30T17:38:28Z</time>
      </trkpt>
      <trkpt lat="-12.1387520" lon="-76.7845390">
        <ele>433.7</ele>
        <time>2021-05-30T17:38:29Z</time>
      </trkpt>
      <trkpt lat="-12.1388190" lon="-76.7846930">
        <ele>433.3</ele>
        <time>2021-05-30T17:38:31Z</time>
      </trkpt>
      <trkpt lat="-12.1388730" lon="-76.7848470">
        <ele>432.8</ele>
        <time>2021-05-30T17:38:33Z</time>
      </trkpt>
      <trkpt lat="-12.1389310" lon="-76.7849970">
        <ele>432.2</ele>
        <time>2021-05-30T17:38:35Z</time>
      </trkpt>
      <trkpt lat="-12.1389670" lon="-76.7850740">
        <ele>431.8</ele>
        <time>2021-05-30T17:38:36Z</time>
      </trkpt>
      <trkpt lat="-12.1390050" lon="-76.7851580">
        <ele>431.3</ele>
        <time>2021-05-30T17:38:37Z</time>
      </trkpt>
      <trkpt lat="-12.1390790" lon="-76.7853280">
        <ele>430.3</ele>
        <time>2021-05-30T17:38:39Z</time>
      </trkpt>
      <trkpt lat="-12.1391550" lon="-76.7854770">
        <ele>429.6</ele>
        <time>2021-05-30T17:38:41Z</time>
      </trkpt>
      <trkpt lat="-12.1392170" lon="-76.7856220">
        <ele>429.0</ele>
        <time>2021-05-30T17:38:43Z</time>
      </trkpt>
      <trkpt lat="-12.1392380" lon="-76.7857000">
        <ele>428.6</ele>
        <time>2021-05-30T17:38:44Z</time>
      </trkpt>
      <trkpt lat="-12.1392810" lon="-76.7858410">
        <ele>428.1</ele>
        <time>2021-05-30T17:38:46Z</time>
      </trkpt>
      <trkpt lat="-12.1393400" lon="-76.7859900">
        <ele>427.4</ele>
        <time>2021-05-30T17:38:48Z</time>
      </trkpt>
      <trkpt lat="-12.1393720" lon="-76.7860650">
        <ele>427.0</ele>
        <time>2021-05-30T17:38:49Z</time>
      </trkpt>
      <trkpt lat="-12.1394330" lon="-76.7862100">
        <ele>426.3</ele>
        <time>2021-05-30T17:38:51Z</time>
      </trkpt>
      <trkpt lat="-12.1394660" lon="-76.7862890">
        <ele>425.9</ele>
        <time>2021-05-30T17:38:52Z</time>
      </trkpt>
      <trkpt lat="-12.1395240" lon="-76.7864480">
        <ele>425.0</ele>
        <time>2021-05-30T17:38:54Z</time>
      </trkpt>
      <trkpt lat="-12.1395530" lon="-76.7865320">
        <ele>424.5</ele>
        <time>2021-05-30T17:38:55Z</time>
      </trkpt>
      <trkpt lat="-12.1395880" lon="-76.7866170">
        <ele>424.0</ele>
        <time>2021-05-30T17:38:56Z</time>
      </trkpt>
      <trkpt lat="-12.1396510" lon="-76.7867790">
        <ele>422.9</ele>
        <time>2021-05-30T17:38:58Z</time>
      </trkpt>
      <trkpt lat="-12.1397020" lon="-76.7869460">
        <ele>421.7</ele>
        <time>2021-05-30T17:39:00Z</time>
      </trkpt>
      <trkpt lat="-12.1397620" lon="-76.7871230">
        <ele>420.7</ele>
        <time>2021-05-30T17:39:02Z</time>
      </trkpt>
      <trkpt lat="-12.1397900" lon="-76.7872120">
        <ele>420.4</ele>
        <time>2021-05-30T17:39:03Z</time>
      </trkpt>
      <trkpt lat="-12.1398190" lon="-76.7872960">
        <ele>420.1</ele>
        <time>2021-05-30T17:39:04Z</time>
      </trkpt>
      <trkpt lat="-12.1398980" lon="-76.7874670">
        <ele>419.4</ele>
        <time>2021-05-30T17:39:06Z</time>
      </trkpt>
      <trkpt lat="-12.1399930" lon="-76.7876390">
        <ele>418.4</ele>
        <time>2021-05-30T17:39:08Z</time>
      </trkpt>
      <trkpt lat="-12.1400410" lon="-76.7877200">
        <ele>417.8</ele>
        <time>2021-05-30T17:39:09Z</time>
      </trkpt>
      <trkpt lat="-12.1400790" lon="-76.7878020">
        <ele>417.3</ele>
        <time>2021-05-30T17:39:10Z</time>
      </trkpt>
      <trkpt lat="-12.1401150" lon="-76.7878840">
        <ele>416.8</ele>
        <time>2021-05-30T17:39:11Z</time>
      </trkpt>
      <trkpt lat="-12.1401990" lon="-76.7880390">
        <ele>415.9</ele>
        <time>2021-05-30T17:39:13Z</time>
      </trkpt>
      <trkpt lat="-12.1402410" lon="-76.7881190">
        <ele>415.5</ele>
        <time>2021-05-30T17:39:14Z</time>
      </trkpt>
      <trkpt lat="-12.1403190" lon="-76.7882830">
        <ele>414.6</ele>
        <time>2021-05-30T17:39:16Z</time>
      </trkpt>
      <trkpt lat="-12.1403780" lon="-76.7884530">
        <ele>413.8</ele>
        <time>2021-05-30T17:39:18Z</time>
      </trkpt>
      <trkpt lat="-12.1403980" lon="-76.7885360">
        <ele>413.5</ele>
        <time>2021-05-30T17:39:19Z</time>
      </trkpt>
      <trkpt lat="-12.1404090" lon="-76.7887070">
        <ele>412.8</ele>
        <time>2021-05-30T17:39:21Z</time>
      </trkpt>
      <trkpt lat="-12.1404060" lon="-76.7887990">
        <ele>412.4</ele>
        <time>2021-05-30T17:39:22Z</time>
      </trkpt>
      <trkpt lat="-12.1403570" lon="-76.7889590">
        <ele>411.6</ele>
        <time>2021-05-30T17:39:24Z</time>
      </trkpt>
      <trkpt lat="-12.1403300" lon="-76.7890380">
        <ele>411.1</ele>
        <time>2021-05-30T17:39:25Z</time>
      </trkpt>
      <trkpt lat="-12.1402940" lon="-76.7891940">
        <ele>410.1</ele>
        <time>2021-05-30T17:39:27Z</time>
      </trkpt>
      <trkpt lat="-12.1402590" lon="-76.7893550">
        <ele>409.1</ele>
        <time>2021-05-30T17:39:29Z</time>
      </trkpt>
      <trkpt lat="-12.1402460" lon="-76.7894400">
        <ele>408.6</ele>
        <time>2021-05-30T17:39:30Z</time>
      </trkpt>
      <trkpt lat="-12.1402050" lon="-76.7895910">
        <ele>407.8</ele>
        <time>2021-05-30T17:39:32Z</time>
      </trkpt>
      <trkpt lat="-12.1401710" lon="-76.7897510">
        <ele>406.9</ele>
        <time>2021-05-30T17:39:34Z</time>
      </trkpt>
      <trkpt lat="-12.1401590" lon="-76.7898340">
        <ele>406.4</ele>
        <time>2021-05-30T17:39:35Z</time>
      </trkpt>
      <trkpt lat="-12.1401450" lon="-76.7899150">
        <ele>405.9</ele>
        <time>2021-05-30T17:39:36Z</time>
      </trkpt>
      <trkpt lat="-12.1401290" lon="-76.7899990">
        <ele>405.5</ele>
        <time>2021-05-30T17:39:37Z</time>
      </trkpt>
      <trkpt lat="-12.1401020" lon="-76.7901740">
        <ele>404.5</ele>
        <time>2021-05-30T17:39:39Z</time>
      </trkpt>
      <trkpt lat="-12.1400890" lon="-76.7902640">
        <ele>404.1</ele>
        <time>2021-05-30T17:39:40Z</time>
      </trkpt>
      <trkpt lat="-12.1400610" lon="-76.7904340">
        <ele>403.2</ele>
        <time>2021-05-30T17:39:42Z</time>
      </trkpt>
      <trkpt lat="-12.1400290" lon="-76.7905980">
        <ele>402.3</ele>
        <time>2021-05-30T17:39:44Z</time>
      </trkpt>
      <trkpt lat="-12.1400130" lon="-76.7906830">
        <ele>401.9</ele>
        <time>2021-05-30T17:39:45Z</time>
      </trkpt>
      <trkpt lat="-12.1400010" lon="-76.7907720">
        <ele>401.4</ele>
        <time>2021-05-30T17:39:46Z</time>
      </trkpt>
      <trkpt lat="-12.1399860" lon="-76.7908650">
        <ele>400.9</ele>
        <time>2021-05-30T17:39:47Z</time>
      </trkpt>
      <trkpt lat="-12.1399460" lon="-76.7910540">
        <ele>399.7</ele>
        <time>2021-05-30T17:39:49Z</time>
      </trkpt>
      <trkpt lat="-12.1399060" lon="-76.7912260">
        <ele>398.6</ele>
        <time>2021-05-30T17:39:51Z</time>
      </trkpt>
      <trkpt lat="-12.1398830" lon="-76.7913120">
        <ele>398.0</ele>
        <time>2021-05-30T17:39:52Z</time>
      </trkpt>
      <trkpt lat="-12.1398620" lon="-76.7913970">
        <ele>397.4</ele>
        <time>2021-05-30T17:39:53Z</time>
      </trkpt>
      <trkpt lat="-12.1398300" lon="-76.7915780">
        <ele>396.2</ele>
        <time>2021-05-30T17:39:55Z</time>
      </trkpt>
      <trkpt lat="-12.1397970" lon="-76.7917580">
        <ele>395.2</ele>
        <time>2021-05-30T17:39:57Z</time>
      </trkpt>
      <trkpt lat="-12.1397670" lon="-76.7919360">
        <ele>394.2</ele>
        <time>2021-05-30T17:39:59Z</time>
      </trkpt>
      <trkpt lat="-12.1397550" lon="-76.7920290">
        <ele>393.7</ele>
        <time>2021-05-30T17:40:00Z</time>
      </trkpt>
      <trkpt lat="-12.1397220" lon="-76.7922040">
        <ele>392.8</ele>
        <time>2021-05-30T17:40:02Z</time>
      </trkpt>
      <trkpt lat="-12.1396970" lon="-76.7923850">
        <ele>391.8</ele>
        <time>2021-05-30T17:40:04Z</time>
      </trkpt>
      <trkpt lat="-12.1396860" lon="-76.7924780">
        <ele>391.4</ele>
        <time>2021-05-30T17:40:05Z</time>
      </trkpt>
      <trkpt lat="-12.1396760" lon="-76.7925710">
        <ele>391.0</ele>
        <time>2021-05-30T17:40:06Z</time>
      </trkpt>
      <trkpt lat="-12.1396490" lon="-76.7927450">
        <ele>390.2</ele>
        <time>2021-05-30T17:40:08Z</time>
      </trkpt>
      <trkpt lat="-12.1396230" lon="-76.7929050">
        <ele>389.4</ele>
        <time>2021-05-30T17:40:10Z</time>
      </trkpt>
      <trkpt lat="-12.1396110" lon="-76.7929870">
        <ele>389.0</ele>
        <time>2021-05-30T17:40:11Z</time>
      </trkpt>
      <trkpt lat="-12.1395960" lon="-76.7931480">
        <ele>388.2</ele>
        <time>2021-05-30T17:40:13Z</time>
      </trkpt>
      <trkpt lat="-12.1395640" lon="-76.7933050">
        <ele>387.3</ele>
        <time>2021-05-30T17:40:15Z</time>
      </trkpt>
      <trkpt lat="-12.1395500" lon="-76.7933870">
        <ele>386.9</ele>
        <time>2021-05-30T17:40:16Z</time>
      </trkpt>
      <trkpt lat="-12.1395370" lon="-76.7934680">
        <ele>386.5</ele>
        <time>2021-05-30T17:40:17Z</time>
      </trkpt>
      <trkpt lat="-12.1395040" lon="-76.7936320">
        <ele>385.5</ele>
        <time>2021-05-30T17:40:19Z</time>
      </trkpt>
      <trkpt lat="-12.1394820" lon="-76.7937130">
        <ele>385.1</ele>
        <time>2021-05-30T17:40:20Z</time>
      </trkpt>
      <trkpt lat="-12.1394240" lon="-76.7938710">
        <ele>384.1</ele>
        <time>2021-05-30T17:40:22Z</time>
      </trkpt>
      <trkpt lat="-12.1393750" lon="-76.7940380">
        <ele>383.0</ele>
        <time>2021-05-30T17:40:24Z</time>
      </trkpt>
      <trkpt lat="-12.1393560" lon="-76.7941280">
        <ele>382.4</ele>
        <time>2021-05-30T17:40:25Z</time>
      </trkpt>
      <trkpt lat="-12.1393360" lon="-76.7942170">
        <ele>381.8</ele>
        <time>2021-05-30T17:40:26Z</time>
      </trkpt>
      <trkpt lat="-12.1392980" lon="-76.7943860">
        <ele>381.1</ele>
        <time>2021-05-30T17:40:28Z</time>
      </trkpt>
      <trkpt lat="-12.1392640" lon="-76.7945680">
        <ele>380.5</ele>
        <time>2021-05-30T17:40:30Z</time>
      </trkpt>
      <trkpt lat="-12.1392410" lon="-76.7947410">
        <ele>379.5</ele>
        <time>2021-05-30T17:40:32Z</time>
      </trkpt>
      <trkpt lat="-12.1392240" lon="-76.7948240">
        <ele>379.0</ele>
        <time>2021-05-30T17:40:33Z</time>
      </trkpt>
      <trkpt lat="-12.1391950" lon="-76.7950000">
        <ele>378.2</ele>
        <time>2021-05-30T17:40:35Z</time>
      </trkpt>
      <trkpt lat="-12.1391900" lon="-76.7950930">
        <ele>377.9</ele>
        <time>2021-05-30T17:40:36Z</time>
      </trkpt>
      <trkpt lat="-12.1391950" lon="-76.7952630">
        <ele>377.2</ele>
        <time>2021-05-30T17:40:38Z</time>
      </trkpt>
      <trkpt lat="-12.1392070" lon="-76.7953510">
        <ele>376.8</ele>
        <time>2021-05-30T17:40:39Z</time>
      </trkpt>
      <trkpt lat="-12.1392220" lon="-76.7955230">
        <ele>376.2</ele>
        <time>2021-05-30T17:40:41Z</time>
      </trkpt>
      <trkpt lat="-12.1392250" lon="-76.7956080">
        <ele>375.8</ele>
        <time>2021-05-30T17:40:42Z</time>
      </trkpt>
      <trkpt lat="-12.1392270" lon="-76.7957740">
        <ele>375.1</ele>
        <time>2021-05-30T17:40:44Z</time>
      </trkpt>
      <trkpt lat="-12.1392360" lon="-76.7959380">
        <ele>374.3</ele>
        <time>2021-05-30T17:40:46Z</time>
      </trkpt>
      <trkpt lat="-12.1392340" lon="-76.7960230">
        <ele>373.8</ele>
        <time>2021-05-30T17:40:47Z</time>
      </trkpt>
      <trkpt lat="-12.1392330" lon="-76.7961050">
        <ele>373.4</ele>
        <time>2021-05-30T17:40:48Z</time>
      </trkpt>
      <trkpt lat="-12.1392250" lon="-76.7962600">
        <ele>372.5</ele>
        <time>2021-05-30T17:40:50Z</time>
      </trkpt>
      <trkpt lat="-12.1392150" lon="-76.7963400">
        <ele>372.1</ele>
        <time>2021-05-30T17:40:51Z</time>
      </trkpt>
      <trkpt lat="-12.1391970" lon="-76.7965090">
        <ele>371.3</ele>
        <time>2021-05-30T17:40:53Z</time>
      </trkpt>
      <trkpt lat="-12.1391790" lon="-76.7965920">
        <ele>370.9</ele>
        <time>2021-05-30T17:40:54Z</time>
      </trkpt>
      <trkpt lat="-12.1391370" lon="-76.7967580">
        <ele>370.3</ele>
        <time>2021-05-30T17:40:56Z</time>
      </trkpt>
      <trkpt lat="-12.1391190" lon="-76.7968460">
        <ele>370.0</ele>
        <time>2021-05-30T17:40:57Z</time>
      </trkpt>
      <trkpt lat="-12.1390950" lon="-76.7969290">
        <ele>369.6</ele>
        <time>2021-05-30T17:40:58Z</time>
      </trkpt>
      <trkpt lat="-12.1390680" lon="-76.7970110">
        <ele>369.3</ele>
        <time>2021-05-30T17:40:59Z</time>
      </trkpt>
      <trkpt lat="-12.1390040" lon="-76.7971710">
        <ele>368.5</ele>
        <time>2021-05-30T17:41:01Z</time>
      </trkpt>
      <trkpt lat="-12.1389730" lon="-76.7972550">
        <ele>368.1</ele>
        <time>2021-05-30T17:41:02Z</time>
      </trkpt>
      <trkpt lat="-12.1389460" lon="-76.7973420">
        <ele>367.6</ele>
        <time>2021-05-30T17:41:03Z</time>
      </trkpt>
      <trkpt lat="-12.1388920" lon="-76.7975220">
        <ele>366.7</ele>
        <time>2021-05-30T17:41:05Z</time>
      </trkpt>
      <trkpt lat="-12.1388510" lon="-76.7977020">
        <ele>365.6</ele>
        <time>2021-05-30T17:41:07Z</time>
      </trkpt>
      <trkpt lat="-12.1388050" lon="-76.7978690">
        <ele>364.8</ele>
        <time>2021-05-30T17:41:09Z</time>
      </trkpt>
      <trkpt lat="-12.1387790" lon="-76.7979570">
        <ele>364.3</ele>
        <time>2021-05-30T17:41:10Z</time>
      </trkpt>
      <trkpt lat="-12.1387570" lon="-76.7980470">
        <ele>363.9</ele>
        <time>2021-05-30T17:41:11Z</time>
      </trkpt>
      <trkpt lat="-12.1387420" lon="-76.7981370">
        <ele>363.4</ele>
        <time>2021-05-30T17:41:12Z</time>
      </trkpt>
      <trkpt lat="-12.1387000" lon="-76.7983250">
        <ele>362.6</ele>
        <time>2021-05-30T17:41:14Z</time>
      </trkpt>
      <trkpt lat="-12.1386790" lon="-76.7984230">
        <ele>362.2</ele>
        <time>2021-05-30T17:41:15Z</time>
      </trkpt>
      <trkpt lat="-12.1386320" lon="-76.7986020">
        <ele>361.6</ele>
        <time>2021-05-30T17:41:17Z</time>
      </trkpt>
      <trkpt lat="-12.1385720" lon="-76.7987660">
        <ele>361.2</ele>
        <time>2021-05-30T17:41:19Z</time>
      </trkpt>
      <trkpt lat="-12.1385260" lon="-76.7989170">
        <ele>360.7</ele>
        <time>2021-05-30T17:41:21Z</time>
      </trkpt>
      <trkpt lat="-12.1385120" lon="-76.7989930">
        <ele>360.4</ele>
        <time>2021-05-30T17:41:22Z</time>
      </trkpt>
      <trkpt lat="-12.1384740" lon="-76.7991460">
        <ele>359.8</ele>
        <time>2021-05-30T17:41:24Z</time>
      </trkpt>
      <trkpt lat="-12.1384330" lon="-76.7993010">
        <ele>359.1</ele>
        <time>2021-05-30T17:41:26Z</time>
      </trkpt>
      <trkpt lat="-12.1384110" lon="-76.7993800">
        <ele>358.7</ele>
        <time>2021-05-30T17:41:27Z</time>
      </trkpt>
      <trkpt lat="-12.1383660" lon="-76.7995340">
        <ele>358.1</ele>
        <time>2021-05-30T17:41:29Z</time>
      </trkpt>
      <trkpt lat="-12.1383470" lon="-76.7996100">
        <ele>357.7</ele>
        <time>2021-05-30T17:41:30Z</time>
      </trkpt>
      <trkpt lat="-12.1383230" lon="-76.7996840">
        <ele>357.4</ele>
        <time>2021-05-30T17:41:31Z</time>
      </trkpt>
      <trkpt lat="-12.1382560" lon="-76.7998270">
        <ele>356.5</ele>
        <time>2021-05-30T17:41:33Z</time>
      </trkpt>
      <trkpt lat="-12.1382250" lon="-76.7999060">
        <ele>356.1</ele>
        <time>2021-05-30T17:41:34Z</time>
      </trkpt>
      <trkpt lat="-12.1381780" lon="-76.8000620">
        <ele>355.2</ele>
        <time>2021-05-30T17:41:36Z</time>
      </trkpt>
      <trkpt lat="-12.1381450" lon="-76.8002290">
        <ele>354.3</ele>
        <time>2021-05-30T17:41:38Z</time>
      </trkpt>
      <trkpt lat="-12.1380960" lon="-76.8003720">
        <ele>353.6</ele>
        <time>2021-05-30T17:41:40Z</time>
      </trkpt>
      <trkpt lat="-12.1380630" lon="-76.8004470">
        <ele>353.2</ele>
        <time>2021-05-30T17:41:41Z</time>
      </trkpt>
      <trkpt lat="-12.1379880" lon="-76.8006090">
        <ele>352.3</ele>
        <time>2021-05-30T17:41:43Z</time>
      </trkpt>
      <trkpt lat="-12.1379120" lon="-76.8007720">
        <ele>351.4</ele>
        <time>2021-05-30T17:41:45Z</time>
      </trkpt>
      <trkpt lat="-12.1378670" lon="-76.8008520">
        <ele>350.9</ele>
        <time>2021-05-30T17:41:46Z</time>
      </trkpt>
      <trkpt lat="-12.1378270" lon="-76.8009330">
        <ele>350.5</ele>
        <time>2021-05-30T17:41:47Z</time>
      </trkpt>
      <trkpt lat="-12.1377660" lon="-76.8010980">
        <ele>349.8</ele>
        <time>2021-05-30T17:41:49Z</time>
      </trkpt>
      <trkpt lat="-12.1376970" lon="-76.8012610">
        <ele>349.0</ele>
        <time>2021-05-30T17:41:51Z</time>
      </trkpt>
      <trkpt lat="-12.1376210" lon="-76.8014210">
        <ele>348.2</ele>
        <time>2021-05-30T17:41:53Z</time>
      </trkpt>
      <trkpt lat="-12.1375850" lon="-76.8015050">
        <ele>347.8</ele>
        <time>2021-05-30T17:41:54Z</time>
      </trkpt>
      <trkpt lat="-12.1375140" lon="-76.8016680">
        <ele>347.0</ele>
        <time>2021-05-30T17:41:56Z</time>
      </trkpt>
      <trkpt lat="-12.1374840" lon="-76.8017540">
        <ele>346.6</ele>
        <time>2021-05-30T17:41:57Z</time>
      </trkpt>
      <trkpt lat="-12.1374200" lon="-76.8019240">
        <ele>345.9</ele>
        <time>2021-05-30T17:41:59Z</time>
      </trkpt>
      <trkpt lat="-12.1373570" lon="-76.8020850">
        <ele>345.4</ele>
        <time>2021-05-30T17:42:01Z</time>
      </trkpt>
      <trkpt lat="-12.1373220" lon="-76.8021680">
        <ele>345.2</ele>
        <time>2021-05-30T17:42:02Z</time>
      </trkpt>
      <trkpt lat="-12.1372850" lon="-76.8022470">
        <ele>344.9</ele>
        <time>2021-05-30T17:42:03Z</time>
      </trkpt>
      <trkpt lat="-12.1372120" lon="-76.8024080">
        <ele>344.3</ele>
        <time>2021-05-30T17:42:05Z</time>
      </trkpt>
      <trkpt lat="-12.1371420" lon="-76.8025750">
        <ele>343.7</ele>
        <time>2021-05-30T17:42:07Z</time>
      </trkpt>
      <trkpt lat="-12.1370680" lon="-76.8027420">
        <ele>343.1</ele>
        <time>2021-05-30T17:42:09Z</time>
      </trkpt>
      <trkpt lat="-12.1370390" lon="-76.8028270">
        <ele>342.9</ele>
        <time>2021-05-30T17:42:10Z</time>
      </trkpt>
      <trkpt lat="-12.1369920" lon="-76.8029790">
        <ele>342.3</ele>
        <time>2021-05-30T17:42:12Z</time>
      </trkpt>
      <trkpt lat="-12.1369720" lon="-76.8030560">
        <ele>342.0</ele>
        <time>2021-05-30T17:42:13Z</time>
      </trkpt>
      <trkpt lat="-12.1369430" lon="-76.8031330">
        <ele>341.6</ele>
        <time>2021-05-30T17:42:14Z</time>
      </trkpt>
      <trkpt lat="-12.1368760" lon="-76.8032590">
        <ele>340.8</ele>
        <time>2021-05-30T17:42:16Z</time>
      </trkpt>
      <trkpt lat="-12.1368360" lon="-76.8033170">
        <ele>340.6</ele>
        <time>2021-05-30T17:42:18Z</time>
      </trkpt>
      <trkpt lat="-12.1368280" lon="-76.8033380">
        <ele>340.6</ele>
        <time>2021-05-30T17:42:19Z</time>
      </trkpt>
      <trkpt lat="-12.1368450" lon="-76.8033760">
        <ele>340.5</ele>
        <time>2021-05-30T17:42:21Z</time>
      </trkpt>
      <trkpt lat="-12.1368620" lon="-76.8034010">
        <ele>340.4</ele>
        <time>2021-05-30T17:42:22Z</time>
      </trkpt>
      <trkpt lat="-12.1368670" lon="-76.8034090">
        <ele>340.4</ele>
        <time>2021-05-30T17:42:23Z</time>
      </trkpt>
      <trkpt lat="-12.1368630" lon="-76.8034110">
        <ele>340.4</ele>
        <time>2021-05-30T17:42:25Z</time>
      </trkpt>
      <trkpt lat="-12.1368550" lon="-76.8034040">
        <ele>340.3</ele>
        <time>2021-05-30T17:42:26Z</time>
      </trkpt>
      <trkpt lat="-12.1368540" lon="-76.8034090">
        <ele>340.3</ele>
        <time>2021-05-30T17:42:28Z</time>
      </trkpt>
      <trkpt lat="-12.1368540" lon="-76.8034070">
        <ele>340.3</ele>
        <time>2021-05-30T17:42:29Z</time>
      </trkpt>
      <trkpt lat="-12.1368540" lon="-76.8034060">
        <ele>340.3</ele>
        <time>2021-05-30T17:42:30Z</time>
      </trkpt>
      <trkpt lat="-12.1368590" lon="-76.8034040">
        <ele>340.3</ele>
        <time>2021-05-30T17:42:32Z</time>
      </trkpt>
      <trkpt lat="-12.1368640" lon="-76.8034000">
        <ele>340.3</ele>
        <time>2021-05-30T17:42:34Z</time>
      </trkpt>
      <trkpt lat="-12.1368620" lon="-76.8033960">
        <ele>340.3</ele>
        <time>2021-05-30T17:42:37Z</time>
      </trkpt>
      <trkpt lat="-12.1368600" lon="-76.8033920">
        <ele>340.2</ele>
        <time>2021-05-30T17:42:38Z</time>
      </trkpt>
      <trkpt lat="-12.1368760" lon="-76.8032750">
        <ele>340.8</ele>
        <time>2021-05-30T18:05:01Z</time>
      </trkpt>
      <trkpt lat="-12.1368750" lon="-76.8032760">
        <ele>340.8</ele>
        <time>2021-05-30T18:05:03Z</time>
      </trkpt>
      <trkpt lat="-12.1368740" lon="-76.8032760">
        <ele>340.7</ele>
        <time>2021-05-30T18:05:04Z</time>
      </trkpt>
      <trkpt lat="-12.1368710" lon="-76.8032750">
        <ele>340.7</ele>
        <time>2021-05-30T18:05:06Z</time>
      </trkpt>
      <trkpt lat="-12.1368710" lon="-76.8032740">
        <ele>340.7</ele>
        <time>2021-05-30T18:05:08Z</time>
      </trkpt>
      <trkpt lat="-12.1368670" lon="-76.8032680">
        <ele>340.7</ele>
        <time>2021-05-30T18:06:08Z</time>
      </trkpt>
      <trkpt lat="-12.1368670" lon="-76.8032680">
        <ele>340.7</ele>
        <time>2021-05-30T18:06:09Z</time>
      </trkpt>
      <trkpt lat="-12.1368670" lon="-76.8032680">
        <ele>340.7</ele>
        <time>2021-05-30T18:06:10Z</time>
      </trkpt>
      <trkpt lat="-12.1368630" lon="-76.8032650">
        <ele>340.7</ele>
        <time>2021-05-30T18:06:26Z</time>
      </trkpt>
      <trkpt lat="-12.1368640" lon="-76.8032650">
        <ele>340.7</ele>
        <time>2021-05-30T18:06:27Z</time>
      </trkpt>
      <trkpt lat="-12.1368640" lon="-76.8032660">
        <ele>340.7</ele>
        <time>2021-05-30T18:06:29Z</time>
      </trkpt>
      <trkpt lat="-12.1368640" lon="-76.8032660">
        <ele>340.7</ele>
        <time>2021-05-30T18:06:31Z</time>
      </trkpt>
      <trkpt lat="-12.1368640" lon="-76.8032660">
        <ele>340.7</ele>
        <time>2021-05-30T18:06:32Z</time>
      </trkpt>
      <trkpt lat="-12.1368640" lon="-76.8032660">
        <ele>340.7</ele>
        <time>2021-05-30T18:06:33Z</time>
      </trkpt>
      <trkpt lat="-12.1368640" lon="-76.8032670">
        <ele>340.7</ele>
        <time>2021-05-30T18:06:35Z</time>
      </trkpt>
      <trkpt lat="-12.1368510" lon="-76.8032630">
        <ele>340.6</ele>
        <time>2021-05-30T18:07:32Z</time>
      </trkpt>
      <trkpt lat="-12.1368490" lon="-76.8032640">
        <ele>340.6</ele>
        <time>2021-05-30T18:07:33Z</time>
      </trkpt>
      <trkpt lat="-12.1368480" lon="-76.8032640">
        <ele>340.6</ele>
        <time>2021-05-30T18:07:34Z</time>
      </trkpt>
      <trkpt lat="-12.1368470" lon="-76.8032670">
        <ele>340.6</ele>
        <time>2021-05-30T18:07:35Z</time>
      </trkpt>
      <trkpt lat="-12.1368470" lon="-76.8032690">
        <ele>340.6</ele>
        <time>2021-05-30T18:07:37Z</time>
      </trkpt>
      <trkpt lat="-12.1368470" lon="-76.8032700">
        <ele>340.6</ele>
        <time>2021-05-30T18:07:38Z</time>
      </trkpt>
      <trkpt lat="-12.1368480" lon="-76.8032720">
        <ele>340.6</ele>
        <time>2021-05-30T18:07:39Z</time>
      </trkpt>
      <trkpt lat="-12.1368490" lon="-76.8032730">
        <ele>340.6</ele>
        <time>2021-05-30T18:07:41Z</time>
      </trkpt>
      <trkpt lat="-12.1368490" lon="-76.8032730">
        <ele>340.6</ele>
        <time>2021-05-30T18:07:42Z</time>
      </trkpt>
      <trkpt lat="-12.1368270" lon="-76.8032960">
        <ele>340.4</ele>
        <time>2021-05-30T18:08:14Z</time>
      </trkpt>
      <trkpt lat="-12.1368010" lon="-76.8033560">
        <ele>340.1</ele>
        <time>2021-05-30T18:08:16Z</time>
      </trkpt>
      <trkpt lat="-12.1367790" lon="-76.8033990">
        <ele>339.9</ele>
        <time>2021-05-30T18:08:17Z</time>
      </trkpt>
      <trkpt lat="-12.1367460" lon="-76.8034570">
        <ele>339.6</ele>
        <time>2021-05-30T18:08:18Z</time>
      </trkpt>
      <trkpt lat="-12.1367080" lon="-76.8035160">
        <ele>339.2</ele>
        <time>2021-05-30T18:08:20Z</time>
      </trkpt>
      <trkpt lat="-12.1366720" lon="-76.8035860">
        <ele>338.7</ele>
        <time>2021-05-30T18:08:21Z</time>
      </trkpt>
      <trkpt lat="-12.1366390" lon="-76.8036500">
        <ele>338.3</ele>
        <time>2021-05-30T18:08:22Z</time>
      </trkpt>
      <trkpt lat="-12.1365800" lon="-76.8037720">
        <ele>337.7</ele>
        <time>2021-05-30T18:08:24Z</time>
      </trkpt>
      <trkpt lat="-12.1365480" lon="-76.8038290">
        <ele>336.4</ele>
        <time>2021-05-30T18:08:25Z</time>
      </trkpt>
      <trkpt lat="-12.1365160" lon="-76.8038910">
        <ele>336.1</ele>
        <time>2021-05-30T18:08:26Z</time>
      </trkpt>
      <trkpt lat="-12.1364810" lon="-76.8039540">
        <ele>335.8</ele>
        <time>2021-05-30T18:08:27Z</time>
      </trkpt>
      <trkpt lat="-12.1364040" lon="-76.8040780">
        <ele>335.2</ele>
        <time>2021-05-30T18:08:29Z</time>
      </trkpt>
      <trkpt lat="-12.1363680" lon="-76.8041430">
        <ele>334.9</ele>
        <time>2021-05-30T18:08:30Z</time>
      </trkpt>
      <trkpt lat="-12.1363100" lon="-76.8042710">
        <ele>334.2</ele>
        <time>2021-05-30T18:08:32Z</time>
      </trkpt>
      <trkpt lat="-12.1362840" lon="-76.8043360">
        <ele>333.9</ele>
        <time>2021-05-30T18:08:33Z</time>
      </trkpt>
      <trkpt lat="-12.1362220" lon="-76.8044720">
        <ele>333.1</ele>
        <time>2021-05-30T18:08:35Z</time>
      </trkpt>
      <trkpt lat="-12.1361970" lon="-76.8045510">
        <ele>332.7</ele>
        <time>2021-05-30T18:08:36Z</time>
      </trkpt>
      <trkpt lat="-12.1361490" lon="-76.8047170">
        <ele>331.8</ele>
        <time>2021-05-30T18:08:38Z</time>
      </trkpt>
      <trkpt lat="-12.1361310" lon="-76.8047940">
        <ele>331.5</ele>
        <time>2021-05-30T18:08:39Z</time>
      </trkpt>
      <trkpt lat="-12.1360810" lon="-76.8049460">
        <ele>330.7</ele>
        <time>2021-05-30T18:08:41Z</time>
      </trkpt>
      <trkpt lat="-12.1360320" lon="-76.8051000">
        <ele>330.0</ele>
        <time>2021-05-30T18:08:43Z</time>
      </trkpt>
      <trkpt lat="-12.1360100" lon="-76.8051760">
        <ele>329.7</ele>
        <time>2021-05-30T18:08:44Z</time>
      </trkpt>
      <trkpt lat="-12.1359900" lon="-76.8052570">
        <ele>329.3</ele>
        <time>2021-05-30T18:08:45Z</time>
      </trkpt>
      <trkpt lat="-12.1359570" lon="-76.8054140">
        <ele>328.7</ele>
        <time>2021-05-30T18:08:47Z</time>
      </trkpt>
      <trkpt lat="-12.1359200" lon="-76.8055600">
        <ele>328.2</ele>
        <time>2021-05-30T18:08:49Z</time>
      </trkpt>
      <trkpt lat="-12.1359150" lon="-76.8056350">
        <ele>327.8</ele>
        <time>2021-05-30T18:08:50Z</time>
      </trkpt>
      <trkpt lat="-12.1359110" lon="-76.8057120">
        <ele>327.5</ele>
        <time>2021-05-30T18:08:51Z</time>
      </trkpt>
      <trkpt lat="-12.1359070" lon="-76.8058640">
        <ele>326.8</ele>
        <time>2021-05-30T18:08:53Z</time>
      </trkpt>
      <trkpt lat="-12.1359020" lon="-76.8060270">
        <ele>326.2</ele>
        <time>2021-05-30T18:08:55Z</time>
      </trkpt>
      <trkpt lat="-12.1359060" lon="-76.8061920">
        <ele>325.6</ele>
        <time>2021-05-30T18:08:57Z</time>
      </trkpt>
      <trkpt lat="-12.1359120" lon="-76.8063410">
        <ele>325.0</ele>
        <time>2021-05-30T18:08:59Z</time>
      </trkpt>
      <trkpt lat="-12.1359170" lon="-76.8064130">
        <ele>324.7</ele>
        <time>2021-05-30T18:09:00Z</time>
      </trkpt>
      <trkpt lat="-12.1359250" lon="-76.8065650">
        <ele>324.1</ele>
        <time>2021-05-30T18:09:02Z</time>
      </trkpt>
      <trkpt lat="-12.1359150" lon="-76.8067060">
        <ele>323.3</ele>
        <time>2021-05-30T18:09:04Z</time>
      </trkpt>
      <trkpt lat="-12.1359070" lon="-76.8067810">
        <ele>322.9</ele>
        <time>2021-05-30T18:09:05Z</time>
      </trkpt>
      <trkpt lat="-12.1358940" lon="-76.8069290">
        <ele>321.9</ele>
        <time>2021-05-30T18:09:07Z</time>
      </trkpt>
      <trkpt lat="-12.1358920" lon="-76.8070030">
        <ele>321.5</ele>
        <time>2021-05-30T18:09:08Z</time>
      </trkpt>
      <trkpt lat="-12.1358860" lon="-76.8071620">
        <ele>320.5</ele>
        <time>2021-05-30T18:09:10Z</time>
      </trkpt>
      <trkpt lat="-12.1358740" lon="-76.8073100">
        <ele>319.7</ele>
        <time>2021-05-30T18:09:12Z</time>
      </trkpt>
      <trkpt lat="-12.1358610" lon="-76.8074480">
        <ele>318.9</ele>
        <time>2021-05-30T18:09:14Z</time>
      </trkpt>
      <trkpt lat="-12.1358450" lon="-76.8075820">
        <ele>318.2</ele>
        <time>2021-05-30T18:09:16Z</time>
      </trkpt>
      <trkpt lat="-12.1358260" lon="-76.8077340">
        <ele>317.4</ele>
        <time>2021-05-30T18:09:18Z</time>
      </trkpt>
      <trkpt lat="-12.1358260" lon="-76.8079090">
        <ele>316.6</ele>
        <time>2021-05-30T18:09:20Z</time>
      </trkpt>
      <trkpt lat="-12.1358310" lon="-76.8080150">
        <ele>316.1</ele>
        <time>2021-05-30T18:09:21Z</time>
      </trkpt>
      <trkpt lat="-12.1358560" lon="-76.8082330">
        <ele>315.1</ele>
        <time>2021-05-30T18:09:23Z</time>
      </trkpt>
      <trkpt lat="-12.1358820" lon="-76.8084420">
        <ele>314.2</ele>
        <time>2021-05-30T18:09:25Z</time>
      </trkpt>
      <trkpt lat="-12.1358880" lon="-76.8085310">
        <ele>313.8</ele>
        <time>2021-05-30T18:09:26Z</time>
      </trkpt>
      <trkpt lat="-12.1358510" lon="-76.8086870">
        <ele>313.1</ele>
        <time>2021-05-30T18:09:28Z</time>
      </trkpt>
      <trkpt lat="-12.1358160" lon="-76.8088420">
        <ele>312.4</ele>
        <time>2021-05-30T18:09:30Z</time>
      </trkpt>
      <trkpt lat="-12.1357970" lon="-76.8089830">
        <ele>311.8</ele>
        <time>2021-05-30T18:09:32Z</time>
      </trkpt>
      <trkpt lat="-12.1357880" lon="-76.8091290">
        <ele>311.2</ele>
        <time>2021-05-30T18:09:34Z</time>
      </trkpt>
      <trkpt lat="-12.1357870" lon="-76.8092100">
        <ele>310.8</ele>
        <time>2021-05-30T18:09:35Z</time>
      </trkpt>
      <trkpt lat="-12.1357980" lon="-76.8093530">
        <ele>310.2</ele>
        <time>2021-05-30T18:09:37Z</time>
      </trkpt>
      <trkpt lat="-12.1357810" lon="-76.8094890">
        <ele>309.8</ele>
        <time>2021-05-30T18:09:39Z</time>
      </trkpt>
      <trkpt lat="-12.1357670" lon="-76.8096360">
        <ele>309.2</ele>
        <time>2021-05-30T18:09:41Z</time>
      </trkpt>
      <trkpt lat="-12.1357550" lon="-76.8097050">
        <ele>308.8</ele>
        <time>2021-05-30T18:09:42Z</time>
      </trkpt>
      <trkpt lat="-12.1357320" lon="-76.8098500">
        <ele>308.0</ele>
        <time>2021-05-30T18:09:44Z</time>
      </trkpt>
      <trkpt lat="-12.1357120" lon="-76.8099160">
        <ele>307.6</ele>
        <time>2021-05-30T18:09:45Z</time>
      </trkpt>
      <trkpt lat="-12.1356820" lon="-76.8099830">
        <ele>307.2</ele>
        <time>2021-05-30T18:09:46Z</time>
      </trkpt>
      <trkpt lat="-12.1355770" lon="-76.8100850">
        <ele>306.2</ele>
        <time>2021-05-30T18:09:48Z</time>
      </trkpt>
      <trkpt lat="-12.1354210" lon="-76.8101390">
        <ele>304.9</ele>
        <time>2021-05-30T18:09:50Z</time>
      </trkpt>
      <trkpt lat="-12.1353370" lon="-76.8101600">
        <ele>304.3</ele>
        <time>2021-05-30T18:09:51Z</time>
      </trkpt>
      <trkpt lat="-12.1352560" lon="-76.8101820">
        <ele>303.7</ele>
        <time>2021-05-30T18:09:52Z</time>
      </trkpt>
      <trkpt lat="-12.1350920" lon="-76.8102390">
        <ele>302.5</ele>
        <time>2021-05-30T18:09:54Z</time>
      </trkpt>
      <trkpt lat="-12.1349270" lon="-76.8103020">
        <ele>301.4</ele>
        <time>2021-05-30T18:09:56Z</time>
      </trkpt>
      <trkpt lat="-12.1348480" lon="-76.8103360">
        <ele>300.9</ele>
        <time>2021-05-30T18:09:57Z</time>
      </trkpt>
      <trkpt lat="-12.1346870" lon="-76.8104070">
        <ele>299.9</ele>
        <time>2021-05-30T18:09:59Z</time>
      </trkpt>
      <trkpt lat="-12.1346060" lon="-76.8104480">
        <ele>299.4</ele>
        <time>2021-05-30T18:10:00Z</time>
      </trkpt>
      <trkpt lat="-12.1344430" lon="-76.8105150">
        <ele>298.5</ele>
        <time>2021-05-30T18:10:02Z</time>
      </trkpt>
      <trkpt lat="-12.1342940" lon="-76.8105990">
        <ele>297.6</ele>
        <time>2021-05-30T18:10:04Z</time>
      </trkpt>
      <trkpt lat="-12.1342170" lon="-76.8106440">
        <ele>297.2</ele>
        <time>2021-05-30T18:10:05Z</time>
      </trkpt>
      <trkpt lat="-12.1340740" lon="-76.8107280">
        <ele>296.4</ele>
        <time>2021-05-30T18:10:07Z</time>
      </trkpt>
      <trkpt lat="-12.1339290" lon="-76.8107950">
        <ele>295.6</ele>
        <time>2021-05-30T18:10:09Z</time>
      </trkpt>
      <trkpt lat="-12.1338490" lon="-76.8108280">
        <ele>295.1</ele>
        <time>2021-05-30T18:10:10Z</time>
      </trkpt>
      <trkpt lat="-12.1336940" lon="-76.8108880">
        <ele>294.3</ele>
        <time>2021-05-30T18:10:12Z</time>
      </trkpt>
      <trkpt lat="-12.1336140" lon="-76.8109180">
        <ele>293.9</ele>
        <time>2021-05-30T18:10:13Z</time>
      </trkpt>
      <trkpt lat="-12.1334620" lon="-76.8109730">
        <ele>293.1</ele>
        <time>2021-05-30T18:10:15Z</time>
      </trkpt>
      <trkpt lat="-12.1333090" lon="-76.8110300">
        <ele>292.4</ele>
        <time>2021-05-30T18:10:17Z</time>
      </trkpt>
      <trkpt lat="-12.1331750" lon="-76.8110850">
        <ele>291.8</ele>
        <time>2021-05-30T18:10:19Z</time>
      </trkpt>
      <trkpt lat="-12.1330980" lon="-76.8111330">
        <ele>291.3</ele>
        <time>2021-05-30T18:10:21Z</time>
      </trkpt>
      <trkpt lat="-12.1330910" lon="-76.8111480">
        <ele>291.3</ele>
        <time>2021-05-30T18:10:22Z</time>
      </trkpt>
      <trkpt lat="-12.1330840" lon="-76.8111610">
        <ele>291.4</ele>
        <time>2021-05-30T18:10:23Z</time>
      </trkpt>
      <trkpt lat="-12.1330950" lon="-76.8111860">
        <ele>291.4</ele>
        <time>2021-05-30T18:10:24Z</time>
      </trkpt>
      <trkpt lat="-12.1330930" lon="-76.8112040">
        <ele>291.5</ele>
        <time>2021-05-30T18:10:25Z</time>
      </trkpt>
      <trkpt lat="-12.1330920" lon="-76.8112210">
        <ele>291.5</ele>
        <time>2021-05-30T18:10:26Z</time>
      </trkpt>
      <trkpt lat="-12.1331180" lon="-76.8112900">
        <ele>291.7</ele>
        <time>2021-05-30T18:10:29Z</time>
      </trkpt>
      <trkpt lat="-12.1331280" lon="-76.8113080">
        <ele>291.7</ele>
        <time>2021-05-30T18:10:31Z</time>
      </trkpt>
      <trkpt lat="-12.1331390" lon="-76.8113250">
        <ele>291.7</ele>
        <time>2021-05-30T18:10:33Z</time>
      </trkpt>
      <trkpt lat="-12.1331490" lon="-76.8113430">
        <ele>291.7</ele>
        <time>2021-05-30T18:10:34Z</time>
      </trkpt>
      <trkpt lat="-12.1331590" lon="-76.8113600">
        <ele>291.7</ele>
        <time>2021-05-30T18:10:35Z</time>
      </trkpt>
      <trkpt lat="-12.1331770" lon="-76.8113780">
        <ele>291.8</ele>
        <time>2021-05-30T18:10:36Z</time>
      </trkpt>
      <trkpt lat="-12.1332020" lon="-76.8114010">
        <ele>291.8</ele>
        <time>2021-05-30T18:10:38Z</time>
      </trkpt>
      <trkpt lat="-12.1332220" lon="-76.8114190">
        <ele>291.8</ele>
        <time>2021-05-30T18:10:39Z</time>
      </trkpt>
      <trkpt lat="-12.1332480" lon="-76.8114510">
        <ele>291.8</ele>
        <time>2021-05-30T18:10:40Z</time>
      </trkpt>
      <trkpt lat="-12.1332890" lon="-76.8114940">
        <ele>291.8</ele>
        <time>2021-05-30T18:10:42Z</time>
      </trkpt>
      <trkpt lat="-12.1333380" lon="-76.8115390">
        <ele>291.8</ele>
        <time>2021-05-30T18:10:43Z</time>
      </trkpt>
      <trkpt lat="-12.1333840" lon="-76.8115950">
        <ele>291.8</ele>
        <time>2021-05-30T18:10:45Z</time>
      </trkpt>
      <trkpt lat="-12.1334120" lon="-76.8116330">
        <ele>291.8</ele>
        <time>2021-05-30T18:10:46Z</time>
      </trkpt>
      <trkpt lat="-12.1334560" lon="-76.8116920">
        <ele>291.7</ele>
        <time>2021-05-30T18:10:48Z</time>
      </trkpt>
      <trkpt lat="-12.1335060" lon="-76.8117480">
        <ele>291.7</ele>
        <time>2021-05-30T18:10:50Z</time>
      </trkpt>
      <trkpt lat="-12.1335580" lon="-76.8117910">
        <ele>291.7</ele>
        <time>2021-05-30T18:10:52Z</time>
      </trkpt>
      <trkpt lat="-12.1336030" lon="-76.8118490">
        <ele>291.6</ele>
        <time>2021-05-30T18:10:54Z</time>
      </trkpt>
      <trkpt lat="-12.1336150" lon="-76.8118770">
        <ele>291.6</ele>
        <time>2021-05-30T18:10:55Z</time>
      </trkpt>
      <trkpt lat="-12.1336440" lon="-76.8119390">
        <ele>291.6</ele>
        <time>2021-05-30T18:10:57Z</time>
      </trkpt>
      <trkpt lat="-12.1336750" lon="-76.8120000">
        <ele>291.6</ele>
        <time>2021-05-30T18:10:59Z</time>
      </trkpt>
      <trkpt lat="-12.1337100" lon="-76.8120590">
        <ele>291.6</ele>
        <time>2021-05-30T18:11:01Z</time>
      </trkpt>
      <trkpt lat="-12.1337600" lon="-76.8121290">
        <ele>291.5</ele>
        <time>2021-05-30T18:11:03Z</time>
      </trkpt>
      <trkpt lat="-12.1337850" lon="-76.8121600">
        <ele>291.4</ele>
        <time>2021-05-30T18:11:04Z</time>
      </trkpt>
      <trkpt lat="-12.1338420" lon="-76.8122160">
        <ele>291.3</ele>
        <time>2021-05-30T18:11:06Z</time>
      </trkpt>
      <trkpt lat="-12.1338850" lon="-76.8122490">
        <ele>291.2</ele>
        <time>2021-05-30T18:11:07Z</time>
      </trkpt>
      <trkpt lat="-12.1339790" lon="-76.8123320">
        <ele>291.1</ele>
        <time>2021-05-30T18:11:09Z</time>
      </trkpt>
      <trkpt lat="-12.1340240" lon="-76.8123790">
        <ele>291.1</ele>
        <time>2021-05-30T18:11:10Z</time>
      </trkpt>
      <trkpt lat="-12.1341170" lon="-76.8124800">
        <ele>291.1</ele>
        <time>2021-05-30T18:11:12Z</time>
      </trkpt>
      <trkpt lat="-12.1341910" lon="-76.8125930">
        <ele>291.1</ele>
        <time>2021-05-30T18:11:14Z</time>
      </trkpt>
      <trkpt lat="-12.1342230" lon="-76.8126520">
        <ele>291.1</ele>
        <time>2021-05-30T18:11:15Z</time>
      </trkpt>
      <trkpt lat="-12.1342500" lon="-76.8127080">
        <ele>291.1</ele>
        <time>2021-05-30T18:11:16Z</time>
      </trkpt>
      <trkpt lat="-12.1342780" lon="-76.8127580">
        <ele>291.1</ele>
        <time>2021-05-30T18:11:17Z</time>
      </trkpt>
      <trkpt lat="-12.1343280" lon="-76.8128370">
        <ele>291.2</ele>
        <time>2021-05-30T18:11:19Z</time>
      </trkpt>
      <trkpt lat="-12.1343680" lon="-76.8128860">
        <ele>291.2</ele>
        <time>2021-05-30T18:11:21Z</time>
      </trkpt>
      <trkpt lat="-12.1344220" lon="-76.8129560">
        <ele>291.1</ele>
        <time>2021-05-30T18:11:23Z</time>
      </trkpt>
      <trkpt lat="-12.1344500" lon="-76.8129960">
        <ele>291.0</ele>
        <time>2021-05-30T18:11:24Z</time>
      </trkpt>
      <trkpt lat="-12.1344800" lon="-76.8130400">
        <ele>291.0</ele>
        <time>2021-05-30T18:11:25Z</time>
      </trkpt>
      <trkpt lat="-12.1345330" lon="-76.8131340">
        <ele>290.8</ele>
        <time>2021-05-30T18:11:27Z</time>
      </trkpt>
      <trkpt lat="-12.1345970" lon="-76.8132260">
        <ele>290.6</ele>
        <time>2021-05-30T18:11:29Z</time>
      </trkpt>
      <trkpt lat="-12.1346800" lon="-76.8133170">
        <ele>290.3</ele>
        <time>2021-05-30T18:11:31Z</time>
      </trkpt>
      <trkpt lat="-12.1347490" lon="-76.8134060">
        <ele>290.2</ele>
        <time>2021-05-30T18:11:33Z</time>
      </trkpt>
      <trkpt lat="-12.1348120" lon="-76.8134960">
        <ele>290.0</ele>
        <time>2021-05-30T18:11:35Z</time>
      </trkpt>
      <trkpt lat="-12.1348450" lon="-76.8135500">
        <ele>289.9</ele>
        <time>2021-05-30T18:11:36Z</time>
      </trkpt>
      <trkpt lat="-12.1349100" lon="-76.8136340">
        <ele>289.6</ele>
        <time>2021-05-30T18:11:38Z</time>
      </trkpt>
      <trkpt lat="-12.1349540" lon="-76.8136780">
        <ele>289.4</ele>
        <time>2021-05-30T18:11:39Z</time>
      </trkpt>
      <trkpt lat="-12.1350000" lon="-76.8137210">
        <ele>289.2</ele>
        <time>2021-05-30T18:11:40Z</time>
      </trkpt>
      <trkpt lat="-12.1350880" lon="-76.8138140">
        <ele>289.0</ele>
        <time>2021-05-30T18:11:42Z</time>
      </trkpt>
      <trkpt lat="-12.1351800" lon="-76.8139000">
        <ele>288.9</ele>
        <time>2021-05-30T18:11:44Z</time>
      </trkpt>
      <trkpt lat="-12.1352870" lon="-76.8139780">
        <ele>288.8</ele>
        <time>2021-05-30T18:11:46Z</time>
      </trkpt>
      <trkpt lat="-12.1353910" lon="-76.8140750">
        <ele>288.6</ele>
        <time>2021-05-30T18:11:48Z</time>
      </trkpt>
      <trkpt lat="-12.1354810" lon="-76.8141700">
        <ele>288.3</ele>
        <time>2021-05-30T18:11:50Z</time>
      </trkpt>
      <trkpt lat="-12.1355210" lon="-76.8142220">
        <ele>288.1</ele>
        <time>2021-05-30T18:11:51Z</time>
      </trkpt>
      <trkpt lat="-12.1355660" lon="-76.8142700">
        <ele>288.0</ele>
        <time>2021-05-30T18:11:52Z</time>
      </trkpt>
      <trkpt lat="-12.1356510" lon="-76.8143580">
        <ele>287.9</ele>
        <time>2021-05-30T18:11:54Z</time>
      </trkpt>
      <trkpt lat="-12.1356880" lon="-76.8144010">
        <ele>287.9</ele>
        <time>2021-05-30T18:11:55Z</time>
      </trkpt>
      <trkpt lat="-12.1357270" lon="-76.8144440">
        <ele>287.9</ele>
        <time>2021-05-30T18:11:56Z</time>
      </trkpt>
      <trkpt lat="-12.1358110" lon="-76.8145330">
        <ele>288.1</ele>
        <time>2021-05-30T18:11:58Z</time>
      </trkpt>
      <trkpt lat="-12.1358910" lon="-76.8146030">
        <ele>288.2</ele>
        <time>2021-05-30T18:12:00Z</time>
      </trkpt>
      <trkpt lat="-12.1359790" lon="-76.8146620">
        <ele>288.2</ele>
        <time>2021-05-30T18:12:02Z</time>
      </trkpt>
      <trkpt lat="-12.1360190" lon="-76.8146940">
        <ele>288.3</ele>
        <time>2021-05-30T18:12:03Z</time>
      </trkpt>
      <trkpt lat="-12.1360980" lon="-76.8147630">
        <ele>288.4</ele>
        <time>2021-05-30T18:12:05Z</time>
      </trkpt>
      <trkpt lat="-12.1361720" lon="-76.8148350">
        <ele>288.4</ele>
        <time>2021-05-30T18:12:07Z</time>
      </trkpt>
      <trkpt lat="-12.1362100" lon="-76.8148620">
        <ele>288.4</ele>
        <time>2021-05-30T18:12:08Z</time>
      </trkpt>
      <trkpt lat="-12.1362730" lon="-76.8149100">
        <ele>288.3</ele>
        <time>2021-05-30T18:12:10Z</time>
      </trkpt>
      <trkpt lat="-12.1363320" lon="-76.8149590">
        <ele>288.1</ele>
        <time>2021-05-30T18:12:12Z</time>
      </trkpt>
      <trkpt lat="-12.1363590" lon="-76.8149940">
        <ele>287.9</ele>
        <time>2021-05-30T18:12:13Z</time>
      </trkpt>
      <trkpt lat="-12.1364310" lon="-76.8150820">
        <ele>287.5</ele>
        <time>2021-05-30T18:12:15Z</time>
      </trkpt>
      <trkpt lat="-12.1364730" lon="-76.8151280">
        <ele>287.4</ele>
        <time>2021-05-30T18:12:16Z</time>
      </trkpt>
      <trkpt lat="-12.1365100" lon="-76.8151720">
        <ele>287.3</ele>
        <time>2021-05-30T18:12:17Z</time>
      </trkpt>
      <trkpt lat="-12.1365770" lon="-76.8152530">
        <ele>287.1</ele>
        <time>2021-05-30T18:12:19Z</time>
      </trkpt>
      <trkpt lat="-12.1365550" lon="-76.8152220">
        <ele>287.1</ele>
        <time>2021-05-30T18:12:20Z</time>
      </trkpt>
      <trkpt lat="-12.1365930" lon="-76.8152600">
        <ele>287.0</ele>
        <time>2021-05-30T18:12:22Z</time>
      </trkpt>
      <trkpt lat="-12.1366530" lon="-76.8153200">
        <ele>286.8</ele>
        <time>2021-05-30T18:12:23Z</time>
      </trkpt>
      <trkpt lat="-12.1366930" lon="-76.8153550">
        <ele>286.7</ele>
        <time>2021-05-30T18:12:24Z</time>
      </trkpt>
      <trkpt lat="-12.1367330" lon="-76.8153890">
        <ele>286.6</ele>
        <time>2021-05-30T18:12:26Z</time>
      </trkpt>
      <trkpt lat="-12.1367830" lon="-76.8154350">
        <ele>286.3</ele>
        <time>2021-05-30T18:12:27Z</time>
      </trkpt>
      <trkpt lat="-12.1368150" lon="-76.8154640">
        <ele>286.2</ele>
        <time>2021-05-30T18:12:28Z</time>
      </trkpt>
      <trkpt lat="-12.1368520" lon="-76.8154950">
        <ele>286.0</ele>
        <time>2021-05-30T18:12:30Z</time>
      </trkpt>
      <trkpt lat="-12.1369070" lon="-76.8155410">
        <ele>285.8</ele>
        <time>2021-05-30T18:12:31Z</time>
      </trkpt>
      <trkpt lat="-12.1369460" lon="-76.8155800">
        <ele>285.6</ele>
        <time>2021-05-30T18:12:33Z</time>
      </trkpt>
      <trkpt lat="-12.1369830" lon="-76.8156120">
        <ele>285.5</ele>
        <time>2021-05-30T18:12:34Z</time>
      </trkpt>
      <trkpt lat="-12.1370090" lon="-76.8156300">
        <ele>285.4</ele>
        <time>2021-05-30T18:12:36Z</time>
      </trkpt>
      <trkpt lat="-12.1370150" lon="-76.8156330">
        <ele>285.4</ele>
        <time>2021-05-30T18:12:37Z</time>
      </trkpt>
      <trkpt lat="-12.1369970" lon="-76.8156250">
        <ele>285.4</ele>
        <time>2021-05-30T18:12:39Z</time>
      </trkpt>
      <trkpt lat="-12.1369920" lon="-76.8156220">
        <ele>285.3</ele>
        <time>2021-05-30T18:12:40Z</time>
      </trkpt>
      <trkpt lat="-12.1369870" lon="-76.8156200">
        <ele>285.3</ele>
        <time>2021-05-30T18:12:41Z</time>
      </trkpt>
      <trkpt lat="-12.1369820" lon="-76.8156170">
        <ele>285.3</ele>
        <time>2021-05-30T18:12:43Z</time>
      </trkpt>
      <trkpt lat="-12.1369800" lon="-76.8156150">
        <ele>285.3</ele>
        <time>2021-05-30T18:12:44Z</time>
      </trkpt>
      <trkpt lat="-12.1369800" lon="-76.8156140">
        <ele>285.3</ele>
        <time>2021-05-30T18:12:45Z</time>
      </trkpt>
      <trkpt lat="-12.1369780" lon="-76.8156130">
        <ele>285.3</ele>
        <time>2021-05-30T18:12:47Z</time>
      </trkpt>
      <trkpt lat="-12.1370190" lon="-76.8156680">
        <ele>285.1</ele>
        <time>2021-05-30T18:13:03Z</time>
      </trkpt>
      <trkpt lat="-12.1371320" lon="-76.8157570">
        <ele>284.6</ele>
        <time>2021-05-30T18:13:05Z</time>
      </trkpt>
      <trkpt lat="-12.1372340" lon="-76.8158380">
        <ele>284.2</ele>
        <time>2021-05-30T18:13:07Z</time>
      </trkpt>
      <trkpt lat="-12.1373310" lon="-76.8159220">
        <ele>283.7</ele>
        <time>2021-05-30T18:13:09Z</time>
      </trkpt>
      <trkpt lat="-12.1374230" lon="-76.8160040">
        <ele>283.3</ele>
        <time>2021-05-30T18:13:11Z</time>
      </trkpt>
      <trkpt lat="-12.1375250" lon="-76.8160900">
        <ele>282.8</ele>
        <time>2021-05-30T18:13:13Z</time>
      </trkpt>
      <trkpt lat="-12.1375770" lon="-76.8161400">
        <ele>282.6</ele>
        <time>2021-05-30T18:13:14Z</time>
      </trkpt>
      <trkpt lat="-12.1376860" lon="-76.8162110">
        <ele>282.2</ele>
        <time>2021-05-30T18:13:16Z</time>
      </trkpt>
      <trkpt lat="-12.1377490" lon="-76.8162440">
        <ele>282.0</ele>
        <time>2021-05-30T18:13:17Z</time>
      </trkpt>
      <trkpt lat="-12.1378660" lon="-76.8163090">
        <ele>281.6</ele>
        <time>2021-05-30T18:13:19Z</time>
      </trkpt>
      <trkpt lat="-12.1379230" lon="-76.8163410">
        <ele>281.4</ele>
        <time>2021-05-30T18:13:20Z</time>
      </trkpt>
      <trkpt lat="-12.1380330" lon="-76.8164050">
        <ele>281.2</ele>
        <time>2021-05-30T18:13:22Z</time>
      </trkpt>
      <trkpt lat="-12.1381400" lon="-76.8164640">
        <ele>281.0</ele>
        <time>2021-05-30T18:13:24Z</time>
      </trkpt>
      <trkpt lat="-12.1381830" lon="-76.8164930">
        <ele>280.9</ele>
        <time>2021-05-30T18:13:25Z</time>
      </trkpt>
      <trkpt lat="-12.1382770" lon="-76.8165450">
        <ele>280.8</ele>
        <time>2021-05-30T18:13:27Z</time>
      </trkpt>
      <trkpt lat="-12.1383280" lon="-76.8165710">
        <ele>280.8</ele>
        <time>2021-05-30T18:13:28Z</time>
      </trkpt>
      <trkpt lat="-12.1384290" lon="-76.8166150">
        <ele>280.8</ele>
        <time>2021-05-30T18:13:30Z</time>
      </trkpt>
      <trkpt lat="-12.1385420" lon="-76.8166670">
        <ele>280.8</ele>
        <time>2021-05-30T18:13:32Z</time>
      </trkpt>
      <trkpt lat="-12.1385980" lon="-76.8166960">
        <ele>280.8</ele>
        <time>2021-05-30T18:13:33Z</time>
      </trkpt>
      <trkpt lat="-12.1387050" lon="-76.8167290">
        <ele>280.8</ele>
        <time>2021-05-30T18:13:35Z</time>
      </trkpt>
      <trkpt lat="-12.1387560" lon="-76.8167480">
        <ele>280.9</ele>
        <time>2021-05-30T18:13:36Z</time>
      </trkpt>
      <trkpt lat="-12.1388490" lon="-76.8168020">
        <ele>280.9</ele>
        <time>2021-05-30T18:13:38Z</time>
      </trkpt>
      <trkpt lat="-12.1389000" lon="-76.8168260">
        <ele>280.9</ele>
        <time>2021-05-30T18:13:39Z</time>
      </trkpt>
      <trkpt lat="-12.1389480" lon="-76.8168510">
        <ele>280.8</ele>
        <time>2021-05-30T18:13:40Z</time>
      </trkpt>
      <trkpt lat="-12.1389960" lon="-76.8168740">
        <ele>280.8</ele>
        <time>2021-05-30T18:13:41Z</time>
      </trkpt>
      <trkpt lat="-12.1390900" lon="-76.8169230">
        <ele>280.8</ele>
        <time>2021-05-30T18:13:43Z</time>
      </trkpt>
      <trkpt lat="-12.1391420" lon="-76.8169490">
        <ele>280.8</ele>
        <time>2021-05-30T18:13:44Z</time>
      </trkpt>
      <trkpt lat="-12.1392420" lon="-76.8169990">
        <ele>280.7</ele>
        <time>2021-05-30T18:13:46Z</time>
      </trkpt>
      <trkpt lat="-12.1392930" lon="-76.8170180">
        <ele>280.7</ele>
        <time>2021-05-30T18:13:47Z</time>
      </trkpt>
      <trkpt lat="-12.1393920" lon="-76.8170540">
        <ele>280.7</ele>
        <time>2021-05-30T18:13:49Z</time>
      </trkpt>
      <trkpt lat="-12.1394490" lon="-76.8170700">
        <ele>280.7</ele>
        <time>2021-05-30T18:13:50Z</time>
      </trkpt>
      <trkpt lat="-12.1395530" lon="-76.8171050">
        <ele>280.6</ele>
        <time>2021-05-30T18:13:52Z</time>
      </trkpt>
      <trkpt lat="-12.1395980" lon="-76.8171320">
        <ele>280.6</ele>
        <time>2021-05-30T18:13:53Z</time>
      </trkpt>
      <trkpt lat="-12.1396850" lon="-76.8171810">
        <ele>280.6</ele>
        <time>2021-05-30T18:13:55Z</time>
      </trkpt>
      <trkpt lat="-12.1397270" lon="-76.8172000">
        <ele>280.7</ele>
        <time>2021-05-30T18:13:56Z</time>
      </trkpt>
      <trkpt lat="-12.1397960" lon="-76.8172350">
        <ele>280.7</ele>
        <time>2021-05-30T18:13:58Z</time>
      </trkpt>
      <trkpt lat="-12.1398470" lon="-76.8172570">
        <ele>280.8</ele>
        <time>2021-05-30T18:13:59Z</time>
      </trkpt>
      <trkpt lat="-12.1399470" lon="-76.8172850">
        <ele>280.9</ele>
        <time>2021-05-30T18:14:01Z</time>
      </trkpt>
      <trkpt lat="-12.1400310" lon="-76.8173200">
        <ele>281.0</ele>
        <time>2021-05-30T18:14:03Z</time>
      </trkpt>
      <trkpt lat="-12.1400170" lon="-76.8173190">
        <ele>281.1</ele>
        <time>2021-05-30T18:14:04Z</time>
      </trkpt>
      <trkpt lat="-12.1400170" lon="-76.8173520">
        <ele>281.1</ele>
        <time>2021-05-30T18:14:06Z</time>
      </trkpt>
      <trkpt lat="-12.1400540" lon="-76.8173750">
        <ele>281.1</ele>
        <time>2021-05-30T18:14:07Z</time>
      </trkpt>
      <trkpt lat="-12.1401030" lon="-76.8174010">
        <ele>281.0</ele>
        <time>2021-05-30T18:14:08Z</time>
      </trkpt>
      <trkpt lat="-12.1402320" lon="-76.8174770">
        <ele>281.0</ele>
        <time>2021-05-30T18:14:10Z</time>
      </trkpt>
      <trkpt lat="-12.1402810" lon="-76.8175080">
        <ele>280.9</ele>
        <time>2021-05-30T18:14:11Z</time>
      </trkpt>
      <trkpt lat="-12.1403230" lon="-76.8175280">
        <ele>280.9</ele>
        <time>2021-05-30T18:14:12Z</time>
      </trkpt>
      <trkpt lat="-12.1404000" lon="-76.8175840">
        <ele>280.8</ele>
        <time>2021-05-30T18:14:14Z</time>
      </trkpt>
      <trkpt lat="-12.1404410" lon="-76.8176090">
        <ele>280.7</ele>
        <time>2021-05-30T18:14:15Z</time>
      </trkpt>
      <trkpt lat="-12.1405400" lon="-76.8176600">
        <ele>280.5</ele>
        <time>2021-05-30T18:14:17Z</time>
      </trkpt>
      <trkpt lat="-12.1405950" lon="-76.8176870">
        <ele>280.5</ele>
        <time>2021-05-30T18:14:18Z</time>
      </trkpt>
      <trkpt lat="-12.1406420" lon="-76.8177150">
        <ele>280.5</ele>
        <time>2021-05-30T18:14:19Z</time>
      </trkpt>
      <trkpt lat="-12.1407380" lon="-76.8177630">
        <ele>280.5</ele>
        <time>2021-05-30T18:14:21Z</time>
      </trkpt>
      <trkpt lat="-12.1407870" lon="-76.8177810">
        <ele>280.5</ele>
        <time>2021-05-30T18:14:22Z</time>
      </trkpt>
      <trkpt lat="-12.1408420" lon="-76.8177970">
        <ele>280.4</ele>
        <time>2021-05-30T18:14:23Z</time>
      </trkpt>
      <trkpt lat="-12.1409470" lon="-76.8178340">
        <ele>280.4</ele>
        <time>2021-05-30T18:14:25Z</time>
      </trkpt>
      <trkpt lat="-12.1409960" lon="-76.8178540">
        <ele>280.3</ele>
        <time>2021-05-30T18:14:26Z</time>
      </trkpt>
      <trkpt lat="-12.1410800" lon="-76.8178850">
        <ele>280.2</ele>
        <time>2021-05-30T18:14:28Z</time>
      </trkpt>
      <trkpt lat="-12.1411860" lon="-76.8179190">
        <ele>280.0</ele>
        <time>2021-05-30T18:14:30Z</time>
      </trkpt>
      <trkpt lat="-12.1412780" lon="-76.8179530">
        <ele>280.0</ele>
        <time>2021-05-30T18:14:32Z</time>
      </trkpt>
      <trkpt lat="-12.1413240" lon="-76.8179720">
        <ele>279.9</ele>
        <time>2021-05-30T18:14:33Z</time>
      </trkpt>
      <trkpt lat="-12.1414060" lon="-76.8180180">
        <ele>279.9</ele>
        <time>2021-05-30T18:14:35Z</time>
      </trkpt>
      <trkpt lat="-12.1414500" lon="-76.8180420">
        <ele>279.8</ele>
        <time>2021-05-30T18:14:36Z</time>
      </trkpt>
      <trkpt lat="-12.1415390" lon="-76.8180990">
        <ele>279.7</ele>
        <time>2021-05-30T18:14:38Z</time>
      </trkpt>
      <trkpt lat="-12.1416290" lon="-76.8181520">
        <ele>279.6</ele>
        <time>2021-05-30T18:14:40Z</time>
      </trkpt>
      <trkpt lat="-12.1416750" lon="-76.8181790">
        <ele>279.5</ele>
        <time>2021-05-30T18:14:41Z</time>
      </trkpt>
      <trkpt lat="-12.1417710" lon="-76.8182210">
        <ele>279.4</ele>
        <time>2021-05-30T18:14:43Z</time>
      </trkpt>
      <trkpt lat="-12.1418170" lon="-76.8182410">
        <ele>279.3</ele>
        <time>2021-05-30T18:14:44Z</time>
      </trkpt>
      <trkpt lat="-12.1419210" lon="-76.8182760">
        <ele>279.2</ele>
        <time>2021-05-30T18:14:46Z</time>
      </trkpt>
      <trkpt lat="-12.1419730" lon="-76.8182970">
        <ele>279.1</ele>
        <time>2021-05-30T18:14:47Z</time>
      </trkpt>
      <trkpt lat="-12.1420280" lon="-76.8183150">
        <ele>279.0</ele>
        <time>2021-05-30T18:14:48Z</time>
      </trkpt>
      <trkpt lat="-12.1420770" lon="-76.8183300">
        <ele>279.0</ele>
        <time>2021-05-30T18:14:49Z</time>
      </trkpt>
      <trkpt lat="-12.1421210" lon="-76.8183450">
        <ele>278.9</ele>
        <time>2021-05-30T18:14:50Z</time>
      </trkpt>
      <trkpt lat="-12.1422170" lon="-76.8183880">
        <ele>278.7</ele>
        <time>2021-05-30T18:14:52Z</time>
      </trkpt>
      <trkpt lat="-12.1423200" lon="-76.8184370">
        <ele>278.5</ele>
        <time>2021-05-30T18:14:54Z</time>
      </trkpt>
      <trkpt lat="-12.1423710" lon="-76.8184590">
        <ele>278.4</ele>
        <time>2021-05-30T18:14:55Z</time>
      </trkpt>
      <trkpt lat="-12.1424180" lon="-76.8184810">
        <ele>278.3</ele>
        <time>2021-05-30T18:14:56Z</time>
      </trkpt>
      <trkpt lat="-12.1424670" lon="-76.8184980">
        <ele>278.2</ele>
        <time>2021-05-30T18:14:57Z</time>
      </trkpt>
      <trkpt lat="-12.1425750" lon="-76.8185150">
        <ele>278.1</ele>
        <time>2021-05-30T18:14:59Z</time>
      </trkpt>
      <trkpt lat="-12.1427050" lon="-76.8185120">
        <ele>277.8</ele>
        <time>2021-05-30T18:15:01Z</time>
      </trkpt>
      <trkpt lat="-12.1427650" lon="-76.8185110">
        <ele>277.7</ele>
        <time>2021-05-30T18:15:02Z</time>
      </trkpt>
      <trkpt lat="-12.1428220" lon="-76.8185170">
        <ele>277.6</ele>
        <time>2021-05-30T18:15:03Z</time>
      </trkpt>
      <trkpt lat="-12.1428770" lon="-76.8185250">
        <ele>277.5</ele>
        <time>2021-05-30T18:15:04Z</time>
      </trkpt>
      <trkpt lat="-12.1430000" lon="-76.8185410">
        <ele>277.2</ele>
        <time>2021-05-30T18:15:06Z</time>
      </trkpt>
      <trkpt lat="-12.1430600" lon="-76.8185490">
        <ele>277.1</ele>
        <time>2021-05-30T18:15:07Z</time>
      </trkpt>
      <trkpt lat="-12.1431180" lon="-76.8185590">
        <ele>277.0</ele>
        <time>2021-05-30T18:15:08Z</time>
      </trkpt>
      <trkpt lat="-12.1431720" lon="-76.8185660">
        <ele>276.9</ele>
        <time>2021-05-30T18:15:09Z</time>
      </trkpt>
      <trkpt lat="-12.1432780" lon="-76.8185990">
        <ele>276.6</ele>
        <time>2021-05-30T18:15:11Z</time>
      </trkpt>
      <trkpt lat="-12.1433890" lon="-76.8186290">
        <ele>276.3</ele>
        <time>2021-05-30T18:15:13Z</time>
      </trkpt>
      <trkpt lat="-12.1434420" lon="-76.8186360">
        <ele>276.1</ele>
        <time>2021-05-30T18:15:14Z</time>
      </trkpt>
      <trkpt lat="-12.1435020" lon="-76.8186420">
        <ele>275.9</ele>
        <time>2021-05-30T18:15:15Z</time>
      </trkpt>
      <trkpt lat="-12.1435590" lon="-76.8186530">
        <ele>275.7</ele>
        <time>2021-05-30T18:15:16Z</time>
      </trkpt>
      <trkpt lat="-12.1436150" lon="-76.8186640">
        <ele>275.6</ele>
        <time>2021-05-30T18:15:17Z</time>
      </trkpt>
      <trkpt lat="-12.1437270" lon="-76.8186670">
        <ele>275.3</ele>
        <time>2021-05-30T18:15:19Z</time>
      </trkpt>
      <trkpt lat="-12.1438300" lon="-76.8186710">
        <ele>275.1</ele>
        <time>2021-05-30T18:15:21Z</time>
      </trkpt>
      <trkpt lat="-12.1438780" lon="-76.8186790">
        <ele>275.0</ele>
        <time>2021-05-30T18:15:22Z</time>
      </trkpt>
      <trkpt lat="-12.1439280" lon="-76.8186920">
        <ele>274.9</ele>
        <time>2021-05-30T18:15:23Z</time>
      </trkpt>
      <trkpt lat="-12.1439890" lon="-76.8187300">
        <ele>274.9</ele>
        <time>2021-05-30T18:15:25Z</time>
      </trkpt>
      <trkpt lat="-12.1440130" lon="-76.8187630">
        <ele>274.7</ele>
        <time>2021-05-30T18:15:26Z</time>
      </trkpt>
      <trkpt lat="-12.1440360" lon="-76.8188080">
        <ele>274.5</ele>
        <time>2021-05-30T18:15:27Z</time>
      </trkpt>
      <trkpt lat="-12.1440480" lon="-76.8189370">
        <ele>273.8</ele>
        <time>2021-05-30T18:15:29Z</time>
      </trkpt>
      <trkpt lat="-12.1440580" lon="-76.8190070">
        <ele>273.3</ele>
        <time>2021-05-30T18:15:30Z</time>
      </trkpt>
      <trkpt lat="-12.1440820" lon="-76.8191360">
        <ele>272.5</ele>
        <time>2021-05-30T18:15:32Z</time>
      </trkpt>
      <trkpt lat="-12.1441580" lon="-76.8192560">
        <ele>271.6</ele>
        <time>2021-05-30T18:15:34Z</time>
      </trkpt>
      <trkpt lat="-12.1441980" lon="-76.8193100">
        <ele>271.2</ele>
        <time>2021-05-30T18:15:35Z</time>
      </trkpt>
      <trkpt lat="-12.1442390" lon="-76.8193540">
        <ele>270.9</ele>
        <time>2021-05-30T18:15:36Z</time>
      </trkpt>
      <trkpt lat="-12.1442770" lon="-76.8193940">
        <ele>270.5</ele>
        <time>2021-05-30T18:15:37Z</time>
      </trkpt>
      <trkpt lat="-12.1443510" lon="-76.8194940">
        <ele>269.7</ele>
        <time>2021-05-30T18:15:39Z</time>
      </trkpt>
      <trkpt lat="-12.1443910" lon="-76.8195490">
        <ele>269.3</ele>
        <time>2021-05-30T18:15:40Z</time>
      </trkpt>
      <trkpt lat="-12.1444680" lon="-76.8196540">
        <ele>268.4</ele>
        <time>2021-05-30T18:15:42Z</time>
      </trkpt>
      <trkpt lat="-12.1445100" lon="-76.8197140">
        <ele>268.0</ele>
        <time>2021-05-30T18:15:43Z</time>
      </trkpt>
      <trkpt lat="-12.1445980" lon="-76.8198340">
        <ele>267.0</ele>
        <time>2021-05-30T18:15:45Z</time>
      </trkpt>
      <trkpt lat="-12.1446910" lon="-76.8199920">
        <ele>265.9</ele>
        <time>2021-05-30T18:15:47Z</time>
      </trkpt>
      <trkpt lat="-12.1447460" lon="-76.8200790">
        <ele>265.3</ele>
        <time>2021-05-30T18:15:48Z</time>
      </trkpt>
      <trkpt lat="-12.1448640" lon="-76.8202050">
        <ele>264.5</ele>
        <time>2021-05-30T18:15:50Z</time>
      </trkpt>
      <trkpt lat="-12.1449640" lon="-76.8203200">
        <ele>263.7</ele>
        <time>2021-05-30T18:15:52Z</time>
      </trkpt>
      <trkpt lat="-12.1450500" lon="-76.8204460">
        <ele>262.9</ele>
        <time>2021-05-30T18:15:54Z</time>
      </trkpt>
      <trkpt lat="-12.1450870" lon="-76.8205140">
        <ele>262.5</ele>
        <time>2021-05-30T18:15:55Z</time>
      </trkpt>
      <trkpt lat="-12.1451670" lon="-76.8206510">
        <ele>261.6</ele>
        <time>2021-05-30T18:15:57Z</time>
      </trkpt>
      <trkpt lat="-12.1452590" lon="-76.8207850">
        <ele>260.7</ele>
        <time>2021-05-30T18:15:59Z</time>
      </trkpt>
      <trkpt lat="-12.1453080" lon="-76.8208440">
        <ele>260.2</ele>
        <time>2021-05-30T18:16:00Z</time>
      </trkpt>
      <trkpt lat="-12.1453610" lon="-76.8209120">
        <ele>259.7</ele>
        <time>2021-05-30T18:16:01Z</time>
      </trkpt>
      <trkpt lat="-12.1454800" lon="-76.8210480">
        <ele>258.6</ele>
        <time>2021-05-30T18:16:03Z</time>
      </trkpt>
      <trkpt lat="-12.1455940" lon="-76.8211840">
        <ele>257.6</ele>
        <time>2021-05-30T18:16:05Z</time>
      </trkpt>
      <trkpt lat="-12.1456530" lon="-76.8212540">
        <ele>257.2</ele>
        <time>2021-05-30T18:16:06Z</time>
      </trkpt>
      <trkpt lat="-12.1457720" lon="-76.8213980">
        <ele>256.4</ele>
        <time>2021-05-30T18:16:08Z</time>
      </trkpt>
      <trkpt lat="-12.1458130" lon="-76.8214740">
        <ele>256.0</ele>
        <time>2021-05-30T18:16:09Z</time>
      </trkpt>
      <trkpt lat="-12.1459000" lon="-76.8216220">
        <ele>255.3</ele>
        <time>2021-05-30T18:16:11Z</time>
      </trkpt>
      <trkpt lat="-12.1459920" lon="-76.8217620">
        <ele>254.7</ele>
        <time>2021-05-30T18:16:13Z</time>
      </trkpt>
      <trkpt lat="-12.1460310" lon="-76.8218310">
        <ele>254.5</ele>
        <time>2021-05-30T18:16:14Z</time>
      </trkpt>
      <trkpt lat="-12.1461140" lon="-76.8219620">
        <ele>254.1</ele>
        <time>2021-05-30T18:16:16Z</time>
      </trkpt>
      <trkpt lat="-12.1462040" lon="-76.8220560">
        <ele>253.9</ele>
        <time>2021-05-30T18:16:18Z</time>
      </trkpt>
      <trkpt lat="-12.1462500" lon="-76.8220910">
        <ele>253.9</ele>
        <time>2021-05-30T18:16:19Z</time>
      </trkpt>
      <trkpt lat="-12.1462870" lon="-76.8221280">
        <ele>253.8</ele>
        <time>2021-05-30T18:16:20Z</time>
      </trkpt>
      <trkpt lat="-12.1463330" lon="-76.8222100">
        <ele>253.6</ele>
        <time>2021-05-30T18:16:22Z</time>
      </trkpt>
      <trkpt lat="-12.1463330" lon="-76.8222580">
        <ele>253.5</ele>
        <time>2021-05-30T18:16:24Z</time>
      </trkpt>
      <trkpt lat="-12.1463580" lon="-76.8222760">
        <ele>253.4</ele>
        <time>2021-05-30T18:16:26Z</time>
      </trkpt>
      <trkpt lat="-12.1463800" lon="-76.8222810">
        <ele>253.4</ele>
        <time>2021-05-30T18:16:28Z</time>
      </trkpt>
      <trkpt lat="-12.1463770" lon="-76.8222730">
        <ele>253.4</ele>
        <time>2021-05-30T18:16:29Z</time>
      </trkpt>
      <trkpt lat="-12.1463710" lon="-76.8222710">
        <ele>253.4</ele>
        <time>2021-05-30T18:16:31Z</time>
      </trkpt>
      <trkpt lat="-12.1463670" lon="-76.8222710">
        <ele>253.4</ele>
        <time>2021-05-30T18:16:32Z</time>
      </trkpt>
      <trkpt lat="-12.1463640" lon="-76.8222690">
        <ele>253.3</ele>
        <time>2021-05-30T18:16:33Z</time>
      </trkpt>
      <trkpt lat="-12.1463410" lon="-76.8222680">
        <ele>253.3</ele>
        <time>2021-05-30T18:16:35Z</time>
      </trkpt>
      <trkpt lat="-12.1463400" lon="-76.8222770">
        <ele>253.3</ele>
        <time>2021-05-30T18:16:36Z</time>
      </trkpt>
      <trkpt lat="-12.1463440" lon="-76.8222840">
        <ele>253.3</ele>
        <time>2021-05-30T18:16:38Z</time>
      </trkpt>
      <trkpt lat="-12.1463520" lon="-76.8222900">
        <ele>253.3</ele>
        <time>2021-05-30T18:16:40Z</time>
      </trkpt>
      <trkpt lat="-12.1463580" lon="-76.8222940">
        <ele>253.2</ele>
        <time>2021-05-30T18:16:42Z</time>
      </trkpt>
      <trkpt lat="-12.1463610" lon="-76.8222960">
        <ele>253.2</ele>
        <time>2021-05-30T18:16:43Z</time>
      </trkpt>
      <trkpt lat="-12.1463650" lon="-76.8222960">
        <ele>253.2</ele>
        <time>2021-05-30T18:16:45Z</time>
      </trkpt>
      <trkpt lat="-12.1463860" lon="-76.8223160">
        <ele>253.2</ele>
        <time>2021-05-30T18:17:21Z</time>
      </trkpt>
      <trkpt lat="-12.1463860" lon="-76.8223160">
        <ele>253.2</ele>
        <time>2021-05-30T18:17:23Z</time>
      </trkpt>
      <trkpt lat="-12.1463870" lon="-76.8223150">
        <ele>253.2</ele>
        <time>2021-05-30T18:17:25Z</time>
      </trkpt>
      <trkpt lat="-12.1463870" lon="-76.8223140">
        <ele>253.2</ele>
        <time>2021-05-30T18:17:27Z</time>
      </trkpt>
      <trkpt lat="-12.1463870" lon="-76.8223140">
        <ele>253.2</ele>
        <time>2021-05-30T18:17:29Z</time>
      </trkpt>
      <trkpt lat="-12.1463870" lon="-76.8223140">
        <ele>253.2</ele>
        <time>2021-05-30T18:17:30Z</time>
      </trkpt>
      <trkpt lat="-12.1463870" lon="-76.8223140">
        <ele>253.2</ele>
        <time>2021-05-30T18:17:31Z</time>
      </trkpt>
      <trkpt lat="-12.1463870" lon="-76.8223140">
        <ele>253.2</ele>
        <time>2021-05-30T18:17:33Z</time>
      </trkpt>
      <trkpt lat="-12.1463870" lon="-76.8223140">
        <ele>253.2</ele>
        <time>2021-05-30T18:17:34Z</time>
      </trkpt>
      <trkpt lat="-12.1463870" lon="-76.8223140">
        <ele>253.2</ele>
        <time>2021-05-30T18:17:35Z</time>
      </trkpt>
      <trkpt lat="-12.1463870" lon="-76.8223140">
        <ele>253.2</ele>
        <time>2021-05-30T18:17:37Z</time>
      </trkpt>
      <trkpt lat="-12.1463870" lon="-76.8223140">
        <ele>253.2</ele>
        <time>2021-05-30T18:17:38Z</time>
      </trkpt>
      <trkpt lat="-12.1463870" lon="-76.8223140">
        <ele>253.2</ele>
        <time>2021-05-30T18:17:39Z</time>
      </trkpt>
      <trkpt lat="-12.1463870" lon="-76.8223140">
        <ele>253.2</ele>
        <time>2021-05-30T18:17:40Z</time>
      </trkpt>
      <trkpt lat="-12.1463870" lon="-76.8223140">
        <ele>253.2</ele>
        <time>2021-05-30T18:17:41Z</time>
      </trkpt>
      <trkpt lat="-12.1463870" lon="-76.8223140">
        <ele>253.2</ele>
        <time>2021-05-30T18:17:43Z</time>
      </trkpt>
      <trkpt lat="-12.1463870" lon="-76.8223140">
        <ele>253.2</ele>
        <time>2021-05-30T18:17:44Z</time>
      </trkpt>
      <trkpt lat="-12.1463870" lon="-76.8223140">
        <ele>253.2</ele>
        <time>2021-05-30T18:17:45Z</time>
      </trkpt>
      <trkpt lat="-12.1463870" lon="-76.8223140">
        <ele>253.2</ele>
        <time>2021-05-30T18:17:46Z</time>
      </trkpt>
      <trkpt lat="-12.1463870" lon="-76.8223140">
        <ele>253.2</ele>
        <time>2021-05-30T18:17:48Z</time>
      </trkpt>
      <trkpt lat="-12.1463870" lon="-76.8223140">
        <ele>253.2</ele>
        <time>2021-05-30T18:17:50Z</time>
      </trkpt>
      <trkpt lat="-12.1463870" lon="-76.8223140">
        <ele>253.2</ele>
        <time>2021-05-30T18:17:52Z</time>
      </trkpt>
      <trkpt lat="-12.1463870" lon="-76.8223140">
        <ele>253.2</ele>
        <time>2021-05-30T18:17:53Z</time>
      </trkpt>
      <trkpt lat="-12.1463870" lon="-76.8223140">
        <ele>253.2</ele>
        <time>2021-05-30T18:17:54Z</time>
      </trkpt>
      <trkpt lat="-12.1463870" lon="-76.8223140">
        <ele>253.2</ele>
        <time>2021-05-30T18:17:56Z</time>
      </trkpt>
      <trkpt lat="-12.1463870" lon="-76.8223140">
        <ele>253.2</ele>
        <time>2021-05-30T18:17:57Z</time>
      </trkpt>
      <trkpt lat="-12.1463870" lon="-76.8223140">
        <ele>253.2</ele>
        <time>2021-05-30T18:17:59Z</time>
      </trkpt>
      <trkpt lat="-12.1463870" lon="-76.8223140">
        <ele>253.2</ele>
        <time>2021-05-30T18:18:01Z</time>
      </trkpt>
      <trkpt lat="-12.1463870" lon="-76.8223140">
        <ele>253.2</ele>
        <time>2021-05-30T18:18:02Z</time>
      </trkpt>
      <trkpt lat="-12.1463870" lon="-76.8223140">
        <ele>253.2</ele>
        <time>2021-05-30T18:18:04Z</time>
      </trkpt>
      <trkpt lat="-12.1463870" lon="-76.8223140">
        <ele>253.2</ele>
        <time>2021-05-30T18:18:06Z</time>
      </trkpt>
      <trkpt lat="-12.1463870" lon="-76.8223140">
        <ele>253.2</ele>
        <time>2021-05-30T18:18:08Z</time>
      </trkpt>
      <trkpt lat="-12.1463870" lon="-76.8223140">
        <ele>253.2</ele>
        <time>2021-05-30T18:18:09Z</time>
      </trkpt>
      <trkpt lat="-12.1463870" lon="-76.8223140">
        <ele>253.2</ele>
        <time>2021-05-30T18:18:11Z</time>
      </trkpt>
      <trkpt lat="-12.1463870" lon="-76.8223140">
        <ele>253.2</ele>
        <time>2021-05-30T18:18:12Z</time>
      </trkpt>
      <trkpt lat="-12.1463870" lon="-76.8223140">
        <ele>253.2</ele>
        <time>2021-05-30T18:18:13Z</time>
      </trkpt>
      <trkpt lat="-12.1463880" lon="-76.8223150">
        <ele>253.2</ele>
        <time>2021-05-30T18:18:14Z</time>
      </trkpt>
      <trkpt lat="-12.1463880" lon="-76.8223150">
        <ele>253.2</ele>
        <time>2021-05-30T18:18:15Z</time>
      </trkpt>
      <trkpt lat="-12.1463890" lon="-76.8223150">
        <ele>253.2</ele>
        <time>2021-05-30T18:18:17Z</time>
      </trkpt>
      <trkpt lat="-12.1463920" lon="-76.8223260">
        <ele>253.2</ele>
        <time>2021-05-30T18:18:18Z</time>
      </trkpt>
      <trkpt lat="-12.1464000" lon="-76.8223680">
        <ele>252.9</ele>
        <time>2021-05-30T18:18:20Z</time>
      </trkpt>
      <trkpt lat="-12.1464260" lon="-76.8224120">
        <ele>252.7</ele>
        <time>2021-05-30T18:18:22Z</time>
      </trkpt>
      <trkpt lat="-12.1464450" lon="-76.8224490">
        <ele>252.5</ele>
        <time>2021-05-30T18:18:23Z</time>
      </trkpt>
      <trkpt lat="-12.1464860" lon="-76.8225250">
        <ele>252.2</ele>
        <time>2021-05-30T18:18:24Z</time>
      </trkpt>
      <trkpt lat="-12.1465860" lon="-76.8226770">
        <ele>251.6</ele>
        <time>2021-05-30T18:18:26Z</time>
      </trkpt>
      <trkpt lat="-12.1466760" lon="-76.8228160">
        <ele>251.0</ele>
        <time>2021-05-30T18:18:28Z</time>
      </trkpt>
      <trkpt lat="-12.1466980" lon="-76.8228370">
        <ele>250.9</ele>
        <time>2021-05-30T18:18:29Z</time>
      </trkpt>
      <trkpt lat="-12.1466870" lon="-76.8227750">
        <ele>250.7</ele>
        <time>2021-05-30T18:18:31Z</time>
      </trkpt>
      <trkpt lat="-12.1466910" lon="-76.8228270">
        <ele>250.5</ele>
        <time>2021-05-30T18:18:32Z</time>
      </trkpt>
      <trkpt lat="-12.1467410" lon="-76.8228900">
        <ele>250.2</ele>
        <time>2021-05-30T18:18:34Z</time>
      </trkpt>
      <trkpt lat="-12.1468170" lon="-76.8229970">
        <ele>249.7</ele>
        <time>2021-05-30T18:18:36Z</time>
      </trkpt>
      <trkpt lat="-12.1468520" lon="-76.8230040">
        <ele>249.6</ele>
        <time>2021-05-30T18:18:37Z</time>
      </trkpt>
      <trkpt lat="-12.1469010" lon="-76.8230810">
        <ele>249.2</ele>
        <time>2021-05-30T18:18:39Z</time>
      </trkpt>
      <trkpt lat="-12.1469730" lon="-76.8232140">
        <ele>248.7</ele>
        <time>2021-05-30T18:18:40Z</time>
      </trkpt>
      <trkpt lat="-12.1469270" lon="-76.8231680">
        <ele>248.4</ele>
        <time>2021-05-30T18:18:41Z</time>
      </trkpt>
      <trkpt lat="-12.1469860" lon="-76.8232970">
        <ele>247.9</ele>
        <time>2021-05-30T18:18:43Z</time>
      </trkpt>
      <trkpt lat="-12.1471060" lon="-76.8234930">
        <ele>247.2</ele>
        <time>2021-05-30T18:18:45Z</time>
      </trkpt>
      <trkpt lat="-12.1471930" lon="-76.8236640">
        <ele>246.5</ele>
        <time>2021-05-30T18:18:47Z</time>
      </trkpt>
      <trkpt lat="-12.1472250" lon="-76.8237410">
        <ele>246.1</ele>
        <time>2021-05-30T18:18:48Z</time>
      </trkpt>
      <trkpt lat="-12.1472150" lon="-76.8237760">
        <ele>246.0</ele>
        <time>2021-05-30T18:18:50Z</time>
      </trkpt>
      <trkpt lat="-12.1472130" lon="-76.8238060">
        <ele>245.8</ele>
        <time>2021-05-30T18:18:51Z</time>
      </trkpt>
      <trkpt lat="-12.1472490" lon="-76.8238810">
        <ele>245.5</ele>
        <time>2021-05-30T18:18:52Z</time>
      </trkpt>
      <trkpt lat="-12.1472890" lon="-76.8239410">
        <ele>245.2</ele>
        <time>2021-05-30T18:18:53Z</time>
      </trkpt>
      <trkpt lat="-12.1473830" lon="-76.8240640">
        <ele>244.7</ele>
        <time>2021-05-30T18:18:55Z</time>
      </trkpt>
      <trkpt lat="-12.1474260" lon="-76.8241230">
        <ele>244.4</ele>
        <time>2021-05-30T18:18:56Z</time>
      </trkpt>
      <trkpt lat="-12.1474490" lon="-76.8241550">
        <ele>244.3</ele>
        <time>2021-05-30T18:18:57Z</time>
      </trkpt>
      <trkpt lat="-12.1474560" lon="-76.8241790">
        <ele>244.2</ele>
        <time>2021-05-30T18:18:58Z</time>
      </trkpt>
      <trkpt lat="-12.1474660" lon="-76.8241940">
        <ele>244.1</ele>
        <time>2021-05-30T18:18:59Z</time>
      </trkpt>
      <trkpt lat="-12.1475170" lon="-76.8242260">
        <ele>243.9</ele>
        <time>2021-05-30T18:19:00Z</time>
      </trkpt>
      <trkpt lat="-12.1475770" lon="-76.8242720">
        <ele>243.6</ele>
        <time>2021-05-30T18:19:02Z</time>
      </trkpt>
      <trkpt lat="-12.1476140" lon="-76.8243110">
        <ele>243.4</ele>
        <time>2021-05-30T18:19:03Z</time>
      </trkpt>
      <trkpt lat="-12.1476440" lon="-76.8243490">
        <ele>243.2</ele>
        <time>2021-05-30T18:19:04Z</time>
      </trkpt>
      <trkpt lat="-12.1476770" lon="-76.8244020">
        <ele>242.9</ele>
        <time>2021-05-30T18:19:05Z</time>
      </trkpt>
      <trkpt lat="-12.1476980" lon="-76.8244510">
        <ele>242.7</ele>
        <time>2021-05-30T18:19:07Z</time>
      </trkpt>
      <trkpt lat="-12.1477200" lon="-76.8244830">
        <ele>242.5</ele>
        <time>2021-05-30T18:19:08Z</time>
      </trkpt>
      <trkpt lat="-12.1477500" lon="-76.8245260">
        <ele>242.3</ele>
        <time>2021-05-30T18:19:09Z</time>
      </trkpt>
      <trkpt lat="-12.1477820" lon="-76.8245760">
        <ele>242.0</ele>
        <time>2021-05-30T18:19:11Z</time>
      </trkpt>
      <trkpt lat="-12.1478230" lon="-76.8246470">
        <ele>241.6</ele>
        <time>2021-05-30T18:19:13Z</time>
      </trkpt>
      <trkpt lat="-12.1478530" lon="-76.8246990">
        <ele>241.3</ele>
        <time>2021-05-30T18:19:14Z</time>
      </trkpt>
      <trkpt lat="-12.1478720" lon="-76.8247400">
        <ele>241.0</ele>
        <time>2021-05-30T18:19:15Z</time>
      </trkpt>
      <trkpt lat="-12.1478980" lon="-76.8247980">
        <ele>240.7</ele>
        <time>2021-05-30T18:19:17Z</time>
      </trkpt>
      <trkpt lat="-12.1479190" lon="-76.8248400">
        <ele>240.4</ele>
        <time>2021-05-30T18:19:18Z</time>
      </trkpt>
      <trkpt lat="-12.1479440" lon="-76.8248880">
        <ele>240.2</ele>
        <time>2021-05-30T18:19:19Z</time>
      </trkpt>
      <trkpt lat="-12.1479700" lon="-76.8249390">
        <ele>239.9</ele>
        <time>2021-05-30T18:19:20Z</time>
      </trkpt>
      <trkpt lat="-12.1479970" lon="-76.8249980">
        <ele>239.6</ele>
        <time>2021-05-30T18:19:22Z</time>
      </trkpt>
      <trkpt lat="-12.1480110" lon="-76.8250360">
        <ele>239.4</ele>
        <time>2021-05-30T18:19:23Z</time>
      </trkpt>
      <trkpt lat="-12.1480290" lon="-76.8250730">
        <ele>239.3</ele>
        <time>2021-05-30T18:19:24Z</time>
      </trkpt>
      <trkpt lat="-12.1480470" lon="-76.8251140">
        <ele>239.1</ele>
        <time>2021-05-30T18:19:25Z</time>
      </trkpt>
      <trkpt lat="-12.1480700" lon="-76.8251640">
        <ele>238.9</ele>
        <time>2021-05-30T18:19:27Z</time>
      </trkpt>
      <trkpt lat="-12.1480960" lon="-76.8252320">
        <ele>238.5</ele>
        <time>2021-05-30T18:19:28Z</time>
      </trkpt>
      <trkpt lat="-12.1481210" lon="-76.8252720">
        <ele>238.3</ele>
        <time>2021-05-30T18:19:29Z</time>
      </trkpt>
      <trkpt lat="-12.1481400" lon="-76.8253040">
        <ele>238.2</ele>
        <time>2021-05-30T18:19:30Z</time>
      </trkpt>
      <trkpt lat="-12.1481690" lon="-76.8253580">
        <ele>237.9</ele>
        <time>2021-05-30T18:19:32Z</time>
      </trkpt>
      <trkpt lat="-12.1482030" lon="-76.8254280">
        <ele>237.6</ele>
        <time>2021-05-30T18:19:33Z</time>
      </trkpt>
      <trkpt lat="-12.1482680" lon="-76.8255420">
        <ele>236.9</ele>
        <time>2021-05-30T18:19:35Z</time>
      </trkpt>
      <trkpt lat="-12.1482900" lon="-76.8255850">
        <ele>236.7</ele>
        <time>2021-05-30T18:19:36Z</time>
      </trkpt>
      <trkpt lat="-12.1483200" lon="-76.8256320">
        <ele>236.5</ele>
        <time>2021-05-30T18:19:37Z</time>
      </trkpt>
      <trkpt lat="-12.1483590" lon="-76.8256990">
        <ele>236.2</ele>
        <time>2021-05-30T18:19:38Z</time>
      </trkpt>
      <trkpt lat="-12.1483570" lon="-76.8257400">
        <ele>236.0</ele>
        <time>2021-05-30T18:19:40Z</time>
      </trkpt>
      <trkpt lat="-12.1484160" lon="-76.8258390">
        <ele>235.5</ele>
        <time>2021-05-30T18:19:42Z</time>
      </trkpt>
      <trkpt lat="-12.1484410" lon="-76.8258270">
        <ele>235.4</ele>
        <time>2021-05-30T18:19:44Z</time>
      </trkpt>
      <trkpt lat="-12.1484590" lon="-76.8258590">
        <ele>235.3</ele>
        <time>2021-05-30T18:19:45Z</time>
      </trkpt>
      <trkpt lat="-12.1484920" lon="-76.8259080">
        <ele>235.1</ele>
        <time>2021-05-30T18:19:47Z</time>
      </trkpt>
      <trkpt lat="-12.1485200" lon="-76.8259420">
        <ele>234.9</ele>
        <time>2021-05-30T18:19:48Z</time>
      </trkpt>
      <trkpt lat="-12.1485380" lon="-76.8259690">
        <ele>234.8</ele>
        <time>2021-05-30T18:19:49Z</time>
      </trkpt>
      <trkpt lat="-12.1485590" lon="-76.8260000">
        <ele>234.7</ele>
        <time>2021-05-30T18:19:51Z</time>
      </trkpt>
      <trkpt lat="-12.1485750" lon="-76.8260320">
        <ele>234.5</ele>
        <time>2021-05-30T18:19:52Z</time>
      </trkpt>
      <trkpt lat="-12.1486090" lon="-76.8261030">
        <ele>234.3</ele>
        <time>2021-05-30T18:19:54Z</time>
      </trkpt>
      <trkpt lat="-12.1486260" lon="-76.8261440">
        <ele>234.1</ele>
        <time>2021-05-30T18:19:55Z</time>
      </trkpt>
      <trkpt lat="-12.1486470" lon="-76.8261890">
        <ele>233.9</ele>
        <time>2021-05-30T18:19:56Z</time>
      </trkpt>
      <trkpt lat="-12.1486750" lon="-76.8262480">
        <ele>233.5</ele>
        <time>2021-05-30T18:19:57Z</time>
      </trkpt>
      <trkpt lat="-12.1487080" lon="-76.8263030">
        <ele>233.2</ele>
        <time>2021-05-30T18:19:59Z</time>
      </trkpt>
      <trkpt lat="-12.1487490" lon="-76.8263640">
        <ele>232.8</ele>
        <time>2021-05-30T18:20:00Z</time>
      </trkpt>
      <trkpt lat="-12.1487710" lon="-76.8264080">
        <ele>232.5</ele>
        <time>2021-05-30T18:20:01Z</time>
      </trkpt>
      <trkpt lat="-12.1488270" lon="-76.8264960">
        <ele>232.0</ele>
        <time>2021-05-30T18:20:03Z</time>
      </trkpt>
      <trkpt lat="-12.1488600" lon="-76.8265390">
        <ele>231.7</ele>
        <time>2021-05-30T18:20:04Z</time>
      </trkpt>
      <trkpt lat="-12.1489220" lon="-76.8266270">
        <ele>231.2</ele>
        <time>2021-05-30T18:20:06Z</time>
      </trkpt>
      <trkpt lat="-12.1489760" lon="-76.8267380">
        <ele>230.6</ele>
        <time>2021-05-30T18:20:08Z</time>
      </trkpt>
      <trkpt lat="-12.1490020" lon="-76.8267870">
        <ele>230.3</ele>
        <time>2021-05-30T18:20:09Z</time>
      </trkpt>
      <trkpt lat="-12.1490280" lon="-76.8268350">
        <ele>230.1</ele>
        <time>2021-05-30T18:20:10Z</time>
      </trkpt>
      <trkpt lat="-12.1490810" lon="-76.8269390">
        <ele>229.6</ele>
        <time>2021-05-30T18:20:12Z</time>
      </trkpt>
      <trkpt lat="-12.1491060" lon="-76.8269880">
        <ele>229.3</ele>
        <time>2021-05-30T18:20:13Z</time>
      </trkpt>
      <trkpt lat="-12.1491460" lon="-76.8270340">
        <ele>229.1</ele>
        <time>2021-05-30T18:20:14Z</time>
      </trkpt>
      <trkpt lat="-12.1492200" lon="-76.8271320">
        <ele>228.6</ele>
        <time>2021-05-30T18:20:16Z</time>
      </trkpt>
      <trkpt lat="-12.1492850" lon="-76.8272410">
        <ele>228.1</ele>
        <time>2021-05-30T18:20:18Z</time>
      </trkpt>
      <trkpt lat="-12.1493170" lon="-76.8272980">
        <ele>227.8</ele>
        <time>2021-05-30T18:20:19Z</time>
      </trkpt>
      <trkpt lat="-12.1493830" lon="-76.8273920">
        <ele>227.4</ele>
        <time>2021-05-30T18:20:21Z</time>
      </trkpt>
      <trkpt lat="-12.1494440" lon="-76.8274830">
        <ele>227.0</ele>
        <time>2021-05-30T18:20:23Z</time>
      </trkpt>
      <trkpt lat="-12.1494800" lon="-76.8275310">
        <ele>226.8</ele>
        <time>2021-05-30T18:20:24Z</time>
      </trkpt>
      <trkpt lat="-12.1495100" lon="-76.8275780">
        <ele>226.6</ele>
        <time>2021-05-30T18:20:25Z</time>
      </trkpt>
      <trkpt lat="-12.1495330" lon="-76.8276270">
        <ele>226.4</ele>
        <time>2021-05-30T18:20:26Z</time>
      </trkpt>
      <trkpt lat="-12.1495570" lon="-76.8276730">
        <ele>226.2</ele>
        <time>2021-05-30T18:20:27Z</time>
      </trkpt>
      <trkpt lat="-12.1496050" lon="-76.8277520">
        <ele>225.9</ele>
        <time>2021-05-30T18:20:29Z</time>
      </trkpt>
      <trkpt lat="-12.1496630" lon="-76.8278230">
        <ele>225.6</ele>
        <time>2021-05-30T18:20:31Z</time>
      </trkpt>
      <trkpt lat="-12.1496900" lon="-76.8278660">
        <ele>225.4</ele>
        <time>2021-05-30T18:20:32Z</time>
      </trkpt>
      <trkpt lat="-12.1497110" lon="-76.8279120">
        <ele>225.2</ele>
        <time>2021-05-30T18:20:33Z</time>
      </trkpt>
      <trkpt lat="-12.1497620" lon="-76.8279920">
        <ele>225.0</ele>
        <time>2021-05-30T18:20:35Z</time>
      </trkpt>
      <trkpt lat="-12.1497850" lon="-76.8280310">
        <ele>224.9</ele>
        <time>2021-05-30T18:20:36Z</time>
      </trkpt>
      <trkpt lat="-12.1498420" lon="-76.8281110">
        <ele>224.7</ele>
        <time>2021-05-30T18:20:38Z</time>
      </trkpt>
      <trkpt lat="-12.1498910" lon="-76.8281960">
        <ele>224.6</ele>
        <time>2021-05-30T18:20:40Z</time>
      </trkpt>
      <trkpt lat="-12.1499030" lon="-76.8282300">
        <ele>224.5</ele>
        <time>2021-05-30T18:20:41Z</time>
      </trkpt>
      <trkpt lat="-12.1499200" lon="-76.8282580">
        <ele>224.5</ele>
        <time>2021-05-30T18:20:42Z</time>
      </trkpt>
      <trkpt lat="-12.1499590" lon="-76.8283180">
        <ele>224.5</ele>
        <time>2021-05-30T18:20:44Z</time>
      </trkpt>
      <trkpt lat="-12.1499830" lon="-76.8283430">
        <ele>224.5</ele>
        <time>2021-05-30T18:20:45Z</time>
      </trkpt>
      <trkpt lat="-12.1499880" lon="-76.8283510">
        <ele>224.5</ele>
        <time>2021-05-30T18:20:46Z</time>
      </trkpt>
      <trkpt lat="-12.1499940" lon="-76.8283720">
        <ele>224.5</ele>
        <time>2021-05-30T18:20:47Z</time>
      </trkpt>
      <trkpt lat="-12.1499960" lon="-76.8283860">
        <ele>224.5</ele>
        <time>2021-05-30T18:20:49Z</time>
      </trkpt>
      <trkpt lat="-12.1499990" lon="-76.8284010">
        <ele>224.5</ele>
        <time>2021-05-30T18:20:50Z</time>
      </trkpt>
      <trkpt lat="-12.1500010" lon="-76.8284160">
        <ele>224.4</ele>
        <time>2021-05-30T18:20:51Z</time>
      </trkpt>
      <trkpt lat="-12.1499970" lon="-76.8284330">
        <ele>224.4</ele>
        <time>2021-05-30T18:20:53Z</time>
      </trkpt>
      <trkpt lat="-12.1499870" lon="-76.8284640">
        <ele>224.4</ele>
        <time>2021-05-30T18:20:55Z</time>
      </trkpt>
      <trkpt lat="-12.1499660" lon="-76.8284900">
        <ele>224.3</ele>
        <time>2021-05-30T18:20:56Z</time>
      </trkpt>
      <trkpt lat="-12.1499330" lon="-76.8285160">
        <ele>224.2</ele>
        <time>2021-05-30T18:20:58Z</time>
      </trkpt>
      <trkpt lat="-12.1498980" lon="-76.8285350">
        <ele>224.1</ele>
        <time>2021-05-30T18:20:59Z</time>
      </trkpt>
      <trkpt lat="-12.1498420" lon="-76.8285600">
        <ele>224.0</ele>
        <time>2021-05-30T18:21:00Z</time>
      </trkpt>
      <trkpt lat="-12.1497890" lon="-76.8285810">
        <ele>224.0</ele>
        <time>2021-05-30T18:21:02Z</time>
      </trkpt>
      <trkpt lat="-12.1497400" lon="-76.8285970">
        <ele>223.9</ele>
        <time>2021-05-30T18:21:03Z</time>
      </trkpt>
      <trkpt lat="-12.1496760" lon="-76.8286240">
        <ele>223.9</ele>
        <time>2021-05-30T18:21:04Z</time>
      </trkpt>
      <trkpt lat="-12.1496240" lon="-76.8286460">
        <ele>223.8</ele>
        <time>2021-05-30T18:21:05Z</time>
      </trkpt>
      <trkpt lat="-12.1495560" lon="-76.8286790">
        <ele>223.8</ele>
        <time>2021-05-30T18:21:07Z</time>
      </trkpt>
      <trkpt lat="-12.1494990" lon="-76.8287130">
        <ele>223.7</ele>
        <time>2021-05-30T18:21:09Z</time>
      </trkpt>
      <trkpt lat="-12.1494440" lon="-76.8287340">
        <ele>223.7</ele>
        <time>2021-05-30T18:21:10Z</time>
      </trkpt>
      <trkpt lat="-12.1494060" lon="-76.8287470">
        <ele>223.6</ele>
        <time>2021-05-30T18:21:11Z</time>
      </trkpt>
      <trkpt lat="-12.1493470" lon="-76.8287690">
        <ele>223.6</ele>
        <time>2021-05-30T18:21:13Z</time>
      </trkpt>
      <trkpt lat="-12.1493070" lon="-76.8287870">
        <ele>223.7</ele>
        <time>2021-05-30T18:21:14Z</time>
      </trkpt>
      <trkpt lat="-12.1492630" lon="-76.8288110">
        <ele>223.7</ele>
        <time>2021-05-30T18:21:15Z</time>
      </trkpt>
      <trkpt lat="-12.1492270" lon="-76.8288360">
        <ele>223.7</ele>
        <time>2021-05-30T18:21:16Z</time>
      </trkpt>
      <trkpt lat="-12.1491790" lon="-76.8288720">
        <ele>223.7</ele>
        <time>2021-05-30T18:21:18Z</time>
      </trkpt>
      <trkpt lat="-12.1491350" lon="-76.8289030">
        <ele>223.7</ele>
        <time>2021-05-30T18:21:19Z</time>
      </trkpt>
      <trkpt lat="-12.1490990" lon="-76.8289280">
        <ele>223.8</ele>
        <time>2021-05-30T18:21:21Z</time>
      </trkpt>
      <trkpt lat="-12.1490710" lon="-76.8289480">
        <ele>223.8</ele>
        <time>2021-05-30T18:21:22Z</time>
      </trkpt>
      <trkpt lat="-12.1490280" lon="-76.8289790">
        <ele>223.8</ele>
        <time>2021-05-30T18:21:23Z</time>
      </trkpt>
      <trkpt lat="-12.1489880" lon="-76.8290070">
        <ele>223.7</ele>
        <time>2021-05-30T18:21:25Z</time>
      </trkpt>
      <trkpt lat="-12.1489470" lon="-76.8290410">
        <ele>223.7</ele>
        <time>2021-05-30T18:21:26Z</time>
      </trkpt>
      <trkpt lat="-12.1489060" lon="-76.8290670">
        <ele>223.6</ele>
        <time>2021-05-30T18:21:28Z</time>
      </trkpt>
      <trkpt lat="-12.1488700" lon="-76.8290920">
        <ele>223.6</ele>
        <time>2021-05-30T18:21:29Z</time>
      </trkpt>
      <trkpt lat="-12.1488360" lon="-76.8291150">
        <ele>223.5</ele>
        <time>2021-05-30T18:21:30Z</time>
      </trkpt>
      <trkpt lat="-12.1487890" lon="-76.8291430">
        <ele>223.5</ele>
        <time>2021-05-30T18:21:31Z</time>
      </trkpt>
      <trkpt lat="-12.1487370" lon="-76.8291740">
        <ele>223.4</ele>
        <time>2021-05-30T18:21:33Z</time>
      </trkpt>
      <trkpt lat="-12.1487040" lon="-76.8291950">
        <ele>223.4</ele>
        <time>2021-05-30T18:21:34Z</time>
      </trkpt>
      <trkpt lat="-12.1486730" lon="-76.8292180">
        <ele>223.4</ele>
        <time>2021-05-30T18:21:35Z</time>
      </trkpt>
      <trkpt lat="-12.1486180" lon="-76.8292600">
        <ele>223.3</ele>
        <time>2021-05-30T18:21:37Z</time>
      </trkpt>
      <trkpt lat="-12.1485890" lon="-76.8292800">
        <ele>223.3</ele>
        <time>2021-05-30T18:21:38Z</time>
      </trkpt>
      <trkpt lat="-12.1485500" lon="-76.8293070">
        <ele>223.2</ele>
        <time>2021-05-30T18:21:39Z</time>
      </trkpt>
      <trkpt lat="-12.1485210" lon="-76.8293250">
        <ele>223.2</ele>
        <time>2021-05-30T18:21:41Z</time>
      </trkpt>
      <trkpt lat="-12.1484860" lon="-76.8293440">
        <ele>223.1</ele>
        <time>2021-05-30T18:21:42Z</time>
      </trkpt>
      <trkpt lat="-12.1484520" lon="-76.8293620">
        <ele>223.1</ele>
        <time>2021-05-30T18:21:43Z</time>
      </trkpt>
      <trkpt lat="-12.1484070" lon="-76.8293880">
        <ele>223.0</ele>
        <time>2021-05-30T18:21:45Z</time>
      </trkpt>
      <trkpt lat="-12.1483890" lon="-76.8293960">
        <ele>223.0</ele>
        <time>2021-05-30T18:21:46Z</time>
      </trkpt>
      <trkpt lat="-12.1483710" lon="-76.8294050">
        <ele>222.9</ele>
        <time>2021-05-30T18:21:47Z</time>
      </trkpt>
      <trkpt lat="-12.1483300" lon="-76.8294230">
        <ele>222.8</ele>
        <time>2021-05-30T18:21:48Z</time>
      </trkpt>
      <trkpt lat="-12.1482880" lon="-76.8294420">
        <ele>222.7</ele>
        <time>2021-05-30T18:21:49Z</time>
      </trkpt>
      <trkpt lat="-12.1482500" lon="-76.8294630">
        <ele>222.6</ele>
        <time>2021-05-30T18:21:50Z</time>
      </trkpt>
      <trkpt lat="-12.1482070" lon="-76.8294880">
        <ele>222.5</ele>
        <time>2021-05-30T18:21:52Z</time>
      </trkpt>
      <trkpt lat="-12.1481650" lon="-76.8295250">
        <ele>222.3</ele>
        <time>2021-05-30T18:21:53Z</time>
      </trkpt>
      <trkpt lat="-12.1481310" lon="-76.8295540">
        <ele>222.1</ele>
        <time>2021-05-30T18:21:55Z</time>
      </trkpt>
      <trkpt lat="-12.1481130" lon="-76.8295770">
        <ele>222.0</ele>
        <time>2021-05-30T18:21:56Z</time>
      </trkpt>
      <trkpt lat="-12.1480960" lon="-76.8296110">
        <ele>221.9</ele>
        <time>2021-05-30T18:21:57Z</time>
      </trkpt>
      <trkpt lat="-12.1480940" lon="-76.8296340">
        <ele>221.8</ele>
        <time>2021-05-30T18:21:58Z</time>
      </trkpt>
      <trkpt lat="-12.1481010" lon="-76.8296730">
        <ele>221.6</ele>
        <time>2021-05-30T18:22:00Z</time>
      </trkpt>
      <trkpt lat="-12.1481220" lon="-76.8297270">
        <ele>221.4</ele>
        <time>2021-05-30T18:22:01Z</time>
      </trkpt>
      <trkpt lat="-12.1481430" lon="-76.8297780">
        <ele>221.2</ele>
        <time>2021-05-30T18:22:03Z</time>
      </trkpt>
      <trkpt lat="-12.1481730" lon="-76.8298270">
        <ele>220.9</ele>
        <time>2021-05-30T18:22:04Z</time>
      </trkpt>
      <trkpt lat="-12.1482080" lon="-76.8298830">
        <ele>220.7</ele>
        <time>2021-05-30T18:22:05Z</time>
      </trkpt>
      <trkpt lat="-12.1482840" lon="-76.8299890">
        <ele>220.2</ele>
        <time>2021-05-30T18:22:07Z</time>
      </trkpt>
      <trkpt lat="-12.1483420" lon="-76.8300660">
        <ele>219.8</ele>
        <time>2021-05-30T18:22:08Z</time>
      </trkpt>
      <trkpt lat="-12.1483920" lon="-76.8301470">
        <ele>219.5</ele>
        <time>2021-05-30T18:22:10Z</time>
      </trkpt>
      <trkpt lat="-12.1484390" lon="-76.8302620">
        <ele>219.1</ele>
        <time>2021-05-30T18:22:12Z</time>
      </trkpt>
      <trkpt lat="-12.1484700" lon="-76.8303820">
        <ele>218.6</ele>
        <time>2021-05-30T18:22:14Z</time>
      </trkpt>
      <trkpt lat="-12.1484900" lon="-76.8304350">
        <ele>218.3</ele>
        <time>2021-05-30T18:22:15Z</time>
      </trkpt>
      <trkpt lat="-12.1485080" lon="-76.8304780">
        <ele>218.0</ele>
        <time>2021-05-30T18:22:16Z</time>
      </trkpt>
      <trkpt lat="-12.1485610" lon="-76.8305620">
        <ele>217.2</ele>
        <time>2021-05-30T18:22:18Z</time>
      </trkpt>
      <trkpt lat="-12.1486410" lon="-76.8306370">
        <ele>216.2</ele>
        <time>2021-05-30T18:22:20Z</time>
      </trkpt>
      <trkpt lat="-12.1486840" lon="-76.8306820">
        <ele>215.6</ele>
        <time>2021-05-30T18:22:21Z</time>
      </trkpt>
      <trkpt lat="-12.1487280" lon="-76.8307290">
        <ele>214.9</ele>
        <time>2021-05-30T18:22:22Z</time>
      </trkpt>
      <trkpt lat="-12.1487930" lon="-76.8308010">
        <ele>213.9</ele>
        <time>2021-05-30T18:22:24Z</time>
      </trkpt>
      <trkpt lat="-12.1488460" lon="-76.8308880">
        <ele>212.9</ele>
        <time>2021-05-30T18:22:26Z</time>
      </trkpt>
      <trkpt lat="-12.1488760" lon="-76.8309480">
        <ele>212.3</ele>
        <time>2021-05-30T18:22:27Z</time>
      </trkpt>
      <trkpt lat="-12.1489370" lon="-76.8310630">
        <ele>211.3</ele>
        <time>2021-05-30T18:22:29Z</time>
      </trkpt>
      <trkpt lat="-12.1489740" lon="-76.8311190">
        <ele>211.0</ele>
        <time>2021-05-30T18:22:30Z</time>
      </trkpt>
      <trkpt lat="-12.1490130" lon="-76.8311750">
        <ele>210.7</ele>
        <time>2021-05-30T18:22:31Z</time>
      </trkpt>
      <trkpt lat="-12.1490460" lon="-76.8312310">
        <ele>210.6</ele>
        <time>2021-05-30T18:22:32Z</time>
      </trkpt>
      <trkpt lat="-12.1490720" lon="-76.8312840">
        <ele>210.5</ele>
        <time>2021-05-30T18:22:33Z</time>
      </trkpt>
      <trkpt lat="-12.1490890" lon="-76.8313570">
        <ele>210.4</ele>
        <time>2021-05-30T18:22:35Z</time>
      </trkpt>
      <trkpt lat="-12.1490780" lon="-76.8314180">
        <ele>210.3</ele>
        <time>2021-05-30T18:22:37Z</time>
      </trkpt>
      <trkpt lat="-12.1490520" lon="-76.8314420">
        <ele>210.3</ele>
        <time>2021-05-30T18:22:38Z</time>
      </trkpt>
      <trkpt lat="-12.1489900" lon="-76.8314800">
        <ele>210.2</ele>
        <time>2021-05-30T18:22:40Z</time>
      </trkpt>
      <trkpt lat="-12.1489560" lon="-76.8315010">
        <ele>210.2</ele>
        <time>2021-05-30T18:22:41Z</time>
      </trkpt>
      <trkpt lat="-12.1489260" lon="-76.8314910">
        <ele>210.2</ele>
        <time>2021-05-30T18:22:43Z</time>
      </trkpt>
      <trkpt lat="-12.1488960" lon="-76.8315030">
        <ele>210.1</ele>
        <time>2021-05-30T18:22:44Z</time>
      </trkpt>
      <trkpt lat="-12.1488560" lon="-76.8315240">
        <ele>210.1</ele>
        <time>2021-05-30T18:22:45Z</time>
      </trkpt>
      <trkpt lat="-12.1488190" lon="-76.8315440">
        <ele>210.1</ele>
        <time>2021-05-30T18:22:46Z</time>
      </trkpt>
      <trkpt lat="-12.1487870" lon="-76.8315610">
        <ele>210.1</ele>
        <time>2021-05-30T18:22:47Z</time>
      </trkpt>
      <trkpt lat="-12.1487500" lon="-76.8315810">
        <ele>210.1</ele>
        <time>2021-05-30T18:22:49Z</time>
      </trkpt>
      <trkpt lat="-12.1486970" lon="-76.8316160">
        <ele>210.0</ele>
        <time>2021-05-30T18:22:51Z</time>
      </trkpt>
      <trkpt lat="-12.1486650" lon="-76.8316320">
        <ele>210.0</ele>
        <time>2021-05-30T18:22:52Z</time>
      </trkpt>
      <trkpt lat="-12.1486270" lon="-76.8316500">
        <ele>210.0</ele>
        <time>2021-05-30T18:22:53Z</time>
      </trkpt>
      <trkpt lat="-12.1485960" lon="-76.8316650">
        <ele>210.1</ele>
        <time>2021-05-30T18:22:54Z</time>
      </trkpt>
      <trkpt lat="-12.1485630" lon="-76.8316830">
        <ele>210.1</ele>
        <time>2021-05-30T18:22:55Z</time>
      </trkpt>
      <trkpt lat="-12.1485340" lon="-76.8317040">
        <ele>210.1</ele>
        <time>2021-05-30T18:22:56Z</time>
      </trkpt>
      <trkpt lat="-12.1485010" lon="-76.8317260">
        <ele>210.1</ele>
        <time>2021-05-30T18:22:57Z</time>
      </trkpt>
      <trkpt lat="-12.1484700" lon="-76.8317440">
        <ele>210.1</ele>
        <time>2021-05-30T18:22:58Z</time>
      </trkpt>
      <trkpt lat="-12.1484380" lon="-76.8317620">
        <ele>210.1</ele>
        <time>2021-05-30T18:23:00Z</time>
      </trkpt>
      <trkpt lat="-12.1484040" lon="-76.8317790">
        <ele>210.1</ele>
        <time>2021-05-30T18:23:01Z</time>
      </trkpt>
      <trkpt lat="-12.1483620" lon="-76.8317980">
        <ele>210.2</ele>
        <time>2021-05-30T18:23:02Z</time>
      </trkpt>
      <trkpt lat="-12.1483130" lon="-76.8318220">
        <ele>210.2</ele>
        <time>2021-05-30T18:23:04Z</time>
      </trkpt>
      <trkpt lat="-12.1482760" lon="-76.8318380">
        <ele>210.3</ele>
        <time>2021-05-30T18:23:05Z</time>
      </trkpt>
      <trkpt lat="-12.1482250" lon="-76.8318610">
        <ele>210.3</ele>
        <time>2021-05-30T18:23:06Z</time>
      </trkpt>
      <trkpt lat="-12.1481880" lon="-76.8318830">
        <ele>210.4</ele>
        <time>2021-05-30T18:23:08Z</time>
      </trkpt>
      <trkpt lat="-12.1481470" lon="-76.8319090">
        <ele>210.4</ele>
        <time>2021-05-30T18:23:09Z</time>
      </trkpt>
      <trkpt lat="-12.1480980" lon="-76.8319410">
        <ele>210.5</ele>
        <time>2021-05-30T18:23:10Z</time>
      </trkpt>
      <trkpt lat="-12.1480610" lon="-76.8319680">
        <ele>210.5</ele>
        <time>2021-05-30T18:23:12Z</time>
      </trkpt>
      <trkpt lat="-12.1480200" lon="-76.8319930">
        <ele>210.5</ele>
        <time>2021-05-30T18:23:13Z</time>
      </trkpt>
      <trkpt lat="-12.1479580" lon="-76.8320280">
        <ele>210.6</ele>
        <time>2021-05-30T18:23:15Z</time>
      </trkpt>
      <trkpt lat="-12.1479230" lon="-76.8320450">
        <ele>210.6</ele>
        <time>2021-05-30T18:23:16Z</time>
      </trkpt>
      <trkpt lat="-12.1478750" lon="-76.8320640">
        <ele>210.7</ele>
        <time>2021-05-30T18:23:17Z</time>
      </trkpt>
      <trkpt lat="-12.1478240" lon="-76.8320940">
        <ele>210.7</ele>
        <time>2021-05-30T18:23:19Z</time>
      </trkpt>
      <trkpt lat="-12.1477890" lon="-76.8321170">
        <ele>210.8</ele>
        <time>2021-05-30T18:23:20Z</time>
      </trkpt>
      <trkpt lat="-12.1477510" lon="-76.8321440">
        <ele>210.8</ele>
        <time>2021-05-30T18:23:21Z</time>
      </trkpt>
      <trkpt lat="-12.1477140" lon="-76.8321670">
        <ele>210.8</ele>
        <time>2021-05-30T18:23:22Z</time>
      </trkpt>
      <trkpt lat="-12.1476880" lon="-76.8321800">
        <ele>210.9</ele>
        <time>2021-05-30T18:23:23Z</time>
      </trkpt>
      <trkpt lat="-12.1476530" lon="-76.8321960">
        <ele>210.9</ele>
        <time>2021-05-30T18:23:25Z</time>
      </trkpt>
      <trkpt lat="-12.1476390" lon="-76.8322020">
        <ele>210.9</ele>
        <time>2021-05-30T18:23:26Z</time>
      </trkpt>
      <trkpt lat="-12.1476070" lon="-76.8322210">
        <ele>210.9</ele>
        <time>2021-05-30T18:23:28Z</time>
      </trkpt>
      <trkpt lat="-12.1475640" lon="-76.8322440">
        <ele>210.9</ele>
        <time>2021-05-30T18:23:29Z</time>
      </trkpt>
      <trkpt lat="-12.1475320" lon="-76.8322600">
        <ele>211.0</ele>
        <time>2021-05-30T18:23:31Z</time>
      </trkpt>
      <trkpt lat="-12.1475010" lon="-76.8322770">
        <ele>211.0</ele>
        <time>2021-05-30T18:23:32Z</time>
      </trkpt>
      <trkpt lat="-12.1474660" lon="-76.8323000">
        <ele>211.0</ele>
        <time>2021-05-30T18:23:33Z</time>
      </trkpt>
      <trkpt lat="-12.1473960" lon="-76.8323420">
        <ele>211.0</ele>
        <time>2021-05-30T18:23:34Z</time>
      </trkpt>
      <trkpt lat="-12.1473540" lon="-76.8323650">
        <ele>211.0</ele>
        <time>2021-05-30T18:23:35Z</time>
      </trkpt>
      <trkpt lat="-12.1472410" lon="-76.8324030">
        <ele>211.1</ele>
        <time>2021-05-30T18:23:36Z</time>
      </trkpt>
      <trkpt lat="-12.1471800" lon="-76.8324330">
        <ele>211.1</ele>
        <time>2021-05-30T18:23:38Z</time>
      </trkpt>
      <trkpt lat="-12.1471360" lon="-76.8324510">
        <ele>211.2</ele>
        <time>2021-05-30T18:23:39Z</time>
      </trkpt>
      <trkpt lat="-12.1470980" lon="-76.8324640">
        <ele>211.2</ele>
        <time>2021-05-30T18:23:40Z</time>
      </trkpt>
      <trkpt lat="-12.1470420" lon="-76.8324730">
        <ele>211.3</ele>
        <time>2021-05-30T18:23:41Z</time>
      </trkpt>
      <trkpt lat="-12.1469860" lon="-76.8324760">
        <ele>211.3</ele>
        <time>2021-05-30T18:23:42Z</time>
      </trkpt>
      <trkpt lat="-12.1469430" lon="-76.8324770">
        <ele>211.3</ele>
        <time>2021-05-30T18:23:43Z</time>
      </trkpt>
      <trkpt lat="-12.1468950" lon="-76.8324700">
        <ele>211.4</ele>
        <time>2021-05-30T18:23:45Z</time>
      </trkpt>
      <trkpt lat="-12.1468300" lon="-76.8324590">
        <ele>211.5</ele>
        <time>2021-05-30T18:23:46Z</time>
      </trkpt>
      <trkpt lat="-12.1467870" lon="-76.8324480">
        <ele>211.5</ele>
        <time>2021-05-30T18:23:48Z</time>
      </trkpt>
      <trkpt lat="-12.1467420" lon="-76.8324300">
        <ele>211.6</ele>
        <time>2021-05-30T18:23:49Z</time>
      </trkpt>
      <trkpt lat="-12.1467040" lon="-76.8324070">
        <ele>211.7</ele>
        <time>2021-05-30T18:23:50Z</time>
      </trkpt>
      <trkpt lat="-12.1466730" lon="-76.8323860">
        <ele>211.7</ele>
        <time>2021-05-30T18:23:52Z</time>
      </trkpt>
      <trkpt lat="-12.1466430" lon="-76.8323680">
        <ele>211.8</ele>
        <time>2021-05-30T18:23:53Z</time>
      </trkpt>
      <trkpt lat="-12.1466300" lon="-76.8323630">
        <ele>211.8</ele>
        <time>2021-05-30T18:23:54Z</time>
      </trkpt>
      <trkpt lat="-12.1465930" lon="-76.8323380">
        <ele>211.8</ele>
        <time>2021-05-30T18:23:55Z</time>
      </trkpt>
      <trkpt lat="-12.1465770" lon="-76.8323280">
        <ele>211.8</ele>
        <time>2021-05-30T18:23:56Z</time>
      </trkpt>
      <trkpt lat="-12.1465410" lon="-76.8323020">
        <ele>211.9</ele>
        <time>2021-05-30T18:23:58Z</time>
      </trkpt>
      <trkpt lat="-12.1465090" lon="-76.8322800">
        <ele>211.9</ele>
        <time>2021-05-30T18:23:59Z</time>
      </trkpt>
      <trkpt lat="-12.1464690" lon="-76.8322560">
        <ele>212.0</ele>
        <time>2021-05-30T18:24:00Z</time>
      </trkpt>
      <trkpt lat="-12.1464290" lon="-76.8322450">
        <ele>212.0</ele>
        <time>2021-05-30T18:24:02Z</time>
      </trkpt>
      <trkpt lat="-12.1463860" lon="-76.8322380">
        <ele>212.1</ele>
        <time>2021-05-30T18:24:03Z</time>
      </trkpt>
      <trkpt lat="-12.1463450" lon="-76.8322300">
        <ele>212.1</ele>
        <time>2021-05-30T18:24:04Z</time>
      </trkpt>
      <trkpt lat="-12.1462970" lon="-76.8322180">
        <ele>212.2</ele>
        <time>2021-05-30T18:24:06Z</time>
      </trkpt>
      <trkpt lat="-12.1462490" lon="-76.8322100">
        <ele>212.3</ele>
        <time>2021-05-30T18:24:07Z</time>
      </trkpt>
      <trkpt lat="-12.1462090" lon="-76.8322050">
        <ele>212.3</ele>
        <time>2021-05-30T18:24:08Z</time>
      </trkpt>
      <trkpt lat="-12.1461530" lon="-76.8321980">
        <ele>212.4</ele>
        <time>2021-05-30T18:24:10Z</time>
      </trkpt>
      <trkpt lat="-12.1460870" lon="-76.8321860">
        <ele>212.6</ele>
        <time>2021-05-30T18:24:11Z</time>
      </trkpt>
      <trkpt lat="-12.1460340" lon="-76.8321770">
        <ele>212.7</ele>
        <time>2021-05-30T18:24:13Z</time>
      </trkpt>
      <trkpt lat="-12.1459560" lon="-76.8321670">
        <ele>212.9</ele>
        <time>2021-05-30T18:24:14Z</time>
      </trkpt>
      <trkpt lat="-12.1459080" lon="-76.8321590">
        <ele>213.0</ele>
        <time>2021-05-30T18:24:16Z</time>
      </trkpt>
      <trkpt lat="-12.1458580" lon="-76.8321490">
        <ele>213.0</ele>
        <time>2021-05-30T18:24:17Z</time>
      </trkpt>
      <trkpt lat="-12.1458090" lon="-76.8321420">
        <ele>213.1</ele>
        <time>2021-05-30T18:24:18Z</time>
      </trkpt>
      <trkpt lat="-12.1457670" lon="-76.8321320">
        <ele>213.2</ele>
        <time>2021-05-30T18:24:19Z</time>
      </trkpt>
      <trkpt lat="-12.1457160" lon="-76.8321220">
        <ele>213.2</ele>
        <time>2021-05-30T18:24:21Z</time>
      </trkpt>
      <trkpt lat="-12.1456830" lon="-76.8321140">
        <ele>213.3</ele>
        <time>2021-05-30T18:24:22Z</time>
      </trkpt>
      <trkpt lat="-12.1456470" lon="-76.8321060">
        <ele>213.3</ele>
        <time>2021-05-30T18:24:23Z</time>
      </trkpt>
      <trkpt lat="-12.1455850" lon="-76.8320980">
        <ele>213.4</ele>
        <time>2021-05-30T18:24:24Z</time>
      </trkpt>
      <trkpt lat="-12.1455460" lon="-76.8320920">
        <ele>213.5</ele>
        <time>2021-05-30T18:24:25Z</time>
      </trkpt>
      <trkpt lat="-12.1455030" lon="-76.8320890">
        <ele>213.5</ele>
        <time>2021-05-30T18:24:26Z</time>
      </trkpt>
      <trkpt lat="-12.1454430" lon="-76.8321020">
        <ele>213.6</ele>
        <time>2021-05-30T18:24:28Z</time>
      </trkpt>
      <trkpt lat="-12.1454080" lon="-76.8321260">
        <ele>213.7</ele>
        <time>2021-05-30T18:24:29Z</time>
      </trkpt>
      <trkpt lat="-12.1453800" lon="-76.8321650">
        <ele>213.8</ele>
        <time>2021-05-30T18:24:31Z</time>
      </trkpt>
      <trkpt lat="-12.1453620" lon="-76.8321990">
        <ele>213.8</ele>
        <time>2021-05-30T18:24:32Z</time>
      </trkpt>
      <trkpt lat="-12.1453520" lon="-76.8322440">
        <ele>213.8</ele>
        <time>2021-05-30T18:24:33Z</time>
      </trkpt>
      <trkpt lat="-12.1453510" lon="-76.8322880">
        <ele>213.8</ele>
        <time>2021-05-30T18:24:34Z</time>
      </trkpt>
      <trkpt lat="-12.1453570" lon="-76.8323410">
        <ele>213.9</ele>
        <time>2021-05-30T18:24:35Z</time>
      </trkpt>
      <trkpt lat="-12.1453650" lon="-76.8323910">
        <ele>213.9</ele>
        <time>2021-05-30T18:24:36Z</time>
      </trkpt>
      <trkpt lat="-12.1453740" lon="-76.8324450">
        <ele>214.0</ele>
        <time>2021-05-30T18:24:38Z</time>
      </trkpt>
      <trkpt lat="-12.1453840" lon="-76.8325080">
        <ele>214.0</ele>
        <time>2021-05-30T18:24:39Z</time>
      </trkpt>
      <trkpt lat="-12.1453840" lon="-76.8325620">
        <ele>214.0</ele>
        <time>2021-05-30T18:24:40Z</time>
      </trkpt>
      <trkpt lat="-12.1453790" lon="-76.8326260">
        <ele>214.0</ele>
        <time>2021-05-30T18:24:42Z</time>
      </trkpt>
      <trkpt lat="-12.1453850" lon="-76.8326790">
        <ele>214.0</ele>
        <time>2021-05-30T18:24:43Z</time>
      </trkpt>
      <trkpt lat="-12.1454040" lon="-76.8327250">
        <ele>214.0</ele>
        <time>2021-05-30T18:24:44Z</time>
      </trkpt>
      <trkpt lat="-12.1454240" lon="-76.8327740">
        <ele>213.9</ele>
        <time>2021-05-30T18:24:46Z</time>
      </trkpt>
      <trkpt lat="-12.1454380" lon="-76.8328290">
        <ele>213.9</ele>
        <time>2021-05-30T18:24:48Z</time>
      </trkpt>
      <trkpt lat="-12.1454420" lon="-76.8328590">
        <ele>213.8</ele>
        <time>2021-05-30T18:24:49Z</time>
      </trkpt>
      <trkpt lat="-12.1454470" lon="-76.8328810">
        <ele>213.8</ele>
        <time>2021-05-30T18:24:50Z</time>
      </trkpt>
      <trkpt lat="-12.1454450" lon="-76.8329040">
        <ele>213.8</ele>
        <time>2021-05-30T18:24:52Z</time>
      </trkpt>
      <trkpt lat="-12.1454420" lon="-76.8329080">
        <ele>213.8</ele>
        <time>2021-05-30T18:24:53Z</time>
      </trkpt>
      <trkpt lat="-12.1454470" lon="-76.8329300">
        <ele>213.7</ele>
        <time>2021-05-30T18:24:55Z</time>
      </trkpt>
      <trkpt lat="-12.1454580" lon="-76.8329510">
        <ele>213.7</ele>
        <time>2021-05-30T18:24:57Z</time>
      </trkpt>
      <trkpt lat="-12.1454710" lon="-76.8329560">
        <ele>213.7</ele>
        <time>2021-05-30T18:24:58Z</time>
      </trkpt>
      <trkpt lat="-12.1454910" lon="-76.8329600">
        <ele>213.7</ele>
        <time>2021-05-30T18:25:00Z</time>
      </trkpt>
      <trkpt lat="-12.1455120" lon="-76.8329670">
        <ele>213.6</ele>
        <time>2021-05-30T18:25:02Z</time>
      </trkpt>
      <trkpt lat="-12.1455200" lon="-76.8329700">
        <ele>213.6</ele>
        <time>2021-05-30T18:25:03Z</time>
      </trkpt>
      <trkpt lat="-12.1455220" lon="-76.8329700">
        <ele>213.6</ele>
        <time>2021-05-30T18:25:04Z</time>
      </trkpt>
      <trkpt lat="-12.1455300" lon="-76.8329720">
        <ele>213.6</ele>
        <time>2021-05-30T18:25:06Z</time>
      </trkpt>
      <trkpt lat="-12.1455680" lon="-76.8329720">
        <ele>213.6</ele>
        <time>2021-05-30T18:25:08Z</time>
      </trkpt>
      <trkpt lat="-12.1455730" lon="-76.8329700">
        <ele>213.6</ele>
        <time>2021-05-30T18:25:09Z</time>
      </trkpt>
      <trkpt lat="-12.1455740" lon="-76.8329640">
        <ele>213.6</ele>
        <time>2021-05-30T18:25:11Z</time>
      </trkpt>
      <trkpt lat="-12.1455710" lon="-76.8329610">
        <ele>213.5</ele>
        <time>2021-05-30T18:25:12Z</time>
      </trkpt>
      <trkpt lat="-12.1455630" lon="-76.8329580">
        <ele>213.5</ele>
        <time>2021-05-30T18:25:14Z</time>
      </trkpt>
      <trkpt lat="-12.1455580" lon="-76.8329540">
        <ele>213.5</ele>
        <time>2021-05-30T18:25:16Z</time>
      </trkpt>
      <trkpt lat="-12.1455530" lon="-76.8329520">
        <ele>213.5</ele>
        <time>2021-05-30T18:25:18Z</time>
      </trkpt>
      <trkpt lat="-12.1455500" lon="-76.8329520">
        <ele>213.5</ele>
        <time>2021-05-30T18:25:19Z</time>
      </trkpt>
      <trkpt lat="-12.1455450" lon="-76.8329520">
        <ele>213.5</ele>
        <time>2021-05-30T18:25:21Z</time>
      </trkpt>
      <trkpt lat="-12.1455440" lon="-76.8329530">
        <ele>213.5</ele>
        <time>2021-05-30T18:25:23Z</time>
      </trkpt>
      <trkpt lat="-12.1455440" lon="-76.8329530">
        <ele>213.5</ele>
        <time>2021-05-30T18:25:24Z</time>
      </trkpt>
      <trkpt lat="-12.1455440" lon="-76.8329530">
        <ele>213.5</ele>
        <time>2021-05-30T18:25:26Z</time>
      </trkpt>
      <trkpt lat="-12.1455370" lon="-76.8329790">
        <ele>213.5</ele>
        <time>2021-05-30T18:25:59Z</time>
      </trkpt>
      <trkpt lat="-12.1455320" lon="-76.8330410">
        <ele>213.4</ele>
        <time>2021-05-30T18:26:01Z</time>
      </trkpt>
      <trkpt lat="-12.1455290" lon="-76.8331160">
        <ele>213.3</ele>
        <time>2021-05-30T18:26:03Z</time>
      </trkpt>
      <trkpt lat="-12.1455250" lon="-76.8331500">
        <ele>213.3</ele>
        <time>2021-05-30T18:26:04Z</time>
      </trkpt>
      <trkpt lat="-12.1455230" lon="-76.8331850">
        <ele>213.2</ele>
        <time>2021-05-30T18:26:05Z</time>
      </trkpt>
      <trkpt lat="-12.1455210" lon="-76.8332210">
        <ele>213.2</ele>
        <time>2021-05-30T18:26:06Z</time>
      </trkpt>
      <trkpt lat="-12.1455230" lon="-76.8332890">
        <ele>213.2</ele>
        <time>2021-05-30T18:26:08Z</time>
      </trkpt>
      <trkpt lat="-12.1455290" lon="-76.8333630">
        <ele>213.1</ele>
        <time>2021-05-30T18:26:10Z</time>
      </trkpt>
      <trkpt lat="-12.1455320" lon="-76.8333960">
        <ele>213.1</ele>
        <time>2021-05-30T18:26:11Z</time>
      </trkpt>
      <trkpt lat="-12.1455320" lon="-76.8334570">
        <ele>213.1</ele>
        <time>2021-05-30T18:26:12Z</time>
      </trkpt>
      <trkpt lat="-12.1455270" lon="-76.8335500">
        <ele>213.1</ele>
        <time>2021-05-30T18:26:15Z</time>
      </trkpt>
      <trkpt lat="-12.1455210" lon="-76.8336000">
        <ele>213.1</ele>
        <time>2021-05-30T18:26:16Z</time>
      </trkpt>
      <trkpt lat="-12.1455060" lon="-76.8336810">
        <ele>213.0</ele>
        <time>2021-05-30T18:26:18Z</time>
      </trkpt>
      <trkpt lat="-12.1455020" lon="-76.8337200">
        <ele>213.0</ele>
        <time>2021-05-30T18:26:19Z</time>
      </trkpt>
      <trkpt lat="-12.1454940" lon="-76.8337950">
        <ele>213.0</ele>
        <time>2021-05-30T18:26:20Z</time>
      </trkpt>
      <trkpt lat="-12.1454870" lon="-76.8338520">
        <ele>213.0</ele>
        <time>2021-05-30T18:26:22Z</time>
      </trkpt>
      <trkpt lat="-12.1454860" lon="-76.8338970">
        <ele>213.0</ele>
        <time>2021-05-30T18:26:23Z</time>
      </trkpt>
      <trkpt lat="-12.1454920" lon="-76.8339380">
        <ele>213.0</ele>
        <time>2021-05-30T18:26:24Z</time>
      </trkpt>
      <trkpt lat="-12.1455510" lon="-76.8340700">
        <ele>213.0</ele>
        <time>2021-05-30T18:26:26Z</time>
      </trkpt>
      <trkpt lat="-12.1455670" lon="-76.8341340">
        <ele>212.9</ele>
        <time>2021-05-30T18:26:27Z</time>
      </trkpt>
      <trkpt lat="-12.1456120" lon="-76.8341940">
        <ele>212.9</ele>
        <time>2021-05-30T18:26:29Z</time>
      </trkpt>
      <trkpt lat="-12.1456540" lon="-76.8342410">
        <ele>212.9</ele>
        <time>2021-05-30T18:26:30Z</time>
      </trkpt>
      <trkpt lat="-12.1456810" lon="-76.8342810">
        <ele>212.9</ele>
        <time>2021-05-30T18:26:31Z</time>
      </trkpt>
      <trkpt lat="-12.1457720" lon="-76.8343560">
        <ele>212.7</ele>
        <time>2021-05-30T18:26:33Z</time>
      </trkpt>
      <trkpt lat="-12.1458370" lon="-76.8344590">
        <ele>212.6</ele>
        <time>2021-05-30T18:26:35Z</time>
      </trkpt>
      <trkpt lat="-12.1458740" lon="-76.8345150">
        <ele>212.5</ele>
        <time>2021-05-30T18:26:36Z</time>
      </trkpt>
      <trkpt lat="-12.1459290" lon="-76.8346110">
        <ele>212.3</ele>
        <time>2021-05-30T18:26:38Z</time>
      </trkpt>
      <trkpt lat="-12.1459530" lon="-76.8346630">
        <ele>212.2</ele>
        <time>2021-05-30T18:26:39Z</time>
      </trkpt>
      <trkpt lat="-12.1459820" lon="-76.8347570">
        <ele>212.1</ele>
        <time>2021-05-30T18:26:41Z</time>
      </trkpt>
      <trkpt lat="-12.1460140" lon="-76.8348590">
        <ele>211.9</ele>
        <time>2021-05-30T18:26:43Z</time>
      </trkpt>
      <trkpt lat="-12.1460270" lon="-76.8349130">
        <ele>211.8</ele>
        <time>2021-05-30T18:26:44Z</time>
      </trkpt>
      <trkpt lat="-12.1460420" lon="-76.8349670">
        <ele>211.7</ele>
        <time>2021-05-30T18:26:45Z</time>
      </trkpt>
      <trkpt lat="-12.1460570" lon="-76.8350170">
        <ele>211.6</ele>
        <time>2021-05-30T18:26:46Z</time>
      </trkpt>
      <trkpt lat="-12.1461000" lon="-76.8351200">
        <ele>211.4</ele>
        <time>2021-05-30T18:26:48Z</time>
      </trkpt>
      <trkpt lat="-12.1461540" lon="-76.8352260">
        <ele>211.2</ele>
        <time>2021-05-30T18:26:50Z</time>
      </trkpt>
      <trkpt lat="-12.1461790" lon="-76.8352800">
        <ele>211.2</ele>
        <time>2021-05-30T18:26:51Z</time>
      </trkpt>
      <trkpt lat="-12.1462080" lon="-76.8353790">
        <ele>211.1</ele>
        <time>2021-05-30T18:26:53Z</time>
      </trkpt>
      <trkpt lat="-12.1462300" lon="-76.8354730">
        <ele>210.9</ele>
        <time>2021-05-30T18:26:55Z</time>
      </trkpt>
      <trkpt lat="-12.1462500" lon="-76.8355260">
        <ele>210.8</ele>
        <time>2021-05-30T18:26:56Z</time>
      </trkpt>
      <trkpt lat="-12.1463020" lon="-76.8356360">
        <ele>210.5</ele>
        <time>2021-05-30T18:26:58Z</time>
      </trkpt>
      <trkpt lat="-12.1463520" lon="-76.8357370">
        <ele>210.3</ele>
        <time>2021-05-30T18:27:00Z</time>
      </trkpt>
      <trkpt lat="-12.1463880" lon="-76.8358390">
        <ele>210.1</ele>
        <time>2021-05-30T18:27:02Z</time>
      </trkpt>
      <trkpt lat="-12.1464040" lon="-76.8358830">
        <ele>210.0</ele>
        <time>2021-05-30T18:27:03Z</time>
      </trkpt>
      <trkpt lat="-12.1464140" lon="-76.8359710">
        <ele>209.8</ele>
        <time>2021-05-30T18:27:05Z</time>
      </trkpt>
      <trkpt lat="-12.1464180" lon="-76.8360180">
        <ele>209.7</ele>
        <time>2021-05-30T18:27:06Z</time>
      </trkpt>
      <trkpt lat="-12.1464320" lon="-76.8361230">
        <ele>209.5</ele>
        <time>2021-05-30T18:27:08Z</time>
      </trkpt>
      <trkpt lat="-12.1464380" lon="-76.8361730">
        <ele>209.4</ele>
        <time>2021-05-30T18:27:09Z</time>
      </trkpt>
      <trkpt lat="-12.1464490" lon="-76.8362890">
        <ele>209.1</ele>
        <time>2021-05-30T18:27:11Z</time>
      </trkpt>
      <trkpt lat="-12.1464480" lon="-76.8363520">
        <ele>209.0</ele>
        <time>2021-05-30T18:27:12Z</time>
      </trkpt>
      <trkpt lat="-12.1464800" lon="-76.8364880">
        <ele>208.7</ele>
        <time>2021-05-30T18:27:14Z</time>
      </trkpt>
      <trkpt lat="-12.1465180" lon="-76.8366070">
        <ele>208.5</ele>
        <time>2021-05-30T18:27:16Z</time>
      </trkpt>
      <trkpt lat="-12.1465360" lon="-76.8366640">
        <ele>208.4</ele>
        <time>2021-05-30T18:27:17Z</time>
      </trkpt>
      <trkpt lat="-12.1466240" lon="-76.8368890">
        <ele>208.0</ele>
        <time>2021-05-30T18:27:21Z</time>
      </trkpt>
      <trkpt lat="-12.1466650" lon="-76.8369440">
        <ele>207.9</ele>
        <time>2021-05-30T18:27:22Z</time>
      </trkpt>
      <trkpt lat="-12.1467220" lon="-76.8370400">
        <ele>207.6</ele>
        <time>2021-05-30T18:27:24Z</time>
      </trkpt>
      <trkpt lat="-12.1467530" lon="-76.8370880">
        <ele>207.4</ele>
        <time>2021-05-30T18:27:25Z</time>
      </trkpt>
      <trkpt lat="-12.1467870" lon="-76.8371380">
        <ele>207.2</ele>
        <time>2021-05-30T18:27:26Z</time>
      </trkpt>
      <trkpt lat="-12.1468570" lon="-76.8372460">
        <ele>206.8</ele>
        <time>2021-05-30T18:27:28Z</time>
      </trkpt>
      <trkpt lat="-12.1469390" lon="-76.8373630">
        <ele>206.2</ele>
        <time>2021-05-30T18:27:30Z</time>
      </trkpt>
      <trkpt lat="-12.1469930" lon="-76.8374230">
        <ele>205.9</ele>
        <time>2021-05-30T18:27:31Z</time>
      </trkpt>
      <trkpt lat="-12.1470860" lon="-76.8375400">
        <ele>205.3</ele>
        <time>2021-05-30T18:27:33Z</time>
      </trkpt>
      <trkpt lat="-12.1471260" lon="-76.8375910">
        <ele>205.0</ele>
        <time>2021-05-30T18:27:34Z</time>
      </trkpt>
      <trkpt lat="-12.1472290" lon="-76.8376850">
        <ele>204.5</ele>
        <time>2021-05-30T18:27:36Z</time>
      </trkpt>
      <trkpt lat="-12.1473440" lon="-76.8377680">
        <ele>204.1</ele>
        <time>2021-05-30T18:27:38Z</time>
      </trkpt>
      <trkpt lat="-12.1474650" lon="-76.8378350">
        <ele>203.7</ele>
        <time>2021-05-30T18:27:40Z</time>
      </trkpt>
      <trkpt lat="-12.1476000" lon="-76.8378850">
        <ele>203.4</ele>
        <time>2021-05-30T18:27:42Z</time>
      </trkpt>
      <trkpt lat="-12.1476730" lon="-76.8379080">
        <ele>203.3</ele>
        <time>2021-05-30T18:27:43Z</time>
      </trkpt>
      <trkpt lat="-12.1477320" lon="-76.8379270">
        <ele>203.3</ele>
        <time>2021-05-30T18:27:44Z</time>
      </trkpt>
      <trkpt lat="-12.1477880" lon="-76.8379420">
        <ele>203.2</ele>
        <time>2021-05-30T18:27:45Z</time>
      </trkpt>
      <trkpt lat="-12.1479050" lon="-76.8379770">
        <ele>203.1</ele>
        <time>2021-05-30T18:27:47Z</time>
      </trkpt>
      <trkpt lat="-12.1480220" lon="-76.8380200">
        <ele>203.1</ele>
        <time>2021-05-30T18:27:49Z</time>
      </trkpt>
      <trkpt lat="-12.1481450" lon="-76.8380700">
        <ele>203.1</ele>
        <time>2021-05-30T18:27:51Z</time>
      </trkpt>
      <trkpt lat="-12.1482750" lon="-76.8381230">
        <ele>203.0</ele>
        <time>2021-05-30T18:27:53Z</time>
      </trkpt>
      <trkpt lat="-12.1484090" lon="-76.8381630">
        <ele>202.9</ele>
        <time>2021-05-30T18:27:55Z</time>
      </trkpt>
      <trkpt lat="-12.1484690" lon="-76.8381920">
        <ele>202.7</ele>
        <time>2021-05-30T18:27:56Z</time>
      </trkpt>
      <trkpt lat="-12.1485140" lon="-76.8382220">
        <ele>202.6</ele>
        <time>2021-05-30T18:27:57Z</time>
      </trkpt>
      <trkpt lat="-12.1485420" lon="-76.8382540">
        <ele>202.5</ele>
        <time>2021-05-30T18:27:58Z</time>
      </trkpt>
      <trkpt lat="-12.1485720" lon="-76.8383450">
        <ele>202.2</ele>
        <time>2021-05-30T18:28:00Z</time>
      </trkpt>
      <trkpt lat="-12.1485880" lon="-76.8384060">
        <ele>202.1</ele>
        <time>2021-05-30T18:28:01Z</time>
      </trkpt>
      <trkpt lat="-12.1486120" lon="-76.8384710">
        <ele>201.9</ele>
        <time>2021-05-30T18:28:02Z</time>
      </trkpt>
      <trkpt lat="-12.1486590" lon="-76.8385900">
        <ele>201.6</ele>
        <time>2021-05-30T18:28:04Z</time>
      </trkpt>
      <trkpt lat="-12.1486840" lon="-76.8386440">
        <ele>201.4</ele>
        <time>2021-05-30T18:28:05Z</time>
      </trkpt>
      <trkpt lat="-12.1487040" lon="-76.8387030">
        <ele>201.2</ele>
        <time>2021-05-30T18:28:06Z</time>
      </trkpt>
      <trkpt lat="-12.1487380" lon="-76.8388300">
        <ele>200.9</ele>
        <time>2021-05-30T18:28:08Z</time>
      </trkpt>
      <trkpt lat="-12.1487560" lon="-76.8388940">
        <ele>200.7</ele>
        <time>2021-05-30T18:28:09Z</time>
      </trkpt>
      <trkpt lat="-12.1487750" lon="-76.8389570">
        <ele>200.6</ele>
        <time>2021-05-30T18:28:10Z</time>
      </trkpt>
      <trkpt lat="-12.1487980" lon="-76.8390220">
        <ele>200.4</ele>
        <time>2021-05-30T18:28:11Z</time>
      </trkpt>
      <trkpt lat="-12.1488270" lon="-76.8391560">
        <ele>200.0</ele>
        <time>2021-05-30T18:28:13Z</time>
      </trkpt>
      <trkpt lat="-12.1488380" lon="-76.8392190">
        <ele>199.8</ele>
        <time>2021-05-30T18:28:14Z</time>
      </trkpt>
      <trkpt lat="-12.1488410" lon="-76.8393430">
        <ele>199.5</ele>
        <time>2021-05-30T18:28:16Z</time>
      </trkpt>
      <trkpt lat="-12.1488350" lon="-76.8394750">
        <ele>199.1</ele>
        <time>2021-05-30T18:28:18Z</time>
      </trkpt>
      <trkpt lat="-12.1488130" lon="-76.8396030">
        <ele>198.8</ele>
        <time>2021-05-30T18:28:20Z</time>
      </trkpt>
      <trkpt lat="-12.1487870" lon="-76.8397260">
        <ele>198.5</ele>
        <time>2021-05-30T18:28:22Z</time>
      </trkpt>
      <trkpt lat="-12.1487740" lon="-76.8397830">
        <ele>198.4</ele>
        <time>2021-05-30T18:28:23Z</time>
      </trkpt>
      <trkpt lat="-12.1487590" lon="-76.8399010">
        <ele>198.3</ele>
        <time>2021-05-30T18:28:25Z</time>
      </trkpt>
      <trkpt lat="-12.1487590" lon="-76.8400190">
        <ele>198.2</ele>
        <time>2021-05-30T18:28:27Z</time>
      </trkpt>
      <trkpt lat="-12.1487610" lon="-76.8400780">
        <ele>198.2</ele>
        <time>2021-05-30T18:28:28Z</time>
      </trkpt>
      <trkpt lat="-12.1487640" lon="-76.8401360">
        <ele>198.2</ele>
        <time>2021-05-30T18:28:29Z</time>
      </trkpt>
      <trkpt lat="-12.1487650" lon="-76.8402570">
        <ele>198.2</ele>
        <time>2021-05-30T18:28:31Z</time>
      </trkpt>
      <trkpt lat="-12.1487830" lon="-76.8403830">
        <ele>198.3</ele>
        <time>2021-05-30T18:28:33Z</time>
      </trkpt>
      <trkpt lat="-12.1487910" lon="-76.8404430">
        <ele>198.3</ele>
        <time>2021-05-30T18:28:34Z</time>
      </trkpt>
      <trkpt lat="-12.1487980" lon="-76.8405390">
        <ele>198.2</ele>
        <time>2021-05-30T18:28:36Z</time>
      </trkpt>
      <trkpt lat="-12.1488080" lon="-76.8405820">
        <ele>198.2</ele>
        <time>2021-05-30T18:28:37Z</time>
      </trkpt>
      <trkpt lat="-12.1488350" lon="-76.8406300">
        <ele>198.2</ele>
        <time>2021-05-30T18:28:38Z</time>
      </trkpt>
      <trkpt lat="-12.1488680" lon="-76.8406820">
        <ele>198.1</ele>
        <time>2021-05-30T18:28:39Z</time>
      </trkpt>
      <trkpt lat="-12.1489400" lon="-76.8407720">
        <ele>197.9</ele>
        <time>2021-05-30T18:28:41Z</time>
      </trkpt>
      <trkpt lat="-12.1489800" lon="-76.8408220">
        <ele>197.6</ele>
        <time>2021-05-30T18:28:42Z</time>
      </trkpt>
      <trkpt lat="-12.1490740" lon="-76.8409050">
        <ele>197.1</ele>
        <time>2021-05-30T18:28:44Z</time>
      </trkpt>
      <trkpt lat="-12.1491330" lon="-76.8409340">
        <ele>196.9</ele>
        <time>2021-05-30T18:28:45Z</time>
      </trkpt>
      <trkpt lat="-12.1492530" lon="-76.8409770">
        <ele>196.4</ele>
        <time>2021-05-30T18:28:47Z</time>
      </trkpt>
      <trkpt lat="-12.1493520" lon="-76.8410300">
        <ele>196.0</ele>
        <time>2021-05-30T18:28:49Z</time>
      </trkpt>
      <trkpt lat="-12.1494390" lon="-76.8410850">
        <ele>195.7</ele>
        <time>2021-05-30T18:28:51Z</time>
      </trkpt>
      <trkpt lat="-12.1495280" lon="-76.8411330">
        <ele>195.3</ele>
        <time>2021-05-30T18:28:53Z</time>
      </trkpt>
      <trkpt lat="-12.1496310" lon="-76.8411850">
        <ele>194.9</ele>
        <time>2021-05-30T18:28:55Z</time>
      </trkpt>
      <trkpt lat="-12.1497400" lon="-76.8412820">
        <ele>194.4</ele>
        <time>2021-05-30T18:28:57Z</time>
      </trkpt>
      <trkpt lat="-12.1497860" lon="-76.8413370">
        <ele>194.2</ele>
        <time>2021-05-30T18:28:58Z</time>
      </trkpt>
      <trkpt lat="-12.1498260" lon="-76.8413900">
        <ele>194.0</ele>
        <time>2021-05-30T18:28:59Z</time>
      </trkpt>
      <trkpt lat="-12.1498550" lon="-76.8414450">
        <ele>193.8</ele>
        <time>2021-05-30T18:29:00Z</time>
      </trkpt>
      <trkpt lat="-12.1498950" lon="-76.8415690">
        <ele>193.5</ele>
        <time>2021-05-30T18:29:02Z</time>
      </trkpt>
      <trkpt lat="-12.1499150" lon="-76.8416330">
        <ele>193.3</ele>
        <time>2021-05-30T18:29:03Z</time>
      </trkpt>
      <trkpt lat="-12.1499590" lon="-76.8417700">
        <ele>193.1</ele>
        <time>2021-05-30T18:29:05Z</time>
      </trkpt>
      <trkpt lat="-12.1499830" lon="-76.8418350">
        <ele>192.9</ele>
        <time>2021-05-30T18:29:06Z</time>
      </trkpt>
      <trkpt lat="-12.1500060" lon="-76.8418980">
        <ele>192.8</ele>
        <time>2021-05-30T18:29:07Z</time>
      </trkpt>
      <trkpt lat="-12.1500310" lon="-76.8419540">
        <ele>192.8</ele>
        <time>2021-05-30T18:29:08Z</time>
      </trkpt>
      <trkpt lat="-12.1500880" lon="-76.8420610">
        <ele>192.6</ele>
        <time>2021-05-30T18:29:10Z</time>
      </trkpt>
      <trkpt lat="-12.1501170" lon="-76.8421200">
        <ele>192.5</ele>
        <time>2021-05-30T18:29:11Z</time>
      </trkpt>
      <trkpt lat="-12.1501720" lon="-76.8422400">
        <ele>192.3</ele>
        <time>2021-05-30T18:29:13Z</time>
      </trkpt>
      <trkpt lat="-12.1502280" lon="-76.8423640">
        <ele>192.2</ele>
        <time>2021-05-30T18:29:15Z</time>
      </trkpt>
      <trkpt lat="-12.1502980" lon="-76.8424740">
        <ele>192.1</ele>
        <time>2021-05-30T18:29:17Z</time>
      </trkpt>
      <trkpt lat="-12.1503740" lon="-76.8425900">
        <ele>191.9</ele>
        <time>2021-05-30T18:29:19Z</time>
      </trkpt>
      <trkpt lat="-12.1504130" lon="-76.8426520">
        <ele>191.9</ele>
        <time>2021-05-30T18:29:20Z</time>
      </trkpt>
      <trkpt lat="-12.1504610" lon="-76.8427670">
        <ele>191.8</ele>
        <time>2021-05-30T18:29:22Z</time>
      </trkpt>
      <trkpt lat="-12.1504950" lon="-76.8428290">
        <ele>191.7</ele>
        <time>2021-05-30T18:29:23Z</time>
      </trkpt>
      <trkpt lat="-12.1505340" lon="-76.8428920">
        <ele>191.6</ele>
        <time>2021-05-30T18:29:24Z</time>
      </trkpt>
      <trkpt lat="-12.1505760" lon="-76.8429600">
        <ele>191.5</ele>
        <time>2021-05-30T18:29:25Z</time>
      </trkpt>
      <trkpt lat="-12.1506180" lon="-76.8430310">
        <ele>191.4</ele>
        <time>2021-05-30T18:29:26Z</time>
      </trkpt>
      <trkpt lat="-12.1506820" lon="-76.8431560">
        <ele>191.2</ele>
        <time>2021-05-30T18:29:28Z</time>
      </trkpt>
      <trkpt lat="-12.1507150" lon="-76.8432270">
        <ele>191.1</ele>
        <time>2021-05-30T18:29:29Z</time>
      </trkpt>
      <trkpt lat="-12.1507480" lon="-76.8432930">
        <ele>191.0</ele>
        <time>2021-05-30T18:29:30Z</time>
      </trkpt>
      <trkpt lat="-12.1507940" lon="-76.8434080">
        <ele>190.9</ele>
        <time>2021-05-30T18:29:32Z</time>
      </trkpt>
      <trkpt lat="-12.1508290" lon="-76.8435320">
        <ele>190.7</ele>
        <time>2021-05-30T18:29:34Z</time>
      </trkpt>
      <trkpt lat="-12.1508370" lon="-76.8436500">
        <ele>190.6</ele>
        <time>2021-05-30T18:29:36Z</time>
      </trkpt>
      <trkpt lat="-12.1508440" lon="-76.8437130">
        <ele>190.5</ele>
        <time>2021-05-30T18:29:37Z</time>
      </trkpt>
      <trkpt lat="-12.1508650" lon="-76.8438320">
        <ele>190.4</ele>
        <time>2021-05-30T18:29:39Z</time>
      </trkpt>
      <trkpt lat="-12.1508840" lon="-76.8439350">
        <ele>190.4</ele>
        <time>2021-05-30T18:29:41Z</time>
      </trkpt>
      <trkpt lat="-12.1508880" lon="-76.8439900">
        <ele>190.3</ele>
        <time>2021-05-30T18:29:42Z</time>
      </trkpt>
      <trkpt lat="-12.1508930" lon="-76.8440490">
        <ele>190.3</ele>
        <time>2021-05-30T18:29:43Z</time>
      </trkpt>
      <trkpt lat="-12.1509030" lon="-76.8441720">
        <ele>190.2</ele>
        <time>2021-05-30T18:29:45Z</time>
      </trkpt>
      <trkpt lat="-12.1509040" lon="-76.8442360">
        <ele>190.1</ele>
        <time>2021-05-30T18:29:46Z</time>
      </trkpt>
      <trkpt lat="-12.1509100" lon="-76.8443660">
        <ele>190.1</ele>
        <time>2021-05-30T18:29:48Z</time>
      </trkpt>
      <trkpt lat="-12.1509040" lon="-76.8444340">
        <ele>190.2</ele>
        <time>2021-05-30T18:29:49Z</time>
      </trkpt>
      <trkpt lat="-12.1508900" lon="-76.8445700">
        <ele>190.2</ele>
        <time>2021-05-30T18:29:51Z</time>
      </trkpt>
      <trkpt lat="-12.1508190" lon="-76.8446660">
        <ele>190.3</ele>
        <time>2021-05-30T18:29:53Z</time>
      </trkpt>
      <trkpt lat="-12.1507200" lon="-76.8447500">
        <ele>190.5</ele>
        <time>2021-05-30T18:29:55Z</time>
      </trkpt>
      <trkpt lat="-12.1506250" lon="-76.8448120">
        <ele>190.9</ele>
        <time>2021-05-30T18:29:57Z</time>
      </trkpt>
      <trkpt lat="-12.1505770" lon="-76.8448420">
        <ele>191.1</ele>
        <time>2021-05-30T18:29:58Z</time>
      </trkpt>
      <trkpt lat="-12.1504880" lon="-76.8448890">
        <ele>191.5</ele>
        <time>2021-05-30T18:30:00Z</time>
      </trkpt>
      <trkpt lat="-12.1504060" lon="-76.8449420">
        <ele>191.9</ele>
        <time>2021-05-30T18:30:02Z</time>
      </trkpt>
      <trkpt lat="-12.1503630" lon="-76.8449770">
        <ele>192.2</ele>
        <time>2021-05-30T18:30:03Z</time>
      </trkpt>
      <trkpt lat="-12.1502800" lon="-76.8450250">
        <ele>192.7</ele>
        <time>2021-05-30T18:30:05Z</time>
      </trkpt>
      <trkpt lat="-12.1502070" lon="-76.8450760">
        <ele>193.2</ele>
        <time>2021-05-30T18:30:07Z</time>
      </trkpt>
      <trkpt lat="-12.1501660" lon="-76.8451240">
        <ele>193.6</ele>
        <time>2021-05-30T18:30:09Z</time>
      </trkpt>
      <trkpt lat="-12.1501410" lon="-76.8452050">
        <ele>194.0</ele>
        <time>2021-05-30T18:30:11Z</time>
      </trkpt>
      <trkpt lat="-12.1501350" lon="-76.8452460">
        <ele>194.2</ele>
        <time>2021-05-30T18:30:12Z</time>
      </trkpt>
      <trkpt lat="-12.1501090" lon="-76.8453380">
        <ele>194.7</ele>
        <time>2021-05-30T18:30:14Z</time>
      </trkpt>
      <trkpt lat="-12.1501220" lon="-76.8453530">
        <ele>194.8</ele>
        <time>2021-05-30T18:30:15Z</time>
      </trkpt>
      <trkpt lat="-12.1501220" lon="-76.8454580">
        <ele>195.3</ele>
        <time>2021-05-30T18:30:17Z</time>
      </trkpt>
      <trkpt lat="-12.1501170" lon="-76.8455360">
        <ele>195.6</ele>
        <time>2021-05-30T18:30:18Z</time>
      </trkpt>
      <trkpt lat="-12.1501130" lon="-76.8455830">
        <ele>195.8</ele>
        <time>2021-05-30T18:30:19Z</time>
      </trkpt>
      <trkpt lat="-12.1501220" lon="-76.8456790">
        <ele>196.1</ele>
        <time>2021-05-30T18:30:21Z</time>
      </trkpt>
      <trkpt lat="-12.1501230" lon="-76.8457200">
        <ele>196.3</ele>
        <time>2021-05-30T18:30:22Z</time>
      </trkpt>
      <trkpt lat="-12.1501350" lon="-76.8457900">
        <ele>196.5</ele>
        <time>2021-05-30T18:30:23Z</time>
      </trkpt>
      <trkpt lat="-12.1501520" lon="-76.8459080">
        <ele>196.7</ele>
        <time>2021-05-30T18:30:25Z</time>
      </trkpt>
      <trkpt lat="-12.1501590" lon="-76.8460420">
        <ele>196.8</ele>
        <time>2021-05-30T18:30:27Z</time>
      </trkpt>
      <trkpt lat="-12.1501620" lon="-76.8461110">
        <ele>196.9</ele>
        <time>2021-05-30T18:30:28Z</time>
      </trkpt>
      <trkpt lat="-12.1501640" lon="-76.8462510">
        <ele>196.8</ele>
        <time>2021-05-30T18:30:30Z</time>
      </trkpt>
      <trkpt lat="-12.1501390" lon="-76.8463720">
        <ele>196.6</ele>
        <time>2021-05-30T18:30:32Z</time>
      </trkpt>
      <trkpt lat="-12.1501230" lon="-76.8464160">
        <ele>196.5</ele>
        <time>2021-05-30T18:30:33Z</time>
      </trkpt>
      <trkpt lat="-12.1501130" lon="-76.8464650">
        <ele>196.4</ele>
        <time>2021-05-30T18:30:34Z</time>
      </trkpt>
      <trkpt lat="-12.1501080" lon="-76.8465920">
        <ele>196.2</ele>
        <time>2021-05-30T18:30:36Z</time>
      </trkpt>
      <trkpt lat="-12.1501280" lon="-76.8467220">
        <ele>195.9</ele>
        <time>2021-05-30T18:30:38Z</time>
      </trkpt>
      <trkpt lat="-12.1501340" lon="-76.8467850">
        <ele>195.8</ele>
        <time>2021-05-30T18:30:39Z</time>
      </trkpt>
      <trkpt lat="-12.1501350" lon="-76.8469200">
        <ele>195.5</ele>
        <time>2021-05-30T18:30:41Z</time>
      </trkpt>
      <trkpt lat="-12.1501330" lon="-76.8469850">
        <ele>195.4</ele>
        <time>2021-05-30T18:30:42Z</time>
      </trkpt>
      <trkpt lat="-12.1501270" lon="-76.8471150">
        <ele>195.1</ele>
        <time>2021-05-30T18:30:44Z</time>
      </trkpt>
      <trkpt lat="-12.1501190" lon="-76.8472530">
        <ele>194.7</ele>
        <time>2021-05-30T18:30:46Z</time>
      </trkpt>
      <trkpt lat="-12.1501290" lon="-76.8474040">
        <ele>194.4</ele>
        <time>2021-05-30T18:30:48Z</time>
      </trkpt>
      <trkpt lat="-12.1501280" lon="-76.8474800">
        <ele>194.2</ele>
        <time>2021-05-30T18:30:49Z</time>
      </trkpt>
      <trkpt lat="-12.1501240" lon="-76.8476240">
        <ele>193.8</ele>
        <time>2021-05-30T18:30:51Z</time>
      </trkpt>
      <trkpt lat="-12.1501200" lon="-76.8476970">
        <ele>193.6</ele>
        <time>2021-05-30T18:30:52Z</time>
      </trkpt>
      <trkpt lat="-12.1501050" lon="-76.8478280">
        <ele>193.3</ele>
        <time>2021-05-30T18:30:54Z</time>
      </trkpt>
      <trkpt lat="-12.1501080" lon="-76.8479660">
        <ele>193.1</ele>
        <time>2021-05-30T18:30:56Z</time>
      </trkpt>
      <trkpt lat="-12.1501190" lon="-76.8481050">
        <ele>192.8</ele>
        <time>2021-05-30T18:30:58Z</time>
      </trkpt>
      <trkpt lat="-12.1501360" lon="-76.8482410">
        <ele>192.7</ele>
        <time>2021-05-30T18:31:00Z</time>
      </trkpt>
      <trkpt lat="-12.1501500" lon="-76.8483160">
        <ele>192.6</ele>
        <time>2021-05-30T18:31:01Z</time>
      </trkpt>
      <trkpt lat="-12.1501690" lon="-76.8483900">
        <ele>192.6</ele>
        <time>2021-05-30T18:31:02Z</time>
      </trkpt>
      <trkpt lat="-12.1502210" lon="-76.8485190">
        <ele>192.7</ele>
        <time>2021-05-30T18:31:04Z</time>
      </trkpt>
      <trkpt lat="-12.1502550" lon="-76.8485840">
        <ele>192.8</ele>
        <time>2021-05-30T18:31:05Z</time>
      </trkpt>
      <trkpt lat="-12.1503370" lon="-76.8487200">
        <ele>193.2</ele>
        <time>2021-05-30T18:31:07Z</time>
      </trkpt>
      <trkpt lat="-12.1504090" lon="-76.8488330">
        <ele>193.6</ele>
        <time>2021-05-30T18:31:09Z</time>
      </trkpt>
      <trkpt lat="-12.1504400" lon="-76.8488810">
        <ele>193.7</ele>
        <time>2021-05-30T18:31:10Z</time>
      </trkpt>
      <trkpt lat="-12.1505000" lon="-76.8489570">
        <ele>193.9</ele>
        <time>2021-05-30T18:31:12Z</time>
      </trkpt>
      <trkpt lat="-12.1505790" lon="-76.8490410">
        <ele>194.2</ele>
        <time>2021-05-30T18:31:14Z</time>
      </trkpt>
      <trkpt lat="-12.1506690" lon="-76.8491320">
        <ele>194.3</ele>
        <time>2021-05-30T18:31:16Z</time>
      </trkpt>
      <trkpt lat="-12.1507230" lon="-76.8491780">
        <ele>194.4</ele>
        <time>2021-05-30T18:31:17Z</time>
      </trkpt>
      <trkpt lat="-12.1508130" lon="-76.8492610">
        <ele>194.4</ele>
        <time>2021-05-30T18:31:19Z</time>
      </trkpt>
      <trkpt lat="-12.1508990" lon="-76.8493380">
        <ele>194.2</ele>
        <time>2021-05-30T18:31:21Z</time>
      </trkpt>
      <trkpt lat="-12.1509390" lon="-76.8493790">
        <ele>194.2</ele>
        <time>2021-05-30T18:31:22Z</time>
      </trkpt>
      <trkpt lat="-12.1510200" lon="-76.8494600">
        <ele>194.0</ele>
        <time>2021-05-30T18:31:24Z</time>
      </trkpt>
      <trkpt lat="-12.1510660" lon="-76.8495020">
        <ele>193.8</ele>
        <time>2021-05-30T18:31:25Z</time>
      </trkpt>
      <trkpt lat="-12.1511760" lon="-76.8495950">
        <ele>193.5</ele>
        <time>2021-05-30T18:31:27Z</time>
      </trkpt>
      <trkpt lat="-12.1512410" lon="-76.8496410">
        <ele>193.4</ele>
        <time>2021-05-30T18:31:28Z</time>
      </trkpt>
      <trkpt lat="-12.1513110" lon="-76.8496850">
        <ele>193.2</ele>
        <time>2021-05-30T18:31:29Z</time>
      </trkpt>
      <trkpt lat="-12.1514320" lon="-76.8497630">
        <ele>192.9</ele>
        <time>2021-05-30T18:31:31Z</time>
      </trkpt>
      <trkpt lat="-12.1514860" lon="-76.8497970">
        <ele>192.7</ele>
        <time>2021-05-30T18:31:32Z</time>
      </trkpt>
      <trkpt lat="-12.1515920" lon="-76.8498670">
        <ele>192.4</ele>
        <time>2021-05-30T18:31:34Z</time>
      </trkpt>
      <trkpt lat="-12.1516990" lon="-76.8499630">
        <ele>192.1</ele>
        <time>2021-05-30T18:31:36Z</time>
      </trkpt>
      <trkpt lat="-12.1518130" lon="-76.8500760">
        <ele>191.7</ele>
        <time>2021-05-30T18:31:38Z</time>
      </trkpt>
      <trkpt lat="-12.1518830" lon="-76.8501260">
        <ele>191.5</ele>
        <time>2021-05-30T18:31:39Z</time>
      </trkpt>
      <trkpt lat="-12.1519600" lon="-76.8501720">
        <ele>191.4</ele>
        <time>2021-05-30T18:31:40Z</time>
      </trkpt>
      <trkpt lat="-12.1521010" lon="-76.8502410">
        <ele>191.0</ele>
        <time>2021-05-30T18:31:42Z</time>
      </trkpt>
      <trkpt lat="-12.1521710" lon="-76.8502620">
        <ele>190.8</ele>
        <time>2021-05-30T18:31:43Z</time>
      </trkpt>
      <trkpt lat="-12.1523170" lon="-76.8502660">
        <ele>190.5</ele>
        <time>2021-05-30T18:31:45Z</time>
      </trkpt>
      <trkpt lat="-12.1523990" lon="-76.8502460">
        <ele>190.3</ele>
        <time>2021-05-30T18:31:46Z</time>
      </trkpt>
      <trkpt lat="-12.1524780" lon="-76.8502180">
        <ele>190.1</ele>
        <time>2021-05-30T18:31:47Z</time>
      </trkpt>
      <trkpt lat="-12.1525550" lon="-76.8501870">
        <ele>189.8</ele>
        <time>2021-05-30T18:31:48Z</time>
      </trkpt>
      <trkpt lat="-12.1527020" lon="-76.8500710">
        <ele>189.3</ele>
        <time>2021-05-30T18:31:50Z</time>
      </trkpt>
      <trkpt lat="-12.1527870" lon="-76.8499230">
        <ele>188.9</ele>
        <time>2021-05-30T18:31:52Z</time>
      </trkpt>
      <trkpt lat="-12.1528380" lon="-76.8498420">
        <ele>188.6</ele>
        <time>2021-05-30T18:31:53Z</time>
      </trkpt>
      <trkpt lat="-12.1529350" lon="-76.8497060">
        <ele>188.2</ele>
        <time>2021-05-30T18:31:55Z</time>
      </trkpt>
      <trkpt lat="-12.1529750" lon="-76.8496450">
        <ele>188.0</ele>
        <time>2021-05-30T18:31:56Z</time>
      </trkpt>
      <trkpt lat="-12.1530690" lon="-76.8495380">
        <ele>187.7</ele>
        <time>2021-05-30T18:31:58Z</time>
      </trkpt>
      <trkpt lat="-12.1531230" lon="-76.8494860">
        <ele>187.5</ele>
        <time>2021-05-30T18:31:59Z</time>
      </trkpt>
      <trkpt lat="-12.1532420" lon="-76.8493950">
        <ele>187.2</ele>
        <time>2021-05-30T18:32:01Z</time>
      </trkpt>
      <trkpt lat="-12.1533740" lon="-76.8493600">
        <ele>187.0</ele>
        <time>2021-05-30T18:32:03Z</time>
      </trkpt>
      <trkpt lat="-12.1535150" lon="-76.8493610">
        <ele>186.6</ele>
        <time>2021-05-30T18:32:05Z</time>
      </trkpt>
      <trkpt lat="-12.1535970" lon="-76.8493760">
        <ele>186.5</ele>
        <time>2021-05-30T18:32:06Z</time>
      </trkpt>
      <trkpt lat="-12.1537560" lon="-76.8494320">
        <ele>186.0</ele>
        <time>2021-05-30T18:32:08Z</time>
      </trkpt>
      <trkpt lat="-12.1539060" lon="-76.8494950">
        <ele>185.6</ele>
        <time>2021-05-30T18:32:10Z</time>
      </trkpt>
      <trkpt lat="-12.1540370" lon="-76.8495830">
        <ele>185.0</ele>
        <time>2021-05-30T18:32:12Z</time>
      </trkpt>
      <trkpt lat="-12.1541170" lon="-76.8497570">
        <ele>184.2</ele>
        <time>2021-05-30T18:32:14Z</time>
      </trkpt>
      <trkpt lat="-12.1541560" lon="-76.8498540">
        <ele>183.7</ele>
        <time>2021-05-30T18:32:15Z</time>
      </trkpt>
      <trkpt lat="-12.1542130" lon="-76.8500500">
        <ele>182.7</ele>
        <time>2021-05-30T18:32:17Z</time>
      </trkpt>
      <trkpt lat="-12.1542460" lon="-76.8501540">
        <ele>182.2</ele>
        <time>2021-05-30T18:32:18Z</time>
      </trkpt>
      <trkpt lat="-12.1543270" lon="-76.8503320">
        <ele>181.2</ele>
        <time>2021-05-30T18:32:20Z</time>
      </trkpt>
      <trkpt lat="-12.1543720" lon="-76.8504200">
        <ele>180.8</ele>
        <time>2021-05-30T18:32:21Z</time>
      </trkpt>
      <trkpt lat="-12.1544230" lon="-76.8505060">
        <ele>180.5</ele>
        <time>2021-05-30T18:32:22Z</time>
      </trkpt>
      <trkpt lat="-12.1545290" lon="-76.8506530">
        <ele>180.0</ele>
        <time>2021-05-30T18:32:24Z</time>
      </trkpt>
      <trkpt lat="-12.1546310" lon="-76.8507820">
        <ele>179.8</ele>
        <time>2021-05-30T18:32:26Z</time>
      </trkpt>
      <trkpt lat="-12.1546830" lon="-76.8508400">
        <ele>179.7</ele>
        <time>2021-05-30T18:32:27Z</time>
      </trkpt>
      <trkpt lat="-12.1548040" lon="-76.8509410">
        <ele>179.7</ele>
        <time>2021-05-30T18:32:29Z</time>
      </trkpt>
      <trkpt lat="-12.1549330" lon="-76.8510290">
        <ele>179.7</ele>
        <time>2021-05-30T18:32:31Z</time>
      </trkpt>
      <trkpt lat="-12.1549870" lon="-76.8510770">
        <ele>179.7</ele>
        <time>2021-05-30T18:32:32Z</time>
      </trkpt>
      <trkpt lat="-12.1550390" lon="-76.8511160">
        <ele>179.7</ele>
        <time>2021-05-30T18:32:33Z</time>
      </trkpt>
      <trkpt lat="-12.1551320" lon="-76.8511790">
        <ele>179.7</ele>
        <time>2021-05-30T18:32:35Z</time>
      </trkpt>
      <trkpt lat="-12.1551780" lon="-76.8512160">
        <ele>179.7</ele>
        <time>2021-05-30T18:32:36Z</time>
      </trkpt>
      <trkpt lat="-12.1552760" lon="-76.8512970">
        <ele>179.7</ele>
        <time>2021-05-30T18:32:38Z</time>
      </trkpt>
      <trkpt lat="-12.1553900" lon="-76.8513620">
        <ele>179.7</ele>
        <time>2021-05-30T18:32:40Z</time>
      </trkpt>
      <trkpt lat="-12.1554400" lon="-76.8513960">
        <ele>179.7</ele>
        <time>2021-05-30T18:32:41Z</time>
      </trkpt>
      <trkpt lat="-12.1554830" lon="-76.8514330">
        <ele>179.7</ele>
        <time>2021-05-30T18:32:42Z</time>
      </trkpt>
      <trkpt lat="-12.1555670" lon="-76.8515040">
        <ele>179.6</ele>
        <time>2021-05-30T18:32:44Z</time>
      </trkpt>
      <trkpt lat="-12.1556700" lon="-76.8515810">
        <ele>179.6</ele>
        <time>2021-05-30T18:32:46Z</time>
      </trkpt>
      <trkpt lat="-12.1557590" lon="-76.8516560">
        <ele>179.5</ele>
        <time>2021-05-30T18:32:48Z</time>
      </trkpt>
      <trkpt lat="-12.1558800" lon="-76.8517290">
        <ele>179.5</ele>
        <time>2021-05-30T18:32:50Z</time>
      </trkpt>
      <trkpt lat="-12.1559480" lon="-76.8517720">
        <ele>179.4</ele>
        <time>2021-05-30T18:32:51Z</time>
      </trkpt>
      <trkpt lat="-12.1560050" lon="-76.8518180">
        <ele>179.4</ele>
        <time>2021-05-30T18:32:52Z</time>
      </trkpt>
      <trkpt lat="-12.1560940" lon="-76.8519040">
        <ele>179.2</ele>
        <time>2021-05-30T18:32:54Z</time>
      </trkpt>
      <trkpt lat="-12.1561410" lon="-76.8519530">
        <ele>179.2</ele>
        <time>2021-05-30T18:32:55Z</time>
      </trkpt>
      <trkpt lat="-12.1562340" lon="-76.8520560">
        <ele>179.1</ele>
        <time>2021-05-30T18:32:57Z</time>
      </trkpt>
      <trkpt lat="-12.1562740" lon="-76.8521160">
        <ele>179.0</ele>
        <time>2021-05-30T18:32:58Z</time>
      </trkpt>
      <trkpt lat="-12.1563420" lon="-76.8522470">
        <ele>179.0</ele>
        <time>2021-05-30T18:33:00Z</time>
      </trkpt>
      <trkpt lat="-12.1563750" lon="-76.8523090">
        <ele>178.9</ele>
        <time>2021-05-30T18:33:01Z</time>
      </trkpt>
      <trkpt lat="-12.1564070" lon="-76.8523650">
        <ele>178.9</ele>
        <time>2021-05-30T18:33:02Z</time>
      </trkpt>
      <trkpt lat="-12.1564430" lon="-76.8524270">
        <ele>178.9</ele>
        <time>2021-05-30T18:33:03Z</time>
      </trkpt>
      <trkpt lat="-12.1565070" lon="-76.8525400">
        <ele>178.8</ele>
        <time>2021-05-30T18:33:05Z</time>
      </trkpt>
      <trkpt lat="-12.1565400" lon="-76.8526080">
        <ele>178.7</ele>
        <time>2021-05-30T18:33:06Z</time>
      </trkpt>
      <trkpt lat="-12.1566120" lon="-76.8527190">
        <ele>178.6</ele>
        <time>2021-05-30T18:33:08Z</time>
      </trkpt>
      <trkpt lat="-12.1566490" lon="-76.8527670">
        <ele>178.5</ele>
        <time>2021-05-30T18:33:09Z</time>
      </trkpt>
      <trkpt lat="-12.1567400" lon="-76.8528680">
        <ele>178.4</ele>
        <time>2021-05-30T18:33:11Z</time>
      </trkpt>
      <trkpt lat="-12.1567980" lon="-76.8529280">
        <ele>178.3</ele>
        <time>2021-05-30T18:33:12Z</time>
      </trkpt>
      <trkpt lat="-12.1569010" lon="-76.8530170">
        <ele>178.1</ele>
        <time>2021-05-30T18:33:14Z</time>
      </trkpt>
      <trkpt lat="-12.1569510" lon="-76.8530610">
        <ele>178.1</ele>
        <time>2021-05-30T18:33:15Z</time>
      </trkpt>
      <trkpt lat="-12.1570480" lon="-76.8531420">
        <ele>177.9</ele>
        <time>2021-05-30T18:33:17Z</time>
      </trkpt>
      <trkpt lat="-12.1570950" lon="-76.8531820">
        <ele>177.9</ele>
        <time>2021-05-30T18:33:18Z</time>
      </trkpt>
      <trkpt lat="-12.1571950" lon="-76.8532670">
        <ele>177.8</ele>
        <time>2021-05-30T18:33:20Z</time>
      </trkpt>
      <trkpt lat="-12.1573070" lon="-76.8533610">
        <ele>177.6</ele>
        <time>2021-05-30T18:33:22Z</time>
      </trkpt>
      <trkpt lat="-12.1574230" lon="-76.8534570">
        <ele>177.5</ele>
        <time>2021-05-30T18:33:24Z</time>
      </trkpt>
      <trkpt lat="-12.1574800" lon="-76.8535010">
        <ele>177.4</ele>
        <time>2021-05-30T18:33:25Z</time>
      </trkpt>
      <trkpt lat="-12.1575880" lon="-76.8535740">
        <ele>177.3</ele>
        <time>2021-05-30T18:33:27Z</time>
      </trkpt>
      <trkpt lat="-12.1577050" lon="-76.8536470">
        <ele>177.1</ele>
        <time>2021-05-30T18:33:29Z</time>
      </trkpt>
      <trkpt lat="-12.1577640" lon="-76.8536860">
        <ele>177.0</ele>
        <time>2021-05-30T18:33:30Z</time>
      </trkpt>
      <trkpt lat="-12.1578790" lon="-76.8537810">
        <ele>176.8</ele>
        <time>2021-05-30T18:33:32Z</time>
      </trkpt>
      <trkpt lat="-12.1579290" lon="-76.8538280">
        <ele>176.6</ele>
        <time>2021-05-30T18:33:33Z</time>
      </trkpt>
      <trkpt lat="-12.1580240" lon="-76.8539180">
        <ele>176.3</ele>
        <time>2021-05-30T18:33:35Z</time>
      </trkpt>
      <trkpt lat="-12.1581100" lon="-76.8540030">
        <ele>176.0</ele>
        <time>2021-05-30T18:33:37Z</time>
      </trkpt>
      <trkpt lat="-12.1581510" lon="-76.8540360">
        <ele>175.9</ele>
        <time>2021-05-30T18:33:38Z</time>
      </trkpt>
      <trkpt lat="-12.1581980" lon="-76.8540710">
        <ele>175.7</ele>
        <time>2021-05-30T18:33:39Z</time>
      </trkpt>
      <trkpt lat="-12.1582520" lon="-76.8541120">
        <ele>175.5</ele>
        <time>2021-05-30T18:33:40Z</time>
      </trkpt>
      <trkpt lat="-12.1583040" lon="-76.8541570">
        <ele>175.4</ele>
        <time>2021-05-30T18:33:41Z</time>
      </trkpt>
      <trkpt lat="-12.1584120" lon="-76.8542600">
        <ele>175.0</ele>
        <time>2021-05-30T18:33:43Z</time>
      </trkpt>
      <trkpt lat="-12.1584760" lon="-76.8543060">
        <ele>174.7</ele>
        <time>2021-05-30T18:33:44Z</time>
      </trkpt>
      <trkpt lat="-12.1586310" lon="-76.8543620">
        <ele>174.2</ele>
        <time>2021-05-30T18:33:46Z</time>
      </trkpt>
      <trkpt lat="-12.1587080" lon="-76.8543740">
        <ele>173.9</ele>
        <time>2021-05-30T18:33:47Z</time>
      </trkpt>
      <trkpt lat="-12.1587800" lon="-76.8543740">
        <ele>173.7</ele>
        <time>2021-05-30T18:33:48Z</time>
      </trkpt>
      <trkpt lat="-12.1589260" lon="-76.8543490">
        <ele>173.0</ele>
        <time>2021-05-30T18:33:50Z</time>
      </trkpt>
      <trkpt lat="-12.1590570" lon="-76.8543140">
        <ele>172.4</ele>
        <time>2021-05-30T18:33:52Z</time>
      </trkpt>
      <trkpt lat="-12.1591880" lon="-76.8542700">
        <ele>171.7</ele>
        <time>2021-05-30T18:33:54Z</time>
      </trkpt>
      <trkpt lat="-12.1592490" lon="-76.8542530">
        <ele>170.6</ele>
        <time>2021-05-30T18:33:55Z</time>
      </trkpt>
      <trkpt lat="-12.1593770" lon="-76.8542390">
        <ele>169.9</ele>
        <time>2021-05-30T18:33:57Z</time>
      </trkpt>
      <trkpt lat="-12.1594420" lon="-76.8542450">
        <ele>169.5</ele>
        <time>2021-05-30T18:33:58Z</time>
      </trkpt>
      <trkpt lat="-12.1595770" lon="-76.8542860">
        <ele>168.8</ele>
        <time>2021-05-30T18:34:00Z</time>
      </trkpt>
      <trkpt lat="-12.1597020" lon="-76.8543320">
        <ele>168.2</ele>
        <time>2021-05-30T18:34:02Z</time>
      </trkpt>
      <trkpt lat="-12.1598200" lon="-76.8543850">
        <ele>167.6</ele>
        <time>2021-05-30T18:34:04Z</time>
      </trkpt>
      <trkpt lat="-12.1598750" lon="-76.8544130">
        <ele>167.4</ele>
        <time>2021-05-30T18:34:05Z</time>
      </trkpt>
      <trkpt lat="-12.1599360" lon="-76.8544420">
        <ele>167.1</ele>
        <time>2021-05-30T18:34:06Z</time>
      </trkpt>
      <trkpt lat="-12.1600800" lon="-76.8544920">
        <ele>166.6</ele>
        <time>2021-05-30T18:34:08Z</time>
      </trkpt>
      <trkpt lat="-12.1602110" lon="-76.8545400">
        <ele>166.2</ele>
        <time>2021-05-30T18:34:10Z</time>
      </trkpt>
      <trkpt lat="-12.1603420" lon="-76.8545950">
        <ele>165.7</ele>
        <time>2021-05-30T18:34:12Z</time>
      </trkpt>
      <trkpt lat="-12.1604800" lon="-76.8546480">
        <ele>165.3</ele>
        <time>2021-05-30T18:34:14Z</time>
      </trkpt>
      <trkpt lat="-12.1605550" lon="-76.8546750">
        <ele>165.1</ele>
        <time>2021-05-30T18:34:15Z</time>
      </trkpt>
      <trkpt lat="-12.1607110" lon="-76.8547300">
        <ele>164.8</ele>
        <time>2021-05-30T18:34:17Z</time>
      </trkpt>
      <trkpt lat="-12.1607900" lon="-76.8547570">
        <ele>164.6</ele>
        <time>2021-05-30T18:34:18Z</time>
      </trkpt>
      <trkpt lat="-12.1609520" lon="-76.8547930">
        <ele>164.2</ele>
        <time>2021-05-30T18:34:20Z</time>
      </trkpt>
      <trkpt lat="-12.1610340" lon="-76.8548120">
        <ele>164.0</ele>
        <time>2021-05-30T18:34:21Z</time>
      </trkpt>
      <trkpt lat="-12.1611190" lon="-76.8548350">
        <ele>163.9</ele>
        <time>2021-05-30T18:34:22Z</time>
      </trkpt>
      <trkpt lat="-12.1612860" lon="-76.8549000">
        <ele>163.5</ele>
        <time>2021-05-30T18:34:24Z</time>
      </trkpt>
      <trkpt lat="-12.1614560" lon="-76.8549490">
        <ele>163.3</ele>
        <time>2021-05-30T18:34:26Z</time>
      </trkpt>
      <trkpt lat="-12.1615350" lon="-76.8549650">
        <ele>163.2</ele>
        <time>2021-05-30T18:34:27Z</time>
      </trkpt>
      <trkpt lat="-12.1616840" lon="-76.8550060">
        <ele>163.1</ele>
        <time>2021-05-30T18:34:29Z</time>
      </trkpt>
      <trkpt lat="-12.1617540" lon="-76.8550320">
        <ele>163.0</ele>
        <time>2021-05-30T18:34:30Z</time>
      </trkpt>
      <trkpt lat="-12.1618850" lon="-76.8550880">
        <ele>162.9</ele>
        <time>2021-05-30T18:34:32Z</time>
      </trkpt>
      <trkpt lat="-12.1619520" lon="-76.8551200">
        <ele>162.8</ele>
        <time>2021-05-30T18:34:33Z</time>
      </trkpt>
      <trkpt lat="-12.1620690" lon="-76.8551770">
        <ele>162.8</ele>
        <time>2021-05-30T18:34:35Z</time>
      </trkpt>
      <trkpt lat="-12.1622010" lon="-76.8552140">
        <ele>162.7</ele>
        <time>2021-05-30T18:34:37Z</time>
      </trkpt>
      <trkpt lat="-12.1622690" lon="-76.8552330">
        <ele>162.7</ele>
        <time>2021-05-30T18:34:38Z</time>
      </trkpt>
      <trkpt lat="-12.1624060" lon="-76.8552780">
        <ele>162.6</ele>
        <time>2021-05-30T18:34:40Z</time>
      </trkpt>
      <trkpt lat="-12.1625210" lon="-76.8553520">
        <ele>162.5</ele>
        <time>2021-05-30T18:34:42Z</time>
      </trkpt>
      <trkpt lat="-12.1626360" lon="-76.8554360">
        <ele>162.4</ele>
        <time>2021-05-30T18:34:44Z</time>
      </trkpt>
      <trkpt lat="-12.1627740" lon="-76.8555320">
        <ele>162.1</ele>
        <time>2021-05-30T18:34:46Z</time>
      </trkpt>
      <trkpt lat="-12.1628490" lon="-76.8555820">
        <ele>162.0</ele>
        <time>2021-05-30T18:34:47Z</time>
      </trkpt>
      <trkpt lat="-12.1629180" lon="-76.8556310">
        <ele>161.8</ele>
        <time>2021-05-30T18:34:48Z</time>
      </trkpt>
      <trkpt lat="-12.1630500" lon="-76.8557230">
        <ele>161.5</ele>
        <time>2021-05-30T18:34:50Z</time>
      </trkpt>
      <trkpt lat="-12.1631210" lon="-76.8557660">
        <ele>161.4</ele>
        <time>2021-05-30T18:34:51Z</time>
      </trkpt>
      <trkpt lat="-12.1632670" lon="-76.8558480">
        <ele>161.0</ele>
        <time>2021-05-30T18:34:53Z</time>
      </trkpt>
      <trkpt lat="-12.1633360" lon="-76.8558920">
        <ele>160.9</ele>
        <time>2021-05-30T18:34:54Z</time>
      </trkpt>
      <trkpt lat="-12.1634090" lon="-76.8559470">
        <ele>160.7</ele>
        <time>2021-05-30T18:34:55Z</time>
      </trkpt>
      <trkpt lat="-12.1635480" lon="-76.8560260">
        <ele>160.4</ele>
        <time>2021-05-30T18:34:57Z</time>
      </trkpt>
      <trkpt lat="-12.1637080" lon="-76.8561090">
        <ele>160.0</ele>
        <time>2021-05-30T18:34:59Z</time>
      </trkpt>
      <trkpt lat="-12.1637980" lon="-76.8561570">
        <ele>159.9</ele>
        <time>2021-05-30T18:35:00Z</time>
      </trkpt>
      <trkpt lat="-12.1639670" lon="-76.8562400">
        <ele>159.5</ele>
        <time>2021-05-30T18:35:02Z</time>
      </trkpt>
      <trkpt lat="-12.1640430" lon="-76.8562860">
        <ele>159.4</ele>
        <time>2021-05-30T18:35:03Z</time>
      </trkpt>
      <trkpt lat="-12.1641810" lon="-76.8563900">
        <ele>159.2</ele>
        <time>2021-05-30T18:35:05Z</time>
      </trkpt>
      <trkpt lat="-12.1642460" lon="-76.8564360">
        <ele>159.1</ele>
        <time>2021-05-30T18:35:06Z</time>
      </trkpt>
      <trkpt lat="-12.1643720" lon="-76.8565280">
        <ele>159.0</ele>
        <time>2021-05-30T18:35:08Z</time>
      </trkpt>
      <trkpt lat="-12.1644900" lon="-76.8566160">
        <ele>159.0</ele>
        <time>2021-05-30T18:35:10Z</time>
      </trkpt>
      <trkpt lat="-12.1645490" lon="-76.8566690">
        <ele>158.9</ele>
        <time>2021-05-30T18:35:11Z</time>
      </trkpt>
      <trkpt lat="-12.1646350" lon="-76.8567730">
        <ele>158.9</ele>
        <time>2021-05-30T18:35:13Z</time>
      </trkpt>
      <trkpt lat="-12.1646700" lon="-76.8568240">
        <ele>158.9</ele>
        <time>2021-05-30T18:35:14Z</time>
      </trkpt>
      <trkpt lat="-12.1647050" lon="-76.8568760">
        <ele>158.8</ele>
        <time>2021-05-30T18:35:15Z</time>
      </trkpt>
      <trkpt lat="-12.1647420" lon="-76.8569380">
        <ele>158.8</ele>
        <time>2021-05-30T18:35:16Z</time>
      </trkpt>
      <trkpt lat="-12.1648090" lon="-76.8570570">
        <ele>158.9</ele>
        <time>2021-05-30T18:35:18Z</time>
      </trkpt>
      <trkpt lat="-12.1648760" lon="-76.8571590">
        <ele>158.9</ele>
        <time>2021-05-30T18:35:20Z</time>
      </trkpt>
      <trkpt lat="-12.1649520" lon="-76.8572610">
        <ele>158.9</ele>
        <time>2021-05-30T18:35:22Z</time>
      </trkpt>
      <trkpt lat="-12.1650410" lon="-76.8573450">
        <ele>158.9</ele>
        <time>2021-05-30T18:35:24Z</time>
      </trkpt>
      <trkpt lat="-12.1650870" lon="-76.8573810">
        <ele>158.8</ele>
        <time>2021-05-30T18:35:25Z</time>
      </trkpt>
      <trkpt lat="-12.1651300" lon="-76.8574190">
        <ele>158.7</ele>
        <time>2021-05-30T18:35:26Z</time>
      </trkpt>
      <trkpt lat="-12.1651970" lon="-76.8575010">
        <ele>158.5</ele>
        <time>2021-05-30T18:35:28Z</time>
      </trkpt>
      <trkpt lat="-12.1652160" lon="-76.8575510">
        <ele>158.3</ele>
        <time>2021-05-30T18:35:29Z</time>
      </trkpt>
      <trkpt lat="-12.1652920" lon="-76.8576700">
        <ele>157.7</ele>
        <time>2021-05-30T18:35:31Z</time>
      </trkpt>
      <trkpt lat="-12.1653790" lon="-76.8578090">
        <ele>157.1</ele>
        <time>2021-05-30T18:35:33Z</time>
      </trkpt>
      <trkpt lat="-12.1654830" lon="-76.8579390">
        <ele>156.6</ele>
        <time>2021-05-30T18:35:35Z</time>
      </trkpt>
      <trkpt lat="-12.1655360" lon="-76.8579980">
        <ele>156.5</ele>
        <time>2021-05-30T18:35:36Z</time>
      </trkpt>
      <trkpt lat="-12.1656650" lon="-76.8580980">
        <ele>156.2</ele>
        <time>2021-05-30T18:35:38Z</time>
      </trkpt>
      <trkpt lat="-12.1658160" lon="-76.8581660">
        <ele>156.0</ele>
        <time>2021-05-30T18:35:40Z</time>
      </trkpt>
      <trkpt lat="-12.1658890" lon="-76.8581930">
        <ele>155.9</ele>
        <time>2021-05-30T18:35:41Z</time>
      </trkpt>
      <trkpt lat="-12.1659540" lon="-76.8582190">
        <ele>155.8</ele>
        <time>2021-05-30T18:35:42Z</time>
      </trkpt>
      <trkpt lat="-12.1660830" lon="-76.8582800">
        <ele>155.7</ele>
        <time>2021-05-30T18:35:44Z</time>
      </trkpt>
      <trkpt lat="-12.1661480" lon="-76.8583180">
        <ele>155.6</ele>
        <time>2021-05-30T18:35:45Z</time>
      </trkpt>
      <trkpt lat="-12.1662960" lon="-76.8583860">
        <ele>155.5</ele>
        <time>2021-05-30T18:35:47Z</time>
      </trkpt>
      <trkpt lat="-12.1664430" lon="-76.8584310">
        <ele>155.3</ele>
        <time>2021-05-30T18:35:49Z</time>
      </trkpt>
      <trkpt lat="-12.1665830" lon="-76.8584740">
        <ele>155.0</ele>
        <time>2021-05-30T18:35:51Z</time>
      </trkpt>
      <trkpt lat="-12.1666510" lon="-76.8584920">
        <ele>154.9</ele>
        <time>2021-05-30T18:35:52Z</time>
      </trkpt>
      <trkpt lat="-12.1668010" lon="-76.8585210">
        <ele>154.5</ele>
        <time>2021-05-30T18:35:54Z</time>
      </trkpt>
      <trkpt lat="-12.1668610" lon="-76.8585320">
        <ele>154.4</ele>
        <time>2021-05-30T18:35:55Z</time>
      </trkpt>
      <trkpt lat="-12.1669050" lon="-76.8585320">
        <ele>154.3</ele>
        <time>2021-05-30T18:35:56Z</time>
      </trkpt>
      <trkpt lat="-12.1669890" lon="-76.8585260">
        <ele>154.2</ele>
        <time>2021-05-30T18:35:58Z</time>
      </trkpt>
      <trkpt lat="-12.1670380" lon="-76.8585270">
        <ele>154.1</ele>
        <time>2021-05-30T18:35:59Z</time>
      </trkpt>
      <trkpt lat="-12.1670840" lon="-76.8585280">
        <ele>154.0</ele>
        <time>2021-05-30T18:36:00Z</time>
      </trkpt>
      <trkpt lat="-12.1671700" lon="-76.8585370">
        <ele>153.8</ele>
        <time>2021-05-30T18:36:02Z</time>
      </trkpt>
      <trkpt lat="-12.1672720" lon="-76.8585560">
        <ele>153.6</ele>
        <time>2021-05-30T18:36:04Z</time>
      </trkpt>
      <trkpt lat="-12.1673710" lon="-76.8585780">
        <ele>153.3</ele>
        <time>2021-05-30T18:36:06Z</time>
      </trkpt>
      <trkpt lat="-12.1674650" lon="-76.8586050">
        <ele>153.1</ele>
        <time>2021-05-30T18:36:08Z</time>
      </trkpt>
      <trkpt lat="-12.1675150" lon="-76.8586170">
        <ele>153.0</ele>
        <time>2021-05-30T18:36:09Z</time>
      </trkpt>
      <trkpt lat="-12.1676320" lon="-76.8586380">
        <ele>152.7</ele>
        <time>2021-05-30T18:36:11Z</time>
      </trkpt>
      <trkpt lat="-12.1677460" lon="-76.8586880">
        <ele>152.5</ele>
        <time>2021-05-30T18:36:13Z</time>
      </trkpt>
      <trkpt lat="-12.1678000" lon="-76.8587180">
        <ele>152.4</ele>
        <time>2021-05-30T18:36:14Z</time>
      </trkpt>
      <trkpt lat="-12.1678540" lon="-76.8587470">
        <ele>152.2</ele>
        <time>2021-05-30T18:36:15Z</time>
      </trkpt>
      <trkpt lat="-12.1679030" lon="-76.8587750">
        <ele>152.1</ele>
        <time>2021-05-30T18:36:16Z</time>
      </trkpt>
      <trkpt lat="-12.1679960" lon="-76.8588230">
        <ele>151.9</ele>
        <time>2021-05-30T18:36:18Z</time>
      </trkpt>
      <trkpt lat="-12.1680930" lon="-76.8588890">
        <ele>151.6</ele>
        <time>2021-05-30T18:36:20Z</time>
      </trkpt>
      <trkpt lat="-12.1681400" lon="-76.8589390">
        <ele>151.4</ele>
        <time>2021-05-30T18:36:21Z</time>
      </trkpt>
      <trkpt lat="-12.1681950" lon="-76.8589800">
        <ele>151.3</ele>
        <time>2021-05-30T18:36:22Z</time>
      </trkpt>
      <trkpt lat="-12.1683050" lon="-76.8590640">
        <ele>151.1</ele>
        <time>2021-05-30T18:36:24Z</time>
      </trkpt>
      <trkpt lat="-12.1683660" lon="-76.8591060">
        <ele>151.0</ele>
        <time>2021-05-30T18:36:25Z</time>
      </trkpt>
      <trkpt lat="-12.1684920" lon="-76.8591880">
        <ele>150.9</ele>
        <time>2021-05-30T18:36:27Z</time>
      </trkpt>
      <trkpt lat="-12.1685570" lon="-76.8592300">
        <ele>150.8</ele>
        <time>2021-05-30T18:36:28Z</time>
      </trkpt>
      <trkpt lat="-12.1686760" lon="-76.8593380">
        <ele>150.7</ele>
        <time>2021-05-30T18:36:30Z</time>
      </trkpt>
      <trkpt lat="-12.1687350" lon="-76.8593910">
        <ele>150.7</ele>
        <time>2021-05-30T18:36:31Z</time>
      </trkpt>
      <trkpt lat="-12.1688410" lon="-76.8594900">
        <ele>150.7</ele>
        <time>2021-05-30T18:36:33Z</time>
      </trkpt>
      <trkpt lat="-12.1689560" lon="-76.8595660">
        <ele>150.7</ele>
        <time>2021-05-30T18:36:35Z</time>
      </trkpt>
      <trkpt lat="-12.1690120" lon="-76.8596110">
        <ele>150.7</ele>
        <time>2021-05-30T18:36:36Z</time>
      </trkpt>
      <trkpt lat="-12.1691090" lon="-76.8596930">
        <ele>150.6</ele>
        <time>2021-05-30T18:36:38Z</time>
      </trkpt>
      <trkpt lat="-12.1692150" lon="-76.8597470">
        <ele>150.5</ele>
        <time>2021-05-30T18:36:40Z</time>
      </trkpt>
      <trkpt lat="-12.1692790" lon="-76.8597670">
        <ele>150.4</ele>
        <time>2021-05-30T18:36:41Z</time>
      </trkpt>
      <trkpt lat="-12.1693980" lon="-76.8598070">
        <ele>150.1</ele>
        <time>2021-05-30T18:36:43Z</time>
      </trkpt>
      <trkpt lat="-12.1694590" lon="-76.8598310">
        <ele>150.0</ele>
        <time>2021-05-30T18:36:44Z</time>
      </trkpt>
      <trkpt lat="-12.1695800" lon="-76.8598880">
        <ele>149.7</ele>
        <time>2021-05-30T18:36:46Z</time>
      </trkpt>
      <trkpt lat="-12.1696940" lon="-76.8599820">
        <ele>149.4</ele>
        <time>2021-05-30T18:36:48Z</time>
      </trkpt>
      <trkpt lat="-12.1697900" lon="-76.8600840">
        <ele>149.0</ele>
        <time>2021-05-30T18:36:50Z</time>
      </trkpt>
      <trkpt lat="-12.1698330" lon="-76.8601340">
        <ele>148.8</ele>
        <time>2021-05-30T18:36:51Z</time>
      </trkpt>
      <trkpt lat="-12.1699090" lon="-76.8602250">
        <ele>148.5</ele>
        <time>2021-05-30T18:36:53Z</time>
      </trkpt>
      <trkpt lat="-12.1699560" lon="-76.8602720">
        <ele>148.4</ele>
        <time>2021-05-30T18:36:54Z</time>
      </trkpt>
      <trkpt lat="-12.1700140" lon="-76.8603240">
        <ele>148.2</ele>
        <time>2021-05-30T18:36:55Z</time>
      </trkpt>
      <trkpt lat="-12.1701060" lon="-76.8604130">
        <ele>148.0</ele>
        <time>2021-05-30T18:36:57Z</time>
      </trkpt>
      <trkpt lat="-12.1701560" lon="-76.8604510">
        <ele>147.9</ele>
        <time>2021-05-30T18:36:58Z</time>
      </trkpt>
      <trkpt lat="-12.1702640" lon="-76.8605250">
        <ele>147.9</ele>
        <time>2021-05-30T18:37:00Z</time>
      </trkpt>
      <trkpt lat="-12.1704000" lon="-76.8605920">
        <ele>147.9</ele>
        <time>2021-05-30T18:37:02Z</time>
      </trkpt>
      <trkpt lat="-12.1704720" lon="-76.8606160">
        <ele>147.9</ele>
        <time>2021-05-30T18:37:03Z</time>
      </trkpt>
      <trkpt lat="-12.1705430" lon="-76.8606380">
        <ele>147.9</ele>
        <time>2021-05-30T18:37:04Z</time>
      </trkpt>
      <trkpt lat="-12.1706120" lon="-76.8606570">
        <ele>148.0</ele>
        <time>2021-05-30T18:37:05Z</time>
      </trkpt>
      <trkpt lat="-12.1706830" lon="-76.8606810">
        <ele>148.0</ele>
        <time>2021-05-30T18:37:06Z</time>
      </trkpt>
      <trkpt lat="-12.1708230" lon="-76.8607200">
        <ele>147.9</ele>
        <time>2021-05-30T18:37:08Z</time>
      </trkpt>
      <trkpt lat="-12.1708940" lon="-76.8607400">
        <ele>147.8</ele>
        <time>2021-05-30T18:37:09Z</time>
      </trkpt>
      <trkpt lat="-12.1709480" lon="-76.8607560">
        <ele>147.8</ele>
        <time>2021-05-30T18:37:10Z</time>
      </trkpt>
      <trkpt lat="-12.1710430" lon="-76.8607900">
        <ele>147.6</ele>
        <time>2021-05-30T18:37:12Z</time>
      </trkpt>
      <trkpt lat="-12.1710900" lon="-76.8608100">
        <ele>147.5</ele>
        <time>2021-05-30T18:37:13Z</time>
      </trkpt>
      <trkpt lat="-12.1711390" lon="-76.8608380">
        <ele>147.4</ele>
        <time>2021-05-30T18:37:14Z</time>
      </trkpt>
      <trkpt lat="-12.1712040" lon="-76.8608690">
        <ele>147.3</ele>
        <time>2021-05-30T18:37:15Z</time>
      </trkpt>
      <trkpt lat="-12.1713150" lon="-76.8609420">
        <ele>147.1</ele>
        <time>2021-05-30T18:37:17Z</time>
      </trkpt>
      <trkpt lat="-12.1714010" lon="-76.8610450">
        <ele>147.6</ele>
        <time>2021-05-30T18:37:19Z</time>
      </trkpt>
      <trkpt lat="-12.1714620" lon="-76.8611830">
        <ele>147.9</ele>
        <time>2021-05-30T18:37:21Z</time>
      </trkpt>
      <trkpt lat="-12.1714670" lon="-76.8612500">
        <ele>148.1</ele>
        <time>2021-05-30T18:37:22Z</time>
      </trkpt>
      <trkpt lat="-12.1714700" lon="-76.8613170">
        <ele>148.2</ele>
        <time>2021-05-30T18:37:23Z</time>
      </trkpt>
      <trkpt lat="-12.1714480" lon="-76.8614410">
        <ele>148.4</ele>
        <time>2021-05-30T18:37:25Z</time>
      </trkpt>
      <trkpt lat="-12.1714350" lon="-76.8615060">
        <ele>148.7</ele>
        <time>2021-05-30T18:37:26Z</time>
      </trkpt>
      <trkpt lat="-12.1713840" lon="-76.8616140">
        <ele>149.3</ele>
        <time>2021-05-30T18:37:28Z</time>
      </trkpt>
      <trkpt lat="-12.1713280" lon="-76.8617120">
        <ele>149.9</ele>
        <time>2021-05-30T18:37:30Z</time>
      </trkpt>
      <trkpt lat="-12.1712870" lon="-76.8617980">
        <ele>150.5</ele>
        <time>2021-05-30T18:37:32Z</time>
      </trkpt>
      <trkpt lat="-12.1712760" lon="-76.8618300">
        <ele>150.7</ele>
        <time>2021-05-30T18:37:33Z</time>
      </trkpt>
      <trkpt lat="-12.1712500" lon="-76.8619220">
        <ele>151.2</ele>
        <time>2021-05-30T18:37:35Z</time>
      </trkpt>
      <trkpt lat="-12.1712300" lon="-76.8619700">
        <ele>151.5</ele>
        <time>2021-05-30T18:37:36Z</time>
      </trkpt>
      <trkpt lat="-12.1712010" lon="-76.8620630">
        <ele>151.9</ele>
        <time>2021-05-30T18:37:38Z</time>
      </trkpt>
      <trkpt lat="-12.1711820" lon="-76.8620940">
        <ele>152.1</ele>
        <time>2021-05-30T18:37:39Z</time>
      </trkpt>
      <trkpt lat="-12.1711680" lon="-76.8621890">
        <ele>152.6</ele>
        <time>2021-05-30T18:37:41Z</time>
      </trkpt>
      <trkpt lat="-12.1711630" lon="-76.8623040">
        <ele>153.2</ele>
        <time>2021-05-30T18:37:43Z</time>
      </trkpt>
      <trkpt lat="-12.1711460" lon="-76.8623590">
        <ele>153.4</ele>
        <time>2021-05-30T18:37:44Z</time>
      </trkpt>
      <trkpt lat="-12.1711270" lon="-76.8624090">
        <ele>153.7</ele>
        <time>2021-05-30T18:37:45Z</time>
      </trkpt>
      <trkpt lat="-12.1710830" lon="-76.8625020">
        <ele>154.2</ele>
        <time>2021-05-30T18:37:47Z</time>
      </trkpt>
      <trkpt lat="-12.1710640" lon="-76.8625710">
        <ele>154.5</ele>
        <time>2021-05-30T18:37:49Z</time>
      </trkpt>
      <trkpt lat="-12.1710370" lon="-76.8626090">
        <ele>154.6</ele>
        <time>2021-05-30T18:37:50Z</time>
      </trkpt>
      <trkpt lat="-12.1710160" lon="-76.8626140">
        <ele>154.7</ele>
        <time>2021-05-30T18:37:51Z</time>
      </trkpt>
      <trkpt lat="-12.1709690" lon="-76.8626810">
        <ele>155.0</ele>
        <time>2021-05-30T18:37:53Z</time>
      </trkpt>
      <trkpt lat="-12.1709460" lon="-76.8627210">
        <ele>155.1</ele>
        <time>2021-05-30T18:37:54Z</time>
      </trkpt>
      <trkpt lat="-12.1709030" lon="-76.8627740">
        <ele>155.3</ele>
        <time>2021-05-30T18:37:55Z</time>
      </trkpt>
      <trkpt lat="-12.1708730" lon="-76.8628200">
        <ele>155.5</ele>
        <time>2021-05-30T18:37:56Z</time>
      </trkpt>
      <trkpt lat="-12.1708260" lon="-76.8629090">
        <ele>155.7</ele>
        <time>2021-05-30T18:37:58Z</time>
      </trkpt>
      <trkpt lat="-12.1708010" lon="-76.8629520">
        <ele>155.8</ele>
        <time>2021-05-30T18:37:59Z</time>
      </trkpt>
      <trkpt lat="-12.1707550" lon="-76.8630420">
        <ele>156.1</ele>
        <time>2021-05-30T18:38:01Z</time>
      </trkpt>
      <trkpt lat="-12.1706990" lon="-76.8631300">
        <ele>156.4</ele>
        <time>2021-05-30T18:38:03Z</time>
      </trkpt>
      <trkpt lat="-12.1706440" lon="-76.8632100">
        <ele>156.7</ele>
        <time>2021-05-30T18:38:05Z</time>
      </trkpt>
      <trkpt lat="-12.1706510" lon="-76.8632220">
        <ele>156.7</ele>
        <time>2021-05-30T18:38:06Z</time>
      </trkpt>
      <trkpt lat="-12.1705740" lon="-76.8632930">
        <ele>157.0</ele>
        <time>2021-05-30T18:38:08Z</time>
      </trkpt>
      <trkpt lat="-12.1705320" lon="-76.8633510">
        <ele>157.2</ele>
        <time>2021-05-30T18:38:09Z</time>
      </trkpt>
      <trkpt lat="-12.1704970" lon="-76.8634250">
        <ele>157.4</ele>
        <time>2021-05-30T18:38:11Z</time>
      </trkpt>
      <trkpt lat="-12.1704920" lon="-76.8634860">
        <ele>157.5</ele>
        <time>2021-05-30T18:38:12Z</time>
      </trkpt>
      <trkpt lat="-12.1705010" lon="-76.8635910">
        <ele>157.6</ele>
        <time>2021-05-30T18:38:14Z</time>
      </trkpt>
      <trkpt lat="-12.1704930" lon="-76.8636800">
        <ele>157.7</ele>
        <time>2021-05-30T18:38:16Z</time>
      </trkpt>
      <trkpt lat="-12.1704750" lon="-76.8637210">
        <ele>157.8</ele>
        <time>2021-05-30T18:38:17Z</time>
      </trkpt>
      <trkpt lat="-12.1704540" lon="-76.8638190">
        <ele>157.9</ele>
        <time>2021-05-30T18:38:19Z</time>
      </trkpt>
      <trkpt lat="-12.1704020" lon="-76.8638960">
        <ele>158.0</ele>
        <time>2021-05-30T18:38:21Z</time>
      </trkpt>
      <trkpt lat="-12.1703700" lon="-76.8639350">
        <ele>158.0</ele>
        <time>2021-05-30T18:38:22Z</time>
      </trkpt>
      <trkpt lat="-12.1702850" lon="-76.8639770">
        <ele>158.1</ele>
        <time>2021-05-30T18:38:24Z</time>
      </trkpt>
      <trkpt lat="-12.1702380" lon="-76.8639890">
        <ele>158.1</ele>
        <time>2021-05-30T18:38:25Z</time>
      </trkpt>
      <trkpt lat="-12.1701910" lon="-76.8639990">
        <ele>158.1</ele>
        <time>2021-05-30T18:38:26Z</time>
      </trkpt>
      <trkpt lat="-12.1700980" lon="-76.8640230">
        <ele>158.2</ele>
        <time>2021-05-30T18:38:28Z</time>
      </trkpt>
      <trkpt lat="-12.1699930" lon="-76.8640490">
        <ele>158.3</ele>
        <time>2021-05-30T18:38:30Z</time>
      </trkpt>
      <trkpt lat="-12.1699410" lon="-76.8640610">
        <ele>158.3</ele>
        <time>2021-05-30T18:38:31Z</time>
      </trkpt>
      <trkpt lat="-12.1698450" lon="-76.8640970">
        <ele>158.3</ele>
        <time>2021-05-30T18:38:33Z</time>
      </trkpt>
      <trkpt lat="-12.1697990" lon="-76.8641150">
        <ele>158.4</ele>
        <time>2021-05-30T18:38:34Z</time>
      </trkpt>
      <trkpt lat="-12.1697070" lon="-76.8641450">
        <ele>158.4</ele>
        <time>2021-05-30T18:38:36Z</time>
      </trkpt>
      <trkpt lat="-12.1696060" lon="-76.8641750">
        <ele>158.5</ele>
        <time>2021-05-30T18:38:38Z</time>
      </trkpt>
      <trkpt lat="-12.1695540" lon="-76.8641980">
        <ele>158.6</ele>
        <time>2021-05-30T18:38:39Z</time>
      </trkpt>
      <trkpt lat="-12.1694630" lon="-76.8642290">
        <ele>158.6</ele>
        <time>2021-05-30T18:38:41Z</time>
      </trkpt>
      <trkpt lat="-12.1693730" lon="-76.8642550">
        <ele>158.8</ele>
        <time>2021-05-30T18:38:43Z</time>
      </trkpt>
      <trkpt lat="-12.1693290" lon="-76.8642660">
        <ele>158.8</ele>
        <time>2021-05-30T18:38:44Z</time>
      </trkpt>
      <trkpt lat="-12.1692940" lon="-76.8642770">
        <ele>158.9</ele>
        <time>2021-05-30T18:38:45Z</time>
      </trkpt>
      <trkpt lat="-12.1692140" lon="-76.8643020">
        <ele>159.0</ele>
        <time>2021-05-30T18:38:47Z</time>
      </trkpt>
      <trkpt lat="-12.1691540" lon="-76.8643110">
        <ele>159.2</ele>
        <time>2021-05-30T18:38:48Z</time>
      </trkpt>
      <trkpt lat="-12.1691160" lon="-76.8642970">
        <ele>159.2</ele>
        <time>2021-05-30T18:38:49Z</time>
      </trkpt>
      <trkpt lat="-12.1690780" lon="-76.8643080">
        <ele>159.3</ele>
        <time>2021-05-30T18:38:51Z</time>
      </trkpt>
      <trkpt lat="-12.1690350" lon="-76.8643240">
        <ele>159.4</ele>
        <time>2021-05-30T18:38:52Z</time>
      </trkpt>
      <trkpt lat="-12.1689560" lon="-76.8643500">
        <ele>159.5</ele>
        <time>2021-05-30T18:38:54Z</time>
      </trkpt>
      <trkpt lat="-12.1689170" lon="-76.8643610">
        <ele>159.6</ele>
        <time>2021-05-30T18:38:55Z</time>
      </trkpt>
      <trkpt lat="-12.1688780" lon="-76.8643700">
        <ele>159.7</ele>
        <time>2021-05-30T18:38:56Z</time>
      </trkpt>
      <trkpt lat="-12.1687690" lon="-76.8643900">
        <ele>159.9</ele>
        <time>2021-05-30T18:38:58Z</time>
      </trkpt>
      <trkpt lat="-12.1686960" lon="-76.8644240">
        <ele>160.1</ele>
        <time>2021-05-30T18:39:00Z</time>
      </trkpt>
      <trkpt lat="-12.1686840" lon="-76.8644260">
        <ele>160.2</ele>
        <time>2021-05-30T18:39:01Z</time>
      </trkpt>
      <trkpt lat="-12.1686100" lon="-76.8644400">
        <ele>160.4</ele>
        <time>2021-05-30T18:39:03Z</time>
      </trkpt>
      <trkpt lat="-12.1685620" lon="-76.8644590">
        <ele>160.5</ele>
        <time>2021-05-30T18:39:04Z</time>
      </trkpt>
      <trkpt lat="-12.1685020" lon="-76.8644810">
        <ele>160.6</ele>
        <time>2021-05-30T18:39:05Z</time>
      </trkpt>
      <trkpt lat="-12.1683970" lon="-76.8645280">
        <ele>161.0</ele>
        <time>2021-05-30T18:39:07Z</time>
      </trkpt>
      <trkpt lat="-12.1683410" lon="-76.8645550">
        <ele>161.2</ele>
        <time>2021-05-30T18:39:08Z</time>
      </trkpt>
      <trkpt lat="-12.1682450" lon="-76.8645990">
        <ele>161.5</ele>
        <time>2021-05-30T18:39:10Z</time>
      </trkpt>
      <trkpt lat="-12.1681370" lon="-76.8646270">
        <ele>161.8</ele>
        <time>2021-05-30T18:39:12Z</time>
      </trkpt>
      <trkpt lat="-12.1680360" lon="-76.8646610">
        <ele>162.2</ele>
        <time>2021-05-30T18:39:14Z</time>
      </trkpt>
      <trkpt lat="-12.1679410" lon="-76.8646900">
        <ele>162.6</ele>
        <time>2021-05-30T18:39:16Z</time>
      </trkpt>
      <trkpt lat="-12.1678940" lon="-76.8647010">
        <ele>162.8</ele>
        <time>2021-05-30T18:39:17Z</time>
      </trkpt>
      <trkpt lat="-12.1678520" lon="-76.8647120">
        <ele>162.9</ele>
        <time>2021-05-30T18:39:18Z</time>
      </trkpt>
      <trkpt lat="-12.1678050" lon="-76.8646720">
        <ele>163.2</ele>
        <time>2021-05-30T18:39:20Z</time>
      </trkpt>
      <trkpt lat="-12.1677530" lon="-76.8647160">
        <ele>163.4</ele>
        <time>2021-05-30T18:39:21Z</time>
      </trkpt>
      <trkpt lat="-12.1676730" lon="-76.8647330">
        <ele>163.8</ele>
        <time>2021-05-30T18:39:23Z</time>
      </trkpt>
      <trkpt lat="-12.1676050" lon="-76.8647180">
        <ele>164.1</ele>
        <time>2021-05-30T18:39:25Z</time>
      </trkpt>
      <trkpt lat="-12.1675650" lon="-76.8647300">
        <ele>164.3</ele>
        <time>2021-05-30T18:39:26Z</time>
      </trkpt>
      <trkpt lat="-12.1675230" lon="-76.8647500">
        <ele>164.5</ele>
        <time>2021-05-30T18:39:27Z</time>
      </trkpt>
      <trkpt lat="-12.1674820" lon="-76.8647670">
        <ele>164.8</ele>
        <time>2021-05-30T18:39:28Z</time>
      </trkpt>
      <trkpt lat="-12.1674110" lon="-76.8648030">
        <ele>165.2</ele>
        <time>2021-05-30T18:39:30Z</time>
      </trkpt>
      <trkpt lat="-12.1673550" lon="-76.8648340">
        <ele>165.5</ele>
        <time>2021-05-30T18:39:31Z</time>
      </trkpt>
      <trkpt lat="-12.1672630" lon="-76.8648890">
        <ele>166.1</ele>
        <time>2021-05-30T18:39:33Z</time>
      </trkpt>
      <trkpt lat="-12.1671760" lon="-76.8649380">
        <ele>166.5</ele>
        <time>2021-05-30T18:39:35Z</time>
      </trkpt>
      <trkpt lat="-12.1671390" lon="-76.8649250">
        <ele>166.7</ele>
        <time>2021-05-30T18:39:36Z</time>
      </trkpt>
      <trkpt lat="-12.1670980" lon="-76.8649220">
        <ele>166.9</ele>
        <time>2021-05-30T18:39:37Z</time>
      </trkpt>
      <trkpt lat="-12.1670340" lon="-76.8649440">
        <ele>167.1</ele>
        <time>2021-05-30T18:39:39Z</time>
      </trkpt>
      <trkpt lat="-12.1669370" lon="-76.8650050">
        <ele>167.5</ele>
        <time>2021-05-30T18:39:41Z</time>
      </trkpt>
      <trkpt lat="-12.1668930" lon="-76.8650220">
        <ele>167.7</ele>
        <time>2021-05-30T18:39:42Z</time>
      </trkpt>
      <trkpt lat="-12.1668450" lon="-76.8650430">
        <ele>167.9</ele>
        <time>2021-05-30T18:39:43Z</time>
      </trkpt>
      <trkpt lat="-12.1667470" lon="-76.8650770">
        <ele>168.2</ele>
        <time>2021-05-30T18:39:45Z</time>
      </trkpt>
      <trkpt lat="-12.1666930" lon="-76.8650940">
        <ele>168.4</ele>
        <time>2021-05-30T18:39:46Z</time>
      </trkpt>
      <trkpt lat="-12.1666400" lon="-76.8651070">
        <ele>168.6</ele>
        <time>2021-05-30T18:39:47Z</time>
      </trkpt>
      <trkpt lat="-12.1665470" lon="-76.8651410">
        <ele>168.9</ele>
        <time>2021-05-30T18:39:49Z</time>
      </trkpt>
      <trkpt lat="-12.1664630" lon="-76.8651770">
        <ele>169.2</ele>
        <time>2021-05-30T18:39:51Z</time>
      </trkpt>
      <trkpt lat="-12.1663770" lon="-76.8652050">
        <ele>169.4</ele>
        <time>2021-05-30T18:39:53Z</time>
      </trkpt>
      <trkpt lat="-12.1663370" lon="-76.8652140">
        <ele>169.6</ele>
        <time>2021-05-30T18:39:54Z</time>
      </trkpt>
      <trkpt lat="-12.1662970" lon="-76.8652290">
        <ele>169.7</ele>
        <time>2021-05-30T18:39:55Z</time>
      </trkpt>
      <trkpt lat="-12.1662200" lon="-76.8652730">
        <ele>170.0</ele>
        <time>2021-05-30T18:39:57Z</time>
      </trkpt>
      <trkpt lat="-12.1661760" lon="-76.8652890">
        <ele>170.1</ele>
        <time>2021-05-30T18:39:58Z</time>
      </trkpt>
      <trkpt lat="-12.1660880" lon="-76.8653110">
        <ele>170.4</ele>
        <time>2021-05-30T18:40:00Z</time>
      </trkpt>
      <trkpt lat="-12.1659950" lon="-76.8653410">
        <ele>170.7</ele>
        <time>2021-05-30T18:40:02Z</time>
      </trkpt>
      <trkpt lat="-12.1659010" lon="-76.8653720">
        <ele>171.1</ele>
        <time>2021-05-30T18:40:04Z</time>
      </trkpt>
      <trkpt lat="-12.1658120" lon="-76.8654060">
        <ele>171.4</ele>
        <time>2021-05-30T18:40:06Z</time>
      </trkpt>
      <trkpt lat="-12.1657250" lon="-76.8654520">
        <ele>171.8</ele>
        <time>2021-05-30T18:40:08Z</time>
      </trkpt>
      <trkpt lat="-12.1656290" lon="-76.8654710">
        <ele>172.2</ele>
        <time>2021-05-30T18:40:10Z</time>
      </trkpt>
      <trkpt lat="-12.1655350" lon="-76.8654930">
        <ele>172.5</ele>
        <time>2021-05-30T18:40:12Z</time>
      </trkpt>
      <trkpt lat="-12.1654900" lon="-76.8655120">
        <ele>172.7</ele>
        <time>2021-05-30T18:40:13Z</time>
      </trkpt>
      <trkpt lat="-12.1654040" lon="-76.8655480">
        <ele>173.0</ele>
        <time>2021-05-30T18:40:15Z</time>
      </trkpt>
      <trkpt lat="-12.1653580" lon="-76.8655620">
        <ele>173.2</ele>
        <time>2021-05-30T18:40:16Z</time>
      </trkpt>
      <trkpt lat="-12.1653070" lon="-76.8655760">
        <ele>173.4</ele>
        <time>2021-05-30T18:40:17Z</time>
      </trkpt>
      <trkpt lat="-12.1652150" lon="-76.8656010">
        <ele>173.7</ele>
        <time>2021-05-30T18:40:19Z</time>
      </trkpt>
      <trkpt lat="-12.1651130" lon="-76.8656280">
        <ele>174.1</ele>
        <time>2021-05-30T18:40:21Z</time>
      </trkpt>
      <trkpt lat="-12.1650640" lon="-76.8656420">
        <ele>174.3</ele>
        <time>2021-05-30T18:40:22Z</time>
      </trkpt>
      <trkpt lat="-12.1650200" lon="-76.8656550">
        <ele>174.4</ele>
        <time>2021-05-30T18:40:23Z</time>
      </trkpt>
      <trkpt lat="-12.1649250" lon="-76.8656990">
        <ele>174.8</ele>
        <time>2021-05-30T18:40:25Z</time>
      </trkpt>
      <trkpt lat="-12.1648750" lon="-76.8657220">
        <ele>175.0</ele>
        <time>2021-05-30T18:40:26Z</time>
      </trkpt>
      <trkpt lat="-12.1648260" lon="-76.8657390">
        <ele>175.2</ele>
        <time>2021-05-30T18:40:27Z</time>
      </trkpt>
      <trkpt lat="-12.1647750" lon="-76.8657510">
        <ele>175.4</ele>
        <time>2021-05-30T18:40:28Z</time>
      </trkpt>
      <trkpt lat="-12.1647010" lon="-76.8657810">
        <ele>175.7</ele>
        <time>2021-05-30T18:40:30Z</time>
      </trkpt>
      <trkpt lat="-12.1646260" lon="-76.8658050">
        <ele>176.0</ele>
        <time>2021-05-30T18:40:32Z</time>
      </trkpt>
      <trkpt lat="-12.1645440" lon="-76.8658260">
        <ele>176.3</ele>
        <time>2021-05-30T18:40:34Z</time>
      </trkpt>
      <trkpt lat="-12.1644570" lon="-76.8658600">
        <ele>176.6</ele>
        <time>2021-05-30T18:40:36Z</time>
      </trkpt>
      <trkpt lat="-12.1643910" lon="-76.8658910">
        <ele>176.8</ele>
        <time>2021-05-30T18:40:38Z</time>
      </trkpt>
      <trkpt lat="-12.1642930" lon="-76.8659130">
        <ele>177.2</ele>
        <time>2021-05-30T18:40:40Z</time>
      </trkpt>
      <trkpt lat="-12.1642370" lon="-76.8659300">
        <ele>177.4</ele>
        <time>2021-05-30T18:40:41Z</time>
      </trkpt>
      <trkpt lat="-12.1641640" lon="-76.8659540">
        <ele>177.6</ele>
        <time>2021-05-30T18:40:43Z</time>
      </trkpt>
      <trkpt lat="-12.1640450" lon="-76.8659900">
        <ele>178.1</ele>
        <time>2021-05-30T18:40:45Z</time>
      </trkpt>
      <trkpt lat="-12.1640220" lon="-76.8659970">
        <ele>178.1</ele>
        <time>2021-05-30T18:40:46Z</time>
      </trkpt>
      <trkpt lat="-12.1639290" lon="-76.8660260">
        <ele>178.5</ele>
        <time>2021-05-30T18:40:48Z</time>
      </trkpt>
      <trkpt lat="-12.1638820" lon="-76.8660410">
        <ele>178.6</ele>
        <time>2021-05-30T18:40:49Z</time>
      </trkpt>
      <trkpt lat="-12.1637900" lon="-76.8660690">
        <ele>179.0</ele>
        <time>2021-05-30T18:40:51Z</time>
      </trkpt>
      <trkpt lat="-12.1637340" lon="-76.8660670">
        <ele>179.2</ele>
        <time>2021-05-30T18:40:53Z</time>
      </trkpt>
      <trkpt lat="-12.1636610" lon="-76.8660810">
        <ele>179.4</ele>
        <time>2021-05-30T18:40:55Z</time>
      </trkpt>
      <trkpt lat="-12.1635610" lon="-76.8661170">
        <ele>179.8</ele>
        <time>2021-05-30T18:40:57Z</time>
      </trkpt>
      <trkpt lat="-12.1635270" lon="-76.8661420">
        <ele>179.9</ele>
        <time>2021-05-30T18:40:58Z</time>
      </trkpt>
      <trkpt lat="-12.1634950" lon="-76.8661490">
        <ele>180.1</ele>
        <time>2021-05-30T18:40:59Z</time>
      </trkpt>
      <trkpt lat="-12.1634360" lon="-76.8661580">
        <ele>180.3</ele>
        <time>2021-05-30T18:41:00Z</time>
      </trkpt>
      <trkpt lat="-12.1633370" lon="-76.8662010">
        <ele>180.7</ele>
        <time>2021-05-30T18:41:02Z</time>
      </trkpt>
      <trkpt lat="-12.1632850" lon="-76.8661750">
        <ele>180.9</ele>
        <time>2021-05-30T18:41:03Z</time>
      </trkpt>
      <trkpt lat="-12.1631960" lon="-76.8662260">
        <ele>181.2</ele>
        <time>2021-05-30T18:41:05Z</time>
      </trkpt>
      <trkpt lat="-12.1631520" lon="-76.8662410">
        <ele>181.4</ele>
        <time>2021-05-30T18:41:06Z</time>
      </trkpt>
      <trkpt lat="-12.1630920" lon="-76.8662480">
        <ele>181.6</ele>
        <time>2021-05-30T18:41:07Z</time>
      </trkpt>
      <trkpt lat="-12.1630180" lon="-76.8662930">
        <ele>181.9</ele>
        <time>2021-05-30T18:41:09Z</time>
      </trkpt>
      <trkpt lat="-12.1629640" lon="-76.8663190">
        <ele>182.0</ele>
        <time>2021-05-30T18:41:10Z</time>
      </trkpt>
      <trkpt lat="-12.1628620" lon="-76.8663660">
        <ele>182.4</ele>
        <time>2021-05-30T18:41:12Z</time>
      </trkpt>
      <trkpt lat="-12.1627720" lon="-76.8664120">
        <ele>182.8</ele>
        <time>2021-05-30T18:41:14Z</time>
      </trkpt>
      <trkpt lat="-12.1627290" lon="-76.8664300">
        <ele>182.9</ele>
        <time>2021-05-30T18:41:15Z</time>
      </trkpt>
      <trkpt lat="-12.1626820" lon="-76.8664470">
        <ele>183.1</ele>
        <time>2021-05-30T18:41:16Z</time>
      </trkpt>
      <trkpt lat="-12.1625960" lon="-76.8664810">
        <ele>183.4</ele>
        <time>2021-05-30T18:41:18Z</time>
      </trkpt>
      <trkpt lat="-12.1625480" lon="-76.8665060">
        <ele>183.6</ele>
        <time>2021-05-30T18:41:19Z</time>
      </trkpt>
      <trkpt lat="-12.1624980" lon="-76.8665280">
        <ele>183.8</ele>
        <time>2021-05-30T18:41:20Z</time>
      </trkpt>
      <trkpt lat="-12.1624080" lon="-76.8665590">
        <ele>184.1</ele>
        <time>2021-05-30T18:41:22Z</time>
      </trkpt>
      <trkpt lat="-12.1623620" lon="-76.8665760">
        <ele>184.2</ele>
        <time>2021-05-30T18:41:23Z</time>
      </trkpt>
      <trkpt lat="-12.1623150" lon="-76.8665890">
        <ele>184.4</ele>
        <time>2021-05-30T18:41:24Z</time>
      </trkpt>
      <trkpt lat="-12.1622210" lon="-76.8666130">
        <ele>184.6</ele>
        <time>2021-05-30T18:41:26Z</time>
      </trkpt>
      <trkpt lat="-12.1621730" lon="-76.8666310">
        <ele>184.8</ele>
        <time>2021-05-30T18:41:27Z</time>
      </trkpt>
      <trkpt lat="-12.1620770" lon="-76.8666620">
        <ele>185.0</ele>
        <time>2021-05-30T18:41:29Z</time>
      </trkpt>
      <trkpt lat="-12.1620280" lon="-76.8666770">
        <ele>185.1</ele>
        <time>2021-05-30T18:41:30Z</time>
      </trkpt>
      <trkpt lat="-12.1619820" lon="-76.8666930">
        <ele>185.3</ele>
        <time>2021-05-30T18:41:31Z</time>
      </trkpt>
      <trkpt lat="-12.1619340" lon="-76.8667100">
        <ele>185.4</ele>
        <time>2021-05-30T18:41:32Z</time>
      </trkpt>
      <trkpt lat="-12.1618410" lon="-76.8667440">
        <ele>185.7</ele>
        <time>2021-05-30T18:41:34Z</time>
      </trkpt>
      <trkpt lat="-12.1617930" lon="-76.8667640">
        <ele>185.8</ele>
        <time>2021-05-30T18:41:35Z</time>
      </trkpt>
      <trkpt lat="-12.1617470" lon="-76.8667820">
        <ele>186.0</ele>
        <time>2021-05-30T18:41:36Z</time>
      </trkpt>
      <trkpt lat="-12.1616560" lon="-76.8668120">
        <ele>186.3</ele>
        <time>2021-05-30T18:41:38Z</time>
      </trkpt>
      <trkpt lat="-12.1615670" lon="-76.8668400">
        <ele>186.6</ele>
        <time>2021-05-30T18:41:40Z</time>
      </trkpt>
      <trkpt lat="-12.1615230" lon="-76.8668540">
        <ele>186.8</ele>
        <time>2021-05-30T18:41:41Z</time>
      </trkpt>
      <trkpt lat="-12.1614380" lon="-76.8668830">
        <ele>187.1</ele>
        <time>2021-05-30T18:41:43Z</time>
      </trkpt>
      <trkpt lat="-12.1613100" lon="-76.8669240">
        <ele>187.6</ele>
        <time>2021-05-30T18:41:46Z</time>
      </trkpt>
      <trkpt lat="-12.1612410" lon="-76.8669520">
        <ele>187.8</ele>
        <time>2021-05-30T18:41:48Z</time>
      </trkpt>
      <trkpt lat="-12.1611920" lon="-76.8669700">
        <ele>188.0</ele>
        <time>2021-05-30T18:41:49Z</time>
      </trkpt>
      <trkpt lat="-12.1610940" lon="-76.8670040">
        <ele>188.4</ele>
        <time>2021-05-30T18:41:51Z</time>
      </trkpt>
      <trkpt lat="-12.1610460" lon="-76.8670190">
        <ele>188.5</ele>
        <time>2021-05-30T18:41:52Z</time>
      </trkpt>
      <trkpt lat="-12.1609550" lon="-76.8670520">
        <ele>188.9</ele>
        <time>2021-05-30T18:41:54Z</time>
      </trkpt>
      <trkpt lat="-12.1608780" lon="-76.8670700">
        <ele>189.1</ele>
        <time>2021-05-30T18:41:56Z</time>
      </trkpt>
      <trkpt lat="-12.1607990" lon="-76.8670900">
        <ele>189.4</ele>
        <time>2021-05-30T18:41:58Z</time>
      </trkpt>
      <trkpt lat="-12.1607390" lon="-76.8671180">
        <ele>189.6</ele>
        <time>2021-05-30T18:42:00Z</time>
      </trkpt>
      <trkpt lat="-12.1606810" lon="-76.8671360">
        <ele>189.8</ele>
        <time>2021-05-30T18:42:02Z</time>
      </trkpt>
      <trkpt lat="-12.1606530" lon="-76.8671370">
        <ele>189.9</ele>
        <time>2021-05-30T18:42:03Z</time>
      </trkpt>
      <trkpt lat="-12.1606070" lon="-76.8671460">
        <ele>190.0</ele>
        <time>2021-05-30T18:42:04Z</time>
      </trkpt>
      <trkpt lat="-12.1605740" lon="-76.8671620">
        <ele>190.1</ele>
        <time>2021-05-30T18:42:05Z</time>
      </trkpt>
      <trkpt lat="-12.1605380" lon="-76.8671750">
        <ele>190.3</ele>
        <time>2021-05-30T18:42:07Z</time>
      </trkpt>
      <trkpt lat="-12.1605090" lon="-76.8671780">
        <ele>190.4</ele>
        <time>2021-05-30T18:42:08Z</time>
      </trkpt>
      <trkpt lat="-12.1604810" lon="-76.8671830">
        <ele>190.4</ele>
        <time>2021-05-30T18:42:09Z</time>
      </trkpt>
      <trkpt lat="-12.1604300" lon="-76.8672020">
        <ele>190.6</ele>
        <time>2021-05-30T18:42:11Z</time>
      </trkpt>
      <trkpt lat="-12.1603770" lon="-76.8672250">
        <ele>190.8</ele>
        <time>2021-05-30T18:42:13Z</time>
      </trkpt>
      <trkpt lat="-12.1603470" lon="-76.8672370">
        <ele>190.9</ele>
        <time>2021-05-30T18:42:14Z</time>
      </trkpt>
      <trkpt lat="-12.1602970" lon="-76.8672610">
        <ele>191.1</ele>
        <time>2021-05-30T18:42:15Z</time>
      </trkpt>
      <trkpt lat="-12.1602560" lon="-76.8672820">
        <ele>191.2</ele>
        <time>2021-05-30T18:42:17Z</time>
      </trkpt>
      <trkpt lat="-12.1602250" lon="-76.8672960">
        <ele>191.3</ele>
        <time>2021-05-30T18:42:18Z</time>
      </trkpt>
      <trkpt lat="-12.1601730" lon="-76.8673170">
        <ele>191.5</ele>
        <time>2021-05-30T18:42:19Z</time>
      </trkpt>
      <trkpt lat="-12.1601330" lon="-76.8673300">
        <ele>191.6</ele>
        <time>2021-05-30T18:42:21Z</time>
      </trkpt>
      <trkpt lat="-12.1601030" lon="-76.8673420">
        <ele>191.7</ele>
        <time>2021-05-30T18:42:22Z</time>
      </trkpt>
      <trkpt lat="-12.1600740" lon="-76.8673510">
        <ele>191.8</ele>
        <time>2021-05-30T18:42:23Z</time>
      </trkpt>
      <trkpt lat="-12.1600400" lon="-76.8673580">
        <ele>191.9</ele>
        <time>2021-05-30T18:42:24Z</time>
      </trkpt>
      <trkpt lat="-12.1599780" lon="-76.8673750">
        <ele>192.1</ele>
        <time>2021-05-30T18:42:26Z</time>
      </trkpt>
      <trkpt lat="-12.1599150" lon="-76.8673970">
        <ele>192.2</ele>
        <time>2021-05-30T18:42:28Z</time>
      </trkpt>
      <trkpt lat="-12.1598530" lon="-76.8674200">
        <ele>192.4</ele>
        <time>2021-05-30T18:42:30Z</time>
      </trkpt>
      <trkpt lat="-12.1597940" lon="-76.8674430">
        <ele>192.6</ele>
        <time>2021-05-30T18:42:32Z</time>
      </trkpt>
      <trkpt lat="-12.1597620" lon="-76.8674540">
        <ele>192.6</ele>
        <time>2021-05-30T18:42:33Z</time>
      </trkpt>
      <trkpt lat="-12.1597010" lon="-76.8674750">
        <ele>192.8</ele>
        <time>2021-05-30T18:42:35Z</time>
      </trkpt>
      <trkpt lat="-12.1596340" lon="-76.8675040">
        <ele>193.0</ele>
        <time>2021-05-30T18:42:37Z</time>
      </trkpt>
      <trkpt lat="-12.1595690" lon="-76.8675420">
        <ele>193.2</ele>
        <time>2021-05-30T18:42:39Z</time>
      </trkpt>
      <trkpt lat="-12.1595350" lon="-76.8675600">
        <ele>193.3</ele>
        <time>2021-05-30T18:42:40Z</time>
      </trkpt>
      <trkpt lat="-12.1595070" lon="-76.8675770">
        <ele>193.4</ele>
        <time>2021-05-30T18:42:41Z</time>
      </trkpt>
      <trkpt lat="-12.1594760" lon="-76.8675930">
        <ele>193.5</ele>
        <time>2021-05-30T18:42:42Z</time>
      </trkpt>
      <trkpt lat="-12.1594150" lon="-76.8676200">
        <ele>193.7</ele>
        <time>2021-05-30T18:42:44Z</time>
      </trkpt>
      <trkpt lat="-12.1593820" lon="-76.8676310">
        <ele>193.8</ele>
        <time>2021-05-30T18:42:45Z</time>
      </trkpt>
      <trkpt lat="-12.1593150" lon="-76.8676580">
        <ele>194.0</ele>
        <time>2021-05-30T18:42:47Z</time>
      </trkpt>
      <trkpt lat="-12.1592880" lon="-76.8676690">
        <ele>194.1</ele>
        <time>2021-05-30T18:42:48Z</time>
      </trkpt>
      <trkpt lat="-12.1592320" lon="-76.8676920">
        <ele>194.2</ele>
        <time>2021-05-30T18:42:50Z</time>
      </trkpt>
      <trkpt lat="-12.1592040" lon="-76.8677050">
        <ele>194.3</ele>
        <time>2021-05-30T18:42:51Z</time>
      </trkpt>
      <trkpt lat="-12.1591750" lon="-76.8677170">
        <ele>194.4</ele>
        <time>2021-05-30T18:42:52Z</time>
      </trkpt>
      <trkpt lat="-12.1591450" lon="-76.8677260">
        <ele>194.5</ele>
        <time>2021-05-30T18:42:53Z</time>
      </trkpt>
      <trkpt lat="-12.1590960" lon="-76.8677460">
        <ele>194.7</ele>
        <time>2021-05-30T18:42:55Z</time>
      </trkpt>
      <trkpt lat="-12.1590300" lon="-76.8677570">
        <ele>194.9</ele>
        <time>2021-05-30T18:42:57Z</time>
      </trkpt>
      <trkpt lat="-12.1589990" lon="-76.8677750">
        <ele>195.0</ele>
        <time>2021-05-30T18:42:58Z</time>
      </trkpt>
      <trkpt lat="-12.1589470" lon="-76.8678020">
        <ele>195.2</ele>
        <time>2021-05-30T18:43:00Z</time>
      </trkpt>
      <trkpt lat="-12.1588900" lon="-76.8678290">
        <ele>195.4</ele>
        <time>2021-05-30T18:43:02Z</time>
      </trkpt>
      <trkpt lat="-12.1588600" lon="-76.8678450">
        <ele>195.5</ele>
        <time>2021-05-30T18:43:03Z</time>
      </trkpt>
      <trkpt lat="-12.1588020" lon="-76.8678640">
        <ele>195.7</ele>
        <time>2021-05-30T18:43:05Z</time>
      </trkpt>
      <trkpt lat="-12.1587450" lon="-76.8678790">
        <ele>195.9</ele>
        <time>2021-05-30T18:43:07Z</time>
      </trkpt>
      <trkpt lat="-12.1586860" lon="-76.8678940">
        <ele>196.1</ele>
        <time>2021-05-30T18:43:09Z</time>
      </trkpt>
      <trkpt lat="-12.1586420" lon="-76.8678810">
        <ele>196.2</ele>
        <time>2021-05-30T18:43:10Z</time>
      </trkpt>
      <trkpt lat="-12.1585800" lon="-76.8678900">
        <ele>196.4</ele>
        <time>2021-05-30T18:43:12Z</time>
      </trkpt>
      <trkpt lat="-12.1585480" lon="-76.8678990">
        <ele>196.5</ele>
        <time>2021-05-30T18:43:13Z</time>
      </trkpt>
      <trkpt lat="-12.1584880" lon="-76.8679170">
        <ele>196.7</ele>
        <time>2021-05-30T18:43:15Z</time>
      </trkpt>
      <trkpt lat="-12.1584590" lon="-76.8679280">
        <ele>196.8</ele>
        <time>2021-05-30T18:43:16Z</time>
      </trkpt>
      <trkpt lat="-12.1584000" lon="-76.8679480">
        <ele>197.0</ele>
        <time>2021-05-30T18:43:18Z</time>
      </trkpt>
      <trkpt lat="-12.1583690" lon="-76.8679570">
        <ele>197.1</ele>
        <time>2021-05-30T18:43:19Z</time>
      </trkpt>
      <trkpt lat="-12.1583040" lon="-76.8679800">
        <ele>197.4</ele>
        <time>2021-05-30T18:43:21Z</time>
      </trkpt>
      <trkpt lat="-12.1582410" lon="-76.8680050">
        <ele>197.6</ele>
        <time>2021-05-30T18:43:23Z</time>
      </trkpt>
      <trkpt lat="-12.1581780" lon="-76.8680240">
        <ele>197.8</ele>
        <time>2021-05-30T18:43:25Z</time>
      </trkpt>
      <trkpt lat="-12.1581090" lon="-76.8680300">
        <ele>198.1</ele>
        <time>2021-05-30T18:43:27Z</time>
      </trkpt>
      <trkpt lat="-12.1580450" lon="-76.8680430">
        <ele>198.3</ele>
        <time>2021-05-30T18:43:29Z</time>
      </trkpt>
      <trkpt lat="-12.1579770" lon="-76.8680600">
        <ele>198.5</ele>
        <time>2021-05-30T18:43:31Z</time>
      </trkpt>
      <trkpt lat="-12.1579120" lon="-76.8680760">
        <ele>198.8</ele>
        <time>2021-05-30T18:43:33Z</time>
      </trkpt>
      <trkpt lat="-12.1578440" lon="-76.8680850">
        <ele>199.0</ele>
        <time>2021-05-30T18:43:35Z</time>
      </trkpt>
      <trkpt lat="-12.1577760" lon="-76.8680930">
        <ele>199.3</ele>
        <time>2021-05-30T18:43:37Z</time>
      </trkpt>
      <trkpt lat="-12.1577430" lon="-76.8681040">
        <ele>199.4</ele>
        <time>2021-05-30T18:43:38Z</time>
      </trkpt>
      <trkpt lat="-12.1576810" lon="-76.8681360">
        <ele>199.7</ele>
        <time>2021-05-30T18:43:40Z</time>
      </trkpt>
      <trkpt lat="-12.1576530" lon="-76.8681540">
        <ele>199.8</ele>
        <time>2021-05-30T18:43:41Z</time>
      </trkpt>
      <trkpt lat="-12.1576240" lon="-76.8681740">
        <ele>200.0</ele>
        <time>2021-05-30T18:43:42Z</time>
      </trkpt>
      <trkpt lat="-12.1575630" lon="-76.8682230">
        <ele>200.2</ele>
        <time>2021-05-30T18:43:44Z</time>
      </trkpt>
      <trkpt lat="-12.1575320" lon="-76.8682460">
        <ele>200.4</ele>
        <time>2021-05-30T18:43:45Z</time>
      </trkpt>
      <trkpt lat="-12.1574990" lon="-76.8682660">
        <ele>200.5</ele>
        <time>2021-05-30T18:43:46Z</time>
      </trkpt>
      <trkpt lat="-12.1574390" lon="-76.8683000">
        <ele>200.8</ele>
        <time>2021-05-30T18:43:48Z</time>
      </trkpt>
      <trkpt lat="-12.1573770" lon="-76.8683320">
        <ele>201.0</ele>
        <time>2021-05-30T18:43:50Z</time>
      </trkpt>
      <trkpt lat="-12.1573220" lon="-76.8683550">
        <ele>201.2</ele>
        <time>2021-05-30T18:43:52Z</time>
      </trkpt>
      <trkpt lat="-12.1572940" lon="-76.8683650">
        <ele>201.3</ele>
        <time>2021-05-30T18:43:53Z</time>
      </trkpt>
      <trkpt lat="-12.1572280" lon="-76.8683790">
        <ele>201.6</ele>
        <time>2021-05-30T18:43:55Z</time>
      </trkpt>
      <trkpt lat="-12.1571680" lon="-76.8683940">
        <ele>201.8</ele>
        <time>2021-05-30T18:43:57Z</time>
      </trkpt>
      <trkpt lat="-12.1571270" lon="-76.8684010">
        <ele>201.9</ele>
        <time>2021-05-30T18:43:58Z</time>
      </trkpt>
      <trkpt lat="-12.1570920" lon="-76.8684080">
        <ele>202.0</ele>
        <time>2021-05-30T18:43:59Z</time>
      </trkpt>
      <trkpt lat="-12.1570250" lon="-76.8684200">
        <ele>202.3</ele>
        <time>2021-05-30T18:44:01Z</time>
      </trkpt>
      <trkpt lat="-12.1569640" lon="-76.8684330">
        <ele>202.5</ele>
        <time>2021-05-30T18:44:03Z</time>
      </trkpt>
      <trkpt lat="-12.1569030" lon="-76.8684500">
        <ele>202.7</ele>
        <time>2021-05-30T18:44:05Z</time>
      </trkpt>
      <trkpt lat="-12.1568740" lon="-76.8684570">
        <ele>202.8</ele>
        <time>2021-05-30T18:44:06Z</time>
      </trkpt>
      <trkpt lat="-12.1568120" lon="-76.8684660">
        <ele>203.0</ele>
        <time>2021-05-30T18:44:08Z</time>
      </trkpt>
      <trkpt lat="-12.1567540" lon="-76.8684740">
        <ele>203.2</ele>
        <time>2021-05-30T18:44:10Z</time>
      </trkpt>
      <trkpt lat="-12.1567130" lon="-76.8684750">
        <ele>203.4</ele>
        <time>2021-05-30T18:44:11Z</time>
      </trkpt>
      <trkpt lat="-12.1566760" lon="-76.8684850">
        <ele>203.5</ele>
        <time>2021-05-30T18:44:12Z</time>
      </trkpt>
      <trkpt lat="-12.1566250" lon="-76.8684970">
        <ele>203.7</ele>
        <time>2021-05-30T18:44:14Z</time>
      </trkpt>
      <trkpt lat="-12.1565890" lon="-76.8685070">
        <ele>203.8</ele>
        <time>2021-05-30T18:44:15Z</time>
      </trkpt>
      <trkpt lat="-12.1565250" lon="-76.8685340">
        <ele>204.1</ele>
        <time>2021-05-30T18:44:17Z</time>
      </trkpt>
      <trkpt lat="-12.1564570" lon="-76.8685610">
        <ele>204.3</ele>
        <time>2021-05-30T18:44:19Z</time>
      </trkpt>
      <trkpt lat="-12.1564210" lon="-76.8685750">
        <ele>204.4</ele>
        <time>2021-05-30T18:44:20Z</time>
      </trkpt>
      <trkpt lat="-12.1563800" lon="-76.8685920">
        <ele>204.5</ele>
        <time>2021-05-30T18:44:21Z</time>
      </trkpt>
      <trkpt lat="-12.1563420" lon="-76.8686060">
        <ele>204.7</ele>
        <time>2021-05-30T18:44:22Z</time>
      </trkpt>
      <trkpt lat="-12.1562940" lon="-76.8686230">
        <ele>204.8</ele>
        <time>2021-05-30T18:44:24Z</time>
      </trkpt>
      <trkpt lat="-12.1562630" lon="-76.8686320">
        <ele>204.9</ele>
        <time>2021-05-30T18:44:25Z</time>
      </trkpt>
      <trkpt lat="-12.1562320" lon="-76.8686410">
        <ele>205.0</ele>
        <time>2021-05-30T18:44:26Z</time>
      </trkpt>
      <trkpt lat="-12.1561660" lon="-76.8686600">
        <ele>205.2</ele>
        <time>2021-05-30T18:44:28Z</time>
      </trkpt>
      <trkpt lat="-12.1561310" lon="-76.8686700">
        <ele>205.4</ele>
        <time>2021-05-30T18:44:29Z</time>
      </trkpt>
      <trkpt lat="-12.1560630" lon="-76.8686910">
        <ele>205.6</ele>
        <time>2021-05-30T18:44:31Z</time>
      </trkpt>
      <trkpt lat="-12.1560330" lon="-76.8686990">
        <ele>205.8</ele>
        <time>2021-05-30T18:44:32Z</time>
      </trkpt>
      <trkpt lat="-12.1559870" lon="-76.8687140">
        <ele>205.9</ele>
        <time>2021-05-30T18:44:33Z</time>
      </trkpt>
      <trkpt lat="-12.1559310" lon="-76.8687320">
        <ele>206.2</ele>
        <time>2021-05-30T18:44:35Z</time>
      </trkpt>
      <trkpt lat="-12.1558980" lon="-76.8687480">
        <ele>206.3</ele>
        <time>2021-05-30T18:44:36Z</time>
      </trkpt>
      <trkpt lat="-12.1558710" lon="-76.8687610">
        <ele>206.4</ele>
        <time>2021-05-30T18:44:37Z</time>
      </trkpt>
      <trkpt lat="-12.1558160" lon="-76.8687810">
        <ele>206.7</ele>
        <time>2021-05-30T18:44:39Z</time>
      </trkpt>
      <trkpt lat="-12.1557530" lon="-76.8688050">
        <ele>206.9</ele>
        <time>2021-05-30T18:44:41Z</time>
      </trkpt>
      <trkpt lat="-12.1557250" lon="-76.8688170">
        <ele>207.1</ele>
        <time>2021-05-30T18:44:42Z</time>
      </trkpt>
      <trkpt lat="-12.1556930" lon="-76.8688300">
        <ele>207.2</ele>
        <time>2021-05-30T18:44:43Z</time>
      </trkpt>
      <trkpt lat="-12.1556630" lon="-76.8688430">
        <ele>207.3</ele>
        <time>2021-05-30T18:44:44Z</time>
      </trkpt>
      <trkpt lat="-12.1556070" lon="-76.8688680">
        <ele>207.6</ele>
        <time>2021-05-30T18:44:46Z</time>
      </trkpt>
      <trkpt lat="-12.1555480" lon="-76.8688960">
        <ele>207.9</ele>
        <time>2021-05-30T18:44:48Z</time>
      </trkpt>
      <trkpt lat="-12.1555180" lon="-76.8689060">
        <ele>208.0</ele>
        <time>2021-05-30T18:44:49Z</time>
      </trkpt>
      <trkpt lat="-12.1554840" lon="-76.8689170">
        <ele>208.1</ele>
        <time>2021-05-30T18:44:50Z</time>
      </trkpt>
      <trkpt lat="-12.1554200" lon="-76.8689440">
        <ele>208.4</ele>
        <time>2021-05-30T18:44:52Z</time>
      </trkpt>
      <trkpt lat="-12.1553900" lon="-76.8689590">
        <ele>208.6</ele>
        <time>2021-05-30T18:44:53Z</time>
      </trkpt>
      <trkpt lat="-12.1553610" lon="-76.8689730">
        <ele>208.7</ele>
        <time>2021-05-30T18:44:54Z</time>
      </trkpt>
      <trkpt lat="-12.1553170" lon="-76.8689930">
        <ele>208.9</ele>
        <time>2021-05-30T18:44:55Z</time>
      </trkpt>
      <trkpt lat="-12.1552800" lon="-76.8690060">
        <ele>209.1</ele>
        <time>2021-05-30T18:44:56Z</time>
      </trkpt>
      <trkpt lat="-12.1552380" lon="-76.8690120">
        <ele>209.3</ele>
        <time>2021-05-30T18:44:57Z</time>
      </trkpt>
      <trkpt lat="-12.1552010" lon="-76.8690180">
        <ele>209.4</ele>
        <time>2021-05-30T18:44:59Z</time>
      </trkpt>
      <trkpt lat="-12.1551630" lon="-76.8690260">
        <ele>209.6</ele>
        <time>2021-05-30T18:45:00Z</time>
      </trkpt>
      <trkpt lat="-12.1550970" lon="-76.8690440">
        <ele>209.9</ele>
        <time>2021-05-30T18:45:01Z</time>
      </trkpt>
      <trkpt lat="-12.1550540" lon="-76.8690580">
        <ele>210.1</ele>
        <time>2021-05-30T18:45:03Z</time>
      </trkpt>
      <trkpt lat="-12.1550110" lon="-76.8690710">
        <ele>210.3</ele>
        <time>2021-05-30T18:45:04Z</time>
      </trkpt>
      <trkpt lat="-12.1549370" lon="-76.8690900">
        <ele>210.7</ele>
        <time>2021-05-30T18:45:06Z</time>
      </trkpt>
      <trkpt lat="-12.1548860" lon="-76.8691080">
        <ele>210.9</ele>
        <time>2021-05-30T18:45:07Z</time>
      </trkpt>
      <trkpt lat="-12.1548480" lon="-76.8691210">
        <ele>211.1</ele>
        <time>2021-05-30T18:45:09Z</time>
      </trkpt>
      <trkpt lat="-12.1548200" lon="-76.8691320">
        <ele>211.2</ele>
        <time>2021-05-30T18:45:10Z</time>
      </trkpt>
      <trkpt lat="-12.1547890" lon="-76.8691460">
        <ele>211.4</ele>
        <time>2021-05-30T18:45:11Z</time>
      </trkpt>
      <trkpt lat="-12.1547360" lon="-76.8691670">
        <ele>211.6</ele>
        <time>2021-05-30T18:45:12Z</time>
      </trkpt>
      <trkpt lat="-12.1546970" lon="-76.8691810">
        <ele>211.8</ele>
        <time>2021-05-30T18:45:14Z</time>
      </trkpt>
      <trkpt lat="-12.1546370" lon="-76.8691990">
        <ele>212.1</ele>
        <time>2021-05-30T18:45:16Z</time>
      </trkpt>
      <trkpt lat="-12.1546090" lon="-76.8692100">
        <ele>212.3</ele>
        <time>2021-05-30T18:45:17Z</time>
      </trkpt>
      <trkpt lat="-12.1545510" lon="-76.8692350">
        <ele>212.5</ele>
        <time>2021-05-30T18:45:19Z</time>
      </trkpt>
      <trkpt lat="-12.1544920" lon="-76.8692630">
        <ele>212.8</ele>
        <time>2021-05-30T18:45:21Z</time>
      </trkpt>
      <trkpt lat="-12.1544380" lon="-76.8692890">
        <ele>213.1</ele>
        <time>2021-05-30T18:45:23Z</time>
      </trkpt>
      <trkpt lat="-12.1544070" lon="-76.8692980">
        <ele>213.3</ele>
        <time>2021-05-30T18:45:24Z</time>
      </trkpt>
      <trkpt lat="-12.1543660" lon="-76.8692990">
        <ele>213.4</ele>
        <time>2021-05-30T18:45:25Z</time>
      </trkpt>
      <trkpt lat="-12.1543070" lon="-76.8693120">
        <ele>213.7</ele>
        <time>2021-05-30T18:45:27Z</time>
      </trkpt>
      <trkpt lat="-12.1542500" lon="-76.8693340">
        <ele>214.0</ele>
        <time>2021-05-30T18:45:29Z</time>
      </trkpt>
      <trkpt lat="-12.1542190" lon="-76.8693440">
        <ele>214.1</ele>
        <time>2021-05-30T18:45:30Z</time>
      </trkpt>
      <trkpt lat="-12.1541520" lon="-76.8693640">
        <ele>214.4</ele>
        <time>2021-05-30T18:45:32Z</time>
      </trkpt>
      <trkpt lat="-12.1540840" lon="-76.8693870">
        <ele>214.7</ele>
        <time>2021-05-30T18:45:34Z</time>
      </trkpt>
      <trkpt lat="-12.1540160" lon="-76.8694130">
        <ele>215.0</ele>
        <time>2021-05-30T18:45:36Z</time>
      </trkpt>
      <trkpt lat="-12.1539620" lon="-76.8694340">
        <ele>215.3</ele>
        <time>2021-05-30T18:45:38Z</time>
      </trkpt>
      <trkpt lat="-12.1539330" lon="-76.8694460">
        <ele>215.4</ele>
        <time>2021-05-30T18:45:39Z</time>
      </trkpt>
      <trkpt lat="-12.1539010" lon="-76.8694560">
        <ele>215.6</ele>
        <time>2021-05-30T18:45:40Z</time>
      </trkpt>
      <trkpt lat="-12.1538450" lon="-76.8694750">
        <ele>215.8</ele>
        <time>2021-05-30T18:45:41Z</time>
      </trkpt>
      <trkpt lat="-12.1538050" lon="-76.8694910">
        <ele>216.0</ele>
        <time>2021-05-30T18:45:43Z</time>
      </trkpt>
      <trkpt lat="-12.1537440" lon="-76.8695180">
        <ele>216.3</ele>
        <time>2021-05-30T18:45:45Z</time>
      </trkpt>
      <trkpt lat="-12.1536920" lon="-76.8695390">
        <ele>216.5</ele>
        <time>2021-05-30T18:45:46Z</time>
      </trkpt>
      <trkpt lat="-12.1536520" lon="-76.8695500">
        <ele>216.7</ele>
        <time>2021-05-30T18:45:48Z</time>
      </trkpt>
      <trkpt lat="-12.1535980" lon="-76.8695710">
        <ele>216.9</ele>
        <time>2021-05-30T18:45:50Z</time>
      </trkpt>
      <trkpt lat="-12.1535470" lon="-76.8695900">
        <ele>217.1</ele>
        <time>2021-05-30T18:45:52Z</time>
      </trkpt>
      <trkpt lat="-12.1534970" lon="-76.8696050">
        <ele>217.3</ele>
        <time>2021-05-30T18:45:54Z</time>
      </trkpt>
      <trkpt lat="-12.1534700" lon="-76.8696150">
        <ele>217.5</ele>
        <time>2021-05-30T18:45:55Z</time>
      </trkpt>
      <trkpt lat="-12.1534100" lon="-76.8696400">
        <ele>217.7</ele>
        <time>2021-05-30T18:45:57Z</time>
      </trkpt>
      <trkpt lat="-12.1533490" lon="-76.8696670">
        <ele>218.0</ele>
        <time>2021-05-30T18:45:59Z</time>
      </trkpt>
      <trkpt lat="-12.1532850" lon="-76.8696890">
        <ele>218.3</ele>
        <time>2021-05-30T18:46:01Z</time>
      </trkpt>
      <trkpt lat="-12.1532560" lon="-76.8697040">
        <ele>218.4</ele>
        <time>2021-05-30T18:46:02Z</time>
      </trkpt>
      <trkpt lat="-12.1532090" lon="-76.8697220">
        <ele>218.6</ele>
        <time>2021-05-30T18:46:04Z</time>
      </trkpt>
      <trkpt lat="-12.1531820" lon="-76.8697360">
        <ele>218.7</ele>
        <time>2021-05-30T18:46:05Z</time>
      </trkpt>
      <trkpt lat="-12.1531290" lon="-76.8697620">
        <ele>218.9</ele>
        <time>2021-05-30T18:46:07Z</time>
      </trkpt>
      <trkpt lat="-12.1530770" lon="-76.8697890">
        <ele>219.2</ele>
        <time>2021-05-30T18:46:09Z</time>
      </trkpt>
      <trkpt lat="-12.1530180" lon="-76.8698180">
        <ele>219.4</ele>
        <time>2021-05-30T18:46:11Z</time>
      </trkpt>
      <trkpt lat="-12.1529660" lon="-76.8698330">
        <ele>219.6</ele>
        <time>2021-05-30T18:46:13Z</time>
      </trkpt>
      <trkpt lat="-12.1529430" lon="-76.8698380">
        <ele>219.7</ele>
        <time>2021-05-30T18:46:14Z</time>
      </trkpt>
      <trkpt lat="-12.1528850" lon="-76.8698480">
        <ele>220.0</ele>
        <time>2021-05-30T18:46:16Z</time>
      </trkpt>
      <trkpt lat="-12.1528220" lon="-76.8698660">
        <ele>220.3</ele>
        <time>2021-05-30T18:46:18Z</time>
      </trkpt>
      <trkpt lat="-12.1527930" lon="-76.8698790">
        <ele>220.4</ele>
        <time>2021-05-30T18:46:19Z</time>
      </trkpt>
      <trkpt lat="-12.1527590" lon="-76.8698950">
        <ele>220.6</ele>
        <time>2021-05-30T18:46:20Z</time>
      </trkpt>
      <trkpt lat="-12.1527230" lon="-76.8699100">
        <ele>220.7</ele>
        <time>2021-05-30T18:46:21Z</time>
      </trkpt>
      <trkpt lat="-12.1526760" lon="-76.8699260">
        <ele>220.9</ele>
        <time>2021-05-30T18:46:23Z</time>
      </trkpt>
      <trkpt lat="-12.1526450" lon="-76.8699380">
        <ele>221.1</ele>
        <time>2021-05-30T18:46:24Z</time>
      </trkpt>
      <trkpt lat="-12.1526160" lon="-76.8699500">
        <ele>221.2</ele>
        <time>2021-05-30T18:46:25Z</time>
      </trkpt>
      <trkpt lat="-12.1525610" lon="-76.8699690">
        <ele>221.4</ele>
        <time>2021-05-30T18:46:27Z</time>
      </trkpt>
      <trkpt lat="-12.1525090" lon="-76.8699850">
        <ele>221.6</ele>
        <time>2021-05-30T18:46:29Z</time>
      </trkpt>
      <trkpt lat="-12.1524510" lon="-76.8700000">
        <ele>221.9</ele>
        <time>2021-05-30T18:46:31Z</time>
      </trkpt>
      <trkpt lat="-12.1523970" lon="-76.8700150">
        <ele>222.1</ele>
        <time>2021-05-30T18:46:33Z</time>
      </trkpt>
      <trkpt lat="-12.1523440" lon="-76.8700280">
        <ele>222.3</ele>
        <time>2021-05-30T18:46:35Z</time>
      </trkpt>
      <trkpt lat="-12.1523130" lon="-76.8700360">
        <ele>222.5</ele>
        <time>2021-05-30T18:46:36Z</time>
      </trkpt>
      <trkpt lat="-12.1522570" lon="-76.8700540">
        <ele>222.7</ele>
        <time>2021-05-30T18:46:38Z</time>
      </trkpt>
      <trkpt lat="-12.1522280" lon="-76.8700610">
        <ele>222.8</ele>
        <time>2021-05-30T18:46:39Z</time>
      </trkpt>
      <trkpt lat="-12.1521720" lon="-76.8700770">
        <ele>223.0</ele>
        <time>2021-05-30T18:46:41Z</time>
      </trkpt>
      <trkpt lat="-12.1521420" lon="-76.8700820">
        <ele>223.2</ele>
        <time>2021-05-30T18:46:42Z</time>
      </trkpt>
      <trkpt lat="-12.1520790" lon="-76.8700950">
        <ele>223.4</ele>
        <time>2021-05-30T18:46:44Z</time>
      </trkpt>
      <trkpt lat="-12.1520200" lon="-76.8701130">
        <ele>223.7</ele>
        <time>2021-05-30T18:46:46Z</time>
      </trkpt>
      <trkpt lat="-12.1519840" lon="-76.8701260">
        <ele>223.8</ele>
        <time>2021-05-30T18:46:47Z</time>
      </trkpt>
      <trkpt lat="-12.1519250" lon="-76.8701520">
        <ele>224.1</ele>
        <time>2021-05-30T18:46:49Z</time>
      </trkpt>
      <trkpt lat="-12.1518980" lon="-76.8701640">
        <ele>224.2</ele>
        <time>2021-05-30T18:46:50Z</time>
      </trkpt>
      <trkpt lat="-12.1518440" lon="-76.8701880">
        <ele>224.4</ele>
        <time>2021-05-30T18:46:52Z</time>
      </trkpt>
      <trkpt lat="-12.1518110" lon="-76.8701930">
        <ele>224.6</ele>
        <time>2021-05-30T18:46:53Z</time>
      </trkpt>
      <trkpt lat="-12.1517560" lon="-76.8702090">
        <ele>224.8</ele>
        <time>2021-05-30T18:46:55Z</time>
      </trkpt>
      <trkpt lat="-12.1517260" lon="-76.8702190">
        <ele>224.9</ele>
        <time>2021-05-30T18:46:56Z</time>
      </trkpt>
      <trkpt lat="-12.1516960" lon="-76.8702260">
        <ele>225.0</ele>
        <time>2021-05-30T18:46:57Z</time>
      </trkpt>
      <trkpt lat="-12.1516640" lon="-76.8702340">
        <ele>225.2</ele>
        <time>2021-05-30T18:46:58Z</time>
      </trkpt>
      <trkpt lat="-12.1516040" lon="-76.8702540">
        <ele>225.4</ele>
        <time>2021-05-30T18:47:00Z</time>
      </trkpt>
      <trkpt lat="-12.1515520" lon="-76.8702750">
        <ele>225.6</ele>
        <time>2021-05-30T18:47:02Z</time>
      </trkpt>
      <trkpt lat="-12.1515230" lon="-76.8702900">
        <ele>225.8</ele>
        <time>2021-05-30T18:47:03Z</time>
      </trkpt>
      <trkpt lat="-12.1514670" lon="-76.8703170">
        <ele>226.0</ele>
        <time>2021-05-30T18:47:05Z</time>
      </trkpt>
      <trkpt lat="-12.1514360" lon="-76.8703290">
        <ele>226.2</ele>
        <time>2021-05-30T18:47:06Z</time>
      </trkpt>
      <trkpt lat="-12.1513840" lon="-76.8703520">
        <ele>226.4</ele>
        <time>2021-05-30T18:47:08Z</time>
      </trkpt>
      <trkpt lat="-12.1513570" lon="-76.8703630">
        <ele>226.5</ele>
        <time>2021-05-30T18:47:09Z</time>
      </trkpt>
      <trkpt lat="-12.1513000" lon="-76.8703880">
        <ele>226.7</ele>
        <time>2021-05-30T18:47:11Z</time>
      </trkpt>
      <trkpt lat="-12.1512440" lon="-76.8704120">
        <ele>227.0</ele>
        <time>2021-05-30T18:47:13Z</time>
      </trkpt>
      <trkpt lat="-12.1512170" lon="-76.8704210">
        <ele>227.1</ele>
        <time>2021-05-30T18:47:14Z</time>
      </trkpt>
      <trkpt lat="-12.1511650" lon="-76.8704410">
        <ele>227.3</ele>
        <time>2021-05-30T18:47:16Z</time>
      </trkpt>
      <trkpt lat="-12.1511380" lon="-76.8704490">
        <ele>227.4</ele>
        <time>2021-05-30T18:47:17Z</time>
      </trkpt>
      <trkpt lat="-12.1510780" lon="-76.8704730">
        <ele>227.7</ele>
        <time>2021-05-30T18:47:19Z</time>
      </trkpt>
      <trkpt lat="-12.1510500" lon="-76.8704850">
        <ele>227.8</ele>
        <time>2021-05-30T18:47:20Z</time>
      </trkpt>
      <trkpt lat="-12.1509950" lon="-76.8705080">
        <ele>228.1</ele>
        <time>2021-05-30T18:47:22Z</time>
      </trkpt>
      <trkpt lat="-12.1509390" lon="-76.8705350">
        <ele>228.3</ele>
        <time>2021-05-30T18:47:24Z</time>
      </trkpt>
      <trkpt lat="-12.1509130" lon="-76.8705470">
        <ele>228.5</ele>
        <time>2021-05-30T18:47:25Z</time>
      </trkpt>
      <trkpt lat="-12.1508810" lon="-76.8705590">
        <ele>228.6</ele>
        <time>2021-05-30T18:47:26Z</time>
      </trkpt>
      <trkpt lat="-12.1508300" lon="-76.8705800">
        <ele>228.8</ele>
        <time>2021-05-30T18:47:28Z</time>
      </trkpt>
      <trkpt lat="-12.1507690" lon="-76.8706040">
        <ele>229.1</ele>
        <time>2021-05-30T18:47:30Z</time>
      </trkpt>
      <trkpt lat="-12.1507210" lon="-76.8706160">
        <ele>229.3</ele>
        <time>2021-05-30T18:47:31Z</time>
      </trkpt>
      <trkpt lat="-12.1506870" lon="-76.8706240">
        <ele>229.5</ele>
        <time>2021-05-30T18:47:33Z</time>
      </trkpt>
      <trkpt lat="-12.1506560" lon="-76.8706320">
        <ele>229.6</ele>
        <time>2021-05-30T18:47:34Z</time>
      </trkpt>
      <trkpt lat="-12.1506270" lon="-76.8706410">
        <ele>229.7</ele>
        <time>2021-05-30T18:47:35Z</time>
      </trkpt>
      <trkpt lat="-12.1505980" lon="-76.8706510">
        <ele>229.9</ele>
        <time>2021-05-30T18:47:36Z</time>
      </trkpt>
      <trkpt lat="-12.1505510" lon="-76.8706610">
        <ele>230.1</ele>
        <time>2021-05-30T18:47:37Z</time>
      </trkpt>
      <trkpt lat="-12.1505290" lon="-76.8706660">
        <ele>230.2</ele>
        <time>2021-05-30T18:47:38Z</time>
      </trkpt>
      <trkpt lat="-12.1504870" lon="-76.8706800">
        <ele>230.4</ele>
        <time>2021-05-30T18:47:40Z</time>
      </trkpt>
      <trkpt lat="-12.1504550" lon="-76.8706930">
        <ele>230.5</ele>
        <time>2021-05-30T18:47:41Z</time>
      </trkpt>
      <trkpt lat="-12.1504030" lon="-76.8707090">
        <ele>230.8</ele>
        <time>2021-05-30T18:47:42Z</time>
      </trkpt>
      <trkpt lat="-12.1503660" lon="-76.8707190">
        <ele>231.0</ele>
        <time>2021-05-30T18:47:44Z</time>
      </trkpt>
      <trkpt lat="-12.1503360" lon="-76.8707230">
        <ele>231.1</ele>
        <time>2021-05-30T18:47:45Z</time>
      </trkpt>
      <trkpt lat="-12.1502810" lon="-76.8707300">
        <ele>231.3</ele>
        <time>2021-05-30T18:47:46Z</time>
      </trkpt>
      <trkpt lat="-12.1502460" lon="-76.8707360">
        <ele>231.5</ele>
        <time>2021-05-30T18:47:48Z</time>
      </trkpt>
      <trkpt lat="-12.1502160" lon="-76.8707430">
        <ele>231.6</ele>
        <time>2021-05-30T18:47:49Z</time>
      </trkpt>
      <trkpt lat="-12.1501510" lon="-76.8707620">
        <ele>231.9</ele>
        <time>2021-05-30T18:47:51Z</time>
      </trkpt>
      <trkpt lat="-12.1500950" lon="-76.8707860">
        <ele>232.2</ele>
        <time>2021-05-30T18:47:53Z</time>
      </trkpt>
      <trkpt lat="-12.1500370" lon="-76.8708010">
        <ele>232.4</ele>
        <time>2021-05-30T18:47:55Z</time>
      </trkpt>
      <trkpt lat="-12.1500000" lon="-76.8708120">
        <ele>232.6</ele>
        <time>2021-05-30T18:47:56Z</time>
      </trkpt>
      <trkpt lat="-12.1499860" lon="-76.8708160">
        <ele>232.7</ele>
        <time>2021-05-30T18:47:57Z</time>
      </trkpt>
      <trkpt lat="-12.1499240" lon="-76.8708230">
        <ele>232.9</ele>
        <time>2021-05-30T18:47:59Z</time>
      </trkpt>
      <trkpt lat="-12.1498940" lon="-76.8708270">
        <ele>233.1</ele>
        <time>2021-05-30T18:48:00Z</time>
      </trkpt>
      <trkpt lat="-12.1498330" lon="-76.8708400">
        <ele>233.3</ele>
        <time>2021-05-30T18:48:02Z</time>
      </trkpt>
      <trkpt lat="-12.1498020" lon="-76.8708460">
        <ele>233.5</ele>
        <time>2021-05-30T18:48:03Z</time>
      </trkpt>
      <trkpt lat="-12.1497390" lon="-76.8708600">
        <ele>233.7</ele>
        <time>2021-05-30T18:48:05Z</time>
      </trkpt>
      <trkpt lat="-12.1497040" lon="-76.8708690">
        <ele>233.9</ele>
        <time>2021-05-30T18:48:06Z</time>
      </trkpt>
      <trkpt lat="-12.1496560" lon="-76.8708840">
        <ele>234.1</ele>
        <time>2021-05-30T18:48:07Z</time>
      </trkpt>
      <trkpt lat="-12.1496100" lon="-76.8708990">
        <ele>234.3</ele>
        <time>2021-05-30T18:48:09Z</time>
      </trkpt>
      <trkpt lat="-12.1495630" lon="-76.8709170">
        <ele>234.5</ele>
        <time>2021-05-30T18:48:10Z</time>
      </trkpt>
      <trkpt lat="-12.1495170" lon="-76.8709370">
        <ele>234.7</ele>
        <time>2021-05-30T18:48:12Z</time>
      </trkpt>
      <trkpt lat="-12.1494850" lon="-76.8709510">
        <ele>234.8</ele>
        <time>2021-05-30T18:48:13Z</time>
      </trkpt>
      <trkpt lat="-12.1494510" lon="-76.8709640">
        <ele>234.9</ele>
        <time>2021-05-30T18:48:14Z</time>
      </trkpt>
      <trkpt lat="-12.1493910" lon="-76.8709940">
        <ele>235.1</ele>
        <time>2021-05-30T18:48:16Z</time>
      </trkpt>
      <trkpt lat="-12.1493580" lon="-76.8710090">
        <ele>235.3</ele>
        <time>2021-05-30T18:48:17Z</time>
      </trkpt>
      <trkpt lat="-12.1492930" lon="-76.8710340">
        <ele>235.6</ele>
        <time>2021-05-30T18:48:19Z</time>
      </trkpt>
      <trkpt lat="-12.1492260" lon="-76.8710530">
        <ele>235.9</ele>
        <time>2021-05-30T18:48:21Z</time>
      </trkpt>
      <trkpt lat="-12.1491850" lon="-76.8710600">
        <ele>236.1</ele>
        <time>2021-05-30T18:48:22Z</time>
      </trkpt>
      <trkpt lat="-12.1491260" lon="-76.8710700">
        <ele>236.4</ele>
        <time>2021-05-30T18:48:24Z</time>
      </trkpt>
      <trkpt lat="-12.1490560" lon="-76.8710730">
        <ele>236.7</ele>
        <time>2021-05-30T18:48:26Z</time>
      </trkpt>
      <trkpt lat="-12.1490190" lon="-76.8710750">
        <ele>236.9</ele>
        <time>2021-05-30T18:48:27Z</time>
      </trkpt>
      <trkpt lat="-12.1489490" lon="-76.8710790">
        <ele>237.2</ele>
        <time>2021-05-30T18:48:29Z</time>
      </trkpt>
      <trkpt lat="-12.1488820" lon="-76.8710820">
        <ele>237.5</ele>
        <time>2021-05-30T18:48:31Z</time>
      </trkpt>
      <trkpt lat="-12.1488300" lon="-76.8710840">
        <ele>237.7</ele>
        <time>2021-05-30T18:48:32Z</time>
      </trkpt>
      <trkpt lat="-12.1487880" lon="-76.8710800">
        <ele>237.9</ele>
        <time>2021-05-30T18:48:33Z</time>
      </trkpt>
      <trkpt lat="-12.1487400" lon="-76.8710810">
        <ele>238.1</ele>
        <time>2021-05-30T18:48:35Z</time>
      </trkpt>
      <trkpt lat="-12.1487090" lon="-76.8710810">
        <ele>238.2</ele>
        <time>2021-05-30T18:48:36Z</time>
      </trkpt>
      <trkpt lat="-12.1486410" lon="-76.8710820">
        <ele>238.5</ele>
        <time>2021-05-30T18:48:38Z</time>
      </trkpt>
      <trkpt lat="-12.1485710" lon="-76.8710870">
        <ele>238.8</ele>
        <time>2021-05-30T18:48:40Z</time>
      </trkpt>
      <trkpt lat="-12.1485310" lon="-76.8710960">
        <ele>238.9</ele>
        <time>2021-05-30T18:48:41Z</time>
      </trkpt>
      <trkpt lat="-12.1484940" lon="-76.8711070">
        <ele>239.1</ele>
        <time>2021-05-30T18:48:42Z</time>
      </trkpt>
      <trkpt lat="-12.1484260" lon="-76.8711180">
        <ele>239.4</ele>
        <time>2021-05-30T18:48:44Z</time>
      </trkpt>
      <trkpt lat="-12.1483870" lon="-76.8711210">
        <ele>239.5</ele>
        <time>2021-05-30T18:48:45Z</time>
      </trkpt>
      <trkpt lat="-12.1483120" lon="-76.8711280">
        <ele>239.9</ele>
        <time>2021-05-30T18:48:47Z</time>
      </trkpt>
      <trkpt lat="-12.1482370" lon="-76.8711310">
        <ele>240.2</ele>
        <time>2021-05-30T18:48:49Z</time>
      </trkpt>
      <trkpt lat="-12.1481980" lon="-76.8711320">
        <ele>240.4</ele>
        <time>2021-05-30T18:48:50Z</time>
      </trkpt>
      <trkpt lat="-12.1481630" lon="-76.8711320">
        <ele>240.5</ele>
        <time>2021-05-30T18:48:51Z</time>
      </trkpt>
      <trkpt lat="-12.1480920" lon="-76.8711340">
        <ele>240.8</ele>
        <time>2021-05-30T18:48:53Z</time>
      </trkpt>
      <trkpt lat="-12.1480540" lon="-76.8711360">
        <ele>241.0</ele>
        <time>2021-05-30T18:48:54Z</time>
      </trkpt>
      <trkpt lat="-12.1480160" lon="-76.8711400">
        <ele>241.2</ele>
        <time>2021-05-30T18:48:55Z</time>
      </trkpt>
      <trkpt lat="-12.1479770" lon="-76.8711440">
        <ele>241.3</ele>
        <time>2021-05-30T18:48:56Z</time>
      </trkpt>
      <trkpt lat="-12.1479110" lon="-76.8711510">
        <ele>241.6</ele>
        <time>2021-05-30T18:48:58Z</time>
      </trkpt>
      <trkpt lat="-12.1478460" lon="-76.8711580">
        <ele>241.8</ele>
        <time>2021-05-30T18:48:59Z</time>
      </trkpt>
      <trkpt lat="-12.1477980" lon="-76.8711630">
        <ele>242.0</ele>
        <time>2021-05-30T18:49:01Z</time>
      </trkpt>
      <trkpt lat="-12.1477310" lon="-76.8711670">
        <ele>242.2</ele>
        <time>2021-05-30T18:49:03Z</time>
      </trkpt>
      <trkpt lat="-12.1476960" lon="-76.8711700">
        <ele>242.4</ele>
        <time>2021-05-30T18:49:04Z</time>
      </trkpt>
      <trkpt lat="-12.1476310" lon="-76.8711800">
        <ele>242.6</ele>
        <time>2021-05-30T18:49:06Z</time>
      </trkpt>
      <trkpt lat="-12.1475690" lon="-76.8711900">
        <ele>242.9</ele>
        <time>2021-05-30T18:49:08Z</time>
      </trkpt>
      <trkpt lat="-12.1475050" lon="-76.8711940">
        <ele>243.1</ele>
        <time>2021-05-30T18:49:10Z</time>
      </trkpt>
      <trkpt lat="-12.1474710" lon="-76.8711940">
        <ele>243.3</ele>
        <time>2021-05-30T18:49:11Z</time>
      </trkpt>
      <trkpt lat="-12.1474050" lon="-76.8711960">
        <ele>243.6</ele>
        <time>2021-05-30T18:49:13Z</time>
      </trkpt>
      <trkpt lat="-12.1473480" lon="-76.8712010">
        <ele>243.8</ele>
        <time>2021-05-30T18:49:14Z</time>
      </trkpt>
      <trkpt lat="-12.1472970" lon="-76.8712030">
        <ele>244.0</ele>
        <time>2021-05-30T18:49:16Z</time>
      </trkpt>
      <trkpt lat="-12.1472280" lon="-76.8712030">
        <ele>244.3</ele>
        <time>2021-05-30T18:49:18Z</time>
      </trkpt>
      <trkpt lat="-12.1471750" lon="-76.8712050">
        <ele>244.6</ele>
        <time>2021-05-30T18:49:19Z</time>
      </trkpt>
      <trkpt lat="-12.1471230" lon="-76.8712090">
        <ele>244.8</ele>
        <time>2021-05-30T18:49:21Z</time>
      </trkpt>
      <trkpt lat="-12.1470670" lon="-76.8712100">
        <ele>245.0</ele>
        <time>2021-05-30T18:49:22Z</time>
      </trkpt>
      <trkpt lat="-12.1470190" lon="-76.8712120">
        <ele>245.2</ele>
        <time>2021-05-30T18:49:24Z</time>
      </trkpt>
      <trkpt lat="-12.1469840" lon="-76.8712080">
        <ele>245.4</ele>
        <time>2021-05-30T18:49:25Z</time>
      </trkpt>
      <trkpt lat="-12.1469390" lon="-76.8712040">
        <ele>245.6</ele>
        <time>2021-05-30T18:49:26Z</time>
      </trkpt>
      <trkpt lat="-12.1468940" lon="-76.8712040">
        <ele>245.8</ele>
        <time>2021-05-30T18:49:27Z</time>
      </trkpt>
      <trkpt lat="-12.1468510" lon="-76.8712040">
        <ele>245.9</ele>
        <time>2021-05-30T18:49:29Z</time>
      </trkpt>
      <trkpt lat="-12.1467830" lon="-76.8712090">
        <ele>246.2</ele>
        <time>2021-05-30T18:49:31Z</time>
      </trkpt>
      <trkpt lat="-12.1467310" lon="-76.8712170">
        <ele>246.4</ele>
        <time>2021-05-30T18:49:32Z</time>
      </trkpt>
      <trkpt lat="-12.1466790" lon="-76.8712250">
        <ele>246.6</ele>
        <time>2021-05-30T18:49:34Z</time>
      </trkpt>
      <trkpt lat="-12.1466460" lon="-76.8712300">
        <ele>246.8</ele>
        <time>2021-05-30T18:49:35Z</time>
      </trkpt>
      <trkpt lat="-12.1465800" lon="-76.8712370">
        <ele>247.0</ele>
        <time>2021-05-30T18:49:37Z</time>
      </trkpt>
      <trkpt lat="-12.1465470" lon="-76.8712420">
        <ele>247.2</ele>
        <time>2021-05-30T18:49:38Z</time>
      </trkpt>
      <trkpt lat="-12.1465120" lon="-76.8712450">
        <ele>247.3</ele>
        <time>2021-05-30T18:49:39Z</time>
      </trkpt>
      <trkpt lat="-12.1464640" lon="-76.8712420">
        <ele>247.5</ele>
        <time>2021-05-30T18:49:40Z</time>
      </trkpt>
      <trkpt lat="-12.1464100" lon="-76.8712360">
        <ele>247.7</ele>
        <time>2021-05-30T18:49:42Z</time>
      </trkpt>
      <trkpt lat="-12.1463800" lon="-76.8712300">
        <ele>247.8</ele>
        <time>2021-05-30T18:49:43Z</time>
      </trkpt>
      <trkpt lat="-12.1463440" lon="-76.8712240">
        <ele>247.9</ele>
        <time>2021-05-30T18:49:44Z</time>
      </trkpt>
      <trkpt lat="-12.1462900" lon="-76.8712200">
        <ele>248.1</ele>
        <time>2021-05-30T18:49:46Z</time>
      </trkpt>
      <trkpt lat="-12.1462560" lon="-76.8712210">
        <ele>248.3</ele>
        <time>2021-05-30T18:49:47Z</time>
      </trkpt>
      <trkpt lat="-12.1461840" lon="-76.8712200">
        <ele>248.5</ele>
        <time>2021-05-30T18:49:49Z</time>
      </trkpt>
      <trkpt lat="-12.1461110" lon="-76.8712200">
        <ele>248.8</ele>
        <time>2021-05-30T18:49:51Z</time>
      </trkpt>
      <trkpt lat="-12.1460590" lon="-76.8712230">
        <ele>249.0</ele>
        <time>2021-05-30T18:49:52Z</time>
      </trkpt>
      <trkpt lat="-12.1460150" lon="-76.8712290">
        <ele>249.2</ele>
        <time>2021-05-30T18:49:54Z</time>
      </trkpt>
      <trkpt lat="-12.1459690" lon="-76.8712310">
        <ele>249.4</ele>
        <time>2021-05-30T18:49:55Z</time>
      </trkpt>
      <trkpt lat="-12.1459290" lon="-76.8712340">
        <ele>249.6</ele>
        <time>2021-05-30T18:49:57Z</time>
      </trkpt>
      <trkpt lat="-12.1458750" lon="-76.8712380">
        <ele>249.8</ele>
        <time>2021-05-30T18:49:59Z</time>
      </trkpt>
      <trkpt lat="-12.1458460" lon="-76.8712410">
        <ele>249.9</ele>
        <time>2021-05-30T18:50:00Z</time>
      </trkpt>
      <trkpt lat="-12.1457970" lon="-76.8712490">
        <ele>250.2</ele>
        <time>2021-05-30T18:50:01Z</time>
      </trkpt>
      <trkpt lat="-12.1457490" lon="-76.8712560">
        <ele>250.4</ele>
        <time>2021-05-30T18:50:02Z</time>
      </trkpt>
      <trkpt lat="-12.1456980" lon="-76.8712560">
        <ele>250.6</ele>
        <time>2021-05-30T18:50:04Z</time>
      </trkpt>
      <trkpt lat="-12.1456510" lon="-76.8712560">
        <ele>250.7</ele>
        <time>2021-05-30T18:50:05Z</time>
      </trkpt>
      <trkpt lat="-12.1455960" lon="-76.8712590">
        <ele>251.0</ele>
        <time>2021-05-30T18:50:07Z</time>
      </trkpt>
      <trkpt lat="-12.1455510" lon="-76.8712580">
        <ele>251.2</ele>
        <time>2021-05-30T18:50:08Z</time>
      </trkpt>
      <trkpt lat="-12.1454760" lon="-76.8712550">
        <ele>251.5</ele>
        <time>2021-05-30T18:50:10Z</time>
      </trkpt>
      <trkpt lat="-12.1454380" lon="-76.8712530">
        <ele>251.6</ele>
        <time>2021-05-30T18:50:11Z</time>
      </trkpt>
      <trkpt lat="-12.1453890" lon="-76.8712490">
        <ele>251.8</ele>
        <time>2021-05-30T18:50:12Z</time>
      </trkpt>
      <trkpt lat="-12.1453300" lon="-76.8712480">
        <ele>252.1</ele>
        <time>2021-05-30T18:50:14Z</time>
      </trkpt>
      <trkpt lat="-12.1452910" lon="-76.8712520">
        <ele>252.2</ele>
        <time>2021-05-30T18:50:15Z</time>
      </trkpt>
      <trkpt lat="-12.1452490" lon="-76.8712580">
        <ele>252.4</ele>
        <time>2021-05-30T18:50:16Z</time>
      </trkpt>
      <trkpt lat="-12.1452090" lon="-76.8712630">
        <ele>252.5</ele>
        <time>2021-05-30T18:50:17Z</time>
      </trkpt>
      <trkpt lat="-12.1451370" lon="-76.8712670">
        <ele>252.8</ele>
        <time>2021-05-30T18:50:19Z</time>
      </trkpt>
      <trkpt lat="-12.1451030" lon="-76.8712680">
        <ele>252.9</ele>
        <time>2021-05-30T18:50:20Z</time>
      </trkpt>
      <trkpt lat="-12.1450330" lon="-76.8712720">
        <ele>253.2</ele>
        <time>2021-05-30T18:50:22Z</time>
      </trkpt>
      <trkpt lat="-12.1449540" lon="-76.8712780">
        <ele>253.5</ele>
        <time>2021-05-30T18:50:24Z</time>
      </trkpt>
      <trkpt lat="-12.1448800" lon="-76.8712880">
        <ele>253.8</ele>
        <time>2021-05-30T18:50:26Z</time>
      </trkpt>
      <trkpt lat="-12.1448480" lon="-76.8712920">
        <ele>253.9</ele>
        <time>2021-05-30T18:50:27Z</time>
      </trkpt>
      <trkpt lat="-12.1447720" lon="-76.8712980">
        <ele>254.1</ele>
        <time>2021-05-30T18:50:29Z</time>
      </trkpt>
      <trkpt lat="-12.1447210" lon="-76.8713000">
        <ele>254.3</ele>
        <time>2021-05-30T18:50:30Z</time>
      </trkpt>
      <trkpt lat="-12.1446630" lon="-76.8713020">
        <ele>254.5</ele>
        <time>2021-05-30T18:50:32Z</time>
      </trkpt>
      <trkpt lat="-12.1445910" lon="-76.8713060">
        <ele>254.8</ele>
        <time>2021-05-30T18:50:34Z</time>
      </trkpt>
      <trkpt lat="-12.1445170" lon="-76.8712990">
        <ele>255.1</ele>
        <time>2021-05-30T18:50:36Z</time>
      </trkpt>
      <trkpt lat="-12.1444420" lon="-76.8712880">
        <ele>255.4</ele>
        <time>2021-05-30T18:50:38Z</time>
      </trkpt>
      <trkpt lat="-12.1443810" lon="-76.8712790">
        <ele>255.6</ele>
        <time>2021-05-30T18:50:39Z</time>
      </trkpt>
      <trkpt lat="-12.1443390" lon="-76.8712740">
        <ele>255.8</ele>
        <time>2021-05-30T18:50:41Z</time>
      </trkpt>
      <trkpt lat="-12.1443050" lon="-76.8712740">
        <ele>255.9</ele>
        <time>2021-05-30T18:50:42Z</time>
      </trkpt>
      <trkpt lat="-12.1442690" lon="-76.8712720">
        <ele>256.1</ele>
        <time>2021-05-30T18:50:43Z</time>
      </trkpt>
      <trkpt lat="-12.1442000" lon="-76.8712700">
        <ele>256.3</ele>
        <time>2021-05-30T18:50:45Z</time>
      </trkpt>
      <trkpt lat="-12.1441240" lon="-76.8712660">
        <ele>256.6</ele>
        <time>2021-05-30T18:50:47Z</time>
      </trkpt>
      <trkpt lat="-12.1440850" lon="-76.8712640">
        <ele>256.7</ele>
        <time>2021-05-30T18:50:48Z</time>
      </trkpt>
      <trkpt lat="-12.1440470" lon="-76.8712630">
        <ele>256.9</ele>
        <time>2021-05-30T18:50:49Z</time>
      </trkpt>
      <trkpt lat="-12.1440100" lon="-76.8712600">
        <ele>257.0</ele>
        <time>2021-05-30T18:50:50Z</time>
      </trkpt>
      <trkpt lat="-12.1439430" lon="-76.8712530">
        <ele>257.2</ele>
        <time>2021-05-30T18:50:51Z</time>
      </trkpt>
      <trkpt lat="-12.1438990" lon="-76.8712500">
        <ele>257.4</ele>
        <time>2021-05-30T18:50:53Z</time>
      </trkpt>
      <trkpt lat="-12.1438220" lon="-76.8712500">
        <ele>257.6</ele>
        <time>2021-05-30T18:50:55Z</time>
      </trkpt>
      <trkpt lat="-12.1437480" lon="-76.8712550">
        <ele>257.9</ele>
        <time>2021-05-30T18:50:57Z</time>
      </trkpt>
      <trkpt lat="-12.1437160" lon="-76.8712580">
        <ele>258.0</ele>
        <time>2021-05-30T18:50:58Z</time>
      </trkpt>
      <trkpt lat="-12.1436610" lon="-76.8712590">
        <ele>258.2</ele>
        <time>2021-05-30T18:50:59Z</time>
      </trkpt>
      <trkpt lat="-12.1436190" lon="-76.8712600">
        <ele>258.3</ele>
        <time>2021-05-30T18:51:00Z</time>
      </trkpt>
      <trkpt lat="-12.1435770" lon="-76.8712580">
        <ele>258.4</ele>
        <time>2021-05-30T18:51:02Z</time>
      </trkpt>
      <trkpt lat="-12.1435400" lon="-76.8712580">
        <ele>258.6</ele>
        <time>2021-05-30T18:51:03Z</time>
      </trkpt>
      <trkpt lat="-12.1435020" lon="-76.8712580">
        <ele>258.7</ele>
        <time>2021-05-30T18:51:04Z</time>
      </trkpt>
      <trkpt lat="-12.1434610" lon="-76.8712600">
        <ele>258.8</ele>
        <time>2021-05-30T18:51:05Z</time>
      </trkpt>
      <trkpt lat="-12.1433900" lon="-76.8712670">
        <ele>259.1</ele>
        <time>2021-05-30T18:51:07Z</time>
      </trkpt>
      <trkpt lat="-12.1433530" lon="-76.8712720">
        <ele>259.2</ele>
        <time>2021-05-30T18:51:08Z</time>
      </trkpt>
      <trkpt lat="-12.1433100" lon="-76.8712810">
        <ele>259.4</ele>
        <time>2021-05-30T18:51:09Z</time>
      </trkpt>
      <trkpt lat="-12.1432680" lon="-76.8712860">
        <ele>259.5</ele>
        <time>2021-05-30T18:51:10Z</time>
      </trkpt>
      <trkpt lat="-12.1431870" lon="-76.8712940">
        <ele>259.8</ele>
        <time>2021-05-30T18:51:12Z</time>
      </trkpt>
      <trkpt lat="-12.1431490" lon="-76.8712950">
        <ele>259.9</ele>
        <time>2021-05-30T18:51:13Z</time>
      </trkpt>
      <trkpt lat="-12.1430780" lon="-76.8712990">
        <ele>260.2</ele>
        <time>2021-05-30T18:51:15Z</time>
      </trkpt>
      <trkpt lat="-12.1430410" lon="-76.8712970">
        <ele>260.3</ele>
        <time>2021-05-30T18:51:16Z</time>
      </trkpt>
      <trkpt lat="-12.1430060" lon="-76.8712970">
        <ele>260.4</ele>
        <time>2021-05-30T18:51:17Z</time>
      </trkpt>
      <trkpt lat="-12.1429300" lon="-76.8712980">
        <ele>260.7</ele>
        <time>2021-05-30T18:51:19Z</time>
      </trkpt>
      <trkpt lat="-12.1428550" lon="-76.8712970">
        <ele>261.0</ele>
        <time>2021-05-30T18:51:21Z</time>
      </trkpt>
      <trkpt lat="-12.1428180" lon="-76.8712970">
        <ele>261.1</ele>
        <time>2021-05-30T18:51:22Z</time>
      </trkpt>
      <trkpt lat="-12.1427790" lon="-76.8712980">
        <ele>261.2</ele>
        <time>2021-05-30T18:51:23Z</time>
      </trkpt>
      <trkpt lat="-12.1426910" lon="-76.8713060">
        <ele>261.6</ele>
        <time>2021-05-30T18:51:25Z</time>
      </trkpt>
      <trkpt lat="-12.1426520" lon="-76.8713090">
        <ele>261.8</ele>
        <time>2021-05-30T18:51:26Z</time>
      </trkpt>
      <trkpt lat="-12.1425770" lon="-76.8713150">
        <ele>262.1</ele>
        <time>2021-05-30T18:51:28Z</time>
      </trkpt>
      <trkpt lat="-12.1425000" lon="-76.8713100">
        <ele>262.4</ele>
        <time>2021-05-30T18:51:30Z</time>
      </trkpt>
      <trkpt lat="-12.1424610" lon="-76.8713070">
        <ele>262.5</ele>
        <time>2021-05-30T18:51:31Z</time>
      </trkpt>
      <trkpt lat="-12.1423870" lon="-76.8713050">
        <ele>262.8</ele>
        <time>2021-05-30T18:51:33Z</time>
      </trkpt>
      <trkpt lat="-12.1423150" lon="-76.8713100">
        <ele>263.1</ele>
        <time>2021-05-30T18:51:35Z</time>
      </trkpt>
      <trkpt lat="-12.1422800" lon="-76.8713140">
        <ele>263.2</ele>
        <time>2021-05-30T18:51:36Z</time>
      </trkpt>
      <trkpt lat="-12.1422430" lon="-76.8713170">
        <ele>263.4</ele>
        <time>2021-05-30T18:51:37Z</time>
      </trkpt>
      <trkpt lat="-12.1421770" lon="-76.8713150">
        <ele>263.7</ele>
        <time>2021-05-30T18:51:39Z</time>
      </trkpt>
      <trkpt lat="-12.1421210" lon="-76.8713140">
        <ele>263.9</ele>
        <time>2021-05-30T18:51:40Z</time>
      </trkpt>
      <trkpt lat="-12.1420660" lon="-76.8713130">
        <ele>264.1</ele>
        <time>2021-05-30T18:51:42Z</time>
      </trkpt>
      <trkpt lat="-12.1420280" lon="-76.8713140">
        <ele>264.2</ele>
        <time>2021-05-30T18:51:43Z</time>
      </trkpt>
      <trkpt lat="-12.1419940" lon="-76.8713180">
        <ele>264.3</ele>
        <time>2021-05-30T18:51:44Z</time>
      </trkpt>
      <trkpt lat="-12.1419210" lon="-76.8713220">
        <ele>264.5</ele>
        <time>2021-05-30T18:51:46Z</time>
      </trkpt>
      <trkpt lat="-12.1418530" lon="-76.8713300">
        <ele>264.6</ele>
        <time>2021-05-30T18:51:48Z</time>
      </trkpt>
      <trkpt lat="-12.1417830" lon="-76.8713380">
        <ele>264.8</ele>
        <time>2021-05-30T18:51:50Z</time>
      </trkpt>
      <trkpt lat="-12.1417390" lon="-76.8713450">
        <ele>264.9</ele>
        <time>2021-05-30T18:51:51Z</time>
      </trkpt>
      <trkpt lat="-12.1416900" lon="-76.8713500">
        <ele>265.1</ele>
        <time>2021-05-30T18:51:53Z</time>
      </trkpt>
      <trkpt lat="-12.1416240" lon="-76.8713520">
        <ele>265.3</ele>
        <time>2021-05-30T18:51:55Z</time>
      </trkpt>
      <trkpt lat="-12.1415640" lon="-76.8713490">
        <ele>265.5</ele>
        <time>2021-05-30T18:51:57Z</time>
      </trkpt>
      <trkpt lat="-12.1415020" lon="-76.8713490">
        <ele>265.8</ele>
        <time>2021-05-30T18:51:59Z</time>
      </trkpt>
      <trkpt lat="-12.1414560" lon="-76.8713420">
        <ele>265.9</ele>
        <time>2021-05-30T18:52:00Z</time>
      </trkpt>
      <trkpt lat="-12.1413990" lon="-76.8713370">
        <ele>266.1</ele>
        <time>2021-05-30T18:52:02Z</time>
      </trkpt>
      <trkpt lat="-12.1413410" lon="-76.8713310">
        <ele>266.4</ele>
        <time>2021-05-30T18:52:04Z</time>
      </trkpt>
      <trkpt lat="-12.1412770" lon="-76.8713260">
        <ele>266.6</ele>
        <time>2021-05-30T18:52:06Z</time>
      </trkpt>
      <trkpt lat="-12.1412420" lon="-76.8713250">
        <ele>266.7</ele>
        <time>2021-05-30T18:52:07Z</time>
      </trkpt>
      <trkpt lat="-12.1411680" lon="-76.8713230">
        <ele>267.0</ele>
        <time>2021-05-30T18:52:09Z</time>
      </trkpt>
      <trkpt lat="-12.1411290" lon="-76.8713200">
        <ele>267.2</ele>
        <time>2021-05-30T18:52:10Z</time>
      </trkpt>
      <trkpt lat="-12.1410530" lon="-76.8713160">
        <ele>267.5</ele>
        <time>2021-05-30T18:52:12Z</time>
      </trkpt>
      <trkpt lat="-12.1410160" lon="-76.8713160">
        <ele>267.6</ele>
        <time>2021-05-30T18:52:13Z</time>
      </trkpt>
      <trkpt lat="-12.1409430" lon="-76.8713160">
        <ele>267.9</ele>
        <time>2021-05-30T18:52:15Z</time>
      </trkpt>
      <trkpt lat="-12.1409030" lon="-76.8713130">
        <ele>268.1</ele>
        <time>2021-05-30T18:52:16Z</time>
      </trkpt>
      <trkpt lat="-12.1408580" lon="-76.8713090">
        <ele>268.3</ele>
        <time>2021-05-30T18:52:17Z</time>
      </trkpt>
      <trkpt lat="-12.1408170" lon="-76.8713100">
        <ele>268.5</ele>
        <time>2021-05-30T18:52:18Z</time>
      </trkpt>
      <trkpt lat="-12.1407730" lon="-76.8713140">
        <ele>268.7</ele>
        <time>2021-05-30T18:52:19Z</time>
      </trkpt>
      <trkpt lat="-12.1407100" lon="-76.8713190">
        <ele>268.9</ele>
        <time>2021-05-30T18:52:20Z</time>
      </trkpt>
      <trkpt lat="-12.1406040" lon="-76.8713360">
        <ele>269.4</ele>
        <time>2021-05-30T18:52:22Z</time>
      </trkpt>
      <trkpt lat="-12.1405300" lon="-76.8713530">
        <ele>269.7</ele>
        <time>2021-05-30T18:52:23Z</time>
      </trkpt>
      <trkpt lat="-12.1404930" lon="-76.8713850">
        <ele>269.9</ele>
        <time>2021-05-30T18:52:24Z</time>
      </trkpt>
      <trkpt lat="-12.1404460" lon="-76.8713980">
        <ele>270.1</ele>
        <time>2021-05-30T18:52:26Z</time>
      </trkpt>
      <trkpt lat="-12.1404050" lon="-76.8714010">
        <ele>270.2</ele>
        <time>2021-05-30T18:52:27Z</time>
      </trkpt>
      <trkpt lat="-12.1403440" lon="-76.8714020">
        <ele>270.5</ele>
        <time>2021-05-30T18:52:28Z</time>
      </trkpt>
      <trkpt lat="-12.1403010" lon="-76.8713980">
        <ele>270.6</ele>
        <time>2021-05-30T18:52:29Z</time>
      </trkpt>
      <trkpt lat="-12.1402590" lon="-76.8713930">
        <ele>270.8</ele>
        <time>2021-05-30T18:52:30Z</time>
      </trkpt>
      <trkpt lat="-12.1402190" lon="-76.8713920">
        <ele>271.0</ele>
        <time>2021-05-30T18:52:31Z</time>
      </trkpt>
      <trkpt lat="-12.1401760" lon="-76.8713900">
        <ele>271.1</ele>
        <time>2021-05-30T18:52:32Z</time>
      </trkpt>
      <trkpt lat="-12.1401340" lon="-76.8713900">
        <ele>271.3</ele>
        <time>2021-05-30T18:52:33Z</time>
      </trkpt>
      <trkpt lat="-12.1400920" lon="-76.8713920">
        <ele>271.5</ele>
        <time>2021-05-30T18:52:35Z</time>
      </trkpt>
      <trkpt lat="-12.1400510" lon="-76.8713940">
        <ele>271.6</ele>
        <time>2021-05-30T18:52:36Z</time>
      </trkpt>
      <trkpt lat="-12.1399960" lon="-76.8713980">
        <ele>271.8</ele>
        <time>2021-05-30T18:52:37Z</time>
      </trkpt>
      <trkpt lat="-12.1399590" lon="-76.8714010">
        <ele>272.0</ele>
        <time>2021-05-30T18:52:38Z</time>
      </trkpt>
      <trkpt lat="-12.1399180" lon="-76.8714010">
        <ele>272.1</ele>
        <time>2021-05-30T18:52:39Z</time>
      </trkpt>
      <trkpt lat="-12.1398760" lon="-76.8713990">
        <ele>272.3</ele>
        <time>2021-05-30T18:52:41Z</time>
      </trkpt>
      <trkpt lat="-12.1398380" lon="-76.8713990">
        <ele>272.5</ele>
        <time>2021-05-30T18:52:42Z</time>
      </trkpt>
      <trkpt lat="-12.1397740" lon="-76.8714060">
        <ele>272.7</ele>
        <time>2021-05-30T18:52:44Z</time>
      </trkpt>
      <trkpt lat="-12.1397390" lon="-76.8714110">
        <ele>272.9</ele>
        <time>2021-05-30T18:52:45Z</time>
      </trkpt>
      <trkpt lat="-12.1396860" lon="-76.8714170">
        <ele>273.1</ele>
        <time>2021-05-30T18:52:46Z</time>
      </trkpt>
      <trkpt lat="-12.1396440" lon="-76.8714130">
        <ele>273.3</ele>
        <time>2021-05-30T18:52:47Z</time>
      </trkpt>
      <trkpt lat="-12.1396050" lon="-76.8714070">
        <ele>273.4</ele>
        <time>2021-05-30T18:52:48Z</time>
      </trkpt>
      <trkpt lat="-12.1395650" lon="-76.8714050">
        <ele>273.6</ele>
        <time>2021-05-30T18:52:50Z</time>
      </trkpt>
      <trkpt lat="-12.1395230" lon="-76.8714060">
        <ele>273.7</ele>
        <time>2021-05-30T18:52:51Z</time>
      </trkpt>
      <trkpt lat="-12.1394660" lon="-76.8714070">
        <ele>273.9</ele>
        <time>2021-05-30T18:52:52Z</time>
      </trkpt>
      <trkpt lat="-12.1394260" lon="-76.8714050">
        <ele>274.1</ele>
        <time>2021-05-30T18:52:53Z</time>
      </trkpt>
      <trkpt lat="-12.1393870" lon="-76.8713990">
        <ele>274.2</ele>
        <time>2021-05-30T18:52:55Z</time>
      </trkpt>
      <trkpt lat="-12.1393440" lon="-76.8714000">
        <ele>274.4</ele>
        <time>2021-05-30T18:52:56Z</time>
      </trkpt>
      <trkpt lat="-12.1393070" lon="-76.8714010">
        <ele>274.5</ele>
        <time>2021-05-30T18:52:57Z</time>
      </trkpt>
      <trkpt lat="-12.1392670" lon="-76.8714050">
        <ele>274.7</ele>
        <time>2021-05-30T18:52:58Z</time>
      </trkpt>
      <trkpt lat="-12.1392120" lon="-76.8714090">
        <ele>274.9</ele>
        <time>2021-05-30T18:52:59Z</time>
      </trkpt>
      <trkpt lat="-12.1391660" lon="-76.8714120">
        <ele>275.1</ele>
        <time>2021-05-30T18:53:00Z</time>
      </trkpt>
      <trkpt lat="-12.1391180" lon="-76.8714140">
        <ele>275.3</ele>
        <time>2021-05-30T18:53:01Z</time>
      </trkpt>
      <trkpt lat="-12.1390510" lon="-76.8714120">
        <ele>275.5</ele>
        <time>2021-05-30T18:53:03Z</time>
      </trkpt>
      <trkpt lat="-12.1390100" lon="-76.8714110">
        <ele>275.6</ele>
        <time>2021-05-30T18:53:04Z</time>
      </trkpt>
      <trkpt lat="-12.1389660" lon="-76.8714110">
        <ele>275.7</ele>
        <time>2021-05-30T18:53:05Z</time>
      </trkpt>
      <trkpt lat="-12.1388950" lon="-76.8714090">
        <ele>276.0</ele>
        <time>2021-05-30T18:53:06Z</time>
      </trkpt>
      <trkpt lat="-12.1388330" lon="-76.8714070">
        <ele>276.1</ele>
        <time>2021-05-30T18:53:08Z</time>
      </trkpt>
      <trkpt lat="-12.1387680" lon="-76.8714050">
        <ele>276.3</ele>
        <time>2021-05-30T18:53:09Z</time>
      </trkpt>
      <trkpt lat="-12.1386780" lon="-76.8714030">
        <ele>276.6</ele>
        <time>2021-05-30T18:53:11Z</time>
      </trkpt>
      <trkpt lat="-12.1386330" lon="-76.8714050">
        <ele>276.7</ele>
        <time>2021-05-30T18:53:12Z</time>
      </trkpt>
      <trkpt lat="-12.1385700" lon="-76.8714050">
        <ele>276.9</ele>
        <time>2021-05-30T18:53:14Z</time>
      </trkpt>
      <trkpt lat="-12.1385040" lon="-76.8714040">
        <ele>277.1</ele>
        <time>2021-05-30T18:53:15Z</time>
      </trkpt>
      <trkpt lat="-12.1384450" lon="-76.8713990">
        <ele>277.3</ele>
        <time>2021-05-30T18:53:17Z</time>
      </trkpt>
      <trkpt lat="-12.1384040" lon="-76.8713980">
        <ele>277.4</ele>
        <time>2021-05-30T18:53:18Z</time>
      </trkpt>
      <trkpt lat="-12.1383460" lon="-76.8714000">
        <ele>277.6</ele>
        <time>2021-05-30T18:53:19Z</time>
      </trkpt>
      <trkpt lat="-12.1382890" lon="-76.8714030">
        <ele>277.8</ele>
        <time>2021-05-30T18:53:20Z</time>
      </trkpt>
      <trkpt lat="-12.1382150" lon="-76.8714160">
        <ele>278.1</ele>
        <time>2021-05-30T18:53:22Z</time>
      </trkpt>
      <trkpt lat="-12.1381350" lon="-76.8714160">
        <ele>278.3</ele>
        <time>2021-05-30T18:53:24Z</time>
      </trkpt>
      <trkpt lat="-12.1380920" lon="-76.8714150">
        <ele>278.5</ele>
        <time>2021-05-30T18:53:25Z</time>
      </trkpt>
      <trkpt lat="-12.1380190" lon="-76.8714050">
        <ele>278.7</ele>
        <time>2021-05-30T18:53:27Z</time>
      </trkpt>
      <trkpt lat="-12.1379630" lon="-76.8714000">
        <ele>278.9</ele>
        <time>2021-05-30T18:53:28Z</time>
      </trkpt>
      <trkpt lat="-12.1379200" lon="-76.8713980">
        <ele>279.0</ele>
        <time>2021-05-30T18:53:29Z</time>
      </trkpt>
      <trkpt lat="-12.1378800" lon="-76.8713970">
        <ele>279.2</ele>
        <time>2021-05-30T18:53:30Z</time>
      </trkpt>
      <trkpt lat="-12.1378400" lon="-76.8714000">
        <ele>279.3</ele>
        <time>2021-05-30T18:53:31Z</time>
      </trkpt>
      <trkpt lat="-12.1378020" lon="-76.8714040">
        <ele>279.5</ele>
        <time>2021-05-30T18:53:32Z</time>
      </trkpt>
      <trkpt lat="-12.1377480" lon="-76.8714070">
        <ele>279.6</ele>
        <time>2021-05-30T18:53:34Z</time>
      </trkpt>
      <trkpt lat="-12.1376810" lon="-76.8714050">
        <ele>279.8</ele>
        <time>2021-05-30T18:53:35Z</time>
      </trkpt>
      <trkpt lat="-12.1376110" lon="-76.8714100">
        <ele>280.1</ele>
        <time>2021-05-30T18:53:37Z</time>
      </trkpt>
      <trkpt lat="-12.1375450" lon="-76.8714140">
        <ele>280.3</ele>
        <time>2021-05-30T18:53:38Z</time>
      </trkpt>
      <trkpt lat="-12.1375050" lon="-76.8714120">
        <ele>280.4</ele>
        <time>2021-05-30T18:53:39Z</time>
      </trkpt>
      <trkpt lat="-12.1374400" lon="-76.8714150">
        <ele>280.7</ele>
        <time>2021-05-30T18:53:41Z</time>
      </trkpt>
      <trkpt lat="-12.1373810" lon="-76.8714210">
        <ele>280.9</ele>
        <time>2021-05-30T18:53:42Z</time>
      </trkpt>
      <trkpt lat="-12.1373400" lon="-76.8714220">
        <ele>281.0</ele>
        <time>2021-05-30T18:53:44Z</time>
      </trkpt>
      <trkpt lat="-12.1373070" lon="-76.8714220">
        <ele>281.2</ele>
        <time>2021-05-30T18:53:45Z</time>
      </trkpt>
      <trkpt lat="-12.1372420" lon="-76.8714240">
        <ele>281.5</ele>
        <time>2021-05-30T18:53:47Z</time>
      </trkpt>
      <trkpt lat="-12.1372070" lon="-76.8714290">
        <ele>281.6</ele>
        <time>2021-05-30T18:53:48Z</time>
      </trkpt>
      <trkpt lat="-12.1371740" lon="-76.8714330">
        <ele>281.7</ele>
        <time>2021-05-30T18:53:49Z</time>
      </trkpt>
      <trkpt lat="-12.1371380" lon="-76.8714360">
        <ele>281.9</ele>
        <time>2021-05-30T18:53:50Z</time>
      </trkpt>
      <trkpt lat="-12.1370670" lon="-76.8714310">
        <ele>282.2</ele>
        <time>2021-05-30T18:53:52Z</time>
      </trkpt>
      <trkpt lat="-12.1370290" lon="-76.8714320">
        <ele>282.4</ele>
        <time>2021-05-30T18:53:53Z</time>
      </trkpt>
      <trkpt lat="-12.1369610" lon="-76.8714310">
        <ele>282.7</ele>
        <time>2021-05-30T18:53:55Z</time>
      </trkpt>
      <trkpt lat="-12.1368940" lon="-76.8714320">
        <ele>283.0</ele>
        <time>2021-05-30T18:53:57Z</time>
      </trkpt>
      <trkpt lat="-12.1368240" lon="-76.8714300">
        <ele>283.4</ele>
        <time>2021-05-30T18:53:59Z</time>
      </trkpt>
      <trkpt lat="-12.1367870" lon="-76.8714340">
        <ele>283.5</ele>
        <time>2021-05-30T18:54:00Z</time>
      </trkpt>
      <trkpt lat="-12.1367480" lon="-76.8714400">
        <ele>283.7</ele>
        <time>2021-05-30T18:54:01Z</time>
      </trkpt>
      <trkpt lat="-12.1366770" lon="-76.8714560">
        <ele>284.1</ele>
        <time>2021-05-30T18:54:03Z</time>
      </trkpt>
      <trkpt lat="-12.1366420" lon="-76.8714650">
        <ele>284.2</ele>
        <time>2021-05-30T18:54:04Z</time>
      </trkpt>
      <trkpt lat="-12.1366010" lon="-76.8714730">
        <ele>284.4</ele>
        <time>2021-05-30T18:54:05Z</time>
      </trkpt>
      <trkpt lat="-12.1365190" lon="-76.8714830">
        <ele>284.8</ele>
        <time>2021-05-30T18:54:07Z</time>
      </trkpt>
      <trkpt lat="-12.1364680" lon="-76.8714870">
        <ele>285.1</ele>
        <time>2021-05-30T18:54:08Z</time>
      </trkpt>
      <trkpt lat="-12.1364050" lon="-76.8714870">
        <ele>285.4</ele>
        <time>2021-05-30T18:54:10Z</time>
      </trkpt>
      <trkpt lat="-12.1363380" lon="-76.8714790">
        <ele>285.7</ele>
        <time>2021-05-30T18:54:12Z</time>
      </trkpt>
      <trkpt lat="-12.1362990" lon="-76.8714760">
        <ele>285.9</ele>
        <time>2021-05-30T18:54:13Z</time>
      </trkpt>
      <trkpt lat="-12.1362610" lon="-76.8714730">
        <ele>286.1</ele>
        <time>2021-05-30T18:54:14Z</time>
      </trkpt>
      <trkpt lat="-12.1362040" lon="-76.8714740">
        <ele>286.4</ele>
        <time>2021-05-30T18:54:15Z</time>
      </trkpt>
      <trkpt lat="-12.1361590" lon="-76.8714740">
        <ele>286.6</ele>
        <time>2021-05-30T18:54:17Z</time>
      </trkpt>
      <trkpt lat="-12.1360970" lon="-76.8714650">
        <ele>286.9</ele>
        <time>2021-05-30T18:54:18Z</time>
      </trkpt>
      <trkpt lat="-12.1360620" lon="-76.8714630">
        <ele>287.1</ele>
        <time>2021-05-30T18:54:19Z</time>
      </trkpt>
      <trkpt lat="-12.1360200" lon="-76.8714620">
        <ele>287.3</ele>
        <time>2021-05-30T18:54:21Z</time>
      </trkpt>
      <trkpt lat="-12.1359510" lon="-76.8714610">
        <ele>287.6</ele>
        <time>2021-05-30T18:54:23Z</time>
      </trkpt>
      <trkpt lat="-12.1359160" lon="-76.8714610">
        <ele>287.8</ele>
        <time>2021-05-30T18:54:24Z</time>
      </trkpt>
      <trkpt lat="-12.1358830" lon="-76.8714650">
        <ele>288.0</ele>
        <time>2021-05-30T18:54:25Z</time>
      </trkpt>
      <trkpt lat="-12.1358160" lon="-76.8714780">
        <ele>288.3</ele>
        <time>2021-05-30T18:54:27Z</time>
      </trkpt>
      <trkpt lat="-12.1357610" lon="-76.8714870">
        <ele>288.5</ele>
        <time>2021-05-30T18:54:28Z</time>
      </trkpt>
      <trkpt lat="-12.1357230" lon="-76.8714880">
        <ele>288.7</ele>
        <time>2021-05-30T18:54:29Z</time>
      </trkpt>
      <trkpt lat="-12.1356660" lon="-76.8714890">
        <ele>288.9</ele>
        <time>2021-05-30T18:54:31Z</time>
      </trkpt>
      <trkpt lat="-12.1356260" lon="-76.8714890">
        <ele>289.1</ele>
        <time>2021-05-30T18:54:32Z</time>
      </trkpt>
      <trkpt lat="-12.1355870" lon="-76.8714870">
        <ele>289.3</ele>
        <time>2021-05-30T18:54:33Z</time>
      </trkpt>
      <trkpt lat="-12.1355490" lon="-76.8714850">
        <ele>289.4</ele>
        <time>2021-05-30T18:54:34Z</time>
      </trkpt>
      <trkpt lat="-12.1354790" lon="-76.8714840">
        <ele>289.7</ele>
        <time>2021-05-30T18:54:36Z</time>
      </trkpt>
      <trkpt lat="-12.1354330" lon="-76.8714810">
        <ele>289.9</ele>
        <time>2021-05-30T18:54:37Z</time>
      </trkpt>
      <trkpt lat="-12.1353950" lon="-76.8714790">
        <ele>290.0</ele>
        <time>2021-05-30T18:54:38Z</time>
      </trkpt>
      <trkpt lat="-12.1353590" lon="-76.8714770">
        <ele>290.2</ele>
        <time>2021-05-30T18:54:39Z</time>
      </trkpt>
      <trkpt lat="-12.1353100" lon="-76.8714750">
        <ele>290.3</ele>
        <time>2021-05-30T18:54:40Z</time>
      </trkpt>
      <trkpt lat="-12.1352510" lon="-76.8714760">
        <ele>290.6</ele>
        <time>2021-05-30T18:54:42Z</time>
      </trkpt>
      <trkpt lat="-12.1352110" lon="-76.8714760">
        <ele>290.7</ele>
        <time>2021-05-30T18:54:43Z</time>
      </trkpt>
      <trkpt lat="-12.1351680" lon="-76.8714760">
        <ele>290.8</ele>
        <time>2021-05-30T18:54:44Z</time>
      </trkpt>
      <trkpt lat="-12.1350980" lon="-76.8714740">
        <ele>291.1</ele>
        <time>2021-05-30T18:54:46Z</time>
      </trkpt>
      <trkpt lat="-12.1350540" lon="-76.8714750">
        <ele>291.2</ele>
        <time>2021-05-30T18:54:47Z</time>
      </trkpt>
      <trkpt lat="-12.1349820" lon="-76.8714810">
        <ele>291.4</ele>
        <time>2021-05-30T18:54:48Z</time>
      </trkpt>
      <trkpt lat="-12.1349260" lon="-76.8714880">
        <ele>291.5</ele>
        <time>2021-05-30T18:54:50Z</time>
      </trkpt>
      <trkpt lat="-12.1348800" lon="-76.8714900">
        <ele>291.7</ele>
        <time>2021-05-30T18:54:51Z</time>
      </trkpt>
      <trkpt lat="-12.1347950" lon="-76.8714940">
        <ele>291.9</ele>
        <time>2021-05-30T18:54:53Z</time>
      </trkpt>
      <trkpt lat="-12.1347510" lon="-76.8714970">
        <ele>292.0</ele>
        <time>2021-05-30T18:54:54Z</time>
      </trkpt>
      <trkpt lat="-12.1347070" lon="-76.8715030">
        <ele>292.1</ele>
        <time>2021-05-30T18:54:55Z</time>
      </trkpt>
      <trkpt lat="-12.1346490" lon="-76.8715100">
        <ele>292.3</ele>
        <time>2021-05-30T18:54:56Z</time>
      </trkpt>
      <trkpt lat="-12.1345900" lon="-76.8715190">
        <ele>292.4</ele>
        <time>2021-05-30T18:54:58Z</time>
      </trkpt>
      <trkpt lat="-12.1345010" lon="-76.8715270">
        <ele>292.6</ele>
        <time>2021-05-30T18:55:00Z</time>
      </trkpt>
      <trkpt lat="-12.1344550" lon="-76.8715400">
        <ele>292.7</ele>
        <time>2021-05-30T18:55:02Z</time>
      </trkpt>
      <trkpt lat="-12.1344220" lon="-76.8715410">
        <ele>292.8</ele>
        <time>2021-05-30T18:55:03Z</time>
      </trkpt>
      <trkpt lat="-12.1343730" lon="-76.8715370">
        <ele>292.9</ele>
        <time>2021-05-30T18:55:05Z</time>
      </trkpt>
      <trkpt lat="-12.1343320" lon="-76.8715350">
        <ele>293.0</ele>
        <time>2021-05-30T18:55:06Z</time>
      </trkpt>
      <trkpt lat="-12.1342630" lon="-76.8715320">
        <ele>293.2</ele>
        <time>2021-05-30T18:55:07Z</time>
      </trkpt>
      <trkpt lat="-12.1342000" lon="-76.8715260">
        <ele>293.3</ele>
        <time>2021-05-30T18:55:09Z</time>
      </trkpt>
      <trkpt lat="-12.1341280" lon="-76.8715200">
        <ele>293.5</ele>
        <time>2021-05-30T18:55:10Z</time>
      </trkpt>
      <trkpt lat="-12.1340710" lon="-76.8715140">
        <ele>293.6</ele>
        <time>2021-05-30T18:55:12Z</time>
      </trkpt>
      <trkpt lat="-12.1340220" lon="-76.8715090">
        <ele>293.7</ele>
        <time>2021-05-30T18:55:13Z</time>
      </trkpt>
      <trkpt lat="-12.1339770" lon="-76.8715020">
        <ele>293.8</ele>
        <time>2021-05-30T18:55:14Z</time>
      </trkpt>
      <trkpt lat="-12.1339240" lon="-76.8714930">
        <ele>294.0</ele>
        <time>2021-05-30T18:55:15Z</time>
      </trkpt>
      <trkpt lat="-12.1338510" lon="-76.8714860">
        <ele>294.2</ele>
        <time>2021-05-30T18:55:17Z</time>
      </trkpt>
      <trkpt lat="-12.1337970" lon="-76.8714850">
        <ele>294.3</ele>
        <time>2021-05-30T18:55:18Z</time>
      </trkpt>
      <trkpt lat="-12.1337250" lon="-76.8714870">
        <ele>294.5</ele>
        <time>2021-05-30T18:55:20Z</time>
      </trkpt>
      <trkpt lat="-12.1336740" lon="-76.8714870">
        <ele>294.6</ele>
        <time>2021-05-30T18:55:21Z</time>
      </trkpt>
      <trkpt lat="-12.1336350" lon="-76.8714840">
        <ele>294.7</ele>
        <time>2021-05-30T18:55:22Z</time>
      </trkpt>
      <trkpt lat="-12.1335590" lon="-76.8714820">
        <ele>295.0</ele>
        <time>2021-05-30T18:55:24Z</time>
      </trkpt>
      <trkpt lat="-12.1334880" lon="-76.8714870">
        <ele>295.3</ele>
        <time>2021-05-30T18:55:26Z</time>
      </trkpt>
      <trkpt lat="-12.1334300" lon="-76.8714900">
        <ele>295.6</ele>
        <time>2021-05-30T18:55:27Z</time>
      </trkpt>
      <trkpt lat="-12.1333900" lon="-76.8714890">
        <ele>295.7</ele>
        <time>2021-05-30T18:55:28Z</time>
      </trkpt>
      <trkpt lat="-12.1333250" lon="-76.8714890">
        <ele>296.0</ele>
        <time>2021-05-30T18:55:30Z</time>
      </trkpt>
      <trkpt lat="-12.1332510" lon="-76.8714870">
        <ele>296.3</ele>
        <time>2021-05-30T18:55:31Z</time>
      </trkpt>
      <trkpt lat="-12.1332080" lon="-76.8714860">
        <ele>296.5</ele>
        <time>2021-05-30T18:55:32Z</time>
      </trkpt>
      <trkpt lat="-12.1331620" lon="-76.8714870">
        <ele>296.7</ele>
        <time>2021-05-30T18:55:34Z</time>
      </trkpt>
      <trkpt lat="-12.1330850" lon="-76.8714870">
        <ele>297.0</ele>
        <time>2021-05-30T18:55:36Z</time>
      </trkpt>
      <trkpt lat="-12.1330130" lon="-76.8714860">
        <ele>297.4</ele>
        <time>2021-05-30T18:55:38Z</time>
      </trkpt>
      <trkpt lat="-12.1329510" lon="-76.8714880">
        <ele>297.6</ele>
        <time>2021-05-30T18:55:39Z</time>
      </trkpt>
      <trkpt lat="-12.1329110" lon="-76.8714900">
        <ele>297.8</ele>
        <time>2021-05-30T18:55:41Z</time>
      </trkpt>
      <trkpt lat="-12.1328720" lon="-76.8714940">
        <ele>298.0</ele>
        <time>2021-05-30T18:55:42Z</time>
      </trkpt>
      <trkpt lat="-12.1328370" lon="-76.8714940">
        <ele>298.1</ele>
        <time>2021-05-30T18:55:43Z</time>
      </trkpt>
      <trkpt lat="-12.1327700" lon="-76.8714940">
        <ele>298.4</ele>
        <time>2021-05-30T18:55:45Z</time>
      </trkpt>
      <trkpt lat="-12.1327310" lon="-76.8714960">
        <ele>298.6</ele>
        <time>2021-05-30T18:55:46Z</time>
      </trkpt>
      <trkpt lat="-12.1326540" lon="-76.8715000">
        <ele>298.9</ele>
        <time>2021-05-30T18:55:48Z</time>
      </trkpt>
      <trkpt lat="-12.1326140" lon="-76.8715000">
        <ele>299.1</ele>
        <time>2021-05-30T18:55:49Z</time>
      </trkpt>
      <trkpt lat="-12.1325390" lon="-76.8715040">
        <ele>299.4</ele>
        <time>2021-05-30T18:55:51Z</time>
      </trkpt>
      <trkpt lat="-12.1324610" lon="-76.8715100">
        <ele>299.8</ele>
        <time>2021-05-30T18:55:53Z</time>
      </trkpt>
      <trkpt lat="-12.1324170" lon="-76.8715090">
        <ele>300.0</ele>
        <time>2021-05-30T18:55:54Z</time>
      </trkpt>
      <trkpt lat="-12.1323410" lon="-76.8715080">
        <ele>300.3</ele>
        <time>2021-05-30T18:55:56Z</time>
      </trkpt>
      <trkpt lat="-12.1323030" lon="-76.8715090">
        <ele>300.5</ele>
        <time>2021-05-30T18:55:57Z</time>
      </trkpt>
      <trkpt lat="-12.1322330" lon="-76.8715140">
        <ele>300.7</ele>
        <time>2021-05-30T18:55:59Z</time>
      </trkpt>
      <trkpt lat="-12.1321680" lon="-76.8715130">
        <ele>300.9</ele>
        <time>2021-05-30T18:56:01Z</time>
      </trkpt>
      <trkpt lat="-12.1321190" lon="-76.8715060">
        <ele>301.1</ele>
        <time>2021-05-30T18:56:02Z</time>
      </trkpt>
      <trkpt lat="-12.1320650" lon="-76.8715080">
        <ele>301.3</ele>
        <time>2021-05-30T18:56:04Z</time>
      </trkpt>
      <trkpt lat="-12.1320030" lon="-76.8715060">
        <ele>301.4</ele>
        <time>2021-05-30T18:56:05Z</time>
      </trkpt>
      <trkpt lat="-12.1319510" lon="-76.8715060">
        <ele>301.6</ele>
        <time>2021-05-30T18:56:07Z</time>
      </trkpt>
      <trkpt lat="-12.1318770" lon="-76.8715050">
        <ele>301.8</ele>
        <time>2021-05-30T18:56:09Z</time>
      </trkpt>
      <trkpt lat="-12.1318050" lon="-76.8715090">
        <ele>301.9</ele>
        <time>2021-05-30T18:56:10Z</time>
      </trkpt>
      <trkpt lat="-12.1317440" lon="-76.8715150">
        <ele>302.1</ele>
        <time>2021-05-30T18:56:12Z</time>
      </trkpt>
      <trkpt lat="-12.1316950" lon="-76.8715190">
        <ele>302.3</ele>
        <time>2021-05-30T18:56:13Z</time>
      </trkpt>
      <trkpt lat="-12.1316360" lon="-76.8715220">
        <ele>302.5</ele>
        <time>2021-05-30T18:56:14Z</time>
      </trkpt>
      <trkpt lat="-12.1315790" lon="-76.8715220">
        <ele>302.7</ele>
        <time>2021-05-30T18:56:16Z</time>
      </trkpt>
      <trkpt lat="-12.1315270" lon="-76.8715240">
        <ele>302.9</ele>
        <time>2021-05-30T18:56:17Z</time>
      </trkpt>
      <trkpt lat="-12.1314700" lon="-76.8715260">
        <ele>303.2</ele>
        <time>2021-05-30T18:56:18Z</time>
      </trkpt>
      <trkpt lat="-12.1314290" lon="-76.8715300">
        <ele>303.4</ele>
        <time>2021-05-30T18:56:19Z</time>
      </trkpt>
      <trkpt lat="-12.1313810" lon="-76.8715330">
        <ele>303.6</ele>
        <time>2021-05-30T18:56:21Z</time>
      </trkpt>
      <trkpt lat="-12.1313440" lon="-76.8715320">
        <ele>303.9</ele>
        <time>2021-05-30T18:56:22Z</time>
      </trkpt>
      <trkpt lat="-12.1312790" lon="-76.8715300">
        <ele>304.3</ele>
        <time>2021-05-30T18:56:24Z</time>
      </trkpt>
      <trkpt lat="-12.1312060" lon="-76.8715370">
        <ele>304.7</ele>
        <time>2021-05-30T18:56:26Z</time>
      </trkpt>
      <trkpt lat="-12.1311420" lon="-76.8715470">
        <ele>305.1</ele>
        <time>2021-05-30T18:56:27Z</time>
      </trkpt>
      <trkpt lat="-12.1310690" lon="-76.8715620">
        <ele>305.6</ele>
        <time>2021-05-30T18:56:30Z</time>
      </trkpt>
      <trkpt lat="-12.1310350" lon="-76.8715670">
        <ele>305.8</ele>
        <time>2021-05-30T18:56:31Z</time>
      </trkpt>
      <trkpt lat="-12.1310030" lon="-76.8715720">
        <ele>306.0</ele>
        <time>2021-05-30T18:56:32Z</time>
      </trkpt>
      <trkpt lat="-12.1309330" lon="-76.8715830">
        <ele>306.5</ele>
        <time>2021-05-30T18:56:34Z</time>
      </trkpt>
      <trkpt lat="-12.1309010" lon="-76.8715870">
        <ele>306.7</ele>
        <time>2021-05-30T18:56:35Z</time>
      </trkpt>
      <trkpt lat="-12.1308310" lon="-76.8715880">
        <ele>307.1</ele>
        <time>2021-05-30T18:56:37Z</time>
      </trkpt>
      <trkpt lat="-12.1307700" lon="-76.8715850">
        <ele>307.4</ele>
        <time>2021-05-30T18:56:39Z</time>
      </trkpt>
      <trkpt lat="-12.1307010" lon="-76.8715890">
        <ele>307.8</ele>
        <time>2021-05-30T18:56:41Z</time>
      </trkpt>
      <trkpt lat="-12.1306280" lon="-76.8715970">
        <ele>308.2</ele>
        <time>2021-05-30T18:56:43Z</time>
      </trkpt>
      <trkpt lat="-12.1305790" lon="-76.8716060">
        <ele>308.5</ele>
        <time>2021-05-30T18:56:44Z</time>
      </trkpt>
      <trkpt lat="-12.1305360" lon="-76.8716160">
        <ele>308.7</ele>
        <time>2021-05-30T18:56:45Z</time>
      </trkpt>
      <trkpt lat="-12.1304630" lon="-76.8716330">
        <ele>309.1</ele>
        <time>2021-05-30T18:56:48Z</time>
      </trkpt>
      <trkpt lat="-12.1304100" lon="-76.8716430">
        <ele>309.4</ele>
        <time>2021-05-30T18:56:49Z</time>
      </trkpt>
      <trkpt lat="-12.1303710" lon="-76.8716460">
        <ele>309.7</ele>
        <time>2021-05-30T18:56:51Z</time>
      </trkpt>
      <trkpt lat="-12.1303390" lon="-76.8716480">
        <ele>309.9</ele>
        <time>2021-05-30T18:56:52Z</time>
      </trkpt>
      <trkpt lat="-12.1302760" lon="-76.8716510">
        <ele>310.2</ele>
        <time>2021-05-30T18:56:54Z</time>
      </trkpt>
      <trkpt lat="-12.1302150" lon="-76.8716530">
        <ele>310.6</ele>
        <time>2021-05-30T18:56:56Z</time>
      </trkpt>
      <trkpt lat="-12.1301820" lon="-76.8716550">
        <ele>310.8</ele>
        <time>2021-05-30T18:56:57Z</time>
      </trkpt>
      <trkpt lat="-12.1301200" lon="-76.8716620">
        <ele>311.2</ele>
        <time>2021-05-30T18:56:59Z</time>
      </trkpt>
      <trkpt lat="-12.1300580" lon="-76.8716640">
        <ele>311.6</ele>
        <time>2021-05-30T18:57:01Z</time>
      </trkpt>
      <trkpt lat="-12.1300230" lon="-76.8716620">
        <ele>311.8</ele>
        <time>2021-05-30T18:57:02Z</time>
      </trkpt>
      <trkpt lat="-12.1299620" lon="-76.8716590">
        <ele>312.3</ele>
        <time>2021-05-30T18:57:04Z</time>
      </trkpt>
      <trkpt lat="-12.1299080" lon="-76.8716570">
        <ele>312.6</ele>
        <time>2021-05-30T18:57:05Z</time>
      </trkpt>
      <trkpt lat="-12.1298670" lon="-76.8716550">
        <ele>312.9</ele>
        <time>2021-05-30T18:57:07Z</time>
      </trkpt>
      <trkpt lat="-12.1298260" lon="-76.8716580">
        <ele>313.2</ele>
        <time>2021-05-30T18:57:08Z</time>
      </trkpt>
      <trkpt lat="-12.1297880" lon="-76.8716640">
        <ele>313.4</ele>
        <time>2021-05-30T18:57:09Z</time>
      </trkpt>
      <trkpt lat="-12.1297220" lon="-76.8716680">
        <ele>313.8</ele>
        <time>2021-05-30T18:57:11Z</time>
      </trkpt>
      <trkpt lat="-12.1296550" lon="-76.8716660">
        <ele>314.2</ele>
        <time>2021-05-30T18:57:13Z</time>
      </trkpt>
      <trkpt lat="-12.1295950" lon="-76.8716590">
        <ele>314.5</ele>
        <time>2021-05-30T18:57:14Z</time>
      </trkpt>
      <trkpt lat="-12.1295540" lon="-76.8716580">
        <ele>314.8</ele>
        <time>2021-05-30T18:57:15Z</time>
      </trkpt>
      <trkpt lat="-12.1295140" lon="-76.8716610">
        <ele>315.0</ele>
        <time>2021-05-30T18:57:17Z</time>
      </trkpt>
      <trkpt lat="-12.1294560" lon="-76.8716640">
        <ele>315.4</ele>
        <time>2021-05-30T18:57:18Z</time>
      </trkpt>
      <trkpt lat="-12.1294070" lon="-76.8716670">
        <ele>315.7</ele>
        <time>2021-05-30T18:57:20Z</time>
      </trkpt>
      <trkpt lat="-12.1293680" lon="-76.8716690">
        <ele>315.9</ele>
        <time>2021-05-30T18:57:21Z</time>
      </trkpt>
      <trkpt lat="-12.1292980" lon="-76.8716690">
        <ele>316.3</ele>
        <time>2021-05-30T18:57:23Z</time>
      </trkpt>
      <trkpt lat="-12.1292640" lon="-76.8716690">
        <ele>316.5</ele>
        <time>2021-05-30T18:57:24Z</time>
      </trkpt>
      <trkpt lat="-12.1292310" lon="-76.8716700">
        <ele>316.7</ele>
        <time>2021-05-30T18:57:25Z</time>
      </trkpt>
      <trkpt lat="-12.1291630" lon="-76.8716680">
        <ele>317.1</ele>
        <time>2021-05-30T18:57:27Z</time>
      </trkpt>
      <trkpt lat="-12.1290940" lon="-76.8716610">
        <ele>317.5</ele>
        <time>2021-05-30T18:57:29Z</time>
      </trkpt>
      <trkpt lat="-12.1290550" lon="-76.8716620">
        <ele>317.7</ele>
        <time>2021-05-30T18:57:30Z</time>
      </trkpt>
      <trkpt lat="-12.1290030" lon="-76.8716620">
        <ele>318.0</ele>
        <time>2021-05-30T18:57:31Z</time>
      </trkpt>
      <trkpt lat="-12.1289390" lon="-76.8716580">
        <ele>318.3</ele>
        <time>2021-05-30T18:57:33Z</time>
      </trkpt>
      <trkpt lat="-12.1288750" lon="-76.8716550">
        <ele>318.6</ele>
        <time>2021-05-30T18:57:34Z</time>
      </trkpt>
      <trkpt lat="-12.1288280" lon="-76.8716560">
        <ele>318.8</ele>
        <time>2021-05-30T18:57:36Z</time>
      </trkpt>
      <trkpt lat="-12.1287710" lon="-76.8716640">
        <ele>319.1</ele>
        <time>2021-05-30T18:57:37Z</time>
      </trkpt>
      <trkpt lat="-12.1287190" lon="-76.8716680">
        <ele>319.3</ele>
        <time>2021-05-30T18:57:39Z</time>
      </trkpt>
      <trkpt lat="-12.1286770" lon="-76.8716680">
        <ele>319.4</ele>
        <time>2021-05-30T18:57:40Z</time>
      </trkpt>
      <trkpt lat="-12.1286240" lon="-76.8716670">
        <ele>319.6</ele>
        <time>2021-05-30T18:57:41Z</time>
      </trkpt>
      <trkpt lat="-12.1285870" lon="-76.8716680">
        <ele>319.8</ele>
        <time>2021-05-30T18:57:42Z</time>
      </trkpt>
      <trkpt lat="-12.1285480" lon="-76.8716680">
        <ele>319.9</ele>
        <time>2021-05-30T18:57:43Z</time>
      </trkpt>
      <trkpt lat="-12.1285130" lon="-76.8716670">
        <ele>320.0</ele>
        <time>2021-05-30T18:57:44Z</time>
      </trkpt>
      <trkpt lat="-12.1284800" lon="-76.8716650">
        <ele>320.1</ele>
        <time>2021-05-30T18:57:45Z</time>
      </trkpt>
      <trkpt lat="-12.1284440" lon="-76.8716680">
        <ele>320.3</ele>
        <time>2021-05-30T18:57:46Z</time>
      </trkpt>
      <trkpt lat="-12.1284000" lon="-76.8716720">
        <ele>320.4</ele>
        <time>2021-05-30T18:57:48Z</time>
      </trkpt>
      <trkpt lat="-12.1283270" lon="-76.8716750">
        <ele>320.6</ele>
        <time>2021-05-30T18:57:50Z</time>
      </trkpt>
      <trkpt lat="-12.1282870" lon="-76.8716800">
        <ele>320.7</ele>
        <time>2021-05-30T18:57:51Z</time>
      </trkpt>
      <trkpt lat="-12.1282310" lon="-76.8716890">
        <ele>320.8</ele>
        <time>2021-05-30T18:57:52Z</time>
      </trkpt>
      <trkpt lat="-12.1281670" lon="-76.8717010">
        <ele>321.0</ele>
        <time>2021-05-30T18:57:54Z</time>
      </trkpt>
      <trkpt lat="-12.1280660" lon="-76.8717200">
        <ele>321.1</ele>
        <time>2021-05-30T18:57:56Z</time>
      </trkpt>
      <trkpt lat="-12.1280100" lon="-76.8717260">
        <ele>321.1</ele>
        <time>2021-05-30T18:57:57Z</time>
      </trkpt>
      <trkpt lat="-12.1279290" lon="-76.8717410">
        <ele>321.2</ele>
        <time>2021-05-30T18:57:59Z</time>
      </trkpt>
      <trkpt lat="-12.1278560" lon="-76.8717270">
        <ele>321.2</ele>
        <time>2021-05-30T18:58:01Z</time>
      </trkpt>
      <trkpt lat="-12.1277510" lon="-76.8717320">
        <ele>321.2</ele>
        <time>2021-05-30T18:58:03Z</time>
      </trkpt>
      <trkpt lat="-12.1276930" lon="-76.8717420">
        <ele>321.1</ele>
        <time>2021-05-30T18:58:04Z</time>
      </trkpt>
      <trkpt lat="-12.1275810" lon="-76.8717550">
        <ele>321.0</ele>
        <time>2021-05-30T18:58:06Z</time>
      </trkpt>
      <trkpt lat="-12.1275230" lon="-76.8717600">
        <ele>320.9</ele>
        <time>2021-05-30T18:58:07Z</time>
      </trkpt>
      <trkpt lat="-12.1274630" lon="-76.8717670">
        <ele>320.8</ele>
        <time>2021-05-30T18:58:08Z</time>
      </trkpt>
      <trkpt lat="-12.1273500" lon="-76.8717730">
        <ele>320.6</ele>
        <time>2021-05-30T18:58:10Z</time>
      </trkpt>
      <trkpt lat="-12.1272390" lon="-76.8717820">
        <ele>320.5</ele>
        <time>2021-05-30T18:58:12Z</time>
      </trkpt>
      <trkpt lat="-12.1271280" lon="-76.8717780">
        <ele>320.5</ele>
        <time>2021-05-30T18:58:14Z</time>
      </trkpt>
      <trkpt lat="-12.1270690" lon="-76.8717800">
        <ele>320.5</ele>
        <time>2021-05-30T18:58:15Z</time>
      </trkpt>
      <trkpt lat="-12.1269620" lon="-76.8717830">
        <ele>320.7</ele>
        <time>2021-05-30T18:58:17Z</time>
      </trkpt>
      <trkpt lat="-12.1268630" lon="-76.8717790">
        <ele>321.0</ele>
        <time>2021-05-30T18:58:19Z</time>
      </trkpt>
      <trkpt lat="-12.1267670" lon="-76.8717810">
        <ele>321.3</ele>
        <time>2021-05-30T18:58:21Z</time>
      </trkpt>
      <trkpt lat="-12.1267210" lon="-76.8717800">
        <ele>321.5</ele>
        <time>2021-05-30T18:58:22Z</time>
      </trkpt>
      <trkpt lat="-12.1266740" lon="-76.8717820">
        <ele>321.7</ele>
        <time>2021-05-30T18:58:23Z</time>
      </trkpt>
      <trkpt lat="-12.1265940" lon="-76.8717910">
        <ele>322.0</ele>
        <time>2021-05-30T18:58:25Z</time>
      </trkpt>
      <trkpt lat="-12.1265050" lon="-76.8717960">
        <ele>322.3</ele>
        <time>2021-05-30T18:58:27Z</time>
      </trkpt>
      <trkpt lat="-12.1264570" lon="-76.8718020">
        <ele>322.5</ele>
        <time>2021-05-30T18:58:28Z</time>
      </trkpt>
      <trkpt lat="-12.1263740" lon="-76.8718130">
        <ele>322.8</ele>
        <time>2021-05-30T18:58:30Z</time>
      </trkpt>
      <trkpt lat="-12.1262920" lon="-76.8718250">
        <ele>323.2</ele>
        <time>2021-05-30T18:58:32Z</time>
      </trkpt>
      <trkpt lat="-12.1262420" lon="-76.8718330">
        <ele>323.4</ele>
        <time>2021-05-30T18:58:33Z</time>
      </trkpt>
      <trkpt lat="-12.1261440" lon="-76.8718430">
        <ele>323.8</ele>
        <time>2021-05-30T18:58:35Z</time>
      </trkpt>
      <trkpt lat="-12.1261020" lon="-76.8718350">
        <ele>324.0</ele>
        <time>2021-05-30T18:58:36Z</time>
      </trkpt>
      <trkpt lat="-12.1260270" lon="-76.8718080">
        <ele>324.3</ele>
        <time>2021-05-30T18:58:38Z</time>
      </trkpt>
      <trkpt lat="-12.1259440" lon="-76.8718210">
        <ele>324.6</ele>
        <time>2021-05-30T18:58:40Z</time>
      </trkpt>
      <trkpt lat="-12.1259030" lon="-76.8718280">
        <ele>324.8</ele>
        <time>2021-05-30T18:58:41Z</time>
      </trkpt>
      <trkpt lat="-12.1258330" lon="-76.8718470">
        <ele>325.1</ele>
        <time>2021-05-30T18:58:42Z</time>
      </trkpt>
      <trkpt lat="-12.1257850" lon="-76.8718600">
        <ele>325.3</ele>
        <time>2021-05-30T18:58:44Z</time>
      </trkpt>
      <trkpt lat="-12.1257470" lon="-76.8718670">
        <ele>325.4</ele>
        <time>2021-05-30T18:58:45Z</time>
      </trkpt>
      <trkpt lat="-12.1256740" lon="-76.8718730">
        <ele>325.8</ele>
        <time>2021-05-30T18:58:46Z</time>
      </trkpt>
      <trkpt lat="-12.1256080" lon="-76.8718830">
        <ele>326.0</ele>
        <time>2021-05-30T18:58:48Z</time>
      </trkpt>
      <trkpt lat="-12.1255810" lon="-76.8719070">
        <ele>326.2</ele>
        <time>2021-05-30T18:58:49Z</time>
      </trkpt>
      <trkpt lat="-12.1255290" lon="-76.8719130">
        <ele>326.4</ele>
        <time>2021-05-30T18:58:51Z</time>
      </trkpt>
      <trkpt lat="-12.1254690" lon="-76.8719200">
        <ele>326.6</ele>
        <time>2021-05-30T18:58:52Z</time>
      </trkpt>
      <trkpt lat="-12.1254060" lon="-76.8719320">
        <ele>326.9</ele>
        <time>2021-05-30T18:58:54Z</time>
      </trkpt>
      <trkpt lat="-12.1253180" lon="-76.8719420">
        <ele>327.3</ele>
        <time>2021-05-30T18:58:56Z</time>
      </trkpt>
      <trkpt lat="-12.1252380" lon="-76.8719490">
        <ele>327.6</ele>
        <time>2021-05-30T18:58:57Z</time>
      </trkpt>
      <trkpt lat="-12.1251840" lon="-76.8719600">
        <ele>327.8</ele>
        <time>2021-05-30T18:58:58Z</time>
      </trkpt>
      <trkpt lat="-12.1251390" lon="-76.8719700">
        <ele>328.0</ele>
        <time>2021-05-30T18:58:59Z</time>
      </trkpt>
      <trkpt lat="-12.1250890" lon="-76.8719730">
        <ele>328.2</ele>
        <time>2021-05-30T18:59:00Z</time>
      </trkpt>
      <trkpt lat="-12.1250490" lon="-76.8719790">
        <ele>328.3</ele>
        <time>2021-05-30T18:59:01Z</time>
      </trkpt>
      <trkpt lat="-12.1250080" lon="-76.8719820">
        <ele>328.5</ele>
        <time>2021-05-30T18:59:02Z</time>
      </trkpt>
      <trkpt lat="-12.1249540" lon="-76.8719870">
        <ele>328.7</ele>
        <time>2021-05-30T18:59:04Z</time>
      </trkpt>
      <trkpt lat="-12.1249030" lon="-76.8719910">
        <ele>328.9</ele>
        <time>2021-05-30T18:59:05Z</time>
      </trkpt>
      <trkpt lat="-12.1248100" lon="-76.8720070">
        <ele>329.2</ele>
        <time>2021-05-30T18:59:07Z</time>
      </trkpt>
      <trkpt lat="-12.1247280" lon="-76.8720190">
        <ele>329.5</ele>
        <time>2021-05-30T18:59:09Z</time>
      </trkpt>
      <trkpt lat="-12.1246890" lon="-76.8720250">
        <ele>329.6</ele>
        <time>2021-05-30T18:59:10Z</time>
      </trkpt>
      <trkpt lat="-12.1246370" lon="-76.8720330">
        <ele>329.8</ele>
        <time>2021-05-30T18:59:11Z</time>
      </trkpt>
      <trkpt lat="-12.1245900" lon="-76.8720400">
        <ele>330.0</ele>
        <time>2021-05-30T18:59:12Z</time>
      </trkpt>
      <trkpt lat="-12.1245160" lon="-76.8720520">
        <ele>330.2</ele>
        <time>2021-05-30T18:59:14Z</time>
      </trkpt>
      <trkpt lat="-12.1244520" lon="-76.8720750">
        <ele>330.4</ele>
        <time>2021-05-30T18:59:15Z</time>
      </trkpt>
      <trkpt lat="-12.1244010" lon="-76.8720950">
        <ele>330.5</ele>
        <time>2021-05-30T18:59:17Z</time>
      </trkpt>
      <trkpt lat="-12.1243710" lon="-76.8720980">
        <ele>330.6</ele>
        <time>2021-05-30T18:59:18Z</time>
      </trkpt>
      <trkpt lat="-12.1242980" lon="-76.8721210">
        <ele>330.8</ele>
        <time>2021-05-30T18:59:20Z</time>
      </trkpt>
      <trkpt lat="-12.1243330" lon="-76.8721220">
        <ele>330.9</ele>
        <time>2021-05-30T18:59:21Z</time>
      </trkpt>
      <trkpt lat="-12.1242980" lon="-76.8721340">
        <ele>331.0</ele>
        <time>2021-05-30T18:59:22Z</time>
      </trkpt>
      <trkpt lat="-12.1242340" lon="-76.8721470">
        <ele>331.2</ele>
        <time>2021-05-30T18:59:23Z</time>
      </trkpt>
      <trkpt lat="-12.1241560" lon="-76.8721640">
        <ele>331.4</ele>
        <time>2021-05-30T18:59:25Z</time>
      </trkpt>
      <trkpt lat="-12.1240800" lon="-76.8721880">
        <ele>331.6</ele>
        <time>2021-05-30T18:59:26Z</time>
      </trkpt>
      <trkpt lat="-12.1240130" lon="-76.8722100">
        <ele>331.9</ele>
        <time>2021-05-30T18:59:28Z</time>
      </trkpt>
      <trkpt lat="-12.1239570" lon="-76.8722270">
        <ele>332.0</ele>
        <time>2021-05-30T18:59:29Z</time>
      </trkpt>
      <trkpt lat="-12.1238860" lon="-76.8722470">
        <ele>332.3</ele>
        <time>2021-05-30T18:59:31Z</time>
      </trkpt>
      <trkpt lat="-12.1238180" lon="-76.8722640">
        <ele>332.5</ele>
        <time>2021-05-30T18:59:32Z</time>
      </trkpt>
      <trkpt lat="-12.1237550" lon="-76.8722760">
        <ele>332.7</ele>
        <time>2021-05-30T18:59:34Z</time>
      </trkpt>
      <trkpt lat="-12.1237150" lon="-76.8722820">
        <ele>332.8</ele>
        <time>2021-05-30T18:59:35Z</time>
      </trkpt>
      <trkpt lat="-12.1236730" lon="-76.8722890">
        <ele>332.9</ele>
        <time>2021-05-30T18:59:36Z</time>
      </trkpt>
      <trkpt lat="-12.1235880" lon="-76.8722980">
        <ele>333.2</ele>
        <time>2021-05-30T18:59:38Z</time>
      </trkpt>
      <trkpt lat="-12.1235380" lon="-76.8723000">
        <ele>333.4</ele>
        <time>2021-05-30T18:59:39Z</time>
      </trkpt>
      <trkpt lat="-12.1234820" lon="-76.8723030">
        <ele>333.6</ele>
        <time>2021-05-30T18:59:40Z</time>
      </trkpt>
      <trkpt lat="-12.1234300" lon="-76.8723070">
        <ele>333.7</ele>
        <time>2021-05-30T18:59:41Z</time>
      </trkpt>
      <trkpt lat="-12.1233860" lon="-76.8723090">
        <ele>333.9</ele>
        <time>2021-05-30T18:59:42Z</time>
      </trkpt>
      <trkpt lat="-12.1233440" lon="-76.8723110">
        <ele>334.0</ele>
        <time>2021-05-30T18:59:43Z</time>
      </trkpt>
      <trkpt lat="-12.1233010" lon="-76.8723120">
        <ele>334.2</ele>
        <time>2021-05-30T18:59:44Z</time>
      </trkpt>
      <trkpt lat="-12.1232560" lon="-76.8723120">
        <ele>334.3</ele>
        <time>2021-05-30T18:59:46Z</time>
      </trkpt>
      <trkpt lat="-12.1231890" lon="-76.8723100">
        <ele>334.5</ele>
        <time>2021-05-30T18:59:47Z</time>
      </trkpt>
      <trkpt lat="-12.1231400" lon="-76.8723080">
        <ele>334.7</ele>
        <time>2021-05-30T18:59:49Z</time>
      </trkpt>
      <trkpt lat="-12.1230970" lon="-76.8723090">
        <ele>334.8</ele>
        <time>2021-05-30T18:59:50Z</time>
      </trkpt>
      <trkpt lat="-12.1230460" lon="-76.8723090">
        <ele>335.0</ele>
        <time>2021-05-30T18:59:51Z</time>
      </trkpt>
      <trkpt lat="-12.1229840" lon="-76.8723100">
        <ele>335.2</ele>
        <time>2021-05-30T18:59:53Z</time>
      </trkpt>
      <trkpt lat="-12.1229360" lon="-76.8723140">
        <ele>335.3</ele>
        <time>2021-05-30T18:59:54Z</time>
      </trkpt>
      <trkpt lat="-12.1228890" lon="-76.8723210">
        <ele>335.4</ele>
        <time>2021-05-30T18:59:55Z</time>
      </trkpt>
      <trkpt lat="-12.1228030" lon="-76.8723390">
        <ele>335.7</ele>
        <time>2021-05-30T18:59:57Z</time>
      </trkpt>
      <trkpt lat="-12.1227200" lon="-76.8723530">
        <ele>336.0</ele>
        <time>2021-05-30T18:59:59Z</time>
      </trkpt>
      <trkpt lat="-12.1226590" lon="-76.8723630">
        <ele>336.2</ele>
        <time>2021-05-30T19:00:00Z</time>
      </trkpt>
      <trkpt lat="-12.1225910" lon="-76.8723710">
        <ele>336.4</ele>
        <time>2021-05-30T19:00:02Z</time>
      </trkpt>
      <trkpt lat="-12.1225080" lon="-76.8723820">
        <ele>336.7</ele>
        <time>2021-05-30T19:00:04Z</time>
      </trkpt>
      <trkpt lat="-12.1224460" lon="-76.8723850">
        <ele>336.9</ele>
        <time>2021-05-30T19:00:05Z</time>
      </trkpt>
      <trkpt lat="-12.1223940" lon="-76.8723870">
        <ele>337.1</ele>
        <time>2021-05-30T19:00:07Z</time>
      </trkpt>
      <trkpt lat="-12.1223400" lon="-76.8723860">
        <ele>337.2</ele>
        <time>2021-05-30T19:00:08Z</time>
      </trkpt>
      <trkpt lat="-12.1222680" lon="-76.8723880">
        <ele>337.5</ele>
        <time>2021-05-30T19:00:10Z</time>
      </trkpt>
      <trkpt lat="-12.1222320" lon="-76.8723910">
        <ele>337.6</ele>
        <time>2021-05-30T19:00:11Z</time>
      </trkpt>
      <trkpt lat="-12.1221680" lon="-76.8723910">
        <ele>337.8</ele>
        <time>2021-05-30T19:00:12Z</time>
      </trkpt>
      <trkpt lat="-12.1221220" lon="-76.8723900">
        <ele>338.0</ele>
        <time>2021-05-30T19:00:14Z</time>
      </trkpt>
      <trkpt lat="-12.1220780" lon="-76.8723920">
        <ele>338.1</ele>
        <time>2021-05-30T19:00:15Z</time>
      </trkpt>
      <trkpt lat="-12.1220340" lon="-76.8723960">
        <ele>338.3</ele>
        <time>2021-05-30T19:00:16Z</time>
      </trkpt>
      <trkpt lat="-12.1219480" lon="-76.8724030">
        <ele>338.6</ele>
        <time>2021-05-30T19:00:18Z</time>
      </trkpt>
      <trkpt lat="-12.1219050" lon="-76.8724070">
        <ele>338.7</ele>
        <time>2021-05-30T19:00:19Z</time>
      </trkpt>
      <trkpt lat="-12.1218540" lon="-76.8724110">
        <ele>338.9</ele>
        <time>2021-05-30T19:00:20Z</time>
      </trkpt>
      <trkpt lat="-12.1217830" lon="-76.8724170">
        <ele>339.2</ele>
        <time>2021-05-30T19:00:22Z</time>
      </trkpt>
      <trkpt lat="-12.1217400" lon="-76.8724210">
        <ele>339.3</ele>
        <time>2021-05-30T19:00:23Z</time>
      </trkpt>
      <trkpt lat="-12.1216600" lon="-76.8724290">
        <ele>339.6</ele>
        <time>2021-05-30T19:00:25Z</time>
      </trkpt>
      <trkpt lat="-12.1215800" lon="-76.8724410">
        <ele>339.9</ele>
        <time>2021-05-30T19:00:27Z</time>
      </trkpt>
      <trkpt lat="-12.1215130" lon="-76.8724510">
        <ele>340.1</ele>
        <time>2021-05-30T19:00:28Z</time>
      </trkpt>
      <trkpt lat="-12.1214690" lon="-76.8724580">
        <ele>340.3</ele>
        <time>2021-05-30T19:00:29Z</time>
      </trkpt>
      <trkpt lat="-12.1214140" lon="-76.8724700">
        <ele>340.5</ele>
        <time>2021-05-30T19:00:31Z</time>
      </trkpt>
      <trkpt lat="-12.1213740" lon="-76.8724790">
        <ele>340.6</ele>
        <time>2021-05-30T19:00:32Z</time>
      </trkpt>
      <trkpt lat="-12.1213340" lon="-76.8724860">
        <ele>340.8</ele>
        <time>2021-05-30T19:00:33Z</time>
      </trkpt>
      <trkpt lat="-12.1212490" lon="-76.8725000">
        <ele>341.1</ele>
        <time>2021-05-30T19:00:35Z</time>
      </trkpt>
      <trkpt lat="-12.1211630" lon="-76.8725140">
        <ele>341.4</ele>
        <time>2021-05-30T19:00:37Z</time>
      </trkpt>
      <trkpt lat="-12.1210770" lon="-76.8725210">
        <ele>341.8</ele>
        <time>2021-05-30T19:00:39Z</time>
      </trkpt>
      <trkpt lat="-12.1210020" lon="-76.8725340">
        <ele>342.0</ele>
        <time>2021-05-30T19:00:41Z</time>
      </trkpt>
      <trkpt lat="-12.1209560" lon="-76.8725440">
        <ele>342.2</ele>
        <time>2021-05-30T19:00:42Z</time>
      </trkpt>
      <trkpt lat="-12.1209120" lon="-76.8725520">
        <ele>342.4</ele>
        <time>2021-05-30T19:00:43Z</time>
      </trkpt>
      <trkpt lat="-12.1208670" lon="-76.8725580">
        <ele>342.5</ele>
        <time>2021-05-30T19:00:44Z</time>
      </trkpt>
      <trkpt lat="-12.1207780" lon="-76.8725670">
        <ele>342.8</ele>
        <time>2021-05-30T19:00:46Z</time>
      </trkpt>
      <trkpt lat="-12.1207110" lon="-76.8725710">
        <ele>343.1</ele>
        <time>2021-05-30T19:00:47Z</time>
      </trkpt>
      <trkpt lat="-12.1206470" lon="-76.8725810">
        <ele>343.3</ele>
        <time>2021-05-30T19:00:49Z</time>
      </trkpt>
      <trkpt lat="-12.1205740" lon="-76.8725890">
        <ele>343.6</ele>
        <time>2021-05-30T19:00:50Z</time>
      </trkpt>
      <trkpt lat="-12.1205290" lon="-76.8725950">
        <ele>343.7</ele>
        <time>2021-05-30T19:00:51Z</time>
      </trkpt>
      <trkpt lat="-12.1204820" lon="-76.8725990">
        <ele>343.9</ele>
        <time>2021-05-30T19:00:53Z</time>
      </trkpt>
      <trkpt lat="-12.1203990" lon="-76.8726070">
        <ele>344.2</ele>
        <time>2021-05-30T19:00:55Z</time>
      </trkpt>
      <trkpt lat="-12.1203300" lon="-76.8726130">
        <ele>344.4</ele>
        <time>2021-05-30T19:00:56Z</time>
      </trkpt>
      <trkpt lat="-12.1202690" lon="-76.8726200">
        <ele>344.7</ele>
        <time>2021-05-30T19:00:58Z</time>
      </trkpt>
      <trkpt lat="-12.1202140" lon="-76.8726220">
        <ele>344.8</ele>
        <time>2021-05-30T19:00:59Z</time>
      </trkpt>
      <trkpt lat="-12.1201560" lon="-76.8726220">
        <ele>345.0</ele>
        <time>2021-05-30T19:01:00Z</time>
      </trkpt>
      <trkpt lat="-12.1201010" lon="-76.8726240">
        <ele>345.2</ele>
        <time>2021-05-30T19:01:02Z</time>
      </trkpt>
      <trkpt lat="-12.1200530" lon="-76.8726270">
        <ele>345.4</ele>
        <time>2021-05-30T19:01:03Z</time>
      </trkpt>
      <trkpt lat="-12.1199740" lon="-76.8726380">
        <ele>345.6</ele>
        <time>2021-05-30T19:01:05Z</time>
      </trkpt>
      <trkpt lat="-12.1199320" lon="-76.8726420">
        <ele>345.8</ele>
        <time>2021-05-30T19:01:06Z</time>
      </trkpt>
      <trkpt lat="-12.1198490" lon="-76.8726530">
        <ele>346.0</ele>
        <time>2021-05-30T19:01:07Z</time>
      </trkpt>
      <trkpt lat="-12.1197970" lon="-76.8726580">
        <ele>346.2</ele>
        <time>2021-05-30T19:01:09Z</time>
      </trkpt>
      <trkpt lat="-12.1197450" lon="-76.8726430">
        <ele>346.3</ele>
        <time>2021-05-30T19:01:10Z</time>
      </trkpt>
      <trkpt lat="-12.1196560" lon="-76.8726440">
        <ele>346.6</ele>
        <time>2021-05-30T19:01:12Z</time>
      </trkpt>
      <trkpt lat="-12.1196200" lon="-76.8726510">
        <ele>346.7</ele>
        <time>2021-05-30T19:01:13Z</time>
      </trkpt>
      <trkpt lat="-12.1196460" lon="-76.8726620">
        <ele>346.8</ele>
        <time>2021-05-30T19:01:14Z</time>
      </trkpt>
      <trkpt lat="-12.1196070" lon="-76.8726650">
        <ele>346.9</ele>
        <time>2021-05-30T19:01:15Z</time>
      </trkpt>
      <trkpt lat="-12.1195140" lon="-76.8726650">
        <ele>347.1</ele>
        <time>2021-05-30T19:01:17Z</time>
      </trkpt>
      <trkpt lat="-12.1194690" lon="-76.8726680">
        <ele>347.3</ele>
        <time>2021-05-30T19:01:18Z</time>
      </trkpt>
      <trkpt lat="-12.1194150" lon="-76.8726760">
        <ele>347.4</ele>
        <time>2021-05-30T19:01:19Z</time>
      </trkpt>
      <trkpt lat="-12.1193380" lon="-76.8726790">
        <ele>347.7</ele>
        <time>2021-05-30T19:01:21Z</time>
      </trkpt>
      <trkpt lat="-12.1192770" lon="-76.8726700">
        <ele>347.8</ele>
        <time>2021-05-30T19:01:22Z</time>
      </trkpt>
      <trkpt lat="-12.1192320" lon="-76.8726770">
        <ele>348.0</ele>
        <time>2021-05-30T19:01:23Z</time>
      </trkpt>
      <trkpt lat="-12.1191870" lon="-76.8726790">
        <ele>348.1</ele>
        <time>2021-05-30T19:01:24Z</time>
      </trkpt>
      <trkpt lat="-12.1191100" lon="-76.8726780">
        <ele>348.4</ele>
        <time>2021-05-30T19:01:26Z</time>
      </trkpt>
      <trkpt lat="-12.1191370" lon="-76.8726660">
        <ele>348.5</ele>
        <time>2021-05-30T19:01:27Z</time>
      </trkpt>
      <trkpt lat="-12.1190910" lon="-76.8726680">
        <ele>348.6</ele>
        <time>2021-05-30T19:01:28Z</time>
      </trkpt>
      <trkpt lat="-12.1190410" lon="-76.8726710">
        <ele>348.8</ele>
        <time>2021-05-30T19:01:29Z</time>
      </trkpt>
      <trkpt lat="-12.1189580" lon="-76.8726750">
        <ele>349.0</ele>
        <time>2021-05-30T19:01:31Z</time>
      </trkpt>
      <trkpt lat="-12.1189060" lon="-76.8726790">
        <ele>349.2</ele>
        <time>2021-05-30T19:01:32Z</time>
      </trkpt>
      <trkpt lat="-12.1188160" lon="-76.8726860">
        <ele>349.5</ele>
        <time>2021-05-30T19:01:34Z</time>
      </trkpt>
      <trkpt lat="-12.1187720" lon="-76.8726960">
        <ele>349.7</ele>
        <time>2021-05-30T19:01:35Z</time>
      </trkpt>
      <trkpt lat="-12.1186910" lon="-76.8727110">
        <ele>350.0</ele>
        <time>2021-05-30T19:01:37Z</time>
      </trkpt>
      <trkpt lat="-12.1186440" lon="-76.8727160">
        <ele>350.1</ele>
        <time>2021-05-30T19:01:38Z</time>
      </trkpt>
      <trkpt lat="-12.1185920" lon="-76.8727230">
        <ele>350.3</ele>
        <time>2021-05-30T19:01:39Z</time>
      </trkpt>
      <trkpt lat="-12.1185340" lon="-76.8727270">
        <ele>350.5</ele>
        <time>2021-05-30T19:01:40Z</time>
      </trkpt>
      <trkpt lat="-12.1184700" lon="-76.8727290">
        <ele>350.7</ele>
        <time>2021-05-30T19:01:41Z</time>
      </trkpt>
      <trkpt lat="-12.1184140" lon="-76.8727270">
        <ele>350.9</ele>
        <time>2021-05-30T19:01:43Z</time>
      </trkpt>
      <trkpt lat="-12.1183700" lon="-76.8727230">
        <ele>351.0</ele>
        <time>2021-05-30T19:01:44Z</time>
      </trkpt>
      <trkpt lat="-12.1183270" lon="-76.8727200">
        <ele>351.2</ele>
        <time>2021-05-30T19:01:45Z</time>
      </trkpt>
      <trkpt lat="-12.1182380" lon="-76.8727210">
        <ele>351.4</ele>
        <time>2021-05-30T19:01:47Z</time>
      </trkpt>
      <trkpt lat="-12.1181960" lon="-76.8727210">
        <ele>351.5</ele>
        <time>2021-05-30T19:01:48Z</time>
      </trkpt>
      <trkpt lat="-12.1181520" lon="-76.8727210">
        <ele>351.7</ele>
        <time>2021-05-30T19:01:49Z</time>
      </trkpt>
      <trkpt lat="-12.1181070" lon="-76.8727210">
        <ele>351.8</ele>
        <time>2021-05-30T19:01:50Z</time>
      </trkpt>
      <trkpt lat="-12.1180590" lon="-76.8727240">
        <ele>351.9</ele>
        <time>2021-05-30T19:01:51Z</time>
      </trkpt>
      <trkpt lat="-12.1179990" lon="-76.8727310">
        <ele>352.1</ele>
        <time>2021-05-30T19:01:52Z</time>
      </trkpt>
      <trkpt lat="-12.1179490" lon="-76.8727420">
        <ele>352.2</ele>
        <time>2021-05-30T19:01:54Z</time>
      </trkpt>
      <trkpt lat="-12.1179070" lon="-76.8727520">
        <ele>352.3</ele>
        <time>2021-05-30T19:01:55Z</time>
      </trkpt>
      <trkpt lat="-12.1178640" lon="-76.8727570">
        <ele>352.5</ele>
        <time>2021-05-30T19:01:56Z</time>
      </trkpt>
      <trkpt lat="-12.1178210" lon="-76.8727610">
        <ele>352.6</ele>
        <time>2021-05-30T19:01:57Z</time>
      </trkpt>
      <trkpt lat="-12.1177730" lon="-76.8727700">
        <ele>352.7</ele>
        <time>2021-05-30T19:01:58Z</time>
      </trkpt>
      <trkpt lat="-12.1177250" lon="-76.8727790">
        <ele>352.8</ele>
        <time>2021-05-30T19:01:59Z</time>
      </trkpt>
      <trkpt lat="-12.1176650" lon="-76.8727890">
        <ele>353.0</ele>
        <time>2021-05-30T19:02:00Z</time>
      </trkpt>
      <trkpt lat="-12.1176090" lon="-76.8727990">
        <ele>353.2</ele>
        <time>2021-05-30T19:02:02Z</time>
      </trkpt>
      <trkpt lat="-12.1175280" lon="-76.8728090">
        <ele>353.4</ele>
        <time>2021-05-30T19:02:04Z</time>
      </trkpt>
      <trkpt lat="-12.1174840" lon="-76.8728160">
        <ele>353.6</ele>
        <time>2021-05-30T19:02:05Z</time>
      </trkpt>
      <trkpt lat="-12.1174020" lon="-76.8728270">
        <ele>353.8</ele>
        <time>2021-05-30T19:02:07Z</time>
      </trkpt>
      <trkpt lat="-12.1173290" lon="-76.8728380">
        <ele>354.1</ele>
        <time>2021-05-30T19:02:08Z</time>
      </trkpt>
      <trkpt lat="-12.1172740" lon="-76.8728460">
        <ele>354.3</ele>
        <time>2021-05-30T19:02:10Z</time>
      </trkpt>
      <trkpt lat="-12.1171950" lon="-76.8728550">
        <ele>354.5</ele>
        <time>2021-05-30T19:02:12Z</time>
      </trkpt>
      <trkpt lat="-12.1171510" lon="-76.8728600">
        <ele>354.6</ele>
        <time>2021-05-30T19:02:13Z</time>
      </trkpt>
      <trkpt lat="-12.1170880" lon="-76.8728650">
        <ele>354.8</ele>
        <time>2021-05-30T19:02:14Z</time>
      </trkpt>
      <trkpt lat="-12.1170180" lon="-76.8728800">
        <ele>355.0</ele>
        <time>2021-05-30T19:02:16Z</time>
      </trkpt>
      <trkpt lat="-12.1169740" lon="-76.8728880">
        <ele>355.2</ele>
        <time>2021-05-30T19:02:17Z</time>
      </trkpt>
      <trkpt lat="-12.1169380" lon="-76.8728890">
        <ele>355.3</ele>
        <time>2021-05-30T19:02:18Z</time>
      </trkpt>
      <trkpt lat="-12.1168600" lon="-76.8728910">
        <ele>355.5</ele>
        <time>2021-05-30T19:02:20Z</time>
      </trkpt>
      <trkpt lat="-12.1168010" lon="-76.8729040">
        <ele>355.7</ele>
        <time>2021-05-30T19:02:21Z</time>
      </trkpt>
      <trkpt lat="-12.1167560" lon="-76.8729090">
        <ele>355.9</ele>
        <time>2021-05-30T19:02:22Z</time>
      </trkpt>
      <trkpt lat="-12.1167100" lon="-76.8729180">
        <ele>356.1</ele>
        <time>2021-05-30T19:02:23Z</time>
      </trkpt>
      <trkpt lat="-12.1166140" lon="-76.8729440">
        <ele>356.4</ele>
        <time>2021-05-30T19:02:25Z</time>
      </trkpt>
      <trkpt lat="-12.1165540" lon="-76.8729650">
        <ele>356.6</ele>
        <time>2021-05-30T19:02:26Z</time>
      </trkpt>
      <trkpt lat="-12.1164940" lon="-76.8729730">
        <ele>356.8</ele>
        <time>2021-05-30T19:02:28Z</time>
      </trkpt>
      <trkpt lat="-12.1164500" lon="-76.8729760">
        <ele>357.0</ele>
        <time>2021-05-30T19:02:29Z</time>
      </trkpt>
      <trkpt lat="-12.1164080" lon="-76.8729800">
        <ele>357.1</ele>
        <time>2021-05-30T19:02:30Z</time>
      </trkpt>
      <trkpt lat="-12.1163410" lon="-76.8729890">
        <ele>357.3</ele>
        <time>2021-05-30T19:02:31Z</time>
      </trkpt>
      <trkpt lat="-12.1162950" lon="-76.8729940">
        <ele>357.4</ele>
        <time>2021-05-30T19:02:33Z</time>
      </trkpt>
      <trkpt lat="-12.1162550" lon="-76.8729990">
        <ele>357.6</ele>
        <time>2021-05-30T19:02:34Z</time>
      </trkpt>
      <trkpt lat="-12.1161970" lon="-76.8730040">
        <ele>357.7</ele>
        <time>2021-05-30T19:02:35Z</time>
      </trkpt>
      <trkpt lat="-12.1161500" lon="-76.8729980">
        <ele>357.8</ele>
        <time>2021-05-30T19:02:36Z</time>
      </trkpt>
      <trkpt lat="-12.1161090" lon="-76.8729920">
        <ele>357.9</ele>
        <time>2021-05-30T19:02:37Z</time>
      </trkpt>
      <trkpt lat="-12.1160690" lon="-76.8729900">
        <ele>358.0</ele>
        <time>2021-05-30T19:02:39Z</time>
      </trkpt>
      <trkpt lat="-12.1160260" lon="-76.8729900">
        <ele>358.1</ele>
        <time>2021-05-30T19:02:40Z</time>
      </trkpt>
      <trkpt lat="-12.1159790" lon="-76.8729910">
        <ele>358.2</ele>
        <time>2021-05-30T19:02:41Z</time>
      </trkpt>
      <trkpt lat="-12.1158970" lon="-76.8730000">
        <ele>358.5</ele>
        <time>2021-05-30T19:02:43Z</time>
      </trkpt>
      <trkpt lat="-12.1158320" lon="-76.8730130">
        <ele>358.7</ele>
        <time>2021-05-30T19:02:44Z</time>
      </trkpt>
      <trkpt lat="-12.1157780" lon="-76.8730230">
        <ele>358.8</ele>
        <time>2021-05-30T19:02:46Z</time>
      </trkpt>
      <trkpt lat="-12.1157390" lon="-76.8730300">
        <ele>359.0</ele>
        <time>2021-05-30T19:02:47Z</time>
      </trkpt>
      <trkpt lat="-12.1156820" lon="-76.8730370">
        <ele>359.1</ele>
        <time>2021-05-30T19:02:48Z</time>
      </trkpt>
      <trkpt lat="-12.1156250" lon="-76.8730440">
        <ele>359.3</ele>
        <time>2021-05-30T19:02:50Z</time>
      </trkpt>
      <trkpt lat="-12.1155840" lon="-76.8730490">
        <ele>359.4</ele>
        <time>2021-05-30T19:02:51Z</time>
      </trkpt>
      <trkpt lat="-12.1155190" lon="-76.8730530">
        <ele>359.6</ele>
        <time>2021-05-30T19:02:53Z</time>
      </trkpt>
      <trkpt lat="-12.1154760" lon="-76.8730510">
        <ele>359.8</ele>
        <time>2021-05-30T19:02:54Z</time>
      </trkpt>
      <trkpt lat="-12.1153630" lon="-76.8730310">
        <ele>360.1</ele>
        <time>2021-05-30T19:02:56Z</time>
      </trkpt>
      <trkpt lat="-12.1152990" lon="-76.8730280">
        <ele>360.4</ele>
        <time>2021-05-30T19:02:57Z</time>
      </trkpt>
      <trkpt lat="-12.1152270" lon="-76.8730320">
        <ele>360.6</ele>
        <time>2021-05-30T19:02:59Z</time>
      </trkpt>
      <trkpt lat="-12.1151820" lon="-76.8730340">
        <ele>360.7</ele>
        <time>2021-05-30T19:03:00Z</time>
      </trkpt>
      <trkpt lat="-12.1151380" lon="-76.8730360">
        <ele>360.9</ele>
        <time>2021-05-30T19:03:01Z</time>
      </trkpt>
      <trkpt lat="-12.1150760" lon="-76.8730380">
        <ele>361.1</ele>
        <time>2021-05-30T19:03:02Z</time>
      </trkpt>
      <trkpt lat="-12.1150150" lon="-76.8730400">
        <ele>361.3</ele>
        <time>2021-05-30T19:03:04Z</time>
      </trkpt>
      <trkpt lat="-12.1149450" lon="-76.8730440">
        <ele>361.5</ele>
        <time>2021-05-30T19:03:05Z</time>
      </trkpt>
      <trkpt lat="-12.1148830" lon="-76.8730560">
        <ele>361.6</ele>
        <time>2021-05-30T19:03:07Z</time>
      </trkpt>
      <trkpt lat="-12.1148030" lon="-76.8730720">
        <ele>361.8</ele>
        <time>2021-05-30T19:03:09Z</time>
      </trkpt>
      <trkpt lat="-12.1147520" lon="-76.8730860">
        <ele>361.9</ele>
        <time>2021-05-30T19:03:10Z</time>
      </trkpt>
      <trkpt lat="-12.1147080" lon="-76.8730980">
        <ele>362.0</ele>
        <time>2021-05-30T19:03:11Z</time>
      </trkpt>
      <trkpt lat="-12.1146410" lon="-76.8731100">
        <ele>362.2</ele>
        <time>2021-05-30T19:03:12Z</time>
      </trkpt>
      <trkpt lat="-12.1145730" lon="-76.8731550">
        <ele>362.4</ele>
        <time>2021-05-30T19:03:14Z</time>
      </trkpt>
      <trkpt lat="-12.1144780" lon="-76.8731950">
        <ele>362.7</ele>
        <time>2021-05-30T19:03:16Z</time>
      </trkpt>
      <trkpt lat="-12.1144380" lon="-76.8731940">
        <ele>362.8</ele>
        <time>2021-05-30T19:03:17Z</time>
      </trkpt>
      <trkpt lat="-12.1143850" lon="-76.8731860">
        <ele>362.9</ele>
        <time>2021-05-30T19:03:18Z</time>
      </trkpt>
      <trkpt lat="-12.1143080" lon="-76.8732180">
        <ele>363.2</ele>
        <time>2021-05-30T19:03:20Z</time>
      </trkpt>
      <trkpt lat="-12.1142680" lon="-76.8732350">
        <ele>363.3</ele>
        <time>2021-05-30T19:03:21Z</time>
      </trkpt>
      <trkpt lat="-12.1141870" lon="-76.8732640">
        <ele>363.5</ele>
        <time>2021-05-30T19:03:23Z</time>
      </trkpt>
      <trkpt lat="-12.1141330" lon="-76.8732820">
        <ele>363.7</ele>
        <time>2021-05-30T19:03:24Z</time>
      </trkpt>
      <trkpt lat="-12.1140480" lon="-76.8733110">
        <ele>363.9</ele>
        <time>2021-05-30T19:03:26Z</time>
      </trkpt>
      <trkpt lat="-12.1140040" lon="-76.8733260">
        <ele>364.1</ele>
        <time>2021-05-30T19:03:27Z</time>
      </trkpt>
      <trkpt lat="-12.1139460" lon="-76.8733020">
        <ele>364.3</ele>
        <time>2021-05-30T19:03:28Z</time>
      </trkpt>
      <trkpt lat="-12.1138880" lon="-76.8733050">
        <ele>364.5</ele>
        <time>2021-05-30T19:03:30Z</time>
      </trkpt>
      <trkpt lat="-12.1138300" lon="-76.8733200">
        <ele>364.7</ele>
        <time>2021-05-30T19:03:31Z</time>
      </trkpt>
      <trkpt lat="-12.1137720" lon="-76.8733350">
        <ele>364.9</ele>
        <time>2021-05-30T19:03:33Z</time>
      </trkpt>
      <trkpt lat="-12.1137180" lon="-76.8733590">
        <ele>365.1</ele>
        <time>2021-05-30T19:03:34Z</time>
      </trkpt>
      <trkpt lat="-12.1136300" lon="-76.8733950">
        <ele>365.4</ele>
        <time>2021-05-30T19:03:36Z</time>
      </trkpt>
      <trkpt lat="-12.1135880" lon="-76.8734020">
        <ele>365.5</ele>
        <time>2021-05-30T19:03:37Z</time>
      </trkpt>
      <trkpt lat="-12.1135220" lon="-76.8734060">
        <ele>365.8</ele>
        <time>2021-05-30T19:03:38Z</time>
      </trkpt>
      <trkpt lat="-12.1134710" lon="-76.8734210">
        <ele>366.0</ele>
        <time>2021-05-30T19:03:40Z</time>
      </trkpt>
      <trkpt lat="-12.1134050" lon="-76.8734420">
        <ele>366.3</ele>
        <time>2021-05-30T19:03:41Z</time>
      </trkpt>
      <trkpt lat="-12.1133470" lon="-76.8734750">
        <ele>366.5</ele>
        <time>2021-05-30T19:03:43Z</time>
      </trkpt>
      <trkpt lat="-12.1132620" lon="-76.8734920">
        <ele>366.9</ele>
        <time>2021-05-30T19:03:45Z</time>
      </trkpt>
      <trkpt lat="-12.1132250" lon="-76.8734890">
        <ele>367.0</ele>
        <time>2021-05-30T19:03:46Z</time>
      </trkpt>
      <trkpt lat="-12.1131590" lon="-76.8735060">
        <ele>367.3</ele>
        <time>2021-05-30T19:03:47Z</time>
      </trkpt>
      <trkpt lat="-12.1131160" lon="-76.8735180">
        <ele>367.5</ele>
        <time>2021-05-30T19:03:49Z</time>
      </trkpt>
      <trkpt lat="-12.1130630" lon="-76.8735460">
        <ele>367.7</ele>
        <time>2021-05-30T19:03:51Z</time>
      </trkpt>
      <trkpt lat="-12.1130360" lon="-76.8735700">
        <ele>367.9</ele>
        <time>2021-05-30T19:03:52Z</time>
      </trkpt>
      <trkpt lat="-12.1129910" lon="-76.8736100">
        <ele>368.1</ele>
        <time>2021-05-30T19:03:54Z</time>
      </trkpt>
      <trkpt lat="-12.1129650" lon="-76.8736310">
        <ele>368.3</ele>
        <time>2021-05-30T19:03:55Z</time>
      </trkpt>
      <trkpt lat="-12.1129150" lon="-76.8736740">
        <ele>368.6</ele>
        <time>2021-05-30T19:03:57Z</time>
      </trkpt>
      <trkpt lat="-12.1128910" lon="-76.8736920">
        <ele>368.7</ele>
        <time>2021-05-30T19:03:58Z</time>
      </trkpt>
      <trkpt lat="-12.1128430" lon="-76.8737100">
        <ele>368.9</ele>
        <time>2021-05-30T19:04:00Z</time>
      </trkpt>
      <trkpt lat="-12.1128010" lon="-76.8737180">
        <ele>369.1</ele>
        <time>2021-05-30T19:04:01Z</time>
      </trkpt>
      <trkpt lat="-12.1127840" lon="-76.8737210">
        <ele>369.1</ele>
        <time>2021-05-30T19:04:02Z</time>
      </trkpt>
      <trkpt lat="-12.1127590" lon="-76.8737280">
        <ele>369.2</ele>
        <time>2021-05-30T19:04:03Z</time>
      </trkpt>
      <trkpt lat="-12.1126990" lon="-76.8737510">
        <ele>369.3</ele>
        <time>2021-05-30T19:04:05Z</time>
      </trkpt>
      <trkpt lat="-12.1126490" lon="-76.8737630">
        <ele>369.4</ele>
        <time>2021-05-30T19:04:07Z</time>
      </trkpt>
      <trkpt lat="-12.1125890" lon="-76.8737760">
        <ele>369.5</ele>
        <time>2021-05-30T19:04:08Z</time>
      </trkpt>
      <trkpt lat="-12.1125400" lon="-76.8737860">
        <ele>369.7</ele>
        <time>2021-05-30T19:04:10Z</time>
      </trkpt>
      <trkpt lat="-12.1124980" lon="-76.8737890">
        <ele>369.8</ele>
        <time>2021-05-30T19:04:11Z</time>
      </trkpt>
      <trkpt lat="-12.1124260" lon="-76.8737940">
        <ele>370.0</ele>
        <time>2021-05-30T19:04:12Z</time>
      </trkpt>
      <trkpt lat="-12.1123710" lon="-76.8738010">
        <ele>370.2</ele>
        <time>2021-05-30T19:04:14Z</time>
      </trkpt>
      <trkpt lat="-12.1122940" lon="-76.8738100">
        <ele>370.5</ele>
        <time>2021-05-30T19:04:15Z</time>
      </trkpt>
      <trkpt lat="-12.1122400" lon="-76.8738210">
        <ele>370.7</ele>
        <time>2021-05-30T19:04:17Z</time>
      </trkpt>
      <trkpt lat="-12.1121600" lon="-76.8738310">
        <ele>371.0</ele>
        <time>2021-05-30T19:04:19Z</time>
      </trkpt>
      <trkpt lat="-12.1121050" lon="-76.8738550">
        <ele>371.2</ele>
        <time>2021-05-30T19:04:20Z</time>
      </trkpt>
      <trkpt lat="-12.1120550" lon="-76.8738710">
        <ele>371.4</ele>
        <time>2021-05-30T19:04:21Z</time>
      </trkpt>
      <trkpt lat="-12.1120050" lon="-76.8738860">
        <ele>371.6</ele>
        <time>2021-05-30T19:04:22Z</time>
      </trkpt>
      <trkpt lat="-12.1119120" lon="-76.8739110">
        <ele>372.0</ele>
        <time>2021-05-30T19:04:24Z</time>
      </trkpt>
      <trkpt lat="-12.1118780" lon="-76.8739100">
        <ele>372.1</ele>
        <time>2021-05-30T19:04:25Z</time>
      </trkpt>
      <trkpt lat="-12.1117960" lon="-76.8739250">
        <ele>372.4</ele>
        <time>2021-05-30T19:04:27Z</time>
      </trkpt>
      <trkpt lat="-12.1117480" lon="-76.8739360">
        <ele>372.6</ele>
        <time>2021-05-30T19:04:28Z</time>
      </trkpt>
      <trkpt lat="-12.1116910" lon="-76.8739530">
        <ele>372.9</ele>
        <time>2021-05-30T19:04:29Z</time>
      </trkpt>
      <trkpt lat="-12.1116450" lon="-76.8739650">
        <ele>373.1</ele>
        <time>2021-05-30T19:04:30Z</time>
      </trkpt>
      <trkpt lat="-12.1115700" lon="-76.8739760">
        <ele>373.4</ele>
        <time>2021-05-30T19:04:32Z</time>
      </trkpt>
      <trkpt lat="-12.1115080" lon="-76.8739750">
        <ele>373.6</ele>
        <time>2021-05-30T19:04:33Z</time>
      </trkpt>
      <trkpt lat="-12.1114600" lon="-76.8739990">
        <ele>373.8</ele>
        <time>2021-05-30T19:04:35Z</time>
      </trkpt>
      <trkpt lat="-12.1114040" lon="-76.8740220">
        <ele>374.1</ele>
        <time>2021-05-30T19:04:36Z</time>
      </trkpt>
      <trkpt lat="-12.1113610" lon="-76.8740320">
        <ele>374.3</ele>
        <time>2021-05-30T19:04:37Z</time>
      </trkpt>
      <trkpt lat="-12.1113120" lon="-76.8740430">
        <ele>374.5</ele>
        <time>2021-05-30T19:04:38Z</time>
      </trkpt>
      <trkpt lat="-12.1112600" lon="-76.8740520">
        <ele>374.7</ele>
        <time>2021-05-30T19:04:40Z</time>
      </trkpt>
      <trkpt lat="-12.1111810" lon="-76.8740770">
        <ele>375.0</ele>
        <time>2021-05-30T19:04:42Z</time>
      </trkpt>
      <trkpt lat="-12.1111050" lon="-76.8741070">
        <ele>375.3</ele>
        <time>2021-05-30T19:04:44Z</time>
      </trkpt>
      <trkpt lat="-12.1110330" lon="-76.8741400">
        <ele>375.6</ele>
        <time>2021-05-30T19:04:46Z</time>
      </trkpt>
      <trkpt lat="-12.1109890" lon="-76.8741580">
        <ele>375.8</ele>
        <time>2021-05-30T19:04:47Z</time>
      </trkpt>
      <trkpt lat="-12.1109130" lon="-76.8741950">
        <ele>376.1</ele>
        <time>2021-05-30T19:04:49Z</time>
      </trkpt>
      <trkpt lat="-12.1108400" lon="-76.8742310">
        <ele>376.4</ele>
        <time>2021-05-30T19:04:51Z</time>
      </trkpt>
      <trkpt lat="-12.1107850" lon="-76.8742480">
        <ele>376.6</ele>
        <time>2021-05-30T19:04:53Z</time>
      </trkpt>
      <trkpt lat="-12.1107680" lon="-76.8742410">
        <ele>376.7</ele>
        <time>2021-05-30T19:04:54Z</time>
      </trkpt>
      <trkpt lat="-12.1107550" lon="-76.8742290">
        <ele>376.7</ele>
        <time>2021-05-30T19:04:55Z</time>
      </trkpt>
      <trkpt lat="-12.1107260" lon="-76.8742220">
        <ele>376.8</ele>
        <time>2021-05-30T19:04:56Z</time>
      </trkpt>
      <trkpt lat="-12.1107120" lon="-76.8742230">
        <ele>376.9</ele>
        <time>2021-05-30T19:04:57Z</time>
      </trkpt>
      <trkpt lat="-12.1106810" lon="-76.8742210">
        <ele>377.0</ele>
        <time>2021-05-30T19:04:59Z</time>
      </trkpt>
      <trkpt lat="-12.1106710" lon="-76.8742190">
        <ele>377.0</ele>
        <time>2021-05-30T19:05:00Z</time>
      </trkpt>
      <trkpt lat="-12.1106150" lon="-76.8742240">
        <ele>377.2</ele>
        <time>2021-05-30T19:05:02Z</time>
      </trkpt>
      <trkpt lat="-12.1105480" lon="-76.8742470">
        <ele>377.5</ele>
        <time>2021-05-30T19:05:04Z</time>
      </trkpt>
      <trkpt lat="-12.1104860" lon="-76.8742760">
        <ele>377.7</ele>
        <time>2021-05-30T19:05:06Z</time>
      </trkpt>
      <trkpt lat="-12.1104500" lon="-76.8742880">
        <ele>377.8</ele>
        <time>2021-05-30T19:05:07Z</time>
      </trkpt>
      <trkpt lat="-12.1104130" lon="-76.8742990">
        <ele>377.9</ele>
        <time>2021-05-30T19:05:08Z</time>
      </trkpt>
      <trkpt lat="-12.1103360" lon="-76.8743190">
        <ele>378.2</ele>
        <time>2021-05-30T19:05:10Z</time>
      </trkpt>
      <trkpt lat="-12.1102860" lon="-76.8743330">
        <ele>378.4</ele>
        <time>2021-05-30T19:05:11Z</time>
      </trkpt>
      <trkpt lat="-12.1102500" lon="-76.8743410">
        <ele>378.5</ele>
        <time>2021-05-30T19:05:12Z</time>
      </trkpt>
      <trkpt lat="-12.1101940" lon="-76.8743490">
        <ele>378.7</ele>
        <time>2021-05-30T19:05:14Z</time>
      </trkpt>
      <trkpt lat="-12.1101530" lon="-76.8743540">
        <ele>378.8</ele>
        <time>2021-05-30T19:05:15Z</time>
      </trkpt>
      <trkpt lat="-12.1100770" lon="-76.8743780">
        <ele>379.1</ele>
        <time>2021-05-30T19:05:17Z</time>
      </trkpt>
      <trkpt lat="-12.1100340" lon="-76.8743900">
        <ele>379.2</ele>
        <time>2021-05-30T19:05:18Z</time>
      </trkpt>
      <trkpt lat="-12.1099800" lon="-76.8744050">
        <ele>379.4</ele>
        <time>2021-05-30T19:05:19Z</time>
      </trkpt>
      <trkpt lat="-12.1099380" lon="-76.8744140">
        <ele>379.5</ele>
        <time>2021-05-30T19:05:20Z</time>
      </trkpt>
      <trkpt lat="-12.1098790" lon="-76.8744240">
        <ele>379.7</ele>
        <time>2021-05-30T19:05:22Z</time>
      </trkpt>
      <trkpt lat="-12.1098370" lon="-76.8744310">
        <ele>379.8</ele>
        <time>2021-05-30T19:05:23Z</time>
      </trkpt>
      <trkpt lat="-12.1097560" lon="-76.8744510">
        <ele>380.1</ele>
        <time>2021-05-30T19:05:25Z</time>
      </trkpt>
      <trkpt lat="-12.1097110" lon="-76.8744620">
        <ele>380.3</ele>
        <time>2021-05-30T19:05:26Z</time>
      </trkpt>
      <trkpt lat="-12.1096540" lon="-76.8744750">
        <ele>380.5</ele>
        <time>2021-05-30T19:05:27Z</time>
      </trkpt>
      <trkpt lat="-12.1095990" lon="-76.8744890">
        <ele>380.7</ele>
        <time>2021-05-30T19:05:29Z</time>
      </trkpt>
      <trkpt lat="-12.1095490" lon="-76.8745030">
        <ele>380.8</ele>
        <time>2021-05-30T19:05:30Z</time>
      </trkpt>
      <trkpt lat="-12.1094860" lon="-76.8745220">
        <ele>381.1</ele>
        <time>2021-05-30T19:05:32Z</time>
      </trkpt>
      <trkpt lat="-12.1094340" lon="-76.8745350">
        <ele>381.2</ele>
        <time>2021-05-30T19:05:33Z</time>
      </trkpt>
      <trkpt lat="-12.1093960" lon="-76.8745470">
        <ele>381.4</ele>
        <time>2021-05-30T19:05:35Z</time>
      </trkpt>
      <trkpt lat="-12.1093670" lon="-76.8745600">
        <ele>381.5</ele>
        <time>2021-05-30T19:05:36Z</time>
      </trkpt>
      <trkpt lat="-12.1093140" lon="-76.8745800">
        <ele>381.7</ele>
        <time>2021-05-30T19:05:37Z</time>
      </trkpt>
      <trkpt lat="-12.1092760" lon="-76.8745890">
        <ele>381.8</ele>
        <time>2021-05-30T19:05:39Z</time>
      </trkpt>
      <trkpt lat="-12.1092420" lon="-76.8745970">
        <ele>381.9</ele>
        <time>2021-05-30T19:05:40Z</time>
      </trkpt>
      <trkpt lat="-12.1092090" lon="-76.8746070">
        <ele>382.1</ele>
        <time>2021-05-30T19:05:41Z</time>
      </trkpt>
      <trkpt lat="-12.1091520" lon="-76.8746290">
        <ele>382.3</ele>
        <time>2021-05-30T19:05:42Z</time>
      </trkpt>
      <trkpt lat="-12.1091070" lon="-76.8746490">
        <ele>382.5</ele>
        <time>2021-05-30T19:05:44Z</time>
      </trkpt>
      <trkpt lat="-12.1090590" lon="-76.8746620">
        <ele>382.7</ele>
        <time>2021-05-30T19:05:45Z</time>
      </trkpt>
      <trkpt lat="-12.1089620" lon="-76.8746990">
        <ele>383.0</ele>
        <time>2021-05-30T19:05:47Z</time>
      </trkpt>
      <trkpt lat="-12.1089210" lon="-76.8747220">
        <ele>383.2</ele>
        <time>2021-05-30T19:05:48Z</time>
      </trkpt>
      <trkpt lat="-12.1088920" lon="-76.8747520">
        <ele>383.4</ele>
        <time>2021-05-30T19:05:49Z</time>
      </trkpt>
      <trkpt lat="-12.1088540" lon="-76.8747650">
        <ele>383.5</ele>
        <time>2021-05-30T19:05:50Z</time>
      </trkpt>
      <trkpt lat="-12.1087820" lon="-76.8747840">
        <ele>383.8</ele>
        <time>2021-05-30T19:05:52Z</time>
      </trkpt>
      <trkpt lat="-12.1087460" lon="-76.8747930">
        <ele>383.9</ele>
        <time>2021-05-30T19:05:53Z</time>
      </trkpt>
      <trkpt lat="-12.1087120" lon="-76.8748000">
        <ele>384.0</ele>
        <time>2021-05-30T19:05:54Z</time>
      </trkpt>
      <trkpt lat="-12.1086280" lon="-76.8748110">
        <ele>384.3</ele>
        <time>2021-05-30T19:05:56Z</time>
      </trkpt>
      <trkpt lat="-12.1085800" lon="-76.8748220">
        <ele>384.5</ele>
        <time>2021-05-30T19:05:57Z</time>
      </trkpt>
      <trkpt lat="-12.1085370" lon="-76.8748350">
        <ele>384.7</ele>
        <time>2021-05-30T19:05:58Z</time>
      </trkpt>
      <trkpt lat="-12.1084930" lon="-76.8748470">
        <ele>384.8</ele>
        <time>2021-05-30T19:05:59Z</time>
      </trkpt>
      <trkpt lat="-12.1084280" lon="-76.8748660">
        <ele>385.1</ele>
        <time>2021-05-30T19:06:01Z</time>
      </trkpt>
      <trkpt lat="-12.1083900" lon="-76.8748760">
        <ele>385.2</ele>
        <time>2021-05-30T19:06:02Z</time>
      </trkpt>
      <trkpt lat="-12.1083190" lon="-76.8748890">
        <ele>385.4</ele>
        <time>2021-05-30T19:06:03Z</time>
      </trkpt>
      <trkpt lat="-12.1082670" lon="-76.8749060">
        <ele>385.6</ele>
        <time>2021-05-30T19:06:05Z</time>
      </trkpt>
      <trkpt lat="-12.1081980" lon="-76.8749250">
        <ele>385.8</ele>
        <time>2021-05-30T19:06:06Z</time>
      </trkpt>
      <trkpt lat="-12.1081110" lon="-76.8749500">
        <ele>386.1</ele>
        <time>2021-05-30T19:06:09Z</time>
      </trkpt>
      <trkpt lat="-12.1080680" lon="-76.8749610">
        <ele>386.3</ele>
        <time>2021-05-30T19:06:10Z</time>
      </trkpt>
      <trkpt lat="-12.1079890" lon="-76.8749830">
        <ele>386.6</ele>
        <time>2021-05-30T19:06:12Z</time>
      </trkpt>
      <trkpt lat="-12.1079500" lon="-76.8749970">
        <ele>386.7</ele>
        <time>2021-05-30T19:06:13Z</time>
      </trkpt>
      <trkpt lat="-12.1078720" lon="-76.8750230">
        <ele>387.0</ele>
        <time>2021-05-30T19:06:15Z</time>
      </trkpt>
      <trkpt lat="-12.1077960" lon="-76.8750520">
        <ele>387.3</ele>
        <time>2021-05-30T19:06:17Z</time>
      </trkpt>
      <trkpt lat="-12.1076730" lon="-76.8750950">
        <ele>387.8</ele>
        <time>2021-05-30T19:06:19Z</time>
      </trkpt>
      <trkpt lat="-12.1076260" lon="-76.8751080">
        <ele>387.9</ele>
        <time>2021-05-30T19:06:20Z</time>
      </trkpt>
      <trkpt lat="-12.1075810" lon="-76.8751190">
        <ele>388.1</ele>
        <time>2021-05-30T19:06:21Z</time>
      </trkpt>
      <trkpt lat="-12.1074910" lon="-76.8751430">
        <ele>388.4</ele>
        <time>2021-05-30T19:06:23Z</time>
      </trkpt>
      <trkpt lat="-12.1074010" lon="-76.8751690">
        <ele>388.7</ele>
        <time>2021-05-30T19:06:25Z</time>
      </trkpt>
      <trkpt lat="-12.1073550" lon="-76.8751830">
        <ele>388.8</ele>
        <time>2021-05-30T19:06:26Z</time>
      </trkpt>
      <trkpt lat="-12.1072650" lon="-76.8752110">
        <ele>389.1</ele>
        <time>2021-05-30T19:06:28Z</time>
      </trkpt>
      <trkpt lat="-12.1072140" lon="-76.8751980">
        <ele>389.3</ele>
        <time>2021-05-30T19:06:29Z</time>
      </trkpt>
      <trkpt lat="-12.1071390" lon="-76.8752150">
        <ele>389.5</ele>
        <time>2021-05-30T19:06:31Z</time>
      </trkpt>
      <trkpt lat="-12.1071010" lon="-76.8752290">
        <ele>389.7</ele>
        <time>2021-05-30T19:06:32Z</time>
      </trkpt>
      <trkpt lat="-12.1070440" lon="-76.8752470">
        <ele>389.8</ele>
        <time>2021-05-30T19:06:33Z</time>
      </trkpt>
      <trkpt lat="-12.1069870" lon="-76.8752640">
        <ele>390.0</ele>
        <time>2021-05-30T19:06:34Z</time>
      </trkpt>
      <trkpt lat="-12.1069190" lon="-76.8752810">
        <ele>390.1</ele>
        <time>2021-05-30T19:06:36Z</time>
      </trkpt>
      <trkpt lat="-12.1068710" lon="-76.8752930">
        <ele>390.2</ele>
        <time>2021-05-30T19:06:37Z</time>
      </trkpt>
      <trkpt lat="-12.1068300" lon="-76.8753110">
        <ele>390.3</ele>
        <time>2021-05-30T19:06:38Z</time>
      </trkpt>
      <trkpt lat="-12.1067450" lon="-76.8753450">
        <ele>390.5</ele>
        <time>2021-05-30T19:06:40Z</time>
      </trkpt>
      <trkpt lat="-12.1066980" lon="-76.8753590">
        <ele>390.6</ele>
        <time>2021-05-30T19:06:41Z</time>
      </trkpt>
      <trkpt lat="-12.1066490" lon="-76.8753780">
        <ele>390.7</ele>
        <time>2021-05-30T19:06:42Z</time>
      </trkpt>
      <trkpt lat="-12.1066030" lon="-76.8753920">
        <ele>390.8</ele>
        <time>2021-05-30T19:06:43Z</time>
      </trkpt>
      <trkpt lat="-12.1065020" lon="-76.8754240">
        <ele>391.0</ele>
        <time>2021-05-30T19:06:45Z</time>
      </trkpt>
      <trkpt lat="-12.1064100" lon="-76.8754420">
        <ele>391.2</ele>
        <time>2021-05-30T19:06:47Z</time>
      </trkpt>
      <trkpt lat="-12.1063170" lon="-76.8754660">
        <ele>391.2</ele>
        <time>2021-05-30T19:06:49Z</time>
      </trkpt>
      <trkpt lat="-12.1062260" lon="-76.8754850">
        <ele>391.4</ele>
        <time>2021-05-30T19:06:51Z</time>
      </trkpt>
      <trkpt lat="-12.1061820" lon="-76.8754970">
        <ele>391.4</ele>
        <time>2021-05-30T19:06:52Z</time>
      </trkpt>
      <trkpt lat="-12.1060940" lon="-76.8755260">
        <ele>391.6</ele>
        <time>2021-05-30T19:06:54Z</time>
      </trkpt>
      <trkpt lat="-12.1060000" lon="-76.8755590">
        <ele>391.8</ele>
        <time>2021-05-30T19:06:56Z</time>
      </trkpt>
      <trkpt lat="-12.1059090" lon="-76.8755800">
        <ele>391.9</ele>
        <time>2021-05-30T19:06:58Z</time>
      </trkpt>
      <trkpt lat="-12.1058670" lon="-76.8755850">
        <ele>392.0</ele>
        <time>2021-05-30T19:06:59Z</time>
      </trkpt>
      <trkpt lat="-12.1058370" lon="-76.8755900">
        <ele>392.1</ele>
        <time>2021-05-30T19:07:00Z</time>
      </trkpt>
      <trkpt lat="-12.1057480" lon="-76.8756250">
        <ele>392.2</ele>
        <time>2021-05-30T19:07:02Z</time>
      </trkpt>
      <trkpt lat="-12.1056600" lon="-76.8756590">
        <ele>392.4</ele>
        <time>2021-05-30T19:07:04Z</time>
      </trkpt>
      <trkpt lat="-12.1056100" lon="-76.8756780">
        <ele>392.5</ele>
        <time>2021-05-30T19:07:05Z</time>
      </trkpt>
      <trkpt lat="-12.1055250" lon="-76.8757060">
        <ele>392.7</ele>
        <time>2021-05-30T19:07:07Z</time>
      </trkpt>
      <trkpt lat="-12.1054830" lon="-76.8757190">
        <ele>392.7</ele>
        <time>2021-05-30T19:07:08Z</time>
      </trkpt>
      <trkpt lat="-12.1054320" lon="-76.8757300">
        <ele>392.8</ele>
        <time>2021-05-30T19:07:09Z</time>
      </trkpt>
      <trkpt lat="-12.1053800" lon="-76.8757220">
        <ele>392.9</ele>
        <time>2021-05-30T19:07:11Z</time>
      </trkpt>
      <trkpt lat="-12.1053520" lon="-76.8757330">
        <ele>393.0</ele>
        <time>2021-05-30T19:07:12Z</time>
      </trkpt>
      <trkpt lat="-12.1052450" lon="-76.8757860">
        <ele>393.2</ele>
        <time>2021-05-30T19:07:14Z</time>
      </trkpt>
      <trkpt lat="-12.1051440" lon="-76.8758290">
        <ele>393.4</ele>
        <time>2021-05-30T19:07:16Z</time>
      </trkpt>
      <trkpt lat="-12.1050460" lon="-76.8758770">
        <ele>393.7</ele>
        <time>2021-05-30T19:07:18Z</time>
      </trkpt>
      <trkpt lat="-12.1049990" lon="-76.8759010">
        <ele>393.8</ele>
        <time>2021-05-30T19:07:19Z</time>
      </trkpt>
      <trkpt lat="-12.1049170" lon="-76.8759420">
        <ele>394.1</ele>
        <time>2021-05-30T19:07:21Z</time>
      </trkpt>
      <trkpt lat="-12.1048740" lon="-76.8759610">
        <ele>394.2</ele>
        <time>2021-05-30T19:07:22Z</time>
      </trkpt>
      <trkpt lat="-12.1047930" lon="-76.8759900">
        <ele>394.5</ele>
        <time>2021-05-30T19:07:24Z</time>
      </trkpt>
      <trkpt lat="-12.1047490" lon="-76.8760070">
        <ele>394.7</ele>
        <time>2021-05-30T19:07:25Z</time>
      </trkpt>
      <trkpt lat="-12.1047060" lon="-76.8760260">
        <ele>394.8</ele>
        <time>2021-05-30T19:07:26Z</time>
      </trkpt>
      <trkpt lat="-12.1046250" lon="-76.8760670">
        <ele>395.1</ele>
        <time>2021-05-30T19:07:28Z</time>
      </trkpt>
      <trkpt lat="-12.1045910" lon="-76.8760860">
        <ele>395.3</ele>
        <time>2021-05-30T19:07:29Z</time>
      </trkpt>
      <trkpt lat="-12.1045470" lon="-76.8761080">
        <ele>395.4</ele>
        <time>2021-05-30T19:07:30Z</time>
      </trkpt>
      <trkpt lat="-12.1044530" lon="-76.8761480">
        <ele>395.8</ele>
        <time>2021-05-30T19:07:32Z</time>
      </trkpt>
      <trkpt lat="-12.1043580" lon="-76.8761990">
        <ele>396.3</ele>
        <time>2021-05-30T19:07:34Z</time>
      </trkpt>
      <trkpt lat="-12.1043170" lon="-76.8762180">
        <ele>396.5</ele>
        <time>2021-05-30T19:07:35Z</time>
      </trkpt>
      <trkpt lat="-12.1042540" lon="-76.8762380">
        <ele>396.8</ele>
        <time>2021-05-30T19:07:36Z</time>
      </trkpt>
      <trkpt lat="-12.1042030" lon="-76.8762620">
        <ele>397.1</ele>
        <time>2021-05-30T19:07:38Z</time>
      </trkpt>
      <trkpt lat="-12.1041480" lon="-76.8762940">
        <ele>397.4</ele>
        <time>2021-05-30T19:07:39Z</time>
      </trkpt>
      <trkpt lat="-12.1040880" lon="-76.8763340">
        <ele>397.7</ele>
        <time>2021-05-30T19:07:41Z</time>
      </trkpt>
      <trkpt lat="-12.1040530" lon="-76.8763530">
        <ele>397.9</ele>
        <time>2021-05-30T19:07:42Z</time>
      </trkpt>
      <trkpt lat="-12.1039950" lon="-76.8763850">
        <ele>398.2</ele>
        <time>2021-05-30T19:07:43Z</time>
      </trkpt>
      <trkpt lat="-12.1039400" lon="-76.8764260">
        <ele>398.5</ele>
        <time>2021-05-30T19:07:45Z</time>
      </trkpt>
      <trkpt lat="-12.1039120" lon="-76.8764860">
        <ele>398.8</ele>
        <time>2021-05-30T19:07:47Z</time>
      </trkpt>
      <trkpt lat="-12.1038480" lon="-76.8765170">
        <ele>399.1</ele>
        <time>2021-05-30T19:07:48Z</time>
      </trkpt>
      <trkpt lat="-12.1038010" lon="-76.8765450">
        <ele>399.3</ele>
        <time>2021-05-30T19:07:49Z</time>
      </trkpt>
      <trkpt lat="-12.1037530" lon="-76.8765570">
        <ele>399.5</ele>
        <time>2021-05-30T19:07:50Z</time>
      </trkpt>
      <trkpt lat="-12.1037080" lon="-76.8765770">
        <ele>399.7</ele>
        <time>2021-05-30T19:07:52Z</time>
      </trkpt>
      <trkpt lat="-12.1036710" lon="-76.8765980">
        <ele>399.8</ele>
        <time>2021-05-30T19:07:53Z</time>
      </trkpt>
      <trkpt lat="-12.1035970" lon="-76.8766390">
        <ele>400.2</ele>
        <time>2021-05-30T19:07:55Z</time>
      </trkpt>
      <trkpt lat="-12.1035090" lon="-76.8767140">
        <ele>400.5</ele>
        <time>2021-05-30T19:07:57Z</time>
      </trkpt>
      <trkpt lat="-12.1034710" lon="-76.8767270">
        <ele>400.7</ele>
        <time>2021-05-30T19:07:58Z</time>
      </trkpt>
      <trkpt lat="-12.1034070" lon="-76.8767040">
        <ele>400.9</ele>
        <time>2021-05-30T19:08:00Z</time>
      </trkpt>
      <trkpt lat="-12.1033430" lon="-76.8767360">
        <ele>401.0</ele>
        <time>2021-05-30T19:08:01Z</time>
      </trkpt>
      <trkpt lat="-12.1032730" lon="-76.8767990">
        <ele>401.3</ele>
        <time>2021-05-30T19:08:03Z</time>
      </trkpt>
      <trkpt lat="-12.1032320" lon="-76.8768200">
        <ele>401.4</ele>
        <time>2021-05-30T19:08:04Z</time>
      </trkpt>
      <trkpt lat="-12.1031340" lon="-76.8768700">
        <ele>401.6</ele>
        <time>2021-05-30T19:08:06Z</time>
      </trkpt>
      <trkpt lat="-12.1030850" lon="-76.8768970">
        <ele>401.7</ele>
        <time>2021-05-30T19:08:07Z</time>
      </trkpt>
      <trkpt lat="-12.1030350" lon="-76.8769240">
        <ele>401.8</ele>
        <time>2021-05-30T19:08:08Z</time>
      </trkpt>
      <trkpt lat="-12.1029850" lon="-76.8769490">
        <ele>402.0</ele>
        <time>2021-05-30T19:08:09Z</time>
      </trkpt>
      <trkpt lat="-12.1028960" lon="-76.8769970">
        <ele>402.2</ele>
        <time>2021-05-30T19:08:11Z</time>
      </trkpt>
      <trkpt lat="-12.1028060" lon="-76.8770410">
        <ele>402.3</ele>
        <time>2021-05-30T19:08:13Z</time>
      </trkpt>
      <trkpt lat="-12.1027060" lon="-76.8770850">
        <ele>402.4</ele>
        <time>2021-05-30T19:08:15Z</time>
      </trkpt>
      <trkpt lat="-12.1026130" lon="-76.8771330">
        <ele>402.5</ele>
        <time>2021-05-30T19:08:17Z</time>
      </trkpt>
      <trkpt lat="-12.1025750" lon="-76.8771600">
        <ele>402.6</ele>
        <time>2021-05-30T19:08:18Z</time>
      </trkpt>
      <trkpt lat="-12.1025090" lon="-76.8771960">
        <ele>402.8</ele>
        <time>2021-05-30T19:08:20Z</time>
      </trkpt>
      <trkpt lat="-12.1024320" lon="-76.8772320">
        <ele>403.0</ele>
        <time>2021-05-30T19:08:22Z</time>
      </trkpt>
      <trkpt lat="-12.1023490" lon="-76.8772620">
        <ele>403.2</ele>
        <time>2021-05-30T19:08:24Z</time>
      </trkpt>
      <trkpt lat="-12.1022890" lon="-76.8772860">
        <ele>403.3</ele>
        <time>2021-05-30T19:08:26Z</time>
      </trkpt>
      <trkpt lat="-12.1022560" lon="-76.8773030">
        <ele>403.4</ele>
        <time>2021-05-30T19:08:27Z</time>
      </trkpt>
      <trkpt lat="-12.1021860" lon="-76.8773360">
        <ele>403.7</ele>
        <time>2021-05-30T19:08:29Z</time>
      </trkpt>
      <trkpt lat="-12.1021500" lon="-76.8773540">
        <ele>403.8</ele>
        <time>2021-05-30T19:08:30Z</time>
      </trkpt>
      <trkpt lat="-12.1021140" lon="-76.8773730">
        <ele>403.9</ele>
        <time>2021-05-30T19:08:31Z</time>
      </trkpt>
      <trkpt lat="-12.1020720" lon="-76.8773970">
        <ele>404.0</ele>
        <time>2021-05-30T19:08:32Z</time>
      </trkpt>
      <trkpt lat="-12.1020140" lon="-76.8774200">
        <ele>404.2</ele>
        <time>2021-05-30T19:08:34Z</time>
      </trkpt>
      <trkpt lat="-12.1019570" lon="-76.8774560">
        <ele>404.4</ele>
        <time>2021-05-30T19:08:35Z</time>
      </trkpt>
      <trkpt lat="-12.1018600" lon="-76.8775240">
        <ele>404.7</ele>
        <time>2021-05-30T19:08:37Z</time>
      </trkpt>
      <trkpt lat="-12.1017920" lon="-76.8775510">
        <ele>404.9</ele>
        <time>2021-05-30T19:08:39Z</time>
      </trkpt>
      <trkpt lat="-12.1017420" lon="-76.8775400">
        <ele>405.0</ele>
        <time>2021-05-30T19:08:40Z</time>
      </trkpt>
      <trkpt lat="-12.1016840" lon="-76.8775620">
        <ele>405.2</ele>
        <time>2021-05-30T19:08:42Z</time>
      </trkpt>
      <trkpt lat="-12.1016420" lon="-76.8775870">
        <ele>405.3</ele>
        <time>2021-05-30T19:08:43Z</time>
      </trkpt>
      <trkpt lat="-12.1015590" lon="-76.8776810">
        <ele>405.7</ele>
        <time>2021-05-30T19:08:45Z</time>
      </trkpt>
      <trkpt lat="-12.1014800" lon="-76.8777790">
        <ele>406.0</ele>
        <time>2021-05-30T19:08:47Z</time>
      </trkpt>
      <trkpt lat="-12.1014020" lon="-76.8778430">
        <ele>406.3</ele>
        <time>2021-05-30T19:08:49Z</time>
      </trkpt>
      <trkpt lat="-12.1013710" lon="-76.8778510">
        <ele>406.3</ele>
        <time>2021-05-30T19:08:50Z</time>
      </trkpt>
      <trkpt lat="-12.1012960" lon="-76.8778870">
        <ele>406.6</ele>
        <time>2021-05-30T19:08:52Z</time>
      </trkpt>
      <trkpt lat="-12.1012520" lon="-76.8779160">
        <ele>406.7</ele>
        <time>2021-05-30T19:08:53Z</time>
      </trkpt>
      <trkpt lat="-12.1012060" lon="-76.8779370">
        <ele>406.8</ele>
        <time>2021-05-30T19:08:54Z</time>
      </trkpt>
      <trkpt lat="-12.1011650" lon="-76.8779540">
        <ele>407.0</ele>
        <time>2021-05-30T19:08:55Z</time>
      </trkpt>
      <trkpt lat="-12.1011100" lon="-76.8779760">
        <ele>407.1</ele>
        <time>2021-05-30T19:08:57Z</time>
      </trkpt>
      <trkpt lat="-12.1010460" lon="-76.8780060">
        <ele>407.3</ele>
        <time>2021-05-30T19:08:59Z</time>
      </trkpt>
      <trkpt lat="-12.1009760" lon="-76.8780540">
        <ele>407.5</ele>
        <time>2021-05-30T19:09:01Z</time>
      </trkpt>
      <trkpt lat="-12.1009370" lon="-76.8780750">
        <ele>407.6</ele>
        <time>2021-05-30T19:09:02Z</time>
      </trkpt>
      <trkpt lat="-12.1008440" lon="-76.8781430">
        <ele>407.9</ele>
        <time>2021-05-30T19:09:04Z</time>
      </trkpt>
      <trkpt lat="-12.1008070" lon="-76.8781650">
        <ele>408.0</ele>
        <time>2021-05-30T19:09:05Z</time>
      </trkpt>
      <trkpt lat="-12.1007560" lon="-76.8781980">
        <ele>408.1</ele>
        <time>2021-05-30T19:09:06Z</time>
      </trkpt>
      <trkpt lat="-12.1007070" lon="-76.8782370">
        <ele>408.3</ele>
        <time>2021-05-30T19:09:08Z</time>
      </trkpt>
      <trkpt lat="-12.1006750" lon="-76.8782570">
        <ele>408.4</ele>
        <time>2021-05-30T19:09:09Z</time>
      </trkpt>
      <trkpt lat="-12.1006290" lon="-76.8782860">
        <ele>408.5</ele>
        <time>2021-05-30T19:09:10Z</time>
      </trkpt>
      <trkpt lat="-12.1005700" lon="-76.8783220">
        <ele>408.7</ele>
        <time>2021-05-30T19:09:12Z</time>
      </trkpt>
      <trkpt lat="-12.1005060" lon="-76.8783720">
        <ele>408.9</ele>
        <time>2021-05-30T19:09:14Z</time>
      </trkpt>
      <trkpt lat="-12.1004750" lon="-76.8784010">
        <ele>409.0</ele>
        <time>2021-05-30T19:09:15Z</time>
      </trkpt>
      <trkpt lat="-12.1004410" lon="-76.8784260">
        <ele>409.1</ele>
        <time>2021-05-30T19:09:16Z</time>
      </trkpt>
      <trkpt lat="-12.1004090" lon="-76.8784730">
        <ele>409.3</ele>
        <time>2021-05-30T19:09:17Z</time>
      </trkpt>
      <trkpt lat="-12.1003330" lon="-76.8785240">
        <ele>409.5</ele>
        <time>2021-05-30T19:09:19Z</time>
      </trkpt>
      <trkpt lat="-12.1002920" lon="-76.8785490">
        <ele>409.6</ele>
        <time>2021-05-30T19:09:20Z</time>
      </trkpt>
      <trkpt lat="-12.1002520" lon="-76.8785730">
        <ele>409.8</ele>
        <time>2021-05-30T19:09:21Z</time>
      </trkpt>
      <trkpt lat="-12.1002090" lon="-76.8785960">
        <ele>409.9</ele>
        <time>2021-05-30T19:09:22Z</time>
      </trkpt>
      <trkpt lat="-12.1001590" lon="-76.8786180">
        <ele>410.1</ele>
        <time>2021-05-30T19:09:23Z</time>
      </trkpt>
      <trkpt lat="-12.1001040" lon="-76.8786430">
        <ele>410.3</ele>
        <time>2021-05-30T19:09:25Z</time>
      </trkpt>
      <trkpt lat="-12.1000480" lon="-76.8786690">
        <ele>410.5</ele>
        <time>2021-05-30T19:09:26Z</time>
      </trkpt>
      <trkpt lat="-12.0999840" lon="-76.8787050">
        <ele>410.7</ele>
        <time>2021-05-30T19:09:28Z</time>
      </trkpt>
      <trkpt lat="-12.0999370" lon="-76.8787420">
        <ele>411.0</ele>
        <time>2021-05-30T19:09:29Z</time>
      </trkpt>
      <trkpt lat="-12.0998980" lon="-76.8787710">
        <ele>411.1</ele>
        <time>2021-05-30T19:09:30Z</time>
      </trkpt>
      <trkpt lat="-12.0998390" lon="-76.8788200">
        <ele>411.5</ele>
        <time>2021-05-30T19:09:32Z</time>
      </trkpt>
      <trkpt lat="-12.0997860" lon="-76.8788330">
        <ele>411.7</ele>
        <time>2021-05-30T19:09:33Z</time>
      </trkpt>
      <trkpt lat="-12.0997060" lon="-76.8788820">
        <ele>412.1</ele>
        <time>2021-05-30T19:09:35Z</time>
      </trkpt>
      <trkpt lat="-12.0996580" lon="-76.8789210">
        <ele>412.4</ele>
        <time>2021-05-30T19:09:36Z</time>
      </trkpt>
      <trkpt lat="-12.0996500" lon="-76.8789370">
        <ele>412.4</ele>
        <time>2021-05-30T19:09:38Z</time>
      </trkpt>
      <trkpt lat="-12.0996310" lon="-76.8789480">
        <ele>412.5</ele>
        <time>2021-05-30T19:09:39Z</time>
      </trkpt>
      <trkpt lat="-12.0995790" lon="-76.8789770">
        <ele>412.8</ele>
        <time>2021-05-30T19:09:40Z</time>
      </trkpt>
      <trkpt lat="-12.0995120" lon="-76.8790140">
        <ele>413.2</ele>
        <time>2021-05-30T19:09:41Z</time>
      </trkpt>
      <trkpt lat="-12.0994590" lon="-76.8790490">
        <ele>413.5</ele>
        <time>2021-05-30T19:09:43Z</time>
      </trkpt>
      <trkpt lat="-12.0994060" lon="-76.8790860">
        <ele>413.8</ele>
        <time>2021-05-30T19:09:44Z</time>
      </trkpt>
      <trkpt lat="-12.0993520" lon="-76.8791260">
        <ele>414.1</ele>
        <time>2021-05-30T19:09:45Z</time>
      </trkpt>
      <trkpt lat="-12.0992930" lon="-76.8791990">
        <ele>414.6</ele>
        <time>2021-05-30T19:09:47Z</time>
      </trkpt>
      <trkpt lat="-12.0992350" lon="-76.8792520">
        <ele>415.0</ele>
        <time>2021-05-30T19:09:48Z</time>
      </trkpt>
      <trkpt lat="-12.0992040" lon="-76.8792950">
        <ele>415.2</ele>
        <time>2021-05-30T19:09:50Z</time>
      </trkpt>
      <trkpt lat="-12.0991380" lon="-76.8793300">
        <ele>415.6</ele>
        <time>2021-05-30T19:09:51Z</time>
      </trkpt>
      <trkpt lat="-12.0991010" lon="-76.8793270">
        <ele>415.8</ele>
        <time>2021-05-30T19:09:52Z</time>
      </trkpt>
      <trkpt lat="-12.0990640" lon="-76.8793340">
        <ele>415.9</ele>
        <time>2021-05-30T19:09:54Z</time>
      </trkpt>
      <trkpt lat="-12.0990260" lon="-76.8793420">
        <ele>416.1</ele>
        <time>2021-05-30T19:09:55Z</time>
      </trkpt>
      <trkpt lat="-12.0989790" lon="-76.8793630">
        <ele>416.4</ele>
        <time>2021-05-30T19:09:56Z</time>
      </trkpt>
      <trkpt lat="-12.0989190" lon="-76.8793920">
        <ele>416.7</ele>
        <time>2021-05-30T19:09:58Z</time>
      </trkpt>
      <trkpt lat="-12.0988810" lon="-76.8794130">
        <ele>416.9</ele>
        <time>2021-05-30T19:09:59Z</time>
      </trkpt>
      <trkpt lat="-12.0988540" lon="-76.8794290">
        <ele>417.0</ele>
        <time>2021-05-30T19:10:00Z</time>
      </trkpt>
      <trkpt lat="-12.0988270" lon="-76.8794470">
        <ele>417.2</ele>
        <time>2021-05-30T19:10:01Z</time>
      </trkpt>
      <trkpt lat="-12.0987920" lon="-76.8794750">
        <ele>417.4</ele>
        <time>2021-05-30T19:10:03Z</time>
      </trkpt>
      <trkpt lat="-12.0987380" lon="-76.8795110">
        <ele>417.7</ele>
        <time>2021-05-30T19:10:05Z</time>
      </trkpt>
      <trkpt lat="-12.0986850" lon="-76.8795460">
        <ele>418.0</ele>
        <time>2021-05-30T19:10:07Z</time>
      </trkpt>
      <trkpt lat="-12.0986550" lon="-76.8795670">
        <ele>417.0</ele>
        <time>2021-05-30T19:10:08Z</time>
      </trkpt>
      <trkpt lat="-12.0986200" lon="-76.8795900">
        <ele>417.4</ele>
        <time>2021-05-30T19:10:09Z</time>
      </trkpt>
      <trkpt lat="-12.0985680" lon="-76.8796200">
        <ele>418.0</ele>
        <time>2021-05-30T19:10:11Z</time>
      </trkpt>
      <trkpt lat="-12.0985160" lon="-76.8796470">
        <ele>418.5</ele>
        <time>2021-05-30T19:10:13Z</time>
      </trkpt>
      <trkpt lat="-12.0984900" lon="-76.8796670">
        <ele>418.9</ele>
        <time>2021-05-30T19:10:14Z</time>
      </trkpt>
      <trkpt lat="-12.0984380" lon="-76.8797070">
        <ele>419.5</ele>
        <time>2021-05-30T19:10:16Z</time>
      </trkpt>
      <trkpt lat="-12.0983890" lon="-76.8797520">
        <ele>420.1</ele>
        <time>2021-05-30T19:10:18Z</time>
      </trkpt>
      <trkpt lat="-12.0983620" lon="-76.8797730">
        <ele>420.4</ele>
        <time>2021-05-30T19:10:19Z</time>
      </trkpt>
      <trkpt lat="-12.0983020" lon="-76.8798120">
        <ele>421.1</ele>
        <time>2021-05-30T19:10:21Z</time>
      </trkpt>
      <trkpt lat="-12.0982490" lon="-76.8798370">
        <ele>421.6</ele>
        <time>2021-05-30T19:10:22Z</time>
      </trkpt>
      <trkpt lat="-12.0982130" lon="-76.8798540">
        <ele>421.8</ele>
        <time>2021-05-30T19:10:23Z</time>
      </trkpt>
      <trkpt lat="-12.0981790" lon="-76.8798720">
        <ele>421.9</ele>
        <time>2021-05-30T19:10:25Z</time>
      </trkpt>
      <trkpt lat="-12.0981470" lon="-76.8798920">
        <ele>422.1</ele>
        <time>2021-05-30T19:10:26Z</time>
      </trkpt>
      <trkpt lat="-12.0981170" lon="-76.8799140">
        <ele>422.2</ele>
        <time>2021-05-30T19:10:27Z</time>
      </trkpt>
      <trkpt lat="-12.0980600" lon="-76.8799560">
        <ele>422.4</ele>
        <time>2021-05-30T19:10:29Z</time>
      </trkpt>
      <trkpt lat="-12.0980150" lon="-76.8799880">
        <ele>422.6</ele>
        <time>2021-05-30T19:10:30Z</time>
      </trkpt>
      <trkpt lat="-12.0979830" lon="-76.8800110">
        <ele>422.7</ele>
        <time>2021-05-30T19:10:31Z</time>
      </trkpt>
      <trkpt lat="-12.0979420" lon="-76.8800390">
        <ele>423.0</ele>
        <time>2021-05-30T19:10:33Z</time>
      </trkpt>
      <trkpt lat="-12.0978970" lon="-76.8800690">
        <ele>423.3</ele>
        <time>2021-05-30T19:10:34Z</time>
      </trkpt>
      <trkpt lat="-12.0978490" lon="-76.8800970">
        <ele>423.6</ele>
        <time>2021-05-30T19:10:36Z</time>
      </trkpt>
      <trkpt lat="-12.0978140" lon="-76.8801160">
        <ele>423.8</ele>
        <time>2021-05-30T19:10:37Z</time>
      </trkpt>
      <trkpt lat="-12.0977790" lon="-76.8801370">
        <ele>424.0</ele>
        <time>2021-05-30T19:10:38Z</time>
      </trkpt>
      <trkpt lat="-12.0977180" lon="-76.8801810">
        <ele>424.4</ele>
        <time>2021-05-30T19:10:40Z</time>
      </trkpt>
      <trkpt lat="-12.0976800" lon="-76.8802120">
        <ele>424.7</ele>
        <time>2021-05-30T19:10:41Z</time>
      </trkpt>
      <trkpt lat="-12.0976490" lon="-76.8802380">
        <ele>425.0</ele>
        <time>2021-05-30T19:10:42Z</time>
      </trkpt>
      <trkpt lat="-12.0976160" lon="-76.8802640">
        <ele>425.2</ele>
        <time>2021-05-30T19:10:43Z</time>
      </trkpt>
      <trkpt lat="-12.0975730" lon="-76.8802880">
        <ele>425.6</ele>
        <time>2021-05-30T19:10:45Z</time>
      </trkpt>
      <trkpt lat="-12.0975190" lon="-76.8803200">
        <ele>426.0</ele>
        <time>2021-05-30T19:10:47Z</time>
      </trkpt>
      <trkpt lat="-12.0974950" lon="-76.8803400">
        <ele>426.2</ele>
        <time>2021-05-30T19:10:48Z</time>
      </trkpt>
      <trkpt lat="-12.0974700" lon="-76.8803640">
        <ele>426.4</ele>
        <time>2021-05-30T19:10:49Z</time>
      </trkpt>
      <trkpt lat="-12.0974290" lon="-76.8803980">
        <ele>426.7</ele>
        <time>2021-05-30T19:10:50Z</time>
      </trkpt>
      <trkpt lat="-12.0973870" lon="-76.8804250">
        <ele>427.0</ele>
        <time>2021-05-30T19:10:52Z</time>
      </trkpt>
      <trkpt lat="-12.0973540" lon="-76.8804460">
        <ele>427.3</ele>
        <time>2021-05-30T19:10:53Z</time>
      </trkpt>
      <trkpt lat="-12.0973270" lon="-76.8804660">
        <ele>427.4</ele>
        <time>2021-05-30T19:10:54Z</time>
      </trkpt>
      <trkpt lat="-12.0972950" lon="-76.8804880">
        <ele>427.6</ele>
        <time>2021-05-30T19:10:55Z</time>
      </trkpt>
      <trkpt lat="-12.0972610" lon="-76.8805150">
        <ele>427.9</ele>
        <time>2021-05-30T19:10:56Z</time>
      </trkpt>
      <trkpt lat="-12.0971960" lon="-76.8805650">
        <ele>428.2</ele>
        <time>2021-05-30T19:10:58Z</time>
      </trkpt>
      <trkpt lat="-12.0971270" lon="-76.8806030">
        <ele>428.6</ele>
        <time>2021-05-30T19:11:00Z</time>
      </trkpt>
      <trkpt lat="-12.0970620" lon="-76.8806390">
        <ele>428.8</ele>
        <time>2021-05-30T19:11:02Z</time>
      </trkpt>
      <trkpt lat="-12.0970300" lon="-76.8806600">
        <ele>429.0</ele>
        <time>2021-05-30T19:11:03Z</time>
      </trkpt>
      <trkpt lat="-12.0969630" lon="-76.8807000">
        <ele>429.3</ele>
        <time>2021-05-30T19:11:05Z</time>
      </trkpt>
      <trkpt lat="-12.0969030" lon="-76.8807250">
        <ele>429.5</ele>
        <time>2021-05-30T19:11:06Z</time>
      </trkpt>
      <trkpt lat="-12.0968590" lon="-76.8807440">
        <ele>429.7</ele>
        <time>2021-05-30T19:11:08Z</time>
      </trkpt>
      <trkpt lat="-12.0968060" lon="-76.8807670">
        <ele>429.9</ele>
        <time>2021-05-30T19:11:09Z</time>
      </trkpt>
      <trkpt lat="-12.0967590" lon="-76.8807880">
        <ele>430.1</ele>
        <time>2021-05-30T19:11:11Z</time>
      </trkpt>
      <trkpt lat="-12.0966980" lon="-76.8808130">
        <ele>430.4</ele>
        <time>2021-05-30T19:11:13Z</time>
      </trkpt>
      <trkpt lat="-12.0966610" lon="-76.8808280">
        <ele>430.6</ele>
        <time>2021-05-30T19:11:14Z</time>
      </trkpt>
      <trkpt lat="-12.0966230" lon="-76.8808410">
        <ele>430.7</ele>
        <time>2021-05-30T19:11:15Z</time>
      </trkpt>
      <trkpt lat="-12.0965550" lon="-76.8808620">
        <ele>431.1</ele>
        <time>2021-05-30T19:11:17Z</time>
      </trkpt>
      <trkpt lat="-12.0964940" lon="-76.8808770">
        <ele>431.3</ele>
        <time>2021-05-30T19:11:18Z</time>
      </trkpt>
      <trkpt lat="-12.0964500" lon="-76.8808860">
        <ele>431.5</ele>
        <time>2021-05-30T19:11:20Z</time>
      </trkpt>
      <trkpt lat="-12.0963770" lon="-76.8809000">
        <ele>431.9</ele>
        <time>2021-05-30T19:11:22Z</time>
      </trkpt>
      <trkpt lat="-12.0963120" lon="-76.8809100">
        <ele>432.3</ele>
        <time>2021-05-30T19:11:23Z</time>
      </trkpt>
      <trkpt lat="-12.0962690" lon="-76.8809160">
        <ele>432.5</ele>
        <time>2021-05-30T19:11:25Z</time>
      </trkpt>
      <trkpt lat="-12.0962000" lon="-76.8809300">
        <ele>432.7</ele>
        <time>2021-05-30T19:11:27Z</time>
      </trkpt>
      <trkpt lat="-12.0961480" lon="-76.8809370">
        <ele>433.0</ele>
        <time>2021-05-30T19:11:28Z</time>
      </trkpt>
      <trkpt lat="-12.0961060" lon="-76.8809350">
        <ele>433.1</ele>
        <time>2021-05-30T19:11:29Z</time>
      </trkpt>
      <trkpt lat="-12.0960600" lon="-76.8809300">
        <ele>433.3</ele>
        <time>2021-05-30T19:11:31Z</time>
      </trkpt>
      <trkpt lat="-12.0960080" lon="-76.8809270">
        <ele>433.5</ele>
        <time>2021-05-30T19:11:32Z</time>
      </trkpt>
      <trkpt lat="-12.0959510" lon="-76.8809210">
        <ele>433.8</ele>
        <time>2021-05-30T19:11:34Z</time>
      </trkpt>
      <trkpt lat="-12.0958750" lon="-76.8809180">
        <ele>434.1</ele>
        <time>2021-05-30T19:11:36Z</time>
      </trkpt>
      <trkpt lat="-12.0958350" lon="-76.8809180">
        <ele>434.2</ele>
        <time>2021-05-30T19:11:37Z</time>
      </trkpt>
      <trkpt lat="-12.0957870" lon="-76.8809190">
        <ele>434.4</ele>
        <time>2021-05-30T19:11:38Z</time>
      </trkpt>
      <trkpt lat="-12.0957510" lon="-76.8809190">
        <ele>434.5</ele>
        <time>2021-05-30T19:11:39Z</time>
      </trkpt>
      <trkpt lat="-12.0957130" lon="-76.8809160">
        <ele>434.6</ele>
        <time>2021-05-30T19:11:41Z</time>
      </trkpt>
      <trkpt lat="-12.0956750" lon="-76.8809150">
        <ele>434.7</ele>
        <time>2021-05-30T19:11:42Z</time>
      </trkpt>
      <trkpt lat="-12.0956380" lon="-76.8809180">
        <ele>434.8</ele>
        <time>2021-05-30T19:11:43Z</time>
      </trkpt>
      <trkpt lat="-12.0955940" lon="-76.8809230">
        <ele>434.9</ele>
        <time>2021-05-30T19:11:44Z</time>
      </trkpt>
      <trkpt lat="-12.0955510" lon="-76.8809300">
        <ele>435.0</ele>
        <time>2021-05-30T19:11:45Z</time>
      </trkpt>
      <trkpt lat="-12.0954890" lon="-76.8809470">
        <ele>435.1</ele>
        <time>2021-05-30T19:11:47Z</time>
      </trkpt>
      <trkpt lat="-12.0954520" lon="-76.8809600">
        <ele>435.1</ele>
        <time>2021-05-30T19:11:48Z</time>
      </trkpt>
      <trkpt lat="-12.0953760" lon="-76.8809930">
        <ele>435.3</ele>
        <time>2021-05-30T19:11:50Z</time>
      </trkpt>
      <trkpt lat="-12.0953030" lon="-76.8810560">
        <ele>435.4</ele>
        <time>2021-05-30T19:11:52Z</time>
      </trkpt>
      <trkpt lat="-12.0952450" lon="-76.8811080">
        <ele>435.6</ele>
        <time>2021-05-30T19:11:53Z</time>
      </trkpt>
      <trkpt lat="-12.0952040" lon="-76.8811350">
        <ele>435.8</ele>
        <time>2021-05-30T19:11:55Z</time>
      </trkpt>
      <trkpt lat="-12.0951640" lon="-76.8811520">
        <ele>435.9</ele>
        <time>2021-05-30T19:11:56Z</time>
      </trkpt>
      <trkpt lat="-12.0951290" lon="-76.8811610">
        <ele>436.0</ele>
        <time>2021-05-30T19:11:57Z</time>
      </trkpt>
      <trkpt lat="-12.0950960" lon="-76.8811690">
        <ele>436.1</ele>
        <time>2021-05-30T19:11:58Z</time>
      </trkpt>
      <trkpt lat="-12.0950290" lon="-76.8811850">
        <ele>436.4</ele>
        <time>2021-05-30T19:12:00Z</time>
      </trkpt>
      <trkpt lat="-12.0949550" lon="-76.8812060">
        <ele>436.6</ele>
        <time>2021-05-30T19:12:02Z</time>
      </trkpt>
      <trkpt lat="-12.0949140" lon="-76.8812170">
        <ele>436.8</ele>
        <time>2021-05-30T19:12:03Z</time>
      </trkpt>
      <trkpt lat="-12.0948740" lon="-76.8812270">
        <ele>436.9</ele>
        <time>2021-05-30T19:12:04Z</time>
      </trkpt>
      <trkpt lat="-12.0947950" lon="-76.8812430">
        <ele>437.2</ele>
        <time>2021-05-30T19:12:06Z</time>
      </trkpt>
      <trkpt lat="-12.0947500" lon="-76.8812500">
        <ele>437.4</ele>
        <time>2021-05-30T19:12:07Z</time>
      </trkpt>
      <trkpt lat="-12.0946960" lon="-76.8812560">
        <ele>437.6</ele>
        <time>2021-05-30T19:12:08Z</time>
      </trkpt>
      <trkpt lat="-12.0946370" lon="-76.8812630">
        <ele>437.8</ele>
        <time>2021-05-30T19:12:10Z</time>
      </trkpt>
      <trkpt lat="-12.0945950" lon="-76.8812660">
        <ele>438.0</ele>
        <time>2021-05-30T19:12:11Z</time>
      </trkpt>
      <trkpt lat="-12.0945570" lon="-76.8812680">
        <ele>438.1</ele>
        <time>2021-05-30T19:12:12Z</time>
      </trkpt>
      <trkpt lat="-12.0944790" lon="-76.8812740">
        <ele>438.4</ele>
        <time>2021-05-30T19:12:14Z</time>
      </trkpt>
      <trkpt lat="-12.0944430" lon="-76.8812790">
        <ele>438.5</ele>
        <time>2021-05-30T19:12:15Z</time>
      </trkpt>
      <trkpt lat="-12.0943680" lon="-76.8812940">
        <ele>438.7</ele>
        <time>2021-05-30T19:12:17Z</time>
      </trkpt>
      <trkpt lat="-12.0943330" lon="-76.8813010">
        <ele>438.8</ele>
        <time>2021-05-30T19:12:18Z</time>
      </trkpt>
      <trkpt lat="-12.0942620" lon="-76.8813090">
        <ele>439.0</ele>
        <time>2021-05-30T19:12:20Z</time>
      </trkpt>
      <trkpt lat="-12.0941950" lon="-76.8813130">
        <ele>439.1</ele>
        <time>2021-05-30T19:12:22Z</time>
      </trkpt>
      <trkpt lat="-12.0941140" lon="-76.8813170">
        <ele>439.3</ele>
        <time>2021-05-30T19:12:24Z</time>
      </trkpt>
      <trkpt lat="-12.0940360" lon="-76.8813210">
        <ele>439.5</ele>
        <time>2021-05-30T19:12:26Z</time>
      </trkpt>
      <trkpt lat="-12.0939580" lon="-76.8813300">
        <ele>439.7</ele>
        <time>2021-05-30T19:12:28Z</time>
      </trkpt>
      <trkpt lat="-12.0939150" lon="-76.8813370">
        <ele>439.9</ele>
        <time>2021-05-30T19:12:29Z</time>
      </trkpt>
      <trkpt lat="-12.0938750" lon="-76.8813450">
        <ele>440.0</ele>
        <time>2021-05-30T19:12:30Z</time>
      </trkpt>
      <trkpt lat="-12.0938350" lon="-76.8813530">
        <ele>440.1</ele>
        <time>2021-05-30T19:12:31Z</time>
      </trkpt>
      <trkpt lat="-12.0937880" lon="-76.8813610">
        <ele>440.2</ele>
        <time>2021-05-30T19:12:32Z</time>
      </trkpt>
      <trkpt lat="-12.0937150" lon="-76.8813730">
        <ele>440.5</ele>
        <time>2021-05-30T19:12:33Z</time>
      </trkpt>
      <trkpt lat="-12.0936630" lon="-76.8813800">
        <ele>440.6</ele>
        <time>2021-05-30T19:12:35Z</time>
      </trkpt>
      <trkpt lat="-12.0935770" lon="-76.8813870">
        <ele>440.9</ele>
        <time>2021-05-30T19:12:37Z</time>
      </trkpt>
      <trkpt lat="-12.0935320" lon="-76.8813890">
        <ele>441.0</ele>
        <time>2021-05-30T19:12:38Z</time>
      </trkpt>
      <trkpt lat="-12.0934470" lon="-76.8813930">
        <ele>441.2</ele>
        <time>2021-05-30T19:12:40Z</time>
      </trkpt>
      <trkpt lat="-12.0933950" lon="-76.8813970">
        <ele>441.3</ele>
        <time>2021-05-30T19:12:41Z</time>
      </trkpt>
      <trkpt lat="-12.0933270" lon="-76.8814030">
        <ele>441.5</ele>
        <time>2021-05-30T19:12:43Z</time>
      </trkpt>
      <trkpt lat="-12.0932860" lon="-76.8814050">
        <ele>441.6</ele>
        <time>2021-05-30T19:12:44Z</time>
      </trkpt>
      <trkpt lat="-12.0932270" lon="-76.8814060">
        <ele>441.7</ele>
        <time>2021-05-30T19:12:45Z</time>
      </trkpt>
      <trkpt lat="-12.0931340" lon="-76.8813830">
        <ele>441.9</ele>
        <time>2021-05-30T19:12:47Z</time>
      </trkpt>
      <trkpt lat="-12.0930660" lon="-76.8814020">
        <ele>442.1</ele>
        <time>2021-05-30T19:12:48Z</time>
      </trkpt>
      <trkpt lat="-12.0930040" lon="-76.8814060">
        <ele>442.2</ele>
        <time>2021-05-30T19:12:50Z</time>
      </trkpt>
      <trkpt lat="-12.0929130" lon="-76.8814130">
        <ele>442.4</ele>
        <time>2021-05-30T19:12:52Z</time>
      </trkpt>
      <trkpt lat="-12.0928780" lon="-76.8814210">
        <ele>442.4</ele>
        <time>2021-05-30T19:12:53Z</time>
      </trkpt>
      <trkpt lat="-12.0927960" lon="-76.8814380">
        <ele>442.6</ele>
        <time>2021-05-30T19:12:55Z</time>
      </trkpt>
      <trkpt lat="-12.0927300" lon="-76.8814450">
        <ele>442.7</ele>
        <time>2021-05-30T19:12:56Z</time>
      </trkpt>
      <trkpt lat="-12.0926800" lon="-76.8814480">
        <ele>442.8</ele>
        <time>2021-05-30T19:12:58Z</time>
      </trkpt>
      <trkpt lat="-12.0925990" lon="-76.8814510">
        <ele>442.9</ele>
        <time>2021-05-30T19:13:00Z</time>
      </trkpt>
      <trkpt lat="-12.0925220" lon="-76.8814390">
        <ele>443.0</ele>
        <time>2021-05-30T19:13:02Z</time>
      </trkpt>
      <trkpt lat="-12.0924750" lon="-76.8814460">
        <ele>443.0</ele>
        <time>2021-05-30T19:13:03Z</time>
      </trkpt>
      <trkpt lat="-12.0924270" lon="-76.8814450">
        <ele>443.1</ele>
        <time>2021-05-30T19:13:04Z</time>
      </trkpt>
      <trkpt lat="-12.0923310" lon="-76.8814560">
        <ele>443.2</ele>
        <time>2021-05-30T19:13:06Z</time>
      </trkpt>
      <trkpt lat="-12.0922850" lon="-76.8814600">
        <ele>443.3</ele>
        <time>2021-05-30T19:13:07Z</time>
      </trkpt>
      <trkpt lat="-12.0921840" lon="-76.8814710">
        <ele>443.3</ele>
        <time>2021-05-30T19:13:09Z</time>
      </trkpt>
      <trkpt lat="-12.0920800" lon="-76.8814820">
        <ele>443.4</ele>
        <time>2021-05-30T19:13:11Z</time>
      </trkpt>
      <trkpt lat="-12.0919870" lon="-76.8815010">
        <ele>443.5</ele>
        <time>2021-05-30T19:13:13Z</time>
      </trkpt>
      <trkpt lat="-12.0919390" lon="-76.8815090">
        <ele>443.5</ele>
        <time>2021-05-30T19:13:14Z</time>
      </trkpt>
      <trkpt lat="-12.0918470" lon="-76.8815270">
        <ele>443.6</ele>
        <time>2021-05-30T19:13:16Z</time>
      </trkpt>
      <trkpt lat="-12.0918020" lon="-76.8815390">
        <ele>443.7</ele>
        <time>2021-05-30T19:13:17Z</time>
      </trkpt>
      <trkpt lat="-12.0917060" lon="-76.8815550">
        <ele>443.8</ele>
        <time>2021-05-30T19:13:19Z</time>
      </trkpt>
      <trkpt lat="-12.0916560" lon="-76.8815590">
        <ele>443.9</ele>
        <time>2021-05-30T19:13:20Z</time>
      </trkpt>
      <trkpt lat="-12.0915570" lon="-76.8815700">
        <ele>444.0</ele>
        <time>2021-05-30T19:13:22Z</time>
      </trkpt>
      <trkpt lat="-12.0915070" lon="-76.8815790">
        <ele>444.1</ele>
        <time>2021-05-30T19:13:23Z</time>
      </trkpt>
      <trkpt lat="-12.0914030" lon="-76.8815940">
        <ele>444.3</ele>
        <time>2021-05-30T19:13:25Z</time>
      </trkpt>
      <trkpt lat="-12.0913060" lon="-76.8816100">
        <ele>444.6</ele>
        <time>2021-05-30T19:13:27Z</time>
      </trkpt>
      <trkpt lat="-12.0912150" lon="-76.8816210">
        <ele>444.8</ele>
        <time>2021-05-30T19:13:29Z</time>
      </trkpt>
      <trkpt lat="-12.0911830" lon="-76.8816250">
        <ele>444.9</ele>
        <time>2021-05-30T19:13:30Z</time>
      </trkpt>
      <trkpt lat="-12.0911420" lon="-76.8816290">
        <ele>445.1</ele>
        <time>2021-05-30T19:13:31Z</time>
      </trkpt>
      <trkpt lat="-12.0910630" lon="-76.8816430">
        <ele>445.3</ele>
        <time>2021-05-30T19:13:33Z</time>
      </trkpt>
      <trkpt lat="-12.0910160" lon="-76.8816500">
        <ele>445.4</ele>
        <time>2021-05-30T19:13:34Z</time>
      </trkpt>
      <trkpt lat="-12.0909700" lon="-76.8816590">
        <ele>445.6</ele>
        <time>2021-05-30T19:13:35Z</time>
      </trkpt>
      <trkpt lat="-12.0908840" lon="-76.8816660">
        <ele>445.8</ele>
        <time>2021-05-30T19:13:37Z</time>
      </trkpt>
      <trkpt lat="-12.0908410" lon="-76.8815940">
        <ele>446.1</ele>
        <time>2021-05-30T19:13:39Z</time>
      </trkpt>
      <trkpt lat="-12.0907510" lon="-76.8816010">
        <ele>446.4</ele>
        <time>2021-05-30T19:13:41Z</time>
      </trkpt>
      <trkpt lat="-12.0906860" lon="-76.8816300">
        <ele>446.4</ele>
        <time>2021-05-30T19:13:42Z</time>
      </trkpt>
      <trkpt lat="-12.0905860" lon="-76.8816530">
        <ele>446.8</ele>
        <time>2021-05-30T19:13:44Z</time>
      </trkpt>
      <trkpt lat="-12.0904830" lon="-76.8816690">
        <ele>447.2</ele>
        <time>2021-05-30T19:13:46Z</time>
      </trkpt>
      <trkpt lat="-12.0903990" lon="-76.8816760">
        <ele>447.5</ele>
        <time>2021-05-30T19:13:48Z</time>
      </trkpt>
      <trkpt lat="-12.0903200" lon="-76.8816730">
        <ele>447.8</ele>
        <time>2021-05-30T19:13:50Z</time>
      </trkpt>
      <trkpt lat="-12.0902440" lon="-76.8816770">
        <ele>448.0</ele>
        <time>2021-05-30T19:13:52Z</time>
      </trkpt>
      <trkpt lat="-12.0902040" lon="-76.8816860">
        <ele>448.2</ele>
        <time>2021-05-30T19:13:53Z</time>
      </trkpt>
      <trkpt lat="-12.0901340" lon="-76.8817050">
        <ele>448.4</ele>
        <time>2021-05-30T19:13:54Z</time>
      </trkpt>
      <trkpt lat="-12.0900850" lon="-76.8817170">
        <ele>448.6</ele>
        <time>2021-05-30T19:13:56Z</time>
      </trkpt>
      <trkpt lat="-12.0900030" lon="-76.8817370">
        <ele>449.0</ele>
        <time>2021-05-30T19:13:58Z</time>
      </trkpt>
      <trkpt lat="-12.0899630" lon="-76.8817560">
        <ele>449.1</ele>
        <time>2021-05-30T19:13:59Z</time>
      </trkpt>
      <trkpt lat="-12.0899020" lon="-76.8817840">
        <ele>449.4</ele>
        <time>2021-05-30T19:14:00Z</time>
      </trkpt>
      <trkpt lat="-12.0898530" lon="-76.8818070">
        <ele>449.6</ele>
        <time>2021-05-30T19:14:02Z</time>
      </trkpt>
      <trkpt lat="-12.0898110" lon="-76.8818330">
        <ele>449.7</ele>
        <time>2021-05-30T19:14:03Z</time>
      </trkpt>
      <trkpt lat="-12.0897560" lon="-76.8818680">
        <ele>449.8</ele>
        <time>2021-05-30T19:14:04Z</time>
      </trkpt>
      <trkpt lat="-12.0897090" lon="-76.8819020">
        <ele>450.0</ele>
        <time>2021-05-30T19:14:06Z</time>
      </trkpt>
      <trkpt lat="-12.0896900" lon="-76.8819410">
        <ele>450.1</ele>
        <time>2021-05-30T19:14:07Z</time>
      </trkpt>
      <trkpt lat="-12.0896560" lon="-76.8819740">
        <ele>450.3</ele>
        <time>2021-05-30T19:14:08Z</time>
      </trkpt>
      <trkpt lat="-12.0896150" lon="-76.8820170">
        <ele>450.5</ele>
        <time>2021-05-30T19:14:10Z</time>
      </trkpt>
      <trkpt lat="-12.0895710" lon="-76.8820600">
        <ele>450.7</ele>
        <time>2021-05-30T19:14:11Z</time>
      </trkpt>
      <trkpt lat="-12.0895400" lon="-76.8820900">
        <ele>450.9</ele>
        <time>2021-05-30T19:14:12Z</time>
      </trkpt>
      <trkpt lat="-12.0895020" lon="-76.8821290">
        <ele>451.1</ele>
        <time>2021-05-30T19:14:14Z</time>
      </trkpt>
      <trkpt lat="-12.0894740" lon="-76.8821560">
        <ele>451.2</ele>
        <time>2021-05-30T19:14:15Z</time>
      </trkpt>
      <trkpt lat="-12.0894180" lon="-76.8822000">
        <ele>451.4</ele>
        <time>2021-05-30T19:14:17Z</time>
      </trkpt>
      <trkpt lat="-12.0893650" lon="-76.8822440">
        <ele>451.6</ele>
        <time>2021-05-30T19:14:19Z</time>
      </trkpt>
      <trkpt lat="-12.0893420" lon="-76.8822640">
        <ele>451.7</ele>
        <time>2021-05-30T19:14:20Z</time>
      </trkpt>
      <trkpt lat="-12.0893290" lon="-76.8822750">
        <ele>451.8</ele>
        <time>2021-05-30T19:14:22Z</time>
      </trkpt>
      <trkpt lat="-12.0893030" lon="-76.8822870">
        <ele>451.8</ele>
        <time>2021-05-30T19:14:24Z</time>
      </trkpt>
      <trkpt lat="-12.0892560" lon="-76.8823280">
        <ele>452.0</ele>
        <time>2021-05-30T19:14:26Z</time>
      </trkpt>
      <trkpt lat="-12.0892090" lon="-76.8823700">
        <ele>452.1</ele>
        <time>2021-05-30T19:14:28Z</time>
      </trkpt>
      <trkpt lat="-12.0891770" lon="-76.8823980">
        <ele>452.2</ele>
        <time>2021-05-30T19:14:29Z</time>
      </trkpt>
      <trkpt lat="-12.0891210" lon="-76.8824530">
        <ele>452.4</ele>
        <time>2021-05-30T19:14:31Z</time>
      </trkpt>
      <trkpt lat="-12.0890610" lon="-76.8825180">
        <ele>452.5</ele>
        <time>2021-05-30T19:14:33Z</time>
      </trkpt>
      <trkpt lat="-12.0890300" lon="-76.8825480">
        <ele>452.6</ele>
        <time>2021-05-30T19:14:34Z</time>
      </trkpt>
      <trkpt lat="-12.0889960" lon="-76.8825750">
        <ele>452.8</ele>
        <time>2021-05-30T19:14:35Z</time>
      </trkpt>
      <trkpt lat="-12.0889380" lon="-76.8826160">
        <ele>453.0</ele>
        <time>2021-05-30T19:14:36Z</time>
      </trkpt>
      <trkpt lat="-12.0889030" lon="-76.8826470">
        <ele>453.1</ele>
        <time>2021-05-30T19:14:38Z</time>
      </trkpt>
      <trkpt lat="-12.0888430" lon="-76.8826990">
        <ele>453.3</ele>
        <time>2021-05-30T19:14:40Z</time>
      </trkpt>
      <trkpt lat="-12.0888120" lon="-76.8827250">
        <ele>453.4</ele>
        <time>2021-05-30T19:14:41Z</time>
      </trkpt>
      <trkpt lat="-12.0887700" lon="-76.8827590">
        <ele>453.6</ele>
        <time>2021-05-30T19:14:42Z</time>
      </trkpt>
      <trkpt lat="-12.0887220" lon="-76.8827990">
        <ele>453.7</ele>
        <time>2021-05-30T19:14:44Z</time>
      </trkpt>
      <trkpt lat="-12.0886790" lon="-76.8828280">
        <ele>453.9</ele>
        <time>2021-05-30T19:14:45Z</time>
      </trkpt>
      <trkpt lat="-12.0886350" lon="-76.8828600">
        <ele>454.0</ele>
        <time>2021-05-30T19:14:47Z</time>
      </trkpt>
      <trkpt lat="-12.0886040" lon="-76.8828830">
        <ele>454.1</ele>
        <time>2021-05-30T19:14:48Z</time>
      </trkpt>
      <trkpt lat="-12.0885520" lon="-76.8829170">
        <ele>454.2</ele>
        <time>2021-05-30T19:14:49Z</time>
      </trkpt>
      <trkpt lat="-12.0885050" lon="-76.8829490">
        <ele>454.3</ele>
        <time>2021-05-30T19:14:51Z</time>
      </trkpt>
      <trkpt lat="-12.0884710" lon="-76.8829720">
        <ele>454.4</ele>
        <time>2021-05-30T19:14:52Z</time>
      </trkpt>
      <trkpt lat="-12.0884240" lon="-76.8830090">
        <ele>454.5</ele>
        <time>2021-05-30T19:14:53Z</time>
      </trkpt>
      <trkpt lat="-12.0883870" lon="-76.8830410">
        <ele>454.6</ele>
        <time>2021-05-30T19:14:54Z</time>
      </trkpt>
      <trkpt lat="-12.0883480" lon="-76.8830770">
        <ele>454.6</ele>
        <time>2021-05-30T19:14:56Z</time>
      </trkpt>
      <trkpt lat="-12.0882930" lon="-76.8831310">
        <ele>454.6</ele>
        <time>2021-05-30T19:14:57Z</time>
      </trkpt>
      <trkpt lat="-12.0882490" lon="-76.8831680">
        <ele>454.7</ele>
        <time>2021-05-30T19:14:58Z</time>
      </trkpt>
      <trkpt lat="-12.0882080" lon="-76.8832040">
        <ele>454.7</ele>
        <time>2021-05-30T19:14:59Z</time>
      </trkpt>
      <trkpt lat="-12.0881350" lon="-76.8832700">
        <ele>454.6</ele>
        <time>2021-05-30T19:15:01Z</time>
      </trkpt>
      <trkpt lat="-12.0880830" lon="-76.8833100">
        <ele>454.5</ele>
        <time>2021-05-30T19:15:03Z</time>
      </trkpt>
      <trkpt lat="-12.0880410" lon="-76.8833430">
        <ele>454.4</ele>
        <time>2021-05-30T19:15:04Z</time>
      </trkpt>
      <trkpt lat="-12.0879580" lon="-76.8834020">
        <ele>454.1</ele>
        <time>2021-05-30T19:15:06Z</time>
      </trkpt>
      <trkpt lat="-12.0879120" lon="-76.8834320">
        <ele>453.9</ele>
        <time>2021-05-30T19:15:07Z</time>
      </trkpt>
      <trkpt lat="-12.0878660" lon="-76.8834620">
        <ele>453.7</ele>
        <time>2021-05-30T19:15:08Z</time>
      </trkpt>
      <trkpt lat="-12.0877700" lon="-76.8835300">
        <ele>453.4</ele>
        <time>2021-05-30T19:15:10Z</time>
      </trkpt>
      <trkpt lat="-12.0876660" lon="-76.8835830">
        <ele>452.9</ele>
        <time>2021-05-30T19:15:12Z</time>
      </trkpt>
      <trkpt lat="-12.0875480" lon="-76.8836330">
        <ele>452.3</ele>
        <time>2021-05-30T19:15:14Z</time>
      </trkpt>
      <trkpt lat="-12.0874810" lon="-76.8836420">
        <ele>451.9</ele>
        <time>2021-05-30T19:15:15Z</time>
      </trkpt>
      <trkpt lat="-12.0873300" lon="-76.8836210">
        <ele>451.0</ele>
        <time>2021-05-30T19:15:17Z</time>
      </trkpt>
      <trkpt lat="-12.0871930" lon="-76.8835380">
        <ele>450.1</ele>
        <time>2021-05-30T19:15:19Z</time>
      </trkpt>
      <trkpt lat="-12.0871110" lon="-76.8834130">
        <ele>449.2</ele>
        <time>2021-05-30T19:15:21Z</time>
      </trkpt>
      <trkpt lat="-12.0870680" lon="-76.8833450">
        <ele>448.8</ele>
        <time>2021-05-30T19:15:22Z</time>
      </trkpt>
      <trkpt lat="-12.0869860" lon="-76.8831980">
        <ele>447.9</ele>
        <time>2021-05-30T19:15:24Z</time>
      </trkpt>
      <trkpt lat="-12.0869390" lon="-76.8831290">
        <ele>447.5</ele>
        <time>2021-05-30T19:15:25Z</time>
      </trkpt>
      <trkpt lat="-12.0868930" lon="-76.8830520">
        <ele>447.0</ele>
        <time>2021-05-30T19:15:26Z</time>
      </trkpt>
      <trkpt lat="-12.0868350" lon="-76.8828750">
        <ele>446.0</ele>
        <time>2021-05-30T19:15:28Z</time>
      </trkpt>
      <trkpt lat="-12.0868110" lon="-76.8827880">
        <ele>445.6</ele>
        <time>2021-05-30T19:15:29Z</time>
      </trkpt>
      <trkpt lat="-12.0867750" lon="-76.8826090">
        <ele>444.8</ele>
        <time>2021-05-30T19:15:31Z</time>
      </trkpt>
      <trkpt lat="-12.0867440" lon="-76.8825270">
        <ele>444.4</ele>
        <time>2021-05-30T19:15:32Z</time>
      </trkpt>
      <trkpt lat="-12.0866970" lon="-76.8824550">
        <ele>444.1</ele>
        <time>2021-05-30T19:15:33Z</time>
      </trkpt>
      <trkpt lat="-12.0865580" lon="-76.8823570">
        <ele>443.4</ele>
        <time>2021-05-30T19:15:35Z</time>
      </trkpt>
      <trkpt lat="-12.0863740" lon="-76.8823150">
        <ele>442.6</ele>
        <time>2021-05-30T19:15:37Z</time>
      </trkpt>
      <trkpt lat="-12.0862820" lon="-76.8822880">
        <ele>442.2</ele>
        <time>2021-05-30T19:15:38Z</time>
      </trkpt>
      <trkpt lat="-12.0861120" lon="-76.8822180">
        <ele>441.4</ele>
        <time>2021-05-30T19:15:40Z</time>
      </trkpt>
      <trkpt lat="-12.0860390" lon="-76.8821710">
        <ele>441.0</ele>
        <time>2021-05-30T19:15:41Z</time>
      </trkpt>
      <trkpt lat="-12.0859820" lon="-76.8821010">
        <ele>440.7</ele>
        <time>2021-05-30T19:15:42Z</time>
      </trkpt>
      <trkpt lat="-12.0859290" lon="-76.8819310">
        <ele>440.0</ele>
        <time>2021-05-30T19:15:44Z</time>
      </trkpt>
      <trkpt lat="-12.0859200" lon="-76.8818340">
        <ele>439.6</ele>
        <time>2021-05-30T19:15:45Z</time>
      </trkpt>
      <trkpt lat="-12.0859100" lon="-76.8816330">
        <ele>439.0</ele>
        <time>2021-05-30T19:15:47Z</time>
      </trkpt>
      <trkpt lat="-12.0858990" lon="-76.8814430">
        <ele>438.5</ele>
        <time>2021-05-30T19:15:49Z</time>
      </trkpt>
      <trkpt lat="-12.0858730" lon="-76.8813490">
        <ele>438.2</ele>
        <time>2021-05-30T19:15:50Z</time>
      </trkpt>
      <trkpt lat="-12.0857810" lon="-76.8811830">
        <ele>437.5</ele>
        <time>2021-05-30T19:15:52Z</time>
      </trkpt>
      <trkpt lat="-12.0857290" lon="-76.8811010">
        <ele>437.1</ele>
        <time>2021-05-30T19:15:53Z</time>
      </trkpt>
      <trkpt lat="-12.0856700" lon="-76.8810250">
        <ele>436.7</ele>
        <time>2021-05-30T19:15:54Z</time>
      </trkpt>
      <trkpt lat="-12.0855580" lon="-76.8808850">
        <ele>436.2</ele>
        <time>2021-05-30T19:15:56Z</time>
      </trkpt>
      <trkpt lat="-12.0855180" lon="-76.8808010">
        <ele>435.9</ele>
        <time>2021-05-30T19:15:57Z</time>
      </trkpt>
      <trkpt lat="-12.0854860" lon="-76.8806300">
        <ele>435.3</ele>
        <time>2021-05-30T19:15:59Z</time>
      </trkpt>
      <trkpt lat="-12.0854870" lon="-76.8805370">
        <ele>435.0</ele>
        <time>2021-05-30T19:16:00Z</time>
      </trkpt>
      <trkpt lat="-12.0854830" lon="-76.8803590">
        <ele>434.3</ele>
        <time>2021-05-30T19:16:02Z</time>
      </trkpt>
      <trkpt lat="-12.0854830" lon="-76.8802650">
        <ele>433.9</ele>
        <time>2021-05-30T19:16:03Z</time>
      </trkpt>
      <trkpt lat="-12.0854910" lon="-76.8800700">
        <ele>433.2</ele>
        <time>2021-05-30T19:16:05Z</time>
      </trkpt>
      <trkpt lat="-12.0854830" lon="-76.8798730">
        <ele>432.6</ele>
        <time>2021-05-30T19:16:07Z</time>
      </trkpt>
      <trkpt lat="-12.0854670" lon="-76.8796920">
        <ele>432.0</ele>
        <time>2021-05-30T19:16:09Z</time>
      </trkpt>
      <trkpt lat="-12.0854600" lon="-76.8796020">
        <ele>431.7</ele>
        <time>2021-05-30T19:16:10Z</time>
      </trkpt>
      <trkpt lat="-12.0854130" lon="-76.8794140">
        <ele>431.2</ele>
        <time>2021-05-30T19:16:12Z</time>
      </trkpt>
      <trkpt lat="-12.0853390" lon="-76.8792370">
        <ele>430.7</ele>
        <time>2021-05-30T19:16:14Z</time>
      </trkpt>
      <trkpt lat="-12.0853040" lon="-76.8791470">
        <ele>430.6</ele>
        <time>2021-05-30T19:16:15Z</time>
      </trkpt>
      <trkpt lat="-12.0852630" lon="-76.8790530">
        <ele>430.4</ele>
        <time>2021-05-30T19:16:16Z</time>
      </trkpt>
      <trkpt lat="-12.0851870" lon="-76.8788800">
        <ele>430.1</ele>
        <time>2021-05-30T19:16:18Z</time>
      </trkpt>
      <trkpt lat="-12.0851670" lon="-76.8786780">
        <ele>429.9</ele>
        <time>2021-05-30T19:16:20Z</time>
      </trkpt>
      <trkpt lat="-12.0851780" lon="-76.8784700">
        <ele>429.7</ele>
        <time>2021-05-30T19:16:22Z</time>
      </trkpt>
      <trkpt lat="-12.0851840" lon="-76.8783670">
        <ele>429.7</ele>
        <time>2021-05-30T19:16:23Z</time>
      </trkpt>
      <trkpt lat="-12.0851970" lon="-76.8781800">
        <ele>429.7</ele>
        <time>2021-05-30T19:16:25Z</time>
      </trkpt>
      <trkpt lat="-12.0851880" lon="-76.8780090">
        <ele>429.8</ele>
        <time>2021-05-30T19:16:27Z</time>
      </trkpt>
      <trkpt lat="-12.0851550" lon="-76.8778570">
        <ele>430.0</ele>
        <time>2021-05-30T19:16:29Z</time>
      </trkpt>
      <trkpt lat="-12.0850990" lon="-76.8777230">
        <ele>430.1</ele>
        <time>2021-05-30T19:16:31Z</time>
      </trkpt>
      <trkpt lat="-12.0849890" lon="-76.8776270">
        <ele>430.2</ele>
        <time>2021-05-30T19:16:33Z</time>
      </trkpt>
      <trkpt lat="-12.0849230" lon="-76.8775970">
        <ele>430.2</ele>
        <time>2021-05-30T19:16:34Z</time>
      </trkpt>
      <trkpt lat="-12.0848550" lon="-76.8775820">
        <ele>430.2</ele>
        <time>2021-05-30T19:16:35Z</time>
      </trkpt>
      <trkpt lat="-12.0847160" lon="-76.8775630">
        <ele>430.3</ele>
        <time>2021-05-30T19:16:37Z</time>
      </trkpt>
      <trkpt lat="-12.0846500" lon="-76.8775550">
        <ele>430.4</ele>
        <time>2021-05-30T19:16:38Z</time>
      </trkpt>
      <trkpt lat="-12.0845350" lon="-76.8775430">
        <ele>430.4</ele>
        <time>2021-05-30T19:16:40Z</time>
      </trkpt>
      <trkpt lat="-12.0844360" lon="-76.8775220">
        <ele>430.3</ele>
        <time>2021-05-30T19:16:42Z</time>
      </trkpt>
      <trkpt lat="-12.0843790" lon="-76.8775010">
        <ele>430.2</ele>
        <time>2021-05-30T19:16:44Z</time>
      </trkpt>
      <trkpt lat="-12.0843740" lon="-76.8774960">
        <ele>430.2</ele>
        <time>2021-05-30T19:16:45Z</time>
      </trkpt>
      <trkpt lat="-12.0843850" lon="-76.8774870">
        <ele>430.2</ele>
        <time>2021-05-30T19:16:46Z</time>
      </trkpt>
      <trkpt lat="-12.0843890" lon="-76.8774680">
        <ele>430.2</ele>
        <time>2021-05-30T19:16:48Z</time>
      </trkpt>
      <trkpt lat="-12.0843900" lon="-76.8774640">
        <ele>430.2</ele>
        <time>2021-05-30T19:16:49Z</time>
      </trkpt>
      <trkpt lat="-12.0843830" lon="-76.8774660">
        <ele>430.2</ele>
        <time>2021-05-30T19:16:50Z</time>
      </trkpt>
      <trkpt lat="-12.0843750" lon="-76.8774670">
        <ele>430.2</ele>
        <time>2021-05-30T19:16:52Z</time>
      </trkpt>
      <trkpt lat="-12.0843490" lon="-76.8774730">
        <ele>430.1</ele>
        <time>2021-05-30T19:16:54Z</time>
      </trkpt>
      <trkpt lat="-12.0843330" lon="-76.8774790">
        <ele>430.1</ele>
        <time>2021-05-30T19:16:55Z</time>
      </trkpt>
      <trkpt lat="-12.0843220" lon="-76.8774890">
        <ele>430.1</ele>
        <time>2021-05-30T19:16:56Z</time>
      </trkpt>
      <trkpt lat="-12.0842870" lon="-76.8775180">
        <ele>430.4</ele>
        <time>2021-05-30T19:16:58Z</time>
      </trkpt>
      <trkpt lat="-12.0842450" lon="-76.8775610">
        <ele>431.4</ele>
        <time>2021-05-30T19:17:00Z</time>
      </trkpt>
      <trkpt lat="-12.0842030" lon="-76.8776290">
        <ele>431.1</ele>
        <time>2021-05-30T19:17:02Z</time>
      </trkpt>
      <trkpt lat="-12.0841900" lon="-76.8776720">
        <ele>431.0</ele>
        <time>2021-05-30T19:17:03Z</time>
      </trkpt>
      <trkpt lat="-12.0841760" lon="-76.8777410">
        <ele>430.8</ele>
        <time>2021-05-30T19:17:04Z</time>
      </trkpt>
      <trkpt lat="-12.0841610" lon="-76.8777960">
        <ele>430.7</ele>
        <time>2021-05-30T19:17:06Z</time>
      </trkpt>
      <trkpt lat="-12.0841590" lon="-76.8778760">
        <ele>430.4</ele>
        <time>2021-05-30T19:17:07Z</time>
      </trkpt>
      <trkpt lat="-12.0841640" lon="-76.8779340">
        <ele>430.2</ele>
        <time>2021-05-30T19:17:09Z</time>
      </trkpt>
      <trkpt lat="-12.0841910" lon="-76.8780880">
        <ele>429.8</ele>
        <time>2021-05-30T19:17:11Z</time>
      </trkpt>
      <trkpt lat="-12.0842070" lon="-76.8782160">
        <ele>429.3</ele>
        <time>2021-05-30T19:17:13Z</time>
      </trkpt>
      <trkpt lat="-12.0842290" lon="-76.8783490">
        <ele>428.9</ele>
        <time>2021-05-30T19:17:15Z</time>
      </trkpt>
      <trkpt lat="-12.0842500" lon="-76.8784830">
        <ele>428.4</ele>
        <time>2021-05-30T19:17:17Z</time>
      </trkpt>
      <trkpt lat="-12.0842960" lon="-76.8786120">
        <ele>427.8</ele>
        <time>2021-05-30T19:17:19Z</time>
      </trkpt>
      <trkpt lat="-12.0843220" lon="-76.8786760">
        <ele>427.4</ele>
        <time>2021-05-30T19:17:20Z</time>
      </trkpt>
      <trkpt lat="-12.0843610" lon="-76.8788090">
        <ele>426.7</ele>
        <time>2021-05-30T19:17:22Z</time>
      </trkpt>
      <trkpt lat="-12.0843970" lon="-76.8789440">
        <ele>426.0</ele>
        <time>2021-05-30T19:17:24Z</time>
      </trkpt>
      <trkpt lat="-12.0844130" lon="-76.8790180">
        <ele>425.6</ele>
        <time>2021-05-30T19:17:25Z</time>
      </trkpt>
      <trkpt lat="-12.0844320" lon="-76.8790930">
        <ele>425.3</ele>
        <time>2021-05-30T19:17:26Z</time>
      </trkpt>
      <trkpt lat="-12.0844470" lon="-76.8791670">
        <ele>424.9</ele>
        <time>2021-05-30T19:17:27Z</time>
      </trkpt>
      <trkpt lat="-12.0844600" lon="-76.8793120">
        <ele>424.4</ele>
        <time>2021-05-30T19:17:29Z</time>
      </trkpt>
      <trkpt lat="-12.0844770" lon="-76.8793850">
        <ele>424.1</ele>
        <time>2021-05-30T19:17:30Z</time>
      </trkpt>
      <trkpt lat="-12.0845120" lon="-76.8795370">
        <ele>423.4</ele>
        <time>2021-05-30T19:17:32Z</time>
      </trkpt>
      <trkpt lat="-12.0845360" lon="-76.8796250">
        <ele>423.0</ele>
        <time>2021-05-30T19:17:33Z</time>
      </trkpt>
      <trkpt lat="-12.0845850" lon="-76.8797900">
        <ele>422.3</ele>
        <time>2021-05-30T19:17:35Z</time>
      </trkpt>
      <trkpt lat="-12.0846070" lon="-76.8798740">
        <ele>421.9</ele>
        <time>2021-05-30T19:17:36Z</time>
      </trkpt>
      <trkpt lat="-12.0846420" lon="-76.8800380">
        <ele>421.2</ele>
        <time>2021-05-30T19:17:38Z</time>
      </trkpt>
      <trkpt lat="-12.0846810" lon="-76.8802080">
        <ele>420.4</ele>
        <time>2021-05-30T19:17:40Z</time>
      </trkpt>
      <trkpt lat="-12.0847210" lon="-76.8803850">
        <ele>419.7</ele>
        <time>2021-05-30T19:17:42Z</time>
      </trkpt>
      <trkpt lat="-12.0847360" lon="-76.8804690">
        <ele>419.3</ele>
        <time>2021-05-30T19:17:43Z</time>
      </trkpt>
      <trkpt lat="-12.0847570" lon="-76.8805570">
        <ele>418.9</ele>
        <time>2021-05-30T19:17:44Z</time>
      </trkpt>
      <trkpt lat="-12.0847950" lon="-76.8807180">
        <ele>418.3</ele>
        <time>2021-05-30T19:17:46Z</time>
      </trkpt>
      <trkpt lat="-12.0848180" lon="-76.8808020">
        <ele>418.0</ele>
        <time>2021-05-30T19:17:47Z</time>
      </trkpt>
      <trkpt lat="-12.0848390" lon="-76.8808880">
        <ele>417.8</ele>
        <time>2021-05-30T19:17:48Z</time>
      </trkpt>
      <trkpt lat="-12.0848760" lon="-76.8810670">
        <ele>417.5</ele>
        <time>2021-05-30T19:17:50Z</time>
      </trkpt>
      <trkpt lat="-12.0849070" lon="-76.8812400">
        <ele>417.3</ele>
        <time>2021-05-30T19:17:52Z</time>
      </trkpt>
      <trkpt lat="-12.0849420" lon="-76.8814100">
        <ele>416.9</ele>
        <time>2021-05-30T19:17:54Z</time>
      </trkpt>
      <trkpt lat="-12.0849570" lon="-76.8814980">
        <ele>416.5</ele>
        <time>2021-05-30T19:17:55Z</time>
      </trkpt>
      <trkpt lat="-12.0849780" lon="-76.8816630">
        <ele>415.7</ele>
        <time>2021-05-30T19:17:57Z</time>
      </trkpt>
      <trkpt lat="-12.0850040" lon="-76.8818310">
        <ele>415.0</ele>
        <time>2021-05-30T19:17:59Z</time>
      </trkpt>
      <trkpt lat="-12.0850120" lon="-76.8820050">
        <ele>414.2</ele>
        <time>2021-05-30T19:18:01Z</time>
      </trkpt>
      <trkpt lat="-12.0850330" lon="-76.8820870">
        <ele>413.8</ele>
        <time>2021-05-30T19:18:02Z</time>
      </trkpt>
      <trkpt lat="-12.0850450" lon="-76.8821740">
        <ele>413.4</ele>
        <time>2021-05-30T19:18:03Z</time>
      </trkpt>
      <trkpt lat="-12.0850510" lon="-76.8823460">
        <ele>412.5</ele>
        <time>2021-05-30T19:18:05Z</time>
      </trkpt>
      <trkpt lat="-12.0850590" lon="-76.8824310">
        <ele>412.1</ele>
        <time>2021-05-30T19:18:06Z</time>
      </trkpt>
      <trkpt lat="-12.0850770" lon="-76.8825930">
        <ele>411.3</ele>
        <time>2021-05-30T19:18:08Z</time>
      </trkpt>
      <trkpt lat="-12.0850790" lon="-76.8827520">
        <ele>410.6</ele>
        <time>2021-05-30T19:18:10Z</time>
      </trkpt>
      <trkpt lat="-12.0850920" lon="-76.8829040">
        <ele>409.8</ele>
        <time>2021-05-30T19:18:12Z</time>
      </trkpt>
      <trkpt lat="-12.0851040" lon="-76.8829780">
        <ele>409.5</ele>
        <time>2021-05-30T19:18:13Z</time>
      </trkpt>
      <trkpt lat="-12.0851160" lon="-76.8831090">
        <ele>408.9</ele>
        <time>2021-05-30T19:18:15Z</time>
      </trkpt>
      <trkpt lat="-12.0851250" lon="-76.8831690">
        <ele>408.7</ele>
        <time>2021-05-30T19:18:16Z</time>
      </trkpt>
      <trkpt lat="-12.0851310" lon="-76.8832280">
        <ele>408.5</ele>
        <time>2021-05-30T19:18:17Z</time>
      </trkpt>
      <trkpt lat="-12.0851540" lon="-76.8833450">
        <ele>408.1</ele>
        <time>2021-05-30T19:18:19Z</time>
      </trkpt>
      <trkpt lat="-12.0851700" lon="-76.8834060">
        <ele>407.9</ele>
        <time>2021-05-30T19:18:20Z</time>
      </trkpt>
      <trkpt lat="-12.0852040" lon="-76.8835320">
        <ele>407.5</ele>
        <time>2021-05-30T19:18:22Z</time>
      </trkpt>
      <trkpt lat="-12.0852130" lon="-76.8835960">
        <ele>407.3</ele>
        <time>2021-05-30T19:18:23Z</time>
      </trkpt>
      <trkpt lat="-12.0852190" lon="-76.8837360">
        <ele>406.6</ele>
        <time>2021-05-30T19:18:25Z</time>
      </trkpt>
      <trkpt lat="-12.0852190" lon="-76.8838860">
        <ele>405.9</ele>
        <time>2021-05-30T19:18:27Z</time>
      </trkpt>
      <trkpt lat="-12.0852240" lon="-76.8839620">
        <ele>405.5</ele>
        <time>2021-05-30T19:18:28Z</time>
      </trkpt>
      <trkpt lat="-12.0852360" lon="-76.8841410">
        <ele>404.6</ele>
        <time>2021-05-30T19:18:30Z</time>
      </trkpt>
      <trkpt lat="-12.0852480" lon="-76.8842320">
        <ele>404.2</ele>
        <time>2021-05-30T19:18:31Z</time>
      </trkpt>
      <trkpt lat="-12.0852780" lon="-76.8844190">
        <ele>403.3</ele>
        <time>2021-05-30T19:18:33Z</time>
      </trkpt>
      <trkpt lat="-12.0852950" lon="-76.8845100">
        <ele>402.8</ele>
        <time>2021-05-30T19:18:34Z</time>
      </trkpt>
      <trkpt lat="-12.0853110" lon="-76.8846070">
        <ele>402.4</ele>
        <time>2021-05-30T19:18:35Z</time>
      </trkpt>
      <trkpt lat="-12.0853460" lon="-76.8847870">
        <ele>401.5</ele>
        <time>2021-05-30T19:18:37Z</time>
      </trkpt>
      <trkpt lat="-12.0853770" lon="-76.8849620">
        <ele>400.8</ele>
        <time>2021-05-30T19:18:39Z</time>
      </trkpt>
      <trkpt lat="-12.0853990" lon="-76.8851420">
        <ele>400.2</ele>
        <time>2021-05-30T19:18:41Z</time>
      </trkpt>
      <trkpt lat="-12.0854240" lon="-76.8853210">
        <ele>399.9</ele>
        <time>2021-05-30T19:18:43Z</time>
      </trkpt>
      <trkpt lat="-12.0854280" lon="-76.8854080">
        <ele>399.8</ele>
        <time>2021-05-30T19:18:44Z</time>
      </trkpt>
      <trkpt lat="-12.0854300" lon="-76.8855760">
        <ele>399.4</ele>
        <time>2021-05-30T19:18:46Z</time>
      </trkpt>
      <trkpt lat="-12.0854200" lon="-76.8856570">
        <ele>399.0</ele>
        <time>2021-05-30T19:18:47Z</time>
      </trkpt>
      <trkpt lat="-12.0853620" lon="-76.8858160">
        <ele>398.3</ele>
        <time>2021-05-30T19:18:49Z</time>
      </trkpt>
      <trkpt lat="-12.0853340" lon="-76.8858900">
        <ele>397.9</ele>
        <time>2021-05-30T19:18:50Z</time>
      </trkpt>
      <trkpt lat="-12.0852660" lon="-76.8860260">
        <ele>397.2</ele>
        <time>2021-05-30T19:18:52Z</time>
      </trkpt>
      <trkpt lat="-12.0852030" lon="-76.8861700">
        <ele>396.4</ele>
        <time>2021-05-30T19:18:54Z</time>
      </trkpt>
      <trkpt lat="-12.0851770" lon="-76.8862430">
        <ele>396.0</ele>
        <time>2021-05-30T19:18:55Z</time>
      </trkpt>
      <trkpt lat="-12.0851150" lon="-76.8864010">
        <ele>395.1</ele>
        <time>2021-05-30T19:18:57Z</time>
      </trkpt>
      <trkpt lat="-12.0850740" lon="-76.8864830">
        <ele>394.7</ele>
        <time>2021-05-30T19:18:58Z</time>
      </trkpt>
      <trkpt lat="-12.0850090" lon="-76.8866510">
        <ele>393.8</ele>
        <time>2021-05-30T19:19:00Z</time>
      </trkpt>
      <trkpt lat="-12.0849800" lon="-76.8868060">
        <ele>392.9</ele>
        <time>2021-05-30T19:19:02Z</time>
      </trkpt>
      <trkpt lat="-12.0849810" lon="-76.8869830">
        <ele>392.0</ele>
        <time>2021-05-30T19:19:04Z</time>
      </trkpt>
      <trkpt lat="-12.0850300" lon="-76.8871770">
        <ele>391.1</ele>
        <time>2021-05-30T19:19:06Z</time>
      </trkpt>
      <trkpt lat="-12.0851020" lon="-76.8873550">
        <ele>390.4</ele>
        <time>2021-05-30T19:19:08Z</time>
      </trkpt>
      <trkpt lat="-12.0851840" lon="-76.8875100">
        <ele>390.0</ele>
        <time>2021-05-30T19:19:10Z</time>
      </trkpt>
      <trkpt lat="-12.0852250" lon="-76.8875880">
        <ele>389.7</ele>
        <time>2021-05-30T19:19:11Z</time>
      </trkpt>
      <trkpt lat="-12.0852780" lon="-76.8877360">
        <ele>389.1</ele>
        <time>2021-05-30T19:19:13Z</time>
      </trkpt>
      <trkpt lat="-12.0852980" lon="-76.8878110">
        <ele>388.7</ele>
        <time>2021-05-30T19:19:14Z</time>
      </trkpt>
      <trkpt lat="-12.0853270" lon="-76.8879700">
        <ele>387.7</ele>
        <time>2021-05-30T19:19:16Z</time>
      </trkpt>
      <trkpt lat="-12.0853570" lon="-76.8881290">
        <ele>386.8</ele>
        <time>2021-05-30T19:19:18Z</time>
      </trkpt>
      <trkpt lat="-12.0854040" lon="-76.8882830">
        <ele>385.9</ele>
        <time>2021-05-30T19:19:20Z</time>
      </trkpt>
      <trkpt lat="-12.0854630" lon="-76.8884440">
        <ele>385.0</ele>
        <time>2021-05-30T19:19:22Z</time>
      </trkpt>
      <trkpt lat="-12.0855310" lon="-76.8886050">
        <ele>384.1</ele>
        <time>2021-05-30T19:19:24Z</time>
      </trkpt>
      <trkpt lat="-12.0855630" lon="-76.8886880">
        <ele>383.7</ele>
        <time>2021-05-30T19:19:25Z</time>
      </trkpt>
      <trkpt lat="-12.0856220" lon="-76.8888610">
        <ele>383.0</ele>
        <time>2021-05-30T19:19:27Z</time>
      </trkpt>
      <trkpt lat="-12.0856740" lon="-76.8890370">
        <ele>382.6</ele>
        <time>2021-05-30T19:19:29Z</time>
      </trkpt>
      <trkpt lat="-12.0857020" lon="-76.8891190">
        <ele>382.4</ele>
        <time>2021-05-30T19:19:30Z</time>
      </trkpt>
      <trkpt lat="-12.0857480" lon="-76.8892820">
        <ele>382.0</ele>
        <time>2021-05-30T19:19:32Z</time>
      </trkpt>
      <trkpt lat="-12.0857760" lon="-76.8893700">
        <ele>381.6</ele>
        <time>2021-05-30T19:19:33Z</time>
      </trkpt>
      <trkpt lat="-12.0858200" lon="-76.8895340">
        <ele>380.7</ele>
        <time>2021-05-30T19:19:35Z</time>
      </trkpt>
      <trkpt lat="-12.0858410" lon="-76.8896190">
        <ele>380.2</ele>
        <time>2021-05-30T19:19:36Z</time>
      </trkpt>
      <trkpt lat="-12.0858640" lon="-76.8897060">
        <ele>379.7</ele>
        <time>2021-05-30T19:19:37Z</time>
      </trkpt>
      <trkpt lat="-12.0859000" lon="-76.8898960">
        <ele>378.9</ele>
        <time>2021-05-30T19:19:39Z</time>
      </trkpt>
      <trkpt lat="-12.0859390" lon="-76.8900780">
        <ele>378.3</ele>
        <time>2021-05-30T19:19:41Z</time>
      </trkpt>
      <trkpt lat="-12.0859620" lon="-76.8901650">
        <ele>378.0</ele>
        <time>2021-05-30T19:19:42Z</time>
      </trkpt>
      <trkpt lat="-12.0860230" lon="-76.8903320">
        <ele>377.4</ele>
        <time>2021-05-30T19:19:44Z</time>
      </trkpt>
      <trkpt lat="-12.0860710" lon="-76.8905020">
        <ele>376.6</ele>
        <time>2021-05-30T19:19:46Z</time>
      </trkpt>
      <trkpt lat="-12.0860900" lon="-76.8906740">
        <ele>375.7</ele>
        <time>2021-05-30T19:19:48Z</time>
      </trkpt>
      <trkpt lat="-12.0860850" lon="-76.8907610">
        <ele>375.5</ele>
        <time>2021-05-30T19:19:49Z</time>
      </trkpt>
      <trkpt lat="-12.0860770" lon="-76.8908480">
        <ele>375.2</ele>
        <time>2021-05-30T19:19:50Z</time>
      </trkpt>
      <trkpt lat="-12.0860600" lon="-76.8910290">
        <ele>374.6</ele>
        <time>2021-05-30T19:19:52Z</time>
      </trkpt>
      <trkpt lat="-12.0860530" lon="-76.8911200">
        <ele>374.0</ele>
        <time>2021-05-30T19:19:53Z</time>
      </trkpt>
      <trkpt lat="-12.0860520" lon="-76.8912130">
        <ele>373.4</ele>
        <time>2021-05-30T19:19:54Z</time>
      </trkpt>
      <trkpt lat="-12.0860490" lon="-76.8913130">
        <ele>372.8</ele>
        <time>2021-05-30T19:19:55Z</time>
      </trkpt>
      <trkpt lat="-12.0860420" lon="-76.8914840">
        <ele>371.8</ele>
        <time>2021-05-30T19:19:57Z</time>
      </trkpt>
      <trkpt lat="-12.0860390" lon="-76.8915690">
        <ele>371.4</ele>
        <time>2021-05-30T19:19:58Z</time>
      </trkpt>
      <trkpt lat="-12.0860410" lon="-76.8916530">
        <ele>370.9</ele>
        <time>2021-05-30T19:19:59Z</time>
      </trkpt>
      <trkpt lat="-12.0860570" lon="-76.8918140">
        <ele>370.2</ele>
        <time>2021-05-30T19:20:01Z</time>
      </trkpt>
      <trkpt lat="-12.0860530" lon="-76.8919270">
        <ele>369.7</ele>
        <time>2021-05-30T19:20:03Z</time>
      </trkpt>
      <trkpt lat="-12.0860150" lon="-76.8920100">
        <ele>369.4</ele>
        <time>2021-05-30T19:20:05Z</time>
      </trkpt>
      <trkpt lat="-12.0859740" lon="-76.8920470">
        <ele>369.2</ele>
        <time>2021-05-30T19:20:06Z</time>
      </trkpt>
      <trkpt lat="-12.0859020" lon="-76.8921250">
        <ele>369.0</ele>
        <time>2021-05-30T19:20:08Z</time>
      </trkpt>
      <trkpt lat="-12.0858210" lon="-76.8921450">
        <ele>369.1</ele>
        <time>2021-05-30T19:20:10Z</time>
      </trkpt>
      <trkpt lat="-12.0857750" lon="-76.8920930">
        <ele>369.3</ele>
        <time>2021-05-30T19:20:12Z</time>
      </trkpt>
      <trkpt lat="-12.0857510" lon="-76.8920720">
        <ele>369.4</ele>
        <time>2021-05-30T19:20:13Z</time>
      </trkpt>
      <trkpt lat="-12.0856970" lon="-76.8920650">
        <ele>369.6</ele>
        <time>2021-05-30T19:20:15Z</time>
      </trkpt>
      <trkpt lat="-12.0856620" lon="-76.8920570">
        <ele>369.7</ele>
        <time>2021-05-30T19:20:16Z</time>
      </trkpt>
      <trkpt lat="-12.0856280" lon="-76.8920430">
        <ele>369.8</ele>
        <time>2021-05-30T19:20:17Z</time>
      </trkpt>
      <trkpt lat="-12.0855830" lon="-76.8920120">
        <ele>369.8</ele>
        <time>2021-05-30T19:20:19Z</time>
      </trkpt>
      <trkpt lat="-12.0855770" lon="-76.8919880">
        <ele>369.8</ele>
        <time>2021-05-30T19:20:21Z</time>
      </trkpt>
      <trkpt lat="-12.0855700" lon="-76.8919740">
        <ele>369.8</ele>
        <time>2021-05-30T19:20:23Z</time>
      </trkpt>
      <trkpt lat="-12.0855640" lon="-76.8919690">
        <ele>369.8</ele>
        <time>2021-05-30T19:20:24Z</time>
      </trkpt>
      <trkpt lat="-12.0855520" lon="-76.8919770">
        <ele>369.8</ele>
        <time>2021-05-30T19:20:25Z</time>
      </trkpt>
      <trkpt lat="-12.0855430" lon="-76.8919830">
        <ele>369.8</ele>
        <time>2021-05-30T19:20:26Z</time>
      </trkpt>
      <trkpt lat="-12.0855320" lon="-76.8919790">
        <ele>369.8</ele>
        <time>2021-05-30T19:20:28Z</time>
      </trkpt>
      <trkpt lat="-12.0855260" lon="-76.8919740">
        <ele>369.8</ele>
        <time>2021-05-30T19:20:29Z</time>
      </trkpt>
      <trkpt lat="-12.0855210" lon="-76.8919680">
        <ele>369.8</ele>
        <time>2021-05-30T19:20:31Z</time>
      </trkpt>
      <trkpt lat="-12.0855150" lon="-76.8919630">
        <ele>369.7</ele>
        <time>2021-05-30T19:20:33Z</time>
      </trkpt>
      <trkpt lat="-12.0855100" lon="-76.8919570">
        <ele>369.7</ele>
        <time>2021-05-30T19:20:34Z</time>
      </trkpt>
      <trkpt lat="-12.0854960" lon="-76.8919410">
        <ele>369.7</ele>
        <time>2021-05-30T19:20:36Z</time>
      </trkpt>
      <trkpt lat="-12.0854870" lon="-76.8919370">
        <ele>369.7</ele>
        <time>2021-05-30T19:20:37Z</time>
      </trkpt>
      <trkpt lat="-12.0854780" lon="-76.8919320">
        <ele>369.7</ele>
        <time>2021-05-30T19:20:38Z</time>
      </trkpt>
      <trkpt lat="-12.0854440" lon="-76.8919410">
        <ele>369.7</ele>
        <time>2021-05-30T19:20:39Z</time>
      </trkpt>
      <trkpt lat="-12.0854170" lon="-76.8919390">
        <ele>369.7</ele>
        <time>2021-05-30T19:20:41Z</time>
      </trkpt>
      <trkpt lat="-12.0853820" lon="-76.8919470">
        <ele>369.6</ele>
        <time>2021-05-30T19:20:42Z</time>
      </trkpt>
      <trkpt lat="-12.0853360" lon="-76.8919600">
        <ele>369.6</ele>
        <time>2021-05-30T19:20:45Z</time>
      </trkpt>
      <trkpt lat="-12.0852960" lon="-76.8919710">
        <ele>369.6</ele>
        <time>2021-05-30T19:20:47Z</time>
      </trkpt>
      <trkpt lat="-12.0852680" lon="-76.8919790">
        <ele>369.6</ele>
        <time>2021-05-30T19:20:48Z</time>
      </trkpt>
      <trkpt lat="-12.0852560" lon="-76.8919820">
        <ele>369.7</ele>
        <time>2021-05-30T19:20:49Z</time>
      </trkpt>
      <trkpt lat="-12.0852240" lon="-76.8919920">
        <ele>369.7</ele>
        <time>2021-05-30T19:20:50Z</time>
      </trkpt>
      <trkpt lat="-12.0851940" lon="-76.8920090">
        <ele>369.7</ele>
        <time>2021-05-30T19:20:51Z</time>
      </trkpt>
      <trkpt lat="-12.0851520" lon="-76.8920180">
        <ele>369.7</ele>
        <time>2021-05-30T19:20:53Z</time>
      </trkpt>
      <trkpt lat="-12.0851220" lon="-76.8920210">
        <ele>369.7</ele>
        <time>2021-05-30T19:20:54Z</time>
      </trkpt>
      <trkpt lat="-12.0850640" lon="-76.8920250">
        <ele>369.7</ele>
        <time>2021-05-30T19:20:56Z</time>
      </trkpt>
      <trkpt lat="-12.0850080" lon="-76.8920330">
        <ele>369.7</ele>
        <time>2021-05-30T19:20:58Z</time>
      </trkpt>
      <trkpt lat="-12.0849790" lon="-76.8920330">
        <ele>369.7</ele>
        <time>2021-05-30T19:20:59Z</time>
      </trkpt>
      <trkpt lat="-12.0849140" lon="-76.8920250">
        <ele>369.7</ele>
        <time>2021-05-30T19:21:01Z</time>
      </trkpt>
      <trkpt lat="-12.0848560" lon="-76.8920260">
        <ele>369.7</ele>
        <time>2021-05-30T19:21:02Z</time>
      </trkpt>
      <trkpt lat="-12.0848170" lon="-76.8920350">
        <ele>369.7</ele>
        <time>2021-05-30T19:21:03Z</time>
      </trkpt>
      <trkpt lat="-12.0847750" lon="-76.8920370">
        <ele>369.7</ele>
        <time>2021-05-30T19:21:05Z</time>
      </trkpt>
      <trkpt lat="-12.0847230" lon="-76.8920340">
        <ele>369.7</ele>
        <time>2021-05-30T19:21:06Z</time>
      </trkpt>
      <trkpt lat="-12.0846820" lon="-76.8920280">
        <ele>369.7</ele>
        <time>2021-05-30T19:21:07Z</time>
      </trkpt>
      <trkpt lat="-12.0846340" lon="-76.8920260">
        <ele>369.7</ele>
        <time>2021-05-30T19:21:09Z</time>
      </trkpt>
      <trkpt lat="-12.0845990" lon="-76.8920270">
        <ele>369.7</ele>
        <time>2021-05-30T19:21:10Z</time>
      </trkpt>
      <trkpt lat="-12.0845620" lon="-76.8920280">
        <ele>369.7</ele>
        <time>2021-05-30T19:21:11Z</time>
      </trkpt>
      <trkpt lat="-12.0845250" lon="-76.8920270">
        <ele>369.8</ele>
        <time>2021-05-30T19:21:12Z</time>
      </trkpt>
      <trkpt lat="-12.0844510" lon="-76.8920340">
        <ele>369.8</ele>
        <time>2021-05-30T19:21:14Z</time>
      </trkpt>
      <trkpt lat="-12.0844130" lon="-76.8920350">
        <ele>369.8</ele>
        <time>2021-05-30T19:21:15Z</time>
      </trkpt>
      <trkpt lat="-12.0843770" lon="-76.8920350">
        <ele>369.8</ele>
        <time>2021-05-30T19:21:16Z</time>
      </trkpt>
      <trkpt lat="-12.0843400" lon="-76.8920350">
        <ele>369.8</ele>
        <time>2021-05-30T19:21:17Z</time>
      </trkpt>
      <trkpt lat="-12.0842700" lon="-76.8920390">
        <ele>369.9</ele>
        <time>2021-05-30T19:21:19Z</time>
      </trkpt>
      <trkpt lat="-12.0842360" lon="-76.8920390">
        <ele>369.9</ele>
        <time>2021-05-30T19:21:20Z</time>
      </trkpt>
      <trkpt lat="-12.0841810" lon="-76.8920380">
        <ele>369.9</ele>
        <time>2021-05-30T19:21:22Z</time>
      </trkpt>
      <trkpt lat="-12.0841410" lon="-76.8920330">
        <ele>369.9</ele>
        <time>2021-05-30T19:21:23Z</time>
      </trkpt>
      <trkpt lat="-12.0841040" lon="-76.8920270">
        <ele>369.9</ele>
        <time>2021-05-30T19:21:25Z</time>
      </trkpt>
      <trkpt lat="-12.0840790" lon="-76.8920240">
        <ele>369.9</ele>
        <time>2021-05-30T19:21:26Z</time>
      </trkpt>
      <trkpt lat="-12.0840400" lon="-76.8920270">
        <ele>370.0</ele>
        <time>2021-05-30T19:21:28Z</time>
      </trkpt>
      <trkpt lat="-12.0840030" lon="-76.8920300">
        <ele>370.0</ele>
        <time>2021-05-30T19:21:29Z</time>
      </trkpt>
      <trkpt lat="-12.0839650" lon="-76.8920360">
        <ele>370.0</ele>
        <time>2021-05-30T19:21:31Z</time>
      </trkpt>
      <trkpt lat="-12.0839420" lon="-76.8920370">
        <ele>370.0</ele>
        <time>2021-05-30T19:21:32Z</time>
      </trkpt>
      <trkpt lat="-12.0838800" lon="-76.8920330">
        <ele>370.0</ele>
        <time>2021-05-30T19:21:34Z</time>
      </trkpt>
      <trkpt lat="-12.0838130" lon="-76.8920370">
        <ele>370.0</ele>
        <time>2021-05-30T19:21:36Z</time>
      </trkpt>
      <trkpt lat="-12.0837610" lon="-76.8920370">
        <ele>370.1</ele>
        <time>2021-05-30T19:21:37Z</time>
      </trkpt>
      <trkpt lat="-12.0837130" lon="-76.8920310">
        <ele>370.1</ele>
        <time>2021-05-30T19:21:39Z</time>
      </trkpt>
      <trkpt lat="-12.0836520" lon="-76.8920280">
        <ele>370.1</ele>
        <time>2021-05-30T19:21:41Z</time>
      </trkpt>
      <trkpt lat="-12.0835930" lon="-76.8920230">
        <ele>370.1</ele>
        <time>2021-05-30T19:21:43Z</time>
      </trkpt>
      <trkpt lat="-12.0835610" lon="-76.8920230">
        <ele>370.2</ele>
        <time>2021-05-30T19:21:44Z</time>
      </trkpt>
      <trkpt lat="-12.0835130" lon="-76.8920140">
        <ele>370.2</ele>
        <time>2021-05-30T19:21:46Z</time>
      </trkpt>
      <trkpt lat="-12.0834680" lon="-76.8920180">
        <ele>370.2</ele>
        <time>2021-05-30T19:21:47Z</time>
      </trkpt>
      <trkpt lat="-12.0834130" lon="-76.8920160">
        <ele>370.2</ele>
        <time>2021-05-30T19:21:49Z</time>
      </trkpt>
      <trkpt lat="-12.0833610" lon="-76.8920120">
        <ele>370.2</ele>
        <time>2021-05-30T19:21:50Z</time>
      </trkpt>
      <trkpt lat="-12.0833080" lon="-76.8920130">
        <ele>370.2</ele>
        <time>2021-05-30T19:21:52Z</time>
      </trkpt>
      <trkpt lat="-12.0832730" lon="-76.8920110">
        <ele>370.2</ele>
        <time>2021-05-30T19:21:53Z</time>
      </trkpt>
      <trkpt lat="-12.0832010" lon="-76.8920060">
        <ele>370.1</ele>
        <time>2021-05-30T19:21:55Z</time>
      </trkpt>
      <trkpt lat="-12.0831220" lon="-76.8919990">
        <ele>370.1</ele>
        <time>2021-05-30T19:21:57Z</time>
      </trkpt>
      <trkpt lat="-12.0830470" lon="-76.8919890">
        <ele>370.1</ele>
        <time>2021-05-30T19:21:58Z</time>
      </trkpt>
      <trkpt lat="-12.0829660" lon="-76.8919920">
        <ele>370.1</ele>
        <time>2021-05-30T19:22:00Z</time>
      </trkpt>
      <trkpt lat="-12.0829220" lon="-76.8919910">
        <ele>370.1</ele>
        <time>2021-05-30T19:22:01Z</time>
      </trkpt>
      <trkpt lat="-12.0828280" lon="-76.8919940">
        <ele>370.2</ele>
        <time>2021-05-30T19:22:04Z</time>
      </trkpt>
      <trkpt lat="-12.0827840" lon="-76.8919890">
        <ele>370.2</ele>
        <time>2021-05-30T19:22:05Z</time>
      </trkpt>
      <trkpt lat="-12.0827210" lon="-76.8919770">
        <ele>370.2</ele>
        <time>2021-05-30T19:22:06Z</time>
      </trkpt>
      <trkpt lat="-12.0826770" lon="-76.8919700">
        <ele>370.2</ele>
        <time>2021-05-30T19:22:07Z</time>
      </trkpt>
      <trkpt lat="-12.0826200" lon="-76.8919670">
        <ele>370.2</ele>
        <time>2021-05-30T19:22:09Z</time>
      </trkpt>
      <trkpt lat="-12.0825570" lon="-76.8919620">
        <ele>370.2</ele>
        <time>2021-05-30T19:22:10Z</time>
      </trkpt>
      <trkpt lat="-12.0824770" lon="-76.8919630">
        <ele>370.2</ele>
        <time>2021-05-30T19:22:12Z</time>
      </trkpt>
      <trkpt lat="-12.0823990" lon="-76.8919720">
        <ele>370.3</ele>
        <time>2021-05-30T19:22:14Z</time>
      </trkpt>
      <trkpt lat="-12.0823550" lon="-76.8919700">
        <ele>370.3</ele>
        <time>2021-05-30T19:22:15Z</time>
      </trkpt>
      <trkpt lat="-12.0822900" lon="-76.8919600">
        <ele>370.3</ele>
        <time>2021-05-30T19:22:17Z</time>
      </trkpt>
      <trkpt lat="-12.0822600" lon="-76.8919520">
        <ele>370.3</ele>
        <time>2021-05-30T19:22:18Z</time>
      </trkpt>
      <trkpt lat="-12.0822280" lon="-76.8919490">
        <ele>370.3</ele>
        <time>2021-05-30T19:22:19Z</time>
      </trkpt>
      <trkpt lat="-12.0821870" lon="-76.8919550">
        <ele>370.3</ele>
        <time>2021-05-30T19:22:21Z</time>
      </trkpt>
      <trkpt lat="-12.0821730" lon="-76.8919530">
        <ele>370.3</ele>
        <time>2021-05-30T19:22:22Z</time>
      </trkpt>
      <trkpt lat="-12.0821590" lon="-76.8919510">
        <ele>370.3</ele>
        <time>2021-05-30T19:22:23Z</time>
      </trkpt>
      <trkpt lat="-12.0821220" lon="-76.8919460">
        <ele>370.4</ele>
        <time>2021-05-30T19:22:24Z</time>
      </trkpt>
      <trkpt lat="-12.0821050" lon="-76.8919440">
        <ele>370.4</ele>
        <time>2021-05-30T19:22:25Z</time>
      </trkpt>
      <trkpt lat="-12.0820750" lon="-76.8919400">
        <ele>370.4</ele>
        <time>2021-05-30T19:22:26Z</time>
      </trkpt>
      <trkpt lat="-12.0820330" lon="-76.8919320">
        <ele>370.4</ele>
        <time>2021-05-30T19:22:28Z</time>
      </trkpt>
      <trkpt lat="-12.0819950" lon="-76.8919280">
        <ele>370.4</ele>
        <time>2021-05-30T19:22:29Z</time>
      </trkpt>
      <trkpt lat="-12.0819570" lon="-76.8919240">
        <ele>370.4</ele>
        <time>2021-05-30T19:22:30Z</time>
      </trkpt>
      <trkpt lat="-12.0819060" lon="-76.8919200">
        <ele>370.4</ele>
        <time>2021-05-30T19:22:32Z</time>
      </trkpt>
      <trkpt lat="-12.0818600" lon="-76.8919170">
        <ele>370.4</ele>
        <time>2021-05-30T19:22:33Z</time>
      </trkpt>
      <trkpt lat="-12.0818080" lon="-76.8919190">
        <ele>370.4</ele>
        <time>2021-05-30T19:22:35Z</time>
      </trkpt>
      <trkpt lat="-12.0817750" lon="-76.8919190">
        <ele>370.4</ele>
        <time>2021-05-30T19:22:36Z</time>
      </trkpt>
      <trkpt lat="-12.0817190" lon="-76.8919230">
        <ele>370.4</ele>
        <time>2021-05-30T19:22:37Z</time>
      </trkpt>
      <trkpt lat="-12.0816770" lon="-76.8919250">
        <ele>370.4</ele>
        <time>2021-05-30T19:22:39Z</time>
      </trkpt>
      <trkpt lat="-12.0816140" lon="-76.8919190">
        <ele>370.4</ele>
        <time>2021-05-30T19:22:41Z</time>
      </trkpt>
      <trkpt lat="-12.0815820" lon="-76.8919210">
        <ele>370.4</ele>
        <time>2021-05-30T19:22:42Z</time>
      </trkpt>
      <trkpt lat="-12.0815490" lon="-76.8919200">
        <ele>370.4</ele>
        <time>2021-05-30T19:22:43Z</time>
      </trkpt>
      <trkpt lat="-12.0815160" lon="-76.8919190">
        <ele>370.4</ele>
        <time>2021-05-30T19:22:44Z</time>
      </trkpt>
      <trkpt lat="-12.0814830" lon="-76.8919200">
        <ele>370.4</ele>
        <time>2021-05-30T19:22:45Z</time>
      </trkpt>
      <trkpt lat="-12.0814570" lon="-76.8919360">
        <ele>370.4</ele>
        <time>2021-05-30T19:22:46Z</time>
      </trkpt>
      <trkpt lat="-12.0814330" lon="-76.8919670">
        <ele>370.4</ele>
        <time>2021-05-30T19:22:48Z</time>
      </trkpt>
      <trkpt lat="-12.0814160" lon="-76.8920000">
        <ele>370.4</ele>
        <time>2021-05-30T19:22:49Z</time>
      </trkpt>
      <trkpt lat="-12.0813930" lon="-76.8920620">
        <ele>370.0</ele>
        <time>2021-05-30T19:22:50Z</time>
      </trkpt>
      <trkpt lat="-12.0813860" lon="-76.8921040">
        <ele>369.8</ele>
        <time>2021-05-30T19:22:52Z</time>
      </trkpt>
      <trkpt lat="-12.0813850" lon="-76.8921440">
        <ele>369.6</ele>
        <time>2021-05-30T19:22:53Z</time>
      </trkpt>
      <trkpt lat="-12.0813880" lon="-76.8922310">
        <ele>369.2</ele>
        <time>2021-05-30T19:22:55Z</time>
      </trkpt>
      <trkpt lat="-12.0814070" lon="-76.8923260">
        <ele>368.8</ele>
        <time>2021-05-30T19:22:56Z</time>
      </trkpt>
      <trkpt lat="-12.0814200" lon="-76.8924510">
        <ele>368.3</ele>
        <time>2021-05-30T19:22:58Z</time>
      </trkpt>
      <trkpt lat="-12.0814230" lon="-76.8925120">
        <ele>368.1</ele>
        <time>2021-05-30T19:22:59Z</time>
      </trkpt>
      <trkpt lat="-12.0814180" lon="-76.8926330">
        <ele>367.6</ele>
        <time>2021-05-30T19:23:01Z</time>
      </trkpt>
      <trkpt lat="-12.0814120" lon="-76.8926900">
        <ele>367.4</ele>
        <time>2021-05-30T19:23:02Z</time>
      </trkpt>
      <trkpt lat="-12.0814060" lon="-76.8927460">
        <ele>367.2</ele>
        <time>2021-05-30T19:23:03Z</time>
      </trkpt>
      <trkpt lat="-12.0814030" lon="-76.8928690">
        <ele>366.8</ele>
        <time>2021-05-30T19:23:05Z</time>
      </trkpt>
      <trkpt lat="-12.0814200" lon="-76.8930020">
        <ele>366.3</ele>
        <time>2021-05-30T19:23:07Z</time>
      </trkpt>
      <trkpt lat="-12.0814340" lon="-76.8931350">
        <ele>365.9</ele>
        <time>2021-05-30T19:23:09Z</time>
      </trkpt>
      <trkpt lat="-12.0814430" lon="-76.8932690">
        <ele>365.4</ele>
        <time>2021-05-30T19:23:11Z</time>
      </trkpt>
      <trkpt lat="-12.0814470" lon="-76.8933380">
        <ele>365.1</ele>
        <time>2021-05-30T19:23:12Z</time>
      </trkpt>
      <trkpt lat="-12.0814410" lon="-76.8934920">
        <ele>364.6</ele>
        <time>2021-05-30T19:23:14Z</time>
      </trkpt>
      <trkpt lat="-12.0814310" lon="-76.8935760">
        <ele>364.3</ele>
        <time>2021-05-30T19:23:15Z</time>
      </trkpt>
      <trkpt lat="-12.0814190" lon="-76.8937230">
        <ele>363.8</ele>
        <time>2021-05-30T19:23:17Z</time>
      </trkpt>
      <trkpt lat="-12.0814140" lon="-76.8938730">
        <ele>363.3</ele>
        <time>2021-05-30T19:23:19Z</time>
      </trkpt>
      <trkpt lat="-12.0814120" lon="-76.8939430">
        <ele>363.0</ele>
        <time>2021-05-30T19:23:20Z</time>
      </trkpt>
      <trkpt lat="-12.0814130" lon="-76.8940120">
        <ele>362.8</ele>
        <time>2021-05-30T19:23:21Z</time>
      </trkpt>
      <trkpt lat="-12.0813820" lon="-76.8941390">
        <ele>362.4</ele>
        <time>2021-05-30T19:23:23Z</time>
      </trkpt>
      <trkpt lat="-12.0813490" lon="-76.8942850">
        <ele>361.9</ele>
        <time>2021-05-30T19:23:25Z</time>
      </trkpt>
      <trkpt lat="-12.0813460" lon="-76.8943680">
        <ele>361.6</ele>
        <time>2021-05-30T19:23:26Z</time>
      </trkpt>
      <trkpt lat="-12.0813400" lon="-76.8945250">
        <ele>361.1</ele>
        <time>2021-05-30T19:23:28Z</time>
      </trkpt>
      <trkpt lat="-12.0813250" lon="-76.8946750">
        <ele>360.6</ele>
        <time>2021-05-30T19:23:30Z</time>
      </trkpt>
      <trkpt lat="-12.0813030" lon="-76.8948250">
        <ele>360.1</ele>
        <time>2021-05-30T19:23:32Z</time>
      </trkpt>
      <trkpt lat="-12.0812890" lon="-76.8949780">
        <ele>359.6</ele>
        <time>2021-05-30T19:23:34Z</time>
      </trkpt>
      <trkpt lat="-12.0812830" lon="-76.8950600">
        <ele>359.3</ele>
        <time>2021-05-30T19:23:35Z</time>
      </trkpt>
      <trkpt lat="-12.0812770" lon="-76.8951400">
        <ele>359.1</ele>
        <time>2021-05-30T19:23:36Z</time>
      </trkpt>
      <trkpt lat="-12.0812610" lon="-76.8953010">
        <ele>358.4</ele>
        <time>2021-05-30T19:23:38Z</time>
      </trkpt>
      <trkpt lat="-12.0812540" lon="-76.8953810">
        <ele>358.1</ele>
        <time>2021-05-30T19:23:39Z</time>
      </trkpt>
      <trkpt lat="-12.0812460" lon="-76.8955450">
        <ele>357.4</ele>
        <time>2021-05-30T19:23:41Z</time>
      </trkpt>
      <trkpt lat="-12.0812290" lon="-76.8957150">
        <ele>356.8</ele>
        <time>2021-05-30T19:23:43Z</time>
      </trkpt>
      <trkpt lat="-12.0812170" lon="-76.8958000">
        <ele>356.5</ele>
        <time>2021-05-30T19:23:44Z</time>
      </trkpt>
      <trkpt lat="-12.0812050" lon="-76.8959680">
        <ele>355.8</ele>
        <time>2021-05-30T19:23:46Z</time>
      </trkpt>
      <trkpt lat="-12.0811870" lon="-76.8961310">
        <ele>355.2</ele>
        <time>2021-05-30T19:23:48Z</time>
      </trkpt>
      <trkpt lat="-12.0811710" lon="-76.8962830">
        <ele>354.6</ele>
        <time>2021-05-30T19:23:50Z</time>
      </trkpt>
      <trkpt lat="-12.0811670" lon="-76.8963610">
        <ele>354.3</ele>
        <time>2021-05-30T19:23:51Z</time>
      </trkpt>
      <trkpt lat="-12.0811640" lon="-76.8965310">
        <ele>353.5</ele>
        <time>2021-05-30T19:23:53Z</time>
      </trkpt>
      <trkpt lat="-12.0811600" lon="-76.8966130">
        <ele>353.2</ele>
        <time>2021-05-30T19:23:54Z</time>
      </trkpt>
      <trkpt lat="-12.0811580" lon="-76.8966980">
        <ele>352.9</ele>
        <time>2021-05-30T19:23:55Z</time>
      </trkpt>
      <trkpt lat="-12.0811550" lon="-76.8968710">
        <ele>352.2</ele>
        <time>2021-05-30T19:23:57Z</time>
      </trkpt>
      <trkpt lat="-12.0811510" lon="-76.8970350">
        <ele>351.5</ele>
        <time>2021-05-30T19:23:59Z</time>
      </trkpt>
      <trkpt lat="-12.0811370" lon="-76.8971980">
        <ele>351.0</ele>
        <time>2021-05-30T19:24:01Z</time>
      </trkpt>
      <trkpt lat="-12.0811340" lon="-76.8972790">
        <ele>350.7</ele>
        <time>2021-05-30T19:24:02Z</time>
      </trkpt>
      <trkpt lat="-12.0811190" lon="-76.8974240">
        <ele>350.2</ele>
        <time>2021-05-30T19:24:04Z</time>
      </trkpt>
      <trkpt lat="-12.0811270" lon="-76.8975570">
        <ele>349.7</ele>
        <time>2021-05-30T19:24:06Z</time>
      </trkpt>
      <trkpt lat="-12.0811320" lon="-76.8976330">
        <ele>349.5</ele>
        <time>2021-05-30T19:24:07Z</time>
      </trkpt>
      <trkpt lat="-12.0811240" lon="-76.8977050">
        <ele>349.2</ele>
        <time>2021-05-30T19:24:08Z</time>
      </trkpt>
      <trkpt lat="-12.0811270" lon="-76.8977730">
        <ele>349.0</ele>
        <time>2021-05-30T19:24:09Z</time>
      </trkpt>
      <trkpt lat="-12.0811320" lon="-76.8979050">
        <ele>348.5</ele>
        <time>2021-05-30T19:24:11Z</time>
      </trkpt>
      <trkpt lat="-12.0811270" lon="-76.8979840">
        <ele>348.3</ele>
        <time>2021-05-30T19:24:12Z</time>
      </trkpt>
      <trkpt lat="-12.0811160" lon="-76.8981440">
        <ele>347.8</ele>
        <time>2021-05-30T19:24:14Z</time>
      </trkpt>
      <trkpt lat="-12.0811090" lon="-76.8982260">
        <ele>347.5</ele>
        <time>2021-05-30T19:24:15Z</time>
      </trkpt>
      <trkpt lat="-12.0810960" lon="-76.8984000">
        <ele>346.9</ele>
        <time>2021-05-30T19:24:17Z</time>
      </trkpt>
      <trkpt lat="-12.0810830" lon="-76.8985650">
        <ele>346.3</ele>
        <time>2021-05-30T19:24:19Z</time>
      </trkpt>
      <trkpt lat="-12.0810860" lon="-76.8986470">
        <ele>346.0</ele>
        <time>2021-05-30T19:24:20Z</time>
      </trkpt>
      <trkpt lat="-12.0810860" lon="-76.8988090">
        <ele>345.4</ele>
        <time>2021-05-30T19:24:22Z</time>
      </trkpt>
      <trkpt lat="-12.0810820" lon="-76.8988920">
        <ele>345.1</ele>
        <time>2021-05-30T19:24:23Z</time>
      </trkpt>
      <trkpt lat="-12.0810720" lon="-76.8990380">
        <ele>344.7</ele>
        <time>2021-05-30T19:24:25Z</time>
      </trkpt>
      <trkpt lat="-12.0810590" lon="-76.8991160">
        <ele>344.5</ele>
        <time>2021-05-30T19:24:26Z</time>
      </trkpt>
      <trkpt lat="-12.0810490" lon="-76.8991960">
        <ele>344.3</ele>
        <time>2021-05-30T19:24:27Z</time>
      </trkpt>
      <trkpt lat="-12.0810430" lon="-76.8993650">
        <ele>343.9</ele>
        <time>2021-05-30T19:24:29Z</time>
      </trkpt>
      <trkpt lat="-12.0810550" lon="-76.8995120">
        <ele>343.6</ele>
        <time>2021-05-30T19:24:31Z</time>
      </trkpt>
      <trkpt lat="-12.0810680" lon="-76.8995840">
        <ele>343.5</ele>
        <time>2021-05-30T19:24:32Z</time>
      </trkpt>
      <trkpt lat="-12.0810780" lon="-76.8997180">
        <ele>343.5</ele>
        <time>2021-05-30T19:24:34Z</time>
      </trkpt>
      <trkpt lat="-12.0810740" lon="-76.8997820">
        <ele>343.5</ele>
        <time>2021-05-30T19:24:35Z</time>
      </trkpt>
      <trkpt lat="-12.0810580" lon="-76.8998440">
        <ele>343.5</ele>
        <time>2021-05-30T19:24:36Z</time>
      </trkpt>
      <trkpt lat="-12.0810120" lon="-76.8999710">
        <ele>343.5</ele>
        <time>2021-05-30T19:24:38Z</time>
      </trkpt>
      <trkpt lat="-12.0809810" lon="-76.9001090">
        <ele>343.6</ele>
        <time>2021-05-30T19:24:40Z</time>
      </trkpt>
      <trkpt lat="-12.0809700" lon="-76.9001730">
        <ele>343.6</ele>
        <time>2021-05-30T19:24:41Z</time>
      </trkpt>
      <trkpt lat="-12.0809720" lon="-76.9003130">
        <ele>343.7</ele>
        <time>2021-05-30T19:24:43Z</time>
      </trkpt>
      <trkpt lat="-12.0809720" lon="-76.9003800">
        <ele>343.8</ele>
        <time>2021-05-30T19:24:44Z</time>
      </trkpt>
      <trkpt lat="-12.0809770" lon="-76.9004530">
        <ele>343.8</ele>
        <time>2021-05-30T19:24:45Z</time>
      </trkpt>
      <trkpt lat="-12.0809930" lon="-76.9005800">
        <ele>343.7</ele>
        <time>2021-05-30T19:24:47Z</time>
      </trkpt>
      <trkpt lat="-12.0810060" lon="-76.9006440">
        <ele>343.6</ele>
        <time>2021-05-30T19:24:48Z</time>
      </trkpt>
      <trkpt lat="-12.0810170" lon="-76.9007100">
        <ele>343.4</ele>
        <time>2021-05-30T19:24:49Z</time>
      </trkpt>
      <trkpt lat="-12.0810370" lon="-76.9008410">
        <ele>342.9</ele>
        <time>2021-05-30T19:24:51Z</time>
      </trkpt>
      <trkpt lat="-12.0810480" lon="-76.9009110">
        <ele>342.6</ele>
        <time>2021-05-30T19:24:52Z</time>
      </trkpt>
      <trkpt lat="-12.0810590" lon="-76.9009820">
        <ele>342.3</ele>
        <time>2021-05-30T19:24:53Z</time>
      </trkpt>
      <trkpt lat="-12.0810740" lon="-76.9011180">
        <ele>341.8</ele>
        <time>2021-05-30T19:24:55Z</time>
      </trkpt>
      <trkpt lat="-12.0810790" lon="-76.9012630">
        <ele>341.2</ele>
        <time>2021-05-30T19:24:57Z</time>
      </trkpt>
      <trkpt lat="-12.0810800" lon="-76.9013350">
        <ele>341.0</ele>
        <time>2021-05-30T19:24:58Z</time>
      </trkpt>
      <trkpt lat="-12.0811000" lon="-76.9014830">
        <ele>340.4</ele>
        <time>2021-05-30T19:25:00Z</time>
      </trkpt>
      <trkpt lat="-12.0811090" lon="-76.9016410">
        <ele>339.8</ele>
        <time>2021-05-30T19:25:02Z</time>
      </trkpt>
      <trkpt lat="-12.0811140" lon="-76.9017190">
        <ele>339.5</ele>
        <time>2021-05-30T19:25:03Z</time>
      </trkpt>
      <trkpt lat="-12.0811130" lon="-76.9017980">
        <ele>339.2</ele>
        <time>2021-05-30T19:25:04Z</time>
      </trkpt>
      <trkpt lat="-12.0811150" lon="-76.9019580">
        <ele>338.7</ele>
        <time>2021-05-30T19:25:06Z</time>
      </trkpt>
      <trkpt lat="-12.0811330" lon="-76.9021270">
        <ele>338.1</ele>
        <time>2021-05-30T19:25:08Z</time>
      </trkpt>
      <trkpt lat="-12.0811450" lon="-76.9022130">
        <ele>337.8</ele>
        <time>2021-05-30T19:25:09Z</time>
      </trkpt>
      <trkpt lat="-12.0811440" lon="-76.9023800">
        <ele>337.2</ele>
        <time>2021-05-30T19:25:11Z</time>
      </trkpt>
      <trkpt lat="-12.0811390" lon="-76.9025300">
        <ele>336.6</ele>
        <time>2021-05-30T19:25:13Z</time>
      </trkpt>
      <trkpt lat="-12.0811420" lon="-76.9026860">
        <ele>335.8</ele>
        <time>2021-05-30T19:25:15Z</time>
      </trkpt>
      <trkpt lat="-12.0811390" lon="-76.9027690">
        <ele>335.4</ele>
        <time>2021-05-30T19:25:16Z</time>
      </trkpt>
      <trkpt lat="-12.0811430" lon="-76.9029230">
        <ele>334.7</ele>
        <time>2021-05-30T19:25:18Z</time>
      </trkpt>
      <trkpt lat="-12.0811420" lon="-76.9030790">
        <ele>333.8</ele>
        <time>2021-05-30T19:25:20Z</time>
      </trkpt>
      <trkpt lat="-12.0811160" lon="-76.9032260">
        <ele>333.0</ele>
        <time>2021-05-30T19:25:22Z</time>
      </trkpt>
      <trkpt lat="-12.0811190" lon="-76.9033760">
        <ele>332.3</ele>
        <time>2021-05-30T19:25:24Z</time>
      </trkpt>
      <trkpt lat="-12.0811200" lon="-76.9034600">
        <ele>331.8</ele>
        <time>2021-05-30T19:25:25Z</time>
      </trkpt>
      <trkpt lat="-12.0811230" lon="-76.9035440">
        <ele>331.4</ele>
        <time>2021-05-30T19:25:26Z</time>
      </trkpt>
      <trkpt lat="-12.0811190" lon="-76.9036970">
        <ele>330.6</ele>
        <time>2021-05-30T19:25:28Z</time>
      </trkpt>
      <trkpt lat="-12.0811410" lon="-76.9038690">
        <ele>329.8</ele>
        <time>2021-05-30T19:25:30Z</time>
      </trkpt>
      <trkpt lat="-12.0811460" lon="-76.9039550">
        <ele>329.4</ele>
        <time>2021-05-30T19:25:31Z</time>
      </trkpt>
      <trkpt lat="-12.0811790" lon="-76.9041330">
        <ele>328.6</ele>
        <time>2021-05-30T19:25:33Z</time>
      </trkpt>
      <trkpt lat="-12.0812020" lon="-76.9043130">
        <ele>327.8</ele>
        <time>2021-05-30T19:25:35Z</time>
      </trkpt>
      <trkpt lat="-12.0812060" lon="-76.9044890">
        <ele>327.0</ele>
        <time>2021-05-30T19:25:37Z</time>
      </trkpt>
      <trkpt lat="-12.0812110" lon="-76.9045740">
        <ele>326.7</ele>
        <time>2021-05-30T19:25:38Z</time>
      </trkpt>
      <trkpt lat="-12.0811890" lon="-76.9047480">
        <ele>325.9</ele>
        <time>2021-05-30T19:25:40Z</time>
      </trkpt>
      <trkpt lat="-12.0811620" lon="-76.9048340">
        <ele>325.5</ele>
        <time>2021-05-30T19:25:41Z</time>
      </trkpt>
      <trkpt lat="-12.0811150" lon="-76.9049870">
        <ele>325.0</ele>
        <time>2021-05-30T19:25:43Z</time>
      </trkpt>
      <trkpt lat="-12.0810790" lon="-76.9050580">
        <ele>324.7</ele>
        <time>2021-05-30T19:25:44Z</time>
      </trkpt>
      <trkpt lat="-12.0810230" lon="-76.9052040">
        <ele>324.1</ele>
        <time>2021-05-30T19:25:46Z</time>
      </trkpt>
      <trkpt lat="-12.0809970" lon="-76.9053610">
        <ele>323.6</ele>
        <time>2021-05-30T19:25:48Z</time>
      </trkpt>
      <trkpt lat="-12.0809970" lon="-76.9054430">
        <ele>323.4</ele>
        <time>2021-05-30T19:25:49Z</time>
      </trkpt>
      <trkpt lat="-12.0809960" lon="-76.9055200">
        <ele>323.1</ele>
        <time>2021-05-30T19:25:50Z</time>
      </trkpt>
      <trkpt lat="-12.0809990" lon="-76.9055910">
        <ele>322.8</ele>
        <time>2021-05-30T19:25:51Z</time>
      </trkpt>
      <trkpt lat="-12.0810270" lon="-76.9057380">
        <ele>322.2</ele>
        <time>2021-05-30T19:25:53Z</time>
      </trkpt>
      <trkpt lat="-12.0810420" lon="-76.9058130">
        <ele>321.9</ele>
        <time>2021-05-30T19:25:54Z</time>
      </trkpt>
      <trkpt lat="-12.0810630" lon="-76.9059730">
        <ele>321.3</ele>
        <time>2021-05-30T19:25:56Z</time>
      </trkpt>
      <trkpt lat="-12.0810640" lon="-76.9061190">
        <ele>320.8</ele>
        <time>2021-05-30T19:25:58Z</time>
      </trkpt>
      <trkpt lat="-12.0810620" lon="-76.9062690">
        <ele>320.4</ele>
        <time>2021-05-30T19:26:00Z</time>
      </trkpt>
      <trkpt lat="-12.0811280" lon="-76.9064080">
        <ele>320.0</ele>
        <time>2021-05-30T19:26:02Z</time>
      </trkpt>
      <trkpt lat="-12.0812650" lon="-76.9064900">
        <ele>319.6</ele>
        <time>2021-05-30T19:26:04Z</time>
      </trkpt>
      <trkpt lat="-12.0813400" lon="-76.9065190">
        <ele>319.4</ele>
        <time>2021-05-30T19:26:05Z</time>
      </trkpt>
      <trkpt lat="-12.0814730" lon="-76.9065960">
        <ele>319.0</ele>
        <time>2021-05-30T19:26:07Z</time>
      </trkpt>
      <trkpt lat="-12.0815340" lon="-76.9066480">
        <ele>318.8</ele>
        <time>2021-05-30T19:26:08Z</time>
      </trkpt>
      <trkpt lat="-12.0815870" lon="-76.9067050">
        <ele>318.6</ele>
        <time>2021-05-30T19:26:09Z</time>
      </trkpt>
      <trkpt lat="-12.0816560" lon="-76.9068460">
        <ele>318.1</ele>
        <time>2021-05-30T19:26:11Z</time>
      </trkpt>
      <trkpt lat="-12.0816890" lon="-76.9069790">
        <ele>317.7</ele>
        <time>2021-05-30T19:26:13Z</time>
      </trkpt>
      <trkpt lat="-12.0817020" lon="-76.9071410">
        <ele>317.2</ele>
        <time>2021-05-30T19:26:15Z</time>
      </trkpt>
      <trkpt lat="-12.0816950" lon="-76.9072870">
        <ele>316.7</ele>
        <time>2021-05-30T19:26:17Z</time>
      </trkpt>
      <trkpt lat="-12.0816830" lon="-76.9074330">
        <ele>316.1</ele>
        <time>2021-05-30T19:26:19Z</time>
      </trkpt>
      <trkpt lat="-12.0816640" lon="-76.9075660">
        <ele>315.6</ele>
        <time>2021-05-30T19:26:21Z</time>
      </trkpt>
      <trkpt lat="-12.0816630" lon="-76.9076330">
        <ele>315.4</ele>
        <time>2021-05-30T19:26:22Z</time>
      </trkpt>
      <trkpt lat="-12.0816610" lon="-76.9077770">
        <ele>314.8</ele>
        <time>2021-05-30T19:26:24Z</time>
      </trkpt>
      <trkpt lat="-12.0816800" lon="-76.9079120">
        <ele>314.3</ele>
        <time>2021-05-30T19:26:26Z</time>
      </trkpt>
      <trkpt lat="-12.0816930" lon="-76.9079770">
        <ele>314.1</ele>
        <time>2021-05-30T19:26:27Z</time>
      </trkpt>
      <trkpt lat="-12.0817070" lon="-76.9081080">
        <ele>313.6</ele>
        <time>2021-05-30T19:26:29Z</time>
      </trkpt>
      <trkpt lat="-12.0817200" lon="-76.9082430">
        <ele>313.2</ele>
        <time>2021-05-30T19:26:31Z</time>
      </trkpt>
      <trkpt lat="-12.0817270" lon="-76.9083140">
        <ele>313.0</ele>
        <time>2021-05-30T19:26:32Z</time>
      </trkpt>
      <trkpt lat="-12.0817320" lon="-76.9083920">
        <ele>312.8</ele>
        <time>2021-05-30T19:26:33Z</time>
      </trkpt>
      <trkpt lat="-12.0817380" lon="-76.9085350">
        <ele>312.3</ele>
        <time>2021-05-30T19:26:35Z</time>
      </trkpt>
      <trkpt lat="-12.0817570" lon="-76.9086900">
        <ele>312.0</ele>
        <time>2021-05-30T19:26:37Z</time>
      </trkpt>
      <trkpt lat="-12.0817820" lon="-76.9087640">
        <ele>311.7</ele>
        <time>2021-05-30T19:26:38Z</time>
      </trkpt>
      <trkpt lat="-12.0818020" lon="-76.9088390">
        <ele>311.4</ele>
        <time>2021-05-30T19:26:39Z</time>
      </trkpt>
      <trkpt lat="-12.0818180" lon="-76.9089160">
        <ele>311.1</ele>
        <time>2021-05-30T19:26:40Z</time>
      </trkpt>
      <trkpt lat="-12.0818330" lon="-76.9090440">
        <ele>310.7</ele>
        <time>2021-05-30T19:26:42Z</time>
      </trkpt>
      <trkpt lat="-12.0818340" lon="-76.9091120">
        <ele>310.5</ele>
        <time>2021-05-30T19:26:43Z</time>
      </trkpt>
      <trkpt lat="-12.0818400" lon="-76.9091780">
        <ele>310.2</ele>
        <time>2021-05-30T19:26:44Z</time>
      </trkpt>
      <trkpt lat="-12.0818520" lon="-76.9093170">
        <ele>309.8</ele>
        <time>2021-05-30T19:26:46Z</time>
      </trkpt>
      <trkpt lat="-12.0818510" lon="-76.9093820">
        <ele>309.5</ele>
        <time>2021-05-30T19:26:47Z</time>
      </trkpt>
      <trkpt lat="-12.0818490" lon="-76.9095220">
        <ele>309.1</ele>
        <time>2021-05-30T19:26:49Z</time>
      </trkpt>
      <trkpt lat="-12.0818490" lon="-76.9095920">
        <ele>308.9</ele>
        <time>2021-05-30T19:26:50Z</time>
      </trkpt>
      <trkpt lat="-12.0818610" lon="-76.9097200">
        <ele>308.5</ele>
        <time>2021-05-30T19:26:52Z</time>
      </trkpt>
      <trkpt lat="-12.0818670" lon="-76.9097860">
        <ele>308.2</ele>
        <time>2021-05-30T19:26:53Z</time>
      </trkpt>
      <trkpt lat="-12.0818690" lon="-76.9099140">
        <ele>307.8</ele>
        <time>2021-05-30T19:26:55Z</time>
      </trkpt>
      <trkpt lat="-12.0818660" lon="-76.9099780">
        <ele>307.6</ele>
        <time>2021-05-30T19:26:56Z</time>
      </trkpt>
      <trkpt lat="-12.0818660" lon="-76.9100410">
        <ele>307.3</ele>
        <time>2021-05-30T19:26:57Z</time>
      </trkpt>
      <trkpt lat="-12.0818670" lon="-76.9101790">
        <ele>306.8</ele>
        <time>2021-05-30T19:26:59Z</time>
      </trkpt>
      <trkpt lat="-12.0818660" lon="-76.9102520">
        <ele>306.6</ele>
        <time>2021-05-30T19:27:00Z</time>
      </trkpt>
      <trkpt lat="-12.0818900" lon="-76.9103910">
        <ele>306.0</ele>
        <time>2021-05-30T19:27:02Z</time>
      </trkpt>
      <trkpt lat="-12.0819320" lon="-76.9105490">
        <ele>305.5</ele>
        <time>2021-05-30T19:27:04Z</time>
      </trkpt>
      <trkpt lat="-12.0819500" lon="-76.9106290">
        <ele>305.2</ele>
        <time>2021-05-30T19:27:05Z</time>
      </trkpt>
      <trkpt lat="-12.0819590" lon="-76.9107100">
        <ele>305.0</ele>
        <time>2021-05-30T19:27:06Z</time>
      </trkpt>
      <trkpt lat="-12.0819650" lon="-76.9108600">
        <ele>304.6</ele>
        <time>2021-05-30T19:27:08Z</time>
      </trkpt>
      <trkpt lat="-12.0819670" lon="-76.9109330">
        <ele>304.5</ele>
        <time>2021-05-30T19:27:09Z</time>
      </trkpt>
      <trkpt lat="-12.0819800" lon="-76.9110790">
        <ele>304.1</ele>
        <time>2021-05-30T19:27:11Z</time>
      </trkpt>
      <trkpt lat="-12.0819900" lon="-76.9112220">
        <ele>303.6</ele>
        <time>2021-05-30T19:27:13Z</time>
      </trkpt>
      <trkpt lat="-12.0819900" lon="-76.9112920">
        <ele>303.3</ele>
        <time>2021-05-30T19:27:14Z</time>
      </trkpt>
      <trkpt lat="-12.0819910" lon="-76.9114390">
        <ele>302.9</ele>
        <time>2021-05-30T19:27:16Z</time>
      </trkpt>
      <trkpt lat="-12.0820000" lon="-76.9115090">
        <ele>302.6</ele>
        <time>2021-05-30T19:27:17Z</time>
      </trkpt>
      <trkpt lat="-12.0819970" lon="-76.9116400">
        <ele>302.3</ele>
        <time>2021-05-30T19:27:19Z</time>
      </trkpt>
      <trkpt lat="-12.0819950" lon="-76.9117010">
        <ele>302.1</ele>
        <time>2021-05-30T19:27:20Z</time>
      </trkpt>
      <trkpt lat="-12.0819860" lon="-76.9118300">
        <ele>301.7</ele>
        <time>2021-05-30T19:27:22Z</time>
      </trkpt>
      <trkpt lat="-12.0819960" lon="-76.9119660">
        <ele>301.3</ele>
        <time>2021-05-30T19:27:24Z</time>
      </trkpt>
      <trkpt lat="-12.0820080" lon="-76.9120340">
        <ele>301.1</ele>
        <time>2021-05-30T19:27:25Z</time>
      </trkpt>
      <trkpt lat="-12.0820200" lon="-76.9121710">
        <ele>300.6</ele>
        <time>2021-05-30T19:27:27Z</time>
      </trkpt>
      <trkpt lat="-12.0820270" lon="-76.9122400">
        <ele>300.5</ele>
        <time>2021-05-30T19:27:28Z</time>
      </trkpt>
      <trkpt lat="-12.0820380" lon="-76.9123690">
        <ele>300.1</ele>
        <time>2021-05-30T19:27:30Z</time>
      </trkpt>
      <trkpt lat="-12.0820400" lon="-76.9125040">
        <ele>299.8</ele>
        <time>2021-05-30T19:27:32Z</time>
      </trkpt>
      <trkpt lat="-12.0820450" lon="-76.9125720">
        <ele>299.6</ele>
        <time>2021-05-30T19:27:33Z</time>
      </trkpt>
      <trkpt lat="-12.0820650" lon="-76.9127010">
        <ele>299.2</ele>
        <time>2021-05-30T19:27:35Z</time>
      </trkpt>
      <trkpt lat="-12.0820680" lon="-76.9127720">
        <ele>299.0</ele>
        <time>2021-05-30T19:27:36Z</time>
      </trkpt>
      <trkpt lat="-12.0820710" lon="-76.9128390">
        <ele>298.9</ele>
        <time>2021-05-30T19:27:37Z</time>
      </trkpt>
      <trkpt lat="-12.0820750" lon="-76.9129600">
        <ele>298.6</ele>
        <time>2021-05-30T19:27:39Z</time>
      </trkpt>
      <trkpt lat="-12.0820790" lon="-76.9130220">
        <ele>298.4</ele>
        <time>2021-05-30T19:27:40Z</time>
      </trkpt>
      <trkpt lat="-12.0820810" lon="-76.9131510">
        <ele>298.1</ele>
        <time>2021-05-30T19:27:42Z</time>
      </trkpt>
      <trkpt lat="-12.0820760" lon="-76.9132850">
        <ele>297.8</ele>
        <time>2021-05-30T19:27:44Z</time>
      </trkpt>
      <trkpt lat="-12.0820940" lon="-76.9134060">
        <ele>297.6</ele>
        <time>2021-05-30T19:27:46Z</time>
      </trkpt>
      <trkpt lat="-12.0821120" lon="-76.9134650">
        <ele>297.5</ele>
        <time>2021-05-30T19:27:47Z</time>
      </trkpt>
      <trkpt lat="-12.0821430" lon="-76.9135180">
        <ele>297.4</ele>
        <time>2021-05-30T19:27:48Z</time>
      </trkpt>
      <trkpt lat="-12.0822450" lon="-76.9136010">
        <ele>297.1</ele>
        <time>2021-05-30T19:27:50Z</time>
      </trkpt>
      <trkpt lat="-12.0823700" lon="-76.9136500">
        <ele>296.8</ele>
        <time>2021-05-30T19:27:52Z</time>
      </trkpt>
      <trkpt lat="-12.0824960" lon="-76.9136860">
        <ele>296.6</ele>
        <time>2021-05-30T19:27:54Z</time>
      </trkpt>
      <trkpt lat="-12.0825590" lon="-76.9137020">
        <ele>296.5</ele>
        <time>2021-05-30T19:27:55Z</time>
      </trkpt>
      <trkpt lat="-12.0826750" lon="-76.9137350">
        <ele>296.3</ele>
        <time>2021-05-30T19:27:57Z</time>
      </trkpt>
      <trkpt lat="-12.0827330" lon="-76.9137510">
        <ele>296.2</ele>
        <time>2021-05-30T19:27:58Z</time>
      </trkpt>
      <trkpt lat="-12.0827850" lon="-76.9137660">
        <ele>296.2</ele>
        <time>2021-05-30T19:27:59Z</time>
      </trkpt>
      <trkpt lat="-12.0828660" lon="-76.9137940">
        <ele>296.2</ele>
        <time>2021-05-30T19:28:01Z</time>
      </trkpt>
      <trkpt lat="-12.0829020" lon="-76.9138580">
        <ele>296.1</ele>
        <time>2021-05-30T19:28:03Z</time>
      </trkpt>
      <trkpt lat="-12.0828730" lon="-76.9139450">
        <ele>295.9</ele>
        <time>2021-05-30T19:28:05Z</time>
      </trkpt>
      <trkpt lat="-12.0828400" lon="-76.9139950">
        <ele>295.8</ele>
        <time>2021-05-30T19:28:06Z</time>
      </trkpt>
      <trkpt lat="-12.0827680" lon="-76.9141040">
        <ele>295.5</ele>
        <time>2021-05-30T19:28:08Z</time>
      </trkpt>
      <trkpt lat="-12.0826840" lon="-76.9142200">
        <ele>295.2</ele>
        <time>2021-05-30T19:28:10Z</time>
      </trkpt>
      <trkpt lat="-12.0826350" lon="-76.9142680">
        <ele>295.0</ele>
        <time>2021-05-30T19:28:11Z</time>
      </trkpt>
      <trkpt lat="-12.0825250" lon="-76.9143300">
        <ele>294.8</ele>
        <time>2021-05-30T19:28:13Z</time>
      </trkpt>
      <trkpt lat="-12.0824610" lon="-76.9143510">
        <ele>294.7</ele>
        <time>2021-05-30T19:28:14Z</time>
      </trkpt>
      <trkpt lat="-12.0823430" lon="-76.9143970">
        <ele>294.5</ele>
        <time>2021-05-30T19:28:16Z</time>
      </trkpt>
      <trkpt lat="-12.0822290" lon="-76.9144430">
        <ele>294.3</ele>
        <time>2021-05-30T19:28:18Z</time>
      </trkpt>
      <trkpt lat="-12.0821690" lon="-76.9144680">
        <ele>294.2</ele>
        <time>2021-05-30T19:28:19Z</time>
      </trkpt>
      <trkpt lat="-12.0820480" lon="-76.9145200">
        <ele>294.0</ele>
        <time>2021-05-30T19:28:21Z</time>
      </trkpt>
      <trkpt lat="-12.0819900" lon="-76.9145450">
        <ele>293.9</ele>
        <time>2021-05-30T19:28:22Z</time>
      </trkpt>
      <trkpt lat="-12.0818720" lon="-76.9145950">
        <ele>293.7</ele>
        <time>2021-05-30T19:28:24Z</time>
      </trkpt>
      <trkpt lat="-12.0818120" lon="-76.9146160">
        <ele>293.6</ele>
        <time>2021-05-30T19:28:25Z</time>
      </trkpt>
      <trkpt lat="-12.0817510" lon="-76.9146380">
        <ele>293.5</ele>
        <time>2021-05-30T19:28:26Z</time>
      </trkpt>
      <trkpt lat="-12.0816360" lon="-76.9146830">
        <ele>293.3</ele>
        <time>2021-05-30T19:28:28Z</time>
      </trkpt>
      <trkpt lat="-12.0815220" lon="-76.9147270">
        <ele>293.1</ele>
        <time>2021-05-30T19:28:30Z</time>
      </trkpt>
      <trkpt lat="-12.0814610" lon="-76.9147480">
        <ele>293.0</ele>
        <time>2021-05-30T19:28:31Z</time>
      </trkpt>
      <trkpt lat="-12.0813990" lon="-76.9147710">
        <ele>292.9</ele>
        <time>2021-05-30T19:28:32Z</time>
      </trkpt>
      <trkpt lat="-12.0812780" lon="-76.9148170">
        <ele>292.7</ele>
        <time>2021-05-30T19:28:34Z</time>
      </trkpt>
      <trkpt lat="-12.0812190" lon="-76.9148390">
        <ele>292.6</ele>
        <time>2021-05-30T19:28:35Z</time>
      </trkpt>
      <trkpt lat="-12.0811630" lon="-76.9148630">
        <ele>292.5</ele>
        <time>2021-05-30T19:28:36Z</time>
      </trkpt>
      <trkpt lat="-12.0811040" lon="-76.9148870">
        <ele>292.4</ele>
        <time>2021-05-30T19:28:37Z</time>
      </trkpt>
      <trkpt lat="-12.0809800" lon="-76.9149320">
        <ele>292.2</ele>
        <time>2021-05-30T19:28:39Z</time>
      </trkpt>
      <trkpt lat="-12.0809210" lon="-76.9149540">
        <ele>292.1</ele>
        <time>2021-05-30T19:28:40Z</time>
      </trkpt>
      <trkpt lat="-12.0808620" lon="-76.9149760">
        <ele>292.1</ele>
        <time>2021-05-30T19:28:41Z</time>
      </trkpt>
      <trkpt lat="-12.0807430" lon="-76.9150220">
        <ele>291.9</ele>
        <time>2021-05-30T19:28:43Z</time>
      </trkpt>
      <trkpt lat="-12.0806810" lon="-76.9150460">
        <ele>291.8</ele>
        <time>2021-05-30T19:28:44Z</time>
      </trkpt>
      <trkpt lat="-12.0805560" lon="-76.9150890">
        <ele>291.6</ele>
        <time>2021-05-30T19:28:46Z</time>
      </trkpt>
      <trkpt lat="-12.0804930" lon="-76.9151160">
        <ele>291.5</ele>
        <time>2021-05-30T19:28:47Z</time>
      </trkpt>
      <trkpt lat="-12.0804290" lon="-76.9151410">
        <ele>291.5</ele>
        <time>2021-05-30T19:28:48Z</time>
      </trkpt>
      <trkpt lat="-12.0803060" lon="-76.9151940">
        <ele>291.3</ele>
        <time>2021-05-30T19:28:50Z</time>
      </trkpt>
      <trkpt lat="-12.0801810" lon="-76.9152520">
        <ele>291.1</ele>
        <time>2021-05-30T19:28:52Z</time>
      </trkpt>
      <trkpt lat="-12.0801160" lon="-76.9152780">
        <ele>291.0</ele>
        <time>2021-05-30T19:28:53Z</time>
      </trkpt>
      <trkpt lat="-12.0799880" lon="-76.9153320">
        <ele>290.8</ele>
        <time>2021-05-30T19:28:55Z</time>
      </trkpt>
      <trkpt lat="-12.0799260" lon="-76.9153600">
        <ele>290.7</ele>
        <time>2021-05-30T19:28:56Z</time>
      </trkpt>
      <trkpt lat="-12.0798010" lon="-76.9154140">
        <ele>290.6</ele>
        <time>2021-05-30T19:28:58Z</time>
      </trkpt>
      <trkpt lat="-12.0796780" lon="-76.9154610">
        <ele>290.4</ele>
        <time>2021-05-30T19:29:00Z</time>
      </trkpt>
      <trkpt lat="-12.0795540" lon="-76.9155030">
        <ele>290.3</ele>
        <time>2021-05-30T19:29:02Z</time>
      </trkpt>
      <trkpt lat="-12.0794910" lon="-76.9155240">
        <ele>290.2</ele>
        <time>2021-05-30T19:29:03Z</time>
      </trkpt>
      <trkpt lat="-12.0794270" lon="-76.9155500">
        <ele>290.2</ele>
        <time>2021-05-30T19:29:04Z</time>
      </trkpt>
      <trkpt lat="-12.0793660" lon="-76.9155770">
        <ele>290.1</ele>
        <time>2021-05-30T19:29:05Z</time>
      </trkpt>
      <trkpt lat="-12.0792450" lon="-76.9156250">
        <ele>290.1</ele>
        <time>2021-05-30T19:29:07Z</time>
      </trkpt>
      <trkpt lat="-12.0791180" lon="-76.9156680">
        <ele>290.1</ele>
        <time>2021-05-30T19:29:09Z</time>
      </trkpt>
      <trkpt lat="-12.0789940" lon="-76.9157200">
        <ele>290.1</ele>
        <time>2021-05-30T19:29:11Z</time>
      </trkpt>
      <trkpt lat="-12.0789320" lon="-76.9157440">
        <ele>290.1</ele>
        <time>2021-05-30T19:29:12Z</time>
      </trkpt>
      <trkpt lat="-12.0788700" lon="-76.9157640">
        <ele>290.1</ele>
        <time>2021-05-30T19:29:13Z</time>
      </trkpt>
      <trkpt lat="-12.0788120" lon="-76.9157850">
        <ele>290.2</ele>
        <time>2021-05-30T19:29:14Z</time>
      </trkpt>
      <trkpt lat="-12.0787080" lon="-76.9158360">
        <ele>290.2</ele>
        <time>2021-05-30T19:29:16Z</time>
      </trkpt>
      <trkpt lat="-12.0786010" lon="-76.9158830">
        <ele>290.1</ele>
        <time>2021-05-30T19:29:18Z</time>
      </trkpt>
      <trkpt lat="-12.0785000" lon="-76.9159220">
        <ele>290.0</ele>
        <time>2021-05-30T19:29:20Z</time>
      </trkpt>
      <trkpt lat="-12.0784440" lon="-76.9159420">
        <ele>290.0</ele>
        <time>2021-05-30T19:29:21Z</time>
      </trkpt>
      <trkpt lat="-12.0783880" lon="-76.9159620">
        <ele>289.9</ele>
        <time>2021-05-30T19:29:22Z</time>
      </trkpt>
      <trkpt lat="-12.0782780" lon="-76.9160030">
        <ele>289.9</ele>
        <time>2021-05-30T19:29:24Z</time>
      </trkpt>
      <trkpt lat="-12.0782260" lon="-76.9160230">
        <ele>289.9</ele>
        <time>2021-05-30T19:29:25Z</time>
      </trkpt>
      <trkpt lat="-12.0781210" lon="-76.9160640">
        <ele>289.8</ele>
        <time>2021-05-30T19:29:27Z</time>
      </trkpt>
      <trkpt lat="-12.0780200" lon="-76.9161090">
        <ele>289.8</ele>
        <time>2021-05-30T19:29:29Z</time>
      </trkpt>
      <trkpt lat="-12.0779690" lon="-76.9161320">
        <ele>289.7</ele>
        <time>2021-05-30T19:29:30Z</time>
      </trkpt>
      <trkpt lat="-12.0779120" lon="-76.9161530">
        <ele>289.7</ele>
        <time>2021-05-30T19:29:31Z</time>
      </trkpt>
      <trkpt lat="-12.0777960" lon="-76.9161880">
        <ele>289.7</ele>
        <time>2021-05-30T19:29:33Z</time>
      </trkpt>
      <trkpt lat="-12.0777400" lon="-76.9162090">
        <ele>289.7</ele>
        <time>2021-05-30T19:29:34Z</time>
      </trkpt>
      <trkpt lat="-12.0776840" lon="-76.9162280">
        <ele>289.7</ele>
        <time>2021-05-30T19:29:35Z</time>
      </trkpt>
      <trkpt lat="-12.0775680" lon="-76.9162590">
        <ele>289.7</ele>
        <time>2021-05-30T19:29:37Z</time>
      </trkpt>
      <trkpt lat="-12.0775110" lon="-76.9162700">
        <ele>289.7</ele>
        <time>2021-05-30T19:29:38Z</time>
      </trkpt>
      <trkpt lat="-12.0774020" lon="-76.9162930">
        <ele>289.8</ele>
        <time>2021-05-30T19:29:40Z</time>
      </trkpt>
      <trkpt lat="-12.0772890" lon="-76.9163260">
        <ele>289.9</ele>
        <time>2021-05-30T19:29:42Z</time>
      </trkpt>
      <trkpt lat="-12.0772300" lon="-76.9163380">
        <ele>290.0</ele>
        <time>2021-05-30T19:29:43Z</time>
      </trkpt>
      <trkpt lat="-12.0771220" lon="-76.9163670">
        <ele>290.2</ele>
        <time>2021-05-30T19:29:45Z</time>
      </trkpt>
      <trkpt lat="-12.0770190" lon="-76.9164090">
        <ele>290.4</ele>
        <time>2021-05-30T19:29:47Z</time>
      </trkpt>
      <trkpt lat="-12.0769400" lon="-76.9164980">
        <ele>290.5</ele>
        <time>2021-05-30T19:29:49Z</time>
      </trkpt>
      <trkpt lat="-12.0769290" lon="-76.9165560">
        <ele>290.5</ele>
        <time>2021-05-30T19:29:50Z</time>
      </trkpt>
      <trkpt lat="-12.0769610" lon="-76.9166630">
        <ele>290.3</ele>
        <time>2021-05-30T19:29:52Z</time>
      </trkpt>
      <trkpt lat="-12.0770060" lon="-76.9167560">
        <ele>290.1</ele>
        <time>2021-05-30T19:29:54Z</time>
      </trkpt>
      <trkpt lat="-12.0770600" lon="-76.9168400">
        <ele>289.9</ele>
        <time>2021-05-30T19:29:56Z</time>
      </trkpt>
      <trkpt lat="-12.0771110" lon="-76.9169320">
        <ele>289.6</ele>
        <time>2021-05-30T19:29:58Z</time>
      </trkpt>
      <trkpt lat="-12.0771400" lon="-76.9169800">
        <ele>289.5</ele>
        <time>2021-05-30T19:29:59Z</time>
      </trkpt>
      <trkpt lat="-12.0771660" lon="-76.9170240">
        <ele>289.4</ele>
        <time>2021-05-30T19:30:00Z</time>
      </trkpt>
      <trkpt lat="-12.0772110" lon="-76.9171190">
        <ele>289.2</ele>
        <time>2021-05-30T19:30:02Z</time>
      </trkpt>
      <trkpt lat="-12.0772550" lon="-76.9172140">
        <ele>289.0</ele>
        <time>2021-05-30T19:30:04Z</time>
      </trkpt>
      <trkpt lat="-12.0772730" lon="-76.9172630">
        <ele>288.9</ele>
        <time>2021-05-30T19:30:05Z</time>
      </trkpt>
      <trkpt lat="-12.0773170" lon="-76.9173530">
        <ele>288.6</ele>
        <time>2021-05-30T19:30:07Z</time>
      </trkpt>
      <trkpt lat="-12.0773700" lon="-76.9174550">
        <ele>288.4</ele>
        <time>2021-05-30T19:30:09Z</time>
      </trkpt>
      <trkpt lat="-12.0773920" lon="-76.9175040">
        <ele>288.2</ele>
        <time>2021-05-30T19:30:10Z</time>
      </trkpt>
      <trkpt lat="-12.0774140" lon="-76.9175560">
        <ele>288.1</ele>
        <time>2021-05-30T19:30:11Z</time>
      </trkpt>
      <trkpt lat="-12.0774350" lon="-76.9176120">
        <ele>288.0</ele>
        <time>2021-05-30T19:30:12Z</time>
      </trkpt>
      <trkpt lat="-12.0774790" lon="-76.9177000">
        <ele>287.7</ele>
        <time>2021-05-30T19:30:14Z</time>
      </trkpt>
      <trkpt lat="-12.0775220" lon="-76.9178060">
        <ele>287.5</ele>
        <time>2021-05-30T19:30:16Z</time>
      </trkpt>
      <trkpt lat="-12.0775600" lon="-76.9178930">
        <ele>287.3</ele>
        <time>2021-05-30T19:30:18Z</time>
      </trkpt>
      <trkpt lat="-12.0775800" lon="-76.9179450">
        <ele>287.2</ele>
        <time>2021-05-30T19:30:19Z</time>
      </trkpt>
      <trkpt lat="-12.0776210" lon="-76.9180520">
        <ele>287.1</ele>
        <time>2021-05-30T19:30:21Z</time>
      </trkpt>
      <trkpt lat="-12.0776790" lon="-76.9181550">
        <ele>286.8</ele>
        <time>2021-05-30T19:30:23Z</time>
      </trkpt>
      <trkpt lat="-12.0777160" lon="-76.9182610">
        <ele>286.5</ele>
        <time>2021-05-30T19:30:25Z</time>
      </trkpt>
      <trkpt lat="-12.0777730" lon="-76.9183730">
        <ele>286.1</ele>
        <time>2021-05-30T19:30:27Z</time>
      </trkpt>
      <trkpt lat="-12.0778390" lon="-76.9184880">
        <ele>285.8</ele>
        <time>2021-05-30T19:30:29Z</time>
      </trkpt>
      <trkpt lat="-12.0779000" lon="-76.9185980">
        <ele>285.5</ele>
        <time>2021-05-30T19:30:31Z</time>
      </trkpt>
      <trkpt lat="-12.0779300" lon="-76.9186510">
        <ele>285.3</ele>
        <time>2021-05-30T19:30:32Z</time>
      </trkpt>
      <trkpt lat="-12.0779900" lon="-76.9187730">
        <ele>285.0</ele>
        <time>2021-05-30T19:30:34Z</time>
      </trkpt>
      <trkpt lat="-12.0780240" lon="-76.9188360">
        <ele>284.9</ele>
        <time>2021-05-30T19:30:35Z</time>
      </trkpt>
      <trkpt lat="-12.0780990" lon="-76.9189610">
        <ele>284.6</ele>
        <time>2021-05-30T19:30:37Z</time>
      </trkpt>
      <trkpt lat="-12.0781360" lon="-76.9190220">
        <ele>284.4</ele>
        <time>2021-05-30T19:30:38Z</time>
      </trkpt>
      <trkpt lat="-12.0782050" lon="-76.9191390">
        <ele>284.2</ele>
        <time>2021-05-30T19:30:40Z</time>
      </trkpt>
      <trkpt lat="-12.0782420" lon="-76.9192010">
        <ele>284.1</ele>
        <time>2021-05-30T19:30:41Z</time>
      </trkpt>
      <trkpt lat="-12.0783070" lon="-76.9193150">
        <ele>283.8</ele>
        <time>2021-05-30T19:30:43Z</time>
      </trkpt>
      <trkpt lat="-12.0783450" lon="-76.9193740">
        <ele>283.7</ele>
        <time>2021-05-30T19:30:44Z</time>
      </trkpt>
      <trkpt lat="-12.0784250" lon="-76.9194990">
        <ele>283.3</ele>
        <time>2021-05-30T19:30:46Z</time>
      </trkpt>
      <trkpt lat="-12.0784650" lon="-76.9195640">
        <ele>282.9</ele>
        <time>2021-05-30T19:30:47Z</time>
      </trkpt>
      <trkpt lat="-12.0784990" lon="-76.9196380">
        <ele>282.8</ele>
        <time>2021-05-30T19:30:48Z</time>
      </trkpt>
      <trkpt lat="-12.0785730" lon="-76.9197780">
        <ele>282.5</ele>
        <time>2021-05-30T19:30:50Z</time>
      </trkpt>
      <trkpt lat="-12.0786360" lon="-76.9199070">
        <ele>282.2</ele>
        <time>2021-05-30T19:30:52Z</time>
      </trkpt>
      <trkpt lat="-12.0786650" lon="-76.9199700">
        <ele>282.1</ele>
        <time>2021-05-30T19:30:53Z</time>
      </trkpt>
      <trkpt lat="-12.0786980" lon="-76.9200360">
        <ele>282.0</ele>
        <time>2021-05-30T19:30:54Z</time>
      </trkpt>
      <trkpt lat="-12.0787770" lon="-76.9201690">
        <ele>281.8</ele>
        <time>2021-05-30T19:30:56Z</time>
      </trkpt>
      <trkpt lat="-12.0788380" lon="-76.9202970">
        <ele>281.8</ele>
        <time>2021-05-30T19:30:58Z</time>
      </trkpt>
      <trkpt lat="-12.0788710" lon="-76.9203550">
        <ele>281.8</ele>
        <time>2021-05-30T19:30:59Z</time>
      </trkpt>
      <trkpt lat="-12.0789000" lon="-76.9204160">
        <ele>281.7</ele>
        <time>2021-05-30T19:31:00Z</time>
      </trkpt>
      <trkpt lat="-12.0789620" lon="-76.9205450">
        <ele>281.7</ele>
        <time>2021-05-30T19:31:02Z</time>
      </trkpt>
      <trkpt lat="-12.0789990" lon="-76.9206060">
        <ele>281.7</ele>
        <time>2021-05-30T19:31:03Z</time>
      </trkpt>
      <trkpt lat="-12.0790700" lon="-76.9207180">
        <ele>281.7</ele>
        <time>2021-05-30T19:31:05Z</time>
      </trkpt>
      <trkpt lat="-12.0791230" lon="-76.9208350">
        <ele>281.7</ele>
        <time>2021-05-30T19:31:07Z</time>
      </trkpt>
      <trkpt lat="-12.0791500" lon="-76.9208860">
        <ele>281.6</ele>
        <time>2021-05-30T19:31:08Z</time>
      </trkpt>
      <trkpt lat="-12.0792110" lon="-76.9209960">
        <ele>281.6</ele>
        <time>2021-05-30T19:31:10Z</time>
      </trkpt>
      <trkpt lat="-12.0792630" lon="-76.9211010">
        <ele>281.5</ele>
        <time>2021-05-30T19:31:12Z</time>
      </trkpt>
      <trkpt lat="-12.0793130" lon="-76.9212100">
        <ele>281.4</ele>
        <time>2021-05-30T19:31:14Z</time>
      </trkpt>
      <trkpt lat="-12.0793430" lon="-76.9212700">
        <ele>281.4</ele>
        <time>2021-05-30T19:31:15Z</time>
      </trkpt>
      <trkpt lat="-12.0793830" lon="-76.9213810">
        <ele>281.2</ele>
        <time>2021-05-30T19:31:17Z</time>
      </trkpt>
      <trkpt lat="-12.0794030" lon="-76.9214380">
        <ele>281.2</ele>
        <time>2021-05-30T19:31:18Z</time>
      </trkpt>
      <trkpt lat="-12.0794520" lon="-76.9215650">
        <ele>280.9</ele>
        <time>2021-05-30T19:31:20Z</time>
      </trkpt>
      <trkpt lat="-12.0795080" lon="-76.9216890">
        <ele>280.6</ele>
        <time>2021-05-30T19:31:22Z</time>
      </trkpt>
      <trkpt lat="-12.0795330" lon="-76.9217540">
        <ele>280.5</ele>
        <time>2021-05-30T19:31:23Z</time>
      </trkpt>
      <trkpt lat="-12.0795570" lon="-76.9218170">
        <ele>280.3</ele>
        <time>2021-05-30T19:31:24Z</time>
      </trkpt>
      <trkpt lat="-12.0796000" lon="-76.9219280">
        <ele>280.0</ele>
        <time>2021-05-30T19:31:26Z</time>
      </trkpt>
      <trkpt lat="-12.0796440" lon="-76.9220540">
        <ele>279.8</ele>
        <time>2021-05-30T19:31:28Z</time>
      </trkpt>
      <trkpt lat="-12.0796950" lon="-76.9221780">
        <ele>279.4</ele>
        <time>2021-05-30T19:31:30Z</time>
      </trkpt>
      <trkpt lat="-12.0797500" lon="-76.9223090">
        <ele>279.1</ele>
        <time>2021-05-30T19:31:32Z</time>
      </trkpt>
      <trkpt lat="-12.0797980" lon="-76.9224350">
        <ele>278.8</ele>
        <time>2021-05-30T19:31:34Z</time>
      </trkpt>
      <trkpt lat="-12.0798230" lon="-76.9224940">
        <ele>278.7</ele>
        <time>2021-05-30T19:31:35Z</time>
      </trkpt>
      <trkpt lat="-12.0798750" lon="-76.9226140">
        <ele>278.5</ele>
        <time>2021-05-30T19:31:37Z</time>
      </trkpt>
      <trkpt lat="-12.0799020" lon="-76.9226740">
        <ele>278.5</ele>
        <time>2021-05-30T19:31:38Z</time>
      </trkpt>
      <trkpt lat="-12.0799490" lon="-76.9227810">
        <ele>278.5</ele>
        <time>2021-05-30T19:31:40Z</time>
      </trkpt>
      <trkpt lat="-12.0799390" lon="-76.9228250">
        <ele>278.6</ele>
        <time>2021-05-30T19:31:41Z</time>
      </trkpt>
      <trkpt lat="-12.0798540" lon="-76.9228660">
        <ele>278.9</ele>
        <time>2021-05-30T19:31:43Z</time>
      </trkpt>
      <trkpt lat="-12.0798040" lon="-76.9228870">
        <ele>279.1</ele>
        <time>2021-05-30T19:31:44Z</time>
      </trkpt>
      <trkpt lat="-12.0797540" lon="-76.9228990">
        <ele>279.2</ele>
        <time>2021-05-30T19:31:45Z</time>
      </trkpt>
      <trkpt lat="-12.0796730" lon="-76.9229220">
        <ele>279.5</ele>
        <time>2021-05-30T19:31:47Z</time>
      </trkpt>
      <trkpt lat="-12.0796340" lon="-76.9229450">
        <ele>279.7</ele>
        <time>2021-05-30T19:31:48Z</time>
      </trkpt>
      <trkpt lat="-12.0796090" lon="-76.9229100">
        <ele>279.9</ele>
        <time>2021-05-30T19:31:49Z</time>
      </trkpt>
      <trkpt lat="-12.0795800" lon="-76.9229220">
        <ele>280.0</ele>
        <time>2021-05-30T19:31:50Z</time>
      </trkpt>
      <trkpt lat="-12.0795500" lon="-76.9229450">
        <ele>280.1</ele>
        <time>2021-05-30T19:31:51Z</time>
      </trkpt>
      <trkpt lat="-12.0795170" lon="-76.9229780">
        <ele>280.2</ele>
        <time>2021-05-30T19:31:53Z</time>
      </trkpt>
      <trkpt lat="-12.0794910" lon="-76.9230140">
        <ele>280.2</ele>
        <time>2021-05-30T19:31:54Z</time>
      </trkpt>
      <trkpt lat="-12.0794690" lon="-76.9230540">
        <ele>280.4</ele>
        <time>2021-05-30T19:31:55Z</time>
      </trkpt>
      <trkpt lat="-12.0794430" lon="-76.9230960">
        <ele>280.7</ele>
        <time>2021-05-30T19:31:56Z</time>
      </trkpt>
      <trkpt lat="-12.0794130" lon="-76.9231420">
        <ele>281.2</ele>
        <time>2021-05-30T19:31:57Z</time>
      </trkpt>
      <trkpt lat="-12.0793910" lon="-76.9231730">
        <ele>281.5</ele>
        <time>2021-05-30T19:31:58Z</time>
      </trkpt>
      <trkpt lat="-12.0793690" lon="-76.9232090">
        <ele>281.8</ele>
        <time>2021-05-30T19:31:59Z</time>
      </trkpt>
      <trkpt lat="-12.0793490" lon="-76.9232460">
        <ele>282.1</ele>
        <time>2021-05-30T19:32:01Z</time>
      </trkpt>
      <trkpt lat="-12.0793300" lon="-76.9232870">
        <ele>282.5</ele>
        <time>2021-05-30T19:32:02Z</time>
      </trkpt>
      <trkpt lat="-12.0793170" lon="-76.9233270">
        <ele>282.8</ele>
        <time>2021-05-30T19:32:03Z</time>
      </trkpt>
      <trkpt lat="-12.0793020" lon="-76.9233690">
        <ele>283.2</ele>
        <time>2021-05-30T19:32:04Z</time>
      </trkpt>
      <trkpt lat="-12.0792890" lon="-76.9234050">
        <ele>283.5</ele>
        <time>2021-05-30T19:32:05Z</time>
      </trkpt>
      <trkpt lat="-12.0792720" lon="-76.9234570">
        <ele>284.0</ele>
        <time>2021-05-30T19:32:06Z</time>
      </trkpt>
      <trkpt lat="-12.0792630" lon="-76.9234880">
        <ele>284.2</ele>
        <time>2021-05-30T19:32:07Z</time>
      </trkpt>
      <trkpt lat="-12.0792510" lon="-76.9235240">
        <ele>284.5</ele>
        <time>2021-05-30T19:32:09Z</time>
      </trkpt>
      <trkpt lat="-12.0792430" lon="-76.9235590">
        <ele>284.8</ele>
        <time>2021-05-30T19:32:10Z</time>
      </trkpt>
      <trkpt lat="-12.0792400" lon="-76.9235940">
        <ele>285.1</ele>
        <time>2021-05-30T19:32:11Z</time>
      </trkpt>
      <trkpt lat="-12.0792410" lon="-76.9236290">
        <ele>285.4</ele>
        <time>2021-05-30T19:32:12Z</time>
      </trkpt>
      <trkpt lat="-12.0792440" lon="-76.9236670">
        <ele>285.6</ele>
        <time>2021-05-30T19:32:13Z</time>
      </trkpt>
      <trkpt lat="-12.0792490" lon="-76.9237280">
        <ele>286.0</ele>
        <time>2021-05-30T19:32:15Z</time>
      </trkpt>
      <trkpt lat="-12.0792600" lon="-76.9237580">
        <ele>286.2</ele>
        <time>2021-05-30T19:32:16Z</time>
      </trkpt>
      <trkpt lat="-12.0792820" lon="-76.9238110">
        <ele>286.5</ele>
        <time>2021-05-30T19:32:18Z</time>
      </trkpt>
      <trkpt lat="-12.0792970" lon="-76.9238400">
        <ele>286.6</ele>
        <time>2021-05-30T19:32:19Z</time>
      </trkpt>
      <trkpt lat="-12.0793150" lon="-76.9238690">
        <ele>286.7</ele>
        <time>2021-05-30T19:32:20Z</time>
      </trkpt>
      <trkpt lat="-12.0793530" lon="-76.9239260">
        <ele>286.9</ele>
        <time>2021-05-30T19:32:22Z</time>
      </trkpt>
      <trkpt lat="-12.0793760" lon="-76.9239590">
        <ele>286.9</ele>
        <time>2021-05-30T19:32:23Z</time>
      </trkpt>
      <trkpt lat="-12.0793980" lon="-76.9240020">
        <ele>287.0</ele>
        <time>2021-05-30T19:32:24Z</time>
      </trkpt>
      <trkpt lat="-12.0794200" lon="-76.9240510">
        <ele>287.0</ele>
        <time>2021-05-30T19:32:26Z</time>
      </trkpt>
      <trkpt lat="-12.0794520" lon="-76.9241230">
        <ele>287.1</ele>
        <time>2021-05-30T19:32:28Z</time>
      </trkpt>
      <trkpt lat="-12.0794740" lon="-76.9241630">
        <ele>287.1</ele>
        <time>2021-05-30T19:32:29Z</time>
      </trkpt>
      <trkpt lat="-12.0795240" lon="-76.9242400">
        <ele>287.2</ele>
        <time>2021-05-30T19:32:31Z</time>
      </trkpt>
      <trkpt lat="-12.0795720" lon="-76.9243200">
        <ele>287.2</ele>
        <time>2021-05-30T19:32:33Z</time>
      </trkpt>
      <trkpt lat="-12.0795980" lon="-76.9243650">
        <ele>287.3</ele>
        <time>2021-05-30T19:32:34Z</time>
      </trkpt>
      <trkpt lat="-12.0796340" lon="-76.9244270">
        <ele>287.3</ele>
        <time>2021-05-30T19:32:35Z</time>
      </trkpt>
      <trkpt lat="-12.0796690" lon="-76.9244850">
        <ele>287.3</ele>
        <time>2021-05-30T19:32:37Z</time>
      </trkpt>
      <trkpt lat="-12.0796940" lon="-76.9245260">
        <ele>287.3</ele>
        <time>2021-05-30T19:32:38Z</time>
      </trkpt>
      <trkpt lat="-12.0797250" lon="-76.9245720">
        <ele>287.4</ele>
        <time>2021-05-30T19:32:39Z</time>
      </trkpt>
      <trkpt lat="-12.0797570" lon="-76.9246250">
        <ele>287.4</ele>
        <time>2021-05-30T19:32:40Z</time>
      </trkpt>
      <trkpt lat="-12.0798090" lon="-76.9246960">
        <ele>287.5</ele>
        <time>2021-05-30T19:32:42Z</time>
      </trkpt>
      <trkpt lat="-12.0798510" lon="-76.9247740">
        <ele>287.5</ele>
        <time>2021-05-30T19:32:44Z</time>
      </trkpt>
      <trkpt lat="-12.0798610" lon="-76.9248190">
        <ele>287.5</ele>
        <time>2021-05-30T19:32:45Z</time>
      </trkpt>
      <trkpt lat="-12.0798750" lon="-76.9248950">
        <ele>287.6</ele>
        <time>2021-05-30T19:32:46Z</time>
      </trkpt>
      <trkpt lat="-12.0798820" lon="-76.9249540">
        <ele>287.6</ele>
        <time>2021-05-30T19:32:48Z</time>
      </trkpt>
      <trkpt lat="-12.0798570" lon="-76.9250200">
        <ele>287.6</ele>
        <time>2021-05-30T19:32:49Z</time>
      </trkpt>
      <trkpt lat="-12.0798580" lon="-76.9250730">
        <ele>287.6</ele>
        <time>2021-05-30T19:32:50Z</time>
      </trkpt>
      <trkpt lat="-12.0798610" lon="-76.9251730">
        <ele>287.7</ele>
        <time>2021-05-30T19:32:52Z</time>
      </trkpt>
      <trkpt lat="-12.0798680" lon="-76.9252140">
        <ele>287.7</ele>
        <time>2021-05-30T19:32:53Z</time>
      </trkpt>
      <trkpt lat="-12.0798710" lon="-76.9253140">
        <ele>287.8</ele>
        <time>2021-05-30T19:32:55Z</time>
      </trkpt>
      <trkpt lat="-12.0798700" lon="-76.9253660">
        <ele>287.8</ele>
        <time>2021-05-30T19:32:56Z</time>
      </trkpt>
      <trkpt lat="-12.0798640" lon="-76.9254130">
        <ele>287.8</ele>
        <time>2021-05-30T19:32:57Z</time>
      </trkpt>
      <trkpt lat="-12.0798670" lon="-76.9254540">
        <ele>287.9</ele>
        <time>2021-05-30T19:32:58Z</time>
      </trkpt>
      <trkpt lat="-12.0798360" lon="-76.9255520">
        <ele>288.0</ele>
        <time>2021-05-30T19:33:00Z</time>
      </trkpt>
      <trkpt lat="-12.0797820" lon="-76.9256500">
        <ele>288.1</ele>
        <time>2021-05-30T19:33:02Z</time>
      </trkpt>
      <trkpt lat="-12.0797650" lon="-76.9256930">
        <ele>288.1</ele>
        <time>2021-05-30T19:33:03Z</time>
      </trkpt>
      <trkpt lat="-12.0797340" lon="-76.9257310">
        <ele>288.2</ele>
        <time>2021-05-30T19:33:04Z</time>
      </trkpt>
      <trkpt lat="-12.0796910" lon="-76.9258070">
        <ele>288.2</ele>
        <time>2021-05-30T19:33:06Z</time>
      </trkpt>
      <trkpt lat="-12.0796550" lon="-76.9258490">
        <ele>288.2</ele>
        <time>2021-05-30T19:33:07Z</time>
      </trkpt>
      <trkpt lat="-12.0796200" lon="-76.9258870">
        <ele>288.3</ele>
        <time>2021-05-30T19:33:08Z</time>
      </trkpt>
      <trkpt lat="-12.0795630" lon="-76.9259470">
        <ele>288.3</ele>
        <time>2021-05-30T19:33:10Z</time>
      </trkpt>
      <trkpt lat="-12.0795250" lon="-76.9259880">
        <ele>288.3</ele>
        <time>2021-05-30T19:33:11Z</time>
      </trkpt>
      <trkpt lat="-12.0794920" lon="-76.9260250">
        <ele>288.3</ele>
        <time>2021-05-30T19:33:12Z</time>
      </trkpt>
      <trkpt lat="-12.0794460" lon="-76.9260620">
        <ele>288.3</ele>
        <time>2021-05-30T19:33:14Z</time>
      </trkpt>
      <trkpt lat="-12.0794050" lon="-76.9260770">
        <ele>288.4</ele>
        <time>2021-05-30T19:33:15Z</time>
      </trkpt>
      <trkpt lat="-12.0793320" lon="-76.9260890">
        <ele>288.4</ele>
        <time>2021-05-30T19:33:16Z</time>
      </trkpt>
      <trkpt lat="-12.0792820" lon="-76.9260920">
        <ele>288.5</ele>
        <time>2021-05-30T19:33:18Z</time>
      </trkpt>
      <trkpt lat="-12.0792290" lon="-76.9260980">
        <ele>288.5</ele>
        <time>2021-05-30T19:33:19Z</time>
      </trkpt>
      <trkpt lat="-12.0791430" lon="-76.9261230">
        <ele>288.5</ele>
        <time>2021-05-30T19:33:21Z</time>
      </trkpt>
      <trkpt lat="-12.0791090" lon="-76.9261410">
        <ele>288.6</ele>
        <time>2021-05-30T19:33:22Z</time>
      </trkpt>
      <trkpt lat="-12.0789970" lon="-76.9261650">
        <ele>288.6</ele>
        <time>2021-05-30T19:33:24Z</time>
      </trkpt>
      <trkpt lat="-12.0789510" lon="-76.9261660">
        <ele>288.6</ele>
        <time>2021-05-30T19:33:25Z</time>
      </trkpt>
      <trkpt lat="-12.0789030" lon="-76.9261700">
        <ele>288.5</ele>
        <time>2021-05-30T19:33:26Z</time>
      </trkpt>
      <trkpt lat="-12.0788040" lon="-76.9262100">
        <ele>288.5</ele>
        <time>2021-05-30T19:33:28Z</time>
      </trkpt>
      <trkpt lat="-12.0787620" lon="-76.9262180">
        <ele>288.5</ele>
        <time>2021-05-30T19:33:29Z</time>
      </trkpt>
      <trkpt lat="-12.0786730" lon="-76.9262960">
        <ele>288.5</ele>
        <time>2021-05-30T19:33:31Z</time>
      </trkpt>
      <trkpt lat="-12.0786300" lon="-76.9263310">
        <ele>288.5</ele>
        <time>2021-05-30T19:33:32Z</time>
      </trkpt>
      <trkpt lat="-12.0785870" lon="-76.9263700">
        <ele>288.6</ele>
        <time>2021-05-30T19:33:33Z</time>
      </trkpt>
      <trkpt lat="-12.0785140" lon="-76.9264470">
        <ele>288.6</ele>
        <time>2021-05-30T19:33:35Z</time>
      </trkpt>
      <trkpt lat="-12.0784790" lon="-76.9264870">
        <ele>288.6</ele>
        <time>2021-05-30T19:33:36Z</time>
      </trkpt>
      <trkpt lat="-12.0784430" lon="-76.9265190">
        <ele>288.6</ele>
        <time>2021-05-30T19:33:37Z</time>
      </trkpt>
      <trkpt lat="-12.0783710" lon="-76.9266090">
        <ele>288.6</ele>
        <time>2021-05-30T19:33:39Z</time>
      </trkpt>
      <trkpt lat="-12.0783300" lon="-76.9266360">
        <ele>288.6</ele>
        <time>2021-05-30T19:33:40Z</time>
      </trkpt>
      <trkpt lat="-12.0782950" lon="-76.9266770">
        <ele>288.5</ele>
        <time>2021-05-30T19:33:41Z</time>
      </trkpt>
      <trkpt lat="-12.0782590" lon="-76.9267160">
        <ele>288.5</ele>
        <time>2021-05-30T19:33:42Z</time>
      </trkpt>
      <trkpt lat="-12.0782260" lon="-76.9267550">
        <ele>288.5</ele>
        <time>2021-05-30T19:33:43Z</time>
      </trkpt>
      <trkpt lat="-12.0781580" lon="-76.9268390">
        <ele>288.5</ele>
        <time>2021-05-30T19:33:45Z</time>
      </trkpt>
      <trkpt lat="-12.0780940" lon="-76.9269220">
        <ele>288.5</ele>
        <time>2021-05-30T19:33:47Z</time>
      </trkpt>
      <trkpt lat="-12.0780670" lon="-76.9269630">
        <ele>288.5</ele>
        <time>2021-05-30T19:33:48Z</time>
      </trkpt>
      <trkpt lat="-12.0780230" lon="-76.9270320">
        <ele>288.5</ele>
        <time>2021-05-30T19:33:50Z</time>
      </trkpt>
      <trkpt lat="-12.0779710" lon="-76.9271260">
        <ele>288.5</ele>
        <time>2021-05-30T19:33:52Z</time>
      </trkpt>
      <trkpt lat="-12.0779450" lon="-76.9271790">
        <ele>288.5</ele>
        <time>2021-05-30T19:33:53Z</time>
      </trkpt>
      <trkpt lat="-12.0778830" lon="-76.9272780">
        <ele>288.6</ele>
        <time>2021-05-30T19:33:55Z</time>
      </trkpt>
      <trkpt lat="-12.0778590" lon="-76.9273220">
        <ele>288.6</ele>
        <time>2021-05-30T19:33:56Z</time>
      </trkpt>
      <trkpt lat="-12.0778150" lon="-76.9274030">
        <ele>288.6</ele>
        <time>2021-05-30T19:33:58Z</time>
      </trkpt>
      <trkpt lat="-12.0777900" lon="-76.9274490">
        <ele>288.6</ele>
        <time>2021-05-30T19:33:59Z</time>
      </trkpt>
      <trkpt lat="-12.0777420" lon="-76.9275360">
        <ele>288.6</ele>
        <time>2021-05-30T19:34:01Z</time>
      </trkpt>
      <trkpt lat="-12.0776910" lon="-76.9276180">
        <ele>288.6</ele>
        <time>2021-05-30T19:34:03Z</time>
      </trkpt>
      <trkpt lat="-12.0776480" lon="-76.9277200">
        <ele>288.6</ele>
        <time>2021-05-30T19:34:05Z</time>
      </trkpt>
      <trkpt lat="-12.0776040" lon="-76.9278270">
        <ele>288.7</ele>
        <time>2021-05-30T19:34:07Z</time>
      </trkpt>
      <trkpt lat="-12.0775810" lon="-76.9278800">
        <ele>288.7</ele>
        <time>2021-05-30T19:34:08Z</time>
      </trkpt>
      <trkpt lat="-12.0775610" lon="-76.9279270">
        <ele>288.7</ele>
        <time>2021-05-30T19:34:09Z</time>
      </trkpt>
      <trkpt lat="-12.0775400" lon="-76.9279760">
        <ele>288.7</ele>
        <time>2021-05-30T19:34:10Z</time>
      </trkpt>
      <trkpt lat="-12.0775200" lon="-76.9280260">
        <ele>288.7</ele>
        <time>2021-05-30T19:34:11Z</time>
      </trkpt>
      <trkpt lat="-12.0774820" lon="-76.9281240">
        <ele>288.7</ele>
        <time>2021-05-30T19:34:13Z</time>
      </trkpt>
      <trkpt lat="-12.0774620" lon="-76.9281680">
        <ele>288.7</ele>
        <time>2021-05-30T19:34:14Z</time>
      </trkpt>
      <trkpt lat="-12.0774380" lon="-76.9282660">
        <ele>288.7</ele>
        <time>2021-05-30T19:34:16Z</time>
      </trkpt>
      <trkpt lat="-12.0774090" lon="-76.9283700">
        <ele>288.8</ele>
        <time>2021-05-30T19:34:18Z</time>
      </trkpt>
      <trkpt lat="-12.0773920" lon="-76.9284170">
        <ele>288.8</ele>
        <time>2021-05-30T19:34:19Z</time>
      </trkpt>
      <trkpt lat="-12.0773490" lon="-76.9285090">
        <ele>288.8</ele>
        <time>2021-05-30T19:34:21Z</time>
      </trkpt>
      <trkpt lat="-12.0773090" lon="-76.9285890">
        <ele>288.8</ele>
        <time>2021-05-30T19:34:23Z</time>
      </trkpt>
      <trkpt lat="-12.0772940" lon="-76.9286270">
        <ele>288.8</ele>
        <time>2021-05-30T19:34:24Z</time>
      </trkpt>
      <trkpt lat="-12.0772620" lon="-76.9287060">
        <ele>288.8</ele>
        <time>2021-05-30T19:34:26Z</time>
      </trkpt>
      <trkpt lat="-12.0772510" lon="-76.9287400">
        <ele>288.8</ele>
        <time>2021-05-30T19:34:27Z</time>
      </trkpt>
      <trkpt lat="-12.0772420" lon="-76.9287750">
        <ele>288.8</ele>
        <time>2021-05-30T19:34:28Z</time>
      </trkpt>
      <trkpt lat="-12.0772270" lon="-76.9288670">
        <ele>288.8</ele>
        <time>2021-05-30T19:34:30Z</time>
      </trkpt>
      <trkpt lat="-12.0772200" lon="-76.9289220">
        <ele>288.8</ele>
        <time>2021-05-30T19:34:31Z</time>
      </trkpt>
      <trkpt lat="-12.0772130" lon="-76.9290140">
        <ele>288.8</ele>
        <time>2021-05-30T19:34:33Z</time>
      </trkpt>
      <trkpt lat="-12.0772020" lon="-76.9290660">
        <ele>288.8</ele>
        <time>2021-05-30T19:34:34Z</time>
      </trkpt>
      <trkpt lat="-12.0771930" lon="-76.9291130">
        <ele>288.8</ele>
        <time>2021-05-30T19:34:35Z</time>
      </trkpt>
      <trkpt lat="-12.0771780" lon="-76.9292040">
        <ele>288.8</ele>
        <time>2021-05-30T19:34:37Z</time>
      </trkpt>
      <trkpt lat="-12.0771670" lon="-76.9292510">
        <ele>288.8</ele>
        <time>2021-05-30T19:34:38Z</time>
      </trkpt>
      <trkpt lat="-12.0771620" lon="-76.9293530">
        <ele>288.8</ele>
        <time>2021-05-30T19:34:40Z</time>
      </trkpt>
      <trkpt lat="-12.0771450" lon="-76.9294470">
        <ele>288.8</ele>
        <time>2021-05-30T19:34:42Z</time>
      </trkpt>
      <trkpt lat="-12.0771350" lon="-76.9295170">
        <ele>288.8</ele>
        <time>2021-05-30T19:34:44Z</time>
      </trkpt>
      <trkpt lat="-12.0771300" lon="-76.9295640">
        <ele>288.8</ele>
        <time>2021-05-30T19:34:45Z</time>
      </trkpt>
      <trkpt lat="-12.0771110" lon="-76.9296310">
        <ele>288.8</ele>
        <time>2021-05-30T19:34:46Z</time>
      </trkpt>
      <trkpt lat="-12.0770840" lon="-76.9297200">
        <ele>288.8</ele>
        <time>2021-05-30T19:34:48Z</time>
      </trkpt>
      <trkpt lat="-12.0770550" lon="-76.9298370">
        <ele>288.8</ele>
        <time>2021-05-30T19:34:50Z</time>
      </trkpt>
      <trkpt lat="-12.0770360" lon="-76.9299510">
        <ele>288.7</ele>
        <time>2021-05-30T19:34:52Z</time>
      </trkpt>
      <trkpt lat="-12.0770230" lon="-76.9300780">
        <ele>288.7</ele>
        <time>2021-05-30T19:34:54Z</time>
      </trkpt>
      <trkpt lat="-12.0770190" lon="-76.9301940">
        <ele>288.6</ele>
        <time>2021-05-30T19:34:56Z</time>
      </trkpt>
      <trkpt lat="-12.0770120" lon="-76.9303060">
        <ele>288.6</ele>
        <time>2021-05-30T19:34:58Z</time>
      </trkpt>
      <trkpt lat="-12.0770090" lon="-76.9303550">
        <ele>288.7</ele>
        <time>2021-05-30T19:34:59Z</time>
      </trkpt>
      <trkpt lat="-12.0770060" lon="-76.9304670">
        <ele>288.7</ele>
        <time>2021-05-30T19:35:01Z</time>
      </trkpt>
      <trkpt lat="-12.0770050" lon="-76.9305190">
        <ele>288.7</ele>
        <time>2021-05-30T19:35:02Z</time>
      </trkpt>
      <trkpt lat="-12.0769940" lon="-76.9305730">
        <ele>288.7</ele>
        <time>2021-05-30T19:35:03Z</time>
      </trkpt>
      <trkpt lat="-12.0769880" lon="-76.9306200">
        <ele>288.7</ele>
        <time>2021-05-30T19:35:04Z</time>
      </trkpt>
      <trkpt lat="-12.0769890" lon="-76.9306910">
        <ele>288.7</ele>
        <time>2021-05-30T19:35:06Z</time>
      </trkpt>
      <trkpt lat="-12.0769870" lon="-76.9307480">
        <ele>288.7</ele>
        <time>2021-05-30T19:35:07Z</time>
      </trkpt>
      <trkpt lat="-12.0769860" lon="-76.9308170">
        <ele>288.7</ele>
        <time>2021-05-30T19:35:08Z</time>
      </trkpt>
      <trkpt lat="-12.0769800" lon="-76.9308860">
        <ele>288.7</ele>
        <time>2021-05-30T19:35:09Z</time>
      </trkpt>
      <trkpt lat="-12.0769670" lon="-76.9309430">
        <ele>288.7</ele>
        <time>2021-05-30T19:35:10Z</time>
      </trkpt>
      <trkpt lat="-12.0769140" lon="-76.9310640">
        <ele>288.7</ele>
        <time>2021-05-30T19:35:12Z</time>
      </trkpt>
      <trkpt lat="-12.0768520" lon="-76.9311720">
        <ele>288.7</ele>
        <time>2021-05-30T19:35:14Z</time>
      </trkpt>
      <trkpt lat="-12.0768190" lon="-76.9312240">
        <ele>288.7</ele>
        <time>2021-05-30T19:35:15Z</time>
      </trkpt>
      <trkpt lat="-12.0767730" lon="-76.9313160">
        <ele>288.8</ele>
        <time>2021-05-30T19:35:17Z</time>
      </trkpt>
      <trkpt lat="-12.0767530" lon="-76.9313730">
        <ele>288.8</ele>
        <time>2021-05-30T19:35:18Z</time>
      </trkpt>
      <trkpt lat="-12.0767240" lon="-76.9314450">
        <ele>288.5</ele>
        <time>2021-05-30T19:35:20Z</time>
      </trkpt>
      <trkpt lat="-12.0767410" lon="-76.9315290">
        <ele>288.0</ele>
        <time>2021-05-30T19:35:22Z</time>
      </trkpt>
      <trkpt lat="-12.0767470" lon="-76.9315650">
        <ele>287.8</ele>
        <time>2021-05-30T19:35:23Z</time>
      </trkpt>
      <trkpt lat="-12.0767490" lon="-76.9316000">
        <ele>287.5</ele>
        <time>2021-05-30T19:35:24Z</time>
      </trkpt>
      <trkpt lat="-12.0767530" lon="-76.9316670">
        <ele>287.0</ele>
        <time>2021-05-30T19:35:26Z</time>
      </trkpt>
      <trkpt lat="-12.0767500" lon="-76.9317080">
        <ele>286.6</ele>
        <time>2021-05-30T19:35:28Z</time>
      </trkpt>
      <trkpt lat="-12.0767670" lon="-76.9317670">
        <ele>286.1</ele>
        <time>2021-05-30T19:35:30Z</time>
      </trkpt>
      <trkpt lat="-12.0767690" lon="-76.9318370">
        <ele>285.5</ele>
        <time>2021-05-30T19:35:32Z</time>
      </trkpt>
      <trkpt lat="-12.0767700" lon="-76.9318720">
        <ele>285.2</ele>
        <time>2021-05-30T19:35:33Z</time>
      </trkpt>
      <trkpt lat="-12.0767750" lon="-76.9319510">
        <ele>284.5</ele>
        <time>2021-05-30T19:35:35Z</time>
      </trkpt>
      <trkpt lat="-12.0767790" lon="-76.9320090">
        <ele>283.9</ele>
        <time>2021-05-30T19:35:36Z</time>
      </trkpt>
      <trkpt lat="-12.0767880" lon="-76.9320700">
        <ele>283.4</ele>
        <time>2021-05-30T19:35:37Z</time>
      </trkpt>
      <trkpt lat="-12.0767870" lon="-76.9321760">
        <ele>282.4</ele>
        <time>2021-05-30T19:35:39Z</time>
      </trkpt>
      <trkpt lat="-12.0767900" lon="-76.9322280">
        <ele>281.9</ele>
        <time>2021-05-30T19:35:40Z</time>
      </trkpt>
      <trkpt lat="-12.0767860" lon="-76.9322920">
        <ele>281.3</ele>
        <time>2021-05-30T19:35:41Z</time>
      </trkpt>
      <trkpt lat="-12.0767890" lon="-76.9323660">
        <ele>280.7</ele>
        <time>2021-05-30T19:35:42Z</time>
      </trkpt>
      <trkpt lat="-12.0768030" lon="-76.9325370">
        <ele>279.1</ele>
        <time>2021-05-30T19:35:44Z</time>
      </trkpt>
      <trkpt lat="-12.0768240" lon="-76.9327350">
        <ele>277.3</ele>
        <time>2021-05-30T19:35:46Z</time>
      </trkpt>
      <trkpt lat="-12.0768360" lon="-76.9328430">
        <ele>279.2</ele>
        <time>2021-05-30T19:35:47Z</time>
      </trkpt>
      <trkpt lat="-12.0768460" lon="-76.9329540">
        <ele>277.9</ele>
        <time>2021-05-30T19:35:48Z</time>
      </trkpt>
      <trkpt lat="-12.0768420" lon="-76.9331500">
        <ele>275.8</ele>
        <time>2021-05-30T19:35:50Z</time>
      </trkpt>
      <trkpt lat="-12.0768130" lon="-76.9333310">
        <ele>274.4</ele>
        <time>2021-05-30T19:35:52Z</time>
      </trkpt>
      <trkpt lat="-12.0767500" lon="-76.9334850">
        <ele>273.8</ele>
        <time>2021-05-30T19:35:54Z</time>
      </trkpt>
      <trkpt lat="-12.0766530" lon="-76.9336360">
        <ele>273.5</ele>
        <time>2021-05-30T19:35:56Z</time>
      </trkpt>
      <trkpt lat="-12.0765970" lon="-76.9336960">
        <ele>273.3</ele>
        <time>2021-05-30T19:35:57Z</time>
      </trkpt>
      <trkpt lat="-12.0765100" lon="-76.9338150">
        <ele>272.8</ele>
        <time>2021-05-30T19:35:59Z</time>
      </trkpt>
      <trkpt lat="-12.0764240" lon="-76.9339620">
        <ele>271.6</ele>
        <time>2021-05-30T19:36:01Z</time>
      </trkpt>
      <trkpt lat="-12.0763830" lon="-76.9340470">
        <ele>270.8</ele>
        <time>2021-05-30T19:36:02Z</time>
      </trkpt>
      <trkpt lat="-12.0763400" lon="-76.9341370">
        <ele>269.8</ele>
        <time>2021-05-30T19:36:03Z</time>
      </trkpt>
      <trkpt lat="-12.0762470" lon="-76.9343260">
        <ele>267.7</ele>
        <time>2021-05-30T19:36:05Z</time>
      </trkpt>
      <trkpt lat="-12.0761450" lon="-76.9345200">
        <ele>265.7</ele>
        <time>2021-05-30T19:36:07Z</time>
      </trkpt>
      <trkpt lat="-12.0760310" lon="-76.9347350">
        <ele>263.4</ele>
        <time>2021-05-30T19:36:09Z</time>
      </trkpt>
      <trkpt lat="-12.0759720" lon="-76.9348430">
        <ele>262.3</ele>
        <time>2021-05-30T19:36:10Z</time>
      </trkpt>
      <trkpt lat="-12.0758550" lon="-76.9350490">
        <ele>260.4</ele>
        <time>2021-05-30T19:36:12Z</time>
      </trkpt>
      <trkpt lat="-12.0758000" lon="-76.9351370">
        <ele>259.6</ele>
        <time>2021-05-30T19:36:13Z</time>
      </trkpt>
      <trkpt lat="-12.0756780" lon="-76.9352870">
        <ele>258.6</ele>
        <time>2021-05-30T19:36:15Z</time>
      </trkpt>
      <trkpt lat="-12.0755290" lon="-76.9354090">
        <ele>257.7</ele>
        <time>2021-05-30T19:36:17Z</time>
      </trkpt>
      <trkpt lat="-12.0754470" lon="-76.9354600">
        <ele>257.4</ele>
        <time>2021-05-30T19:36:18Z</time>
      </trkpt>
      <trkpt lat="-12.0752940" lon="-76.9355360">
        <ele>256.9</ele>
        <time>2021-05-30T19:36:20Z</time>
      </trkpt>
      <trkpt lat="-12.0752200" lon="-76.9355790">
        <ele>256.7</ele>
        <time>2021-05-30T19:36:21Z</time>
      </trkpt>
      <trkpt lat="-12.0750790" lon="-76.9356810">
        <ele>256.5</ele>
        <time>2021-05-30T19:36:23Z</time>
      </trkpt>
      <trkpt lat="-12.0750020" lon="-76.9357220">
        <ele>256.5</ele>
        <time>2021-05-30T19:36:24Z</time>
      </trkpt>
      <trkpt lat="-12.0749280" lon="-76.9357590">
        <ele>256.5</ele>
        <time>2021-05-30T19:36:25Z</time>
      </trkpt>
      <trkpt lat="-12.0747930" lon="-76.9358390">
        <ele>256.6</ele>
        <time>2021-05-30T19:36:27Z</time>
      </trkpt>
      <trkpt lat="-12.0746650" lon="-76.9359090">
        <ele>256.6</ele>
        <time>2021-05-30T19:36:29Z</time>
      </trkpt>
      <trkpt lat="-12.0745380" lon="-76.9359820">
        <ele>256.6</ele>
        <time>2021-05-30T19:36:31Z</time>
      </trkpt>
      <trkpt lat="-12.0744790" lon="-76.9360180">
        <ele>256.6</ele>
        <time>2021-05-30T19:36:32Z</time>
      </trkpt>
      <trkpt lat="-12.0743730" lon="-76.9360920">
        <ele>256.6</ele>
        <time>2021-05-30T19:36:34Z</time>
      </trkpt>
      <trkpt lat="-12.0743200" lon="-76.9361220">
        <ele>256.6</ele>
        <time>2021-05-30T19:36:35Z</time>
      </trkpt>
      <trkpt lat="-12.0742070" lon="-76.9361850">
        <ele>256.6</ele>
        <time>2021-05-30T19:36:37Z</time>
      </trkpt>
      <trkpt lat="-12.0740920" lon="-76.9362540">
        <ele>256.6</ele>
        <time>2021-05-30T19:36:39Z</time>
      </trkpt>
      <trkpt lat="-12.0739820" lon="-76.9363160">
        <ele>256.5</ele>
        <time>2021-05-30T19:36:41Z</time>
      </trkpt>
      <trkpt lat="-12.0738750" lon="-76.9363780">
        <ele>256.5</ele>
        <time>2021-05-30T19:36:43Z</time>
      </trkpt>
      <trkpt lat="-12.0737730" lon="-76.9364380">
        <ele>256.4</ele>
        <time>2021-05-30T19:36:45Z</time>
      </trkpt>
      <trkpt lat="-12.0737210" lon="-76.9364660">
        <ele>256.3</ele>
        <time>2021-05-30T19:36:46Z</time>
      </trkpt>
      <trkpt lat="-12.0736180" lon="-76.9365280">
        <ele>256.2</ele>
        <time>2021-05-30T19:36:48Z</time>
      </trkpt>
      <trkpt lat="-12.0735640" lon="-76.9365540">
        <ele>256.2</ele>
        <time>2021-05-30T19:36:49Z</time>
      </trkpt>
      <trkpt lat="-12.0735100" lon="-76.9365750">
        <ele>256.1</ele>
        <time>2021-05-30T19:36:50Z</time>
      </trkpt>
      <trkpt lat="-12.0733920" lon="-76.9366180">
        <ele>255.9</ele>
        <time>2021-05-30T19:36:52Z</time>
      </trkpt>
      <trkpt lat="-12.0732760" lon="-76.9366420">
        <ele>255.8</ele>
        <time>2021-05-30T19:36:54Z</time>
      </trkpt>
      <trkpt lat="-12.0731640" lon="-76.9366790">
        <ele>255.7</ele>
        <time>2021-05-30T19:36:56Z</time>
      </trkpt>
      <trkpt lat="-12.0730590" lon="-76.9367140">
        <ele>255.6</ele>
        <time>2021-05-30T19:36:58Z</time>
      </trkpt>
      <trkpt lat="-12.0730020" lon="-76.9367330">
        <ele>255.6</ele>
        <time>2021-05-30T19:36:59Z</time>
      </trkpt>
      <trkpt lat="-12.0728670" lon="-76.9367770">
        <ele>255.5</ele>
        <time>2021-05-30T19:37:01Z</time>
      </trkpt>
      <trkpt lat="-12.0727990" lon="-76.9367970">
        <ele>255.5</ele>
        <time>2021-05-30T19:37:02Z</time>
      </trkpt>
      <trkpt lat="-12.0726800" lon="-76.9368350">
        <ele>255.5</ele>
        <time>2021-05-30T19:37:04Z</time>
      </trkpt>
      <trkpt lat="-12.0726230" lon="-76.9368580">
        <ele>255.5</ele>
        <time>2021-05-30T19:37:05Z</time>
      </trkpt>
      <trkpt lat="-12.0725100" lon="-76.9368970">
        <ele>255.7</ele>
        <time>2021-05-30T19:37:07Z</time>
      </trkpt>
      <trkpt lat="-12.0724510" lon="-76.9369190">
        <ele>255.7</ele>
        <time>2021-05-30T19:37:08Z</time>
      </trkpt>
      <trkpt lat="-12.0723340" lon="-76.9369600">
        <ele>255.8</ele>
        <time>2021-05-30T19:37:10Z</time>
      </trkpt>
      <trkpt lat="-12.0722310" lon="-76.9370000">
        <ele>255.9</ele>
        <time>2021-05-30T19:37:12Z</time>
      </trkpt>
      <trkpt lat="-12.0721750" lon="-76.9370210">
        <ele>256.0</ele>
        <time>2021-05-30T19:37:13Z</time>
      </trkpt>
      <trkpt lat="-12.0720580" lon="-76.9370670">
        <ele>256.1</ele>
        <time>2021-05-30T19:37:15Z</time>
      </trkpt>
      <trkpt lat="-12.0719980" lon="-76.9370860">
        <ele>256.1</ele>
        <time>2021-05-30T19:37:16Z</time>
      </trkpt>
      <trkpt lat="-12.0718810" lon="-76.9371160">
        <ele>256.3</ele>
        <time>2021-05-30T19:37:18Z</time>
      </trkpt>
      <trkpt lat="-12.0717790" lon="-76.9371370">
        <ele>256.4</ele>
        <time>2021-05-30T19:37:20Z</time>
      </trkpt>
      <trkpt lat="-12.0717250" lon="-76.9371520">
        <ele>256.5</ele>
        <time>2021-05-30T19:37:21Z</time>
      </trkpt>
      <trkpt lat="-12.0716090" lon="-76.9371910">
        <ele>256.7</ele>
        <time>2021-05-30T19:37:23Z</time>
      </trkpt>
      <trkpt lat="-12.0715000" lon="-76.9372230">
        <ele>256.8</ele>
        <time>2021-05-30T19:37:25Z</time>
      </trkpt>
      <trkpt lat="-12.0714440" lon="-76.9372350">
        <ele>256.8</ele>
        <time>2021-05-30T19:37:26Z</time>
      </trkpt>
      <trkpt lat="-12.0713910" lon="-76.9372480">
        <ele>256.9</ele>
        <time>2021-05-30T19:37:27Z</time>
      </trkpt>
      <trkpt lat="-12.0712940" lon="-76.9372710">
        <ele>256.9</ele>
        <time>2021-05-30T19:37:29Z</time>
      </trkpt>
      <trkpt lat="-12.0712440" lon="-76.9372720">
        <ele>256.8</ele>
        <time>2021-05-30T19:37:30Z</time>
      </trkpt>
      <trkpt lat="-12.0711930" lon="-76.9372620">
        <ele>256.8</ele>
        <time>2021-05-30T19:37:31Z</time>
      </trkpt>
      <trkpt lat="-12.0710860" lon="-76.9372310">
        <ele>256.9</ele>
        <time>2021-05-30T19:37:33Z</time>
      </trkpt>
      <trkpt lat="-12.0709800" lon="-76.9372290">
        <ele>257.0</ele>
        <time>2021-05-30T19:37:35Z</time>
      </trkpt>
      <trkpt lat="-12.0708680" lon="-76.9372560">
        <ele>257.1</ele>
        <time>2021-05-30T19:37:37Z</time>
      </trkpt>
      <trkpt lat="-12.0708160" lon="-76.9372670">
        <ele>257.1</ele>
        <time>2021-05-30T19:37:38Z</time>
      </trkpt>
      <trkpt lat="-12.0707440" lon="-76.9372860">
        <ele>257.2</ele>
        <time>2021-05-30T19:37:40Z</time>
      </trkpt>
      <trkpt lat="-12.0706530" lon="-76.9373090">
        <ele>257.2</ele>
        <time>2021-05-30T19:37:42Z</time>
      </trkpt>
      <trkpt lat="-12.0705440" lon="-76.9373440">
        <ele>257.3</ele>
        <time>2021-05-30T19:37:44Z</time>
      </trkpt>
      <trkpt lat="-12.0704840" lon="-76.9373660">
        <ele>257.4</ele>
        <time>2021-05-30T19:37:45Z</time>
      </trkpt>
      <trkpt lat="-12.0704260" lon="-76.9373860">
        <ele>257.4</ele>
        <time>2021-05-30T19:37:46Z</time>
      </trkpt>
      <trkpt lat="-12.0703230" lon="-76.9374220">
        <ele>257.5</ele>
        <time>2021-05-30T19:37:48Z</time>
      </trkpt>
      <trkpt lat="-12.0702670" lon="-76.9374390">
        <ele>257.5</ele>
        <time>2021-05-30T19:37:49Z</time>
      </trkpt>
      <trkpt lat="-12.0701610" lon="-76.9374740">
        <ele>257.5</ele>
        <time>2021-05-30T19:37:51Z</time>
      </trkpt>
      <trkpt lat="-12.0700370" lon="-76.9375020">
        <ele>257.6</ele>
        <time>2021-05-30T19:37:53Z</time>
      </trkpt>
      <trkpt lat="-12.0699180" lon="-76.9375280">
        <ele>257.7</ele>
        <time>2021-05-30T19:37:55Z</time>
      </trkpt>
      <trkpt lat="-12.0698250" lon="-76.9375660">
        <ele>257.7</ele>
        <time>2021-05-30T19:37:57Z</time>
      </trkpt>
      <trkpt lat="-12.0697340" lon="-76.9375970">
        <ele>257.8</ele>
        <time>2021-05-30T19:37:59Z</time>
      </trkpt>
      <trkpt lat="-12.0696840" lon="-76.9376110">
        <ele>257.8</ele>
        <time>2021-05-30T19:38:00Z</time>
      </trkpt>
      <trkpt lat="-12.0696330" lon="-76.9376260">
        <ele>257.9</ele>
        <time>2021-05-30T19:38:01Z</time>
      </trkpt>
      <trkpt lat="-12.0695800" lon="-76.9376460">
        <ele>257.9</ele>
        <time>2021-05-30T19:38:02Z</time>
      </trkpt>
      <trkpt lat="-12.0694730" lon="-76.9376770">
        <ele>258.0</ele>
        <time>2021-05-30T19:38:04Z</time>
      </trkpt>
      <trkpt lat="-12.0694210" lon="-76.9376940">
        <ele>258.0</ele>
        <time>2021-05-30T19:38:05Z</time>
      </trkpt>
      <trkpt lat="-12.0693270" lon="-76.9377270">
        <ele>258.1</ele>
        <time>2021-05-30T19:38:07Z</time>
      </trkpt>
      <trkpt lat="-12.0692270" lon="-76.9377600">
        <ele>258.2</ele>
        <time>2021-05-30T19:38:09Z</time>
      </trkpt>
      <trkpt lat="-12.0691810" lon="-76.9377770">
        <ele>258.2</ele>
        <time>2021-05-30T19:38:10Z</time>
      </trkpt>
      <trkpt lat="-12.0691360" lon="-76.9378030">
        <ele>258.3</ele>
        <time>2021-05-30T19:38:11Z</time>
      </trkpt>
      <trkpt lat="-12.0690560" lon="-76.9378540">
        <ele>258.3</ele>
        <time>2021-05-30T19:38:13Z</time>
      </trkpt>
      <trkpt lat="-12.0689640" lon="-76.9378840">
        <ele>258.4</ele>
        <time>2021-05-30T19:38:15Z</time>
      </trkpt>
      <trkpt lat="-12.0688690" lon="-76.9379120">
        <ele>258.5</ele>
        <time>2021-05-30T19:38:17Z</time>
      </trkpt>
      <trkpt lat="-12.0687780" lon="-76.9379370">
        <ele>258.6</ele>
        <time>2021-05-30T19:38:19Z</time>
      </trkpt>
      <trkpt lat="-12.0687310" lon="-76.9379500">
        <ele>258.6</ele>
        <time>2021-05-30T19:38:20Z</time>
      </trkpt>
      <trkpt lat="-12.0686840" lon="-76.9379610">
        <ele>258.7</ele>
        <time>2021-05-30T19:38:21Z</time>
      </trkpt>
      <trkpt lat="-12.0686370" lon="-76.9379660">
        <ele>258.7</ele>
        <time>2021-05-30T19:38:22Z</time>
      </trkpt>
      <trkpt lat="-12.0685730" lon="-76.9379790">
        <ele>258.8</ele>
        <time>2021-05-30T19:38:24Z</time>
      </trkpt>
      <trkpt lat="-12.0685330" lon="-76.9379920">
        <ele>258.8</ele>
        <time>2021-05-30T19:38:25Z</time>
      </trkpt>
      <trkpt lat="-12.0684460" lon="-76.9380230">
        <ele>258.9</ele>
        <time>2021-05-30T19:38:27Z</time>
      </trkpt>
      <trkpt lat="-12.0683980" lon="-76.9380370">
        <ele>259.0</ele>
        <time>2021-05-30T19:38:28Z</time>
      </trkpt>
      <trkpt lat="-12.0683510" lon="-76.9380560">
        <ele>259.0</ele>
        <time>2021-05-30T19:38:29Z</time>
      </trkpt>
      <trkpt lat="-12.0683030" lon="-76.9380760">
        <ele>259.1</ele>
        <time>2021-05-30T19:38:30Z</time>
      </trkpt>
      <trkpt lat="-12.0682080" lon="-76.9381080">
        <ele>259.2</ele>
        <time>2021-05-30T19:38:32Z</time>
      </trkpt>
      <trkpt lat="-12.0681680" lon="-76.9381200">
        <ele>259.3</ele>
        <time>2021-05-30T19:38:33Z</time>
      </trkpt>
      <trkpt lat="-12.0681190" lon="-76.9381450">
        <ele>259.3</ele>
        <time>2021-05-30T19:38:34Z</time>
      </trkpt>
      <trkpt lat="-12.0680750" lon="-76.9381700">
        <ele>259.4</ele>
        <time>2021-05-30T19:38:35Z</time>
      </trkpt>
      <trkpt lat="-12.0680390" lon="-76.9381970">
        <ele>259.5</ele>
        <time>2021-05-30T19:38:37Z</time>
      </trkpt>
      <trkpt lat="-12.0679970" lon="-76.9382140">
        <ele>259.6</ele>
        <time>2021-05-30T19:38:38Z</time>
      </trkpt>
      <trkpt lat="-12.0679500" lon="-76.9382090">
        <ele>259.7</ele>
        <time>2021-05-30T19:38:40Z</time>
      </trkpt>
      <trkpt lat="-12.0678930" lon="-76.9382000">
        <ele>259.8</ele>
        <time>2021-05-30T19:38:41Z</time>
      </trkpt>
      <trkpt lat="-12.0678610" lon="-76.9382020">
        <ele>259.8</ele>
        <time>2021-05-30T19:38:42Z</time>
      </trkpt>
      <trkpt lat="-12.0678300" lon="-76.9382100">
        <ele>259.9</ele>
        <time>2021-05-30T19:38:43Z</time>
      </trkpt>
      <trkpt lat="-12.0677790" lon="-76.9382250">
        <ele>260.0</ele>
        <time>2021-05-30T19:38:45Z</time>
      </trkpt>
      <trkpt lat="-12.0677280" lon="-76.9382480">
        <ele>260.0</ele>
        <time>2021-05-30T19:38:47Z</time>
      </trkpt>
      <trkpt lat="-12.0676860" lon="-76.9382550">
        <ele>260.1</ele>
        <time>2021-05-30T19:38:48Z</time>
      </trkpt>
      <trkpt lat="-12.0676480" lon="-76.9382580">
        <ele>260.2</ele>
        <time>2021-05-30T19:38:49Z</time>
      </trkpt>
      <trkpt lat="-12.0675860" lon="-76.9382620">
        <ele>260.3</ele>
        <time>2021-05-30T19:38:50Z</time>
      </trkpt>
      <trkpt lat="-12.0675350" lon="-76.9382650">
        <ele>260.4</ele>
        <time>2021-05-30T19:38:51Z</time>
      </trkpt>
      <trkpt lat="-12.0674780" lon="-76.9382730">
        <ele>260.5</ele>
        <time>2021-05-30T19:38:53Z</time>
      </trkpt>
      <trkpt lat="-12.0674370" lon="-76.9382840">
        <ele>260.6</ele>
        <time>2021-05-30T19:38:54Z</time>
      </trkpt>
      <trkpt lat="-12.0673750" lon="-76.9383010">
        <ele>260.7</ele>
        <time>2021-05-30T19:38:55Z</time>
      </trkpt>
      <trkpt lat="-12.0673320" lon="-76.9383140">
        <ele>260.8</ele>
        <time>2021-05-30T19:38:56Z</time>
      </trkpt>
      <trkpt lat="-12.0672690" lon="-76.9383260">
        <ele>260.9</ele>
        <time>2021-05-30T19:38:58Z</time>
      </trkpt>
      <trkpt lat="-12.0672190" lon="-76.9383400">
        <ele>261.0</ele>
        <time>2021-05-30T19:38:59Z</time>
      </trkpt>
      <trkpt lat="-12.0671530" lon="-76.9383590">
        <ele>261.1</ele>
        <time>2021-05-30T19:39:00Z</time>
      </trkpt>
      <trkpt lat="-12.0671090" lon="-76.9383680">
        <ele>261.2</ele>
        <time>2021-05-30T19:39:01Z</time>
      </trkpt>
      <trkpt lat="-12.0670240" lon="-76.9383880">
        <ele>261.3</ele>
        <time>2021-05-30T19:39:03Z</time>
      </trkpt>
      <trkpt lat="-12.0669800" lon="-76.9384020">
        <ele>261.3</ele>
        <time>2021-05-30T19:39:04Z</time>
      </trkpt>
      <trkpt lat="-12.0669270" lon="-76.9384180">
        <ele>261.4</ele>
        <time>2021-05-30T19:39:05Z</time>
      </trkpt>
      <trkpt lat="-12.0668350" lon="-76.9384600">
        <ele>261.5</ele>
        <time>2021-05-30T19:39:07Z</time>
      </trkpt>
      <trkpt lat="-12.0667840" lon="-76.9384980">
        <ele>261.6</ele>
        <time>2021-05-30T19:39:08Z</time>
      </trkpt>
      <trkpt lat="-12.0666940" lon="-76.9385280">
        <ele>261.7</ele>
        <time>2021-05-30T19:39:10Z</time>
      </trkpt>
      <trkpt lat="-12.0666430" lon="-76.9385410">
        <ele>261.8</ele>
        <time>2021-05-30T19:39:11Z</time>
      </trkpt>
      <trkpt lat="-12.0665940" lon="-76.9385510">
        <ele>261.8</ele>
        <time>2021-05-30T19:39:12Z</time>
      </trkpt>
      <trkpt lat="-12.0665020" lon="-76.9385790">
        <ele>262.0</ele>
        <time>2021-05-30T19:39:14Z</time>
      </trkpt>
      <trkpt lat="-12.0664540" lon="-76.9385960">
        <ele>262.0</ele>
        <time>2021-05-30T19:39:15Z</time>
      </trkpt>
      <trkpt lat="-12.0663550" lon="-76.9386130">
        <ele>262.2</ele>
        <time>2021-05-30T19:39:17Z</time>
      </trkpt>
      <trkpt lat="-12.0663050" lon="-76.9386230">
        <ele>262.3</ele>
        <time>2021-05-30T19:39:18Z</time>
      </trkpt>
      <trkpt lat="-12.0662020" lon="-76.9386520">
        <ele>262.4</ele>
        <time>2021-05-30T19:39:20Z</time>
      </trkpt>
      <trkpt lat="-12.0661070" lon="-76.9386740">
        <ele>262.6</ele>
        <time>2021-05-30T19:39:22Z</time>
      </trkpt>
      <trkpt lat="-12.0660640" lon="-76.9386820">
        <ele>262.7</ele>
        <time>2021-05-30T19:39:23Z</time>
      </trkpt>
      <trkpt lat="-12.0659870" lon="-76.9387040">
        <ele>262.8</ele>
        <time>2021-05-30T19:39:25Z</time>
      </trkpt>
      <trkpt lat="-12.0659420" lon="-76.9387230">
        <ele>262.9</ele>
        <time>2021-05-30T19:39:26Z</time>
      </trkpt>
      <trkpt lat="-12.0658520" lon="-76.9387560">
        <ele>263.1</ele>
        <time>2021-05-30T19:39:28Z</time>
      </trkpt>
      <trkpt lat="-12.0658060" lon="-76.9387660">
        <ele>263.2</ele>
        <time>2021-05-30T19:39:29Z</time>
      </trkpt>
      <trkpt lat="-12.0657560" lon="-76.9387730">
        <ele>263.3</ele>
        <time>2021-05-30T19:39:30Z</time>
      </trkpt>
      <trkpt lat="-12.0657050" lon="-76.9387730">
        <ele>263.4</ele>
        <time>2021-05-30T19:39:31Z</time>
      </trkpt>
      <trkpt lat="-12.0656080" lon="-76.9388080">
        <ele>263.6</ele>
        <time>2021-05-30T19:39:33Z</time>
      </trkpt>
      <trkpt lat="-12.0655220" lon="-76.9388390">
        <ele>263.8</ele>
        <time>2021-05-30T19:39:35Z</time>
      </trkpt>
      <trkpt lat="-12.0654770" lon="-76.9388550">
        <ele>263.9</ele>
        <time>2021-05-30T19:39:36Z</time>
      </trkpt>
      <trkpt lat="-12.0654100" lon="-76.9388280">
        <ele>264.1</ele>
        <time>2021-05-30T19:39:38Z</time>
      </trkpt>
      <trkpt lat="-12.0653660" lon="-76.9388580">
        <ele>264.2</ele>
        <time>2021-05-30T19:39:39Z</time>
      </trkpt>
      <trkpt lat="-12.0653210" lon="-76.9388860">
        <ele>264.3</ele>
        <time>2021-05-30T19:39:40Z</time>
      </trkpt>
      <trkpt lat="-12.0652560" lon="-76.9389130">
        <ele>264.4</ele>
        <time>2021-05-30T19:39:41Z</time>
      </trkpt>
      <trkpt lat="-12.0652590" lon="-76.9389280">
        <ele>264.5</ele>
        <time>2021-05-30T19:39:43Z</time>
      </trkpt>
      <trkpt lat="-12.0651780" lon="-76.9389550">
        <ele>264.7</ele>
        <time>2021-05-30T19:39:45Z</time>
      </trkpt>
      <trkpt lat="-12.0651320" lon="-76.9389730">
        <ele>264.8</ele>
        <time>2021-05-30T19:39:46Z</time>
      </trkpt>
      <trkpt lat="-12.0650580" lon="-76.9390130">
        <ele>265.0</ele>
        <time>2021-05-30T19:39:47Z</time>
      </trkpt>
      <trkpt lat="-12.0650180" lon="-76.9390390">
        <ele>265.1</ele>
        <time>2021-05-30T19:39:48Z</time>
      </trkpt>
      <trkpt lat="-12.0649760" lon="-76.9390770">
        <ele>265.2</ele>
        <time>2021-05-30T19:39:49Z</time>
      </trkpt>
      <trkpt lat="-12.0650020" lon="-76.9390900">
        <ele>265.2</ele>
        <time>2021-05-30T19:39:50Z</time>
      </trkpt>
      <trkpt lat="-12.0649760" lon="-76.9391250">
        <ele>265.2</ele>
        <time>2021-05-30T19:39:52Z</time>
      </trkpt>
      <trkpt lat="-12.0649190" lon="-76.9391840">
        <ele>265.3</ele>
        <time>2021-05-30T19:39:53Z</time>
      </trkpt>
      <trkpt lat="-12.0648680" lon="-76.9392350">
        <ele>265.4</ele>
        <time>2021-05-30T19:39:55Z</time>
      </trkpt>
      <trkpt lat="-12.0648300" lon="-76.9392660">
        <ele>265.5</ele>
        <time>2021-05-30T19:39:56Z</time>
      </trkpt>
      <trkpt lat="-12.0647960" lon="-76.9392970">
        <ele>265.6</ele>
        <time>2021-05-30T19:39:57Z</time>
      </trkpt>
      <trkpt lat="-12.0647470" lon="-76.9393480">
        <ele>265.7</ele>
        <time>2021-05-30T19:39:58Z</time>
      </trkpt>
      <trkpt lat="-12.0647030" lon="-76.9393860">
        <ele>265.8</ele>
        <time>2021-05-30T19:40:00Z</time>
      </trkpt>
      <trkpt lat="-12.0646580" lon="-76.9394220">
        <ele>265.9</ele>
        <time>2021-05-30T19:40:01Z</time>
      </trkpt>
      <trkpt lat="-12.0646210" lon="-76.9394520">
        <ele>266.0</ele>
        <time>2021-05-30T19:40:02Z</time>
      </trkpt>
      <trkpt lat="-12.0645760" lon="-76.9394860">
        <ele>266.1</ele>
        <time>2021-05-30T19:40:04Z</time>
      </trkpt>
      <trkpt lat="-12.0645480" lon="-76.9395070">
        <ele>266.2</ele>
        <time>2021-05-30T19:40:05Z</time>
      </trkpt>
      <trkpt lat="-12.0645050" lon="-76.9395410">
        <ele>266.3</ele>
        <time>2021-05-30T19:40:06Z</time>
      </trkpt>
      <trkpt lat="-12.0644700" lon="-76.9395700">
        <ele>266.4</ele>
        <time>2021-05-30T19:40:08Z</time>
      </trkpt>
      <trkpt lat="-12.0644250" lon="-76.9396110">
        <ele>266.5</ele>
        <time>2021-05-30T19:40:09Z</time>
      </trkpt>
      <trkpt lat="-12.0643870" lon="-76.9396480">
        <ele>266.5</ele>
        <time>2021-05-30T19:40:10Z</time>
      </trkpt>
      <trkpt lat="-12.0643500" lon="-76.9396840">
        <ele>266.6</ele>
        <time>2021-05-30T19:40:11Z</time>
      </trkpt>
      <trkpt lat="-12.0643140" lon="-76.9397140">
        <ele>266.7</ele>
        <time>2021-05-30T19:40:12Z</time>
      </trkpt>
      <trkpt lat="-12.0642730" lon="-76.9397460">
        <ele>266.9</ele>
        <time>2021-05-30T19:40:14Z</time>
      </trkpt>
      <trkpt lat="-12.0642320" lon="-76.9397810">
        <ele>267.1</ele>
        <time>2021-05-30T19:40:15Z</time>
      </trkpt>
      <trkpt lat="-12.0641200" lon="-76.9398650">
        <ele>267.5</ele>
        <time>2021-05-30T19:40:17Z</time>
      </trkpt>
      <trkpt lat="-12.0640320" lon="-76.9399340">
        <ele>267.4</ele>
        <time>2021-05-30T19:40:19Z</time>
      </trkpt>
      <trkpt lat="-12.0639520" lon="-76.9399960">
        <ele>267.3</ele>
        <time>2021-05-30T19:40:21Z</time>
      </trkpt>
      <trkpt lat="-12.0639070" lon="-76.9400290">
        <ele>267.3</ele>
        <time>2021-05-30T19:40:22Z</time>
      </trkpt>
      <trkpt lat="-12.0638260" lon="-76.9401010">
        <ele>267.4</ele>
        <time>2021-05-30T19:40:24Z</time>
      </trkpt>
      <trkpt lat="-12.0637860" lon="-76.9401420">
        <ele>267.4</ele>
        <time>2021-05-30T19:40:25Z</time>
      </trkpt>
      <trkpt lat="-12.0637010" lon="-76.9402050">
        <ele>267.5</ele>
        <time>2021-05-30T19:40:27Z</time>
      </trkpt>
      <trkpt lat="-12.0636560" lon="-76.9402370">
        <ele>267.5</ele>
        <time>2021-05-30T19:40:28Z</time>
      </trkpt>
      <trkpt lat="-12.0635580" lon="-76.9403010">
        <ele>267.6</ele>
        <time>2021-05-30T19:40:30Z</time>
      </trkpt>
      <trkpt lat="-12.0634630" lon="-76.9403610">
        <ele>267.8</ele>
        <time>2021-05-30T19:40:32Z</time>
      </trkpt>
      <trkpt lat="-12.0633740" lon="-76.9404260">
        <ele>268.0</ele>
        <time>2021-05-30T19:40:34Z</time>
      </trkpt>
      <trkpt lat="-12.0633320" lon="-76.9404590">
        <ele>268.1</ele>
        <time>2021-05-30T19:40:35Z</time>
      </trkpt>
      <trkpt lat="-12.0632420" lon="-76.9405180">
        <ele>268.3</ele>
        <time>2021-05-30T19:40:37Z</time>
      </trkpt>
      <trkpt lat="-12.0631520" lon="-76.9405700">
        <ele>268.5</ele>
        <time>2021-05-30T19:40:39Z</time>
      </trkpt>
      <trkpt lat="-12.0630680" lon="-76.9406080">
        <ele>268.6</ele>
        <time>2021-05-30T19:40:41Z</time>
      </trkpt>
      <trkpt lat="-12.0630280" lon="-76.9406270">
        <ele>268.7</ele>
        <time>2021-05-30T19:40:42Z</time>
      </trkpt>
      <trkpt lat="-12.0629870" lon="-76.9406600">
        <ele>268.8</ele>
        <time>2021-05-30T19:40:43Z</time>
      </trkpt>
      <trkpt lat="-12.0628970" lon="-76.9407110">
        <ele>269.1</ele>
        <time>2021-05-30T19:40:45Z</time>
      </trkpt>
      <trkpt lat="-12.0628180" lon="-76.9407420">
        <ele>269.2</ele>
        <time>2021-05-30T19:40:47Z</time>
      </trkpt>
      <trkpt lat="-12.0627780" lon="-76.9407600">
        <ele>269.3</ele>
        <time>2021-05-30T19:40:48Z</time>
      </trkpt>
      <trkpt lat="-12.0626990" lon="-76.9407910">
        <ele>269.4</ele>
        <time>2021-05-30T19:40:50Z</time>
      </trkpt>
      <trkpt lat="-12.0626520" lon="-76.9408100">
        <ele>269.5</ele>
        <time>2021-05-30T19:40:51Z</time>
      </trkpt>
      <trkpt lat="-12.0625610" lon="-76.9408580">
        <ele>269.7</ele>
        <time>2021-05-30T19:40:53Z</time>
      </trkpt>
      <trkpt lat="-12.0625140" lon="-76.9408820">
        <ele>269.7</ele>
        <time>2021-05-30T19:40:54Z</time>
      </trkpt>
      <trkpt lat="-12.0624230" lon="-76.9409360">
        <ele>269.9</ele>
        <time>2021-05-30T19:40:56Z</time>
      </trkpt>
      <trkpt lat="-12.0623780" lon="-76.9409670">
        <ele>269.9</ele>
        <time>2021-05-30T19:40:57Z</time>
      </trkpt>
      <trkpt lat="-12.0622890" lon="-76.9410230">
        <ele>270.1</ele>
        <time>2021-05-30T19:40:59Z</time>
      </trkpt>
      <trkpt lat="-12.0622430" lon="-76.9410520">
        <ele>270.2</ele>
        <time>2021-05-30T19:41:00Z</time>
      </trkpt>
      <trkpt lat="-12.0621610" lon="-76.9411130">
        <ele>270.3</ele>
        <time>2021-05-30T19:41:02Z</time>
      </trkpt>
      <trkpt lat="-12.0621160" lon="-76.9411410">
        <ele>270.4</ele>
        <time>2021-05-30T19:41:03Z</time>
      </trkpt>
      <trkpt lat="-12.0620350" lon="-76.9411910">
        <ele>270.6</ele>
        <time>2021-05-30T19:41:05Z</time>
      </trkpt>
      <trkpt lat="-12.0619510" lon="-76.9412340">
        <ele>270.7</ele>
        <time>2021-05-30T19:41:07Z</time>
      </trkpt>
      <trkpt lat="-12.0619100" lon="-76.9412530">
        <ele>270.8</ele>
        <time>2021-05-30T19:41:08Z</time>
      </trkpt>
      <trkpt lat="-12.0618180" lon="-76.9412930">
        <ele>270.9</ele>
        <time>2021-05-30T19:41:10Z</time>
      </trkpt>
      <trkpt lat="-12.0617740" lon="-76.9413130">
        <ele>271.0</ele>
        <time>2021-05-30T19:41:11Z</time>
      </trkpt>
      <trkpt lat="-12.0617280" lon="-76.9413350">
        <ele>271.1</ele>
        <time>2021-05-30T19:41:12Z</time>
      </trkpt>
      <trkpt lat="-12.0616280" lon="-76.9413720">
        <ele>271.3</ele>
        <time>2021-05-30T19:41:14Z</time>
      </trkpt>
      <trkpt lat="-12.0615770" lon="-76.9413890">
        <ele>271.4</ele>
        <time>2021-05-30T19:41:15Z</time>
      </trkpt>
      <trkpt lat="-12.0615330" lon="-76.9414060">
        <ele>271.5</ele>
        <time>2021-05-30T19:41:16Z</time>
      </trkpt>
      <trkpt lat="-12.0614620" lon="-76.9414480">
        <ele>271.6</ele>
        <time>2021-05-30T19:41:18Z</time>
      </trkpt>
      <trkpt lat="-12.0614180" lon="-76.9414730">
        <ele>271.7</ele>
        <time>2021-05-30T19:41:19Z</time>
      </trkpt>
      <trkpt lat="-12.0613680" lon="-76.9414940">
        <ele>271.8</ele>
        <time>2021-05-30T19:41:20Z</time>
      </trkpt>
      <trkpt lat="-12.0613210" lon="-76.9415130">
        <ele>271.9</ele>
        <time>2021-05-30T19:41:21Z</time>
      </trkpt>
      <trkpt lat="-12.0612320" lon="-76.9415640">
        <ele>272.1</ele>
        <time>2021-05-30T19:41:23Z</time>
      </trkpt>
      <trkpt lat="-12.0611890" lon="-76.9415920">
        <ele>272.1</ele>
        <time>2021-05-30T19:41:24Z</time>
      </trkpt>
      <trkpt lat="-12.0611030" lon="-76.9416430">
        <ele>272.3</ele>
        <time>2021-05-30T19:41:26Z</time>
      </trkpt>
      <trkpt lat="-12.0610630" lon="-76.9416700">
        <ele>272.4</ele>
        <time>2021-05-30T19:41:27Z</time>
      </trkpt>
      <trkpt lat="-12.0609790" lon="-76.9417350">
        <ele>272.5</ele>
        <time>2021-05-30T19:41:29Z</time>
      </trkpt>
      <trkpt lat="-12.0609350" lon="-76.9417750">
        <ele>272.6</ele>
        <time>2021-05-30T19:41:30Z</time>
      </trkpt>
      <trkpt lat="-12.0608370" lon="-76.9418460">
        <ele>272.9</ele>
        <time>2021-05-30T19:41:32Z</time>
      </trkpt>
      <trkpt lat="-12.0607470" lon="-76.9419050">
        <ele>273.1</ele>
        <time>2021-05-30T19:41:34Z</time>
      </trkpt>
      <trkpt lat="-12.0607030" lon="-76.9419280">
        <ele>273.2</ele>
        <time>2021-05-30T19:41:35Z</time>
      </trkpt>
      <trkpt lat="-12.0606660" lon="-76.9419480">
        <ele>273.3</ele>
        <time>2021-05-30T19:41:36Z</time>
      </trkpt>
      <trkpt lat="-12.0606160" lon="-76.9419900">
        <ele>273.4</ele>
        <time>2021-05-30T19:41:38Z</time>
      </trkpt>
      <trkpt lat="-12.0605890" lon="-76.9419980">
        <ele>273.4</ele>
        <time>2021-05-30T19:41:39Z</time>
      </trkpt>
      <trkpt lat="-12.0605510" lon="-76.9420110">
        <ele>273.5</ele>
        <time>2021-05-30T19:41:40Z</time>
      </trkpt>
      <trkpt lat="-12.0605360" lon="-76.9420150">
        <ele>273.5</ele>
        <time>2021-05-30T19:41:41Z</time>
      </trkpt>
      <trkpt lat="-12.0605200" lon="-76.9419980">
        <ele>273.5</ele>
        <time>2021-05-30T19:41:43Z</time>
      </trkpt>
      <trkpt lat="-12.0604740" lon="-76.9420220">
        <ele>273.4</ele>
        <time>2021-05-30T19:41:45Z</time>
      </trkpt>
      <trkpt lat="-12.0603690" lon="-76.9421270">
        <ele>273.5</ele>
        <time>2021-05-30T19:41:47Z</time>
      </trkpt>
      <trkpt lat="-12.0602650" lon="-76.9421970">
        <ele>273.6</ele>
        <time>2021-05-30T19:41:49Z</time>
      </trkpt>
      <trkpt lat="-12.0601540" lon="-76.9422760">
        <ele>273.7</ele>
        <time>2021-05-30T19:41:51Z</time>
      </trkpt>
      <trkpt lat="-12.0600610" lon="-76.9423450">
        <ele>273.8</ele>
        <time>2021-05-30T19:41:53Z</time>
      </trkpt>
      <trkpt lat="-12.0600180" lon="-76.9423750">
        <ele>273.9</ele>
        <time>2021-05-30T19:41:54Z</time>
      </trkpt>
      <trkpt lat="-12.0599760" lon="-76.9424050">
        <ele>274.0</ele>
        <time>2021-05-30T19:41:55Z</time>
      </trkpt>
      <trkpt lat="-12.0599310" lon="-76.9424310">
        <ele>274.0</ele>
        <time>2021-05-30T19:41:56Z</time>
      </trkpt>
      <trkpt lat="-12.0598330" lon="-76.9424780">
        <ele>274.1</ele>
        <time>2021-05-30T19:41:58Z</time>
      </trkpt>
      <trkpt lat="-12.0597390" lon="-76.9425230">
        <ele>274.2</ele>
        <time>2021-05-30T19:42:00Z</time>
      </trkpt>
      <trkpt lat="-12.0596910" lon="-76.9425450">
        <ele>274.3</ele>
        <time>2021-05-30T19:42:01Z</time>
      </trkpt>
      <trkpt lat="-12.0596430" lon="-76.9425720">
        <ele>274.4</ele>
        <time>2021-05-30T19:42:02Z</time>
      </trkpt>
      <trkpt lat="-12.0595430" lon="-76.9426260">
        <ele>274.6</ele>
        <time>2021-05-30T19:42:04Z</time>
      </trkpt>
      <trkpt lat="-12.0594450" lon="-76.9426880">
        <ele>274.8</ele>
        <time>2021-05-30T19:42:06Z</time>
      </trkpt>
      <trkpt lat="-12.0593970" lon="-76.9427200">
        <ele>274.9</ele>
        <time>2021-05-30T19:42:07Z</time>
      </trkpt>
      <trkpt lat="-12.0592990" lon="-76.9427790">
        <ele>275.0</ele>
        <time>2021-05-30T19:42:09Z</time>
      </trkpt>
      <trkpt lat="-12.0592110" lon="-76.9428350">
        <ele>275.2</ele>
        <time>2021-05-30T19:42:11Z</time>
      </trkpt>
      <trkpt lat="-12.0591240" lon="-76.9428820">
        <ele>275.3</ele>
        <time>2021-05-30T19:42:13Z</time>
      </trkpt>
      <trkpt lat="-12.0590760" lon="-76.9429050">
        <ele>275.4</ele>
        <time>2021-05-30T19:42:14Z</time>
      </trkpt>
      <trkpt lat="-12.0590270" lon="-76.9429270">
        <ele>275.5</ele>
        <time>2021-05-30T19:42:15Z</time>
      </trkpt>
      <trkpt lat="-12.0589390" lon="-76.9429800">
        <ele>275.6</ele>
        <time>2021-05-30T19:42:17Z</time>
      </trkpt>
      <trkpt lat="-12.0588500" lon="-76.9430320">
        <ele>275.7</ele>
        <time>2021-05-30T19:42:19Z</time>
      </trkpt>
      <trkpt lat="-12.0587600" lon="-76.9430880">
        <ele>275.9</ele>
        <time>2021-05-30T19:42:21Z</time>
      </trkpt>
      <trkpt lat="-12.0586690" lon="-76.9431540">
        <ele>276.0</ele>
        <time>2021-05-30T19:42:23Z</time>
      </trkpt>
      <trkpt lat="-12.0586210" lon="-76.9431800">
        <ele>276.0</ele>
        <time>2021-05-30T19:42:24Z</time>
      </trkpt>
      <trkpt lat="-12.0585360" lon="-76.9432250">
        <ele>276.2</ele>
        <time>2021-05-30T19:42:26Z</time>
      </trkpt>
      <trkpt lat="-12.0584920" lon="-76.9432480">
        <ele>276.2</ele>
        <time>2021-05-30T19:42:27Z</time>
      </trkpt>
      <trkpt lat="-12.0584440" lon="-76.9432740">
        <ele>276.3</ele>
        <time>2021-05-30T19:42:28Z</time>
      </trkpt>
      <trkpt lat="-12.0583550" lon="-76.9433370">
        <ele>276.4</ele>
        <time>2021-05-30T19:42:30Z</time>
      </trkpt>
      <trkpt lat="-12.0583140" lon="-76.9433680">
        <ele>276.5</ele>
        <time>2021-05-30T19:42:31Z</time>
      </trkpt>
      <trkpt lat="-12.0582750" lon="-76.9433970">
        <ele>276.6</ele>
        <time>2021-05-30T19:42:32Z</time>
      </trkpt>
      <trkpt lat="-12.0582370" lon="-76.9434270">
        <ele>276.7</ele>
        <time>2021-05-30T19:42:33Z</time>
      </trkpt>
      <trkpt lat="-12.0581460" lon="-76.9434880">
        <ele>276.8</ele>
        <time>2021-05-30T19:42:35Z</time>
      </trkpt>
      <trkpt lat="-12.0580560" lon="-76.9435380">
        <ele>276.9</ele>
        <time>2021-05-30T19:42:37Z</time>
      </trkpt>
      <trkpt lat="-12.0579710" lon="-76.9435840">
        <ele>276.9</ele>
        <time>2021-05-30T19:42:39Z</time>
      </trkpt>
      <trkpt lat="-12.0578850" lon="-76.9436270">
        <ele>277.1</ele>
        <time>2021-05-30T19:42:41Z</time>
      </trkpt>
      <trkpt lat="-12.0578390" lon="-76.9436510">
        <ele>277.1</ele>
        <time>2021-05-30T19:42:42Z</time>
      </trkpt>
      <trkpt lat="-12.0577530" lon="-76.9436970">
        <ele>277.2</ele>
        <time>2021-05-30T19:42:44Z</time>
      </trkpt>
      <trkpt lat="-12.0576640" lon="-76.9437470">
        <ele>277.4</ele>
        <time>2021-05-30T19:42:46Z</time>
      </trkpt>
      <trkpt lat="-12.0576210" lon="-76.9437710">
        <ele>277.5</ele>
        <time>2021-05-30T19:42:47Z</time>
      </trkpt>
      <trkpt lat="-12.0575360" lon="-76.9438280">
        <ele>277.6</ele>
        <time>2021-05-30T19:42:49Z</time>
      </trkpt>
      <trkpt lat="-12.0574570" lon="-76.9438780">
        <ele>277.8</ele>
        <time>2021-05-30T19:42:51Z</time>
      </trkpt>
      <trkpt lat="-12.0574130" lon="-76.9439020">
        <ele>277.8</ele>
        <time>2021-05-30T19:42:52Z</time>
      </trkpt>
      <trkpt lat="-12.0573670" lon="-76.9439270">
        <ele>277.8</ele>
        <time>2021-05-30T19:42:53Z</time>
      </trkpt>
      <trkpt lat="-12.0572790" lon="-76.9439880">
        <ele>277.9</ele>
        <time>2021-05-30T19:42:55Z</time>
      </trkpt>
      <trkpt lat="-12.0572340" lon="-76.9440180">
        <ele>278.0</ele>
        <time>2021-05-30T19:42:56Z</time>
      </trkpt>
      <trkpt lat="-12.0571530" lon="-76.9440800">
        <ele>278.1</ele>
        <time>2021-05-30T19:42:58Z</time>
      </trkpt>
      <trkpt lat="-12.0570720" lon="-76.9441250">
        <ele>278.2</ele>
        <time>2021-05-30T19:43:00Z</time>
      </trkpt>
      <trkpt lat="-12.0570320" lon="-76.9441440">
        <ele>278.3</ele>
        <time>2021-05-30T19:43:01Z</time>
      </trkpt>
      <trkpt lat="-12.0569650" lon="-76.9441730">
        <ele>278.4</ele>
        <time>2021-05-30T19:43:03Z</time>
      </trkpt>
      <trkpt lat="-12.0569320" lon="-76.9441960">
        <ele>278.4</ele>
        <time>2021-05-30T19:43:04Z</time>
      </trkpt>
      <trkpt lat="-12.0568570" lon="-76.9442530">
        <ele>278.6</ele>
        <time>2021-05-30T19:43:06Z</time>
      </trkpt>
      <trkpt lat="-12.0568210" lon="-76.9442800">
        <ele>278.7</ele>
        <time>2021-05-30T19:43:07Z</time>
      </trkpt>
      <trkpt lat="-12.0567970" lon="-76.9443010">
        <ele>278.7</ele>
        <time>2021-05-30T19:43:08Z</time>
      </trkpt>
      <trkpt lat="-12.0567620" lon="-76.9443140">
        <ele>278.8</ele>
        <time>2021-05-30T19:43:09Z</time>
      </trkpt>
      <trkpt lat="-12.0567120" lon="-76.9443330">
        <ele>279.0</ele>
        <time>2021-05-30T19:43:11Z</time>
      </trkpt>
      <trkpt lat="-12.0566550" lon="-76.9443660">
        <ele>279.1</ele>
        <time>2021-05-30T19:43:13Z</time>
      </trkpt>
      <trkpt lat="-12.0566210" lon="-76.9444010">
        <ele>279.2</ele>
        <time>2021-05-30T19:43:14Z</time>
      </trkpt>
      <trkpt lat="-12.0565980" lon="-76.9444380">
        <ele>279.3</ele>
        <time>2021-05-30T19:43:15Z</time>
      </trkpt>
      <trkpt lat="-12.0565880" lon="-76.9444980">
        <ele>279.1</ele>
        <time>2021-05-30T19:43:16Z</time>
      </trkpt>
      <trkpt lat="-12.0565940" lon="-76.9445500">
        <ele>279.0</ele>
        <time>2021-05-30T19:43:18Z</time>
      </trkpt>
      <trkpt lat="-12.0566070" lon="-76.9446060">
        <ele>278.8</ele>
        <time>2021-05-30T19:43:19Z</time>
      </trkpt>
      <trkpt lat="-12.0566570" lon="-76.9447000">
        <ele>278.4</ele>
        <time>2021-05-30T19:43:21Z</time>
      </trkpt>
      <trkpt lat="-12.0566800" lon="-76.9447560">
        <ele>278.3</ele>
        <time>2021-05-30T19:43:22Z</time>
      </trkpt>
      <trkpt lat="-12.0567300" lon="-76.9448630">
        <ele>278.0</ele>
        <time>2021-05-30T19:43:24Z</time>
      </trkpt>
      <trkpt lat="-12.0567530" lon="-76.9449130">
        <ele>277.8</ele>
        <time>2021-05-30T19:43:25Z</time>
      </trkpt>
      <trkpt lat="-12.0567780" lon="-76.9449620">
        <ele>277.7</ele>
        <time>2021-05-30T19:43:26Z</time>
      </trkpt>
      <trkpt lat="-12.0568040" lon="-76.9450100">
        <ele>277.5</ele>
        <time>2021-05-30T19:43:27Z</time>
      </trkpt>
      <trkpt lat="-12.0568510" lon="-76.9451040">
        <ele>277.4</ele>
        <time>2021-05-30T19:43:29Z</time>
      </trkpt>
      <trkpt lat="-12.0569070" lon="-76.9452000">
        <ele>277.3</ele>
        <time>2021-05-30T19:43:31Z</time>
      </trkpt>
      <trkpt lat="-12.0569370" lon="-76.9452460">
        <ele>277.3</ele>
        <time>2021-05-30T19:43:32Z</time>
      </trkpt>
      <trkpt lat="-12.0569990" lon="-76.9453380">
        <ele>277.1</ele>
        <time>2021-05-30T19:43:34Z</time>
      </trkpt>
      <trkpt lat="-12.0570620" lon="-76.9454240">
        <ele>276.8</ele>
        <time>2021-05-30T19:43:36Z</time>
      </trkpt>
      <trkpt lat="-12.0570970" lon="-76.9454700">
        <ele>276.7</ele>
        <time>2021-05-30T19:43:37Z</time>
      </trkpt>
      <trkpt lat="-12.0571660" lon="-76.9455750">
        <ele>276.5</ele>
        <time>2021-05-30T19:43:39Z</time>
      </trkpt>
      <trkpt lat="-12.0572280" lon="-76.9456600">
        <ele>276.4</ele>
        <time>2021-05-30T19:43:41Z</time>
      </trkpt>
      <trkpt lat="-12.0572660" lon="-76.9457590">
        <ele>276.3</ele>
        <time>2021-05-30T19:43:43Z</time>
      </trkpt>
      <trkpt lat="-12.0572900" lon="-76.9458120">
        <ele>276.2</ele>
        <time>2021-05-30T19:43:44Z</time>
      </trkpt>
      <trkpt lat="-12.0573230" lon="-76.9458630">
        <ele>276.1</ele>
        <time>2021-05-30T19:43:45Z</time>
      </trkpt>
      <trkpt lat="-12.0573860" lon="-76.9459680">
        <ele>275.9</ele>
        <time>2021-05-30T19:43:47Z</time>
      </trkpt>
      <trkpt lat="-12.0574430" lon="-76.9460840">
        <ele>275.6</ele>
        <time>2021-05-30T19:43:49Z</time>
      </trkpt>
      <trkpt lat="-12.0574670" lon="-76.9461410">
        <ele>275.5</ele>
        <time>2021-05-30T19:43:50Z</time>
      </trkpt>
      <trkpt lat="-12.0575160" lon="-76.9462620">
        <ele>275.1</ele>
        <time>2021-05-30T19:43:52Z</time>
      </trkpt>
      <trkpt lat="-12.0575450" lon="-76.9463240">
        <ele>275.0</ele>
        <time>2021-05-30T19:43:53Z</time>
      </trkpt>
      <trkpt lat="-12.0576090" lon="-76.9464520">
        <ele>274.6</ele>
        <time>2021-05-30T19:43:55Z</time>
      </trkpt>
      <trkpt lat="-12.0576400" lon="-76.9465090">
        <ele>274.5</ele>
        <time>2021-05-30T19:43:56Z</time>
      </trkpt>
      <trkpt lat="-12.0576690" lon="-76.9465640">
        <ele>274.4</ele>
        <time>2021-05-30T19:43:57Z</time>
      </trkpt>
      <trkpt lat="-12.0577230" lon="-76.9466690">
        <ele>274.1</ele>
        <time>2021-05-30T19:43:59Z</time>
      </trkpt>
      <trkpt lat="-12.0577520" lon="-76.9467220">
        <ele>273.9</ele>
        <time>2021-05-30T19:44:00Z</time>
      </trkpt>
      <trkpt lat="-12.0577830" lon="-76.9467840">
        <ele>273.8</ele>
        <time>2021-05-30T19:44:01Z</time>
      </trkpt>
      <trkpt lat="-12.0578520" lon="-76.9469170">
        <ele>273.4</ele>
        <time>2021-05-30T19:44:03Z</time>
      </trkpt>
      <trkpt lat="-12.0578900" lon="-76.9469840">
        <ele>273.3</ele>
        <time>2021-05-30T19:44:04Z</time>
      </trkpt>
      <trkpt lat="-12.0579570" lon="-76.9471140">
        <ele>272.9</ele>
        <time>2021-05-30T19:44:06Z</time>
      </trkpt>
      <trkpt lat="-12.0580280" lon="-76.9472470">
        <ele>272.6</ele>
        <time>2021-05-30T19:44:08Z</time>
      </trkpt>
      <trkpt lat="-12.0580900" lon="-76.9473730">
        <ele>272.2</ele>
        <time>2021-05-30T19:44:10Z</time>
      </trkpt>
      <trkpt lat="-12.0581260" lon="-76.9474380">
        <ele>272.0</ele>
        <time>2021-05-30T19:44:11Z</time>
      </trkpt>
      <trkpt lat="-12.0581630" lon="-76.9475010">
        <ele>271.7</ele>
        <time>2021-05-30T19:44:12Z</time>
      </trkpt>
      <trkpt lat="-12.0582210" lon="-76.9476240">
        <ele>271.1</ele>
        <time>2021-05-30T19:44:14Z</time>
      </trkpt>
      <trkpt lat="-12.0582730" lon="-76.9477750">
        <ele>270.6</ele>
        <time>2021-05-30T19:44:16Z</time>
      </trkpt>
      <trkpt lat="-12.0583300" lon="-76.9479150">
        <ele>270.3</ele>
        <time>2021-05-30T19:44:18Z</time>
      </trkpt>
      <trkpt lat="-12.0583900" lon="-76.9480380">
        <ele>270.1</ele>
        <time>2021-05-30T19:44:20Z</time>
      </trkpt>
      <trkpt lat="-12.0584500" lon="-76.9481620">
        <ele>269.9</ele>
        <time>2021-05-30T19:44:22Z</time>
      </trkpt>
      <trkpt lat="-12.0584850" lon="-76.9482210">
        <ele>269.8</ele>
        <time>2021-05-30T19:44:23Z</time>
      </trkpt>
      <trkpt lat="-12.0585600" lon="-76.9483420">
        <ele>269.4</ele>
        <time>2021-05-30T19:44:25Z</time>
      </trkpt>
      <trkpt lat="-12.0585970" lon="-76.9484100">
        <ele>269.1</ele>
        <time>2021-05-30T19:44:26Z</time>
      </trkpt>
      <trkpt lat="-12.0586630" lon="-76.9485400">
        <ele>268.7</ele>
        <time>2021-05-30T19:44:28Z</time>
      </trkpt>
      <trkpt lat="-12.0587270" lon="-76.9486580">
        <ele>268.7</ele>
        <time>2021-05-30T19:44:30Z</time>
      </trkpt>
      <trkpt lat="-12.0587950" lon="-76.9487760">
        <ele>268.7</ele>
        <time>2021-05-30T19:44:32Z</time>
      </trkpt>
      <trkpt lat="-12.0588590" lon="-76.9488860">
        <ele>268.5</ele>
        <time>2021-05-30T19:44:34Z</time>
      </trkpt>
      <trkpt lat="-12.0589280" lon="-76.9489990">
        <ele>268.2</ele>
        <time>2021-05-30T19:44:36Z</time>
      </trkpt>
      <trkpt lat="-12.0589840" lon="-76.9491180">
        <ele>268.0</ele>
        <time>2021-05-30T19:44:38Z</time>
      </trkpt>
      <trkpt lat="-12.0590120" lon="-76.9491860">
        <ele>267.9</ele>
        <time>2021-05-30T19:44:39Z</time>
      </trkpt>
      <trkpt lat="-12.0590640" lon="-76.9493300">
        <ele>267.9</ele>
        <time>2021-05-30T19:44:41Z</time>
      </trkpt>
      <trkpt lat="-12.0591170" lon="-76.9494580">
        <ele>267.8</ele>
        <time>2021-05-30T19:44:43Z</time>
      </trkpt>
      <trkpt lat="-12.0591520" lon="-76.9495230">
        <ele>267.7</ele>
        <time>2021-05-30T19:44:44Z</time>
      </trkpt>
      <trkpt lat="-12.0591790" lon="-76.9495880">
        <ele>267.6</ele>
        <time>2021-05-30T19:44:45Z</time>
      </trkpt>
      <trkpt lat="-12.0592370" lon="-76.9497000">
        <ele>267.4</ele>
        <time>2021-05-30T19:44:47Z</time>
      </trkpt>
      <trkpt lat="-12.0592990" lon="-76.9498130">
        <ele>267.2</ele>
        <time>2021-05-30T19:44:49Z</time>
      </trkpt>
      <trkpt lat="-12.0593300" lon="-76.9498660">
        <ele>267.0</ele>
        <time>2021-05-30T19:44:50Z</time>
      </trkpt>
      <trkpt lat="-12.0593930" lon="-76.9499760">
        <ele>266.8</ele>
        <time>2021-05-30T19:44:52Z</time>
      </trkpt>
      <trkpt lat="-12.0594540" lon="-76.9500960">
        <ele>266.9</ele>
        <time>2021-05-30T19:44:54Z</time>
      </trkpt>
      <trkpt lat="-12.0594880" lon="-76.9501610">
        <ele>267.0</ele>
        <time>2021-05-30T19:44:55Z</time>
      </trkpt>
      <trkpt lat="-12.0595230" lon="-76.9502270">
        <ele>266.9</ele>
        <time>2021-05-30T19:44:56Z</time>
      </trkpt>
      <trkpt lat="-12.0595830" lon="-76.9503400">
        <ele>266.7</ele>
        <time>2021-05-30T19:44:58Z</time>
      </trkpt>
      <trkpt lat="-12.0596190" lon="-76.9504000">
        <ele>266.6</ele>
        <time>2021-05-30T19:44:59Z</time>
      </trkpt>
      <trkpt lat="-12.0596470" lon="-76.9504600">
        <ele>266.5</ele>
        <time>2021-05-30T19:45:00Z</time>
      </trkpt>
      <trkpt lat="-12.0597120" lon="-76.9505780">
        <ele>266.3</ele>
        <time>2021-05-30T19:45:02Z</time>
      </trkpt>
      <trkpt lat="-12.0597420" lon="-76.9506340">
        <ele>266.2</ele>
        <time>2021-05-30T19:45:03Z</time>
      </trkpt>
      <trkpt lat="-12.0597960" lon="-76.9507410">
        <ele>265.9</ele>
        <time>2021-05-30T19:45:05Z</time>
      </trkpt>
      <trkpt lat="-12.0598260" lon="-76.9508010">
        <ele>265.8</ele>
        <time>2021-05-30T19:45:06Z</time>
      </trkpt>
      <trkpt lat="-12.0598530" lon="-76.9508670">
        <ele>265.7</ele>
        <time>2021-05-30T19:45:07Z</time>
      </trkpt>
      <trkpt lat="-12.0599070" lon="-76.9509790">
        <ele>265.6</ele>
        <time>2021-05-30T19:45:09Z</time>
      </trkpt>
      <trkpt lat="-12.0599600" lon="-76.9510730">
        <ele>265.5</ele>
        <time>2021-05-30T19:45:11Z</time>
      </trkpt>
      <trkpt lat="-12.0599860" lon="-76.9511110">
        <ele>265.4</ele>
        <time>2021-05-30T19:45:12Z</time>
      </trkpt>
      <trkpt lat="-12.0600290" lon="-76.9511630">
        <ele>265.3</ele>
        <time>2021-05-30T19:45:14Z</time>
      </trkpt>
      <trkpt lat="-12.0600550" lon="-76.9512270">
        <ele>265.2</ele>
        <time>2021-05-30T19:45:16Z</time>
      </trkpt>
      <trkpt lat="-12.0600540" lon="-76.9512790">
        <ele>265.2</ele>
        <time>2021-05-30T19:45:17Z</time>
      </trkpt>
      <trkpt lat="-12.0600280" lon="-76.9513740">
        <ele>265.1</ele>
        <time>2021-05-30T19:45:19Z</time>
      </trkpt>
      <trkpt lat="-12.0600270" lon="-76.9514240">
        <ele>265.2</ele>
        <time>2021-05-30T19:45:20Z</time>
      </trkpt>
      <trkpt lat="-12.0599680" lon="-76.9514930">
        <ele>265.3</ele>
        <time>2021-05-30T19:45:22Z</time>
      </trkpt>
      <trkpt lat="-12.0598740" lon="-76.9515710">
        <ele>265.7</ele>
        <time>2021-05-30T19:45:24Z</time>
      </trkpt>
      <trkpt lat="-12.0597690" lon="-76.9516180">
        <ele>265.7</ele>
        <time>2021-05-30T19:45:26Z</time>
      </trkpt>
      <trkpt lat="-12.0596620" lon="-76.9516280">
        <ele>265.8</ele>
        <time>2021-05-30T19:45:28Z</time>
      </trkpt>
      <trkpt lat="-12.0596090" lon="-76.9516320">
        <ele>265.8</ele>
        <time>2021-05-30T19:45:29Z</time>
      </trkpt>
      <trkpt lat="-12.0595150" lon="-76.9516430">
        <ele>265.8</ele>
        <time>2021-05-30T19:45:31Z</time>
      </trkpt>
      <trkpt lat="-12.0594680" lon="-76.9516500">
        <ele>265.9</ele>
        <time>2021-05-30T19:45:32Z</time>
      </trkpt>
      <trkpt lat="-12.0593750" lon="-76.9516610">
        <ele>266.0</ele>
        <time>2021-05-30T19:45:34Z</time>
      </trkpt>
      <trkpt lat="-12.0592750" lon="-76.9516630">
        <ele>266.1</ele>
        <time>2021-05-30T19:45:36Z</time>
      </trkpt>
      <trkpt lat="-12.0591750" lon="-76.9516560">
        <ele>266.2</ele>
        <time>2021-05-30T19:45:38Z</time>
      </trkpt>
      <trkpt lat="-12.0590740" lon="-76.9516530">
        <ele>266.3</ele>
        <time>2021-05-30T19:45:40Z</time>
      </trkpt>
      <trkpt lat="-12.0589720" lon="-76.9516710">
        <ele>266.5</ele>
        <time>2021-05-30T19:45:42Z</time>
      </trkpt>
      <trkpt lat="-12.0588630" lon="-76.9516890">
        <ele>266.6</ele>
        <time>2021-05-30T19:45:44Z</time>
      </trkpt>
      <trkpt lat="-12.0588070" lon="-76.9516960">
        <ele>266.7</ele>
        <time>2021-05-30T19:45:45Z</time>
      </trkpt>
      <trkpt lat="-12.0587000" lon="-76.9517080">
        <ele>266.8</ele>
        <time>2021-05-30T19:45:47Z</time>
      </trkpt>
      <trkpt lat="-12.0586020" lon="-76.9517270">
        <ele>267.0</ele>
        <time>2021-05-30T19:45:49Z</time>
      </trkpt>
      <trkpt lat="-12.0585550" lon="-76.9517380">
        <ele>267.0</ele>
        <time>2021-05-30T19:45:50Z</time>
      </trkpt>
      <trkpt lat="-12.0585060" lon="-76.9517580">
        <ele>267.1</ele>
        <time>2021-05-30T19:45:51Z</time>
      </trkpt>
      <trkpt lat="-12.0584100" lon="-76.9517920">
        <ele>267.3</ele>
        <time>2021-05-30T19:45:53Z</time>
      </trkpt>
      <trkpt lat="-12.0583660" lon="-76.9518090">
        <ele>267.4</ele>
        <time>2021-05-30T19:45:54Z</time>
      </trkpt>
      <trkpt lat="-12.0582750" lon="-76.9518500">
        <ele>267.5</ele>
        <time>2021-05-30T19:45:56Z</time>
      </trkpt>
      <trkpt lat="-12.0581800" lon="-76.9518860">
        <ele>267.7</ele>
        <time>2021-05-30T19:45:58Z</time>
      </trkpt>
      <trkpt lat="-12.0581230" lon="-76.9518940">
        <ele>267.7</ele>
        <time>2021-05-30T19:45:59Z</time>
      </trkpt>
      <trkpt lat="-12.0580660" lon="-76.9518980">
        <ele>267.8</ele>
        <time>2021-05-30T19:46:00Z</time>
      </trkpt>
      <trkpt lat="-12.0580140" lon="-76.9519070">
        <ele>267.9</ele>
        <time>2021-05-30T19:46:01Z</time>
      </trkpt>
      <trkpt lat="-12.0579650" lon="-76.9519200">
        <ele>268.0</ele>
        <time>2021-05-30T19:46:02Z</time>
      </trkpt>
      <trkpt lat="-12.0578680" lon="-76.9519400">
        <ele>268.1</ele>
        <time>2021-05-30T19:46:04Z</time>
      </trkpt>
      <trkpt lat="-12.0578190" lon="-76.9519530">
        <ele>268.2</ele>
        <time>2021-05-30T19:46:05Z</time>
      </trkpt>
      <trkpt lat="-12.0577240" lon="-76.9519880">
        <ele>268.4</ele>
        <time>2021-05-30T19:46:07Z</time>
      </trkpt>
      <trkpt lat="-12.0576240" lon="-76.9520280">
        <ele>268.5</ele>
        <time>2021-05-30T19:46:09Z</time>
      </trkpt>
      <trkpt lat="-12.0575690" lon="-76.9520410">
        <ele>268.5</ele>
        <time>2021-05-30T19:46:10Z</time>
      </trkpt>
      <trkpt lat="-12.0575070" lon="-76.9520510">
        <ele>268.6</ele>
        <time>2021-05-30T19:46:11Z</time>
      </trkpt>
      <trkpt lat="-12.0574510" lon="-76.9520600">
        <ele>268.6</ele>
        <time>2021-05-30T19:46:12Z</time>
      </trkpt>
      <trkpt lat="-12.0573530" lon="-76.9520930">
        <ele>268.6</ele>
        <time>2021-05-30T19:46:14Z</time>
      </trkpt>
      <trkpt lat="-12.0572560" lon="-76.9521290">
        <ele>268.7</ele>
        <time>2021-05-30T19:46:16Z</time>
      </trkpt>
      <trkpt lat="-12.0571570" lon="-76.9521520">
        <ele>268.9</ele>
        <time>2021-05-30T19:46:18Z</time>
      </trkpt>
      <trkpt lat="-12.0571050" lon="-76.9521580">
        <ele>268.9</ele>
        <time>2021-05-30T19:46:19Z</time>
      </trkpt>
      <trkpt lat="-12.0570540" lon="-76.9521660">
        <ele>269.0</ele>
        <time>2021-05-30T19:46:20Z</time>
      </trkpt>
      <trkpt lat="-12.0570000" lon="-76.9521780">
        <ele>269.1</ele>
        <time>2021-05-30T19:46:21Z</time>
      </trkpt>
      <trkpt lat="-12.0568940" lon="-76.9521980">
        <ele>269.2</ele>
        <time>2021-05-30T19:46:23Z</time>
      </trkpt>
      <trkpt lat="-12.0567850" lon="-76.9522360">
        <ele>269.3</ele>
        <time>2021-05-30T19:46:25Z</time>
      </trkpt>
      <trkpt lat="-12.0566760" lon="-76.9522990">
        <ele>269.4</ele>
        <time>2021-05-30T19:46:27Z</time>
      </trkpt>
      <trkpt lat="-12.0565550" lon="-76.9523560">
        <ele>269.4</ele>
        <time>2021-05-30T19:46:29Z</time>
      </trkpt>
      <trkpt lat="-12.0564970" lon="-76.9523770">
        <ele>269.5</ele>
        <time>2021-05-30T19:46:30Z</time>
      </trkpt>
      <trkpt lat="-12.0563740" lon="-76.9524130">
        <ele>269.5</ele>
        <time>2021-05-30T19:46:32Z</time>
      </trkpt>
      <trkpt lat="-12.0562490" lon="-76.9524420">
        <ele>269.6</ele>
        <time>2021-05-30T19:46:34Z</time>
      </trkpt>
      <trkpt lat="-12.0561890" lon="-76.9524520">
        <ele>269.7</ele>
        <time>2021-05-30T19:46:35Z</time>
      </trkpt>
      <trkpt lat="-12.0561290" lon="-76.9524600">
        <ele>269.8</ele>
        <time>2021-05-30T19:46:36Z</time>
      </trkpt>
      <trkpt lat="-12.0560230" lon="-76.9524890">
        <ele>269.9</ele>
        <time>2021-05-30T19:46:38Z</time>
      </trkpt>
      <trkpt lat="-12.0559720" lon="-76.9525150">
        <ele>269.9</ele>
        <time>2021-05-30T19:46:39Z</time>
      </trkpt>
      <trkpt lat="-12.0559220" lon="-76.9525330">
        <ele>270.0</ele>
        <time>2021-05-30T19:46:40Z</time>
      </trkpt>
      <trkpt lat="-12.0558720" lon="-76.9525560">
        <ele>270.1</ele>
        <time>2021-05-30T19:46:41Z</time>
      </trkpt>
      <trkpt lat="-12.0558220" lon="-76.9525790">
        <ele>270.2</ele>
        <time>2021-05-30T19:46:42Z</time>
      </trkpt>
      <trkpt lat="-12.0557100" lon="-76.9526220">
        <ele>270.3</ele>
        <time>2021-05-30T19:46:44Z</time>
      </trkpt>
      <trkpt lat="-12.0556540" lon="-76.9526450">
        <ele>270.4</ele>
        <time>2021-05-30T19:46:45Z</time>
      </trkpt>
      <trkpt lat="-12.0555310" lon="-76.9526860">
        <ele>270.5</ele>
        <time>2021-05-30T19:46:47Z</time>
      </trkpt>
      <trkpt lat="-12.0554140" lon="-76.9527440">
        <ele>270.5</ele>
        <time>2021-05-30T19:46:49Z</time>
      </trkpt>
      <trkpt lat="-12.0553100" lon="-76.9528140">
        <ele>270.5</ele>
        <time>2021-05-30T19:46:51Z</time>
      </trkpt>
      <trkpt lat="-12.0552670" lon="-76.9528520">
        <ele>270.5</ele>
        <time>2021-05-30T19:46:52Z</time>
      </trkpt>
      <trkpt lat="-12.0552260" lon="-76.9528900">
        <ele>270.5</ele>
        <time>2021-05-30T19:46:53Z</time>
      </trkpt>
      <trkpt lat="-12.0551590" lon="-76.9529600">
        <ele>270.5</ele>
        <time>2021-05-30T19:46:55Z</time>
      </trkpt>
      <trkpt lat="-12.0551010" lon="-76.9530340">
        <ele>270.5</ele>
        <time>2021-05-30T19:46:57Z</time>
      </trkpt>
      <trkpt lat="-12.0550730" lon="-76.9530820">
        <ele>270.5</ele>
        <time>2021-05-30T19:46:58Z</time>
      </trkpt>
      <trkpt lat="-12.0550260" lon="-76.9531930">
        <ele>270.4</ele>
        <time>2021-05-30T19:47:00Z</time>
      </trkpt>
      <trkpt lat="-12.0550080" lon="-76.9532450">
        <ele>270.4</ele>
        <time>2021-05-30T19:47:01Z</time>
      </trkpt>
      <trkpt lat="-12.0549660" lon="-76.9533470">
        <ele>270.3</ele>
        <time>2021-05-30T19:47:03Z</time>
      </trkpt>
      <trkpt lat="-12.0549190" lon="-76.9534370">
        <ele>270.3</ele>
        <time>2021-05-30T19:47:05Z</time>
      </trkpt>
      <trkpt lat="-12.0548760" lon="-76.9535320">
        <ele>270.2</ele>
        <time>2021-05-30T19:47:07Z</time>
      </trkpt>
      <trkpt lat="-12.0548470" lon="-76.9536200">
        <ele>270.2</ele>
        <time>2021-05-30T19:47:09Z</time>
      </trkpt>
      <trkpt lat="-12.0548320" lon="-76.9536600">
        <ele>270.2</ele>
        <time>2021-05-30T19:47:10Z</time>
      </trkpt>
      <trkpt lat="-12.0548110" lon="-76.9536840">
        <ele>270.1</ele>
        <time>2021-05-30T19:47:11Z</time>
      </trkpt>
      <trkpt lat="-12.0547830" lon="-76.9536770">
        <ele>270.1</ele>
        <time>2021-05-30T19:47:12Z</time>
      </trkpt>
      <trkpt lat="-12.0547480" lon="-76.9536560">
        <ele>270.1</ele>
        <time>2021-05-30T19:47:13Z</time>
      </trkpt>
      <trkpt lat="-12.0547140" lon="-76.9536390">
        <ele>270.1</ele>
        <time>2021-05-30T19:47:15Z</time>
      </trkpt>
      <trkpt lat="-12.0547030" lon="-76.9536480">
        <ele>270.1</ele>
        <time>2021-05-30T19:47:16Z</time>
      </trkpt>
      <trkpt lat="-12.0546760" lon="-76.9536490">
        <ele>270.0</ele>
        <time>2021-05-30T19:47:18Z</time>
      </trkpt>
      <trkpt lat="-12.0546590" lon="-76.9536510">
        <ele>270.0</ele>
        <time>2021-05-30T19:47:19Z</time>
      </trkpt>
      <trkpt lat="-12.0546470" lon="-76.9536480">
        <ele>270.0</ele>
        <time>2021-05-30T19:47:20Z</time>
      </trkpt>
      <trkpt lat="-12.0546410" lon="-76.9536410">
        <ele>270.0</ele>
        <time>2021-05-30T19:47:21Z</time>
      </trkpt>
      <trkpt lat="-12.0546460" lon="-76.9536290">
        <ele>270.0</ele>
        <time>2021-05-30T19:47:22Z</time>
      </trkpt>
      <trkpt lat="-12.0546480" lon="-76.9536130">
        <ele>270.0</ele>
        <time>2021-05-30T19:47:24Z</time>
      </trkpt>
      <trkpt lat="-12.0546520" lon="-76.9536030">
        <ele>270.0</ele>
        <time>2021-05-30T19:47:25Z</time>
      </trkpt>
      <trkpt lat="-12.0546560" lon="-76.9535960">
        <ele>270.0</ele>
        <time>2021-05-30T19:47:27Z</time>
      </trkpt>
      <trkpt lat="-12.0546600" lon="-76.9535940">
        <ele>270.0</ele>
        <time>2021-05-30T19:47:28Z</time>
      </trkpt>
      <trkpt lat="-12.0546650" lon="-76.9535940">
        <ele>270.0</ele>
        <time>2021-05-30T19:47:29Z</time>
      </trkpt>
      <trkpt lat="-12.0546710" lon="-76.9535940">
        <ele>270.0</ele>
        <time>2021-05-30T19:47:30Z</time>
      </trkpt>
      <trkpt lat="-12.0546740" lon="-76.9535930">
        <ele>270.0</ele>
        <time>2021-05-30T19:47:31Z</time>
      </trkpt>
      <trkpt lat="-12.0546760" lon="-76.9535920">
        <ele>270.0</ele>
        <time>2021-05-30T19:47:32Z</time>
      </trkpt>
      <trkpt lat="-12.0546760" lon="-76.9535900">
        <ele>270.0</ele>
        <time>2021-05-30T19:47:33Z</time>
      </trkpt>
      <trkpt lat="-12.0546750" lon="-76.9535890">
        <ele>270.0</ele>
        <time>2021-05-30T19:47:35Z</time>
      </trkpt>
    </trkseg>
  </trk>
</gpx>
